<?xml version="1.0" encoding="UTF-8" standalone="no" ?>
<gpx xmlns="http://www.topografix.com/GPX/1/1" xmlns:xsi="http://www.w3.org/2001/XMLSchema-instance" xsi:schemaLocation="http://www.topografix.com/GPX/1/1 http://www.topografix.com/GPX/1/1/gpx.xsd" version="1.1" creator="VisuGPX - https://www.visugpx.com">
  <metadata>
    <name>Yerres - Marolles - Boissy - Sucy et limeil  Boucle 27 km</name>
    <desc><![CDATA[Boucle effectuée en décembre 2018 avec le Rando CLub Yerrois
Attention la forêt Notre Dame est excessivement boueuse en cette saison 
Des passages parfois difficiles
Animatrice Pascale]]></desc>
  </metadata>
  <trk>
    <name><![CDATA[Yerres - Marolles - Boissy - Sucy et limeil  Boucle 27 km_1]]></name>
    <trkseg>
      <trkpt lat="48.71484" lon="2.47896">
        <ele>37.6</ele>
        <time>2018-12-12T07:28:39Z</time>
      </trkpt>
      <trkpt lat="48.71484" lon="2.47896">
        <ele>78.2603</ele>
        <time>2018-12-12T07:28:42Z</time>
      </trkpt>
      <trkpt lat="48.71499" lon="2.47911">
        <ele>82.3861</ele>
        <time>2018-12-12T07:30:25Z</time>
      </trkpt>
      <trkpt lat="48.71503" lon="2.47916">
        <ele>80.984</ele>
        <time>2018-12-12T07:30:32Z</time>
      </trkpt>
      <trkpt lat="48.71507" lon="2.47918">
        <ele>78.9459</ele>
        <time>2018-12-12T07:30:39Z</time>
      </trkpt>
      <trkpt lat="48.71511" lon="2.47916">
        <ele>78.0791</ele>
        <time>2018-12-12T07:30:42Z</time>
      </trkpt>
      <trkpt lat="48.71516" lon="2.47917">
        <ele>76.8071</ele>
        <time>2018-12-12T07:30:47Z</time>
      </trkpt>
      <trkpt lat="48.71524" lon="2.47922">
        <ele>76.4156</ele>
        <time>2018-12-12T07:30:49Z</time>
      </trkpt>
      <trkpt lat="48.7153" lon="2.47926">
        <ele>75.9548</ele>
        <time>2018-12-12T07:30:52Z</time>
      </trkpt>
      <trkpt lat="48.71532" lon="2.47933">
        <ele>75.3965</ele>
        <time>2018-12-12T07:30:57Z</time>
      </trkpt>
      <trkpt lat="48.71531" lon="2.4794">
        <ele>75.2732</ele>
        <time>2018-12-12T07:30:59Z</time>
      </trkpt>
      <trkpt lat="48.71531" lon="2.47947">
        <ele>75.2037</ele>
        <time>2018-12-12T07:31:01Z</time>
      </trkpt>
      <trkpt lat="48.71531" lon="2.47952">
        <ele>75.1683</ele>
        <time>2018-12-12T07:31:03Z</time>
      </trkpt>
      <trkpt lat="48.71533" lon="2.47959">
        <ele>75.2106</ele>
        <time>2018-12-12T07:31:08Z</time>
      </trkpt>
      <trkpt lat="48.71532" lon="2.47967">
        <ele>75.4592</ele>
        <time>2018-12-12T07:31:14Z</time>
      </trkpt>
      <trkpt lat="48.71534" lon="2.47973">
        <ele>75.6978</ele>
        <time>2018-12-12T07:31:19Z</time>
      </trkpt>
      <trkpt lat="48.71536" lon="2.47979">
        <ele>75.8381</ele>
        <time>2018-12-12T07:31:23Z</time>
      </trkpt>
      <trkpt lat="48.71539" lon="2.47987">
        <ele>75.9518</ele>
        <time>2018-12-12T07:31:31Z</time>
      </trkpt>
      <trkpt lat="48.71543" lon="2.47995">
        <ele>75.9949</ele>
        <time>2018-12-12T07:31:35Z</time>
      </trkpt>
      <trkpt lat="48.71552" lon="2.48009">
        <ele>76.0518</ele>
        <time>2018-12-12T07:31:39Z</time>
      </trkpt>
      <trkpt lat="48.71555" lon="2.48017">
        <ele>76.1484</ele>
        <time>2018-12-12T07:31:43Z</time>
      </trkpt>
      <trkpt lat="48.71555" lon="2.48025">
        <ele>76.2565</ele>
        <time>2018-12-12T07:31:47Z</time>
      </trkpt>
      <trkpt lat="48.71557" lon="2.48032">
        <ele>76.3482</ele>
        <time>2018-12-12T07:31:50Z</time>
      </trkpt>
      <trkpt lat="48.71558" lon="2.48036">
        <ele>76.4186</ele>
        <time>2018-12-12T07:31:52Z</time>
      </trkpt>
      <trkpt lat="48.71559" lon="2.48039">
        <ele>76.4988</ele>
        <time>2018-12-12T07:31:54Z</time>
      </trkpt>
      <trkpt lat="48.71559" lon="2.48047">
        <ele>76.6813</ele>
        <time>2018-12-12T07:31:59Z</time>
      </trkpt>
      <trkpt lat="48.71559" lon="2.48051">
        <ele>76.7667</ele>
        <time>2018-12-12T07:32:02Z</time>
      </trkpt>
      <trkpt lat="48.7156" lon="2.48055">
        <ele>76.8339</ele>
        <time>2018-12-12T07:32:05Z</time>
      </trkpt>
      <trkpt lat="48.71562" lon="2.48061">
        <ele>76.9543</ele>
        <time>2018-12-12T07:32:09Z</time>
      </trkpt>
      <trkpt lat="48.71563" lon="2.48068">
        <ele>77.1305</ele>
        <time>2018-12-12T07:32:14Z</time>
      </trkpt>
      <trkpt lat="48.71561" lon="2.48077">
        <ele>77.2916</ele>
        <time>2018-12-12T07:32:19Z</time>
      </trkpt>
      <trkpt lat="48.71561" lon="2.48085">
        <ele>77.4376</ele>
        <time>2018-12-12T07:32:24Z</time>
      </trkpt>
      <trkpt lat="48.71561" lon="2.4809">
        <ele>77.4899</ele>
        <time>2018-12-12T07:32:26Z</time>
      </trkpt>
      <trkpt lat="48.71564" lon="2.48097">
        <ele>77.5787</ele>
        <time>2018-12-12T07:32:30Z</time>
      </trkpt>
      <trkpt lat="48.71565" lon="2.48104">
        <ele>77.6895</ele>
        <time>2018-12-12T07:32:34Z</time>
      </trkpt>
      <trkpt lat="48.71566" lon="2.48112">
        <ele>77.788</ele>
        <time>2018-12-12T07:32:37Z</time>
      </trkpt>
      <trkpt lat="48.71569" lon="2.48119">
        <ele>77.9004</ele>
        <time>2018-12-12T07:32:40Z</time>
      </trkpt>
      <trkpt lat="48.7157" lon="2.48127">
        <ele>78.0197</ele>
        <time>2018-12-12T07:32:43Z</time>
      </trkpt>
      <trkpt lat="48.71572" lon="2.48135">
        <ele>78.1909</ele>
        <time>2018-12-12T07:32:47Z</time>
      </trkpt>
      <trkpt lat="48.71576" lon="2.48142">
        <ele>78.4494</ele>
        <time>2018-12-12T07:32:53Z</time>
      </trkpt>
      <trkpt lat="48.71577" lon="2.48151">
        <ele>78.6717</ele>
        <time>2018-12-12T07:32:58Z</time>
      </trkpt>
      <trkpt lat="48.71576" lon="2.4816">
        <ele>78.8579</ele>
        <time>2018-12-12T07:33:02Z</time>
      </trkpt>
      <trkpt lat="48.71574" lon="2.48167">
        <ele>78.9982</ele>
        <time>2018-12-12T07:33:05Z</time>
      </trkpt>
      <trkpt lat="48.71573" lon="2.48172">
        <ele>79.0462</ele>
        <time>2018-12-12T07:33:06Z</time>
      </trkpt>
      <trkpt lat="48.71572" lon="2.48176">
        <ele>79.095</ele>
        <time>2018-12-12T07:33:07Z</time>
      </trkpt>
      <trkpt lat="48.71571" lon="2.48181">
        <ele>79.1448</ele>
        <time>2018-12-12T07:33:08Z</time>
      </trkpt>
      <trkpt lat="48.71571" lon="2.48186">
        <ele>79.2441</ele>
        <time>2018-12-12T07:33:10Z</time>
      </trkpt>
      <trkpt lat="48.7157" lon="2.4819">
        <ele>79.3374</ele>
        <time>2018-12-12T07:33:12Z</time>
      </trkpt>
      <trkpt lat="48.7157" lon="2.48197">
        <ele>79.467</ele>
        <time>2018-12-12T07:33:15Z</time>
      </trkpt>
      <trkpt lat="48.7157" lon="2.48201">
        <ele>79.5498</ele>
        <time>2018-12-12T07:33:17Z</time>
      </trkpt>
      <trkpt lat="48.7157" lon="2.48201">
        <ele>79.5498</ele>
        <time>2018-12-12T07:33:23Z</time>
      </trkpt>
      <trkpt lat="48.7157" lon="2.48201">
        <ele>35.5</ele>
        <time>2018-12-12T07:33:23Z</time>
      </trkpt>
      <trkpt lat="48.7157" lon="2.48201">
        <ele>35.5</ele>
        <time>2018-12-12T07:33:26Z</time>
      </trkpt>
      <trkpt lat="48.71571" lon="2.48216">
        <ele>79.9276</ele>
        <time>2018-12-12T07:33:26Z</time>
      </trkpt>
      <trkpt lat="48.7157" lon="2.48224">
        <ele>80.1188</ele>
        <time>2018-12-12T07:33:30Z</time>
      </trkpt>
      <trkpt lat="48.7157" lon="2.48229">
        <ele>80.266</ele>
        <time>2018-12-12T07:33:33Z</time>
      </trkpt>
      <trkpt lat="48.71569" lon="2.48234">
        <ele>80.4204</ele>
        <time>2018-12-12T07:33:36Z</time>
      </trkpt>
      <trkpt lat="48.71569" lon="2.48242">
        <ele>80.628</ele>
        <time>2018-12-12T07:33:40Z</time>
      </trkpt>
      <trkpt lat="48.71569" lon="2.48247">
        <ele>80.778</ele>
        <time>2018-12-12T07:33:43Z</time>
      </trkpt>
      <trkpt lat="48.71572" lon="2.48254">
        <ele>80.9707</ele>
        <time>2018-12-12T07:33:47Z</time>
      </trkpt>
      <trkpt lat="48.71573" lon="2.48261">
        <ele>81.1596</ele>
        <time>2018-12-12T07:33:51Z</time>
      </trkpt>
      <trkpt lat="48.71574" lon="2.48271">
        <ele>81.2546</ele>
        <time>2018-12-12T07:33:53Z</time>
      </trkpt>
      <trkpt lat="48.71574" lon="2.48278">
        <ele>81.302</ele>
        <time>2018-12-12T07:33:54Z</time>
      </trkpt>
      <trkpt lat="48.7157" lon="2.48291">
        <ele>81.3531</ele>
        <time>2018-12-12T07:33:55Z</time>
      </trkpt>
      <trkpt lat="48.7157" lon="2.483">
        <ele>81.5154</ele>
        <time>2018-12-12T07:33:58Z</time>
      </trkpt>
      <trkpt lat="48.7157" lon="2.483">
        <ele>35</ele>
        <time>2018-12-12T07:34:07Z</time>
      </trkpt>
      <trkpt lat="48.7157" lon="2.483">
        <ele>35</ele>
        <time>2018-12-12T07:34:11Z</time>
      </trkpt>
      <trkpt lat="48.71574" lon="2.48315">
        <ele>82.1165</ele>
        <time>2018-12-12T07:34:11Z</time>
      </trkpt>
      <trkpt lat="48.71576" lon="2.48321">
        <ele>82.2871</ele>
        <time>2018-12-12T07:34:17Z</time>
      </trkpt>
      <trkpt lat="48.71576" lon="2.48321">
        <ele>35</ele>
        <time>2018-12-12T07:34:24Z</time>
      </trkpt>
      <trkpt lat="48.71576" lon="2.48321">
        <ele>35</ele>
        <time>2018-12-12T07:34:27Z</time>
      </trkpt>
      <trkpt lat="48.71566" lon="2.48334">
        <ele>82.5426</ele>
        <time>2018-12-12T07:34:27Z</time>
      </trkpt>
      <trkpt lat="48.71564" lon="2.48341">
        <ele>82.5683</ele>
        <time>2018-12-12T07:34:29Z</time>
      </trkpt>
      <trkpt lat="48.71561" lon="2.48353">
        <ele>82.6322</ele>
        <time>2018-12-12T07:34:32Z</time>
      </trkpt>
      <trkpt lat="48.7156" lon="2.48361">
        <ele>82.7098</ele>
        <time>2018-12-12T07:34:36Z</time>
      </trkpt>
      <trkpt lat="48.71558" lon="2.48369">
        <ele>82.7808</ele>
        <time>2018-12-12T07:34:40Z</time>
      </trkpt>
      <trkpt lat="48.71557" lon="2.48376">
        <ele>82.835</ele>
        <time>2018-12-12T07:34:43Z</time>
      </trkpt>
      <trkpt lat="48.71557" lon="2.48381">
        <ele>82.8716</ele>
        <time>2018-12-12T07:34:45Z</time>
      </trkpt>
      <trkpt lat="48.71557" lon="2.48381">
        <ele>35</ele>
        <time>2018-12-12T07:34:52Z</time>
      </trkpt>
      <trkpt lat="48.71557" lon="2.48381">
        <ele>35</ele>
        <time>2018-12-12T07:34:58Z</time>
      </trkpt>
      <trkpt lat="48.71554" lon="2.48404">
        <ele>83.0988</ele>
        <time>2018-12-12T07:34:58Z</time>
      </trkpt>
      <trkpt lat="48.71551" lon="2.48412">
        <ele>83.1332</ele>
        <time>2018-12-12T07:35:00Z</time>
      </trkpt>
      <trkpt lat="48.71547" lon="2.48419">
        <ele>83.164</ele>
        <time>2018-12-12T07:35:02Z</time>
      </trkpt>
      <trkpt lat="48.71546" lon="2.48421">
        <ele>83.193</ele>
        <time>2018-12-12T07:35:04Z</time>
      </trkpt>
      <trkpt lat="48.71543" lon="2.48425">
        <ele>83.2354</ele>
        <time>2018-12-12T07:35:07Z</time>
      </trkpt>
      <trkpt lat="48.71539" lon="2.48429">
        <ele>83.2891</ele>
        <time>2018-12-12T07:35:11Z</time>
      </trkpt>
      <trkpt lat="48.71536" lon="2.48434">
        <ele>83.3342</ele>
        <time>2018-12-12T07:35:14Z</time>
      </trkpt>
      <trkpt lat="48.71533" lon="2.48437">
        <ele>83.3638</ele>
        <time>2018-12-12T07:35:16Z</time>
      </trkpt>
      <trkpt lat="48.71531" lon="2.4844">
        <ele>83.3822</ele>
        <time>2018-12-12T07:35:17Z</time>
      </trkpt>
      <trkpt lat="48.71527" lon="2.48444">
        <ele>83.4715</ele>
        <time>2018-12-12T07:35:22Z</time>
      </trkpt>
      <trkpt lat="48.71522" lon="2.48446">
        <ele>83.5412</ele>
        <time>2018-12-12T07:35:26Z</time>
      </trkpt>
      <trkpt lat="48.71518" lon="2.4845">
        <ele>83.5817</ele>
        <time>2018-12-12T07:35:29Z</time>
      </trkpt>
      <trkpt lat="48.71513" lon="2.48448">
        <ele>83.6603</ele>
        <time>2018-12-12T07:35:35Z</time>
      </trkpt>
      <trkpt lat="48.71508" lon="2.48445">
        <ele>83.713</ele>
        <time>2018-12-12T07:35:38Z</time>
      </trkpt>
      <trkpt lat="48.71502" lon="2.48442">
        <ele>83.7668</ele>
        <time>2018-12-12T07:35:41Z</time>
      </trkpt>
      <trkpt lat="48.71499" lon="2.4844">
        <ele>83.8015</ele>
        <time>2018-12-12T07:35:43Z</time>
      </trkpt>
      <trkpt lat="48.71499" lon="2.48433">
        <ele>83.8621</ele>
        <time>2018-12-12T07:35:47Z</time>
      </trkpt>
      <trkpt lat="48.71498" lon="2.48426">
        <ele>83.8869</ele>
        <time>2018-12-12T07:35:49Z</time>
      </trkpt>
      <trkpt lat="48.71497" lon="2.48417">
        <ele>83.9517</ele>
        <time>2018-12-12T07:35:55Z</time>
      </trkpt>
      <trkpt lat="48.71495" lon="2.48407">
        <ele>84.0013</ele>
        <time>2018-12-12T07:36:00Z</time>
      </trkpt>
      <trkpt lat="48.71494" lon="2.48402">
        <ele>84.0459</ele>
        <time>2018-12-12T07:36:05Z</time>
      </trkpt>
      <trkpt lat="48.71492" lon="2.48395">
        <ele>84.0712</ele>
        <time>2018-12-12T07:36:08Z</time>
      </trkpt>
      <trkpt lat="48.7149" lon="2.48388">
        <ele>84.0915</ele>
        <time>2018-12-12T07:36:11Z</time>
      </trkpt>
      <trkpt lat="48.71487" lon="2.48379">
        <ele>84.1108</ele>
        <time>2018-12-12T07:36:15Z</time>
      </trkpt>
      <trkpt lat="48.71486" lon="2.48374">
        <ele>84.118</ele>
        <time>2018-12-12T07:36:17Z</time>
      </trkpt>
      <trkpt lat="48.71485" lon="2.48365">
        <ele>84.1248</ele>
        <time>2018-12-12T07:36:19Z</time>
      </trkpt>
      <trkpt lat="48.71483" lon="2.48358">
        <ele>84.1422</ele>
        <time>2018-12-12T07:36:24Z</time>
      </trkpt>
      <trkpt lat="48.71481" lon="2.48353">
        <ele>84.1489</ele>
        <time>2018-12-12T07:36:26Z</time>
      </trkpt>
      <trkpt lat="48.71479" lon="2.48345">
        <ele>84.1578</ele>
        <time>2018-12-12T07:36:29Z</time>
      </trkpt>
      <trkpt lat="48.71477" lon="2.48337">
        <ele>84.1652</ele>
        <time>2018-12-12T07:36:32Z</time>
      </trkpt>
      <trkpt lat="48.71475" lon="2.48331">
        <ele>84.1725</ele>
        <time>2018-12-12T07:36:35Z</time>
      </trkpt>
      <trkpt lat="48.71472" lon="2.48324">
        <ele>84.1833</ele>
        <time>2018-12-12T07:36:39Z</time>
      </trkpt>
      <trkpt lat="48.71471" lon="2.4832">
        <ele>84.188</ele>
        <time>2018-12-12T07:36:41Z</time>
      </trkpt>
      <trkpt lat="48.71468" lon="2.48315">
        <ele>84.1954</ele>
        <time>2018-12-12T07:36:44Z</time>
      </trkpt>
      <trkpt lat="48.71466" lon="2.48307">
        <ele>84.2055</ele>
        <time>2018-12-12T07:36:48Z</time>
      </trkpt>
      <trkpt lat="48.71465" lon="2.48303">
        <ele>84.2157</ele>
        <time>2018-12-12T07:36:51Z</time>
      </trkpt>
      <trkpt lat="48.7146" lon="2.48299">
        <ele>84.2275</ele>
        <time>2018-12-12T07:36:54Z</time>
      </trkpt>
      <trkpt lat="48.71459" lon="2.48297">
        <ele>84.2368</ele>
        <time>2018-12-12T07:36:56Z</time>
      </trkpt>
      <trkpt lat="48.71456" lon="2.48295">
        <ele>84.2474</ele>
        <time>2018-12-12T07:36:58Z</time>
      </trkpt>
      <trkpt lat="48.71453" lon="2.48292">
        <ele>84.2589</ele>
        <time>2018-12-12T07:37:00Z</time>
      </trkpt>
      <trkpt lat="48.71451" lon="2.4829">
        <ele>84.2709</ele>
        <time>2018-12-12T07:37:02Z</time>
      </trkpt>
      <trkpt lat="48.71447" lon="2.4829">
        <ele>84.2985</ele>
        <time>2018-12-12T07:37:06Z</time>
      </trkpt>
      <trkpt lat="48.71442" lon="2.48291">
        <ele>84.3436</ele>
        <time>2018-12-12T07:37:12Z</time>
      </trkpt>
      <trkpt lat="48.71437" lon="2.48288">
        <ele>84.3798</ele>
        <time>2018-12-12T07:37:18Z</time>
      </trkpt>
      <trkpt lat="48.71432" lon="2.48286">
        <ele>84.3988</ele>
        <time>2018-12-12T07:37:22Z</time>
      </trkpt>
      <trkpt lat="48.71427" lon="2.48289">
        <ele>84.4178</ele>
        <time>2018-12-12T07:37:27Z</time>
      </trkpt>
      <trkpt lat="48.71424" lon="2.4829">
        <ele>84.4263</ele>
        <time>2018-12-12T07:37:29Z</time>
      </trkpt>
      <trkpt lat="48.71421" lon="2.48292">
        <ele>84.4435</ele>
        <time>2018-12-12T07:37:32Z</time>
      </trkpt>
      <trkpt lat="48.71418" lon="2.48297">
        <ele>84.4795</ele>
        <time>2018-12-12T07:37:37Z</time>
      </trkpt>
      <trkpt lat="48.71415" lon="2.48306">
        <ele>84.5043</ele>
        <time>2018-12-12T07:37:41Z</time>
      </trkpt>
      <trkpt lat="48.71414" lon="2.48313">
        <ele>84.5208</ele>
        <time>2018-12-12T07:37:44Z</time>
      </trkpt>
      <trkpt lat="48.71407" lon="2.48329">
        <ele>84.5456</ele>
        <time>2018-12-12T07:37:49Z</time>
      </trkpt>
      <trkpt lat="48.71407" lon="2.48339">
        <ele>84.5821</ele>
        <time>2018-12-12T07:37:55Z</time>
      </trkpt>
      <trkpt lat="48.71404" lon="2.48354">
        <ele>84.6123</ele>
        <time>2018-12-12T07:38:00Z</time>
      </trkpt>
      <trkpt lat="48.714" lon="2.48359">
        <ele>84.657</ele>
        <time>2018-12-12T07:38:04Z</time>
      </trkpt>
      <trkpt lat="48.71399" lon="2.48363">
        <ele>84.6801</ele>
        <time>2018-12-12T07:38:06Z</time>
      </trkpt>
      <trkpt lat="48.71395" lon="2.48369">
        <ele>84.7392</ele>
        <time>2018-12-12T07:38:11Z</time>
      </trkpt>
      <trkpt lat="48.71391" lon="2.48374">
        <ele>84.7785</ele>
        <time>2018-12-12T07:38:14Z</time>
      </trkpt>
      <trkpt lat="48.71387" lon="2.48379">
        <ele>84.8561</ele>
        <time>2018-12-12T07:38:20Z</time>
      </trkpt>
      <trkpt lat="48.71384" lon="2.48385">
        <ele>84.9183</ele>
        <time>2018-12-12T07:38:25Z</time>
      </trkpt>
      <trkpt lat="48.7138" lon="2.4839">
        <ele>84.9787</ele>
        <time>2018-12-12T07:38:31Z</time>
      </trkpt>
      <trkpt lat="48.71377" lon="2.48395">
        <ele>85.014</ele>
        <time>2018-12-12T07:38:34Z</time>
      </trkpt>
      <trkpt lat="48.71375" lon="2.48402">
        <ele>85.0504</ele>
        <time>2018-12-12T07:38:37Z</time>
      </trkpt>
      <trkpt lat="48.71373" lon="2.48409">
        <ele>85.1191</ele>
        <time>2018-12-12T07:38:44Z</time>
      </trkpt>
      <trkpt lat="48.71371" lon="2.48416">
        <ele>85.1603</ele>
        <time>2018-12-12T07:38:47Z</time>
      </trkpt>
      <trkpt lat="48.71369" lon="2.48422">
        <ele>85.2148</ele>
        <time>2018-12-12T07:38:51Z</time>
      </trkpt>
      <trkpt lat="48.71368" lon="2.48432">
        <ele>85.2542</ele>
        <time>2018-12-12T07:38:54Z</time>
      </trkpt>
      <trkpt lat="48.71367" lon="2.48442">
        <ele>85.2932</ele>
        <time>2018-12-12T07:38:57Z</time>
      </trkpt>
      <trkpt lat="48.71367" lon="2.48448">
        <ele>85.3331</ele>
        <time>2018-12-12T07:39:01Z</time>
      </trkpt>
      <trkpt lat="48.71364" lon="2.48455">
        <ele>85.3975</ele>
        <time>2018-12-12T07:39:06Z</time>
      </trkpt>
      <trkpt lat="48.71363" lon="2.48462">
        <ele>85.4711</ele>
        <time>2018-12-12T07:39:13Z</time>
      </trkpt>
      <trkpt lat="48.71363" lon="2.4847">
        <ele>85.5245</ele>
        <time>2018-12-12T07:39:17Z</time>
      </trkpt>
      <trkpt lat="48.71362" lon="2.48477">
        <ele>85.561</ele>
        <time>2018-12-12T07:39:20Z</time>
      </trkpt>
      <trkpt lat="48.71362" lon="2.48485">
        <ele>85.6167</ele>
        <time>2018-12-12T07:39:24Z</time>
      </trkpt>
      <trkpt lat="48.71362" lon="2.48492">
        <ele>85.6478</ele>
        <time>2018-12-12T07:39:26Z</time>
      </trkpt>
      <trkpt lat="48.71361" lon="2.48502">
        <ele>85.679</ele>
        <time>2018-12-12T07:39:28Z</time>
      </trkpt>
      <trkpt lat="48.7136" lon="2.48509">
        <ele>85.7257</ele>
        <time>2018-12-12T07:39:31Z</time>
      </trkpt>
      <trkpt lat="48.71358" lon="2.48516">
        <ele>85.7586</ele>
        <time>2018-12-12T07:39:33Z</time>
      </trkpt>
      <trkpt lat="48.71357" lon="2.48524">
        <ele>85.8093</ele>
        <time>2018-12-12T07:39:36Z</time>
      </trkpt>
      <trkpt lat="48.71357" lon="2.48524">
        <ele>85.8093</ele>
        <time>2018-12-12T07:39:41Z</time>
      </trkpt>
      <trkpt lat="48.71357" lon="2.48524">
        <ele>38.9</ele>
        <time>2018-12-12T07:39:41Z</time>
      </trkpt>
      <trkpt lat="48.71357" lon="2.48524">
        <ele>38.9</ele>
        <time>2018-12-12T07:39:56Z</time>
      </trkpt>
      <trkpt lat="48.71357" lon="2.48546">
        <ele>86.1565</ele>
        <time>2018-12-12T07:39:56Z</time>
      </trkpt>
      <trkpt lat="48.71356" lon="2.48555">
        <ele>86.2126</ele>
        <time>2018-12-12T07:39:59Z</time>
      </trkpt>
      <trkpt lat="48.71356" lon="2.48564">
        <ele>86.2681</ele>
        <time>2018-12-12T07:40:02Z</time>
      </trkpt>
      <trkpt lat="48.71355" lon="2.48575">
        <ele>86.322</ele>
        <time>2018-12-12T07:40:05Z</time>
      </trkpt>
      <trkpt lat="48.71354" lon="2.48579">
        <ele>86.3398</ele>
        <time>2018-12-12T07:40:06Z</time>
      </trkpt>
      <trkpt lat="48.71354" lon="2.48585">
        <ele>86.3742</ele>
        <time>2018-12-12T07:40:08Z</time>
      </trkpt>
      <trkpt lat="48.71353" lon="2.48592">
        <ele>86.4414</ele>
        <time>2018-12-12T07:40:12Z</time>
      </trkpt>
      <trkpt lat="48.71353" lon="2.48595">
        <ele>86.4908</ele>
        <time>2018-12-12T07:40:15Z</time>
      </trkpt>
      <trkpt lat="48.71351" lon="2.48603">
        <ele>86.5573</ele>
        <time>2018-12-12T07:40:19Z</time>
      </trkpt>
      <trkpt lat="48.7135" lon="2.48612">
        <ele>86.6363</ele>
        <time>2018-12-12T07:40:24Z</time>
      </trkpt>
      <trkpt lat="48.7135" lon="2.48617">
        <ele>86.683</ele>
        <time>2018-12-12T07:40:27Z</time>
      </trkpt>
      <trkpt lat="48.71351" lon="2.48624">
        <ele>86.7291</ele>
        <time>2018-12-12T07:40:30Z</time>
      </trkpt>
      <trkpt lat="48.71352" lon="2.48635">
        <ele>86.7876</ele>
        <time>2018-12-12T07:40:34Z</time>
      </trkpt>
      <trkpt lat="48.71352" lon="2.4864">
        <ele>86.8163</ele>
        <time>2018-12-12T07:40:36Z</time>
      </trkpt>
      <trkpt lat="48.71351" lon="2.4865">
        <ele>86.8722</ele>
        <time>2018-12-12T07:40:40Z</time>
      </trkpt>
      <trkpt lat="48.71349" lon="2.48656">
        <ele>86.9105</ele>
        <time>2018-12-12T07:40:43Z</time>
      </trkpt>
      <trkpt lat="48.71349" lon="2.48665">
        <ele>86.9724</ele>
        <time>2018-12-12T07:40:48Z</time>
      </trkpt>
      <trkpt lat="48.71349" lon="2.48671">
        <ele>86.9966</ele>
        <time>2018-12-12T07:40:50Z</time>
      </trkpt>
      <trkpt lat="48.71349" lon="2.48675">
        <ele>87.0199</ele>
        <time>2018-12-12T07:40:52Z</time>
      </trkpt>
      <trkpt lat="48.71346" lon="2.48684">
        <ele>87.0639</ele>
        <time>2018-12-12T07:40:56Z</time>
      </trkpt>
      <trkpt lat="48.71345" lon="2.48688">
        <ele>87.0747</ele>
        <time>2018-12-12T07:40:57Z</time>
      </trkpt>
      <trkpt lat="48.71344" lon="2.48695">
        <ele>87.1056</ele>
        <time>2018-12-12T07:41:00Z</time>
      </trkpt>
      <trkpt lat="48.71344" lon="2.48695">
        <ele>87.1056</ele>
        <time>2018-12-12T07:41:05Z</time>
      </trkpt>
      <trkpt lat="48.71344" lon="2.48695">
        <ele>44</ele>
        <time>2018-12-12T07:41:05Z</time>
      </trkpt>
      <trkpt lat="48.71344" lon="2.48695">
        <ele>44</ele>
        <time>2018-12-12T07:41:14Z</time>
      </trkpt>
      <trkpt lat="48.71341" lon="2.48717">
        <ele>87.2814</ele>
        <time>2018-12-12T07:41:14Z</time>
      </trkpt>
      <trkpt lat="48.71341" lon="2.48725">
        <ele>87.3524</ele>
        <time>2018-12-12T07:41:19Z</time>
      </trkpt>
      <trkpt lat="48.71341" lon="2.48728">
        <ele>87.3823</ele>
        <time>2018-12-12T07:41:21Z</time>
      </trkpt>
      <trkpt lat="48.71341" lon="2.48737">
        <ele>87.4274</ele>
        <time>2018-12-12T07:41:24Z</time>
      </trkpt>
      <trkpt lat="48.7134" lon="2.48744">
        <ele>87.5092</ele>
        <time>2018-12-12T07:41:29Z</time>
      </trkpt>
      <trkpt lat="48.7134" lon="2.4875">
        <ele>87.5429</ele>
        <time>2018-12-12T07:41:31Z</time>
      </trkpt>
      <trkpt lat="48.71339" lon="2.48756">
        <ele>87.5763</ele>
        <time>2018-12-12T07:41:33Z</time>
      </trkpt>
      <trkpt lat="48.71338" lon="2.48763">
        <ele>87.6294</ele>
        <time>2018-12-12T07:41:36Z</time>
      </trkpt>
      <trkpt lat="48.71337" lon="2.48768">
        <ele>87.6655</ele>
        <time>2018-12-12T07:41:38Z</time>
      </trkpt>
      <trkpt lat="48.71336" lon="2.48772">
        <ele>87.6838</ele>
        <time>2018-12-12T07:41:39Z</time>
      </trkpt>
      <trkpt lat="48.71335" lon="2.48775">
        <ele>87.7199</ele>
        <time>2018-12-12T07:41:41Z</time>
      </trkpt>
      <trkpt lat="48.71334" lon="2.48783">
        <ele>87.79</ele>
        <time>2018-12-12T07:41:45Z</time>
      </trkpt>
      <trkpt lat="48.71333" lon="2.48791">
        <ele>87.8406</ele>
        <time>2018-12-12T07:41:48Z</time>
      </trkpt>
      <trkpt lat="48.71333" lon="2.48799">
        <ele>87.8892</ele>
        <time>2018-12-12T07:41:51Z</time>
      </trkpt>
      <trkpt lat="48.71331" lon="2.48806">
        <ele>87.9514</ele>
        <time>2018-12-12T07:41:55Z</time>
      </trkpt>
      <trkpt lat="48.7133" lon="2.48813">
        <ele>88.0111</ele>
        <time>2018-12-12T07:41:59Z</time>
      </trkpt>
      <trkpt lat="48.71328" lon="2.4882">
        <ele>88.0967</ele>
        <time>2018-12-12T07:42:05Z</time>
      </trkpt>
      <trkpt lat="48.71327" lon="2.48825">
        <ele>88.1405</ele>
        <time>2018-12-12T07:42:08Z</time>
      </trkpt>
      <trkpt lat="48.71327" lon="2.48833">
        <ele>88.1976</ele>
        <time>2018-12-12T07:42:12Z</time>
      </trkpt>
      <trkpt lat="48.71325" lon="2.48843">
        <ele>88.2655</ele>
        <time>2018-12-12T07:42:17Z</time>
      </trkpt>
      <trkpt lat="48.71325" lon="2.48847">
        <ele>88.2789</ele>
        <time>2018-12-12T07:42:18Z</time>
      </trkpt>
      <trkpt lat="48.71325" lon="2.48856">
        <ele>88.332</ele>
        <time>2018-12-12T07:42:22Z</time>
      </trkpt>
      <trkpt lat="48.71325" lon="2.48863">
        <ele>88.3578</ele>
        <time>2018-12-12T07:42:24Z</time>
      </trkpt>
      <trkpt lat="48.71323" lon="2.4887">
        <ele>88.4136</ele>
        <time>2018-12-12T07:42:28Z</time>
      </trkpt>
      <trkpt lat="48.71331" lon="2.48876">
        <ele>88.4985</ele>
        <time>2018-12-12T07:42:34Z</time>
      </trkpt>
      <trkpt lat="48.7133" lon="2.48884">
        <ele>88.5307</ele>
        <time>2018-12-12T07:42:36Z</time>
      </trkpt>
      <trkpt lat="48.71333" lon="2.48889">
        <ele>88.5808</ele>
        <time>2018-12-12T07:42:39Z</time>
      </trkpt>
      <trkpt lat="48.71337" lon="2.48893">
        <ele>88.6292</ele>
        <time>2018-12-12T07:42:42Z</time>
      </trkpt>
      <trkpt lat="48.71342" lon="2.48895">
        <ele>88.6814</ele>
        <time>2018-12-12T07:42:45Z</time>
      </trkpt>
      <trkpt lat="48.71345" lon="2.48902">
        <ele>88.762</ele>
        <time>2018-12-12T07:42:50Z</time>
      </trkpt>
      <trkpt lat="48.7135" lon="2.48906">
        <ele>88.8077</ele>
        <time>2018-12-12T07:42:53Z</time>
      </trkpt>
      <trkpt lat="48.71359" lon="2.48906">
        <ele>88.8773</ele>
        <time>2018-12-12T07:42:58Z</time>
      </trkpt>
      <trkpt lat="48.71363" lon="2.4891">
        <ele>88.9171</ele>
        <time>2018-12-12T07:43:01Z</time>
      </trkpt>
      <trkpt lat="48.71364" lon="2.48917">
        <ele>88.9584</ele>
        <time>2018-12-12T07:43:04Z</time>
      </trkpt>
      <trkpt lat="48.71369" lon="2.4892">
        <ele>88.9998</ele>
        <time>2018-12-12T07:43:07Z</time>
      </trkpt>
      <trkpt lat="48.71373" lon="2.48922">
        <ele>89.027</ele>
        <time>2018-12-12T07:43:09Z</time>
      </trkpt>
      <trkpt lat="48.71376" lon="2.48924">
        <ele>89.0541</ele>
        <time>2018-12-12T07:43:11Z</time>
      </trkpt>
      <trkpt lat="48.71385" lon="2.48926">
        <ele>89.1238</ele>
        <time>2018-12-12T07:43:16Z</time>
      </trkpt>
      <trkpt lat="48.7139" lon="2.48924">
        <ele>89.149</ele>
        <time>2018-12-12T07:43:18Z</time>
      </trkpt>
      <trkpt lat="48.71394" lon="2.48929">
        <ele>89.2036</ele>
        <time>2018-12-12T07:43:23Z</time>
      </trkpt>
      <trkpt lat="48.71399" lon="2.48932">
        <ele>89.2509</ele>
        <time>2018-12-12T07:43:28Z</time>
      </trkpt>
      <trkpt lat="48.71403" lon="2.48937">
        <ele>89.2812</ele>
        <time>2018-12-12T07:43:32Z</time>
      </trkpt>
      <trkpt lat="48.71408" lon="2.48939">
        <ele>89.3033</ele>
        <time>2018-12-12T07:43:36Z</time>
      </trkpt>
      <trkpt lat="48.71412" lon="2.48941">
        <ele>89.3135</ele>
        <time>2018-12-12T07:43:39Z</time>
      </trkpt>
      <trkpt lat="48.71416" lon="2.48941">
        <ele>89.3198</ele>
        <time>2018-12-12T07:43:42Z</time>
      </trkpt>
      <trkpt lat="48.71422" lon="2.48945">
        <ele>89.3215</ele>
        <time>2018-12-12T07:43:46Z</time>
      </trkpt>
      <trkpt lat="48.71424" lon="2.48946">
        <ele>89.3213</ele>
        <time>2018-12-12T07:43:48Z</time>
      </trkpt>
      <trkpt lat="48.71426" lon="2.48948">
        <ele>89.3204</ele>
        <time>2018-12-12T07:43:50Z</time>
      </trkpt>
      <trkpt lat="48.7143" lon="2.48949">
        <ele>89.3159</ele>
        <time>2018-12-12T07:43:53Z</time>
      </trkpt>
      <trkpt lat="48.71434" lon="2.48953">
        <ele>89.3094</ele>
        <time>2018-12-12T07:43:56Z</time>
      </trkpt>
      <trkpt lat="48.71438" lon="2.48956">
        <ele>89.299</ele>
        <time>2018-12-12T07:44:00Z</time>
      </trkpt>
      <trkpt lat="48.71441" lon="2.48958">
        <ele>89.2895</ele>
        <time>2018-12-12T07:44:03Z</time>
      </trkpt>
      <trkpt lat="48.71446" lon="2.4896">
        <ele>89.2746</ele>
        <time>2018-12-12T07:44:07Z</time>
      </trkpt>
      <trkpt lat="48.71451" lon="2.48962">
        <ele>89.2608</ele>
        <time>2018-12-12T07:44:10Z</time>
      </trkpt>
      <trkpt lat="48.71453" lon="2.48963">
        <ele>89.2445</ele>
        <time>2018-12-12T07:44:13Z</time>
      </trkpt>
      <trkpt lat="48.71458" lon="2.48964">
        <ele>89.2264</ele>
        <time>2018-12-12T07:44:16Z</time>
      </trkpt>
      <trkpt lat="48.71462" lon="2.48966">
        <ele>89.2124</ele>
        <time>2018-12-12T07:44:18Z</time>
      </trkpt>
      <trkpt lat="48.71464" lon="2.48967">
        <ele>89.2049</ele>
        <time>2018-12-12T07:44:19Z</time>
      </trkpt>
      <trkpt lat="48.71469" lon="2.48967">
        <ele>89.1738</ele>
        <time>2018-12-12T07:44:23Z</time>
      </trkpt>
      <trkpt lat="48.71473" lon="2.48961">
        <ele>89.1521</ele>
        <time>2018-12-12T07:44:26Z</time>
      </trkpt>
      <trkpt lat="48.71477" lon="2.48953">
        <ele>89.1339</ele>
        <time>2018-12-12T07:44:29Z</time>
      </trkpt>
      <trkpt lat="48.71477" lon="2.48953">
        <ele>38.6</ele>
        <time>2018-12-12T07:44:35Z</time>
      </trkpt>
      <trkpt lat="48.71477" lon="2.48953">
        <ele>38.6</ele>
        <time>2018-12-12T07:44:41Z</time>
      </trkpt>
      <trkpt lat="48.7147" lon="2.4894">
        <ele>89.0747</ele>
        <time>2018-12-12T07:44:41Z</time>
      </trkpt>
      <trkpt lat="48.71467" lon="2.48935">
        <ele>89.0659</ele>
        <time>2018-12-12T07:44:43Z</time>
      </trkpt>
      <trkpt lat="48.71464" lon="2.48929">
        <ele>89.049</ele>
        <time>2018-12-12T07:44:48Z</time>
      </trkpt>
      <trkpt lat="48.71458" lon="2.48931">
        <ele>89.0244</ele>
        <time>2018-12-12T07:44:55Z</time>
      </trkpt>
      <trkpt lat="48.71455" lon="2.48937">
        <ele>89.0132</ele>
        <time>2018-12-12T07:44:58Z</time>
      </trkpt>
      <trkpt lat="48.71451" lon="2.48968">
        <ele>88.9001</ele>
        <time>2018-12-12T07:45:12Z</time>
      </trkpt>
      <trkpt lat="48.71448" lon="2.48984">
        <ele>88.8998</ele>
        <time>2018-12-12T07:45:15Z</time>
      </trkpt>
      <trkpt lat="48.7145" lon="2.4899">
        <ele>88.8998</ele>
        <time>2018-12-12T07:45:16Z</time>
      </trkpt>
      <trkpt lat="48.71451" lon="2.48997">
        <ele>88.9004</ele>
        <time>2018-12-12T07:45:21Z</time>
      </trkpt>
      <trkpt lat="48.71452" lon="2.49005">
        <ele>88.8939</ele>
        <time>2018-12-12T07:45:27Z</time>
      </trkpt>
      <trkpt lat="48.71449" lon="2.49011">
        <ele>88.8891</ele>
        <time>2018-12-12T07:45:34Z</time>
      </trkpt>
      <trkpt lat="48.7145" lon="2.49018">
        <ele>88.8927</ele>
        <time>2018-12-12T07:45:40Z</time>
      </trkpt>
      <trkpt lat="48.71446" lon="2.49026">
        <ele>88.8963</ele>
        <time>2018-12-12T07:45:45Z</time>
      </trkpt>
      <trkpt lat="48.71445" lon="2.49033">
        <ele>88.8955</ele>
        <time>2018-12-12T07:45:48Z</time>
      </trkpt>
      <trkpt lat="48.71441" lon="2.49038">
        <ele>88.8902</ele>
        <time>2018-12-12T07:45:52Z</time>
      </trkpt>
      <trkpt lat="48.71441" lon="2.49053">
        <ele>88.8835</ele>
        <time>2018-12-12T07:45:56Z</time>
      </trkpt>
      <trkpt lat="48.71439" lon="2.49062">
        <ele>88.8786</ele>
        <time>2018-12-12T07:45:58Z</time>
      </trkpt>
      <trkpt lat="48.71439" lon="2.49065">
        <ele>88.8692</ele>
        <time>2018-12-12T07:46:00Z</time>
      </trkpt>
      <trkpt lat="48.71438" lon="2.49073">
        <ele>88.8502</ele>
        <time>2018-12-12T07:46:03Z</time>
      </trkpt>
      <trkpt lat="48.71436" lon="2.49082">
        <ele>88.8247</ele>
        <time>2018-12-12T07:46:06Z</time>
      </trkpt>
      <trkpt lat="48.71434" lon="2.49086">
        <ele>88.8148</ele>
        <time>2018-12-12T07:46:07Z</time>
      </trkpt>
      <trkpt lat="48.71431" lon="2.49094">
        <ele>88.7818</ele>
        <time>2018-12-12T07:46:12Z</time>
      </trkpt>
      <trkpt lat="48.71428" lon="2.491">
        <ele>88.7413</ele>
        <time>2018-12-12T07:46:17Z</time>
      </trkpt>
      <trkpt lat="48.71428" lon="2.491">
        <ele>88.7413</ele>
        <time>2018-12-12T07:46:24Z</time>
      </trkpt>
      <trkpt lat="48.71428" lon="2.491">
        <ele>35.5</ele>
        <time>2018-12-12T07:46:24Z</time>
      </trkpt>
      <trkpt lat="48.71428" lon="2.491">
        <ele>35.5</ele>
        <time>2018-12-12T07:47:12Z</time>
      </trkpt>
      <trkpt lat="48.71409" lon="2.49133">
        <ele>88.2006</ele>
        <time>2018-12-12T07:47:12Z</time>
      </trkpt>
      <trkpt lat="48.71407" lon="2.49142">
        <ele>88.1661</ele>
        <time>2018-12-12T07:47:15Z</time>
      </trkpt>
      <trkpt lat="48.71406" lon="2.49149">
        <ele>88.1331</ele>
        <time>2018-12-12T07:47:17Z</time>
      </trkpt>
      <trkpt lat="48.71404" lon="2.49157">
        <ele>88.0619</ele>
        <time>2018-12-12T07:47:24Z</time>
      </trkpt>
      <trkpt lat="48.71399" lon="2.49162">
        <ele>88.0284</ele>
        <time>2018-12-12T07:47:26Z</time>
      </trkpt>
      <trkpt lat="48.71397" lon="2.49171">
        <ele>87.9602</ele>
        <time>2018-12-12T07:47:30Z</time>
      </trkpt>
      <trkpt lat="48.71395" lon="2.49178">
        <ele>87.9074</ele>
        <time>2018-12-12T07:47:34Z</time>
      </trkpt>
      <trkpt lat="48.71394" lon="2.49182">
        <ele>87.8761</ele>
        <time>2018-12-12T07:47:36Z</time>
      </trkpt>
      <trkpt lat="48.71394" lon="2.49189">
        <ele>87.8034</ele>
        <time>2018-12-12T07:47:42Z</time>
      </trkpt>
      <trkpt lat="48.71393" lon="2.49194">
        <ele>87.7578</ele>
        <time>2018-12-12T07:47:45Z</time>
      </trkpt>
      <trkpt lat="48.71393" lon="2.49201">
        <ele>87.6671</ele>
        <time>2018-12-12T07:47:51Z</time>
      </trkpt>
      <trkpt lat="48.71393" lon="2.49209">
        <ele>87.6162</ele>
        <time>2018-12-12T07:47:56Z</time>
      </trkpt>
      <trkpt lat="48.71394" lon="2.49216">
        <ele>87.4718</ele>
        <time>2018-12-12T07:48:02Z</time>
      </trkpt>
      <trkpt lat="48.71393" lon="2.49229">
        <ele>87.3838</ele>
        <time>2018-12-12T07:48:06Z</time>
      </trkpt>
      <trkpt lat="48.7139" lon="2.49235">
        <ele>87.3197</ele>
        <time>2018-12-12T07:48:09Z</time>
      </trkpt>
      <trkpt lat="48.71386" lon="2.49243">
        <ele>87.2184</ele>
        <time>2018-12-12T07:48:14Z</time>
      </trkpt>
      <trkpt lat="48.71381" lon="2.49246">
        <ele>87.141</ele>
        <time>2018-12-12T07:48:18Z</time>
      </trkpt>
      <trkpt lat="48.71379" lon="2.49248">
        <ele>87.1053</ele>
        <time>2018-12-12T07:48:20Z</time>
      </trkpt>
      <trkpt lat="48.71375" lon="2.49251">
        <ele>87.0697</ele>
        <time>2018-12-12T07:48:22Z</time>
      </trkpt>
      <trkpt lat="48.71372" lon="2.49258">
        <ele>87.031</ele>
        <time>2018-12-12T07:48:25Z</time>
      </trkpt>
      <trkpt lat="48.71369" lon="2.49264">
        <ele>86.9924</ele>
        <time>2018-12-12T07:48:27Z</time>
      </trkpt>
      <trkpt lat="48.71365" lon="2.49268">
        <ele>86.9526</ele>
        <time>2018-12-12T07:48:29Z</time>
      </trkpt>
      <trkpt lat="48.71361" lon="2.49276">
        <ele>86.9117</ele>
        <time>2018-12-12T07:48:31Z</time>
      </trkpt>
      <trkpt lat="48.71356" lon="2.49283">
        <ele>86.869</ele>
        <time>2018-12-12T07:48:33Z</time>
      </trkpt>
      <trkpt lat="48.71352" lon="2.49285">
        <ele>86.8097</ele>
        <time>2018-12-12T07:48:36Z</time>
      </trkpt>
      <trkpt lat="48.71348" lon="2.4928">
        <ele>86.7528</ele>
        <time>2018-12-12T07:48:39Z</time>
      </trkpt>
      <trkpt lat="48.71343" lon="2.49283">
        <ele>86.7176</ele>
        <time>2018-12-12T07:48:41Z</time>
      </trkpt>
      <trkpt lat="48.71341" lon="2.49285">
        <ele>86.7002</ele>
        <time>2018-12-12T07:48:42Z</time>
      </trkpt>
      <trkpt lat="48.71337" lon="2.49287">
        <ele>86.6664</ele>
        <time>2018-12-12T07:48:44Z</time>
      </trkpt>
      <trkpt lat="48.71332" lon="2.4929">
        <ele>86.616</ele>
        <time>2018-12-12T07:48:48Z</time>
      </trkpt>
      <trkpt lat="48.71332" lon="2.4929">
        <ele>86.616</ele>
        <time>2018-12-12T07:48:56Z</time>
      </trkpt>
      <trkpt lat="48.71332" lon="2.4929">
        <ele>35.1</ele>
        <time>2018-12-12T07:48:56Z</time>
      </trkpt>
      <trkpt lat="48.71332" lon="2.4929">
        <ele>35.1</ele>
        <time>2018-12-12T07:49:02Z</time>
      </trkpt>
      <trkpt lat="48.71319" lon="2.493">
        <ele>86.4753</ele>
        <time>2018-12-12T07:49:02Z</time>
      </trkpt>
      <trkpt lat="48.71317" lon="2.49301">
        <ele>86.4639</ele>
        <time>2018-12-12T07:49:03Z</time>
      </trkpt>
      <trkpt lat="48.71312" lon="2.49303">
        <ele>86.4203</ele>
        <time>2018-12-12T07:49:07Z</time>
      </trkpt>
      <trkpt lat="48.71307" lon="2.49307">
        <ele>86.3794</ele>
        <time>2018-12-12T07:49:11Z</time>
      </trkpt>
      <trkpt lat="48.71301" lon="2.49311">
        <ele>86.3476</ele>
        <time>2018-12-12T07:49:14Z</time>
      </trkpt>
      <trkpt lat="48.71299" lon="2.49313">
        <ele>86.3364</ele>
        <time>2018-12-12T07:49:16Z</time>
      </trkpt>
      <trkpt lat="48.71295" lon="2.49318">
        <ele>86.3199</ele>
        <time>2018-12-12T07:49:18Z</time>
      </trkpt>
      <trkpt lat="48.71292" lon="2.49324">
        <ele>86.2898</ele>
        <time>2018-12-12T07:49:22Z</time>
      </trkpt>
      <trkpt lat="48.71289" lon="2.4933">
        <ele>86.2716</ele>
        <time>2018-12-12T07:49:27Z</time>
      </trkpt>
      <trkpt lat="48.71287" lon="2.49337">
        <ele>86.2426</ele>
        <time>2018-12-12T07:49:34Z</time>
      </trkpt>
      <trkpt lat="48.71288" lon="2.49344">
        <ele>86.2272</ele>
        <time>2018-12-12T07:49:39Z</time>
      </trkpt>
      <trkpt lat="48.71286" lon="2.49351">
        <ele>86.2143</ele>
        <time>2018-12-12T07:49:44Z</time>
      </trkpt>
      <trkpt lat="48.71281" lon="2.49357">
        <ele>86.1973</ele>
        <time>2018-12-12T07:49:50Z</time>
      </trkpt>
      <trkpt lat="48.71277" lon="2.49361">
        <ele>86.1843</ele>
        <time>2018-12-12T07:49:53Z</time>
      </trkpt>
      <trkpt lat="48.71273" lon="2.49364">
        <ele>86.1733</ele>
        <time>2018-12-12T07:49:55Z</time>
      </trkpt>
      <trkpt lat="48.71271" lon="2.49366">
        <ele>86.1671</ele>
        <time>2018-12-12T07:49:56Z</time>
      </trkpt>
      <trkpt lat="48.71264" lon="2.49372">
        <ele>86.1466</ele>
        <time>2018-12-12T07:49:59Z</time>
      </trkpt>
      <trkpt lat="48.71262" lon="2.49374">
        <ele>86.1395</ele>
        <time>2018-12-12T07:50:00Z</time>
      </trkpt>
      <trkpt lat="48.71256" lon="2.49376">
        <ele>86.1177</ele>
        <time>2018-12-12T07:50:03Z</time>
      </trkpt>
      <trkpt lat="48.71252" lon="2.4938">
        <ele>86.0978</ele>
        <time>2018-12-12T07:50:06Z</time>
      </trkpt>
      <trkpt lat="48.71249" lon="2.49383">
        <ele>86.0856</ele>
        <time>2018-12-12T07:50:08Z</time>
      </trkpt>
      <trkpt lat="48.71243" lon="2.49384">
        <ele>86.0636</ele>
        <time>2018-12-12T07:50:12Z</time>
      </trkpt>
      <trkpt lat="48.71239" lon="2.49385">
        <ele>86.0549</ele>
        <time>2018-12-12T07:50:14Z</time>
      </trkpt>
      <trkpt lat="48.71234" lon="2.49388">
        <ele>86.0467</ele>
        <time>2018-12-12T07:50:17Z</time>
      </trkpt>
      <trkpt lat="48.7123" lon="2.4939">
        <ele>86.0428</ele>
        <time>2018-12-12T07:50:19Z</time>
      </trkpt>
      <trkpt lat="48.71227" lon="2.49391">
        <ele>86.0399</ele>
        <time>2018-12-12T07:50:21Z</time>
      </trkpt>
      <trkpt lat="48.71223" lon="2.49395">
        <ele>86.0367</ele>
        <time>2018-12-12T07:50:24Z</time>
      </trkpt>
      <trkpt lat="48.71218" lon="2.49399">
        <ele>86.0346</ele>
        <time>2018-12-12T07:50:27Z</time>
      </trkpt>
      <trkpt lat="48.71214" lon="2.49402">
        <ele>86.0358</ele>
        <time>2018-12-12T07:50:31Z</time>
      </trkpt>
      <trkpt lat="48.71212" lon="2.49404">
        <ele>86.0353</ele>
        <time>2018-12-12T07:50:34Z</time>
      </trkpt>
      <trkpt lat="48.71208" lon="2.49408">
        <ele>86.0327</ele>
        <time>2018-12-12T07:50:39Z</time>
      </trkpt>
      <trkpt lat="48.71203" lon="2.49412">
        <ele>86.0311</ele>
        <time>2018-12-12T07:50:42Z</time>
      </trkpt>
      <trkpt lat="48.71201" lon="2.49414">
        <ele>86.0294</ele>
        <time>2018-12-12T07:50:44Z</time>
      </trkpt>
      <trkpt lat="48.71199" lon="2.49417">
        <ele>86.0265</ele>
        <time>2018-12-12T07:50:46Z</time>
      </trkpt>
      <trkpt lat="48.71194" lon="2.49419">
        <ele>86.0177</ele>
        <time>2018-12-12T07:50:50Z</time>
      </trkpt>
      <trkpt lat="48.71191" lon="2.49422">
        <ele>86.0083</ele>
        <time>2018-12-12T07:50:53Z</time>
      </trkpt>
      <trkpt lat="48.71187" lon="2.49424">
        <ele>86.0006</ele>
        <time>2018-12-12T07:50:55Z</time>
      </trkpt>
      <trkpt lat="48.71182" lon="2.49425">
        <ele>85.991</ele>
        <time>2018-12-12T07:50:59Z</time>
      </trkpt>
      <trkpt lat="48.71177" lon="2.49424">
        <ele>85.9885</ele>
        <time>2018-12-12T07:51:04Z</time>
      </trkpt>
      <trkpt lat="48.71175" lon="2.49424">
        <ele>85.9896</ele>
        <time>2018-12-12T07:51:07Z</time>
      </trkpt>
      <trkpt lat="48.7117" lon="2.49428">
        <ele>85.9861</ele>
        <time>2018-12-12T07:51:13Z</time>
      </trkpt>
      <trkpt lat="48.71166" lon="2.49433">
        <ele>85.9907</ele>
        <time>2018-12-12T07:51:16Z</time>
      </trkpt>
      <trkpt lat="48.71163" lon="2.49436">
        <ele>85.9957</ele>
        <time>2018-12-12T07:51:19Z</time>
      </trkpt>
      <trkpt lat="48.71163" lon="2.49436">
        <ele>36.4</ele>
        <time>2018-12-12T07:51:26Z</time>
      </trkpt>
      <trkpt lat="48.71163" lon="2.49436">
        <ele>36.4</ele>
        <time>2018-12-12T07:51:31Z</time>
      </trkpt>
      <trkpt lat="48.71155" lon="2.49446">
        <ele>86.0117</ele>
        <time>2018-12-12T07:51:31Z</time>
      </trkpt>
      <trkpt lat="48.7115" lon="2.49448">
        <ele>86.0165</ele>
        <time>2018-12-12T07:51:34Z</time>
      </trkpt>
      <trkpt lat="48.71146" lon="2.49454">
        <ele>86.021</ele>
        <time>2018-12-12T07:51:37Z</time>
      </trkpt>
      <trkpt lat="48.71143" lon="2.49458">
        <ele>86.0209</ele>
        <time>2018-12-12T07:51:39Z</time>
      </trkpt>
      <trkpt lat="48.7114" lon="2.49462">
        <ele>86.019</ele>
        <time>2018-12-12T07:51:41Z</time>
      </trkpt>
      <trkpt lat="48.71136" lon="2.49466">
        <ele>86.0141</ele>
        <time>2018-12-12T07:51:45Z</time>
      </trkpt>
      <trkpt lat="48.71133" lon="2.49469">
        <ele>86.0088</ele>
        <time>2018-12-12T07:51:49Z</time>
      </trkpt>
      <trkpt lat="48.71127" lon="2.49472">
        <ele>86.0018</ele>
        <time>2018-12-12T07:51:52Z</time>
      </trkpt>
      <trkpt lat="48.71125" lon="2.49473">
        <ele>85.9995</ele>
        <time>2018-12-12T07:51:53Z</time>
      </trkpt>
      <trkpt lat="48.7112" lon="2.49473">
        <ele>85.9901</ele>
        <time>2018-12-12T07:51:57Z</time>
      </trkpt>
      <trkpt lat="48.71116" lon="2.49479">
        <ele>85.9837</ele>
        <time>2018-12-12T07:52:00Z</time>
      </trkpt>
      <trkpt lat="48.7111" lon="2.49483">
        <ele>85.9768</ele>
        <time>2018-12-12T07:52:03Z</time>
      </trkpt>
      <trkpt lat="48.71106" lon="2.49488">
        <ele>85.9721</ele>
        <time>2018-12-12T07:52:05Z</time>
      </trkpt>
      <trkpt lat="48.71102" lon="2.4949">
        <ele>85.9678</ele>
        <time>2018-12-12T07:52:07Z</time>
      </trkpt>
      <trkpt lat="48.71096" lon="2.49494">
        <ele>85.965</ele>
        <time>2018-12-12T07:52:10Z</time>
      </trkpt>
      <trkpt lat="48.71092" lon="2.49498">
        <ele>85.9637</ele>
        <time>2018-12-12T07:52:13Z</time>
      </trkpt>
      <trkpt lat="48.71089" lon="2.49501">
        <ele>85.9632</ele>
        <time>2018-12-12T07:52:15Z</time>
      </trkpt>
      <trkpt lat="48.71086" lon="2.49503">
        <ele>85.9632</ele>
        <time>2018-12-12T07:52:17Z</time>
      </trkpt>
      <trkpt lat="48.71082" lon="2.49509">
        <ele>85.9651</ele>
        <time>2018-12-12T07:52:20Z</time>
      </trkpt>
      <trkpt lat="48.71077" lon="2.49511">
        <ele>85.9707</ele>
        <time>2018-12-12T07:52:23Z</time>
      </trkpt>
      <trkpt lat="48.71072" lon="2.49514">
        <ele>85.979</ele>
        <time>2018-12-12T07:52:27Z</time>
      </trkpt>
      <trkpt lat="48.71068" lon="2.49516">
        <ele>85.9831</ele>
        <time>2018-12-12T07:52:29Z</time>
      </trkpt>
      <trkpt lat="48.71066" lon="2.49516">
        <ele>85.9858</ele>
        <time>2018-12-12T07:52:30Z</time>
      </trkpt>
      <trkpt lat="48.71063" lon="2.49517">
        <ele>85.991</ele>
        <time>2018-12-12T07:52:32Z</time>
      </trkpt>
      <trkpt lat="48.71059" lon="2.49521">
        <ele>85.9996</ele>
        <time>2018-12-12T07:52:35Z</time>
      </trkpt>
      <trkpt lat="48.71054" lon="2.49526">
        <ele>86.0146</ele>
        <time>2018-12-12T07:52:39Z</time>
      </trkpt>
      <trkpt lat="48.71049" lon="2.49527">
        <ele>86.0322</ele>
        <time>2018-12-12T07:52:43Z</time>
      </trkpt>
      <trkpt lat="48.71046" lon="2.49531">
        <ele>86.0454</ele>
        <time>2018-12-12T07:52:46Z</time>
      </trkpt>
      <trkpt lat="48.71042" lon="2.49537">
        <ele>86.0645</ele>
        <time>2018-12-12T07:52:50Z</time>
      </trkpt>
      <trkpt lat="48.7104" lon="2.4954">
        <ele>86.074</ele>
        <time>2018-12-12T07:52:52Z</time>
      </trkpt>
      <trkpt lat="48.71036" lon="2.49544">
        <ele>86.0948</ele>
        <time>2018-12-12T07:52:56Z</time>
      </trkpt>
      <trkpt lat="48.71032" lon="2.49551">
        <ele>86.1239</ele>
        <time>2018-12-12T07:53:01Z</time>
      </trkpt>
      <trkpt lat="48.71029" lon="2.49557">
        <ele>86.1701</ele>
        <time>2018-12-12T07:53:07Z</time>
      </trkpt>
      <trkpt lat="48.71025" lon="2.49563">
        <ele>86.2045</ele>
        <time>2018-12-12T07:53:12Z</time>
      </trkpt>
      <trkpt lat="48.71022" lon="2.49568">
        <ele>86.2355</ele>
        <time>2018-12-12T07:53:16Z</time>
      </trkpt>
      <trkpt lat="48.7102" lon="2.49575">
        <ele>86.2628</ele>
        <time>2018-12-12T07:53:20Z</time>
      </trkpt>
      <trkpt lat="48.71018" lon="2.49585">
        <ele>86.2839</ele>
        <time>2018-12-12T07:53:24Z</time>
      </trkpt>
      <trkpt lat="48.71014" lon="2.49591">
        <ele>86.3024</ele>
        <time>2018-12-12T07:53:28Z</time>
      </trkpt>
      <trkpt lat="48.71011" lon="2.49597">
        <ele>86.3153</ele>
        <time>2018-12-12T07:53:31Z</time>
      </trkpt>
      <trkpt lat="48.71008" lon="2.49602">
        <ele>86.3284</ele>
        <time>2018-12-12T07:53:34Z</time>
      </trkpt>
      <trkpt lat="48.71003" lon="2.49608">
        <ele>86.3406</ele>
        <time>2018-12-12T07:53:37Z</time>
      </trkpt>
      <trkpt lat="48.71002" lon="2.49616">
        <ele>86.3538</ele>
        <time>2018-12-12T07:53:41Z</time>
      </trkpt>
      <trkpt lat="48.70996" lon="2.49622">
        <ele>86.3641</ele>
        <time>2018-12-12T07:53:45Z</time>
      </trkpt>
      <trkpt lat="48.70994" lon="2.49625">
        <ele>86.3663</ele>
        <time>2018-12-12T07:53:46Z</time>
      </trkpt>
      <trkpt lat="48.70991" lon="2.49628">
        <ele>86.3685</ele>
        <time>2018-12-12T07:53:47Z</time>
      </trkpt>
      <trkpt lat="48.70986" lon="2.4963">
        <ele>86.3779</ele>
        <time>2018-12-12T07:53:52Z</time>
      </trkpt>
      <trkpt lat="48.7098" lon="2.49636">
        <ele>86.3829</ele>
        <time>2018-12-12T07:53:55Z</time>
      </trkpt>
      <trkpt lat="48.70977" lon="2.49639">
        <ele>86.3866</ele>
        <time>2018-12-12T07:53:57Z</time>
      </trkpt>
      <trkpt lat="48.70973" lon="2.49642">
        <ele>86.39</ele>
        <time>2018-12-12T07:53:59Z</time>
      </trkpt>
      <trkpt lat="48.70968" lon="2.49645">
        <ele>86.4002</ele>
        <time>2018-12-12T07:54:05Z</time>
      </trkpt>
      <trkpt lat="48.70963" lon="2.49647">
        <ele>86.408</ele>
        <time>2018-12-12T07:54:08Z</time>
      </trkpt>
      <trkpt lat="48.70959" lon="2.49648">
        <ele>86.4167</ele>
        <time>2018-12-12T07:54:11Z</time>
      </trkpt>
      <trkpt lat="48.70954" lon="2.49647">
        <ele>86.4331</ele>
        <time>2018-12-12T07:54:16Z</time>
      </trkpt>
      <trkpt lat="48.70948" lon="2.49647">
        <ele>86.4521</ele>
        <time>2018-12-12T07:54:21Z</time>
      </trkpt>
      <trkpt lat="48.70943" lon="2.49649">
        <ele>86.4657</ele>
        <time>2018-12-12T07:54:24Z</time>
      </trkpt>
      <trkpt lat="48.70938" lon="2.49651">
        <ele>86.4848</ele>
        <time>2018-12-12T07:54:28Z</time>
      </trkpt>
      <trkpt lat="48.70936" lon="2.49651">
        <ele>86.494</ele>
        <time>2018-12-12T07:54:30Z</time>
      </trkpt>
      <trkpt lat="48.7093" lon="2.4965">
        <ele>86.5141</ele>
        <time>2018-12-12T07:54:35Z</time>
      </trkpt>
      <trkpt lat="48.70927" lon="2.49649">
        <ele>86.5222</ele>
        <time>2018-12-12T07:54:37Z</time>
      </trkpt>
      <trkpt lat="48.70921" lon="2.49648">
        <ele>86.5378</ele>
        <time>2018-12-12T07:54:41Z</time>
      </trkpt>
      <trkpt lat="48.70916" lon="2.49648">
        <ele>86.5538</ele>
        <time>2018-12-12T07:54:44Z</time>
      </trkpt>
      <trkpt lat="48.70911" lon="2.49648">
        <ele>86.5765</ele>
        <time>2018-12-12T07:54:47Z</time>
      </trkpt>
      <trkpt lat="48.70908" lon="2.49648">
        <ele>86.5939</ele>
        <time>2018-12-12T07:54:49Z</time>
      </trkpt>
      <trkpt lat="48.70903" lon="2.49647">
        <ele>86.6317</ele>
        <time>2018-12-12T07:54:53Z</time>
      </trkpt>
      <trkpt lat="48.70898" lon="2.49643">
        <ele>86.6555</ele>
        <time>2018-12-12T07:54:56Z</time>
      </trkpt>
      <trkpt lat="48.70893" lon="2.49641">
        <ele>86.6861</ele>
        <time>2018-12-12T07:55:00Z</time>
      </trkpt>
      <trkpt lat="48.70888" lon="2.49641">
        <ele>86.7082</ele>
        <time>2018-12-12T07:55:03Z</time>
      </trkpt>
      <trkpt lat="48.70884" lon="2.49642">
        <ele>86.7286</ele>
        <time>2018-12-12T07:55:06Z</time>
      </trkpt>
      <trkpt lat="48.70879" lon="2.49642">
        <ele>86.742</ele>
        <time>2018-12-12T07:55:09Z</time>
      </trkpt>
      <trkpt lat="48.70872" lon="2.49642">
        <ele>86.7629</ele>
        <time>2018-12-12T07:55:14Z</time>
      </trkpt>
      <trkpt lat="48.70868" lon="2.4964">
        <ele>86.7835</ele>
        <time>2018-12-12T07:55:17Z</time>
      </trkpt>
      <trkpt lat="48.70865" lon="2.49639">
        <ele>86.7982</ele>
        <time>2018-12-12T07:55:19Z</time>
      </trkpt>
      <trkpt lat="48.70859" lon="2.49641">
        <ele>86.8268</ele>
        <time>2018-12-12T07:55:22Z</time>
      </trkpt>
      <trkpt lat="48.70855" lon="2.49645">
        <ele>86.8729</ele>
        <time>2018-12-12T07:55:26Z</time>
      </trkpt>
      <trkpt lat="48.7085" lon="2.49645">
        <ele>86.9239</ele>
        <time>2018-12-12T07:55:30Z</time>
      </trkpt>
      <trkpt lat="48.70845" lon="2.49647">
        <ele>86.9668</ele>
        <time>2018-12-12T07:55:33Z</time>
      </trkpt>
      <trkpt lat="48.70841" lon="2.49651">
        <ele>87.0366</ele>
        <time>2018-12-12T07:55:38Z</time>
      </trkpt>
      <trkpt lat="48.70839" lon="2.49653">
        <ele>87.0636</ele>
        <time>2018-12-12T07:55:40Z</time>
      </trkpt>
      <trkpt lat="48.70835" lon="2.49656">
        <ele>87.1031</ele>
        <time>2018-12-12T07:55:43Z</time>
      </trkpt>
      <trkpt lat="48.70832" lon="2.49662">
        <ele>87.1415</ele>
        <time>2018-12-12T07:55:46Z</time>
      </trkpt>
      <trkpt lat="48.70827" lon="2.4967">
        <ele>87.1791</ele>
        <time>2018-12-12T07:55:49Z</time>
      </trkpt>
      <trkpt lat="48.70823" lon="2.49674">
        <ele>87.2156</ele>
        <time>2018-12-12T07:55:52Z</time>
      </trkpt>
      <trkpt lat="48.7082" lon="2.49677">
        <ele>87.2377</ele>
        <time>2018-12-12T07:55:54Z</time>
      </trkpt>
      <trkpt lat="48.70815" lon="2.49678">
        <ele>87.2816</ele>
        <time>2018-12-12T07:55:59Z</time>
      </trkpt>
      <trkpt lat="48.70812" lon="2.49678">
        <ele>87.2976</ele>
        <time>2018-12-12T07:56:01Z</time>
      </trkpt>
      <trkpt lat="48.70807" lon="2.49675">
        <ele>87.3318</ele>
        <time>2018-12-12T07:56:05Z</time>
      </trkpt>
      <trkpt lat="48.70802" lon="2.49674">
        <ele>87.3668</ele>
        <time>2018-12-12T07:56:09Z</time>
      </trkpt>
      <trkpt lat="48.70795" lon="2.49673">
        <ele>87.4126</ele>
        <time>2018-12-12T07:56:14Z</time>
      </trkpt>
      <trkpt lat="48.70795" lon="2.49673">
        <ele>37</ele>
        <time>2018-12-12T07:56:21Z</time>
      </trkpt>
      <trkpt lat="48.70795" lon="2.49673">
        <ele>37</ele>
        <time>2018-12-12T07:56:26Z</time>
      </trkpt>
      <trkpt lat="48.70791" lon="2.49684">
        <ele>87.5121</ele>
        <time>2018-12-12T07:56:26Z</time>
      </trkpt>
      <trkpt lat="48.70789" lon="2.49691">
        <ele>87.5288</ele>
        <time>2018-12-12T07:56:28Z</time>
      </trkpt>
      <trkpt lat="48.70789" lon="2.49698">
        <ele>87.5593</ele>
        <time>2018-12-12T07:56:31Z</time>
      </trkpt>
      <trkpt lat="48.70787" lon="2.49705">
        <ele>87.573</ele>
        <time>2018-12-12T07:56:34Z</time>
      </trkpt>
      <trkpt lat="48.70786" lon="2.49713">
        <ele>87.6181</ele>
        <time>2018-12-12T07:56:38Z</time>
      </trkpt>
      <trkpt lat="48.70785" lon="2.49721">
        <ele>87.6847</ele>
        <time>2018-12-12T07:56:44Z</time>
      </trkpt>
      <trkpt lat="48.70785" lon="2.49729">
        <ele>87.7136</ele>
        <time>2018-12-12T07:56:47Z</time>
      </trkpt>
      <trkpt lat="48.70787" lon="2.49736">
        <ele>87.7637</ele>
        <time>2018-12-12T07:56:52Z</time>
      </trkpt>
      <trkpt lat="48.70789" lon="2.49744">
        <ele>87.8074</ele>
        <time>2018-12-12T07:56:56Z</time>
      </trkpt>
      <trkpt lat="48.70791" lon="2.49748">
        <ele>87.8386</ele>
        <time>2018-12-12T07:56:59Z</time>
      </trkpt>
      <trkpt lat="48.70795" lon="2.49751">
        <ele>87.8796</ele>
        <time>2018-12-12T07:57:03Z</time>
      </trkpt>
      <trkpt lat="48.70798" lon="2.49753">
        <ele>87.898</ele>
        <time>2018-12-12T07:57:05Z</time>
      </trkpt>
      <trkpt lat="48.70801" lon="2.49755">
        <ele>87.923</ele>
        <time>2018-12-12T07:57:08Z</time>
      </trkpt>
      <trkpt lat="48.70804" lon="2.49757">
        <ele>87.9465</ele>
        <time>2018-12-12T07:57:11Z</time>
      </trkpt>
      <trkpt lat="48.70809" lon="2.49759">
        <ele>87.9806</ele>
        <time>2018-12-12T07:57:16Z</time>
      </trkpt>
      <trkpt lat="48.70813" lon="2.4976">
        <ele>87.9989</ele>
        <time>2018-12-12T07:57:19Z</time>
      </trkpt>
      <trkpt lat="48.70818" lon="2.49758">
        <ele>88.0258</ele>
        <time>2018-12-12T07:57:24Z</time>
      </trkpt>
      <trkpt lat="48.70823" lon="2.49758">
        <ele>88.0403</ele>
        <time>2018-12-12T07:57:28Z</time>
      </trkpt>
      <trkpt lat="48.70825" lon="2.49759">
        <ele>88.0453</ele>
        <time>2018-12-12T07:57:30Z</time>
      </trkpt>
      <trkpt lat="48.7083" lon="2.49759">
        <ele>88.0509</ele>
        <time>2018-12-12T07:57:33Z</time>
      </trkpt>
      <trkpt lat="48.70835" lon="2.49758">
        <ele>88.0549</ele>
        <time>2018-12-12T07:57:36Z</time>
      </trkpt>
      <trkpt lat="48.70838" lon="2.49757">
        <ele>88.0574</ele>
        <time>2018-12-12T07:57:39Z</time>
      </trkpt>
      <trkpt lat="48.70842" lon="2.49757">
        <ele>88.0582</ele>
        <time>2018-12-12T07:57:41Z</time>
      </trkpt>
      <trkpt lat="48.70844" lon="2.49757">
        <ele>88.0585</ele>
        <time>2018-12-12T07:57:43Z</time>
      </trkpt>
      <trkpt lat="48.70849" lon="2.49755">
        <ele>88.0577</ele>
        <time>2018-12-12T07:57:46Z</time>
      </trkpt>
      <trkpt lat="48.70852" lon="2.49755">
        <ele>88.0573</ele>
        <time>2018-12-12T07:57:48Z</time>
      </trkpt>
      <trkpt lat="48.70857" lon="2.49754">
        <ele>88.0543</ele>
        <time>2018-12-12T07:57:51Z</time>
      </trkpt>
      <trkpt lat="48.70859" lon="2.49754">
        <ele>88.0508</ele>
        <time>2018-12-12T07:57:53Z</time>
      </trkpt>
      <trkpt lat="48.70862" lon="2.49754">
        <ele>88.0468</ele>
        <time>2018-12-12T07:57:55Z</time>
      </trkpt>
      <trkpt lat="48.70866" lon="2.49754">
        <ele>88.0389</ele>
        <time>2018-12-12T07:57:58Z</time>
      </trkpt>
      <trkpt lat="48.7087" lon="2.49752">
        <ele>88.0304</ele>
        <time>2018-12-12T07:58:01Z</time>
      </trkpt>
      <trkpt lat="48.70876" lon="2.49751">
        <ele>88.0208</ele>
        <time>2018-12-12T07:58:04Z</time>
      </trkpt>
      <trkpt lat="48.7088" lon="2.4975">
        <ele>88.0099</ele>
        <time>2018-12-12T07:58:07Z</time>
      </trkpt>
      <trkpt lat="48.70885" lon="2.49752">
        <ele>87.9943</ele>
        <time>2018-12-12T07:58:11Z</time>
      </trkpt>
      <trkpt lat="48.7089" lon="2.49755">
        <ele>87.981</ele>
        <time>2018-12-12T07:58:15Z</time>
      </trkpt>
      <trkpt lat="48.70892" lon="2.49762">
        <ele>87.9724</ele>
        <time>2018-12-12T07:58:20Z</time>
      </trkpt>
      <trkpt lat="48.70893" lon="2.4977">
        <ele>87.9808</ele>
        <time>2018-12-12T07:58:27Z</time>
      </trkpt>
      <trkpt lat="48.70893" lon="2.49774">
        <ele>87.9871</ele>
        <time>2018-12-12T07:58:29Z</time>
      </trkpt>
      <trkpt lat="48.70895" lon="2.49781">
        <ele>88.0009</ele>
        <time>2018-12-12T07:58:32Z</time>
      </trkpt>
      <trkpt lat="48.70896" lon="2.49786">
        <ele>88.0189</ele>
        <time>2018-12-12T07:58:35Z</time>
      </trkpt>
      <trkpt lat="48.70897" lon="2.49789">
        <ele>88.0328</ele>
        <time>2018-12-12T07:58:37Z</time>
      </trkpt>
      <trkpt lat="48.709" lon="2.49794">
        <ele>88.0667</ele>
        <time>2018-12-12T07:58:42Z</time>
      </trkpt>
      <trkpt lat="48.70904" lon="2.49799">
        <ele>88.0938</ele>
        <time>2018-12-12T07:58:47Z</time>
      </trkpt>
      <trkpt lat="48.70906" lon="2.49801">
        <ele>88.1029</ele>
        <time>2018-12-12T07:58:49Z</time>
      </trkpt>
      <trkpt lat="48.70908" lon="2.49803">
        <ele>88.1112</ele>
        <time>2018-12-12T07:58:51Z</time>
      </trkpt>
      <trkpt lat="48.70913" lon="2.49808">
        <ele>88.1253</ele>
        <time>2018-12-12T07:58:56Z</time>
      </trkpt>
      <trkpt lat="48.70916" lon="2.49813">
        <ele>88.133</ele>
        <time>2018-12-12T07:59:00Z</time>
      </trkpt>
      <trkpt lat="48.70922" lon="2.49815">
        <ele>88.1343</ele>
        <time>2018-12-12T07:59:04Z</time>
      </trkpt>
      <trkpt lat="48.70927" lon="2.49819">
        <ele>88.1275</ele>
        <time>2018-12-12T07:59:09Z</time>
      </trkpt>
      <trkpt lat="48.70932" lon="2.49821">
        <ele>88.1153</ele>
        <time>2018-12-12T07:59:13Z</time>
      </trkpt>
      <trkpt lat="48.70936" lon="2.49824">
        <ele>88.1</ele>
        <time>2018-12-12T07:59:17Z</time>
      </trkpt>
      <trkpt lat="48.70938" lon="2.49825">
        <ele>88.0913</ele>
        <time>2018-12-12T07:59:19Z</time>
      </trkpt>
      <trkpt lat="48.70943" lon="2.49828">
        <ele>88.0714</ele>
        <time>2018-12-12T07:59:23Z</time>
      </trkpt>
      <trkpt lat="48.70947" lon="2.49834">
        <ele>88.0501</ele>
        <time>2018-12-12T07:59:28Z</time>
      </trkpt>
      <trkpt lat="48.70949" lon="2.49838">
        <ele>88.0354</ele>
        <time>2018-12-12T07:59:31Z</time>
      </trkpt>
      <trkpt lat="48.7095" lon="2.49842">
        <ele>88.026</ele>
        <time>2018-12-12T07:59:33Z</time>
      </trkpt>
      <trkpt lat="48.70954" lon="2.49848">
        <ele>88.002</ele>
        <time>2018-12-12T07:59:38Z</time>
      </trkpt>
      <trkpt lat="48.70956" lon="2.49852">
        <ele>87.9918</ele>
        <time>2018-12-12T07:59:40Z</time>
      </trkpt>
      <trkpt lat="48.70961" lon="2.49856">
        <ele>87.9633</ele>
        <time>2018-12-12T07:59:45Z</time>
      </trkpt>
      <trkpt lat="48.70963" lon="2.49859">
        <ele>87.9513</ele>
        <time>2018-12-12T07:59:47Z</time>
      </trkpt>
      <trkpt lat="48.70966" lon="2.49864">
        <ele>87.9282</ele>
        <time>2018-12-12T07:59:51Z</time>
      </trkpt>
      <trkpt lat="48.70968" lon="2.49871">
        <ele>87.9154</ele>
        <time>2018-12-12T07:59:54Z</time>
      </trkpt>
      <trkpt lat="48.7097" lon="2.49879">
        <ele>87.9063</ele>
        <time>2018-12-12T07:59:58Z</time>
      </trkpt>
      <trkpt lat="48.7097" lon="2.49882">
        <ele>87.9025</ele>
        <time>2018-12-12T08:00:00Z</time>
      </trkpt>
      <trkpt lat="48.70972" lon="2.49888">
        <ele>87.8934</ele>
        <time>2018-12-12T08:00:04Z</time>
      </trkpt>
      <trkpt lat="48.70973" lon="2.49894">
        <ele>87.8886</ele>
        <time>2018-12-12T08:00:08Z</time>
      </trkpt>
      <trkpt lat="48.7097" lon="2.49901">
        <ele>87.8937</ele>
        <time>2018-12-12T08:00:14Z</time>
      </trkpt>
      <trkpt lat="48.70966" lon="2.49906">
        <ele>87.9056</ele>
        <time>2018-12-12T08:00:19Z</time>
      </trkpt>
      <trkpt lat="48.70962" lon="2.49911">
        <ele>87.9217</ele>
        <time>2018-12-12T08:00:24Z</time>
      </trkpt>
      <trkpt lat="48.7096" lon="2.49913">
        <ele>87.9293</ele>
        <time>2018-12-12T08:00:26Z</time>
      </trkpt>
      <trkpt lat="48.70956" lon="2.49917">
        <ele>87.9465</ele>
        <time>2018-12-12T08:00:30Z</time>
      </trkpt>
      <trkpt lat="48.70951" lon="2.49922">
        <ele>87.9679</ele>
        <time>2018-12-12T08:00:35Z</time>
      </trkpt>
      <trkpt lat="48.70948" lon="2.49924">
        <ele>87.9758</ele>
        <time>2018-12-12T08:00:37Z</time>
      </trkpt>
      <trkpt lat="48.70945" lon="2.49929">
        <ele>87.9882</ele>
        <time>2018-12-12T08:00:40Z</time>
      </trkpt>
      <trkpt lat="48.70943" lon="2.49932">
        <ele>87.9973</ele>
        <time>2018-12-12T08:00:42Z</time>
      </trkpt>
      <trkpt lat="48.70939" lon="2.49936">
        <ele>88.0181</ele>
        <time>2018-12-12T08:00:46Z</time>
      </trkpt>
      <trkpt lat="48.70937" lon="2.49939">
        <ele>88.0295</ele>
        <time>2018-12-12T08:00:48Z</time>
      </trkpt>
      <trkpt lat="48.70936" lon="2.49947">
        <ele>88.0526</ele>
        <time>2018-12-12T08:00:52Z</time>
      </trkpt>
      <trkpt lat="48.70935" lon="2.49954">
        <ele>88.0725</ele>
        <time>2018-12-12T08:00:56Z</time>
      </trkpt>
      <trkpt lat="48.70931" lon="2.4996">
        <ele>88.0918</ele>
        <time>2018-12-12T08:01:00Z</time>
      </trkpt>
      <trkpt lat="48.70929" lon="2.49965">
        <ele>88.1149</ele>
        <time>2018-12-12T08:01:05Z</time>
      </trkpt>
      <trkpt lat="48.70926" lon="2.49969">
        <ele>88.1266</ele>
        <time>2018-12-12T08:01:08Z</time>
      </trkpt>
      <trkpt lat="48.70924" lon="2.49976">
        <ele>88.1383</ele>
        <time>2018-12-12T08:01:11Z</time>
      </trkpt>
      <trkpt lat="48.70921" lon="2.49985">
        <ele>88.1518</ele>
        <time>2018-12-12T08:01:15Z</time>
      </trkpt>
      <trkpt lat="48.70919" lon="2.49989">
        <ele>88.1576</ele>
        <time>2018-12-12T08:01:17Z</time>
      </trkpt>
      <trkpt lat="48.70917" lon="2.49996">
        <ele>88.1706</ele>
        <time>2018-12-12T08:01:22Z</time>
      </trkpt>
      <trkpt lat="48.70919" lon="2.50003">
        <ele>88.1819</ele>
        <time>2018-12-12T08:01:27Z</time>
      </trkpt>
      <trkpt lat="48.70921" lon="2.50011">
        <ele>88.1891</ele>
        <time>2018-12-12T08:01:31Z</time>
      </trkpt>
      <trkpt lat="48.70922" lon="2.50015">
        <ele>88.192</ele>
        <time>2018-12-12T08:01:33Z</time>
      </trkpt>
      <trkpt lat="48.70924" lon="2.50019">
        <ele>88.1947</ele>
        <time>2018-12-12T08:01:35Z</time>
      </trkpt>
      <trkpt lat="48.70925" lon="2.50024">
        <ele>88.1983</ele>
        <time>2018-12-12T08:01:39Z</time>
      </trkpt>
      <trkpt lat="48.70928" lon="2.50029">
        <ele>88.205</ele>
        <time>2018-12-12T08:01:45Z</time>
      </trkpt>
      <trkpt lat="48.7093" lon="2.50033">
        <ele>88.2084</ele>
        <time>2018-12-12T08:01:47Z</time>
      </trkpt>
      <trkpt lat="48.70931" lon="2.5004">
        <ele>88.2156</ele>
        <time>2018-12-12T08:01:50Z</time>
      </trkpt>
      <trkpt lat="48.70932" lon="2.50046">
        <ele>88.2217</ele>
        <time>2018-12-12T08:01:52Z</time>
      </trkpt>
      <trkpt lat="48.70933" lon="2.50053">
        <ele>88.2367</ele>
        <time>2018-12-12T08:01:56Z</time>
      </trkpt>
      <trkpt lat="48.70935" lon="2.50059">
        <ele>88.2492</ele>
        <time>2018-12-12T08:01:59Z</time>
      </trkpt>
      <trkpt lat="48.70938" lon="2.50065">
        <ele>88.2719</ele>
        <time>2018-12-12T08:02:04Z</time>
      </trkpt>
      <trkpt lat="48.7094" lon="2.50068">
        <ele>88.2853</ele>
        <time>2018-12-12T08:02:07Z</time>
      </trkpt>
      <trkpt lat="48.70942" lon="2.50076">
        <ele>88.2948</ele>
        <time>2018-12-12T08:02:10Z</time>
      </trkpt>
      <trkpt lat="48.70943" lon="2.50081">
        <ele>88.3007</ele>
        <time>2018-12-12T08:02:12Z</time>
      </trkpt>
      <trkpt lat="48.70947" lon="2.50086">
        <ele>88.3196</ele>
        <time>2018-12-12T08:02:16Z</time>
      </trkpt>
      <trkpt lat="48.7095" lon="2.50094">
        <ele>88.3421</ele>
        <time>2018-12-12T08:02:19Z</time>
      </trkpt>
      <trkpt lat="48.70952" lon="2.50101">
        <ele>88.369</ele>
        <time>2018-12-12T08:02:22Z</time>
      </trkpt>
      <trkpt lat="48.70952" lon="2.50108">
        <ele>88.404</ele>
        <time>2018-12-12T08:02:26Z</time>
      </trkpt>
      <trkpt lat="48.7095" lon="2.50117">
        <ele>88.4261</ele>
        <time>2018-12-12T08:02:29Z</time>
      </trkpt>
      <trkpt lat="48.70947" lon="2.50122">
        <ele>88.4446</ele>
        <time>2018-12-12T08:02:32Z</time>
      </trkpt>
      <trkpt lat="48.70943" lon="2.50126">
        <ele>88.4618</ele>
        <time>2018-12-12T08:02:35Z</time>
      </trkpt>
      <trkpt lat="48.7094" lon="2.50133">
        <ele>88.4852</ele>
        <time>2018-12-12T08:02:40Z</time>
      </trkpt>
      <trkpt lat="48.70936" lon="2.50141">
        <ele>88.4956</ele>
        <time>2018-12-12T08:02:43Z</time>
      </trkpt>
      <trkpt lat="48.70933" lon="2.50149">
        <ele>88.5064</ele>
        <time>2018-12-12T08:02:46Z</time>
      </trkpt>
      <trkpt lat="48.70933" lon="2.50158">
        <ele>88.5178</ele>
        <time>2018-12-12T08:02:49Z</time>
      </trkpt>
      <trkpt lat="48.70937" lon="2.50161">
        <ele>88.5435</ele>
        <time>2018-12-12T08:02:54Z</time>
      </trkpt>
      <trkpt lat="48.7094" lon="2.50167">
        <ele>88.5854</ele>
        <time>2018-12-12T08:02:59Z</time>
      </trkpt>
      <trkpt lat="48.70942" lon="2.5017">
        <ele>88.6044</ele>
        <time>2018-12-12T08:03:01Z</time>
      </trkpt>
      <trkpt lat="48.70945" lon="2.50176">
        <ele>88.6434</ele>
        <time>2018-12-12T08:03:05Z</time>
      </trkpt>
      <trkpt lat="48.70948" lon="2.50184">
        <ele>88.6927</ele>
        <time>2018-12-12T08:03:09Z</time>
      </trkpt>
      <trkpt lat="48.70949" lon="2.50187">
        <ele>88.7228</ele>
        <time>2018-12-12T08:03:11Z</time>
      </trkpt>
      <trkpt lat="48.7095" lon="2.5019">
        <ele>88.7543</ele>
        <time>2018-12-12T08:03:13Z</time>
      </trkpt>
      <trkpt lat="48.70954" lon="2.50197">
        <ele>88.8417</ele>
        <time>2018-12-12T08:03:18Z</time>
      </trkpt>
      <trkpt lat="48.70958" lon="2.50201">
        <ele>88.934</ele>
        <time>2018-12-12T08:03:23Z</time>
      </trkpt>
      <trkpt lat="48.70961" lon="2.50207">
        <ele>89.012</ele>
        <time>2018-12-12T08:03:27Z</time>
      </trkpt>
      <trkpt lat="48.70965" lon="2.50208">
        <ele>89.091</ele>
        <time>2018-12-12T08:03:31Z</time>
      </trkpt>
      <trkpt lat="48.70968" lon="2.50214">
        <ele>89.2267</ele>
        <time>2018-12-12T08:03:38Z</time>
      </trkpt>
      <trkpt lat="48.70974" lon="2.50204">
        <ele>89.3449</ele>
        <time>2018-12-12T08:03:45Z</time>
      </trkpt>
      <trkpt lat="48.70979" lon="2.50209">
        <ele>89.4358</ele>
        <time>2018-12-12T08:03:51Z</time>
      </trkpt>
      <trkpt lat="48.70983" lon="2.50213">
        <ele>89.4834</ele>
        <time>2018-12-12T08:03:54Z</time>
      </trkpt>
      <trkpt lat="48.70987" lon="2.5022">
        <ele>89.5498</ele>
        <time>2018-12-12T08:03:58Z</time>
      </trkpt>
      <trkpt lat="48.7099" lon="2.50227">
        <ele>89.6141</ele>
        <time>2018-12-12T08:04:02Z</time>
      </trkpt>
      <trkpt lat="48.70992" lon="2.50231">
        <ele>89.6608</ele>
        <time>2018-12-12T08:04:05Z</time>
      </trkpt>
      <trkpt lat="48.70997" lon="2.50237">
        <ele>89.7363</ele>
        <time>2018-12-12T08:04:10Z</time>
      </trkpt>
      <trkpt lat="48.71" lon="2.50244">
        <ele>89.8014</ele>
        <time>2018-12-12T08:04:14Z</time>
      </trkpt>
      <trkpt lat="48.71001" lon="2.50248">
        <ele>89.8347</ele>
        <time>2018-12-12T08:04:16Z</time>
      </trkpt>
      <trkpt lat="48.71005" lon="2.50253">
        <ele>89.9029</ele>
        <time>2018-12-12T08:04:20Z</time>
      </trkpt>
      <trkpt lat="48.71008" lon="2.50257">
        <ele>89.9522</ele>
        <time>2018-12-12T08:04:23Z</time>
      </trkpt>
      <trkpt lat="48.71011" lon="2.50264">
        <ele>90.034</ele>
        <time>2018-12-12T08:04:28Z</time>
      </trkpt>
      <trkpt lat="48.71011" lon="2.50271">
        <ele>90.0882</ele>
        <time>2018-12-12T08:04:31Z</time>
      </trkpt>
      <trkpt lat="48.71014" lon="2.50278">
        <ele>90.1844</ele>
        <time>2018-12-12T08:04:36Z</time>
      </trkpt>
      <trkpt lat="48.71015" lon="2.50282">
        <ele>90.2204</ele>
        <time>2018-12-12T08:04:38Z</time>
      </trkpt>
      <trkpt lat="48.71019" lon="2.50289">
        <ele>90.2887</ele>
        <time>2018-12-12T08:04:42Z</time>
      </trkpt>
      <trkpt lat="48.71022" lon="2.50296">
        <ele>90.3562</ele>
        <time>2018-12-12T08:04:46Z</time>
      </trkpt>
      <trkpt lat="48.71024" lon="2.50304">
        <ele>90.4289</ele>
        <time>2018-12-12T08:04:50Z</time>
      </trkpt>
      <trkpt lat="48.71027" lon="2.50309">
        <ele>90.4895</ele>
        <time>2018-12-12T08:04:53Z</time>
      </trkpt>
      <trkpt lat="48.71029" lon="2.50312">
        <ele>90.5539</ele>
        <time>2018-12-12T08:04:56Z</time>
      </trkpt>
      <trkpt lat="48.71033" lon="2.50316">
        <ele>90.6793</ele>
        <time>2018-12-12T08:05:02Z</time>
      </trkpt>
      <trkpt lat="48.71038" lon="2.50315">
        <ele>90.7524</ele>
        <time>2018-12-12T08:05:06Z</time>
      </trkpt>
      <trkpt lat="48.71043" lon="2.50314">
        <ele>90.8354</ele>
        <time>2018-12-12T08:05:11Z</time>
      </trkpt>
      <trkpt lat="48.71049" lon="2.50317">
        <ele>90.8976</ele>
        <time>2018-12-12T08:05:15Z</time>
      </trkpt>
      <trkpt lat="48.71053" lon="2.50321">
        <ele>90.9668</ele>
        <time>2018-12-12T08:05:19Z</time>
      </trkpt>
      <trkpt lat="48.71057" lon="2.50328">
        <ele>91.0398</ele>
        <time>2018-12-12T08:05:23Z</time>
      </trkpt>
      <trkpt lat="48.7106" lon="2.50333">
        <ele>91.1124</ele>
        <time>2018-12-12T08:05:27Z</time>
      </trkpt>
      <trkpt lat="48.71061" lon="2.50341">
        <ele>91.1804</ele>
        <time>2018-12-12T08:05:31Z</time>
      </trkpt>
      <trkpt lat="48.71062" lon="2.50349">
        <ele>91.229</ele>
        <time>2018-12-12T08:05:34Z</time>
      </trkpt>
      <trkpt lat="48.71062" lon="2.50353">
        <ele>91.2591</ele>
        <time>2018-12-12T08:05:36Z</time>
      </trkpt>
      <trkpt lat="48.71062" lon="2.50361">
        <ele>91.3146</ele>
        <time>2018-12-12T08:05:40Z</time>
      </trkpt>
      <trkpt lat="48.71064" lon="2.50368">
        <ele>91.3648</ele>
        <time>2018-12-12T08:05:44Z</time>
      </trkpt>
      <trkpt lat="48.71067" lon="2.50374">
        <ele>91.414</ele>
        <time>2018-12-12T08:05:48Z</time>
      </trkpt>
      <trkpt lat="48.71069" lon="2.5038">
        <ele>91.4692</ele>
        <time>2018-12-12T08:05:52Z</time>
      </trkpt>
      <trkpt lat="48.7107" lon="2.50383">
        <ele>91.4994</ele>
        <time>2018-12-12T08:05:54Z</time>
      </trkpt>
      <trkpt lat="48.71072" lon="2.50387">
        <ele>91.5466</ele>
        <time>2018-12-12T08:05:57Z</time>
      </trkpt>
      <trkpt lat="48.71073" lon="2.50394">
        <ele>91.5958</ele>
        <time>2018-12-12T08:06:00Z</time>
      </trkpt>
      <trkpt lat="48.71075" lon="2.50401">
        <ele>91.6796</ele>
        <time>2018-12-12T08:06:05Z</time>
      </trkpt>
      <trkpt lat="48.71076" lon="2.50405">
        <ele>91.713</ele>
        <time>2018-12-12T08:06:07Z</time>
      </trkpt>
      <trkpt lat="48.71078" lon="2.50412">
        <ele>91.7645</ele>
        <time>2018-12-12T08:06:10Z</time>
      </trkpt>
      <trkpt lat="48.71079" lon="2.50416">
        <ele>91.7971</ele>
        <time>2018-12-12T08:06:12Z</time>
      </trkpt>
      <trkpt lat="48.71082" lon="2.50422">
        <ele>91.8458</ele>
        <time>2018-12-12T08:06:15Z</time>
      </trkpt>
      <trkpt lat="48.71083" lon="2.50426">
        <ele>91.8789</ele>
        <time>2018-12-12T08:06:17Z</time>
      </trkpt>
      <trkpt lat="48.71087" lon="2.50432">
        <ele>91.9658</ele>
        <time>2018-12-12T08:06:22Z</time>
      </trkpt>
      <trkpt lat="48.7109" lon="2.50438">
        <ele>92.0371</ele>
        <time>2018-12-12T08:06:26Z</time>
      </trkpt>
      <trkpt lat="48.71092" lon="2.50444">
        <ele>92.1112</ele>
        <time>2018-12-12T08:06:30Z</time>
      </trkpt>
      <trkpt lat="48.71097" lon="2.50447">
        <ele>92.1884</ele>
        <time>2018-12-12T08:06:34Z</time>
      </trkpt>
      <trkpt lat="48.71102" lon="2.50448">
        <ele>92.2621</ele>
        <time>2018-12-12T08:06:38Z</time>
      </trkpt>
      <trkpt lat="48.71107" lon="2.50452">
        <ele>92.3571</ele>
        <time>2018-12-12T08:06:43Z</time>
      </trkpt>
      <trkpt lat="48.71112" lon="2.5045">
        <ele>92.4728</ele>
        <time>2018-12-12T08:06:49Z</time>
      </trkpt>
      <trkpt lat="48.71117" lon="2.50448">
        <ele>92.5475</ele>
        <time>2018-12-12T08:06:53Z</time>
      </trkpt>
      <trkpt lat="48.71123" lon="2.50449">
        <ele>92.647</ele>
        <time>2018-12-12T08:06:58Z</time>
      </trkpt>
      <trkpt lat="48.71125" lon="2.50449">
        <ele>92.6866</ele>
        <time>2018-12-12T08:07:00Z</time>
      </trkpt>
      <trkpt lat="48.7113" lon="2.50451">
        <ele>92.7479</ele>
        <time>2018-12-12T08:07:03Z</time>
      </trkpt>
      <trkpt lat="48.71133" lon="2.50453">
        <ele>92.7894</ele>
        <time>2018-12-12T08:07:05Z</time>
      </trkpt>
      <trkpt lat="48.71137" lon="2.50456">
        <ele>92.8976</ele>
        <time>2018-12-12T08:07:10Z</time>
      </trkpt>
      <trkpt lat="48.71141" lon="2.50459">
        <ele>92.9886</ele>
        <time>2018-12-12T08:07:14Z</time>
      </trkpt>
      <trkpt lat="48.71146" lon="2.50462">
        <ele>93.1001</ele>
        <time>2018-12-12T08:07:19Z</time>
      </trkpt>
      <trkpt lat="48.71151" lon="2.50466">
        <ele>93.2054</ele>
        <time>2018-12-12T08:07:24Z</time>
      </trkpt>
      <trkpt lat="48.71155" lon="2.50469">
        <ele>93.2888</ele>
        <time>2018-12-12T08:07:28Z</time>
      </trkpt>
      <trkpt lat="48.71157" lon="2.50471">
        <ele>93.3515</ele>
        <time>2018-12-12T08:07:31Z</time>
      </trkpt>
      <trkpt lat="48.71162" lon="2.50477">
        <ele>93.4369</ele>
        <time>2018-12-12T08:07:35Z</time>
      </trkpt>
      <trkpt lat="48.71164" lon="2.5048">
        <ele>93.4589</ele>
        <time>2018-12-12T08:07:36Z</time>
      </trkpt>
      <trkpt lat="48.71166" lon="2.50483">
        <ele>93.5024</ele>
        <time>2018-12-12T08:07:38Z</time>
      </trkpt>
      <trkpt lat="48.71169" lon="2.50486">
        <ele>93.5457</ele>
        <time>2018-12-12T08:07:40Z</time>
      </trkpt>
      <trkpt lat="48.71173" lon="2.50493">
        <ele>93.6338</ele>
        <time>2018-12-12T08:07:44Z</time>
      </trkpt>
      <trkpt lat="48.71176" lon="2.50498">
        <ele>93.701</ele>
        <time>2018-12-12T08:07:48Z</time>
      </trkpt>
      <trkpt lat="48.7118" lon="2.50504">
        <ele>93.7819</ele>
        <time>2018-12-12T08:07:52Z</time>
      </trkpt>
      <trkpt lat="48.71182" lon="2.50511">
        <ele>93.8383</ele>
        <time>2018-12-12T08:07:55Z</time>
      </trkpt>
      <trkpt lat="48.71184" lon="2.50518">
        <ele>93.9171</ele>
        <time>2018-12-12T08:07:59Z</time>
      </trkpt>
      <trkpt lat="48.71188" lon="2.50522">
        <ele>93.9954</ele>
        <time>2018-12-12T08:08:03Z</time>
      </trkpt>
      <trkpt lat="48.71191" lon="2.50527">
        <ele>94.0881</ele>
        <time>2018-12-12T08:08:08Z</time>
      </trkpt>
      <trkpt lat="48.71193" lon="2.50534">
        <ele>94.1714</ele>
        <time>2018-12-12T08:08:13Z</time>
      </trkpt>
      <trkpt lat="48.71194" lon="2.50539">
        <ele>94.2183</ele>
        <time>2018-12-12T08:08:16Z</time>
      </trkpt>
      <trkpt lat="48.71196" lon="2.50542">
        <ele>94.2614</ele>
        <time>2018-12-12T08:08:19Z</time>
      </trkpt>
      <trkpt lat="48.71197" lon="2.50557">
        <ele>94.3158</ele>
        <time>2018-12-12T08:08:25Z</time>
      </trkpt>
      <trkpt lat="48.71198" lon="2.5056">
        <ele>94.3394</ele>
        <time>2018-12-12T08:08:27Z</time>
      </trkpt>
      <trkpt lat="48.71197" lon="2.50569">
        <ele>94.3711</ele>
        <time>2018-12-12T08:08:30Z</time>
      </trkpt>
      <trkpt lat="48.71198" lon="2.50576">
        <ele>94.3916</ele>
        <time>2018-12-12T08:08:33Z</time>
      </trkpt>
      <trkpt lat="48.71197" lon="2.50586">
        <ele>94.4199</ele>
        <time>2018-12-12T08:08:36Z</time>
      </trkpt>
      <trkpt lat="48.71197" lon="2.5059">
        <ele>94.4478</ele>
        <time>2018-12-12T08:08:39Z</time>
      </trkpt>
      <trkpt lat="48.71198" lon="2.50597">
        <ele>94.485</ele>
        <time>2018-12-12T08:08:43Z</time>
      </trkpt>
      <trkpt lat="48.71198" lon="2.50604">
        <ele>94.5324</ele>
        <time>2018-12-12T08:08:48Z</time>
      </trkpt>
      <trkpt lat="48.71197" lon="2.50611">
        <ele>94.5705</ele>
        <time>2018-12-12T08:08:54Z</time>
      </trkpt>
      <trkpt lat="48.71195" lon="2.50619">
        <ele>94.6068</ele>
        <time>2018-12-12T08:08:58Z</time>
      </trkpt>
      <trkpt lat="48.71194" lon="2.50627">
        <ele>94.6308</ele>
        <time>2018-12-12T08:09:01Z</time>
      </trkpt>
      <trkpt lat="48.71193" lon="2.50631">
        <ele>94.646</ele>
        <time>2018-12-12T08:09:03Z</time>
      </trkpt>
      <trkpt lat="48.7119" lon="2.5064">
        <ele>94.6626</ele>
        <time>2018-12-12T08:09:05Z</time>
      </trkpt>
      <trkpt lat="48.71188" lon="2.50648">
        <ele>94.7174</ele>
        <time>2018-12-12T08:09:11Z</time>
      </trkpt>
      <trkpt lat="48.71184" lon="2.50654">
        <ele>94.7643</ele>
        <time>2018-12-12T08:09:16Z</time>
      </trkpt>
      <trkpt lat="48.71182" lon="2.50661">
        <ele>94.7941</ele>
        <time>2018-12-12T08:09:19Z</time>
      </trkpt>
      <trkpt lat="48.7118" lon="2.50668">
        <ele>94.8163</ele>
        <time>2018-12-12T08:09:21Z</time>
      </trkpt>
      <trkpt lat="48.71178" lon="2.50675">
        <ele>94.8779</ele>
        <time>2018-12-12T08:09:26Z</time>
      </trkpt>
      <trkpt lat="48.71177" lon="2.50679">
        <ele>94.9016</ele>
        <time>2018-12-12T08:09:28Z</time>
      </trkpt>
      <trkpt lat="48.71173" lon="2.50688">
        <ele>94.9563</ele>
        <time>2018-12-12T08:09:33Z</time>
      </trkpt>
      <trkpt lat="48.71171" lon="2.50695">
        <ele>94.9871</ele>
        <time>2018-12-12T08:09:36Z</time>
      </trkpt>
      <trkpt lat="48.71171" lon="2.50703">
        <ele>95.0162</ele>
        <time>2018-12-12T08:09:39Z</time>
      </trkpt>
      <trkpt lat="48.71174" lon="2.50711">
        <ele>95.0433</ele>
        <time>2018-12-12T08:09:42Z</time>
      </trkpt>
      <trkpt lat="48.71177" lon="2.50717">
        <ele>95.0704</ele>
        <time>2018-12-12T08:09:45Z</time>
      </trkpt>
      <trkpt lat="48.71179" lon="2.50724">
        <ele>95.0957</ele>
        <time>2018-12-12T08:09:48Z</time>
      </trkpt>
      <trkpt lat="48.71182" lon="2.5073">
        <ele>95.1191</ele>
        <time>2018-12-12T08:09:51Z</time>
      </trkpt>
      <trkpt lat="48.71185" lon="2.50736">
        <ele>95.1426</ele>
        <time>2018-12-12T08:09:54Z</time>
      </trkpt>
      <trkpt lat="48.71189" lon="2.50742">
        <ele>95.1719</ele>
        <time>2018-12-12T08:09:58Z</time>
      </trkpt>
      <trkpt lat="48.71193" lon="2.50746">
        <ele>95.2017</ele>
        <time>2018-12-12T08:10:02Z</time>
      </trkpt>
      <trkpt lat="48.71196" lon="2.50749">
        <ele>95.2257</ele>
        <time>2018-12-12T08:10:05Z</time>
      </trkpt>
      <trkpt lat="48.712" lon="2.50754">
        <ele>95.2694</ele>
        <time>2018-12-12T08:10:10Z</time>
      </trkpt>
      <trkpt lat="48.71201" lon="2.50757">
        <ele>95.2871</ele>
        <time>2018-12-12T08:10:12Z</time>
      </trkpt>
      <trkpt lat="48.71203" lon="2.5076">
        <ele>95.322</ele>
        <time>2018-12-12T08:10:16Z</time>
      </trkpt>
      <trkpt lat="48.71206" lon="2.50767">
        <ele>95.3533</ele>
        <time>2018-12-12T08:10:20Z</time>
      </trkpt>
      <trkpt lat="48.7121" lon="2.5077">
        <ele>95.3759</ele>
        <time>2018-12-12T08:10:23Z</time>
      </trkpt>
      <trkpt lat="48.71213" lon="2.50775">
        <ele>95.3996</ele>
        <time>2018-12-12T08:10:26Z</time>
      </trkpt>
      <trkpt lat="48.71221" lon="2.50784">
        <ele>95.4395</ele>
        <time>2018-12-12T08:10:31Z</time>
      </trkpt>
      <trkpt lat="48.71223" lon="2.50786">
        <ele>95.4473</ele>
        <time>2018-12-12T08:10:32Z</time>
      </trkpt>
      <trkpt lat="48.71227" lon="2.50789">
        <ele>95.4634</ele>
        <time>2018-12-12T08:10:34Z</time>
      </trkpt>
      <trkpt lat="48.7123" lon="2.50793">
        <ele>95.4871</ele>
        <time>2018-12-12T08:10:37Z</time>
      </trkpt>
      <trkpt lat="48.71231" lon="2.50802">
        <ele>95.5315</ele>
        <time>2018-12-12T08:10:43Z</time>
      </trkpt>
      <trkpt lat="48.71231" lon="2.50821">
        <ele>95.5525</ele>
        <time>2018-12-12T08:10:47Z</time>
      </trkpt>
      <trkpt lat="48.71231" lon="2.50825">
        <ele>95.5592</ele>
        <time>2018-12-12T08:10:48Z</time>
      </trkpt>
      <trkpt lat="48.71233" lon="2.50833">
        <ele>95.5846</ele>
        <time>2018-12-12T08:10:52Z</time>
      </trkpt>
      <trkpt lat="48.71235" lon="2.50839">
        <ele>95.6119</ele>
        <time>2018-12-12T08:10:57Z</time>
      </trkpt>
      <trkpt lat="48.71236" lon="2.50843">
        <ele>95.6274</ele>
        <time>2018-12-12T08:11:00Z</time>
      </trkpt>
      <trkpt lat="48.71238" lon="2.50851">
        <ele>95.6433</ele>
        <time>2018-12-12T08:11:03Z</time>
      </trkpt>
      <trkpt lat="48.71238" lon="2.50858">
        <ele>95.6645</ele>
        <time>2018-12-12T08:11:07Z</time>
      </trkpt>
      <trkpt lat="48.7124" lon="2.50865">
        <ele>95.7031</ele>
        <time>2018-12-12T08:11:13Z</time>
      </trkpt>
      <trkpt lat="48.7124" lon="2.50865">
        <ele>95.7031</ele>
        <time>2018-12-12T08:11:20Z</time>
      </trkpt>
      <trkpt lat="48.7124" lon="2.50865">
        <ele>43</ele>
        <time>2018-12-12T08:11:20Z</time>
      </trkpt>
      <trkpt lat="48.7124" lon="2.50865">
        <ele>43</ele>
        <time>2018-12-12T08:11:58Z</time>
      </trkpt>
      <trkpt lat="48.71243" lon="2.5091">
        <ele>95.9814</ele>
        <time>2018-12-12T08:11:58Z</time>
      </trkpt>
      <trkpt lat="48.71243" lon="2.50917">
        <ele>96.0013</ele>
        <time>2018-12-12T08:12:03Z</time>
      </trkpt>
      <trkpt lat="48.71243" lon="2.50925">
        <ele>96.0101</ele>
        <time>2018-12-12T08:12:06Z</time>
      </trkpt>
      <trkpt lat="48.71244" lon="2.50932">
        <ele>96.0185</ele>
        <time>2018-12-12T08:12:09Z</time>
      </trkpt>
      <trkpt lat="48.71244" lon="2.50936">
        <ele>96.0233</ele>
        <time>2018-12-12T08:12:11Z</time>
      </trkpt>
      <trkpt lat="48.71247" lon="2.50943">
        <ele>96.0312</ele>
        <time>2018-12-12T08:12:14Z</time>
      </trkpt>
      <trkpt lat="48.71248" lon="2.50952">
        <ele>96.0411</ele>
        <time>2018-12-12T08:12:18Z</time>
      </trkpt>
      <trkpt lat="48.71249" lon="2.50959">
        <ele>96.0478</ele>
        <time>2018-12-12T08:12:21Z</time>
      </trkpt>
      <trkpt lat="48.71249" lon="2.50965">
        <ele>96.0548</ele>
        <time>2018-12-12T08:12:25Z</time>
      </trkpt>
      <trkpt lat="48.7125" lon="2.5097">
        <ele>96.0591</ele>
        <time>2018-12-12T08:12:28Z</time>
      </trkpt>
      <trkpt lat="48.71251" lon="2.50975">
        <ele>96.0608</ele>
        <time>2018-12-12T08:12:31Z</time>
      </trkpt>
      <trkpt lat="48.71252" lon="2.5098">
        <ele>96.0605</ele>
        <time>2018-12-12T08:12:35Z</time>
      </trkpt>
      <trkpt lat="48.71253" lon="2.50984">
        <ele>96.0602</ele>
        <time>2018-12-12T08:12:37Z</time>
      </trkpt>
      <trkpt lat="48.71254" lon="2.50988">
        <ele>96.0602</ele>
        <time>2018-12-12T08:12:39Z</time>
      </trkpt>
      <trkpt lat="48.71255" lon="2.50995">
        <ele>96.0592</ele>
        <time>2018-12-12T08:12:42Z</time>
      </trkpt>
      <trkpt lat="48.71255" lon="2.50999">
        <ele>96.0577</ele>
        <time>2018-12-12T08:12:44Z</time>
      </trkpt>
      <trkpt lat="48.71255" lon="2.51004">
        <ele>96.0546</ele>
        <time>2018-12-12T08:12:46Z</time>
      </trkpt>
      <trkpt lat="48.71255" lon="2.51009">
        <ele>96.0485</ele>
        <time>2018-12-12T08:12:49Z</time>
      </trkpt>
      <trkpt lat="48.71255" lon="2.51016">
        <ele>96.0451</ele>
        <time>2018-12-12T08:12:51Z</time>
      </trkpt>
      <trkpt lat="48.71256" lon="2.51023">
        <ele>96.0388</ele>
        <time>2018-12-12T08:12:55Z</time>
      </trkpt>
      <trkpt lat="48.71257" lon="2.51027">
        <ele>96.035</ele>
        <time>2018-12-12T08:12:57Z</time>
      </trkpt>
      <trkpt lat="48.71257" lon="2.51036">
        <ele>96.028</ele>
        <time>2018-12-12T08:13:01Z</time>
      </trkpt>
      <trkpt lat="48.71257" lon="2.51042">
        <ele>96.0246</ele>
        <time>2018-12-12T08:13:03Z</time>
      </trkpt>
      <trkpt lat="48.71257" lon="2.51049">
        <ele>96.0179</ele>
        <time>2018-12-12T08:13:06Z</time>
      </trkpt>
      <trkpt lat="48.71256" lon="2.51053">
        <ele>96.0129</ele>
        <time>2018-12-12T08:13:08Z</time>
      </trkpt>
      <trkpt lat="48.71258" lon="2.5106">
        <ele>96.0005</ele>
        <time>2018-12-12T08:13:13Z</time>
      </trkpt>
      <trkpt lat="48.71258" lon="2.51068">
        <ele>95.9881</ele>
        <time>2018-12-12T08:13:17Z</time>
      </trkpt>
      <trkpt lat="48.71258" lon="2.51073">
        <ele>95.977</ele>
        <time>2018-12-12T08:13:20Z</time>
      </trkpt>
      <trkpt lat="48.7126" lon="2.5108">
        <ele>95.9656</ele>
        <time>2018-12-12T08:13:23Z</time>
      </trkpt>
      <trkpt lat="48.71262" lon="2.51088">
        <ele>95.9483</ele>
        <time>2018-12-12T08:13:28Z</time>
      </trkpt>
      <trkpt lat="48.71263" lon="2.51093">
        <ele>95.9382</ele>
        <time>2018-12-12T08:13:31Z</time>
      </trkpt>
      <trkpt lat="48.71264" lon="2.51097">
        <ele>95.9316</ele>
        <time>2018-12-12T08:13:33Z</time>
      </trkpt>
      <trkpt lat="48.71265" lon="2.51104">
        <ele>95.9173</ele>
        <time>2018-12-12T08:13:37Z</time>
      </trkpt>
      <trkpt lat="48.71267" lon="2.51111">
        <ele>95.9037</ele>
        <time>2018-12-12T08:13:41Z</time>
      </trkpt>
      <trkpt lat="48.7127" lon="2.5112">
        <ele>95.893</ele>
        <time>2018-12-12T08:13:45Z</time>
      </trkpt>
      <trkpt lat="48.71271" lon="2.51129">
        <ele>95.8916</ele>
        <time>2018-12-12T08:13:48Z</time>
      </trkpt>
      <trkpt lat="48.71271" lon="2.51133">
        <ele>95.8899</ele>
        <time>2018-12-12T08:13:50Z</time>
      </trkpt>
      <trkpt lat="48.7127" lon="2.51141">
        <ele>95.8858</ele>
        <time>2018-12-12T08:13:53Z</time>
      </trkpt>
      <trkpt lat="48.7127" lon="2.51145">
        <ele>95.8821</ele>
        <time>2018-12-12T08:13:55Z</time>
      </trkpt>
      <trkpt lat="48.71272" lon="2.51153">
        <ele>95.8724</ele>
        <time>2018-12-12T08:14:00Z</time>
      </trkpt>
      <trkpt lat="48.71272" lon="2.5116">
        <ele>95.8594</ele>
        <time>2018-12-12T08:14:04Z</time>
      </trkpt>
      <trkpt lat="48.71274" lon="2.51167">
        <ele>95.8488</ele>
        <time>2018-12-12T08:14:07Z</time>
      </trkpt>
      <trkpt lat="48.71276" lon="2.51173">
        <ele>95.8371</ele>
        <time>2018-12-12T08:14:10Z</time>
      </trkpt>
      <trkpt lat="48.71276" lon="2.51181">
        <ele>95.8187</ele>
        <time>2018-12-12T08:14:14Z</time>
      </trkpt>
      <trkpt lat="48.71277" lon="2.51185">
        <ele>95.8094</ele>
        <time>2018-12-12T08:14:16Z</time>
      </trkpt>
      <trkpt lat="48.71276" lon="2.51192">
        <ele>95.7901</ele>
        <time>2018-12-12T08:14:20Z</time>
      </trkpt>
      <trkpt lat="48.71277" lon="2.51201">
        <ele>95.7773</ele>
        <time>2018-12-12T08:14:24Z</time>
      </trkpt>
      <trkpt lat="48.71278" lon="2.5121">
        <ele>95.7712</ele>
        <time>2018-12-12T08:14:26Z</time>
      </trkpt>
      <trkpt lat="48.71278" lon="2.51216">
        <ele>95.7679</ele>
        <time>2018-12-12T08:14:28Z</time>
      </trkpt>
      <trkpt lat="48.71278" lon="2.51221">
        <ele>95.7651</ele>
        <time>2018-12-12T08:14:31Z</time>
      </trkpt>
      <trkpt lat="48.71277" lon="2.5123">
        <ele>95.7649</ele>
        <time>2018-12-12T08:14:36Z</time>
      </trkpt>
      <trkpt lat="48.71277" lon="2.51233">
        <ele>95.7661</ele>
        <time>2018-12-12T08:14:38Z</time>
      </trkpt>
      <trkpt lat="48.71277" lon="2.51238">
        <ele>95.7681</ele>
        <time>2018-12-12T08:14:41Z</time>
      </trkpt>
      <trkpt lat="48.71277" lon="2.51245">
        <ele>95.7727</ele>
        <time>2018-12-12T08:14:45Z</time>
      </trkpt>
      <trkpt lat="48.71278" lon="2.51249">
        <ele>95.7765</ele>
        <time>2018-12-12T08:14:48Z</time>
      </trkpt>
      <trkpt lat="48.71277" lon="2.51256">
        <ele>95.7798</ele>
        <time>2018-12-12T08:14:51Z</time>
      </trkpt>
      <trkpt lat="48.71275" lon="2.51264">
        <ele>95.7843</ele>
        <time>2018-12-12T08:14:54Z</time>
      </trkpt>
      <trkpt lat="48.71274" lon="2.51268">
        <ele>95.7879</ele>
        <time>2018-12-12T08:14:56Z</time>
      </trkpt>
      <trkpt lat="48.71273" lon="2.51274">
        <ele>95.793</ele>
        <time>2018-12-12T08:14:58Z</time>
      </trkpt>
      <trkpt lat="48.71272" lon="2.51281">
        <ele>95.8072</ele>
        <time>2018-12-12T08:15:02Z</time>
      </trkpt>
      <trkpt lat="48.71271" lon="2.51286">
        <ele>95.817</ele>
        <time>2018-12-12T08:15:04Z</time>
      </trkpt>
      <trkpt lat="48.71268" lon="2.51292">
        <ele>95.8551</ele>
        <time>2018-12-12T08:15:10Z</time>
      </trkpt>
      <trkpt lat="48.71267" lon="2.51294">
        <ele>95.8704</ele>
        <time>2018-12-12T08:15:12Z</time>
      </trkpt>
      <trkpt lat="48.71265" lon="2.51301">
        <ele>95.906</ele>
        <time>2018-12-12T08:15:16Z</time>
      </trkpt>
      <trkpt lat="48.71265" lon="2.51305">
        <ele>95.9268</ele>
        <time>2018-12-12T08:15:18Z</time>
      </trkpt>
      <trkpt lat="48.71264" lon="2.51309">
        <ele>95.9496</ele>
        <time>2018-12-12T08:15:20Z</time>
      </trkpt>
      <trkpt lat="48.7126" lon="2.51315">
        <ele>95.9977</ele>
        <time>2018-12-12T08:15:24Z</time>
      </trkpt>
      <trkpt lat="48.71258" lon="2.51318">
        <ele>96.0224</ele>
        <time>2018-12-12T08:15:26Z</time>
      </trkpt>
      <trkpt lat="48.71255" lon="2.51325">
        <ele>96.0724</ele>
        <time>2018-12-12T08:15:30Z</time>
      </trkpt>
      <trkpt lat="48.71252" lon="2.51331">
        <ele>96.122</ele>
        <time>2018-12-12T08:15:34Z</time>
      </trkpt>
      <trkpt lat="48.71249" lon="2.51336">
        <ele>96.1575</ele>
        <time>2018-12-12T08:15:37Z</time>
      </trkpt>
      <trkpt lat="48.71246" lon="2.5134">
        <ele>96.1805</ele>
        <time>2018-12-12T08:15:39Z</time>
      </trkpt>
      <trkpt lat="48.71245" lon="2.51344">
        <ele>96.2031</ele>
        <time>2018-12-12T08:15:41Z</time>
      </trkpt>
      <trkpt lat="48.71244" lon="2.5135">
        <ele>96.2378</ele>
        <time>2018-12-12T08:15:44Z</time>
      </trkpt>
      <trkpt lat="48.71244" lon="2.51355">
        <ele>96.2706</ele>
        <time>2018-12-12T08:15:47Z</time>
      </trkpt>
      <trkpt lat="48.71243" lon="2.51363">
        <ele>96.3119</ele>
        <time>2018-12-12T08:15:51Z</time>
      </trkpt>
      <trkpt lat="48.71244" lon="2.51372">
        <ele>96.3591</ele>
        <time>2018-12-12T08:15:57Z</time>
      </trkpt>
      <trkpt lat="48.71246" lon="2.51379">
        <ele>96.3953</ele>
        <time>2018-12-12T08:16:01Z</time>
      </trkpt>
      <trkpt lat="48.71247" lon="2.51386">
        <ele>96.42</ele>
        <time>2018-12-12T08:16:04Z</time>
      </trkpt>
      <trkpt lat="48.71247" lon="2.5139">
        <ele>96.4348</ele>
        <time>2018-12-12T08:16:06Z</time>
      </trkpt>
      <trkpt lat="48.71247" lon="2.51395">
        <ele>96.4482</ele>
        <time>2018-12-12T08:16:08Z</time>
      </trkpt>
      <trkpt lat="48.71248" lon="2.51402">
        <ele>96.4773</ele>
        <time>2018-12-12T08:16:13Z</time>
      </trkpt>
      <trkpt lat="48.71249" lon="2.51409">
        <ele>96.4922</ele>
        <time>2018-12-12T08:16:16Z</time>
      </trkpt>
      <trkpt lat="48.7125" lon="2.51413">
        <ele>96.5028</ele>
        <time>2018-12-12T08:16:18Z</time>
      </trkpt>
      <trkpt lat="48.71251" lon="2.51417">
        <ele>96.5145</ele>
        <time>2018-12-12T08:16:20Z</time>
      </trkpt>
      <trkpt lat="48.71251" lon="2.51421">
        <ele>96.5288</ele>
        <time>2018-12-12T08:16:22Z</time>
      </trkpt>
      <trkpt lat="48.71255" lon="2.51425">
        <ele>96.5663</ele>
        <time>2018-12-12T08:16:28Z</time>
      </trkpt>
      <trkpt lat="48.7126" lon="2.51429">
        <ele>96.5857</ele>
        <time>2018-12-12T08:16:32Z</time>
      </trkpt>
      <trkpt lat="48.71264" lon="2.51432">
        <ele>96.5992</ele>
        <time>2018-12-12T08:16:35Z</time>
      </trkpt>
      <trkpt lat="48.71266" lon="2.51434">
        <ele>96.6082</ele>
        <time>2018-12-12T08:16:37Z</time>
      </trkpt>
      <trkpt lat="48.71271" lon="2.51445">
        <ele>96.631</ele>
        <time>2018-12-12T08:16:41Z</time>
      </trkpt>
      <trkpt lat="48.71273" lon="2.51449">
        <ele>96.6448</ele>
        <time>2018-12-12T08:16:43Z</time>
      </trkpt>
      <trkpt lat="48.71275" lon="2.51453">
        <ele>96.6596</ele>
        <time>2018-12-12T08:16:45Z</time>
      </trkpt>
      <trkpt lat="48.71275" lon="2.5146">
        <ele>96.6969</ele>
        <time>2018-12-12T08:16:50Z</time>
      </trkpt>
      <trkpt lat="48.71277" lon="2.51467">
        <ele>96.7319</ele>
        <time>2018-12-12T08:16:55Z</time>
      </trkpt>
      <trkpt lat="48.71278" lon="2.51477">
        <ele>96.7625</ele>
        <time>2018-12-12T08:16:59Z</time>
      </trkpt>
      <trkpt lat="48.71278" lon="2.5148">
        <ele>96.77</ele>
        <time>2018-12-12T08:17:00Z</time>
      </trkpt>
      <trkpt lat="48.71278" lon="2.51487">
        <ele>96.7901</ele>
        <time>2018-12-12T08:17:03Z</time>
      </trkpt>
      <trkpt lat="48.71279" lon="2.51495">
        <ele>96.8148</ele>
        <time>2018-12-12T08:17:07Z</time>
      </trkpt>
      <trkpt lat="48.71281" lon="2.51501">
        <ele>96.847</ele>
        <time>2018-12-12T08:17:12Z</time>
      </trkpt>
      <trkpt lat="48.71282" lon="2.51508">
        <ele>96.8782</ele>
        <time>2018-12-12T08:17:17Z</time>
      </trkpt>
      <trkpt lat="48.71283" lon="2.51518">
        <ele>96.8982</ele>
        <time>2018-12-12T08:17:20Z</time>
      </trkpt>
      <trkpt lat="48.71285" lon="2.51527">
        <ele>96.9179</ele>
        <time>2018-12-12T08:17:23Z</time>
      </trkpt>
      <trkpt lat="48.71286" lon="2.51532">
        <ele>96.9305</ele>
        <time>2018-12-12T08:17:25Z</time>
      </trkpt>
      <trkpt lat="48.71287" lon="2.51536">
        <ele>96.9427</ele>
        <time>2018-12-12T08:17:27Z</time>
      </trkpt>
      <trkpt lat="48.71288" lon="2.51539">
        <ele>96.96</ele>
        <time>2018-12-12T08:17:30Z</time>
      </trkpt>
      <trkpt lat="48.7129" lon="2.51547">
        <ele>96.9809</ele>
        <time>2018-12-12T08:17:34Z</time>
      </trkpt>
      <trkpt lat="48.71291" lon="2.51555">
        <ele>96.9949</ele>
        <time>2018-12-12T08:17:37Z</time>
      </trkpt>
      <trkpt lat="48.71292" lon="2.51563">
        <ele>97.0167</ele>
        <time>2018-12-12T08:17:41Z</time>
      </trkpt>
      <trkpt lat="48.71292" lon="2.51567">
        <ele>97.0268</ele>
        <time>2018-12-12T08:17:43Z</time>
      </trkpt>
      <trkpt lat="48.71294" lon="2.51574">
        <ele>97.0464</ele>
        <time>2018-12-12T08:17:47Z</time>
      </trkpt>
      <trkpt lat="48.71296" lon="2.51583">
        <ele>97.0617</ele>
        <time>2018-12-12T08:17:50Z</time>
      </trkpt>
      <trkpt lat="48.71297" lon="2.51588">
        <ele>97.0717</ele>
        <time>2018-12-12T08:17:52Z</time>
      </trkpt>
      <trkpt lat="48.71299" lon="2.51595">
        <ele>97.0846</ele>
        <time>2018-12-12T08:17:55Z</time>
      </trkpt>
      <trkpt lat="48.71301" lon="2.51603">
        <ele>97.0969</ele>
        <time>2018-12-12T08:18:00Z</time>
      </trkpt>
      <trkpt lat="48.71302" lon="2.5161">
        <ele>97.1039</ele>
        <time>2018-12-12T08:18:03Z</time>
      </trkpt>
      <trkpt lat="48.71305" lon="2.51618">
        <ele>97.1114</ele>
        <time>2018-12-12T08:18:06Z</time>
      </trkpt>
      <trkpt lat="48.71309" lon="2.51624">
        <ele>97.1233</ele>
        <time>2018-12-12T08:18:10Z</time>
      </trkpt>
      <trkpt lat="48.71313" lon="2.51629">
        <ele>97.1404</ele>
        <time>2018-12-12T08:18:15Z</time>
      </trkpt>
      <trkpt lat="48.71315" lon="2.51631">
        <ele>97.1486</ele>
        <time>2018-12-12T08:18:17Z</time>
      </trkpt>
      <trkpt lat="48.71319" lon="2.51638">
        <ele>97.1736</ele>
        <time>2018-12-12T08:18:22Z</time>
      </trkpt>
      <trkpt lat="48.71321" lon="2.51646">
        <ele>97.1928</ele>
        <time>2018-12-12T08:18:25Z</time>
      </trkpt>
      <trkpt lat="48.71323" lon="2.51651">
        <ele>97.2144</ele>
        <time>2018-12-12T08:18:28Z</time>
      </trkpt>
      <trkpt lat="48.71326" lon="2.51655">
        <ele>97.2449</ele>
        <time>2018-12-12T08:18:32Z</time>
      </trkpt>
      <trkpt lat="48.71328" lon="2.51665">
        <ele>97.2814</ele>
        <time>2018-12-12T08:18:36Z</time>
      </trkpt>
      <trkpt lat="48.71333" lon="2.5167">
        <ele>97.3347</ele>
        <time>2018-12-12T08:18:41Z</time>
      </trkpt>
      <trkpt lat="48.71335" lon="2.51673">
        <ele>97.3583</ele>
        <time>2018-12-12T08:18:43Z</time>
      </trkpt>
      <trkpt lat="48.71337" lon="2.51676">
        <ele>97.3831</ele>
        <time>2018-12-12T08:18:45Z</time>
      </trkpt>
      <trkpt lat="48.7134" lon="2.5168">
        <ele>97.4202</ele>
        <time>2018-12-12T08:18:48Z</time>
      </trkpt>
      <trkpt lat="48.71342" lon="2.51686">
        <ele>97.4566</ele>
        <time>2018-12-12T08:18:51Z</time>
      </trkpt>
      <trkpt lat="48.71344" lon="2.51694">
        <ele>97.5026</ele>
        <time>2018-12-12T08:18:55Z</time>
      </trkpt>
      <trkpt lat="48.71347" lon="2.51701">
        <ele>97.5385</ele>
        <time>2018-12-12T08:18:58Z</time>
      </trkpt>
      <trkpt lat="48.7135" lon="2.51707">
        <ele>97.5756</ele>
        <time>2018-12-12T08:19:01Z</time>
      </trkpt>
      <trkpt lat="48.71353" lon="2.51715">
        <ele>97.629</ele>
        <time>2018-12-12T08:19:05Z</time>
      </trkpt>
      <trkpt lat="48.71354" lon="2.51722">
        <ele>97.6872</ele>
        <time>2018-12-12T08:19:09Z</time>
      </trkpt>
      <trkpt lat="48.71354" lon="2.51726">
        <ele>97.717</ele>
        <time>2018-12-12T08:19:11Z</time>
      </trkpt>
      <trkpt lat="48.71354" lon="2.51734">
        <ele>97.7726</ele>
        <time>2018-12-12T08:19:15Z</time>
      </trkpt>
      <trkpt lat="48.71356" lon="2.51741">
        <ele>97.8124</ele>
        <time>2018-12-12T08:19:18Z</time>
      </trkpt>
      <trkpt lat="48.71357" lon="2.51746">
        <ele>97.8395</ele>
        <time>2018-12-12T08:19:20Z</time>
      </trkpt>
      <trkpt lat="48.7136" lon="2.51753">
        <ele>97.8817</ele>
        <time>2018-12-12T08:19:23Z</time>
      </trkpt>
      <trkpt lat="48.71361" lon="2.51757">
        <ele>97.9105</ele>
        <time>2018-12-12T08:19:25Z</time>
      </trkpt>
      <trkpt lat="48.71362" lon="2.51766">
        <ele>97.9668</ele>
        <time>2018-12-12T08:19:29Z</time>
      </trkpt>
      <trkpt lat="48.71363" lon="2.51771">
        <ele>98.0086</ele>
        <time>2018-12-12T08:19:32Z</time>
      </trkpt>
      <trkpt lat="48.71364" lon="2.51779">
        <ele>98.0664</ele>
        <time>2018-12-12T08:19:36Z</time>
      </trkpt>
      <trkpt lat="48.71362" lon="2.51786">
        <ele>98.1258</ele>
        <time>2018-12-12T08:19:40Z</time>
      </trkpt>
      <trkpt lat="48.71357" lon="2.5179">
        <ele>98.181</ele>
        <time>2018-12-12T08:19:44Z</time>
      </trkpt>
      <trkpt lat="48.71353" lon="2.51794">
        <ele>98.2416</ele>
        <time>2018-12-12T08:19:49Z</time>
      </trkpt>
      <trkpt lat="48.71352" lon="2.51797">
        <ele>98.275</ele>
        <time>2018-12-12T08:19:52Z</time>
      </trkpt>
      <trkpt lat="48.71349" lon="2.51802">
        <ele>98.3385</ele>
        <time>2018-12-12T08:19:58Z</time>
      </trkpt>
      <trkpt lat="48.71348" lon="2.5181">
        <ele>98.3859</ele>
        <time>2018-12-12T08:20:03Z</time>
      </trkpt>
      <trkpt lat="48.71347" lon="2.51814">
        <ele>98.4145</ele>
        <time>2018-12-12T08:20:06Z</time>
      </trkpt>
      <trkpt lat="48.71345" lon="2.51821">
        <ele>98.4699</ele>
        <time>2018-12-12T08:20:13Z</time>
      </trkpt>
      <trkpt lat="48.7134" lon="2.51827">
        <ele>98.5061</ele>
        <time>2018-12-12T08:20:18Z</time>
      </trkpt>
      <trkpt lat="48.71337" lon="2.51832">
        <ele>98.5255</ele>
        <time>2018-12-12T08:20:21Z</time>
      </trkpt>
      <trkpt lat="48.71333" lon="2.51836">
        <ele>98.5498</ele>
        <time>2018-12-12T08:20:25Z</time>
      </trkpt>
      <trkpt lat="48.71329" lon="2.51841">
        <ele>98.5719</ele>
        <time>2018-12-12T08:20:29Z</time>
      </trkpt>
      <trkpt lat="48.71328" lon="2.51843">
        <ele>98.5825</ele>
        <time>2018-12-12T08:20:31Z</time>
      </trkpt>
      <trkpt lat="48.71323" lon="2.51848">
        <ele>98.6039</ele>
        <time>2018-12-12T08:20:35Z</time>
      </trkpt>
      <trkpt lat="48.71319" lon="2.51852">
        <ele>98.6249</ele>
        <time>2018-12-12T08:20:39Z</time>
      </trkpt>
      <trkpt lat="48.71312" lon="2.51856">
        <ele>98.6557</ele>
        <time>2018-12-12T08:20:45Z</time>
      </trkpt>
      <trkpt lat="48.71308" lon="2.51859">
        <ele>98.6792</ele>
        <time>2018-12-12T08:20:50Z</time>
      </trkpt>
      <trkpt lat="48.71304" lon="2.51861">
        <ele>98.6909</ele>
        <time>2018-12-12T08:20:53Z</time>
      </trkpt>
      <trkpt lat="48.71298" lon="2.51861">
        <ele>98.7038</ele>
        <time>2018-12-12T08:20:57Z</time>
      </trkpt>
      <trkpt lat="48.71293" lon="2.51864">
        <ele>98.7157</ele>
        <time>2018-12-12T08:21:01Z</time>
      </trkpt>
      <trkpt lat="48.71289" lon="2.51869">
        <ele>98.7264</ele>
        <time>2018-12-12T08:21:05Z</time>
      </trkpt>
      <trkpt lat="48.71286" lon="2.51875">
        <ele>98.7419</ele>
        <time>2018-12-12T08:21:10Z</time>
      </trkpt>
      <trkpt lat="48.71283" lon="2.5188">
        <ele>98.7557</ele>
        <time>2018-12-12T08:21:13Z</time>
      </trkpt>
      <trkpt lat="48.71281" lon="2.51886">
        <ele>98.7827</ele>
        <time>2018-12-12T08:21:18Z</time>
      </trkpt>
      <trkpt lat="48.71282" lon="2.51894">
        <ele>98.8008</ele>
        <time>2018-12-12T08:21:22Z</time>
      </trkpt>
      <trkpt lat="48.71283" lon="2.519">
        <ele>98.8141</ele>
        <time>2018-12-12T08:21:25Z</time>
      </trkpt>
      <trkpt lat="48.71284" lon="2.51909">
        <ele>98.8303</ele>
        <time>2018-12-12T08:21:28Z</time>
      </trkpt>
      <trkpt lat="48.71284" lon="2.51917">
        <ele>98.8461</ele>
        <time>2018-12-12T08:21:31Z</time>
      </trkpt>
      <trkpt lat="48.71284" lon="2.51924">
        <ele>98.8725</ele>
        <time>2018-12-12T08:21:36Z</time>
      </trkpt>
      <trkpt lat="48.71284" lon="2.51932">
        <ele>98.8873</ele>
        <time>2018-12-12T08:21:40Z</time>
      </trkpt>
      <trkpt lat="48.71284" lon="2.51935">
        <ele>98.8932</ele>
        <time>2018-12-12T08:21:42Z</time>
      </trkpt>
      <trkpt lat="48.71283" lon="2.51943">
        <ele>98.9013</ele>
        <time>2018-12-12T08:21:45Z</time>
      </trkpt>
      <trkpt lat="48.71282" lon="2.51947">
        <ele>98.9083</ele>
        <time>2018-12-12T08:21:47Z</time>
      </trkpt>
      <trkpt lat="48.71283" lon="2.51957">
        <ele>98.9212</ele>
        <time>2018-12-12T08:21:50Z</time>
      </trkpt>
      <trkpt lat="48.71281" lon="2.51964">
        <ele>98.9371</ele>
        <time>2018-12-12T08:21:53Z</time>
      </trkpt>
      <trkpt lat="48.7128" lon="2.5197">
        <ele>98.9491</ele>
        <time>2018-12-12T08:21:55Z</time>
      </trkpt>
      <trkpt lat="48.7128" lon="2.51974">
        <ele>98.9604</ele>
        <time>2018-12-12T08:21:57Z</time>
      </trkpt>
      <trkpt lat="48.71279" lon="2.5198">
        <ele>98.9767</ele>
        <time>2018-12-12T08:22:00Z</time>
      </trkpt>
      <trkpt lat="48.71279" lon="2.51984">
        <ele>98.9927</ele>
        <time>2018-12-12T08:22:03Z</time>
      </trkpt>
      <trkpt lat="48.7128" lon="2.51991">
        <ele>99.0156</ele>
        <time>2018-12-12T08:22:07Z</time>
      </trkpt>
      <trkpt lat="48.7128" lon="2.51998">
        <ele>99.0401</ele>
        <time>2018-12-12T08:22:11Z</time>
      </trkpt>
      <trkpt lat="48.7128" lon="2.52002">
        <ele>99.0518</ele>
        <time>2018-12-12T08:22:13Z</time>
      </trkpt>
      <trkpt lat="48.71285" lon="2.52005">
        <ele>99.084</ele>
        <time>2018-12-12T08:22:18Z</time>
      </trkpt>
      <trkpt lat="48.7129" lon="2.52014">
        <ele>99.1102</ele>
        <time>2018-12-12T08:22:22Z</time>
      </trkpt>
      <trkpt lat="48.71294" lon="2.5202">
        <ele>99.1309</ele>
        <time>2018-12-12T08:22:25Z</time>
      </trkpt>
      <trkpt lat="48.71295" lon="2.52029">
        <ele>99.1673</ele>
        <time>2018-12-12T08:22:30Z</time>
      </trkpt>
      <trkpt lat="48.71298" lon="2.52036">
        <ele>99.192</ele>
        <time>2018-12-12T08:22:33Z</time>
      </trkpt>
      <trkpt lat="48.713" lon="2.52039">
        <ele>99.2095</ele>
        <time>2018-12-12T08:22:35Z</time>
      </trkpt>
      <trkpt lat="48.71303" lon="2.52046">
        <ele>99.24</ele>
        <time>2018-12-12T08:22:38Z</time>
      </trkpt>
      <trkpt lat="48.71305" lon="2.52051">
        <ele>99.271</ele>
        <time>2018-12-12T08:22:41Z</time>
      </trkpt>
      <trkpt lat="48.71309" lon="2.52054">
        <ele>99.3124</ele>
        <time>2018-12-12T08:22:45Z</time>
      </trkpt>
      <trkpt lat="48.71311" lon="2.52055">
        <ele>99.3323</ele>
        <time>2018-12-12T08:22:47Z</time>
      </trkpt>
      <trkpt lat="48.71314" lon="2.52058">
        <ele>99.3617</ele>
        <time>2018-12-12T08:22:50Z</time>
      </trkpt>
      <trkpt lat="48.71319" lon="2.52062">
        <ele>99.3923</ele>
        <time>2018-12-12T08:22:53Z</time>
      </trkpt>
      <trkpt lat="48.71323" lon="2.52064">
        <ele>99.4447</ele>
        <time>2018-12-12T08:22:58Z</time>
      </trkpt>
      <trkpt lat="48.71326" lon="2.5206">
        <ele>99.488</ele>
        <time>2018-12-12T08:23:03Z</time>
      </trkpt>
      <trkpt lat="48.71329" lon="2.52057">
        <ele>99.5081</ele>
        <time>2018-12-12T08:23:06Z</time>
      </trkpt>
      <trkpt lat="48.71334" lon="2.52054">
        <ele>99.5255</ele>
        <time>2018-12-12T08:23:10Z</time>
      </trkpt>
      <trkpt lat="48.71338" lon="2.52051">
        <ele>99.5323</ele>
        <time>2018-12-12T08:23:13Z</time>
      </trkpt>
      <trkpt lat="48.71343" lon="2.52048">
        <ele>99.5361</ele>
        <time>2018-12-12T08:23:18Z</time>
      </trkpt>
      <trkpt lat="48.71343" lon="2.52048">
        <ele>49.5</ele>
        <time>2018-12-12T08:23:27Z</time>
      </trkpt>
      <trkpt lat="48.71343" lon="2.52048">
        <ele>49.5</ele>
        <time>2018-12-12T08:23:30Z</time>
      </trkpt>
      <trkpt lat="48.71352" lon="2.52042">
        <ele>99.5332</ele>
        <time>2018-12-12T08:23:30Z</time>
      </trkpt>
      <trkpt lat="48.71352" lon="2.52042">
        <ele>99.5332</ele>
        <time>2018-12-12T08:23:37Z</time>
      </trkpt>
      <trkpt lat="48.71352" lon="2.52042">
        <ele>49.7</ele>
        <time>2018-12-12T08:23:37Z</time>
      </trkpt>
      <trkpt lat="48.71352" lon="2.52042">
        <ele>49.7</ele>
        <time>2018-12-12T08:27:51Z</time>
      </trkpt>
      <trkpt lat="48.71371" lon="2.52038">
        <ele>98.8005</ele>
        <time>2018-12-12T08:27:51Z</time>
      </trkpt>
      <trkpt lat="48.71375" lon="2.52042">
        <ele>98.7756</ele>
        <time>2018-12-12T08:27:56Z</time>
      </trkpt>
      <trkpt lat="48.71378" lon="2.52044">
        <ele>98.7652</ele>
        <time>2018-12-12T08:27:59Z</time>
      </trkpt>
      <trkpt lat="48.71384" lon="2.52045">
        <ele>98.7574</ele>
        <time>2018-12-12T08:28:03Z</time>
      </trkpt>
      <trkpt lat="48.71387" lon="2.52045">
        <ele>98.7564</ele>
        <time>2018-12-12T08:28:05Z</time>
      </trkpt>
      <trkpt lat="48.71392" lon="2.52043">
        <ele>98.7601</ele>
        <time>2018-12-12T08:28:12Z</time>
      </trkpt>
      <trkpt lat="48.71395" lon="2.52042">
        <ele>98.7654</ele>
        <time>2018-12-12T08:28:15Z</time>
      </trkpt>
      <trkpt lat="48.71399" lon="2.52046">
        <ele>98.7824</ele>
        <time>2018-12-12T08:28:20Z</time>
      </trkpt>
      <trkpt lat="48.71403" lon="2.52053">
        <ele>98.8134</ele>
        <time>2018-12-12T08:28:25Z</time>
      </trkpt>
      <trkpt lat="48.71405" lon="2.52056">
        <ele>98.8305</ele>
        <time>2018-12-12T08:28:27Z</time>
      </trkpt>
      <trkpt lat="48.71409" lon="2.5206">
        <ele>98.8805</ele>
        <time>2018-12-12T08:28:32Z</time>
      </trkpt>
      <trkpt lat="48.71414" lon="2.52065">
        <ele>98.9265</ele>
        <time>2018-12-12T08:28:36Z</time>
      </trkpt>
      <trkpt lat="48.71417" lon="2.5207">
        <ele>98.9784</ele>
        <time>2018-12-12T08:28:40Z</time>
      </trkpt>
      <trkpt lat="48.71419" lon="2.52073">
        <ele>99.0178</ele>
        <time>2018-12-12T08:28:43Z</time>
      </trkpt>
      <trkpt lat="48.71421" lon="2.5208">
        <ele>99.0682</ele>
        <time>2018-12-12T08:28:47Z</time>
      </trkpt>
      <trkpt lat="48.71421" lon="2.52083">
        <ele>99.0924</ele>
        <time>2018-12-12T08:28:49Z</time>
      </trkpt>
      <trkpt lat="48.71424" lon="2.5209">
        <ele>99.1492</ele>
        <time>2018-12-12T08:28:54Z</time>
      </trkpt>
      <trkpt lat="48.71428" lon="2.52095">
        <ele>99.1999</ele>
        <time>2018-12-12T08:28:59Z</time>
      </trkpt>
      <trkpt lat="48.7143" lon="2.52102">
        <ele>99.2645</ele>
        <time>2018-12-12T08:29:06Z</time>
      </trkpt>
      <trkpt lat="48.71433" lon="2.52108">
        <ele>99.2994</ele>
        <time>2018-12-12T08:29:10Z</time>
      </trkpt>
      <trkpt lat="48.71435" lon="2.52114">
        <ele>99.3336</ele>
        <time>2018-12-12T08:29:14Z</time>
      </trkpt>
      <trkpt lat="48.71436" lon="2.52118">
        <ele>99.3504</ele>
        <time>2018-12-12T08:29:16Z</time>
      </trkpt>
      <trkpt lat="48.71437" lon="2.52125">
        <ele>99.3751</ele>
        <time>2018-12-12T08:29:19Z</time>
      </trkpt>
      <trkpt lat="48.71437" lon="2.52134">
        <ele>99.3994</ele>
        <time>2018-12-12T08:29:22Z</time>
      </trkpt>
      <trkpt lat="48.71436" lon="2.52141">
        <ele>99.423</ele>
        <time>2018-12-12T08:29:25Z</time>
      </trkpt>
      <trkpt lat="48.71433" lon="2.52148">
        <ele>99.4534</ele>
        <time>2018-12-12T08:29:29Z</time>
      </trkpt>
      <trkpt lat="48.71432" lon="2.52155">
        <ele>99.4763</ele>
        <time>2018-12-12T08:29:32Z</time>
      </trkpt>
      <trkpt lat="48.71431" lon="2.52163">
        <ele>99.5128</ele>
        <time>2018-12-12T08:29:37Z</time>
      </trkpt>
      <trkpt lat="48.71429" lon="2.5217">
        <ele>99.5409</ele>
        <time>2018-12-12T08:29:41Z</time>
      </trkpt>
      <trkpt lat="48.71427" lon="2.52175">
        <ele>99.5675</ele>
        <time>2018-12-12T08:29:45Z</time>
      </trkpt>
      <trkpt lat="48.71424" lon="2.52182">
        <ele>99.5918</ele>
        <time>2018-12-12T08:29:49Z</time>
      </trkpt>
      <trkpt lat="48.71422" lon="2.52187">
        <ele>99.6035</ele>
        <time>2018-12-12T08:29:51Z</time>
      </trkpt>
      <trkpt lat="48.71419" lon="2.52194">
        <ele>99.6205</ele>
        <time>2018-12-12T08:29:54Z</time>
      </trkpt>
      <trkpt lat="48.71416" lon="2.52201">
        <ele>99.6425</ele>
        <time>2018-12-12T08:29:58Z</time>
      </trkpt>
      <trkpt lat="48.71415" lon="2.52204">
        <ele>99.654</ele>
        <time>2018-12-12T08:30:00Z</time>
      </trkpt>
      <trkpt lat="48.71413" lon="2.5221">
        <ele>99.6756</ele>
        <time>2018-12-12T08:30:04Z</time>
      </trkpt>
      <trkpt lat="48.71411" lon="2.52213">
        <ele>99.6862</ele>
        <time>2018-12-12T08:30:06Z</time>
      </trkpt>
      <trkpt lat="48.7141" lon="2.52216">
        <ele>99.6965</ele>
        <time>2018-12-12T08:30:08Z</time>
      </trkpt>
      <trkpt lat="48.71408" lon="2.52221">
        <ele>99.7114</ele>
        <time>2018-12-12T08:30:11Z</time>
      </trkpt>
      <trkpt lat="48.71407" lon="2.52224">
        <ele>99.7212</ele>
        <time>2018-12-12T08:30:13Z</time>
      </trkpt>
      <trkpt lat="48.71405" lon="2.52227">
        <ele>99.7311</ele>
        <time>2018-12-12T08:30:15Z</time>
      </trkpt>
      <trkpt lat="48.71404" lon="2.52232">
        <ele>99.7452</ele>
        <time>2018-12-12T08:30:18Z</time>
      </trkpt>
      <trkpt lat="48.714" lon="2.52238">
        <ele>99.7618</ele>
        <time>2018-12-12T08:30:22Z</time>
      </trkpt>
      <trkpt lat="48.71398" lon="2.52245">
        <ele>99.7725</ele>
        <time>2018-12-12T08:30:25Z</time>
      </trkpt>
      <trkpt lat="48.71396" lon="2.5225">
        <ele>99.7796</ele>
        <time>2018-12-12T08:30:27Z</time>
      </trkpt>
      <trkpt lat="48.71393" lon="2.52258">
        <ele>99.7935</ele>
        <time>2018-12-12T08:30:31Z</time>
      </trkpt>
      <trkpt lat="48.71392" lon="2.52261">
        <ele>99.7997</ele>
        <time>2018-12-12T08:30:33Z</time>
      </trkpt>
      <trkpt lat="48.7139" lon="2.52267">
        <ele>99.8107</ele>
        <time>2018-12-12T08:30:37Z</time>
      </trkpt>
      <trkpt lat="48.71387" lon="2.52273">
        <ele>99.8196</ele>
        <time>2018-12-12T08:30:41Z</time>
      </trkpt>
      <trkpt lat="48.71385" lon="2.5228">
        <ele>99.828</ele>
        <time>2018-12-12T08:30:45Z</time>
      </trkpt>
      <trkpt lat="48.71382" lon="2.52289">
        <ele>99.8372</ele>
        <time>2018-12-12T08:30:51Z</time>
      </trkpt>
      <trkpt lat="48.71381" lon="2.52292">
        <ele>99.8388</ele>
        <time>2018-12-12T08:30:53Z</time>
      </trkpt>
      <trkpt lat="48.71378" lon="2.52298">
        <ele>99.8405</ele>
        <time>2018-12-12T08:30:57Z</time>
      </trkpt>
      <trkpt lat="48.71376" lon="2.52307">
        <ele>99.8422</ele>
        <time>2018-12-12T08:31:01Z</time>
      </trkpt>
      <trkpt lat="48.71374" lon="2.52314">
        <ele>99.845</ele>
        <time>2018-12-12T08:31:05Z</time>
      </trkpt>
      <trkpt lat="48.71371" lon="2.52321">
        <ele>99.8497</ele>
        <time>2018-12-12T08:31:09Z</time>
      </trkpt>
      <trkpt lat="48.7137" lon="2.52324">
        <ele>99.8534</ele>
        <time>2018-12-12T08:31:11Z</time>
      </trkpt>
      <trkpt lat="48.71369" lon="2.52327">
        <ele>99.8571</ele>
        <time>2018-12-12T08:31:13Z</time>
      </trkpt>
      <trkpt lat="48.71367" lon="2.52334">
        <ele>99.8637</ele>
        <time>2018-12-12T08:31:17Z</time>
      </trkpt>
      <trkpt lat="48.71364" lon="2.52342">
        <ele>99.8706</ele>
        <time>2018-12-12T08:31:21Z</time>
      </trkpt>
      <trkpt lat="48.71363" lon="2.52345">
        <ele>99.8742</ele>
        <time>2018-12-12T08:31:23Z</time>
      </trkpt>
      <trkpt lat="48.71361" lon="2.52349">
        <ele>99.8783</ele>
        <time>2018-12-12T08:31:25Z</time>
      </trkpt>
      <trkpt lat="48.71358" lon="2.52355">
        <ele>99.8862</ele>
        <time>2018-12-12T08:31:29Z</time>
      </trkpt>
      <trkpt lat="48.71356" lon="2.52358">
        <ele>99.8895</ele>
        <time>2018-12-12T08:31:31Z</time>
      </trkpt>
      <trkpt lat="48.71354" lon="2.52364">
        <ele>99.895</ele>
        <time>2018-12-12T08:31:35Z</time>
      </trkpt>
      <trkpt lat="48.71351" lon="2.52371">
        <ele>99.8987</ele>
        <time>2018-12-12T08:31:39Z</time>
      </trkpt>
      <trkpt lat="48.71349" lon="2.52376">
        <ele>99.9017</ele>
        <time>2018-12-12T08:31:42Z</time>
      </trkpt>
      <trkpt lat="48.71347" lon="2.5238">
        <ele>99.9046</ele>
        <time>2018-12-12T08:31:44Z</time>
      </trkpt>
      <trkpt lat="48.71346" lon="2.52384">
        <ele>99.9076</ele>
        <time>2018-12-12T08:31:46Z</time>
      </trkpt>
      <trkpt lat="48.71344" lon="2.52388">
        <ele>99.9113</ele>
        <time>2018-12-12T08:31:48Z</time>
      </trkpt>
      <trkpt lat="48.71342" lon="2.52393">
        <ele>99.9176</ele>
        <time>2018-12-12T08:31:51Z</time>
      </trkpt>
      <trkpt lat="48.71341" lon="2.52397">
        <ele>99.9223</ele>
        <time>2018-12-12T08:31:53Z</time>
      </trkpt>
      <trkpt lat="48.71339" lon="2.52402">
        <ele>99.9273</ele>
        <time>2018-12-12T08:31:55Z</time>
      </trkpt>
      <trkpt lat="48.71337" lon="2.52405">
        <ele>99.9323</ele>
        <time>2018-12-12T08:31:57Z</time>
      </trkpt>
      <trkpt lat="48.71336" lon="2.52408">
        <ele>99.9376</ele>
        <time>2018-12-12T08:31:59Z</time>
      </trkpt>
      <trkpt lat="48.71335" lon="2.52413">
        <ele>99.9457</ele>
        <time>2018-12-12T08:32:02Z</time>
      </trkpt>
      <trkpt lat="48.71333" lon="2.52423">
        <ele>99.9598</ele>
        <time>2018-12-12T08:32:07Z</time>
      </trkpt>
      <trkpt lat="48.71333" lon="2.5243">
        <ele>99.9703</ele>
        <time>2018-12-12T08:32:11Z</time>
      </trkpt>
      <trkpt lat="48.71332" lon="2.52434">
        <ele>99.9748</ele>
        <time>2018-12-12T08:32:13Z</time>
      </trkpt>
      <trkpt lat="48.71333" lon="2.52441">
        <ele>99.9802</ele>
        <time>2018-12-12T08:32:16Z</time>
      </trkpt>
      <trkpt lat="48.71334" lon="2.52449">
        <ele>99.9852</ele>
        <time>2018-12-12T08:32:20Z</time>
      </trkpt>
      <trkpt lat="48.71335" lon="2.52454">
        <ele>99.987</ele>
        <time>2018-12-12T08:32:22Z</time>
      </trkpt>
      <trkpt lat="48.71335" lon="2.52458">
        <ele>99.9891</ele>
        <time>2018-12-12T08:32:24Z</time>
      </trkpt>
      <trkpt lat="48.71335" lon="2.52467">
        <ele>99.9932</ele>
        <time>2018-12-12T08:32:28Z</time>
      </trkpt>
      <trkpt lat="48.71335" lon="2.52472">
        <ele>99.9954</ele>
        <time>2018-12-12T08:32:30Z</time>
      </trkpt>
      <trkpt lat="48.71335" lon="2.52479">
        <ele>100</ele>
        <time>2018-12-12T08:32:34Z</time>
      </trkpt>
      <trkpt lat="48.71337" lon="2.52485">
        <ele>100.004</ele>
        <time>2018-12-12T08:32:38Z</time>
      </trkpt>
      <trkpt lat="48.71338" lon="2.52489">
        <ele>100.005</ele>
        <time>2018-12-12T08:32:40Z</time>
      </trkpt>
      <trkpt lat="48.71341" lon="2.52497">
        <ele>100.007</ele>
        <time>2018-12-12T08:32:44Z</time>
      </trkpt>
      <trkpt lat="48.71342" lon="2.52501">
        <ele>100.008</ele>
        <time>2018-12-12T08:32:46Z</time>
      </trkpt>
      <trkpt lat="48.71343" lon="2.52504">
        <ele>100.008</ele>
        <time>2018-12-12T08:32:49Z</time>
      </trkpt>
      <trkpt lat="48.71344" lon="2.52507">
        <ele>100.008</ele>
        <time>2018-12-12T08:32:51Z</time>
      </trkpt>
      <trkpt lat="48.71347" lon="2.52514">
        <ele>100.008</ele>
        <time>2018-12-12T08:32:55Z</time>
      </trkpt>
      <trkpt lat="48.7135" lon="2.52519">
        <ele>100.011</ele>
        <time>2018-12-12T08:32:59Z</time>
      </trkpt>
      <trkpt lat="48.71353" lon="2.52525">
        <ele>100.015</ele>
        <time>2018-12-12T08:33:03Z</time>
      </trkpt>
      <trkpt lat="48.71356" lon="2.52531">
        <ele>100.024</ele>
        <time>2018-12-12T08:33:08Z</time>
      </trkpt>
      <trkpt lat="48.71358" lon="2.52534">
        <ele>100.027</ele>
        <time>2018-12-12T08:33:10Z</time>
      </trkpt>
      <trkpt lat="48.71361" lon="2.52542">
        <ele>100.035</ele>
        <time>2018-12-12T08:33:14Z</time>
      </trkpt>
      <trkpt lat="48.71362" lon="2.52546">
        <ele>100.039</ele>
        <time>2018-12-12T08:33:16Z</time>
      </trkpt>
      <trkpt lat="48.71365" lon="2.52552">
        <ele>100.045</ele>
        <time>2018-12-12T08:33:19Z</time>
      </trkpt>
      <trkpt lat="48.71366" lon="2.52555">
        <ele>100.048</ele>
        <time>2018-12-12T08:33:20Z</time>
      </trkpt>
      <trkpt lat="48.71368" lon="2.52558">
        <ele>100.051</ele>
        <time>2018-12-12T08:33:21Z</time>
      </trkpt>
      <trkpt lat="48.7137" lon="2.52566">
        <ele>100.064</ele>
        <time>2018-12-12T08:33:25Z</time>
      </trkpt>
      <trkpt lat="48.71371" lon="2.5257">
        <ele>100.071</ele>
        <time>2018-12-12T08:33:27Z</time>
      </trkpt>
      <trkpt lat="48.71375" lon="2.52576">
        <ele>100.087</ele>
        <time>2018-12-12T08:33:31Z</time>
      </trkpt>
      <trkpt lat="48.71377" lon="2.52583">
        <ele>100.105</ele>
        <time>2018-12-12T08:33:35Z</time>
      </trkpt>
      <trkpt lat="48.71379" lon="2.52586">
        <ele>100.12</ele>
        <time>2018-12-12T08:33:38Z</time>
      </trkpt>
      <trkpt lat="48.71382" lon="2.52591">
        <ele>100.144</ele>
        <time>2018-12-12T08:33:42Z</time>
      </trkpt>
      <trkpt lat="48.71386" lon="2.52595">
        <ele>100.17</ele>
        <time>2018-12-12T08:33:46Z</time>
      </trkpt>
      <trkpt lat="48.71391" lon="2.52601">
        <ele>100.205</ele>
        <time>2018-12-12T08:33:50Z</time>
      </trkpt>
      <trkpt lat="48.71393" lon="2.52603">
        <ele>100.224</ele>
        <time>2018-12-12T08:33:52Z</time>
      </trkpt>
      <trkpt lat="48.71395" lon="2.52606">
        <ele>100.245</ele>
        <time>2018-12-12T08:33:54Z</time>
      </trkpt>
      <trkpt lat="48.71397" lon="2.52608">
        <ele>100.268</ele>
        <time>2018-12-12T08:33:56Z</time>
      </trkpt>
      <trkpt lat="48.71401" lon="2.52612">
        <ele>100.315</ele>
        <time>2018-12-12T08:34:00Z</time>
      </trkpt>
      <trkpt lat="48.71404" lon="2.52615">
        <ele>100.339</ele>
        <time>2018-12-12T08:34:02Z</time>
      </trkpt>
      <trkpt lat="48.71408" lon="2.5262">
        <ele>100.388</ele>
        <time>2018-12-12T08:34:06Z</time>
      </trkpt>
      <trkpt lat="48.71409" lon="2.52623">
        <ele>100.413</ele>
        <time>2018-12-12T08:34:08Z</time>
      </trkpt>
      <trkpt lat="48.71412" lon="2.52629">
        <ele>100.477</ele>
        <time>2018-12-12T08:34:13Z</time>
      </trkpt>
      <trkpt lat="48.71415" lon="2.52635">
        <ele>100.539</ele>
        <time>2018-12-12T08:34:18Z</time>
      </trkpt>
      <trkpt lat="48.71417" lon="2.52642">
        <ele>100.583</ele>
        <time>2018-12-12T08:34:22Z</time>
      </trkpt>
      <trkpt lat="48.71418" lon="2.5265">
        <ele>100.624</ele>
        <time>2018-12-12T08:34:26Z</time>
      </trkpt>
      <trkpt lat="48.71418" lon="2.52658">
        <ele>100.661</ele>
        <time>2018-12-12T08:34:30Z</time>
      </trkpt>
      <trkpt lat="48.71417" lon="2.52662">
        <ele>100.678</ele>
        <time>2018-12-12T08:34:32Z</time>
      </trkpt>
      <trkpt lat="48.71417" lon="2.52666">
        <ele>100.695</ele>
        <time>2018-12-12T08:34:34Z</time>
      </trkpt>
      <trkpt lat="48.71418" lon="2.52674">
        <ele>100.728</ele>
        <time>2018-12-12T08:34:38Z</time>
      </trkpt>
      <trkpt lat="48.71419" lon="2.52682">
        <ele>100.76</ele>
        <time>2018-12-12T08:34:42Z</time>
      </trkpt>
      <trkpt lat="48.7142" lon="2.52686">
        <ele>100.776</ele>
        <time>2018-12-12T08:34:44Z</time>
      </trkpt>
      <trkpt lat="48.7142" lon="2.5269">
        <ele>100.793</ele>
        <time>2018-12-12T08:34:46Z</time>
      </trkpt>
      <trkpt lat="48.71421" lon="2.52699">
        <ele>100.827</ele>
        <time>2018-12-12T08:34:50Z</time>
      </trkpt>
      <trkpt lat="48.71421" lon="2.52702">
        <ele>100.843</ele>
        <time>2018-12-12T08:34:52Z</time>
      </trkpt>
      <trkpt lat="48.71423" lon="2.52708">
        <ele>100.873</ele>
        <time>2018-12-12T08:34:56Z</time>
      </trkpt>
      <trkpt lat="48.71415" lon="2.52714">
        <ele>100.921</ele>
        <time>2018-12-12T08:35:03Z</time>
      </trkpt>
      <trkpt lat="48.7141" lon="2.52716">
        <ele>100.946</ele>
        <time>2018-12-12T08:35:07Z</time>
      </trkpt>
      <trkpt lat="48.71408" lon="2.52716">
        <ele>100.958</ele>
        <time>2018-12-12T08:35:09Z</time>
      </trkpt>
      <trkpt lat="48.71405" lon="2.52717">
        <ele>100.969</ele>
        <time>2018-12-12T08:35:11Z</time>
      </trkpt>
      <trkpt lat="48.71405" lon="2.52717">
        <ele>53.9</ele>
        <time>2018-12-12T08:35:18Z</time>
      </trkpt>
      <trkpt lat="48.71405" lon="2.52717">
        <ele>53.9</ele>
        <time>2018-12-12T08:35:50Z</time>
      </trkpt>
      <trkpt lat="48.71393" lon="2.52754">
        <ele>101.171</ele>
        <time>2018-12-12T08:35:50Z</time>
      </trkpt>
      <trkpt lat="48.71393" lon="2.52758">
        <ele>101.186</ele>
        <time>2018-12-12T08:35:53Z</time>
      </trkpt>
      <trkpt lat="48.71393" lon="2.52765">
        <ele>101.207</ele>
        <time>2018-12-12T08:35:57Z</time>
      </trkpt>
      <trkpt lat="48.71393" lon="2.5277">
        <ele>101.219</ele>
        <time>2018-12-12T08:35:59Z</time>
      </trkpt>
      <trkpt lat="48.71393" lon="2.52777">
        <ele>101.237</ele>
        <time>2018-12-12T08:36:02Z</time>
      </trkpt>
      <trkpt lat="48.71393" lon="2.52785">
        <ele>101.27</ele>
        <time>2018-12-12T08:36:07Z</time>
      </trkpt>
      <trkpt lat="48.71393" lon="2.52793">
        <ele>101.291</ele>
        <time>2018-12-12T08:36:10Z</time>
      </trkpt>
      <trkpt lat="48.71393" lon="2.528">
        <ele>101.32</ele>
        <time>2018-12-12T08:36:14Z</time>
      </trkpt>
      <trkpt lat="48.71393" lon="2.52803">
        <ele>101.334</ele>
        <time>2018-12-12T08:36:16Z</time>
      </trkpt>
      <trkpt lat="48.71395" lon="2.5281">
        <ele>101.356</ele>
        <time>2018-12-12T08:36:19Z</time>
      </trkpt>
      <trkpt lat="48.71396" lon="2.52815">
        <ele>101.369</ele>
        <time>2018-12-12T08:36:21Z</time>
      </trkpt>
      <trkpt lat="48.71397" lon="2.52819">
        <ele>101.383</ele>
        <time>2018-12-12T08:36:23Z</time>
      </trkpt>
      <trkpt lat="48.71397" lon="2.52825">
        <ele>101.403</ele>
        <time>2018-12-12T08:36:26Z</time>
      </trkpt>
      <trkpt lat="48.71398" lon="2.5283">
        <ele>101.416</ele>
        <time>2018-12-12T08:36:28Z</time>
      </trkpt>
      <trkpt lat="48.71399" lon="2.52837">
        <ele>101.443</ele>
        <time>2018-12-12T08:36:32Z</time>
      </trkpt>
      <trkpt lat="48.714" lon="2.52841">
        <ele>101.456</ele>
        <time>2018-12-12T08:36:34Z</time>
      </trkpt>
      <trkpt lat="48.714" lon="2.52844">
        <ele>101.468</ele>
        <time>2018-12-12T08:36:36Z</time>
      </trkpt>
      <trkpt lat="48.71401" lon="2.52848">
        <ele>101.487</ele>
        <time>2018-12-12T08:36:39Z</time>
      </trkpt>
      <trkpt lat="48.71402" lon="2.52851">
        <ele>101.498</ele>
        <time>2018-12-12T08:36:41Z</time>
      </trkpt>
      <trkpt lat="48.71403" lon="2.52855">
        <ele>101.51</ele>
        <time>2018-12-12T08:36:43Z</time>
      </trkpt>
      <trkpt lat="48.71406" lon="2.5286">
        <ele>101.531</ele>
        <time>2018-12-12T08:36:47Z</time>
      </trkpt>
      <trkpt lat="48.71408" lon="2.52868">
        <ele>101.551</ele>
        <time>2018-12-12T08:36:51Z</time>
      </trkpt>
      <trkpt lat="48.71409" lon="2.52875">
        <ele>101.572</ele>
        <time>2018-12-12T08:36:55Z</time>
      </trkpt>
      <trkpt lat="48.7141" lon="2.52879">
        <ele>101.582</ele>
        <time>2018-12-12T08:36:57Z</time>
      </trkpt>
      <trkpt lat="48.71412" lon="2.52887">
        <ele>101.607</ele>
        <time>2018-12-12T08:37:02Z</time>
      </trkpt>
      <trkpt lat="48.71415" lon="2.52894">
        <ele>101.623</ele>
        <time>2018-12-12T08:37:05Z</time>
      </trkpt>
      <trkpt lat="48.71417" lon="2.52898">
        <ele>101.634</ele>
        <time>2018-12-12T08:37:07Z</time>
      </trkpt>
      <trkpt lat="48.7142" lon="2.52906">
        <ele>101.659</ele>
        <time>2018-12-12T08:37:11Z</time>
      </trkpt>
      <trkpt lat="48.71422" lon="2.52913">
        <ele>101.693</ele>
        <time>2018-12-12T08:37:16Z</time>
      </trkpt>
      <trkpt lat="48.71423" lon="2.52916">
        <ele>101.714</ele>
        <time>2018-12-12T08:37:19Z</time>
      </trkpt>
      <trkpt lat="48.71426" lon="2.52922">
        <ele>101.741</ele>
        <time>2018-12-12T08:37:23Z</time>
      </trkpt>
      <trkpt lat="48.71427" lon="2.52925">
        <ele>101.755</ele>
        <time>2018-12-12T08:37:25Z</time>
      </trkpt>
      <trkpt lat="48.71429" lon="2.52931">
        <ele>101.784</ele>
        <time>2018-12-12T08:37:29Z</time>
      </trkpt>
      <trkpt lat="48.71431" lon="2.52934">
        <ele>101.799</ele>
        <time>2018-12-12T08:37:31Z</time>
      </trkpt>
      <trkpt lat="48.71432" lon="2.52938">
        <ele>101.813</ele>
        <time>2018-12-12T08:37:33Z</time>
      </trkpt>
      <trkpt lat="48.71436" lon="2.52944">
        <ele>101.843</ele>
        <time>2018-12-12T08:37:37Z</time>
      </trkpt>
      <trkpt lat="48.71438" lon="2.52949">
        <ele>101.858</ele>
        <time>2018-12-12T08:37:39Z</time>
      </trkpt>
      <trkpt lat="48.71442" lon="2.52954">
        <ele>101.892</ele>
        <time>2018-12-12T08:37:43Z</time>
      </trkpt>
      <trkpt lat="48.71446" lon="2.52957">
        <ele>101.917</ele>
        <time>2018-12-12T08:37:46Z</time>
      </trkpt>
      <trkpt lat="48.71448" lon="2.52964">
        <ele>101.951</ele>
        <time>2018-12-12T08:37:50Z</time>
      </trkpt>
      <trkpt lat="48.7145" lon="2.52967">
        <ele>101.968</ele>
        <time>2018-12-12T08:37:52Z</time>
      </trkpt>
      <trkpt lat="48.71452" lon="2.52974">
        <ele>101.994</ele>
        <time>2018-12-12T08:37:55Z</time>
      </trkpt>
      <trkpt lat="48.71453" lon="2.52982">
        <ele>102.022</ele>
        <time>2018-12-12T08:37:58Z</time>
      </trkpt>
      <trkpt lat="48.71453" lon="2.5299">
        <ele>102.062</ele>
        <time>2018-12-12T08:38:02Z</time>
      </trkpt>
      <trkpt lat="48.71454" lon="2.52994">
        <ele>102.081</ele>
        <time>2018-12-12T08:38:04Z</time>
      </trkpt>
      <trkpt lat="48.71454" lon="2.52997">
        <ele>102.092</ele>
        <time>2018-12-12T08:38:05Z</time>
      </trkpt>
      <trkpt lat="48.71454" lon="2.53001">
        <ele>102.113</ele>
        <time>2018-12-12T08:38:07Z</time>
      </trkpt>
      <trkpt lat="48.71457" lon="2.53007">
        <ele>102.154</ele>
        <time>2018-12-12T08:38:11Z</time>
      </trkpt>
      <trkpt lat="48.71459" lon="2.53011">
        <ele>102.185</ele>
        <time>2018-12-12T08:38:14Z</time>
      </trkpt>
      <trkpt lat="48.71462" lon="2.53015">
        <ele>102.216</ele>
        <time>2018-12-12T08:38:17Z</time>
      </trkpt>
      <trkpt lat="48.71464" lon="2.53019">
        <ele>102.245</ele>
        <time>2018-12-12T08:38:20Z</time>
      </trkpt>
      <trkpt lat="48.71466" lon="2.53022">
        <ele>102.265</ele>
        <time>2018-12-12T08:38:22Z</time>
      </trkpt>
      <trkpt lat="48.71469" lon="2.53028">
        <ele>102.308</ele>
        <time>2018-12-12T08:38:26Z</time>
      </trkpt>
      <trkpt lat="48.7147" lon="2.53037">
        <ele>102.354</ele>
        <time>2018-12-12T08:38:30Z</time>
      </trkpt>
      <trkpt lat="48.71473" lon="2.53043">
        <ele>102.4</ele>
        <time>2018-12-12T08:38:34Z</time>
      </trkpt>
      <trkpt lat="48.71478" lon="2.53048">
        <ele>102.447</ele>
        <time>2018-12-12T08:38:38Z</time>
      </trkpt>
      <trkpt lat="48.71483" lon="2.53051">
        <ele>102.481</ele>
        <time>2018-12-12T08:38:41Z</time>
      </trkpt>
      <trkpt lat="48.71487" lon="2.53056">
        <ele>102.538</ele>
        <time>2018-12-12T08:38:46Z</time>
      </trkpt>
      <trkpt lat="48.71489" lon="2.53059">
        <ele>102.571</ele>
        <time>2018-12-12T08:38:49Z</time>
      </trkpt>
      <trkpt lat="48.71491" lon="2.53063">
        <ele>102.603</ele>
        <time>2018-12-12T08:38:52Z</time>
      </trkpt>
      <trkpt lat="48.71493" lon="2.53066">
        <ele>102.635</ele>
        <time>2018-12-12T08:38:55Z</time>
      </trkpt>
      <trkpt lat="48.71496" lon="2.53069">
        <ele>102.655</ele>
        <time>2018-12-12T08:38:57Z</time>
      </trkpt>
      <trkpt lat="48.71498" lon="2.53075">
        <ele>102.687</ele>
        <time>2018-12-12T08:39:00Z</time>
      </trkpt>
      <trkpt lat="48.71502" lon="2.53079">
        <ele>102.719</ele>
        <time>2018-12-12T08:39:03Z</time>
      </trkpt>
      <trkpt lat="48.71506" lon="2.53082">
        <ele>102.764</ele>
        <time>2018-12-12T08:39:07Z</time>
      </trkpt>
      <trkpt lat="48.71508" lon="2.53085">
        <ele>102.795</ele>
        <time>2018-12-12T08:39:10Z</time>
      </trkpt>
      <trkpt lat="48.71511" lon="2.5309">
        <ele>102.834</ele>
        <time>2018-12-12T08:39:14Z</time>
      </trkpt>
      <trkpt lat="48.71515" lon="2.53097">
        <ele>102.86</ele>
        <time>2018-12-12T08:39:17Z</time>
      </trkpt>
      <trkpt lat="48.71519" lon="2.53102">
        <ele>102.885</ele>
        <time>2018-12-12T08:39:20Z</time>
      </trkpt>
      <trkpt lat="48.71522" lon="2.53105">
        <ele>102.902</ele>
        <time>2018-12-12T08:39:22Z</time>
      </trkpt>
      <trkpt lat="48.71525" lon="2.53112">
        <ele>102.934</ele>
        <time>2018-12-12T08:39:26Z</time>
      </trkpt>
      <trkpt lat="48.71527" lon="2.53115">
        <ele>102.95</ele>
        <time>2018-12-12T08:39:28Z</time>
      </trkpt>
      <trkpt lat="48.71529" lon="2.53119">
        <ele>102.973</ele>
        <time>2018-12-12T08:39:31Z</time>
      </trkpt>
      <trkpt lat="48.71533" lon="2.53126">
        <ele>103.012</ele>
        <time>2018-12-12T08:39:36Z</time>
      </trkpt>
      <trkpt lat="48.71535" lon="2.53132">
        <ele>103.037</ele>
        <time>2018-12-12T08:39:39Z</time>
      </trkpt>
      <trkpt lat="48.71536" lon="2.53141">
        <ele>103.062</ele>
        <time>2018-12-12T08:39:42Z</time>
      </trkpt>
      <trkpt lat="48.71536" lon="2.53147">
        <ele>103.087</ele>
        <time>2018-12-12T08:39:45Z</time>
      </trkpt>
      <trkpt lat="48.71538" lon="2.53153">
        <ele>103.123</ele>
        <time>2018-12-12T08:39:49Z</time>
      </trkpt>
      <trkpt lat="48.7154" lon="2.53162">
        <ele>103.159</ele>
        <time>2018-12-12T08:39:53Z</time>
      </trkpt>
      <trkpt lat="48.71541" lon="2.53171">
        <ele>103.185</ele>
        <time>2018-12-12T08:39:56Z</time>
      </trkpt>
      <trkpt lat="48.71543" lon="2.53178">
        <ele>103.215</ele>
        <time>2018-12-12T08:39:59Z</time>
      </trkpt>
      <trkpt lat="48.71544" lon="2.53183">
        <ele>103.245</ele>
        <time>2018-12-12T08:40:02Z</time>
      </trkpt>
      <trkpt lat="48.71545" lon="2.53187">
        <ele>103.281</ele>
        <time>2018-12-12T08:40:06Z</time>
      </trkpt>
      <trkpt lat="48.71547" lon="2.53194">
        <ele>103.314</ele>
        <time>2018-12-12T08:40:10Z</time>
      </trkpt>
      <trkpt lat="48.71548" lon="2.532">
        <ele>103.337</ele>
        <time>2018-12-12T08:40:13Z</time>
      </trkpt>
      <trkpt lat="48.7155" lon="2.53207">
        <ele>103.359</ele>
        <time>2018-12-12T08:40:16Z</time>
      </trkpt>
      <trkpt lat="48.71551" lon="2.53212">
        <ele>103.373</ele>
        <time>2018-12-12T08:40:18Z</time>
      </trkpt>
      <trkpt lat="48.71553" lon="2.53216">
        <ele>103.389</ele>
        <time>2018-12-12T08:40:20Z</time>
      </trkpt>
      <trkpt lat="48.71554" lon="2.53221">
        <ele>103.405</ele>
        <time>2018-12-12T08:40:22Z</time>
      </trkpt>
      <trkpt lat="48.71557" lon="2.53228">
        <ele>103.443</ele>
        <time>2018-12-12T08:40:27Z</time>
      </trkpt>
      <trkpt lat="48.7156" lon="2.53233">
        <ele>103.473</ele>
        <time>2018-12-12T08:40:31Z</time>
      </trkpt>
      <trkpt lat="48.71563" lon="2.53238">
        <ele>103.506</ele>
        <time>2018-12-12T08:40:35Z</time>
      </trkpt>
      <trkpt lat="48.71566" lon="2.53243">
        <ele>103.537</ele>
        <time>2018-12-12T08:40:39Z</time>
      </trkpt>
      <trkpt lat="48.7157" lon="2.53249">
        <ele>103.567</ele>
        <time>2018-12-12T08:40:43Z</time>
      </trkpt>
      <trkpt lat="48.71574" lon="2.53254">
        <ele>103.597</ele>
        <time>2018-12-12T08:40:47Z</time>
      </trkpt>
      <trkpt lat="48.71577" lon="2.5326">
        <ele>103.623</ele>
        <time>2018-12-12T08:40:51Z</time>
      </trkpt>
      <trkpt lat="48.71581" lon="2.53265">
        <ele>103.649</ele>
        <time>2018-12-12T08:40:55Z</time>
      </trkpt>
      <trkpt lat="48.71584" lon="2.5327">
        <ele>103.673</ele>
        <time>2018-12-12T08:40:59Z</time>
      </trkpt>
      <trkpt lat="48.71586" lon="2.53277">
        <ele>103.7</ele>
        <time>2018-12-12T08:41:04Z</time>
      </trkpt>
      <trkpt lat="48.71587" lon="2.53288">
        <ele>103.717</ele>
        <time>2018-12-12T08:41:08Z</time>
      </trkpt>
      <trkpt lat="48.71588" lon="2.53297">
        <ele>103.729</ele>
        <time>2018-12-12T08:41:11Z</time>
      </trkpt>
      <trkpt lat="48.7159" lon="2.53304">
        <ele>103.744</ele>
        <time>2018-12-12T08:41:15Z</time>
      </trkpt>
      <trkpt lat="48.71592" lon="2.53312">
        <ele>103.757</ele>
        <time>2018-12-12T08:41:19Z</time>
      </trkpt>
      <trkpt lat="48.71595" lon="2.5332">
        <ele>103.771</ele>
        <time>2018-12-12T08:41:23Z</time>
      </trkpt>
      <trkpt lat="48.71599" lon="2.53325">
        <ele>103.786</ele>
        <time>2018-12-12T08:41:27Z</time>
      </trkpt>
      <trkpt lat="48.71601" lon="2.53328">
        <ele>103.797</ele>
        <time>2018-12-12T08:41:30Z</time>
      </trkpt>
      <trkpt lat="48.71604" lon="2.53336">
        <ele>103.817</ele>
        <time>2018-12-12T08:41:36Z</time>
      </trkpt>
      <trkpt lat="48.71608" lon="2.53342">
        <ele>103.829</ele>
        <time>2018-12-12T08:41:40Z</time>
      </trkpt>
      <trkpt lat="48.71611" lon="2.53351">
        <ele>103.844</ele>
        <time>2018-12-12T08:41:45Z</time>
      </trkpt>
      <trkpt lat="48.71613" lon="2.53355">
        <ele>103.851</ele>
        <time>2018-12-12T08:41:47Z</time>
      </trkpt>
      <trkpt lat="48.71615" lon="2.53361">
        <ele>103.861</ele>
        <time>2018-12-12T08:41:50Z</time>
      </trkpt>
      <trkpt lat="48.71618" lon="2.53368">
        <ele>103.876</ele>
        <time>2018-12-12T08:41:54Z</time>
      </trkpt>
      <trkpt lat="48.71619" lon="2.53373">
        <ele>103.884</ele>
        <time>2018-12-12T08:41:56Z</time>
      </trkpt>
      <trkpt lat="48.71621" lon="2.53377">
        <ele>103.893</ele>
        <time>2018-12-12T08:41:58Z</time>
      </trkpt>
      <trkpt lat="48.71623" lon="2.53382">
        <ele>103.902</ele>
        <time>2018-12-12T08:42:00Z</time>
      </trkpt>
      <trkpt lat="48.71627" lon="2.53387">
        <ele>103.923</ele>
        <time>2018-12-12T08:42:04Z</time>
      </trkpt>
      <trkpt lat="48.71629" lon="2.53394">
        <ele>103.945</ele>
        <time>2018-12-12T08:42:08Z</time>
      </trkpt>
      <trkpt lat="48.71631" lon="2.534">
        <ele>103.974</ele>
        <time>2018-12-12T08:42:13Z</time>
      </trkpt>
      <trkpt lat="48.71631" lon="2.53404">
        <ele>103.985</ele>
        <time>2018-12-12T08:42:15Z</time>
      </trkpt>
      <trkpt lat="48.71634" lon="2.53409">
        <ele>104.012</ele>
        <time>2018-12-12T08:42:20Z</time>
      </trkpt>
      <trkpt lat="48.71637" lon="2.53416">
        <ele>104.038</ele>
        <time>2018-12-12T08:42:25Z</time>
      </trkpt>
      <trkpt lat="48.7164" lon="2.53422">
        <ele>104.058</ele>
        <time>2018-12-12T08:42:29Z</time>
      </trkpt>
      <trkpt lat="48.71641" lon="2.53429">
        <ele>104.073</ele>
        <time>2018-12-12T08:42:32Z</time>
      </trkpt>
      <trkpt lat="48.71643" lon="2.53436">
        <ele>104.092</ele>
        <time>2018-12-12T08:42:36Z</time>
      </trkpt>
      <trkpt lat="48.71643" lon="2.5344">
        <ele>104.102</ele>
        <time>2018-12-12T08:42:38Z</time>
      </trkpt>
      <trkpt lat="48.71646" lon="2.53448">
        <ele>104.121</ele>
        <time>2018-12-12T08:42:42Z</time>
      </trkpt>
      <trkpt lat="48.71647" lon="2.53451">
        <ele>104.13</ele>
        <time>2018-12-12T08:42:44Z</time>
      </trkpt>
      <trkpt lat="48.71648" lon="2.53454">
        <ele>104.14</ele>
        <time>2018-12-12T08:42:46Z</time>
      </trkpt>
      <trkpt lat="48.7165" lon="2.5346">
        <ele>104.158</ele>
        <time>2018-12-12T08:42:50Z</time>
      </trkpt>
      <trkpt lat="48.71653" lon="2.53467">
        <ele>104.176</ele>
        <time>2018-12-12T08:42:54Z</time>
      </trkpt>
      <trkpt lat="48.71656" lon="2.53473">
        <ele>104.195</ele>
        <time>2018-12-12T08:42:58Z</time>
      </trkpt>
      <trkpt lat="48.71659" lon="2.5348">
        <ele>104.215</ele>
        <time>2018-12-12T08:43:02Z</time>
      </trkpt>
      <trkpt lat="48.7166" lon="2.53484">
        <ele>104.225</ele>
        <time>2018-12-12T08:43:04Z</time>
      </trkpt>
      <trkpt lat="48.71663" lon="2.5349">
        <ele>104.253</ele>
        <time>2018-12-12T08:43:09Z</time>
      </trkpt>
      <trkpt lat="48.71666" lon="2.53498">
        <ele>104.275</ele>
        <time>2018-12-12T08:43:13Z</time>
      </trkpt>
      <trkpt lat="48.71667" lon="2.53503">
        <ele>104.292</ele>
        <time>2018-12-12T08:43:16Z</time>
      </trkpt>
      <trkpt lat="48.71667" lon="2.53511">
        <ele>104.318</ele>
        <time>2018-12-12T08:43:21Z</time>
      </trkpt>
      <trkpt lat="48.71668" lon="2.53519">
        <ele>104.339</ele>
        <time>2018-12-12T08:43:25Z</time>
      </trkpt>
      <trkpt lat="48.71668" lon="2.53525">
        <ele>104.35</ele>
        <time>2018-12-12T08:43:27Z</time>
      </trkpt>
      <trkpt lat="48.71668" lon="2.53535">
        <ele>104.382</ele>
        <time>2018-12-12T08:43:33Z</time>
      </trkpt>
      <trkpt lat="48.71668" lon="2.5354">
        <ele>104.397</ele>
        <time>2018-12-12T08:43:36Z</time>
      </trkpt>
      <trkpt lat="48.71669" lon="2.53548">
        <ele>104.415</ele>
        <time>2018-12-12T08:43:40Z</time>
      </trkpt>
      <trkpt lat="48.7167" lon="2.53555">
        <ele>104.429</ele>
        <time>2018-12-12T08:43:43Z</time>
      </trkpt>
      <trkpt lat="48.7167" lon="2.5356">
        <ele>104.44</ele>
        <time>2018-12-12T08:43:46Z</time>
      </trkpt>
      <trkpt lat="48.7167" lon="2.53564">
        <ele>104.447</ele>
        <time>2018-12-12T08:43:48Z</time>
      </trkpt>
      <trkpt lat="48.71671" lon="2.53568">
        <ele>104.454</ele>
        <time>2018-12-12T08:43:50Z</time>
      </trkpt>
      <trkpt lat="48.71671" lon="2.53572">
        <ele>104.461</ele>
        <time>2018-12-12T08:43:52Z</time>
      </trkpt>
      <trkpt lat="48.71671" lon="2.5358">
        <ele>104.479</ele>
        <time>2018-12-12T08:43:57Z</time>
      </trkpt>
      <trkpt lat="48.7167" lon="2.53587">
        <ele>104.489</ele>
        <time>2018-12-12T08:44:01Z</time>
      </trkpt>
      <trkpt lat="48.7167" lon="2.53593">
        <ele>104.496</ele>
        <time>2018-12-12T08:44:04Z</time>
      </trkpt>
      <trkpt lat="48.71669" lon="2.53597">
        <ele>104.5</ele>
        <time>2018-12-12T08:44:06Z</time>
      </trkpt>
      <trkpt lat="48.71669" lon="2.53602">
        <ele>104.506</ele>
        <time>2018-12-12T08:44:08Z</time>
      </trkpt>
      <trkpt lat="48.71668" lon="2.53606">
        <ele>104.511</ele>
        <time>2018-12-12T08:44:10Z</time>
      </trkpt>
      <trkpt lat="48.71667" lon="2.53614">
        <ele>104.526</ele>
        <time>2018-12-12T08:44:15Z</time>
      </trkpt>
      <trkpt lat="48.71666" lon="2.53621">
        <ele>104.539</ele>
        <time>2018-12-12T08:44:20Z</time>
      </trkpt>
      <trkpt lat="48.71665" lon="2.53625">
        <ele>104.544</ele>
        <time>2018-12-12T08:44:22Z</time>
      </trkpt>
      <trkpt lat="48.71662" lon="2.53631">
        <ele>104.552</ele>
        <time>2018-12-12T08:44:25Z</time>
      </trkpt>
      <trkpt lat="48.7166" lon="2.53638">
        <ele>104.563</ele>
        <time>2018-12-12T08:44:28Z</time>
      </trkpt>
      <trkpt lat="48.71658" lon="2.53645">
        <ele>104.579</ele>
        <time>2018-12-12T08:44:32Z</time>
      </trkpt>
      <trkpt lat="48.71658" lon="2.53645">
        <ele>56.5</ele>
        <time>2018-12-12T08:44:41Z</time>
      </trkpt>
      <trkpt lat="48.71658" lon="2.53645">
        <ele>56.5</ele>
        <time>2018-12-12T08:44:47Z</time>
      </trkpt>
      <trkpt lat="48.71663" lon="2.53656">
        <ele>104.64</ele>
        <time>2018-12-12T08:44:47Z</time>
      </trkpt>
      <trkpt lat="48.71667" lon="2.53661">
        <ele>104.651</ele>
        <time>2018-12-12T08:44:50Z</time>
      </trkpt>
      <trkpt lat="48.7167" lon="2.53666">
        <ele>104.664</ele>
        <time>2018-12-12T08:44:53Z</time>
      </trkpt>
      <trkpt lat="48.71673" lon="2.53671">
        <ele>104.679</ele>
        <time>2018-12-12T08:44:56Z</time>
      </trkpt>
      <trkpt lat="48.71675" lon="2.53677">
        <ele>104.7</ele>
        <time>2018-12-12T08:45:00Z</time>
      </trkpt>
      <trkpt lat="48.71676" lon="2.5368">
        <ele>104.712</ele>
        <time>2018-12-12T08:45:02Z</time>
      </trkpt>
      <trkpt lat="48.71678" lon="2.53683">
        <ele>104.724</ele>
        <time>2018-12-12T08:45:04Z</time>
      </trkpt>
      <trkpt lat="48.7168" lon="2.53687">
        <ele>104.757</ele>
        <time>2018-12-12T08:45:09Z</time>
      </trkpt>
      <trkpt lat="48.7168" lon="2.53687">
        <ele>57.3</ele>
        <time>2018-12-12T08:45:15Z</time>
      </trkpt>
      <trkpt lat="48.7168" lon="2.53687">
        <ele>57.3</ele>
        <time>2018-12-12T08:45:27Z</time>
      </trkpt>
      <trkpt lat="48.71679" lon="2.53702">
        <ele>104.882</ele>
        <time>2018-12-12T08:45:27Z</time>
      </trkpt>
      <trkpt lat="48.71678" lon="2.53707">
        <ele>104.91</ele>
        <time>2018-12-12T08:45:30Z</time>
      </trkpt>
      <trkpt lat="48.7168" lon="2.53713">
        <ele>104.948</ele>
        <time>2018-12-12T08:45:34Z</time>
      </trkpt>
      <trkpt lat="48.7168" lon="2.53721">
        <ele>104.997</ele>
        <time>2018-12-12T08:45:39Z</time>
      </trkpt>
      <trkpt lat="48.71682" lon="2.53728">
        <ele>105.045</ele>
        <time>2018-12-12T08:45:44Z</time>
      </trkpt>
      <trkpt lat="48.71683" lon="2.53732">
        <ele>105.065</ele>
        <time>2018-12-12T08:45:46Z</time>
      </trkpt>
      <trkpt lat="48.71683" lon="2.53737">
        <ele>105.093</ele>
        <time>2018-12-12T08:45:49Z</time>
      </trkpt>
      <trkpt lat="48.71684" lon="2.53741">
        <ele>105.119</ele>
        <time>2018-12-12T08:45:52Z</time>
      </trkpt>
      <trkpt lat="48.71684" lon="2.53745">
        <ele>105.143</ele>
        <time>2018-12-12T08:45:55Z</time>
      </trkpt>
      <trkpt lat="48.71685" lon="2.53749">
        <ele>105.158</ele>
        <time>2018-12-12T08:45:57Z</time>
      </trkpt>
      <trkpt lat="48.71686" lon="2.53757">
        <ele>105.187</ele>
        <time>2018-12-12T08:46:01Z</time>
      </trkpt>
      <trkpt lat="48.71689" lon="2.53764">
        <ele>105.22</ele>
        <time>2018-12-12T08:46:06Z</time>
      </trkpt>
      <trkpt lat="48.71691" lon="2.53767">
        <ele>105.233</ele>
        <time>2018-12-12T08:46:08Z</time>
      </trkpt>
      <trkpt lat="48.71692" lon="2.53771">
        <ele>105.245</ele>
        <time>2018-12-12T08:46:10Z</time>
      </trkpt>
      <trkpt lat="48.71695" lon="2.53777">
        <ele>105.264</ele>
        <time>2018-12-12T08:46:13Z</time>
      </trkpt>
      <trkpt lat="48.71697" lon="2.5378">
        <ele>105.277</ele>
        <time>2018-12-12T08:46:15Z</time>
      </trkpt>
      <trkpt lat="48.71698" lon="2.53789">
        <ele>105.302</ele>
        <time>2018-12-12T08:46:19Z</time>
      </trkpt>
      <trkpt lat="48.71701" lon="2.53796">
        <ele>105.334</ele>
        <time>2018-12-12T08:46:24Z</time>
      </trkpt>
      <trkpt lat="48.71702" lon="2.53799">
        <ele>105.346</ele>
        <time>2018-12-12T08:46:26Z</time>
      </trkpt>
      <trkpt lat="48.71703" lon="2.53804">
        <ele>105.364</ele>
        <time>2018-12-12T08:46:29Z</time>
      </trkpt>
      <trkpt lat="48.71705" lon="2.53808">
        <ele>105.379</ele>
        <time>2018-12-12T08:46:32Z</time>
      </trkpt>
      <trkpt lat="48.71706" lon="2.53813">
        <ele>105.393</ele>
        <time>2018-12-12T08:46:35Z</time>
      </trkpt>
      <trkpt lat="48.71709" lon="2.53818">
        <ele>105.412</ele>
        <time>2018-12-12T08:46:39Z</time>
      </trkpt>
      <trkpt lat="48.71712" lon="2.53821">
        <ele>105.425</ele>
        <time>2018-12-12T08:46:42Z</time>
      </trkpt>
      <trkpt lat="48.71716" lon="2.53824">
        <ele>105.441</ele>
        <time>2018-12-12T08:46:46Z</time>
      </trkpt>
      <trkpt lat="48.7172" lon="2.53829">
        <ele>105.459</ele>
        <time>2018-12-12T08:46:51Z</time>
      </trkpt>
      <trkpt lat="48.71724" lon="2.53833">
        <ele>105.47</ele>
        <time>2018-12-12T08:46:55Z</time>
      </trkpt>
      <trkpt lat="48.71727" lon="2.53835">
        <ele>105.474</ele>
        <time>2018-12-12T08:46:57Z</time>
      </trkpt>
      <trkpt lat="48.71729" lon="2.53837">
        <ele>105.479</ele>
        <time>2018-12-12T08:46:59Z</time>
      </trkpt>
      <trkpt lat="48.71732" lon="2.53839">
        <ele>105.484</ele>
        <time>2018-12-12T08:47:01Z</time>
      </trkpt>
      <trkpt lat="48.71735" lon="2.53841">
        <ele>105.486</ele>
        <time>2018-12-12T08:47:02Z</time>
      </trkpt>
      <trkpt lat="48.71738" lon="2.53847">
        <ele>105.492</ele>
        <time>2018-12-12T08:47:05Z</time>
      </trkpt>
      <trkpt lat="48.7174" lon="2.53851">
        <ele>105.496</ele>
        <time>2018-12-12T08:47:07Z</time>
      </trkpt>
      <trkpt lat="48.71743" lon="2.53857">
        <ele>105.506</ele>
        <time>2018-12-12T08:47:11Z</time>
      </trkpt>
      <trkpt lat="48.71745" lon="2.53861">
        <ele>105.515</ele>
        <time>2018-12-12T08:47:14Z</time>
      </trkpt>
      <trkpt lat="48.71747" lon="2.53864">
        <ele>105.522</ele>
        <time>2018-12-12T08:47:16Z</time>
      </trkpt>
      <trkpt lat="48.71749" lon="2.53869">
        <ele>105.532</ele>
        <time>2018-12-12T08:47:19Z</time>
      </trkpt>
      <trkpt lat="48.71753" lon="2.53874">
        <ele>105.548</ele>
        <time>2018-12-12T08:47:23Z</time>
      </trkpt>
      <trkpt lat="48.71755" lon="2.53876">
        <ele>105.557</ele>
        <time>2018-12-12T08:47:25Z</time>
      </trkpt>
      <trkpt lat="48.71759" lon="2.53881">
        <ele>105.57</ele>
        <time>2018-12-12T08:47:28Z</time>
      </trkpt>
      <trkpt lat="48.71761" lon="2.53883">
        <ele>105.579</ele>
        <time>2018-12-12T08:47:30Z</time>
      </trkpt>
      <trkpt lat="48.71763" lon="2.53887">
        <ele>105.592</ele>
        <time>2018-12-12T08:47:33Z</time>
      </trkpt>
      <trkpt lat="48.71766" lon="2.53893">
        <ele>105.609</ele>
        <time>2018-12-12T08:47:37Z</time>
      </trkpt>
      <trkpt lat="48.71767" lon="2.53896">
        <ele>105.617</ele>
        <time>2018-12-12T08:47:39Z</time>
      </trkpt>
      <trkpt lat="48.71769" lon="2.539">
        <ele>105.629</ele>
        <time>2018-12-12T08:47:42Z</time>
      </trkpt>
      <trkpt lat="48.71773" lon="2.53905">
        <ele>105.649</ele>
        <time>2018-12-12T08:47:47Z</time>
      </trkpt>
      <trkpt lat="48.71775" lon="2.53907">
        <ele>105.658</ele>
        <time>2018-12-12T08:47:49Z</time>
      </trkpt>
      <trkpt lat="48.71779" lon="2.53913">
        <ele>105.681</ele>
        <time>2018-12-12T08:47:54Z</time>
      </trkpt>
      <trkpt lat="48.71781" lon="2.53915">
        <ele>105.69</ele>
        <time>2018-12-12T08:47:56Z</time>
      </trkpt>
      <trkpt lat="48.71784" lon="2.5392">
        <ele>105.712</ele>
        <time>2018-12-12T08:48:01Z</time>
      </trkpt>
      <trkpt lat="48.71789" lon="2.53925">
        <ele>105.728</ele>
        <time>2018-12-12T08:48:05Z</time>
      </trkpt>
      <trkpt lat="48.71791" lon="2.53926">
        <ele>105.736</ele>
        <time>2018-12-12T08:48:07Z</time>
      </trkpt>
      <trkpt lat="48.71794" lon="2.53928">
        <ele>105.748</ele>
        <time>2018-12-12T08:48:10Z</time>
      </trkpt>
      <trkpt lat="48.71798" lon="2.53933">
        <ele>105.764</ele>
        <time>2018-12-12T08:48:14Z</time>
      </trkpt>
      <trkpt lat="48.71801" lon="2.53939">
        <ele>105.778</ele>
        <time>2018-12-12T08:48:17Z</time>
      </trkpt>
      <trkpt lat="48.71806" lon="2.53946">
        <ele>105.794</ele>
        <time>2018-12-12T08:48:20Z</time>
      </trkpt>
      <trkpt lat="48.71811" lon="2.53951">
        <ele>105.818</ele>
        <time>2018-12-12T08:48:24Z</time>
      </trkpt>
      <trkpt lat="48.71814" lon="2.53954">
        <ele>105.839</ele>
        <time>2018-12-12T08:48:27Z</time>
      </trkpt>
      <trkpt lat="48.71816" lon="2.53957">
        <ele>105.853</ele>
        <time>2018-12-12T08:48:29Z</time>
      </trkpt>
      <trkpt lat="48.7182" lon="2.5396">
        <ele>105.874</ele>
        <time>2018-12-12T08:48:32Z</time>
      </trkpt>
      <trkpt lat="48.71824" lon="2.53966">
        <ele>105.909</ele>
        <time>2018-12-12T08:48:37Z</time>
      </trkpt>
      <trkpt lat="48.71825" lon="2.53969">
        <ele>105.922</ele>
        <time>2018-12-12T08:48:39Z</time>
      </trkpt>
      <trkpt lat="48.71827" lon="2.53972">
        <ele>105.934</ele>
        <time>2018-12-12T08:48:41Z</time>
      </trkpt>
      <trkpt lat="48.7183" lon="2.53977">
        <ele>105.963</ele>
        <time>2018-12-12T08:48:46Z</time>
      </trkpt>
      <trkpt lat="48.71832" lon="2.53981">
        <ele>105.985</ele>
        <time>2018-12-12T08:48:50Z</time>
      </trkpt>
      <trkpt lat="48.71835" lon="2.53987">
        <ele>106.013</ele>
        <time>2018-12-12T08:48:55Z</time>
      </trkpt>
      <trkpt lat="48.71839" lon="2.53992">
        <ele>106.035</ele>
        <time>2018-12-12T08:48:59Z</time>
      </trkpt>
      <trkpt lat="48.71842" lon="2.53999">
        <ele>106.05</ele>
        <time>2018-12-12T08:49:02Z</time>
      </trkpt>
      <trkpt lat="48.71844" lon="2.54007">
        <ele>106.068</ele>
        <time>2018-12-12T08:49:06Z</time>
      </trkpt>
      <trkpt lat="48.71845" lon="2.54011">
        <ele>106.077</ele>
        <time>2018-12-12T08:49:08Z</time>
      </trkpt>
      <trkpt lat="48.71848" lon="2.54017">
        <ele>106.091</ele>
        <time>2018-12-12T08:49:11Z</time>
      </trkpt>
      <trkpt lat="48.7185" lon="2.5402">
        <ele>106.105</ele>
        <time>2018-12-12T08:49:14Z</time>
      </trkpt>
      <trkpt lat="48.71853" lon="2.54026">
        <ele>106.128</ele>
        <time>2018-12-12T08:49:19Z</time>
      </trkpt>
      <trkpt lat="48.71856" lon="2.54032">
        <ele>106.143</ele>
        <time>2018-12-12T08:49:22Z</time>
      </trkpt>
      <trkpt lat="48.71858" lon="2.54037">
        <ele>106.159</ele>
        <time>2018-12-12T08:49:25Z</time>
      </trkpt>
      <trkpt lat="48.71863" lon="2.54038">
        <ele>106.182</ele>
        <time>2018-12-12T08:49:29Z</time>
      </trkpt>
      <trkpt lat="48.71868" lon="2.5404">
        <ele>106.206</ele>
        <time>2018-12-12T08:49:33Z</time>
      </trkpt>
      <trkpt lat="48.71874" lon="2.54044">
        <ele>106.229</ele>
        <time>2018-12-12T08:49:37Z</time>
      </trkpt>
      <trkpt lat="48.71878" lon="2.5405">
        <ele>106.249</ele>
        <time>2018-12-12T08:49:40Z</time>
      </trkpt>
      <trkpt lat="48.71881" lon="2.54056">
        <ele>106.268</ele>
        <time>2018-12-12T08:49:43Z</time>
      </trkpt>
      <trkpt lat="48.71883" lon="2.54059">
        <ele>106.275</ele>
        <time>2018-12-12T08:49:44Z</time>
      </trkpt>
      <trkpt lat="48.71887" lon="2.54064">
        <ele>106.306</ele>
        <time>2018-12-12T08:49:48Z</time>
      </trkpt>
      <trkpt lat="48.71889" lon="2.54068">
        <ele>106.329</ele>
        <time>2018-12-12T08:49:51Z</time>
      </trkpt>
      <trkpt lat="48.7189" lon="2.54071">
        <ele>106.344</ele>
        <time>2018-12-12T08:49:53Z</time>
      </trkpt>
      <trkpt lat="48.71894" lon="2.54076">
        <ele>106.373</ele>
        <time>2018-12-12T08:49:57Z</time>
      </trkpt>
      <trkpt lat="48.71897" lon="2.54083">
        <ele>106.407</ele>
        <time>2018-12-12T08:50:02Z</time>
      </trkpt>
      <trkpt lat="48.71899" lon="2.54091">
        <ele>106.431</ele>
        <time>2018-12-12T08:50:06Z</time>
      </trkpt>
      <trkpt lat="48.719" lon="2.54094">
        <ele>106.442</ele>
        <time>2018-12-12T08:50:08Z</time>
      </trkpt>
      <trkpt lat="48.71901" lon="2.54102">
        <ele>106.462</ele>
        <time>2018-12-12T08:50:12Z</time>
      </trkpt>
      <trkpt lat="48.71902" lon="2.54106">
        <ele>106.471</ele>
        <time>2018-12-12T08:50:14Z</time>
      </trkpt>
      <trkpt lat="48.71903" lon="2.54111">
        <ele>106.483</ele>
        <time>2018-12-12T08:50:17Z</time>
      </trkpt>
      <trkpt lat="48.71905" lon="2.54118">
        <ele>106.498</ele>
        <time>2018-12-12T08:50:22Z</time>
      </trkpt>
      <trkpt lat="48.71906" lon="2.54121">
        <ele>106.504</ele>
        <time>2018-12-12T08:50:24Z</time>
      </trkpt>
      <trkpt lat="48.71906" lon="2.54128">
        <ele>106.511</ele>
        <time>2018-12-12T08:50:27Z</time>
      </trkpt>
      <trkpt lat="48.71907" lon="2.54133">
        <ele>106.516</ele>
        <time>2018-12-12T08:50:29Z</time>
      </trkpt>
      <trkpt lat="48.71908" lon="2.5414">
        <ele>106.522</ele>
        <time>2018-12-12T08:50:32Z</time>
      </trkpt>
      <trkpt lat="48.71908" lon="2.54145">
        <ele>106.526</ele>
        <time>2018-12-12T08:50:34Z</time>
      </trkpt>
      <trkpt lat="48.71909" lon="2.54149">
        <ele>106.53</ele>
        <time>2018-12-12T08:50:36Z</time>
      </trkpt>
      <trkpt lat="48.7191" lon="2.54153">
        <ele>106.533</ele>
        <time>2018-12-12T08:50:38Z</time>
      </trkpt>
      <trkpt lat="48.71911" lon="2.54157">
        <ele>106.538</ele>
        <time>2018-12-12T08:50:41Z</time>
      </trkpt>
      <trkpt lat="48.71913" lon="2.54163">
        <ele>106.545</ele>
        <time>2018-12-12T08:50:45Z</time>
      </trkpt>
      <trkpt lat="48.71918" lon="2.54168">
        <ele>106.553</ele>
        <time>2018-12-12T08:50:51Z</time>
      </trkpt>
      <trkpt lat="48.71921" lon="2.54174">
        <ele>106.553</ele>
        <time>2018-12-12T08:50:57Z</time>
      </trkpt>
      <trkpt lat="48.71924" lon="2.5418">
        <ele>106.547</ele>
        <time>2018-12-12T08:51:02Z</time>
      </trkpt>
      <trkpt lat="48.71931" lon="2.54188">
        <ele>106.528</ele>
        <time>2018-12-12T08:51:09Z</time>
      </trkpt>
      <trkpt lat="48.71935" lon="2.54192">
        <ele>106.508</ele>
        <time>2018-12-12T08:51:14Z</time>
      </trkpt>
      <trkpt lat="48.71938" lon="2.542">
        <ele>106.484</ele>
        <time>2018-12-12T08:51:19Z</time>
      </trkpt>
      <trkpt lat="48.7194" lon="2.54204">
        <ele>106.474</ele>
        <time>2018-12-12T08:51:21Z</time>
      </trkpt>
      <trkpt lat="48.71943" lon="2.54214">
        <ele>106.453</ele>
        <time>2018-12-12T08:51:25Z</time>
      </trkpt>
      <trkpt lat="48.71943" lon="2.54226">
        <ele>106.429</ele>
        <time>2018-12-12T08:51:30Z</time>
      </trkpt>
      <trkpt lat="48.71949" lon="2.54232">
        <ele>106.42</ele>
        <time>2018-12-12T08:51:32Z</time>
      </trkpt>
      <trkpt lat="48.71954" lon="2.54238">
        <ele>106.408</ele>
        <time>2018-12-12T08:51:35Z</time>
      </trkpt>
      <trkpt lat="48.71956" lon="2.54242">
        <ele>106.402</ele>
        <time>2018-12-12T08:51:37Z</time>
      </trkpt>
      <trkpt lat="48.71957" lon="2.54252">
        <ele>106.392</ele>
        <time>2018-12-12T08:51:42Z</time>
      </trkpt>
      <trkpt lat="48.71957" lon="2.5426">
        <ele>106.392</ele>
        <time>2018-12-12T08:51:46Z</time>
      </trkpt>
      <trkpt lat="48.71962" lon="2.54264">
        <ele>106.397</ele>
        <time>2018-12-12T08:51:53Z</time>
      </trkpt>
      <trkpt lat="48.71964" lon="2.5427">
        <ele>106.402</ele>
        <time>2018-12-12T08:51:58Z</time>
      </trkpt>
      <trkpt lat="48.71966" lon="2.54277">
        <ele>106.412</ele>
        <time>2018-12-12T08:52:04Z</time>
      </trkpt>
      <trkpt lat="48.71966" lon="2.54277">
        <ele>56.8</ele>
        <time>2018-12-12T08:52:12Z</time>
      </trkpt>
      <trkpt lat="48.71966" lon="2.54277">
        <ele>56.8</ele>
        <time>2018-12-12T08:53:18Z</time>
      </trkpt>
      <trkpt lat="48.71975" lon="2.54296">
        <ele>106.529</ele>
        <time>2018-12-12T08:53:18Z</time>
      </trkpt>
      <trkpt lat="48.71988" lon="2.54295">
        <ele>106.536</ele>
        <time>2018-12-12T08:53:23Z</time>
      </trkpt>
      <trkpt lat="48.71993" lon="2.54294">
        <ele>106.542</ele>
        <time>2018-12-12T08:53:25Z</time>
      </trkpt>
      <trkpt lat="48.71999" lon="2.54296">
        <ele>106.553</ele>
        <time>2018-12-12T08:53:28Z</time>
      </trkpt>
      <trkpt lat="48.72003" lon="2.54301">
        <ele>106.562</ele>
        <time>2018-12-12T08:53:30Z</time>
      </trkpt>
      <trkpt lat="48.72006" lon="2.54305">
        <ele>106.573</ele>
        <time>2018-12-12T08:53:32Z</time>
      </trkpt>
      <trkpt lat="48.72008" lon="2.54307">
        <ele>106.585</ele>
        <time>2018-12-12T08:53:34Z</time>
      </trkpt>
      <trkpt lat="48.7201" lon="2.5431">
        <ele>106.597</ele>
        <time>2018-12-12T08:53:36Z</time>
      </trkpt>
      <trkpt lat="48.72013" lon="2.54316">
        <ele>106.626</ele>
        <time>2018-12-12T08:53:40Z</time>
      </trkpt>
      <trkpt lat="48.72017" lon="2.54323">
        <ele>106.658</ele>
        <time>2018-12-12T08:53:44Z</time>
      </trkpt>
      <trkpt lat="48.72019" lon="2.54326">
        <ele>106.686</ele>
        <time>2018-12-12T08:53:47Z</time>
      </trkpt>
      <trkpt lat="48.72019" lon="2.54326">
        <ele>58.3</ele>
        <time>2018-12-12T08:53:55Z</time>
      </trkpt>
      <trkpt lat="48.72019" lon="2.54326">
        <ele>58.3</ele>
        <time>2018-12-12T08:54:36Z</time>
      </trkpt>
      <trkpt lat="48.7205" lon="2.54311">
        <ele>107.047</ele>
        <time>2018-12-12T08:54:36Z</time>
      </trkpt>
      <trkpt lat="48.72051" lon="2.54308">
        <ele>107.051</ele>
        <time>2018-12-12T08:54:38Z</time>
      </trkpt>
      <trkpt lat="48.72053" lon="2.54305">
        <ele>107.055</ele>
        <time>2018-12-12T08:54:40Z</time>
      </trkpt>
      <trkpt lat="48.72056" lon="2.54297">
        <ele>107.063</ele>
        <time>2018-12-12T08:54:45Z</time>
      </trkpt>
      <trkpt lat="48.7206" lon="2.54293">
        <ele>107.072</ele>
        <time>2018-12-12T08:54:50Z</time>
      </trkpt>
      <trkpt lat="48.7206" lon="2.54293">
        <ele>107.072</ele>
        <time>2018-12-12T08:54:58Z</time>
      </trkpt>
      <trkpt lat="48.7206" lon="2.54293">
        <ele>58.5</ele>
        <time>2018-12-12T08:54:58Z</time>
      </trkpt>
      <trkpt lat="48.7206" lon="2.54293">
        <ele>58.5</ele>
        <time>2018-12-12T08:55:09Z</time>
      </trkpt>
      <trkpt lat="48.72074" lon="2.54288">
        <ele>107.12</ele>
        <time>2018-12-12T08:55:09Z</time>
      </trkpt>
      <trkpt lat="48.72079" lon="2.54288">
        <ele>107.129</ele>
        <time>2018-12-12T08:55:13Z</time>
      </trkpt>
      <trkpt lat="48.72084" lon="2.54288">
        <ele>107.133</ele>
        <time>2018-12-12T08:55:15Z</time>
      </trkpt>
      <trkpt lat="48.72087" lon="2.54288">
        <ele>107.138</ele>
        <time>2018-12-12T08:55:17Z</time>
      </trkpt>
      <trkpt lat="48.72091" lon="2.54291">
        <ele>107.148</ele>
        <time>2018-12-12T08:55:20Z</time>
      </trkpt>
      <trkpt lat="48.72093" lon="2.54292">
        <ele>107.159</ele>
        <time>2018-12-12T08:55:23Z</time>
      </trkpt>
      <trkpt lat="48.72097" lon="2.54296">
        <ele>107.176</ele>
        <time>2018-12-12T08:55:27Z</time>
      </trkpt>
      <trkpt lat="48.72097" lon="2.54296">
        <ele>58.3</ele>
        <time>2018-12-12T08:55:34Z</time>
      </trkpt>
      <trkpt lat="48.72097" lon="2.54296">
        <ele>58.3</ele>
        <time>2018-12-12T08:55:42Z</time>
      </trkpt>
      <trkpt lat="48.72106" lon="2.54299">
        <ele>107.259</ele>
        <time>2018-12-12T08:55:42Z</time>
      </trkpt>
      <trkpt lat="48.72109" lon="2.54301">
        <ele>107.275</ele>
        <time>2018-12-12T08:55:45Z</time>
      </trkpt>
      <trkpt lat="48.72111" lon="2.54302">
        <ele>107.288</ele>
        <time>2018-12-12T08:55:48Z</time>
      </trkpt>
      <trkpt lat="48.72116" lon="2.54303">
        <ele>107.306</ele>
        <time>2018-12-12T08:55:53Z</time>
      </trkpt>
      <trkpt lat="48.7212" lon="2.54304">
        <ele>107.317</ele>
        <time>2018-12-12T08:55:57Z</time>
      </trkpt>
      <trkpt lat="48.72124" lon="2.54305">
        <ele>107.32</ele>
        <time>2018-12-12T08:56:01Z</time>
      </trkpt>
      <trkpt lat="48.72128" lon="2.54306">
        <ele>107.318</ele>
        <time>2018-12-12T08:56:04Z</time>
      </trkpt>
      <trkpt lat="48.72131" lon="2.54306">
        <ele>107.315</ele>
        <time>2018-12-12T08:56:06Z</time>
      </trkpt>
      <trkpt lat="48.72134" lon="2.54307">
        <ele>107.312</ele>
        <time>2018-12-12T08:56:08Z</time>
      </trkpt>
      <trkpt lat="48.7214" lon="2.54306">
        <ele>107.307</ele>
        <time>2018-12-12T08:56:11Z</time>
      </trkpt>
      <trkpt lat="48.72142" lon="2.54306">
        <ele>107.303</ele>
        <time>2018-12-12T08:56:13Z</time>
      </trkpt>
      <trkpt lat="48.72147" lon="2.54307">
        <ele>107.296</ele>
        <time>2018-12-12T08:56:16Z</time>
      </trkpt>
      <trkpt lat="48.72152" lon="2.54308">
        <ele>107.287</ele>
        <time>2018-12-12T08:56:20Z</time>
      </trkpt>
      <trkpt lat="48.72158" lon="2.5431">
        <ele>107.277</ele>
        <time>2018-12-12T08:56:24Z</time>
      </trkpt>
      <trkpt lat="48.72163" lon="2.5431">
        <ele>107.264</ele>
        <time>2018-12-12T08:56:29Z</time>
      </trkpt>
      <trkpt lat="48.72168" lon="2.54312">
        <ele>107.253</ele>
        <time>2018-12-12T08:56:33Z</time>
      </trkpt>
      <trkpt lat="48.7218" lon="2.54317">
        <ele>107.251</ele>
        <time>2018-12-12T08:56:36Z</time>
      </trkpt>
      <trkpt lat="48.72184" lon="2.54322">
        <ele>107.249</ele>
        <time>2018-12-12T08:56:40Z</time>
      </trkpt>
      <trkpt lat="48.72186" lon="2.54324">
        <ele>107.249</ele>
        <time>2018-12-12T08:56:42Z</time>
      </trkpt>
      <trkpt lat="48.7219" lon="2.54327">
        <ele>107.249</ele>
        <time>2018-12-12T08:56:44Z</time>
      </trkpt>
      <trkpt lat="48.72194" lon="2.54328">
        <ele>107.251</ele>
        <time>2018-12-12T08:56:45Z</time>
      </trkpt>
      <trkpt lat="48.72201" lon="2.54329">
        <ele>107.257</ele>
        <time>2018-12-12T08:56:47Z</time>
      </trkpt>
      <trkpt lat="48.72204" lon="2.5433">
        <ele>107.262</ele>
        <time>2018-12-12T08:56:48Z</time>
      </trkpt>
      <trkpt lat="48.72208" lon="2.54331">
        <ele>107.276</ele>
        <time>2018-12-12T08:56:51Z</time>
      </trkpt>
      <trkpt lat="48.7221" lon="2.54332">
        <ele>107.287</ele>
        <time>2018-12-12T08:56:53Z</time>
      </trkpt>
      <trkpt lat="48.72213" lon="2.54333">
        <ele>107.297</ele>
        <time>2018-12-12T08:56:55Z</time>
      </trkpt>
      <trkpt lat="48.72218" lon="2.54335">
        <ele>107.319</ele>
        <time>2018-12-12T08:56:59Z</time>
      </trkpt>
      <trkpt lat="48.72222" lon="2.54338">
        <ele>107.337</ele>
        <time>2018-12-12T08:57:02Z</time>
      </trkpt>
      <trkpt lat="48.72227" lon="2.54339">
        <ele>107.361</ele>
        <time>2018-12-12T08:57:06Z</time>
      </trkpt>
      <trkpt lat="48.72231" lon="2.54339">
        <ele>107.373</ele>
        <time>2018-12-12T08:57:08Z</time>
      </trkpt>
      <trkpt lat="48.72234" lon="2.54339">
        <ele>107.384</ele>
        <time>2018-12-12T08:57:10Z</time>
      </trkpt>
      <trkpt lat="48.72237" lon="2.54339">
        <ele>107.401</ele>
        <time>2018-12-12T08:57:13Z</time>
      </trkpt>
      <trkpt lat="48.72242" lon="2.54342">
        <ele>107.42</ele>
        <time>2018-12-12T08:57:17Z</time>
      </trkpt>
      <trkpt lat="48.72246" lon="2.54348">
        <ele>107.442</ele>
        <time>2018-12-12T08:57:22Z</time>
      </trkpt>
      <trkpt lat="48.7225" lon="2.54354">
        <ele>107.458</ele>
        <time>2018-12-12T08:57:26Z</time>
      </trkpt>
      <trkpt lat="48.72251" lon="2.54357">
        <ele>107.466</ele>
        <time>2018-12-12T08:57:28Z</time>
      </trkpt>
      <trkpt lat="48.72254" lon="2.54364">
        <ele>107.481</ele>
        <time>2018-12-12T08:57:32Z</time>
      </trkpt>
      <trkpt lat="48.72256" lon="2.54371">
        <ele>107.489</ele>
        <time>2018-12-12T08:57:34Z</time>
      </trkpt>
      <trkpt lat="48.72258" lon="2.54377">
        <ele>107.497</ele>
        <time>2018-12-12T08:57:36Z</time>
      </trkpt>
      <trkpt lat="48.7226" lon="2.54384">
        <ele>107.517</ele>
        <time>2018-12-12T08:57:41Z</time>
      </trkpt>
      <trkpt lat="48.72262" lon="2.5439">
        <ele>107.528</ele>
        <time>2018-12-12T08:57:44Z</time>
      </trkpt>
      <trkpt lat="48.72264" lon="2.54395">
        <ele>107.536</ele>
        <time>2018-12-12T08:57:46Z</time>
      </trkpt>
      <trkpt lat="48.72266" lon="2.54401">
        <ele>107.556</ele>
        <time>2018-12-12T08:57:50Z</time>
      </trkpt>
      <trkpt lat="48.72268" lon="2.54405">
        <ele>107.567</ele>
        <time>2018-12-12T08:57:52Z</time>
      </trkpt>
      <trkpt lat="48.72269" lon="2.54409">
        <ele>107.577</ele>
        <time>2018-12-12T08:57:54Z</time>
      </trkpt>
      <trkpt lat="48.7227" lon="2.54416">
        <ele>107.599</ele>
        <time>2018-12-12T08:57:58Z</time>
      </trkpt>
      <trkpt lat="48.72274" lon="2.54422">
        <ele>107.619</ele>
        <time>2018-12-12T08:58:02Z</time>
      </trkpt>
      <trkpt lat="48.72278" lon="2.54428">
        <ele>107.639</ele>
        <time>2018-12-12T08:58:06Z</time>
      </trkpt>
      <trkpt lat="48.72281" lon="2.54431">
        <ele>107.654</ele>
        <time>2018-12-12T08:58:09Z</time>
      </trkpt>
      <trkpt lat="48.72284" lon="2.54436">
        <ele>107.674</ele>
        <time>2018-12-12T08:58:13Z</time>
      </trkpt>
      <trkpt lat="48.72287" lon="2.5444">
        <ele>107.691</ele>
        <time>2018-12-12T08:58:16Z</time>
      </trkpt>
      <trkpt lat="48.72291" lon="2.54444">
        <ele>107.72</ele>
        <time>2018-12-12T08:58:21Z</time>
      </trkpt>
      <trkpt lat="48.72293" lon="2.54446">
        <ele>107.737</ele>
        <time>2018-12-12T08:58:24Z</time>
      </trkpt>
      <trkpt lat="48.72295" lon="2.5445">
        <ele>107.753</ele>
        <time>2018-12-12T08:58:27Z</time>
      </trkpt>
      <trkpt lat="48.723" lon="2.54454">
        <ele>107.782</ele>
        <time>2018-12-12T08:58:32Z</time>
      </trkpt>
      <trkpt lat="48.72302" lon="2.54456">
        <ele>107.798</ele>
        <time>2018-12-12T08:58:35Z</time>
      </trkpt>
      <trkpt lat="48.72306" lon="2.5446">
        <ele>107.842</ele>
        <time>2018-12-12T08:58:41Z</time>
      </trkpt>
      <trkpt lat="48.72309" lon="2.54464">
        <ele>107.883</ele>
        <time>2018-12-12T08:58:46Z</time>
      </trkpt>
      <trkpt lat="48.72315" lon="2.54463">
        <ele>107.926</ele>
        <time>2018-12-12T08:58:51Z</time>
      </trkpt>
      <trkpt lat="48.7232" lon="2.54459">
        <ele>107.951</ele>
        <time>2018-12-12T08:58:54Z</time>
      </trkpt>
      <trkpt lat="48.72324" lon="2.54456">
        <ele>107.975</ele>
        <time>2018-12-12T08:58:57Z</time>
      </trkpt>
      <trkpt lat="48.72329" lon="2.54455">
        <ele>107.995</ele>
        <time>2018-12-12T08:59:00Z</time>
      </trkpt>
      <trkpt lat="48.72332" lon="2.54454">
        <ele>108.013</ele>
        <time>2018-12-12T08:59:03Z</time>
      </trkpt>
      <trkpt lat="48.72337" lon="2.54454">
        <ele>108.039</ele>
        <time>2018-12-12T08:59:08Z</time>
      </trkpt>
      <trkpt lat="48.72342" lon="2.5445">
        <ele>108.055</ele>
        <time>2018-12-12T08:59:12Z</time>
      </trkpt>
      <trkpt lat="48.72347" lon="2.54445">
        <ele>108.065</ele>
        <time>2018-12-12T08:59:16Z</time>
      </trkpt>
      <trkpt lat="48.7235" lon="2.54443">
        <ele>108.07</ele>
        <time>2018-12-12T08:59:18Z</time>
      </trkpt>
      <trkpt lat="48.72354" lon="2.5444">
        <ele>108.075</ele>
        <time>2018-12-12T08:59:21Z</time>
      </trkpt>
      <trkpt lat="48.72357" lon="2.54438">
        <ele>108.077</ele>
        <time>2018-12-12T08:59:23Z</time>
      </trkpt>
      <trkpt lat="48.72361" lon="2.54435">
        <ele>108.08</ele>
        <time>2018-12-12T08:59:26Z</time>
      </trkpt>
      <trkpt lat="48.72366" lon="2.54432">
        <ele>108.084</ele>
        <time>2018-12-12T08:59:29Z</time>
      </trkpt>
      <trkpt lat="48.72371" lon="2.5443">
        <ele>108.09</ele>
        <time>2018-12-12T08:59:32Z</time>
      </trkpt>
      <trkpt lat="48.72373" lon="2.54429">
        <ele>108.095</ele>
        <time>2018-12-12T08:59:34Z</time>
      </trkpt>
      <trkpt lat="48.72378" lon="2.54427">
        <ele>108.105</ele>
        <time>2018-12-12T08:59:38Z</time>
      </trkpt>
      <trkpt lat="48.72382" lon="2.54424">
        <ele>108.116</ele>
        <time>2018-12-12T08:59:42Z</time>
      </trkpt>
      <trkpt lat="48.72387" lon="2.54421">
        <ele>108.127</ele>
        <time>2018-12-12T08:59:45Z</time>
      </trkpt>
      <trkpt lat="48.72392" lon="2.54419">
        <ele>108.139</ele>
        <time>2018-12-12T08:59:48Z</time>
      </trkpt>
      <trkpt lat="48.72395" lon="2.54417">
        <ele>108.149</ele>
        <time>2018-12-12T08:59:50Z</time>
      </trkpt>
      <trkpt lat="48.72399" lon="2.54415">
        <ele>108.16</ele>
        <time>2018-12-12T08:59:52Z</time>
      </trkpt>
      <trkpt lat="48.72401" lon="2.54413">
        <ele>108.171</ele>
        <time>2018-12-12T08:59:54Z</time>
      </trkpt>
      <trkpt lat="48.72406" lon="2.54409">
        <ele>108.196</ele>
        <time>2018-12-12T08:59:58Z</time>
      </trkpt>
      <trkpt lat="48.72409" lon="2.54407">
        <ele>108.213</ele>
        <time>2018-12-12T09:00:01Z</time>
      </trkpt>
      <trkpt lat="48.72411" lon="2.54404">
        <ele>108.225</ele>
        <time>2018-12-12T09:00:03Z</time>
      </trkpt>
      <trkpt lat="48.72416" lon="2.54402">
        <ele>108.254</ele>
        <time>2018-12-12T09:00:08Z</time>
      </trkpt>
      <trkpt lat="48.7242" lon="2.544">
        <ele>108.291</ele>
        <time>2018-12-12T09:00:15Z</time>
      </trkpt>
      <trkpt lat="48.72424" lon="2.54396">
        <ele>108.31</ele>
        <time>2018-12-12T09:00:19Z</time>
      </trkpt>
      <trkpt lat="48.7243" lon="2.54393">
        <ele>108.335</ele>
        <time>2018-12-12T09:00:24Z</time>
      </trkpt>
      <trkpt lat="48.72434" lon="2.54392">
        <ele>108.346</ele>
        <time>2018-12-12T09:00:26Z</time>
      </trkpt>
      <trkpt lat="48.72437" lon="2.5439">
        <ele>108.357</ele>
        <time>2018-12-12T09:00:28Z</time>
      </trkpt>
      <trkpt lat="48.7244" lon="2.54388">
        <ele>108.369</ele>
        <time>2018-12-12T09:00:30Z</time>
      </trkpt>
      <trkpt lat="48.72445" lon="2.54389">
        <ele>108.386</ele>
        <time>2018-12-12T09:00:33Z</time>
      </trkpt>
      <trkpt lat="48.72448" lon="2.54384">
        <ele>108.412</ele>
        <time>2018-12-12T09:00:38Z</time>
      </trkpt>
      <trkpt lat="48.72453" lon="2.54381">
        <ele>108.43</ele>
        <time>2018-12-12T09:00:42Z</time>
      </trkpt>
      <trkpt lat="48.72457" lon="2.54379">
        <ele>108.441</ele>
        <time>2018-12-12T09:00:45Z</time>
      </trkpt>
      <trkpt lat="48.7246" lon="2.54377">
        <ele>108.448</ele>
        <time>2018-12-12T09:00:47Z</time>
      </trkpt>
      <trkpt lat="48.72464" lon="2.54374">
        <ele>108.457</ele>
        <time>2018-12-12T09:00:50Z</time>
      </trkpt>
      <trkpt lat="48.72467" lon="2.54369">
        <ele>108.465</ele>
        <time>2018-12-12T09:00:55Z</time>
      </trkpt>
      <trkpt lat="48.72471" lon="2.54365">
        <ele>108.467</ele>
        <time>2018-12-12T09:00:58Z</time>
      </trkpt>
      <trkpt lat="48.72475" lon="2.5436">
        <ele>108.472</ele>
        <time>2018-12-12T09:01:01Z</time>
      </trkpt>
      <trkpt lat="48.72478" lon="2.54357">
        <ele>108.477</ele>
        <time>2018-12-12T09:01:04Z</time>
      </trkpt>
      <trkpt lat="48.72481" lon="2.54351">
        <ele>108.483</ele>
        <time>2018-12-12T09:01:08Z</time>
      </trkpt>
      <trkpt lat="48.72482" lon="2.54348">
        <ele>108.486</ele>
        <time>2018-12-12T09:01:10Z</time>
      </trkpt>
      <trkpt lat="48.72484" lon="2.54345">
        <ele>108.491</ele>
        <time>2018-12-12T09:01:13Z</time>
      </trkpt>
      <trkpt lat="48.72486" lon="2.54338">
        <ele>108.494</ele>
        <time>2018-12-12T09:01:24Z</time>
      </trkpt>
      <trkpt lat="48.72487" lon="2.54331">
        <ele>108.491</ele>
        <time>2018-12-12T09:01:39Z</time>
      </trkpt>
      <trkpt lat="48.72491" lon="2.54326">
        <ele>108.489</ele>
        <time>2018-12-12T09:01:44Z</time>
      </trkpt>
      <trkpt lat="48.72495" lon="2.54323">
        <ele>108.495</ele>
        <time>2018-12-12T09:01:50Z</time>
      </trkpt>
      <trkpt lat="48.725" lon="2.54326">
        <ele>108.519</ele>
        <time>2018-12-12T09:02:04Z</time>
      </trkpt>
      <trkpt lat="48.72506" lon="2.54327">
        <ele>108.527</ele>
        <time>2018-12-12T09:02:06Z</time>
      </trkpt>
      <trkpt lat="48.7251" lon="2.5433">
        <ele>108.54</ele>
        <time>2018-12-12T09:02:09Z</time>
      </trkpt>
      <trkpt lat="48.72513" lon="2.54332">
        <ele>108.548</ele>
        <time>2018-12-12T09:02:11Z</time>
      </trkpt>
      <trkpt lat="48.72518" lon="2.54335">
        <ele>108.575</ele>
        <time>2018-12-12T09:02:17Z</time>
      </trkpt>
      <trkpt lat="48.72521" lon="2.54336">
        <ele>108.583</ele>
        <time>2018-12-12T09:02:19Z</time>
      </trkpt>
      <trkpt lat="48.72569" lon="2.54398">
        <ele>108.79</ele>
        <time>2018-12-12T09:02:56Z</time>
      </trkpt>
      <trkpt lat="48.72569" lon="2.54398">
        <ele>108.79</ele>
        <time>2018-12-12T09:03:03Z</time>
      </trkpt>
      <trkpt lat="48.72569" lon="2.54398">
        <ele>58.6</ele>
        <time>2018-12-12T09:03:03Z</time>
      </trkpt>
      <trkpt lat="48.72569" lon="2.54398">
        <ele>58.6</ele>
        <time>2018-12-12T09:03:36Z</time>
      </trkpt>
      <trkpt lat="48.72579" lon="2.54412">
        <ele>108.75</ele>
        <time>2018-12-12T09:03:36Z</time>
      </trkpt>
      <trkpt lat="48.72586" lon="2.54413">
        <ele>108.674</ele>
        <time>2018-12-12T09:03:40Z</time>
      </trkpt>
      <trkpt lat="48.72591" lon="2.54415">
        <ele>108.595</ele>
        <time>2018-12-12T09:03:45Z</time>
      </trkpt>
      <trkpt lat="48.72598" lon="2.54416">
        <ele>108.573</ele>
        <time>2018-12-12T09:03:47Z</time>
      </trkpt>
      <trkpt lat="48.72602" lon="2.54419">
        <ele>108.521</ele>
        <time>2018-12-12T09:03:50Z</time>
      </trkpt>
      <trkpt lat="48.72605" lon="2.54421">
        <ele>108.461</ele>
        <time>2018-12-12T09:03:53Z</time>
      </trkpt>
      <trkpt lat="48.72608" lon="2.54426">
        <ele>108.325</ele>
        <time>2018-12-12T09:03:58Z</time>
      </trkpt>
      <trkpt lat="48.72613" lon="2.5443">
        <ele>108.21</ele>
        <time>2018-12-12T09:04:03Z</time>
      </trkpt>
      <trkpt lat="48.72617" lon="2.54432">
        <ele>108.167</ele>
        <time>2018-12-12T09:04:05Z</time>
      </trkpt>
      <trkpt lat="48.72622" lon="2.54436">
        <ele>108.118</ele>
        <time>2018-12-12T09:04:08Z</time>
      </trkpt>
      <trkpt lat="48.72626" lon="2.5444">
        <ele>108.078</ele>
        <time>2018-12-12T09:04:11Z</time>
      </trkpt>
      <trkpt lat="48.72628" lon="2.54443">
        <ele>108.06</ele>
        <time>2018-12-12T09:04:13Z</time>
      </trkpt>
      <trkpt lat="48.72632" lon="2.54449">
        <ele>108.044</ele>
        <time>2018-12-12T09:04:17Z</time>
      </trkpt>
      <trkpt lat="48.72636" lon="2.54452">
        <ele>108.044</ele>
        <time>2018-12-12T09:04:22Z</time>
      </trkpt>
      <trkpt lat="48.7264" lon="2.54458">
        <ele>108.05</ele>
        <time>2018-12-12T09:04:28Z</time>
      </trkpt>
      <trkpt lat="48.72642" lon="2.54462">
        <ele>108.053</ele>
        <time>2018-12-12T09:04:30Z</time>
      </trkpt>
      <trkpt lat="48.72644" lon="2.54466">
        <ele>108.058</ele>
        <time>2018-12-12T09:04:32Z</time>
      </trkpt>
      <trkpt lat="48.72647" lon="2.54471">
        <ele>108.077</ele>
        <time>2018-12-12T09:04:36Z</time>
      </trkpt>
      <trkpt lat="48.72652" lon="2.54477">
        <ele>108.111</ele>
        <time>2018-12-12T09:04:40Z</time>
      </trkpt>
      <trkpt lat="48.72656" lon="2.54483">
        <ele>108.151</ele>
        <time>2018-12-12T09:04:42Z</time>
      </trkpt>
      <trkpt lat="48.72657" lon="2.54486">
        <ele>108.187</ele>
        <time>2018-12-12T09:04:43Z</time>
      </trkpt>
      <trkpt lat="48.72657" lon="2.54486">
        <ele>59.8</ele>
        <time>2018-12-12T09:04:49Z</time>
      </trkpt>
      <trkpt lat="48.72657" lon="2.54486">
        <ele>59.8</ele>
        <time>2018-12-12T09:04:54Z</time>
      </trkpt>
      <trkpt lat="48.72661" lon="2.54494">
        <ele>108.6</ele>
        <time>2018-12-12T09:04:54Z</time>
      </trkpt>
      <trkpt lat="48.72663" lon="2.54497">
        <ele>108.696</ele>
        <time>2018-12-12T09:04:57Z</time>
      </trkpt>
      <trkpt lat="48.72667" lon="2.54502">
        <ele>108.813</ele>
        <time>2018-12-12T09:05:01Z</time>
      </trkpt>
      <trkpt lat="48.72672" lon="2.54509">
        <ele>108.914</ele>
        <time>2018-12-12T09:05:05Z</time>
      </trkpt>
      <trkpt lat="48.72679" lon="2.54517">
        <ele>108.996</ele>
        <time>2018-12-12T09:05:08Z</time>
      </trkpt>
      <trkpt lat="48.72679" lon="2.54525">
        <ele>109.105</ele>
        <time>2018-12-12T09:05:12Z</time>
      </trkpt>
      <trkpt lat="48.72682" lon="2.54531">
        <ele>109.217</ele>
        <time>2018-12-12T09:05:16Z</time>
      </trkpt>
      <trkpt lat="48.72687" lon="2.54534">
        <ele>109.31</ele>
        <time>2018-12-12T09:05:19Z</time>
      </trkpt>
      <trkpt lat="48.72691" lon="2.54537">
        <ele>109.444</ele>
        <time>2018-12-12T09:05:23Z</time>
      </trkpt>
      <trkpt lat="48.72694" lon="2.54539">
        <ele>109.516</ele>
        <time>2018-12-12T09:05:25Z</time>
      </trkpt>
      <trkpt lat="48.72699" lon="2.54541">
        <ele>109.631</ele>
        <time>2018-12-12T09:05:29Z</time>
      </trkpt>
      <trkpt lat="48.72699" lon="2.54548">
        <ele>109.844</ele>
        <time>2018-12-12T09:05:34Z</time>
      </trkpt>
      <trkpt lat="48.72699" lon="2.54548">
        <ele>58.5</ele>
        <time>2018-12-12T09:05:41Z</time>
      </trkpt>
      <trkpt lat="48.72699" lon="2.54548">
        <ele>58.5</ele>
        <time>2018-12-12T09:05:48Z</time>
      </trkpt>
      <trkpt lat="48.7271" lon="2.54545">
        <ele>110.277</ele>
        <time>2018-12-12T09:05:48Z</time>
      </trkpt>
      <trkpt lat="48.72717" lon="2.5454">
        <ele>110.41</ele>
        <time>2018-12-12T09:05:53Z</time>
      </trkpt>
      <trkpt lat="48.72722" lon="2.54542">
        <ele>110.471</ele>
        <time>2018-12-12T09:05:55Z</time>
      </trkpt>
      <trkpt lat="48.72729" lon="2.54545">
        <ele>110.57</ele>
        <time>2018-12-12T09:05:58Z</time>
      </trkpt>
      <trkpt lat="48.72734" lon="2.54546">
        <ele>110.77</ele>
        <time>2018-12-12T09:06:03Z</time>
      </trkpt>
      <trkpt lat="48.7274" lon="2.54547">
        <ele>111.014</ele>
        <time>2018-12-12T09:06:09Z</time>
      </trkpt>
      <trkpt lat="48.72764" lon="2.54538">
        <ele>112.801</ele>
        <time>2018-12-12T09:06:29Z</time>
      </trkpt>
      <trkpt lat="48.72772" lon="2.54544">
        <ele>112.81</ele>
        <time>2018-12-12T09:06:32Z</time>
      </trkpt>
      <trkpt lat="48.72779" lon="2.54541">
        <ele>112.816</ele>
        <time>2018-12-12T09:06:34Z</time>
      </trkpt>
      <trkpt lat="48.72782" lon="2.54539">
        <ele>112.823</ele>
        <time>2018-12-12T09:06:36Z</time>
      </trkpt>
      <trkpt lat="48.72787" lon="2.54542">
        <ele>112.836</ele>
        <time>2018-12-12T09:06:42Z</time>
      </trkpt>
      <trkpt lat="48.72792" lon="2.54546">
        <ele>112.841</ele>
        <time>2018-12-12T09:06:45Z</time>
      </trkpt>
      <trkpt lat="48.72797" lon="2.54549">
        <ele>112.847</ele>
        <time>2018-12-12T09:06:52Z</time>
      </trkpt>
      <trkpt lat="48.72801" lon="2.54547">
        <ele>112.848</ele>
        <time>2018-12-12T09:06:55Z</time>
      </trkpt>
      <trkpt lat="48.72801" lon="2.54547">
        <ele>112.848</ele>
        <time>2018-12-12T09:07:00Z</time>
      </trkpt>
      <trkpt lat="48.72801" lon="2.54547">
        <ele>59.2</ele>
        <time>2018-12-12T09:07:00Z</time>
      </trkpt>
      <trkpt lat="48.72801" lon="2.54547">
        <ele>59.2</ele>
        <time>2018-12-12T09:07:23Z</time>
      </trkpt>
      <trkpt lat="48.72826" lon="2.54564">
        <ele>112.573</ele>
        <time>2018-12-12T09:07:23Z</time>
      </trkpt>
      <trkpt lat="48.72831" lon="2.54566">
        <ele>112.479</ele>
        <time>2018-12-12T09:07:28Z</time>
      </trkpt>
      <trkpt lat="48.72837" lon="2.54565">
        <ele>112.413</ele>
        <time>2018-12-12T09:07:31Z</time>
      </trkpt>
      <trkpt lat="48.72841" lon="2.54565">
        <ele>112.366</ele>
        <time>2018-12-12T09:07:33Z</time>
      </trkpt>
      <trkpt lat="48.72844" lon="2.54564">
        <ele>112.322</ele>
        <time>2018-12-12T09:07:35Z</time>
      </trkpt>
      <trkpt lat="48.72849" lon="2.54565">
        <ele>112.253</ele>
        <time>2018-12-12T09:07:38Z</time>
      </trkpt>
      <trkpt lat="48.72854" lon="2.54565">
        <ele>112.159</ele>
        <time>2018-12-12T09:07:42Z</time>
      </trkpt>
      <trkpt lat="48.72857" lon="2.54565">
        <ele>112.114</ele>
        <time>2018-12-12T09:07:44Z</time>
      </trkpt>
      <trkpt lat="48.72859" lon="2.54564">
        <ele>112.07</ele>
        <time>2018-12-12T09:07:46Z</time>
      </trkpt>
      <trkpt lat="48.72859" lon="2.54564">
        <ele>59.7</ele>
        <time>2018-12-12T09:07:51Z</time>
      </trkpt>
      <trkpt lat="48.72859" lon="2.54564">
        <ele>59.7</ele>
        <time>2018-12-12T09:07:57Z</time>
      </trkpt>
      <trkpt lat="48.72868" lon="2.54567">
        <ele>111.847</ele>
        <time>2018-12-12T09:07:57Z</time>
      </trkpt>
      <trkpt lat="48.72873" lon="2.5457">
        <ele>111.756</ele>
        <time>2018-12-12T09:08:02Z</time>
      </trkpt>
      <trkpt lat="48.72878" lon="2.54579">
        <ele>111.706</ele>
        <time>2018-12-12T09:08:05Z</time>
      </trkpt>
      <trkpt lat="48.72885" lon="2.54579">
        <ele>111.638</ele>
        <time>2018-12-12T09:08:10Z</time>
      </trkpt>
      <trkpt lat="48.72891" lon="2.54579">
        <ele>111.618</ele>
        <time>2018-12-12T09:08:12Z</time>
      </trkpt>
      <trkpt lat="48.72896" lon="2.5458">
        <ele>111.599</ele>
        <time>2018-12-12T09:08:14Z</time>
      </trkpt>
      <trkpt lat="48.72896" lon="2.5458">
        <ele>111.599</ele>
        <time>2018-12-12T09:08:19Z</time>
      </trkpt>
      <trkpt lat="48.72896" lon="2.5458">
        <ele>59.5</ele>
        <time>2018-12-12T09:08:19Z</time>
      </trkpt>
      <trkpt lat="48.72896" lon="2.5458">
        <ele>59.5</ele>
        <time>2018-12-12T09:08:24Z</time>
      </trkpt>
      <trkpt lat="48.72902" lon="2.5459">
        <ele>111.51</ele>
        <time>2018-12-12T09:08:24Z</time>
      </trkpt>
      <trkpt lat="48.72907" lon="2.54596">
        <ele>111.487</ele>
        <time>2018-12-12T09:08:27Z</time>
      </trkpt>
      <trkpt lat="48.7291" lon="2.54603">
        <ele>111.46</ele>
        <time>2018-12-12T09:08:31Z</time>
      </trkpt>
      <trkpt lat="48.72912" lon="2.5461">
        <ele>111.436</ele>
        <time>2018-12-12T09:08:35Z</time>
      </trkpt>
      <trkpt lat="48.72915" lon="2.54617">
        <ele>111.416</ele>
        <time>2018-12-12T09:08:39Z</time>
      </trkpt>
      <trkpt lat="48.72916" lon="2.54621">
        <ele>111.412</ele>
        <time>2018-12-12T09:08:41Z</time>
      </trkpt>
      <trkpt lat="48.72918" lon="2.54624">
        <ele>111.409</ele>
        <time>2018-12-12T09:08:43Z</time>
      </trkpt>
      <trkpt lat="48.72919" lon="2.54628">
        <ele>111.406</ele>
        <time>2018-12-12T09:08:45Z</time>
      </trkpt>
      <trkpt lat="48.7292" lon="2.54631">
        <ele>111.406</ele>
        <time>2018-12-12T09:08:47Z</time>
      </trkpt>
      <trkpt lat="48.7292" lon="2.54631">
        <ele>59.4</ele>
        <time>2018-12-12T09:08:54Z</time>
      </trkpt>
      <trkpt lat="48.7292" lon="2.54631">
        <ele>59.4</ele>
        <time>2018-12-12T09:08:58Z</time>
      </trkpt>
      <trkpt lat="48.7293" lon="2.54637">
        <ele>111.445</ele>
        <time>2018-12-12T09:08:58Z</time>
      </trkpt>
      <trkpt lat="48.72934" lon="2.54639">
        <ele>111.472</ele>
        <time>2018-12-12T09:09:03Z</time>
      </trkpt>
      <trkpt lat="48.72934" lon="2.54639">
        <ele>59.6</ele>
        <time>2018-12-12T09:09:08Z</time>
      </trkpt>
      <trkpt lat="48.72934" lon="2.54639">
        <ele>59.6</ele>
        <time>2018-12-12T09:09:44Z</time>
      </trkpt>
      <trkpt lat="48.72967" lon="2.54629">
        <ele>111.787</ele>
        <time>2018-12-12T09:09:44Z</time>
      </trkpt>
      <trkpt lat="48.72972" lon="2.54626">
        <ele>111.82</ele>
        <time>2018-12-12T09:09:49Z</time>
      </trkpt>
      <trkpt lat="48.72978" lon="2.54624">
        <ele>111.851</ele>
        <time>2018-12-12T09:09:54Z</time>
      </trkpt>
      <trkpt lat="48.72983" lon="2.54622">
        <ele>111.883</ele>
        <time>2018-12-12T09:09:59Z</time>
      </trkpt>
      <trkpt lat="48.72987" lon="2.5462">
        <ele>111.903</ele>
        <time>2018-12-12T09:10:02Z</time>
      </trkpt>
      <trkpt lat="48.72992" lon="2.54617">
        <ele>111.933</ele>
        <time>2018-12-12T09:10:06Z</time>
      </trkpt>
      <trkpt lat="48.72994" lon="2.54615">
        <ele>111.96</ele>
        <time>2018-12-12T09:10:10Z</time>
      </trkpt>
      <trkpt lat="48.72997" lon="2.54614">
        <ele>111.981</ele>
        <time>2018-12-12T09:10:13Z</time>
      </trkpt>
      <trkpt lat="48.73002" lon="2.54612">
        <ele>112.009</ele>
        <time>2018-12-12T09:10:17Z</time>
      </trkpt>
      <trkpt lat="48.73006" lon="2.54608">
        <ele>112.042</ele>
        <time>2018-12-12T09:10:22Z</time>
      </trkpt>
      <trkpt lat="48.73011" lon="2.54606">
        <ele>112.063</ele>
        <time>2018-12-12T09:10:25Z</time>
      </trkpt>
      <trkpt lat="48.73015" lon="2.54604">
        <ele>112.093</ele>
        <time>2018-12-12T09:10:29Z</time>
      </trkpt>
      <trkpt lat="48.73018" lon="2.54602">
        <ele>112.118</ele>
        <time>2018-12-12T09:10:32Z</time>
      </trkpt>
      <trkpt lat="48.73023" lon="2.54601">
        <ele>112.148</ele>
        <time>2018-12-12T09:10:35Z</time>
      </trkpt>
      <trkpt lat="48.73029" lon="2.54598">
        <ele>112.207</ele>
        <time>2018-12-12T09:10:41Z</time>
      </trkpt>
      <trkpt lat="48.73031" lon="2.54596">
        <ele>112.225</ele>
        <time>2018-12-12T09:10:43Z</time>
      </trkpt>
      <trkpt lat="48.73038" lon="2.54594">
        <ele>112.262</ele>
        <time>2018-12-12T09:10:47Z</time>
      </trkpt>
      <trkpt lat="48.73043" lon="2.54591">
        <ele>112.311</ele>
        <time>2018-12-12T09:10:52Z</time>
      </trkpt>
      <trkpt lat="48.73047" lon="2.54587">
        <ele>112.351</ele>
        <time>2018-12-12T09:10:56Z</time>
      </trkpt>
      <trkpt lat="48.7305" lon="2.54582">
        <ele>112.385</ele>
        <time>2018-12-12T09:10:59Z</time>
      </trkpt>
      <trkpt lat="48.73052" lon="2.54575">
        <ele>112.434</ele>
        <time>2018-12-12T09:11:03Z</time>
      </trkpt>
      <trkpt lat="48.73054" lon="2.54572">
        <ele>112.459</ele>
        <time>2018-12-12T09:11:05Z</time>
      </trkpt>
      <trkpt lat="48.73057" lon="2.54567">
        <ele>112.507</ele>
        <time>2018-12-12T09:11:09Z</time>
      </trkpt>
      <trkpt lat="48.73063" lon="2.54562">
        <ele>112.585</ele>
        <time>2018-12-12T09:11:15Z</time>
      </trkpt>
      <trkpt lat="48.73068" lon="2.5456">
        <ele>112.652</ele>
        <time>2018-12-12T09:11:19Z</time>
      </trkpt>
      <trkpt lat="48.73074" lon="2.5456">
        <ele>112.758</ele>
        <time>2018-12-12T09:11:24Z</time>
      </trkpt>
      <trkpt lat="48.73079" lon="2.54562">
        <ele>112.855</ele>
        <time>2018-12-12T09:11:28Z</time>
      </trkpt>
      <trkpt lat="48.73083" lon="2.54564">
        <ele>112.959</ele>
        <time>2018-12-12T09:11:32Z</time>
      </trkpt>
      <trkpt lat="48.73087" lon="2.54568">
        <ele>113.098</ele>
        <time>2018-12-12T09:11:37Z</time>
      </trkpt>
      <trkpt lat="48.7309" lon="2.54574">
        <ele>113.268</ele>
        <time>2018-12-12T09:11:43Z</time>
      </trkpt>
      <trkpt lat="48.73095" lon="2.54576">
        <ele>113.426</ele>
        <time>2018-12-12T09:11:48Z</time>
      </trkpt>
      <trkpt lat="48.731" lon="2.54573">
        <ele>113.618</ele>
        <time>2018-12-12T09:11:54Z</time>
      </trkpt>
      <trkpt lat="48.73104" lon="2.5457">
        <ele>113.802</ele>
        <time>2018-12-12T09:12:00Z</time>
      </trkpt>
      <trkpt lat="48.73109" lon="2.54572">
        <ele>113.97</ele>
        <time>2018-12-12T09:12:06Z</time>
      </trkpt>
      <trkpt lat="48.73113" lon="2.54576">
        <ele>114.103</ele>
        <time>2018-12-12T09:12:11Z</time>
      </trkpt>
      <trkpt lat="48.73117" lon="2.54579">
        <ele>114.309</ele>
        <time>2018-12-12T09:12:19Z</time>
      </trkpt>
      <trkpt lat="48.73122" lon="2.5458">
        <ele>114.465</ele>
        <time>2018-12-12T09:12:25Z</time>
      </trkpt>
      <trkpt lat="48.73128" lon="2.5458">
        <ele>114.591</ele>
        <time>2018-12-12T09:12:30Z</time>
      </trkpt>
      <trkpt lat="48.73132" lon="2.5458">
        <ele>114.731</ele>
        <time>2018-12-12T09:12:36Z</time>
      </trkpt>
      <trkpt lat="48.73137" lon="2.54578">
        <ele>114.831</ele>
        <time>2018-12-12T09:12:40Z</time>
      </trkpt>
      <trkpt lat="48.73141" lon="2.54577">
        <ele>114.908</ele>
        <time>2018-12-12T09:12:43Z</time>
      </trkpt>
      <trkpt lat="48.73144" lon="2.54577">
        <ele>114.934</ele>
        <time>2018-12-12T09:12:44Z</time>
      </trkpt>
      <trkpt lat="48.73147" lon="2.54577">
        <ele>114.986</ele>
        <time>2018-12-12T09:12:46Z</time>
      </trkpt>
      <trkpt lat="48.73152" lon="2.54575">
        <ele>115.086</ele>
        <time>2018-12-12T09:12:50Z</time>
      </trkpt>
      <trkpt lat="48.73155" lon="2.54573">
        <ele>115.178</ele>
        <time>2018-12-12T09:12:54Z</time>
      </trkpt>
      <trkpt lat="48.73157" lon="2.54572">
        <ele>115.221</ele>
        <time>2018-12-12T09:12:56Z</time>
      </trkpt>
      <trkpt lat="48.73161" lon="2.54571">
        <ele>115.282</ele>
        <time>2018-12-12T09:12:59Z</time>
      </trkpt>
      <trkpt lat="48.73164" lon="2.54569">
        <ele>115.359</ele>
        <time>2018-12-12T09:13:03Z</time>
      </trkpt>
      <trkpt lat="48.73169" lon="2.54569">
        <ele>115.455</ele>
        <time>2018-12-12T09:13:08Z</time>
      </trkpt>
      <trkpt lat="48.73172" lon="2.54569">
        <ele>115.508</ele>
        <time>2018-12-12T09:13:11Z</time>
      </trkpt>
      <trkpt lat="48.73177" lon="2.54568">
        <ele>115.592</ele>
        <time>2018-12-12T09:13:16Z</time>
      </trkpt>
      <trkpt lat="48.73182" lon="2.54566">
        <ele>115.652</ele>
        <time>2018-12-12T09:13:20Z</time>
      </trkpt>
      <trkpt lat="48.73184" lon="2.54565">
        <ele>115.681</ele>
        <time>2018-12-12T09:13:22Z</time>
      </trkpt>
      <trkpt lat="48.73188" lon="2.54563">
        <ele>115.709</ele>
        <time>2018-12-12T09:13:24Z</time>
      </trkpt>
      <trkpt lat="48.7319" lon="2.54561">
        <ele>115.737</ele>
        <time>2018-12-12T09:13:26Z</time>
      </trkpt>
      <trkpt lat="48.73193" lon="2.5456">
        <ele>115.765</ele>
        <time>2018-12-12T09:13:28Z</time>
      </trkpt>
      <trkpt lat="48.73195" lon="2.54558">
        <ele>115.794</ele>
        <time>2018-12-12T09:13:30Z</time>
      </trkpt>
      <trkpt lat="48.73197" lon="2.54556">
        <ele>115.822</ele>
        <time>2018-12-12T09:13:32Z</time>
      </trkpt>
      <trkpt lat="48.73197" lon="2.54556">
        <ele>81.2</ele>
        <time>2018-12-12T09:13:38Z</time>
      </trkpt>
      <trkpt lat="48.73197" lon="2.54556">
        <ele>81.2</ele>
        <time>2018-12-12T09:13:51Z</time>
      </trkpt>
      <trkpt lat="48.73213" lon="2.54571">
        <ele>116.101</ele>
        <time>2018-12-12T09:13:51Z</time>
      </trkpt>
      <trkpt lat="48.73215" lon="2.54572">
        <ele>116.135</ele>
        <time>2018-12-12T09:13:53Z</time>
      </trkpt>
      <trkpt lat="48.7322" lon="2.54573">
        <ele>116.223</ele>
        <time>2018-12-12T09:13:58Z</time>
      </trkpt>
      <trkpt lat="48.73223" lon="2.54574">
        <ele>116.319</ele>
        <time>2018-12-12T09:14:03Z</time>
      </trkpt>
      <trkpt lat="48.73226" lon="2.54575">
        <ele>116.383</ele>
        <time>2018-12-12T09:14:06Z</time>
      </trkpt>
      <trkpt lat="48.73231" lon="2.54575">
        <ele>116.497</ele>
        <time>2018-12-12T09:14:12Z</time>
      </trkpt>
      <trkpt lat="48.73235" lon="2.54579">
        <ele>116.665</ele>
        <time>2018-12-12T09:14:20Z</time>
      </trkpt>
      <trkpt lat="48.73241" lon="2.54581">
        <ele>116.762</ele>
        <time>2018-12-12T09:14:24Z</time>
      </trkpt>
      <trkpt lat="48.73243" lon="2.54583">
        <ele>116.811</ele>
        <time>2018-12-12T09:14:26Z</time>
      </trkpt>
      <trkpt lat="48.73245" lon="2.54583">
        <ele>116.86</ele>
        <time>2018-12-12T09:14:28Z</time>
      </trkpt>
      <trkpt lat="48.7325" lon="2.54587">
        <ele>116.985</ele>
        <time>2018-12-12T09:14:33Z</time>
      </trkpt>
      <trkpt lat="48.73255" lon="2.5459">
        <ele>117.087</ele>
        <time>2018-12-12T09:14:37Z</time>
      </trkpt>
      <trkpt lat="48.73257" lon="2.54591">
        <ele>117.138</ele>
        <time>2018-12-12T09:14:39Z</time>
      </trkpt>
      <trkpt lat="48.73263" lon="2.54592">
        <ele>117.266</ele>
        <time>2018-12-12T09:14:44Z</time>
      </trkpt>
      <trkpt lat="48.73268" lon="2.54595">
        <ele>117.395</ele>
        <time>2018-12-12T09:14:49Z</time>
      </trkpt>
      <trkpt lat="48.73272" lon="2.54596">
        <ele>117.504</ele>
        <time>2018-12-12T09:14:53Z</time>
      </trkpt>
      <trkpt lat="48.73275" lon="2.54597">
        <ele>117.565</ele>
        <time>2018-12-12T09:14:55Z</time>
      </trkpt>
      <trkpt lat="48.7328" lon="2.54601">
        <ele>117.693</ele>
        <time>2018-12-12T09:14:59Z</time>
      </trkpt>
      <trkpt lat="48.73282" lon="2.54602">
        <ele>117.757</ele>
        <time>2018-12-12T09:15:01Z</time>
      </trkpt>
      <trkpt lat="48.73287" lon="2.54607">
        <ele>117.954</ele>
        <time>2018-12-12T09:15:07Z</time>
      </trkpt>
      <trkpt lat="48.73292" lon="2.54609">
        <ele>118.091</ele>
        <time>2018-12-12T09:15:11Z</time>
      </trkpt>
      <trkpt lat="48.73297" lon="2.54611">
        <ele>118.231</ele>
        <time>2018-12-12T09:15:15Z</time>
      </trkpt>
      <trkpt lat="48.733" lon="2.54612">
        <ele>118.303</ele>
        <time>2018-12-12T09:15:17Z</time>
      </trkpt>
      <trkpt lat="48.73304" lon="2.54614">
        <ele>118.452</ele>
        <time>2018-12-12T09:15:21Z</time>
      </trkpt>
      <trkpt lat="48.73309" lon="2.54617">
        <ele>118.598</ele>
        <time>2018-12-12T09:15:25Z</time>
      </trkpt>
      <trkpt lat="48.73312" lon="2.54619">
        <ele>118.67</ele>
        <time>2018-12-12T09:15:27Z</time>
      </trkpt>
      <trkpt lat="48.73316" lon="2.54625">
        <ele>118.846</ele>
        <time>2018-12-12T09:15:32Z</time>
      </trkpt>
      <trkpt lat="48.73321" lon="2.54629">
        <ele>119.013</ele>
        <time>2018-12-12T09:15:37Z</time>
      </trkpt>
      <trkpt lat="48.73326" lon="2.54632">
        <ele>119.175</ele>
        <time>2018-12-12T09:15:42Z</time>
      </trkpt>
      <trkpt lat="48.73329" lon="2.54634">
        <ele>119.271</ele>
        <time>2018-12-12T09:15:45Z</time>
      </trkpt>
      <trkpt lat="48.73333" lon="2.54636">
        <ele>119.399</ele>
        <time>2018-12-12T09:15:49Z</time>
      </trkpt>
      <trkpt lat="48.73338" lon="2.54639">
        <ele>119.559</ele>
        <time>2018-12-12T09:15:54Z</time>
      </trkpt>
      <trkpt lat="48.73341" lon="2.54641">
        <ele>119.655</ele>
        <time>2018-12-12T09:15:57Z</time>
      </trkpt>
      <trkpt lat="48.73344" lon="2.54642">
        <ele>119.719</ele>
        <time>2018-12-12T09:15:59Z</time>
      </trkpt>
      <trkpt lat="48.73347" lon="2.54644">
        <ele>119.781</ele>
        <time>2018-12-12T09:16:01Z</time>
      </trkpt>
      <trkpt lat="48.73351" lon="2.54647">
        <ele>119.908</ele>
        <time>2018-12-12T09:16:05Z</time>
      </trkpt>
      <trkpt lat="48.73356" lon="2.54651">
        <ele>120.07</ele>
        <time>2018-12-12T09:16:10Z</time>
      </trkpt>
      <trkpt lat="48.73359" lon="2.54654">
        <ele>120.294</ele>
        <time>2018-12-12T09:16:17Z</time>
      </trkpt>
      <trkpt lat="48.73364" lon="2.54656">
        <ele>120.428</ele>
        <time>2018-12-12T09:16:21Z</time>
      </trkpt>
      <trkpt lat="48.73366" lon="2.54657">
        <ele>120.53</ele>
        <time>2018-12-12T09:16:24Z</time>
      </trkpt>
      <trkpt lat="48.73371" lon="2.5466">
        <ele>120.706</ele>
        <time>2018-12-12T09:16:29Z</time>
      </trkpt>
      <trkpt lat="48.73374" lon="2.54663">
        <ele>120.817</ele>
        <time>2018-12-12T09:16:32Z</time>
      </trkpt>
      <trkpt lat="48.73377" lon="2.54665">
        <ele>121.007</ele>
        <time>2018-12-12T09:16:37Z</time>
      </trkpt>
      <trkpt lat="48.7338" lon="2.54666">
        <ele>121.086</ele>
        <time>2018-12-12T09:16:39Z</time>
      </trkpt>
      <trkpt lat="48.73383" lon="2.54668">
        <ele>121.206</ele>
        <time>2018-12-12T09:16:42Z</time>
      </trkpt>
      <trkpt lat="48.73386" lon="2.5467">
        <ele>121.327</ele>
        <time>2018-12-12T09:16:45Z</time>
      </trkpt>
      <trkpt lat="48.73388" lon="2.54672">
        <ele>121.408</ele>
        <time>2018-12-12T09:16:47Z</time>
      </trkpt>
      <trkpt lat="48.73391" lon="2.54674">
        <ele>121.489</ele>
        <time>2018-12-12T09:16:49Z</time>
      </trkpt>
      <trkpt lat="48.73396" lon="2.54679">
        <ele>121.655</ele>
        <time>2018-12-12T09:16:53Z</time>
      </trkpt>
      <trkpt lat="48.734" lon="2.54682">
        <ele>121.779</ele>
        <time>2018-12-12T09:16:56Z</time>
      </trkpt>
      <trkpt lat="48.73405" lon="2.54686">
        <ele>121.941</ele>
        <time>2018-12-12T09:17:00Z</time>
      </trkpt>
      <trkpt lat="48.73409" lon="2.54692">
        <ele>122.139</ele>
        <time>2018-12-12T09:17:05Z</time>
      </trkpt>
      <trkpt lat="48.7341" lon="2.54694">
        <ele>122.219</ele>
        <time>2018-12-12T09:17:07Z</time>
      </trkpt>
      <trkpt lat="48.73412" lon="2.54697">
        <ele>122.34</ele>
        <time>2018-12-12T09:17:10Z</time>
      </trkpt>
      <trkpt lat="48.73415" lon="2.54703">
        <ele>122.506</ele>
        <time>2018-12-12T09:17:14Z</time>
      </trkpt>
      <trkpt lat="48.73417" lon="2.54706">
        <ele>122.591</ele>
        <time>2018-12-12T09:17:16Z</time>
      </trkpt>
      <trkpt lat="48.73421" lon="2.54711">
        <ele>122.803</ele>
        <time>2018-12-12T09:17:21Z</time>
      </trkpt>
      <trkpt lat="48.73423" lon="2.54714">
        <ele>122.889</ele>
        <time>2018-12-12T09:17:23Z</time>
      </trkpt>
      <trkpt lat="48.73425" lon="2.54717">
        <ele>122.974</ele>
        <time>2018-12-12T09:17:25Z</time>
      </trkpt>
      <trkpt lat="48.73427" lon="2.54722">
        <ele>123.137</ele>
        <time>2018-12-12T09:17:29Z</time>
      </trkpt>
      <trkpt lat="48.73429" lon="2.54726">
        <ele>123.215</ele>
        <time>2018-12-12T09:17:31Z</time>
      </trkpt>
      <trkpt lat="48.73431" lon="2.54732">
        <ele>123.369</ele>
        <time>2018-12-12T09:17:35Z</time>
      </trkpt>
      <trkpt lat="48.73434" lon="2.54737">
        <ele>123.522</ele>
        <time>2018-12-12T09:17:39Z</time>
      </trkpt>
      <trkpt lat="48.73436" lon="2.54744">
        <ele>123.675</ele>
        <time>2018-12-12T09:17:43Z</time>
      </trkpt>
      <trkpt lat="48.73441" lon="2.54749">
        <ele>123.865</ele>
        <time>2018-12-12T09:17:48Z</time>
      </trkpt>
      <trkpt lat="48.73444" lon="2.54757">
        <ele>124.052</ele>
        <time>2018-12-12T09:17:53Z</time>
      </trkpt>
      <trkpt lat="48.73447" lon="2.54764">
        <ele>124.164</ele>
        <time>2018-12-12T09:17:56Z</time>
      </trkpt>
      <trkpt lat="48.73448" lon="2.54767">
        <ele>124.24</ele>
        <time>2018-12-12T09:17:58Z</time>
      </trkpt>
      <trkpt lat="48.7345" lon="2.54775">
        <ele>124.395</ele>
        <time>2018-12-12T09:18:02Z</time>
      </trkpt>
      <trkpt lat="48.73451" lon="2.54778">
        <ele>124.472</ele>
        <time>2018-12-12T09:18:04Z</time>
      </trkpt>
      <trkpt lat="48.73454" lon="2.54784">
        <ele>124.628</ele>
        <time>2018-12-12T09:18:08Z</time>
      </trkpt>
      <trkpt lat="48.73456" lon="2.54791">
        <ele>124.787</ele>
        <time>2018-12-12T09:18:12Z</time>
      </trkpt>
      <trkpt lat="48.73457" lon="2.54794">
        <ele>124.867</ele>
        <time>2018-12-12T09:18:14Z</time>
      </trkpt>
      <trkpt lat="48.73459" lon="2.54799">
        <ele>124.986</ele>
        <time>2018-12-12T09:18:17Z</time>
      </trkpt>
      <trkpt lat="48.7346" lon="2.54802">
        <ele>125.066</ele>
        <time>2018-12-12T09:18:19Z</time>
      </trkpt>
      <trkpt lat="48.73461" lon="2.5481">
        <ele>125.226</ele>
        <time>2018-12-12T09:18:23Z</time>
      </trkpt>
      <trkpt lat="48.73463" lon="2.54817">
        <ele>125.424</ele>
        <time>2018-12-12T09:18:28Z</time>
      </trkpt>
      <trkpt lat="48.73464" lon="2.54821">
        <ele>125.502</ele>
        <time>2018-12-12T09:18:30Z</time>
      </trkpt>
      <trkpt lat="48.73465" lon="2.54824">
        <ele>125.581</ele>
        <time>2018-12-12T09:18:32Z</time>
      </trkpt>
      <trkpt lat="48.73468" lon="2.54831">
        <ele>125.739</ele>
        <time>2018-12-12T09:18:36Z</time>
      </trkpt>
      <trkpt lat="48.73469" lon="2.54834">
        <ele>125.817</ele>
        <time>2018-12-12T09:18:38Z</time>
      </trkpt>
      <trkpt lat="48.73471" lon="2.54838">
        <ele>125.895</ele>
        <time>2018-12-12T09:18:40Z</time>
      </trkpt>
      <trkpt lat="48.73472" lon="2.54842">
        <ele>125.972</ele>
        <time>2018-12-12T09:18:42Z</time>
      </trkpt>
      <trkpt lat="48.73474" lon="2.54849">
        <ele>126.121</ele>
        <time>2018-12-12T09:18:46Z</time>
      </trkpt>
      <trkpt lat="48.73475" lon="2.54853">
        <ele>126.23</ele>
        <time>2018-12-12T09:18:49Z</time>
      </trkpt>
      <trkpt lat="48.73477" lon="2.54861">
        <ele>126.405</ele>
        <time>2018-12-12T09:18:54Z</time>
      </trkpt>
      <trkpt lat="48.73478" lon="2.54864">
        <ele>126.47</ele>
        <time>2018-12-12T09:18:56Z</time>
      </trkpt>
      <trkpt lat="48.73479" lon="2.54868">
        <ele>126.534</ele>
        <time>2018-12-12T09:18:58Z</time>
      </trkpt>
      <trkpt lat="48.7348" lon="2.54872">
        <ele>126.597</ele>
        <time>2018-12-12T09:19:00Z</time>
      </trkpt>
      <trkpt lat="48.73482" lon="2.54876">
        <ele>126.657</ele>
        <time>2018-12-12T09:19:02Z</time>
      </trkpt>
      <trkpt lat="48.73483" lon="2.54879">
        <ele>126.717</ele>
        <time>2018-12-12T09:19:04Z</time>
      </trkpt>
      <trkpt lat="48.73485" lon="2.54883">
        <ele>126.803</ele>
        <time>2018-12-12T09:19:07Z</time>
      </trkpt>
      <trkpt lat="48.73486" lon="2.54886">
        <ele>126.859</ele>
        <time>2018-12-12T09:19:09Z</time>
      </trkpt>
      <trkpt lat="48.73487" lon="2.54889">
        <ele>126.914</ele>
        <time>2018-12-12T09:19:11Z</time>
      </trkpt>
      <trkpt lat="48.73489" lon="2.54894">
        <ele>126.995</ele>
        <time>2018-12-12T09:19:14Z</time>
      </trkpt>
      <trkpt lat="48.7349" lon="2.54897">
        <ele>127.076</ele>
        <time>2018-12-12T09:19:17Z</time>
      </trkpt>
      <trkpt lat="48.73492" lon="2.54903">
        <ele>127.183</ele>
        <time>2018-12-12T09:19:21Z</time>
      </trkpt>
      <trkpt lat="48.73494" lon="2.54907">
        <ele>127.235</ele>
        <time>2018-12-12T09:19:23Z</time>
      </trkpt>
      <trkpt lat="48.73495" lon="2.5491">
        <ele>127.288</ele>
        <time>2018-12-12T09:19:25Z</time>
      </trkpt>
      <trkpt lat="48.73496" lon="2.54913">
        <ele>127.34</ele>
        <time>2018-12-12T09:19:27Z</time>
      </trkpt>
      <trkpt lat="48.73497" lon="2.54918">
        <ele>127.392</ele>
        <time>2018-12-12T09:19:29Z</time>
      </trkpt>
      <trkpt lat="48.73499" lon="2.54924">
        <ele>127.472</ele>
        <time>2018-12-12T09:19:32Z</time>
      </trkpt>
      <trkpt lat="48.735" lon="2.54928">
        <ele>127.527</ele>
        <time>2018-12-12T09:19:34Z</time>
      </trkpt>
      <trkpt lat="48.73501" lon="2.54934">
        <ele>127.613</ele>
        <time>2018-12-12T09:19:37Z</time>
      </trkpt>
      <trkpt lat="48.73503" lon="2.5494">
        <ele>127.731</ele>
        <time>2018-12-12T09:19:41Z</time>
      </trkpt>
      <trkpt lat="48.73505" lon="2.54947">
        <ele>127.881</ele>
        <time>2018-12-12T09:19:46Z</time>
      </trkpt>
      <trkpt lat="48.73507" lon="2.54951">
        <ele>127.97</ele>
        <time>2018-12-12T09:19:49Z</time>
      </trkpt>
      <trkpt lat="48.7351" lon="2.54958">
        <ele>128.09</ele>
        <time>2018-12-12T09:19:53Z</time>
      </trkpt>
      <trkpt lat="48.73511" lon="2.54964">
        <ele>128.213</ele>
        <time>2018-12-12T09:19:57Z</time>
      </trkpt>
      <trkpt lat="48.73512" lon="2.54968">
        <ele>128.306</ele>
        <time>2018-12-12T09:20:00Z</time>
      </trkpt>
      <trkpt lat="48.73512" lon="2.54972">
        <ele>128.397</ele>
        <time>2018-12-12T09:20:03Z</time>
      </trkpt>
      <trkpt lat="48.73513" lon="2.54975">
        <ele>128.456</ele>
        <time>2018-12-12T09:20:05Z</time>
      </trkpt>
      <trkpt lat="48.73513" lon="2.5498">
        <ele>128.542</ele>
        <time>2018-12-12T09:20:08Z</time>
      </trkpt>
      <trkpt lat="48.73513" lon="2.54984">
        <ele>128.625</ele>
        <time>2018-12-12T09:20:11Z</time>
      </trkpt>
      <trkpt lat="48.73517" lon="2.5499">
        <ele>128.708</ele>
        <time>2018-12-12T09:20:14Z</time>
      </trkpt>
      <trkpt lat="48.73521" lon="2.54997">
        <ele>128.79</ele>
        <time>2018-12-12T09:20:17Z</time>
      </trkpt>
      <trkpt lat="48.73523" lon="2.55005">
        <ele>128.895</ele>
        <time>2018-12-12T09:20:21Z</time>
      </trkpt>
      <trkpt lat="48.73524" lon="2.55008">
        <ele>128.945</ele>
        <time>2018-12-12T09:20:23Z</time>
      </trkpt>
      <trkpt lat="48.73526" lon="2.55015">
        <ele>129.094</ele>
        <time>2018-12-12T09:20:29Z</time>
      </trkpt>
      <trkpt lat="48.73529" lon="2.55025">
        <ele>129.24</ele>
        <time>2018-12-12T09:20:35Z</time>
      </trkpt>
      <trkpt lat="48.7353" lon="2.55028">
        <ele>129.286</ele>
        <time>2018-12-12T09:20:37Z</time>
      </trkpt>
      <trkpt lat="48.73531" lon="2.55036">
        <ele>129.375</ele>
        <time>2018-12-12T09:20:41Z</time>
      </trkpt>
      <trkpt lat="48.73531" lon="2.5504">
        <ele>129.441</ele>
        <time>2018-12-12T09:20:44Z</time>
      </trkpt>
      <trkpt lat="48.73532" lon="2.55044">
        <ele>129.557</ele>
        <time>2018-12-12T09:20:52Z</time>
      </trkpt>
      <trkpt lat="48.73533" lon="2.55051">
        <ele>129.663</ele>
        <time>2018-12-12T09:20:57Z</time>
      </trkpt>
      <trkpt lat="48.73534" lon="2.55054">
        <ele>129.721</ele>
        <time>2018-12-12T09:21:00Z</time>
      </trkpt>
      <trkpt lat="48.73538" lon="2.5506">
        <ele>129.831</ele>
        <time>2018-12-12T09:21:06Z</time>
      </trkpt>
      <trkpt lat="48.7354" lon="2.55067">
        <ele>129.944</ele>
        <time>2018-12-12T09:21:12Z</time>
      </trkpt>
      <trkpt lat="48.7354" lon="2.55075">
        <ele>130.109</ele>
        <time>2018-12-12T09:21:20Z</time>
      </trkpt>
      <trkpt lat="48.73542" lon="2.55082">
        <ele>130.228</ele>
        <time>2018-12-12T09:21:26Z</time>
      </trkpt>
      <trkpt lat="48.73545" lon="2.55088">
        <ele>130.302</ele>
        <time>2018-12-12T09:21:30Z</time>
      </trkpt>
      <trkpt lat="48.7355" lon="2.55093">
        <ele>130.396</ele>
        <time>2018-12-12T09:21:35Z</time>
      </trkpt>
      <trkpt lat="48.73553" lon="2.551">
        <ele>130.502</ele>
        <time>2018-12-12T09:21:41Z</time>
      </trkpt>
      <trkpt lat="48.73554" lon="2.55103">
        <ele>130.552</ele>
        <time>2018-12-12T09:21:44Z</time>
      </trkpt>
      <trkpt lat="48.73555" lon="2.5511">
        <ele>130.646</ele>
        <time>2018-12-12T09:21:50Z</time>
      </trkpt>
      <trkpt lat="48.73555" lon="2.55117">
        <ele>130.703</ele>
        <time>2018-12-12T09:21:54Z</time>
      </trkpt>
      <trkpt lat="48.73559" lon="2.55122">
        <ele>130.784</ele>
        <time>2018-12-12T09:22:00Z</time>
      </trkpt>
      <trkpt lat="48.73562" lon="2.55126">
        <ele>130.825</ele>
        <time>2018-12-12T09:22:03Z</time>
      </trkpt>
      <trkpt lat="48.73565" lon="2.55131">
        <ele>130.866</ele>
        <time>2018-12-12T09:22:06Z</time>
      </trkpt>
      <trkpt lat="48.73572" lon="2.55134">
        <ele>130.923</ele>
        <time>2018-12-12T09:22:10Z</time>
      </trkpt>
      <trkpt lat="48.73577" lon="2.55136">
        <ele>130.969</ele>
        <time>2018-12-12T09:22:13Z</time>
      </trkpt>
      <trkpt lat="48.73581" lon="2.55141">
        <ele>131.034</ele>
        <time>2018-12-12T09:22:17Z</time>
      </trkpt>
      <trkpt lat="48.73584" lon="2.55145">
        <ele>131.102</ele>
        <time>2018-12-12T09:22:21Z</time>
      </trkpt>
      <trkpt lat="48.73586" lon="2.55148">
        <ele>131.153</ele>
        <time>2018-12-12T09:22:24Z</time>
      </trkpt>
      <trkpt lat="48.73589" lon="2.55151">
        <ele>131.202</ele>
        <time>2018-12-12T09:22:27Z</time>
      </trkpt>
      <trkpt lat="48.73593" lon="2.55154">
        <ele>131.27</ele>
        <time>2018-12-12T09:22:31Z</time>
      </trkpt>
      <trkpt lat="48.73595" lon="2.55155">
        <ele>131.305</ele>
        <time>2018-12-12T09:22:33Z</time>
      </trkpt>
      <trkpt lat="48.73599" lon="2.55161">
        <ele>131.39</ele>
        <time>2018-12-12T09:22:38Z</time>
      </trkpt>
      <trkpt lat="48.73601" lon="2.55164">
        <ele>131.441</ele>
        <time>2018-12-12T09:22:41Z</time>
      </trkpt>
      <trkpt lat="48.73605" lon="2.5517">
        <ele>131.527</ele>
        <time>2018-12-12T09:22:46Z</time>
      </trkpt>
      <trkpt lat="48.73609" lon="2.55174">
        <ele>131.597</ele>
        <time>2018-12-12T09:22:50Z</time>
      </trkpt>
      <trkpt lat="48.73611" lon="2.55177">
        <ele>131.635</ele>
        <time>2018-12-12T09:22:52Z</time>
      </trkpt>
      <trkpt lat="48.73614" lon="2.55183">
        <ele>131.716</ele>
        <time>2018-12-12T09:22:56Z</time>
      </trkpt>
      <trkpt lat="48.73618" lon="2.55187">
        <ele>131.796</ele>
        <time>2018-12-12T09:23:00Z</time>
      </trkpt>
      <trkpt lat="48.73622" lon="2.55193">
        <ele>131.892</ele>
        <time>2018-12-12T09:23:05Z</time>
      </trkpt>
      <trkpt lat="48.73623" lon="2.55195">
        <ele>131.929</ele>
        <time>2018-12-12T09:23:07Z</time>
      </trkpt>
      <trkpt lat="48.73628" lon="2.55199">
        <ele>131.997</ele>
        <time>2018-12-12T09:23:11Z</time>
      </trkpt>
      <trkpt lat="48.73632" lon="2.55202">
        <ele>132.061</ele>
        <time>2018-12-12T09:23:15Z</time>
      </trkpt>
      <trkpt lat="48.73636" lon="2.55208">
        <ele>132.121</ele>
        <time>2018-12-12T09:23:19Z</time>
      </trkpt>
      <trkpt lat="48.73638" lon="2.5521">
        <ele>132.15</ele>
        <time>2018-12-12T09:23:21Z</time>
      </trkpt>
      <trkpt lat="48.73642" lon="2.55215">
        <ele>132.222</ele>
        <time>2018-12-12T09:23:26Z</time>
      </trkpt>
      <trkpt lat="48.73647" lon="2.55221">
        <ele>132.293</ele>
        <time>2018-12-12T09:23:31Z</time>
      </trkpt>
      <trkpt lat="48.73648" lon="2.55223">
        <ele>132.32</ele>
        <time>2018-12-12T09:23:33Z</time>
      </trkpt>
      <trkpt lat="48.7365" lon="2.5523">
        <ele>132.378</ele>
        <time>2018-12-12T09:23:37Z</time>
      </trkpt>
      <trkpt lat="48.73654" lon="2.55235">
        <ele>132.451</ele>
        <time>2018-12-12T09:23:42Z</time>
      </trkpt>
      <trkpt lat="48.73657" lon="2.55237">
        <ele>132.48</ele>
        <time>2018-12-12T09:23:44Z</time>
      </trkpt>
      <trkpt lat="48.7366" lon="2.55243">
        <ele>132.55</ele>
        <time>2018-12-12T09:23:49Z</time>
      </trkpt>
      <trkpt lat="48.73665" lon="2.55249">
        <ele>132.62</ele>
        <time>2018-12-12T09:23:54Z</time>
      </trkpt>
      <trkpt lat="48.73668" lon="2.55255">
        <ele>132.676</ele>
        <time>2018-12-12T09:23:58Z</time>
      </trkpt>
      <trkpt lat="48.7367" lon="2.55258">
        <ele>132.718</ele>
        <time>2018-12-12T09:24:01Z</time>
      </trkpt>
      <trkpt lat="48.7367" lon="2.55258">
        <ele>93.9</ele>
        <time>2018-12-12T09:24:08Z</time>
      </trkpt>
      <trkpt lat="48.7367" lon="2.55258">
        <ele>93.9</ele>
        <time>2018-12-12T09:24:13Z</time>
      </trkpt>
      <trkpt lat="48.73675" lon="2.55272">
        <ele>132.881</ele>
        <time>2018-12-12T09:24:13Z</time>
      </trkpt>
      <trkpt lat="48.73677" lon="2.55276">
        <ele>132.909</ele>
        <time>2018-12-12T09:24:15Z</time>
      </trkpt>
      <trkpt lat="48.73678" lon="2.55279">
        <ele>132.939</ele>
        <time>2018-12-12T09:24:17Z</time>
      </trkpt>
      <trkpt lat="48.7368" lon="2.55284">
        <ele>132.999</ele>
        <time>2018-12-12T09:24:21Z</time>
      </trkpt>
      <trkpt lat="48.73684" lon="2.55291">
        <ele>133.097</ele>
        <time>2018-12-12T09:24:27Z</time>
      </trkpt>
      <trkpt lat="48.73687" lon="2.55297">
        <ele>133.169</ele>
        <time>2018-12-12T09:24:32Z</time>
      </trkpt>
      <trkpt lat="48.73688" lon="2.553">
        <ele>133.267</ele>
        <time>2018-12-12T09:24:37Z</time>
      </trkpt>
      <trkpt lat="48.73688" lon="2.553">
        <ele>93.4</ele>
        <time>2018-12-12T09:24:45Z</time>
      </trkpt>
      <trkpt lat="48.73688" lon="2.553">
        <ele>93.4</ele>
        <time>2018-12-12T09:39:09Z</time>
      </trkpt>
      <trkpt lat="48.73712" lon="2.55341">
        <ele>138.921</ele>
        <time>2018-12-12T09:39:09Z</time>
      </trkpt>
      <trkpt lat="48.73714" lon="2.55347">
        <ele>138.979</ele>
        <time>2018-12-12T09:39:16Z</time>
      </trkpt>
      <trkpt lat="48.73715" lon="2.55355">
        <ele>139.01</ele>
        <time>2018-12-12T09:39:20Z</time>
      </trkpt>
      <trkpt lat="48.73716" lon="2.55363">
        <ele>139.039</ele>
        <time>2018-12-12T09:39:24Z</time>
      </trkpt>
      <trkpt lat="48.73716" lon="2.55367">
        <ele>139.054</ele>
        <time>2018-12-12T09:39:26Z</time>
      </trkpt>
      <trkpt lat="48.73717" lon="2.55374">
        <ele>139.077</ele>
        <time>2018-12-12T09:39:29Z</time>
      </trkpt>
      <trkpt lat="48.73717" lon="2.55374">
        <ele>93.9</ele>
        <time>2018-12-12T09:39:36Z</time>
      </trkpt>
      <trkpt lat="48.73717" lon="2.55374">
        <ele>93.9</ele>
        <time>2018-12-12T09:40:24Z</time>
      </trkpt>
      <trkpt lat="48.73719" lon="2.55418">
        <ele>139.389</ele>
        <time>2018-12-12T09:40:24Z</time>
      </trkpt>
      <trkpt lat="48.73715" lon="2.55423">
        <ele>139.411</ele>
        <time>2018-12-12T09:40:29Z</time>
      </trkpt>
      <trkpt lat="48.7371" lon="2.55422">
        <ele>139.429</ele>
        <time>2018-12-12T09:40:33Z</time>
      </trkpt>
      <trkpt lat="48.73707" lon="2.55423">
        <ele>139.442</ele>
        <time>2018-12-12T09:40:36Z</time>
      </trkpt>
      <trkpt lat="48.73703" lon="2.55427">
        <ele>139.467</ele>
        <time>2018-12-12T09:40:42Z</time>
      </trkpt>
      <trkpt lat="48.73701" lon="2.55434">
        <ele>139.48</ele>
        <time>2018-12-12T09:40:45Z</time>
      </trkpt>
      <trkpt lat="48.737" lon="2.55442">
        <ele>139.492</ele>
        <time>2018-12-12T09:40:48Z</time>
      </trkpt>
      <trkpt lat="48.73699" lon="2.55445">
        <ele>139.501</ele>
        <time>2018-12-12T09:40:50Z</time>
      </trkpt>
      <trkpt lat="48.737" lon="2.55453">
        <ele>139.527</ele>
        <time>2018-12-12T09:40:55Z</time>
      </trkpt>
      <trkpt lat="48.73701" lon="2.55458">
        <ele>139.55</ele>
        <time>2018-12-12T09:40:59Z</time>
      </trkpt>
      <trkpt lat="48.73702" lon="2.55465">
        <ele>139.577</ele>
        <time>2018-12-12T09:41:03Z</time>
      </trkpt>
      <trkpt lat="48.73706" lon="2.5547">
        <ele>139.625</ele>
        <time>2018-12-12T09:41:09Z</time>
      </trkpt>
      <trkpt lat="48.73711" lon="2.55472">
        <ele>139.67</ele>
        <time>2018-12-12T09:41:14Z</time>
      </trkpt>
      <trkpt lat="48.73717" lon="2.5547">
        <ele>139.707</ele>
        <time>2018-12-12T09:41:18Z</time>
      </trkpt>
      <trkpt lat="48.73722" lon="2.55467">
        <ele>139.734</ele>
        <time>2018-12-12T09:41:21Z</time>
      </trkpt>
      <trkpt lat="48.73724" lon="2.55465">
        <ele>139.752</ele>
        <time>2018-12-12T09:41:23Z</time>
      </trkpt>
      <trkpt lat="48.73727" lon="2.55463">
        <ele>139.769</ele>
        <time>2018-12-12T09:41:25Z</time>
      </trkpt>
      <trkpt lat="48.73729" lon="2.55461">
        <ele>139.786</ele>
        <time>2018-12-12T09:41:27Z</time>
      </trkpt>
      <trkpt lat="48.73731" lon="2.5546">
        <ele>139.809</ele>
        <time>2018-12-12T09:41:30Z</time>
      </trkpt>
      <trkpt lat="48.73736" lon="2.55459">
        <ele>139.837</ele>
        <time>2018-12-12T09:41:34Z</time>
      </trkpt>
      <trkpt lat="48.73741" lon="2.5546">
        <ele>139.865</ele>
        <time>2018-12-12T09:41:38Z</time>
      </trkpt>
      <trkpt lat="48.73746" lon="2.55459">
        <ele>139.885</ele>
        <time>2018-12-12T09:41:41Z</time>
      </trkpt>
      <trkpt lat="48.7375" lon="2.55458">
        <ele>139.905</ele>
        <time>2018-12-12T09:41:44Z</time>
      </trkpt>
      <trkpt lat="48.73755" lon="2.55458">
        <ele>139.932</ele>
        <time>2018-12-12T09:41:48Z</time>
      </trkpt>
      <trkpt lat="48.73761" lon="2.55459">
        <ele>139.958</ele>
        <time>2018-12-12T09:41:52Z</time>
      </trkpt>
      <trkpt lat="48.73763" lon="2.55459">
        <ele>139.971</ele>
        <time>2018-12-12T09:41:54Z</time>
      </trkpt>
      <trkpt lat="48.73767" lon="2.55459">
        <ele>140.009</ele>
        <time>2018-12-12T09:42:00Z</time>
      </trkpt>
      <trkpt lat="48.73772" lon="2.55461">
        <ele>140.035</ele>
        <time>2018-12-12T09:42:04Z</time>
      </trkpt>
      <trkpt lat="48.73777" lon="2.55461">
        <ele>140.062</ele>
        <time>2018-12-12T09:42:08Z</time>
      </trkpt>
      <trkpt lat="48.73782" lon="2.55463">
        <ele>140.093</ele>
        <time>2018-12-12T09:42:13Z</time>
      </trkpt>
      <trkpt lat="48.73787" lon="2.55463">
        <ele>140.112</ele>
        <time>2018-12-12T09:42:16Z</time>
      </trkpt>
      <trkpt lat="48.7379" lon="2.55465">
        <ele>140.126</ele>
        <time>2018-12-12T09:42:18Z</time>
      </trkpt>
      <trkpt lat="48.73794" lon="2.55465">
        <ele>140.14</ele>
        <time>2018-12-12T09:42:20Z</time>
      </trkpt>
      <trkpt lat="48.73797" lon="2.55466">
        <ele>140.154</ele>
        <time>2018-12-12T09:42:22Z</time>
      </trkpt>
      <trkpt lat="48.738" lon="2.55467">
        <ele>140.169</ele>
        <time>2018-12-12T09:42:24Z</time>
      </trkpt>
      <trkpt lat="48.73805" lon="2.55469">
        <ele>140.2</ele>
        <time>2018-12-12T09:42:28Z</time>
      </trkpt>
      <trkpt lat="48.73808" lon="2.5547">
        <ele>140.217</ele>
        <time>2018-12-12T09:42:30Z</time>
      </trkpt>
      <trkpt lat="48.73813" lon="2.55471">
        <ele>140.25</ele>
        <time>2018-12-12T09:42:34Z</time>
      </trkpt>
      <trkpt lat="48.73816" lon="2.55472">
        <ele>140.276</ele>
        <time>2018-12-12T09:42:37Z</time>
      </trkpt>
      <trkpt lat="48.73818" lon="2.55472">
        <ele>140.293</ele>
        <time>2018-12-12T09:42:39Z</time>
      </trkpt>
      <trkpt lat="48.73823" lon="2.55476">
        <ele>140.329</ele>
        <time>2018-12-12T09:42:43Z</time>
      </trkpt>
      <trkpt lat="48.73828" lon="2.5548">
        <ele>140.355</ele>
        <time>2018-12-12T09:42:46Z</time>
      </trkpt>
      <trkpt lat="48.73831" lon="2.55486">
        <ele>140.39</ele>
        <time>2018-12-12T09:42:50Z</time>
      </trkpt>
      <trkpt lat="48.73835" lon="2.55492">
        <ele>140.425</ele>
        <time>2018-12-12T09:42:54Z</time>
      </trkpt>
      <trkpt lat="48.73837" lon="2.55496">
        <ele>140.453</ele>
        <time>2018-12-12T09:42:57Z</time>
      </trkpt>
      <trkpt lat="48.73839" lon="2.55499">
        <ele>140.472</ele>
        <time>2018-12-12T09:42:59Z</time>
      </trkpt>
      <trkpt lat="48.73842" lon="2.55504">
        <ele>140.509</ele>
        <time>2018-12-12T09:43:03Z</time>
      </trkpt>
      <trkpt lat="48.73845" lon="2.55512">
        <ele>140.544</ele>
        <time>2018-12-12T09:43:07Z</time>
      </trkpt>
      <trkpt lat="48.73848" lon="2.55519">
        <ele>140.578</ele>
        <time>2018-12-12T09:43:11Z</time>
      </trkpt>
      <trkpt lat="48.73851" lon="2.55527">
        <ele>140.611</ele>
        <time>2018-12-12T09:43:15Z</time>
      </trkpt>
      <trkpt lat="48.73853" lon="2.55532">
        <ele>140.636</ele>
        <time>2018-12-12T09:43:18Z</time>
      </trkpt>
      <trkpt lat="48.73855" lon="2.55535">
        <ele>140.652</ele>
        <time>2018-12-12T09:43:20Z</time>
      </trkpt>
      <trkpt lat="48.73857" lon="2.55543">
        <ele>140.692</ele>
        <time>2018-12-12T09:43:25Z</time>
      </trkpt>
      <trkpt lat="48.73858" lon="2.55551">
        <ele>140.734</ele>
        <time>2018-12-12T09:43:30Z</time>
      </trkpt>
      <trkpt lat="48.73859" lon="2.55559">
        <ele>140.769</ele>
        <time>2018-12-12T09:43:34Z</time>
      </trkpt>
      <trkpt lat="48.73859" lon="2.55567">
        <ele>140.797</ele>
        <time>2018-12-12T09:43:37Z</time>
      </trkpt>
      <trkpt lat="48.73859" lon="2.55571">
        <ele>140.817</ele>
        <time>2018-12-12T09:43:39Z</time>
      </trkpt>
      <trkpt lat="48.73859" lon="2.55576">
        <ele>140.836</ele>
        <time>2018-12-12T09:43:41Z</time>
      </trkpt>
      <trkpt lat="48.73859" lon="2.55584">
        <ele>140.876</ele>
        <time>2018-12-12T09:43:45Z</time>
      </trkpt>
      <trkpt lat="48.73859" lon="2.55592">
        <ele>140.927</ele>
        <time>2018-12-12T09:43:50Z</time>
      </trkpt>
      <trkpt lat="48.73859" lon="2.556">
        <ele>140.97</ele>
        <time>2018-12-12T09:43:54Z</time>
      </trkpt>
      <trkpt lat="48.73859" lon="2.55604">
        <ele>140.993</ele>
        <time>2018-12-12T09:43:56Z</time>
      </trkpt>
      <trkpt lat="48.7386" lon="2.55611">
        <ele>141.039</ele>
        <time>2018-12-12T09:44:00Z</time>
      </trkpt>
      <trkpt lat="48.7386" lon="2.55618">
        <ele>141.091</ele>
        <time>2018-12-12T09:44:04Z</time>
      </trkpt>
      <trkpt lat="48.73859" lon="2.55625">
        <ele>141.144</ele>
        <time>2018-12-12T09:44:08Z</time>
      </trkpt>
      <trkpt lat="48.73859" lon="2.55629">
        <ele>141.18</ele>
        <time>2018-12-12T09:44:11Z</time>
      </trkpt>
      <trkpt lat="48.73859" lon="2.5564">
        <ele>141.216</ele>
        <time>2018-12-12T09:44:14Z</time>
      </trkpt>
      <trkpt lat="48.73861" lon="2.55648">
        <ele>141.263</ele>
        <time>2018-12-12T09:44:18Z</time>
      </trkpt>
      <trkpt lat="48.73859" lon="2.55656">
        <ele>141.32</ele>
        <time>2018-12-12T09:44:23Z</time>
      </trkpt>
      <trkpt lat="48.73859" lon="2.55659">
        <ele>141.331</ele>
        <time>2018-12-12T09:44:24Z</time>
      </trkpt>
      <trkpt lat="48.73859" lon="2.55667">
        <ele>141.374</ele>
        <time>2018-12-12T09:44:28Z</time>
      </trkpt>
      <trkpt lat="48.7386" lon="2.55676">
        <ele>141.413</ele>
        <time>2018-12-12T09:44:32Z</time>
      </trkpt>
      <trkpt lat="48.73861" lon="2.55679">
        <ele>141.433</ele>
        <time>2018-12-12T09:44:34Z</time>
      </trkpt>
      <trkpt lat="48.73862" lon="2.55687">
        <ele>141.472</ele>
        <time>2018-12-12T09:44:38Z</time>
      </trkpt>
      <trkpt lat="48.73863" lon="2.55691">
        <ele>141.492</ele>
        <time>2018-12-12T09:44:40Z</time>
      </trkpt>
      <trkpt lat="48.73866" lon="2.55697">
        <ele>141.522</ele>
        <time>2018-12-12T09:44:43Z</time>
      </trkpt>
      <trkpt lat="48.73868" lon="2.557">
        <ele>141.543</ele>
        <time>2018-12-12T09:44:45Z</time>
      </trkpt>
      <trkpt lat="48.7387" lon="2.55704">
        <ele>141.563</ele>
        <time>2018-12-12T09:44:47Z</time>
      </trkpt>
      <trkpt lat="48.73871" lon="2.55707">
        <ele>141.593</ele>
        <time>2018-12-12T09:44:50Z</time>
      </trkpt>
      <trkpt lat="48.73874" lon="2.55714">
        <ele>141.63</ele>
        <time>2018-12-12T09:44:54Z</time>
      </trkpt>
      <trkpt lat="48.73875" lon="2.55719">
        <ele>141.657</ele>
        <time>2018-12-12T09:44:57Z</time>
      </trkpt>
      <trkpt lat="48.73876" lon="2.55722">
        <ele>141.675</ele>
        <time>2018-12-12T09:44:59Z</time>
      </trkpt>
      <trkpt lat="48.73878" lon="2.5573">
        <ele>141.71</ele>
        <time>2018-12-12T09:45:03Z</time>
      </trkpt>
      <trkpt lat="48.7388" lon="2.55736">
        <ele>141.751</ele>
        <time>2018-12-12T09:45:07Z</time>
      </trkpt>
      <trkpt lat="48.73881" lon="2.5574">
        <ele>141.773</ele>
        <time>2018-12-12T09:45:09Z</time>
      </trkpt>
      <trkpt lat="48.73882" lon="2.55745">
        <ele>141.796</ele>
        <time>2018-12-12T09:45:11Z</time>
      </trkpt>
      <trkpt lat="48.73882" lon="2.55748">
        <ele>141.819</ele>
        <time>2018-12-12T09:45:13Z</time>
      </trkpt>
      <trkpt lat="48.73884" lon="2.55754">
        <ele>141.857</ele>
        <time>2018-12-12T09:45:16Z</time>
      </trkpt>
      <trkpt lat="48.73884" lon="2.55757">
        <ele>141.883</ele>
        <time>2018-12-12T09:45:18Z</time>
      </trkpt>
      <trkpt lat="48.73885" lon="2.55761">
        <ele>141.91</ele>
        <time>2018-12-12T09:45:20Z</time>
      </trkpt>
      <trkpt lat="48.73887" lon="2.55767">
        <ele>141.951</ele>
        <time>2018-12-12T09:45:23Z</time>
      </trkpt>
      <trkpt lat="48.73888" lon="2.5577">
        <ele>141.979</ele>
        <time>2018-12-12T09:45:25Z</time>
      </trkpt>
      <trkpt lat="48.7389" lon="2.55776">
        <ele>142.02</ele>
        <time>2018-12-12T09:45:28Z</time>
      </trkpt>
      <trkpt lat="48.73893" lon="2.55783">
        <ele>142.072</ele>
        <time>2018-12-12T09:45:32Z</time>
      </trkpt>
      <trkpt lat="48.73895" lon="2.55788">
        <ele>142.097</ele>
        <time>2018-12-12T09:45:34Z</time>
      </trkpt>
      <trkpt lat="48.73897" lon="2.55792">
        <ele>142.123</ele>
        <time>2018-12-12T09:45:36Z</time>
      </trkpt>
      <trkpt lat="48.73899" lon="2.55796">
        <ele>142.148</ele>
        <time>2018-12-12T09:45:38Z</time>
      </trkpt>
      <trkpt lat="48.739" lon="2.558">
        <ele>142.174</ele>
        <time>2018-12-12T09:45:40Z</time>
      </trkpt>
      <trkpt lat="48.73902" lon="2.55804">
        <ele>142.198</ele>
        <time>2018-12-12T09:45:42Z</time>
      </trkpt>
      <trkpt lat="48.73904" lon="2.55807">
        <ele>142.22</ele>
        <time>2018-12-12T09:45:44Z</time>
      </trkpt>
      <trkpt lat="48.73906" lon="2.55814">
        <ele>142.266</ele>
        <time>2018-12-12T09:45:48Z</time>
      </trkpt>
      <trkpt lat="48.73909" lon="2.5582">
        <ele>142.311</ele>
        <time>2018-12-12T09:45:52Z</time>
      </trkpt>
      <trkpt lat="48.73911" lon="2.55824">
        <ele>142.331</ele>
        <time>2018-12-12T09:45:54Z</time>
      </trkpt>
      <trkpt lat="48.73913" lon="2.55827">
        <ele>142.352</ele>
        <time>2018-12-12T09:45:56Z</time>
      </trkpt>
      <trkpt lat="48.73915" lon="2.55831">
        <ele>142.383</ele>
        <time>2018-12-12T09:45:59Z</time>
      </trkpt>
      <trkpt lat="48.73917" lon="2.55838">
        <ele>142.425</ele>
        <time>2018-12-12T09:46:03Z</time>
      </trkpt>
      <trkpt lat="48.73919" lon="2.55845">
        <ele>142.467</ele>
        <time>2018-12-12T09:46:07Z</time>
      </trkpt>
      <trkpt lat="48.7392" lon="2.55848">
        <ele>142.488</ele>
        <time>2018-12-12T09:46:09Z</time>
      </trkpt>
      <trkpt lat="48.73921" lon="2.55852">
        <ele>142.508</ele>
        <time>2018-12-12T09:46:11Z</time>
      </trkpt>
      <trkpt lat="48.73923" lon="2.55855">
        <ele>142.528</ele>
        <time>2018-12-12T09:46:13Z</time>
      </trkpt>
      <trkpt lat="48.73926" lon="2.55861">
        <ele>142.565</ele>
        <time>2018-12-12T09:46:17Z</time>
      </trkpt>
      <trkpt lat="48.7393" lon="2.55868">
        <ele>142.6</ele>
        <time>2018-12-12T09:46:21Z</time>
      </trkpt>
      <trkpt lat="48.73934" lon="2.55871">
        <ele>142.633</ele>
        <time>2018-12-12T09:46:25Z</time>
      </trkpt>
      <trkpt lat="48.73939" lon="2.55874">
        <ele>142.663</ele>
        <time>2018-12-12T09:46:29Z</time>
      </trkpt>
      <trkpt lat="48.73942" lon="2.55876">
        <ele>142.677</ele>
        <time>2018-12-12T09:46:31Z</time>
      </trkpt>
      <trkpt lat="48.73947" lon="2.55877">
        <ele>142.705</ele>
        <time>2018-12-12T09:46:35Z</time>
      </trkpt>
      <trkpt lat="48.73949" lon="2.55878">
        <ele>142.719</ele>
        <time>2018-12-12T09:46:37Z</time>
      </trkpt>
      <trkpt lat="48.73952" lon="2.55878">
        <ele>142.732</ele>
        <time>2018-12-12T09:46:39Z</time>
      </trkpt>
      <trkpt lat="48.73954" lon="2.55878">
        <ele>142.745</ele>
        <time>2018-12-12T09:46:41Z</time>
      </trkpt>
      <trkpt lat="48.73958" lon="2.55879">
        <ele>142.758</ele>
        <time>2018-12-12T09:46:43Z</time>
      </trkpt>
      <trkpt lat="48.73963" lon="2.55879">
        <ele>142.776</ele>
        <time>2018-12-12T09:46:46Z</time>
      </trkpt>
      <trkpt lat="48.73968" lon="2.55881">
        <ele>142.803</ele>
        <time>2018-12-12T09:46:51Z</time>
      </trkpt>
      <trkpt lat="48.73972" lon="2.55881">
        <ele>142.819</ele>
        <time>2018-12-12T09:46:54Z</time>
      </trkpt>
      <trkpt lat="48.73976" lon="2.55882">
        <ele>142.84</ele>
        <time>2018-12-12T09:46:58Z</time>
      </trkpt>
      <trkpt lat="48.73981" lon="2.55881">
        <ele>142.872</ele>
        <time>2018-12-12T09:47:04Z</time>
      </trkpt>
      <trkpt lat="48.73984" lon="2.5588">
        <ele>142.884</ele>
        <time>2018-12-12T09:47:06Z</time>
      </trkpt>
      <trkpt lat="48.73986" lon="2.55879">
        <ele>142.902</ele>
        <time>2018-12-12T09:47:09Z</time>
      </trkpt>
      <trkpt lat="48.73991" lon="2.55879">
        <ele>142.926</ele>
        <time>2018-12-12T09:47:13Z</time>
      </trkpt>
      <trkpt lat="48.73997" lon="2.55879">
        <ele>142.945</ele>
        <time>2018-12-12T09:47:16Z</time>
      </trkpt>
      <trkpt lat="48.74" lon="2.55879">
        <ele>142.957</ele>
        <time>2018-12-12T09:47:18Z</time>
      </trkpt>
      <trkpt lat="48.74005" lon="2.55879">
        <ele>142.975</ele>
        <time>2018-12-12T09:47:21Z</time>
      </trkpt>
      <trkpt lat="48.7401" lon="2.55879">
        <ele>142.995</ele>
        <time>2018-12-12T09:47:24Z</time>
      </trkpt>
      <trkpt lat="48.74016" lon="2.55879">
        <ele>143.02</ele>
        <time>2018-12-12T09:47:28Z</time>
      </trkpt>
      <trkpt lat="48.74018" lon="2.5588">
        <ele>143.033</ele>
        <time>2018-12-12T09:47:30Z</time>
      </trkpt>
      <trkpt lat="48.74022" lon="2.5588">
        <ele>143.046</ele>
        <time>2018-12-12T09:47:32Z</time>
      </trkpt>
      <trkpt lat="48.74026" lon="2.55881">
        <ele>143.072</ele>
        <time>2018-12-12T09:47:36Z</time>
      </trkpt>
      <trkpt lat="48.74029" lon="2.55881">
        <ele>143.092</ele>
        <time>2018-12-12T09:47:39Z</time>
      </trkpt>
      <trkpt lat="48.74034" lon="2.55881">
        <ele>143.113</ele>
        <time>2018-12-12T09:47:42Z</time>
      </trkpt>
      <trkpt lat="48.74039" lon="2.55882">
        <ele>143.133</ele>
        <time>2018-12-12T09:47:45Z</time>
      </trkpt>
      <trkpt lat="48.74043" lon="2.55882">
        <ele>143.153</ele>
        <time>2018-12-12T09:47:48Z</time>
      </trkpt>
      <trkpt lat="48.74045" lon="2.55882">
        <ele>143.172</ele>
        <time>2018-12-12T09:47:51Z</time>
      </trkpt>
      <trkpt lat="48.7405" lon="2.55883">
        <ele>143.196</ele>
        <time>2018-12-12T09:47:55Z</time>
      </trkpt>
      <trkpt lat="48.74054" lon="2.55883">
        <ele>143.208</ele>
        <time>2018-12-12T09:47:57Z</time>
      </trkpt>
      <trkpt lat="48.74058" lon="2.55884">
        <ele>143.227</ele>
        <time>2018-12-12T09:48:00Z</time>
      </trkpt>
      <trkpt lat="48.74064" lon="2.55884">
        <ele>143.257</ele>
        <time>2018-12-12T09:48:04Z</time>
      </trkpt>
      <trkpt lat="48.74068" lon="2.55884">
        <ele>143.28</ele>
        <time>2018-12-12T09:48:07Z</time>
      </trkpt>
      <trkpt lat="48.74074" lon="2.55886">
        <ele>143.322</ele>
        <time>2018-12-12T09:48:12Z</time>
      </trkpt>
      <trkpt lat="48.74077" lon="2.55888">
        <ele>143.338</ele>
        <time>2018-12-12T09:48:14Z</time>
      </trkpt>
      <trkpt lat="48.74081" lon="2.55892">
        <ele>143.37</ele>
        <time>2018-12-12T09:48:18Z</time>
      </trkpt>
      <trkpt lat="48.74083" lon="2.55899">
        <ele>143.404</ele>
        <time>2018-12-12T09:48:22Z</time>
      </trkpt>
      <trkpt lat="48.74088" lon="2.55904">
        <ele>143.43</ele>
        <time>2018-12-12T09:48:25Z</time>
      </trkpt>
      <trkpt lat="48.74091" lon="2.55908">
        <ele>143.448</ele>
        <time>2018-12-12T09:48:27Z</time>
      </trkpt>
      <trkpt lat="48.74094" lon="2.55913">
        <ele>143.492</ele>
        <time>2018-12-12T09:48:32Z</time>
      </trkpt>
      <trkpt lat="48.74099" lon="2.55916">
        <ele>143.519</ele>
        <time>2018-12-12T09:48:35Z</time>
      </trkpt>
      <trkpt lat="48.74104" lon="2.55918">
        <ele>143.558</ele>
        <time>2018-12-12T09:48:39Z</time>
      </trkpt>
      <trkpt lat="48.74109" lon="2.55918">
        <ele>143.598</ele>
        <time>2018-12-12T09:48:43Z</time>
      </trkpt>
      <trkpt lat="48.74115" lon="2.55918">
        <ele>143.64</ele>
        <time>2018-12-12T09:48:47Z</time>
      </trkpt>
      <trkpt lat="48.74118" lon="2.55917">
        <ele>143.662</ele>
        <time>2018-12-12T09:48:49Z</time>
      </trkpt>
      <trkpt lat="48.7412" lon="2.55917">
        <ele>143.684</ele>
        <time>2018-12-12T09:48:51Z</time>
      </trkpt>
      <trkpt lat="48.74125" lon="2.55916">
        <ele>143.73</ele>
        <time>2018-12-12T09:48:55Z</time>
      </trkpt>
      <trkpt lat="48.74128" lon="2.55915">
        <ele>143.753</ele>
        <time>2018-12-12T09:48:57Z</time>
      </trkpt>
      <trkpt lat="48.74131" lon="2.55914">
        <ele>143.778</ele>
        <time>2018-12-12T09:48:59Z</time>
      </trkpt>
      <trkpt lat="48.74136" lon="2.55913">
        <ele>143.824</ele>
        <time>2018-12-12T09:49:03Z</time>
      </trkpt>
      <trkpt lat="48.74141" lon="2.55911">
        <ele>143.87</ele>
        <time>2018-12-12T09:49:07Z</time>
      </trkpt>
      <trkpt lat="48.74147" lon="2.5591">
        <ele>143.916</ele>
        <time>2018-12-12T09:49:11Z</time>
      </trkpt>
      <trkpt lat="48.7415" lon="2.55909">
        <ele>143.96</ele>
        <time>2018-12-12T09:49:15Z</time>
      </trkpt>
      <trkpt lat="48.74155" lon="2.55909">
        <ele>144.003</ele>
        <time>2018-12-12T09:49:19Z</time>
      </trkpt>
      <trkpt lat="48.74158" lon="2.55909">
        <ele>144.023</ele>
        <time>2018-12-12T09:49:21Z</time>
      </trkpt>
      <trkpt lat="48.74163" lon="2.55911">
        <ele>144.056</ele>
        <time>2018-12-12T09:49:24Z</time>
      </trkpt>
      <trkpt lat="48.74169" lon="2.55911">
        <ele>144.1</ele>
        <time>2018-12-12T09:49:28Z</time>
      </trkpt>
      <trkpt lat="48.74171" lon="2.55911">
        <ele>144.122</ele>
        <time>2018-12-12T09:49:30Z</time>
      </trkpt>
      <trkpt lat="48.74176" lon="2.55912">
        <ele>144.168</ele>
        <time>2018-12-12T09:49:34Z</time>
      </trkpt>
      <trkpt lat="48.74179" lon="2.55913">
        <ele>144.191</ele>
        <time>2018-12-12T09:49:36Z</time>
      </trkpt>
      <trkpt lat="48.74181" lon="2.55913">
        <ele>144.214</ele>
        <time>2018-12-12T09:49:38Z</time>
      </trkpt>
      <trkpt lat="48.74186" lon="2.55913">
        <ele>144.249</ele>
        <time>2018-12-12T09:49:41Z</time>
      </trkpt>
      <trkpt lat="48.74191" lon="2.55915">
        <ele>144.305</ele>
        <time>2018-12-12T09:49:46Z</time>
      </trkpt>
      <trkpt lat="48.74194" lon="2.55915">
        <ele>144.339</ele>
        <time>2018-12-12T09:49:49Z</time>
      </trkpt>
      <trkpt lat="48.74197" lon="2.55916">
        <ele>144.373</ele>
        <time>2018-12-12T09:49:52Z</time>
      </trkpt>
      <trkpt lat="48.74201" lon="2.55917">
        <ele>144.398</ele>
        <time>2018-12-12T09:49:54Z</time>
      </trkpt>
      <trkpt lat="48.74206" lon="2.55914">
        <ele>144.448</ele>
        <time>2018-12-12T09:49:58Z</time>
      </trkpt>
      <trkpt lat="48.74209" lon="2.55913">
        <ele>144.473</ele>
        <time>2018-12-12T09:50:00Z</time>
      </trkpt>
      <trkpt lat="48.74211" lon="2.55912">
        <ele>144.497</ele>
        <time>2018-12-12T09:50:02Z</time>
      </trkpt>
      <trkpt lat="48.74214" lon="2.55911">
        <ele>144.533</ele>
        <time>2018-12-12T09:50:05Z</time>
      </trkpt>
      <trkpt lat="48.74219" lon="2.55913">
        <ele>144.581</ele>
        <time>2018-12-12T09:50:09Z</time>
      </trkpt>
      <trkpt lat="48.74222" lon="2.55913">
        <ele>144.604</ele>
        <time>2018-12-12T09:50:11Z</time>
      </trkpt>
      <trkpt lat="48.74227" lon="2.55913">
        <ele>144.651</ele>
        <time>2018-12-12T09:50:15Z</time>
      </trkpt>
      <trkpt lat="48.7423" lon="2.55912">
        <ele>144.674</ele>
        <time>2018-12-12T09:50:17Z</time>
      </trkpt>
      <trkpt lat="48.74232" lon="2.55912">
        <ele>144.697</ele>
        <time>2018-12-12T09:50:19Z</time>
      </trkpt>
      <trkpt lat="48.74235" lon="2.55911">
        <ele>144.732</ele>
        <time>2018-12-12T09:50:22Z</time>
      </trkpt>
      <trkpt lat="48.74237" lon="2.55911">
        <ele>144.755</ele>
        <time>2018-12-12T09:50:24Z</time>
      </trkpt>
      <trkpt lat="48.74239" lon="2.5591">
        <ele>144.777</ele>
        <time>2018-12-12T09:50:26Z</time>
      </trkpt>
      <trkpt lat="48.74242" lon="2.5591">
        <ele>144.8</ele>
        <time>2018-12-12T09:50:28Z</time>
      </trkpt>
      <trkpt lat="48.74246" lon="2.5591">
        <ele>144.833</ele>
        <time>2018-12-12T09:50:31Z</time>
      </trkpt>
      <trkpt lat="48.74249" lon="2.55911">
        <ele>144.866</ele>
        <time>2018-12-12T09:50:34Z</time>
      </trkpt>
      <trkpt lat="48.74255" lon="2.5591">
        <ele>144.921</ele>
        <time>2018-12-12T09:50:39Z</time>
      </trkpt>
      <trkpt lat="48.74257" lon="2.55909">
        <ele>144.943</ele>
        <time>2018-12-12T09:50:41Z</time>
      </trkpt>
      <trkpt lat="48.7426" lon="2.55909">
        <ele>144.965</ele>
        <time>2018-12-12T09:50:43Z</time>
      </trkpt>
      <trkpt lat="48.74263" lon="2.55909">
        <ele>144.987</ele>
        <time>2018-12-12T09:50:45Z</time>
      </trkpt>
      <trkpt lat="48.74266" lon="2.55909">
        <ele>145.017</ele>
        <time>2018-12-12T09:50:48Z</time>
      </trkpt>
      <trkpt lat="48.74271" lon="2.55904">
        <ele>145.068</ele>
        <time>2018-12-12T09:50:54Z</time>
      </trkpt>
      <trkpt lat="48.74276" lon="2.55903">
        <ele>145.084</ele>
        <time>2018-12-12T09:50:56Z</time>
      </trkpt>
      <trkpt lat="48.74281" lon="2.55901">
        <ele>145.106</ele>
        <time>2018-12-12T09:50:59Z</time>
      </trkpt>
      <trkpt lat="48.74285" lon="2.55898">
        <ele>145.132</ele>
        <time>2018-12-12T09:51:03Z</time>
      </trkpt>
      <trkpt lat="48.7429" lon="2.55893">
        <ele>145.148</ele>
        <time>2018-12-12T09:51:06Z</time>
      </trkpt>
      <trkpt lat="48.74295" lon="2.55891">
        <ele>145.172</ele>
        <time>2018-12-12T09:51:10Z</time>
      </trkpt>
      <trkpt lat="48.743" lon="2.55887">
        <ele>145.204</ele>
        <time>2018-12-12T09:51:15Z</time>
      </trkpt>
      <trkpt lat="48.74305" lon="2.55886">
        <ele>145.218</ele>
        <time>2018-12-12T09:51:17Z</time>
      </trkpt>
      <trkpt lat="48.74308" lon="2.55882">
        <ele>145.251</ele>
        <time>2018-12-12T09:51:22Z</time>
      </trkpt>
      <trkpt lat="48.74313" lon="2.5588">
        <ele>145.264</ele>
        <time>2018-12-12T09:51:24Z</time>
      </trkpt>
      <trkpt lat="48.74317" lon="2.55875">
        <ele>145.296</ele>
        <time>2018-12-12T09:51:29Z</time>
      </trkpt>
      <trkpt lat="48.74321" lon="2.55872">
        <ele>145.308</ele>
        <time>2018-12-12T09:51:31Z</time>
      </trkpt>
      <trkpt lat="48.74323" lon="2.5587">
        <ele>145.319</ele>
        <time>2018-12-12T09:51:33Z</time>
      </trkpt>
      <trkpt lat="48.74327" lon="2.55865">
        <ele>145.334</ele>
        <time>2018-12-12T09:51:36Z</time>
      </trkpt>
      <trkpt lat="48.74329" lon="2.55863">
        <ele>145.345</ele>
        <time>2018-12-12T09:51:38Z</time>
      </trkpt>
      <trkpt lat="48.74334" lon="2.55859">
        <ele>145.364</ele>
        <time>2018-12-12T09:51:42Z</time>
      </trkpt>
      <trkpt lat="48.74338" lon="2.55853">
        <ele>145.377</ele>
        <time>2018-12-12T09:51:45Z</time>
      </trkpt>
      <trkpt lat="48.74342" lon="2.55848">
        <ele>145.39</ele>
        <time>2018-12-12T09:51:49Z</time>
      </trkpt>
      <trkpt lat="48.74346" lon="2.55844">
        <ele>145.398</ele>
        <time>2018-12-12T09:51:53Z</time>
      </trkpt>
      <trkpt lat="48.7435" lon="2.55841">
        <ele>145.401</ele>
        <time>2018-12-12T09:51:59Z</time>
      </trkpt>
      <trkpt lat="48.74353" lon="2.55839">
        <ele>145.4</ele>
        <time>2018-12-12T09:52:02Z</time>
      </trkpt>
      <trkpt lat="48.74358" lon="2.55837">
        <ele>145.397</ele>
        <time>2018-12-12T09:52:06Z</time>
      </trkpt>
      <trkpt lat="48.74361" lon="2.55835">
        <ele>145.394</ele>
        <time>2018-12-12T09:52:09Z</time>
      </trkpt>
      <trkpt lat="48.74364" lon="2.55834">
        <ele>145.391</ele>
        <time>2018-12-12T09:52:11Z</time>
      </trkpt>
      <trkpt lat="48.74367" lon="2.55833">
        <ele>145.389</ele>
        <time>2018-12-12T09:52:12Z</time>
      </trkpt>
      <trkpt lat="48.74369" lon="2.55832">
        <ele>145.388</ele>
        <time>2018-12-12T09:52:13Z</time>
      </trkpt>
      <trkpt lat="48.74373" lon="2.55831">
        <ele>145.386</ele>
        <time>2018-12-12T09:52:15Z</time>
      </trkpt>
      <trkpt lat="48.74376" lon="2.5583">
        <ele>145.384</ele>
        <time>2018-12-12T09:52:17Z</time>
      </trkpt>
      <trkpt lat="48.74379" lon="2.55829">
        <ele>145.383</ele>
        <time>2018-12-12T09:52:19Z</time>
      </trkpt>
      <trkpt lat="48.74385" lon="2.55828">
        <ele>145.381</ele>
        <time>2018-12-12T09:52:23Z</time>
      </trkpt>
      <trkpt lat="48.74387" lon="2.55828">
        <ele>145.381</ele>
        <time>2018-12-12T09:52:25Z</time>
      </trkpt>
      <trkpt lat="48.7439" lon="2.55827">
        <ele>145.381</ele>
        <time>2018-12-12T09:52:27Z</time>
      </trkpt>
      <trkpt lat="48.74392" lon="2.55827">
        <ele>145.381</ele>
        <time>2018-12-12T09:52:29Z</time>
      </trkpt>
      <trkpt lat="48.74396" lon="2.55826">
        <ele>145.38</ele>
        <time>2018-12-12T09:52:31Z</time>
      </trkpt>
      <trkpt lat="48.744" lon="2.55825">
        <ele>145.38</ele>
        <time>2018-12-12T09:52:33Z</time>
      </trkpt>
      <trkpt lat="48.74403" lon="2.55825">
        <ele>145.38</ele>
        <time>2018-12-12T09:52:35Z</time>
      </trkpt>
      <trkpt lat="48.74408" lon="2.55825">
        <ele>145.379</ele>
        <time>2018-12-12T09:52:39Z</time>
      </trkpt>
      <trkpt lat="48.7441" lon="2.55825">
        <ele>145.379</ele>
        <time>2018-12-12T09:52:41Z</time>
      </trkpt>
      <trkpt lat="48.74415" lon="2.55825">
        <ele>145.379</ele>
        <time>2018-12-12T09:52:44Z</time>
      </trkpt>
      <trkpt lat="48.7442" lon="2.55826">
        <ele>145.379</ele>
        <time>2018-12-12T09:52:48Z</time>
      </trkpt>
      <trkpt lat="48.74424" lon="2.55828">
        <ele>145.38</ele>
        <time>2018-12-12T09:52:51Z</time>
      </trkpt>
      <trkpt lat="48.74428" lon="2.55829">
        <ele>145.38</ele>
        <time>2018-12-12T09:52:54Z</time>
      </trkpt>
      <trkpt lat="48.74432" lon="2.55833">
        <ele>145.382</ele>
        <time>2018-12-12T09:52:58Z</time>
      </trkpt>
      <trkpt lat="48.74435" lon="2.55835">
        <ele>145.384</ele>
        <time>2018-12-12T09:53:00Z</time>
      </trkpt>
      <trkpt lat="48.74437" lon="2.55837">
        <ele>145.387</ele>
        <time>2018-12-12T09:53:02Z</time>
      </trkpt>
      <trkpt lat="48.74441" lon="2.55843">
        <ele>145.395</ele>
        <time>2018-12-12T09:53:06Z</time>
      </trkpt>
      <trkpt lat="48.74446" lon="2.55846">
        <ele>145.406</ele>
        <time>2018-12-12T09:53:10Z</time>
      </trkpt>
      <trkpt lat="48.74449" lon="2.55848">
        <ele>145.413</ele>
        <time>2018-12-12T09:53:12Z</time>
      </trkpt>
      <trkpt lat="48.74453" lon="2.55851">
        <ele>145.425</ele>
        <time>2018-12-12T09:53:15Z</time>
      </trkpt>
      <trkpt lat="48.74457" lon="2.55855">
        <ele>145.441</ele>
        <time>2018-12-12T09:53:18Z</time>
      </trkpt>
      <trkpt lat="48.7446" lon="2.55857">
        <ele>145.455</ele>
        <time>2018-12-12T09:53:20Z</time>
      </trkpt>
      <trkpt lat="48.74464" lon="2.55861">
        <ele>145.483</ele>
        <time>2018-12-12T09:53:24Z</time>
      </trkpt>
      <trkpt lat="48.74467" lon="2.55863">
        <ele>145.499</ele>
        <time>2018-12-12T09:53:26Z</time>
      </trkpt>
      <trkpt lat="48.7447" lon="2.55868">
        <ele>145.532</ele>
        <time>2018-12-12T09:53:30Z</time>
      </trkpt>
      <trkpt lat="48.74473" lon="2.55871">
        <ele>145.551</ele>
        <time>2018-12-12T09:53:32Z</time>
      </trkpt>
      <trkpt lat="48.74475" lon="2.55876">
        <ele>145.58</ele>
        <time>2018-12-12T09:53:35Z</time>
      </trkpt>
      <trkpt lat="48.74477" lon="2.55879">
        <ele>145.599</ele>
        <time>2018-12-12T09:53:37Z</time>
      </trkpt>
      <trkpt lat="48.74479" lon="2.55882">
        <ele>145.617</ele>
        <time>2018-12-12T09:53:39Z</time>
      </trkpt>
      <trkpt lat="48.74481" lon="2.55885">
        <ele>145.634</ele>
        <time>2018-12-12T09:53:41Z</time>
      </trkpt>
      <trkpt lat="48.74485" lon="2.55888">
        <ele>145.661</ele>
        <time>2018-12-12T09:53:44Z</time>
      </trkpt>
      <trkpt lat="48.7449" lon="2.55894">
        <ele>145.698</ele>
        <time>2018-12-12T09:53:48Z</time>
      </trkpt>
      <trkpt lat="48.74494" lon="2.55899">
        <ele>145.737</ele>
        <time>2018-12-12T09:53:52Z</time>
      </trkpt>
      <trkpt lat="48.74496" lon="2.55903">
        <ele>145.767</ele>
        <time>2018-12-12T09:53:55Z</time>
      </trkpt>
      <trkpt lat="48.74498" lon="2.55906">
        <ele>145.787</ele>
        <time>2018-12-12T09:53:57Z</time>
      </trkpt>
      <trkpt lat="48.74501" lon="2.55911">
        <ele>145.822</ele>
        <time>2018-12-12T09:54:00Z</time>
      </trkpt>
      <trkpt lat="48.74506" lon="2.55916">
        <ele>145.871</ele>
        <time>2018-12-12T09:54:04Z</time>
      </trkpt>
      <trkpt lat="48.74509" lon="2.5592">
        <ele>145.923</ele>
        <time>2018-12-12T09:54:08Z</time>
      </trkpt>
      <trkpt lat="48.74513" lon="2.55924">
        <ele>145.976</ele>
        <time>2018-12-12T09:54:12Z</time>
      </trkpt>
      <trkpt lat="48.74516" lon="2.55927">
        <ele>146.001</ele>
        <time>2018-12-12T09:54:14Z</time>
      </trkpt>
      <trkpt lat="48.74518" lon="2.55929">
        <ele>146.026</ele>
        <time>2018-12-12T09:54:16Z</time>
      </trkpt>
      <trkpt lat="48.74522" lon="2.55933">
        <ele>146.073</ele>
        <time>2018-12-12T09:54:20Z</time>
      </trkpt>
      <trkpt lat="48.74526" lon="2.55938">
        <ele>146.14</ele>
        <time>2018-12-12T09:54:26Z</time>
      </trkpt>
      <trkpt lat="48.74528" lon="2.55941">
        <ele>146.188</ele>
        <time>2018-12-12T09:54:30Z</time>
      </trkpt>
      <trkpt lat="48.74533" lon="2.5594">
        <ele>146.253</ele>
        <time>2018-12-12T09:54:35Z</time>
      </trkpt>
      <trkpt lat="48.74538" lon="2.55936">
        <ele>146.308</ele>
        <time>2018-12-12T09:54:39Z</time>
      </trkpt>
      <trkpt lat="48.7454" lon="2.55933">
        <ele>146.335</ele>
        <time>2018-12-12T09:54:41Z</time>
      </trkpt>
      <trkpt lat="48.74543" lon="2.55927">
        <ele>146.386</ele>
        <time>2018-12-12T09:54:45Z</time>
      </trkpt>
      <trkpt lat="48.74546" lon="2.55922">
        <ele>146.42</ele>
        <time>2018-12-12T09:54:48Z</time>
      </trkpt>
      <trkpt lat="48.74548" lon="2.55918">
        <ele>146.442</ele>
        <time>2018-12-12T09:54:50Z</time>
      </trkpt>
      <trkpt lat="48.7455" lon="2.55915">
        <ele>146.464</ele>
        <time>2018-12-12T09:54:52Z</time>
      </trkpt>
      <trkpt lat="48.74551" lon="2.55909">
        <ele>146.512</ele>
        <time>2018-12-12T09:54:57Z</time>
      </trkpt>
      <trkpt lat="48.74553" lon="2.55905">
        <ele>146.54</ele>
        <time>2018-12-12T09:55:00Z</time>
      </trkpt>
      <trkpt lat="48.74556" lon="2.559">
        <ele>146.576</ele>
        <time>2018-12-12T09:55:04Z</time>
      </trkpt>
      <trkpt lat="48.74559" lon="2.55895">
        <ele>146.605</ele>
        <time>2018-12-12T09:55:07Z</time>
      </trkpt>
      <trkpt lat="48.74564" lon="2.55894">
        <ele>146.642</ele>
        <time>2018-12-12T09:55:11Z</time>
      </trkpt>
      <trkpt lat="48.74564" lon="2.55894">
        <ele>98</ele>
        <time>2018-12-12T09:55:19Z</time>
      </trkpt>
      <trkpt lat="48.74564" lon="2.55894">
        <ele>98</ele>
        <time>2018-12-12T09:55:25Z</time>
      </trkpt>
      <trkpt lat="48.74569" lon="2.55923">
        <ele>146.776</ele>
        <time>2018-12-12T09:55:27Z</time>
      </trkpt>
      <trkpt lat="48.7457" lon="2.55931">
        <ele>146.825</ele>
        <time>2018-12-12T09:55:33Z</time>
      </trkpt>
      <trkpt lat="48.74571" lon="2.55934">
        <ele>146.848</ele>
        <time>2018-12-12T09:55:36Z</time>
      </trkpt>
      <trkpt lat="48.74574" lon="2.55941">
        <ele>146.879</ele>
        <time>2018-12-12T09:55:40Z</time>
      </trkpt>
      <trkpt lat="48.74575" lon="2.55948">
        <ele>146.917</ele>
        <time>2018-12-12T09:55:45Z</time>
      </trkpt>
      <trkpt lat="48.74576" lon="2.55955">
        <ele>146.944</ele>
        <time>2018-12-12T09:55:49Z</time>
      </trkpt>
      <trkpt lat="48.74577" lon="2.55962">
        <ele>146.965</ele>
        <time>2018-12-12T09:55:52Z</time>
      </trkpt>
      <trkpt lat="48.74574" lon="2.55969">
        <ele>146.986</ele>
        <time>2018-12-12T09:55:55Z</time>
      </trkpt>
      <trkpt lat="48.74573" lon="2.55976">
        <ele>147.014</ele>
        <time>2018-12-12T09:55:59Z</time>
      </trkpt>
      <trkpt lat="48.74573" lon="2.55983">
        <ele>147.035</ele>
        <time>2018-12-12T09:56:02Z</time>
      </trkpt>
      <trkpt lat="48.74575" lon="2.55991">
        <ele>147.056</ele>
        <time>2018-12-12T09:56:05Z</time>
      </trkpt>
      <trkpt lat="48.74576" lon="2.55995">
        <ele>147.071</ele>
        <time>2018-12-12T09:56:07Z</time>
      </trkpt>
      <trkpt lat="48.74577" lon="2.56002">
        <ele>147.106</ele>
        <time>2018-12-12T09:56:12Z</time>
      </trkpt>
      <trkpt lat="48.74579" lon="2.5601">
        <ele>147.14</ele>
        <time>2018-12-12T09:56:17Z</time>
      </trkpt>
      <trkpt lat="48.74579" lon="2.56017">
        <ele>147.168</ele>
        <time>2018-12-12T09:56:21Z</time>
      </trkpt>
      <trkpt lat="48.7458" lon="2.56025">
        <ele>147.19</ele>
        <time>2018-12-12T09:56:24Z</time>
      </trkpt>
      <trkpt lat="48.74581" lon="2.56031">
        <ele>147.212</ele>
        <time>2018-12-12T09:56:27Z</time>
      </trkpt>
      <trkpt lat="48.74583" lon="2.56038">
        <ele>147.237</ele>
        <time>2018-12-12T09:56:30Z</time>
      </trkpt>
      <trkpt lat="48.74583" lon="2.56047">
        <ele>147.272</ele>
        <time>2018-12-12T09:56:34Z</time>
      </trkpt>
      <trkpt lat="48.74585" lon="2.56054">
        <ele>147.31</ele>
        <time>2018-12-12T09:56:38Z</time>
      </trkpt>
      <trkpt lat="48.74587" lon="2.56061">
        <ele>147.341</ele>
        <time>2018-12-12T09:56:41Z</time>
      </trkpt>
      <trkpt lat="48.74589" lon="2.56066">
        <ele>147.392</ele>
        <time>2018-12-12T09:56:46Z</time>
      </trkpt>
      <trkpt lat="48.74589" lon="2.56066">
        <ele>147.392</ele>
        <time>2018-12-12T10:01:31Z</time>
      </trkpt>
      <trkpt lat="48.74593" lon="2.56081">
        <ele>147.79</ele>
        <time>2018-12-12T10:01:34Z</time>
      </trkpt>
      <trkpt lat="48.74598" lon="2.56086">
        <ele>147.783</ele>
        <time>2018-12-12T10:01:41Z</time>
      </trkpt>
      <trkpt lat="48.74602" lon="2.56089">
        <ele>147.779</ele>
        <time>2018-12-12T10:01:44Z</time>
      </trkpt>
      <trkpt lat="48.74605" lon="2.56091">
        <ele>147.777</ele>
        <time>2018-12-12T10:01:46Z</time>
      </trkpt>
      <trkpt lat="48.74607" lon="2.56093">
        <ele>147.772</ele>
        <time>2018-12-12T10:01:49Z</time>
      </trkpt>
      <trkpt lat="48.74611" lon="2.56097">
        <ele>147.768</ele>
        <time>2018-12-12T10:01:52Z</time>
      </trkpt>
      <trkpt lat="48.74614" lon="2.561">
        <ele>147.767</ele>
        <time>2018-12-12T10:01:54Z</time>
      </trkpt>
      <trkpt lat="48.74618" lon="2.56103">
        <ele>147.764</ele>
        <time>2018-12-12T10:01:57Z</time>
      </trkpt>
      <trkpt lat="48.74621" lon="2.56109">
        <ele>147.761</ele>
        <time>2018-12-12T10:02:01Z</time>
      </trkpt>
      <trkpt lat="48.74623" lon="2.56113">
        <ele>147.76</ele>
        <time>2018-12-12T10:02:03Z</time>
      </trkpt>
      <trkpt lat="48.74624" lon="2.56116">
        <ele>147.758</ele>
        <time>2018-12-12T10:02:05Z</time>
      </trkpt>
      <trkpt lat="48.74626" lon="2.56119">
        <ele>147.757</ele>
        <time>2018-12-12T10:02:07Z</time>
      </trkpt>
      <trkpt lat="48.74631" lon="2.56122">
        <ele>147.756</ele>
        <time>2018-12-12T10:02:10Z</time>
      </trkpt>
      <trkpt lat="48.74636" lon="2.56126">
        <ele>147.755</ele>
        <time>2018-12-12T10:02:15Z</time>
      </trkpt>
      <trkpt lat="48.7464" lon="2.56131">
        <ele>147.757</ele>
        <time>2018-12-12T10:02:19Z</time>
      </trkpt>
      <trkpt lat="48.74645" lon="2.56133">
        <ele>147.762</ele>
        <time>2018-12-12T10:02:24Z</time>
      </trkpt>
      <trkpt lat="48.74649" lon="2.56139">
        <ele>147.765</ele>
        <time>2018-12-12T10:02:27Z</time>
      </trkpt>
      <trkpt lat="48.74652" lon="2.56143">
        <ele>147.768</ele>
        <time>2018-12-12T10:02:29Z</time>
      </trkpt>
      <trkpt lat="48.74653" lon="2.56146">
        <ele>147.771</ele>
        <time>2018-12-12T10:02:31Z</time>
      </trkpt>
      <trkpt lat="48.74658" lon="2.5615">
        <ele>147.774</ele>
        <time>2018-12-12T10:02:33Z</time>
      </trkpt>
      <trkpt lat="48.74662" lon="2.56152">
        <ele>147.778</ele>
        <time>2018-12-12T10:02:36Z</time>
      </trkpt>
      <trkpt lat="48.74662" lon="2.56152">
        <ele>98</ele>
        <time>2018-12-12T10:02:41Z</time>
      </trkpt>
      <trkpt lat="48.74662" lon="2.56152">
        <ele>98</ele>
        <time>2018-12-12T10:02:49Z</time>
      </trkpt>
      <trkpt lat="48.74677" lon="2.56163">
        <ele>147.812</ele>
        <time>2018-12-12T10:02:53Z</time>
      </trkpt>
      <trkpt lat="48.74679" lon="2.56169">
        <ele>147.821</ele>
        <time>2018-12-12T10:02:56Z</time>
      </trkpt>
      <trkpt lat="48.74683" lon="2.56172">
        <ele>147.841</ele>
        <time>2018-12-12T10:03:02Z</time>
      </trkpt>
      <trkpt lat="48.74686" lon="2.56173">
        <ele>147.847</ele>
        <time>2018-12-12T10:03:04Z</time>
      </trkpt>
      <trkpt lat="48.74689" lon="2.56177">
        <ele>147.855</ele>
        <time>2018-12-12T10:03:07Z</time>
      </trkpt>
      <trkpt lat="48.74694" lon="2.56181">
        <ele>147.863</ele>
        <time>2018-12-12T10:03:10Z</time>
      </trkpt>
      <trkpt lat="48.74698" lon="2.56184">
        <ele>147.87</ele>
        <time>2018-12-12T10:03:12Z</time>
      </trkpt>
      <trkpt lat="48.74703" lon="2.56189">
        <ele>147.886</ele>
        <time>2018-12-12T10:03:15Z</time>
      </trkpt>
      <trkpt lat="48.74707" lon="2.56195">
        <ele>147.908</ele>
        <time>2018-12-12T10:03:18Z</time>
      </trkpt>
      <trkpt lat="48.74709" lon="2.56198">
        <ele>147.925</ele>
        <time>2018-12-12T10:03:20Z</time>
      </trkpt>
      <trkpt lat="48.74711" lon="2.56201">
        <ele>147.95</ele>
        <time>2018-12-12T10:03:23Z</time>
      </trkpt>
      <trkpt lat="48.74713" lon="2.56204">
        <ele>147.985</ele>
        <time>2018-12-12T10:03:28Z</time>
      </trkpt>
      <trkpt lat="48.74715" lon="2.56206">
        <ele>147.995</ele>
        <time>2018-12-12T10:03:30Z</time>
      </trkpt>
      <trkpt lat="48.7472" lon="2.56209">
        <ele>148.02</ele>
        <time>2018-12-12T10:03:35Z</time>
      </trkpt>
      <trkpt lat="48.74726" lon="2.56209">
        <ele>148.046</ele>
        <time>2018-12-12T10:03:40Z</time>
      </trkpt>
      <trkpt lat="48.7473" lon="2.56207">
        <ele>148.07</ele>
        <time>2018-12-12T10:03:45Z</time>
      </trkpt>
      <trkpt lat="48.74735" lon="2.56206">
        <ele>148.086</ele>
        <time>2018-12-12T10:03:49Z</time>
      </trkpt>
      <trkpt lat="48.74745" lon="2.56212">
        <ele>148.097</ele>
        <time>2018-12-12T10:03:55Z</time>
      </trkpt>
      <trkpt lat="48.74751" lon="2.56217">
        <ele>148.096</ele>
        <time>2018-12-12T10:03:58Z</time>
      </trkpt>
      <trkpt lat="48.74755" lon="2.56221">
        <ele>148.093</ele>
        <time>2018-12-12T10:04:01Z</time>
      </trkpt>
      <trkpt lat="48.74758" lon="2.56226">
        <ele>148.089</ele>
        <time>2018-12-12T10:04:04Z</time>
      </trkpt>
      <trkpt lat="48.74761" lon="2.56234">
        <ele>148.082</ele>
        <time>2018-12-12T10:04:08Z</time>
      </trkpt>
      <trkpt lat="48.74762" lon="2.56238">
        <ele>148.079</ele>
        <time>2018-12-12T10:04:10Z</time>
      </trkpt>
      <trkpt lat="48.74766" lon="2.56243">
        <ele>148.074</ele>
        <time>2018-12-12T10:04:15Z</time>
      </trkpt>
      <trkpt lat="48.74768" lon="2.5625">
        <ele>148.071</ele>
        <time>2018-12-12T10:04:18Z</time>
      </trkpt>
      <trkpt lat="48.74772" lon="2.56257">
        <ele>148.07</ele>
        <time>2018-12-12T10:04:22Z</time>
      </trkpt>
      <trkpt lat="48.74774" lon="2.56261">
        <ele>148.07</ele>
        <time>2018-12-12T10:04:24Z</time>
      </trkpt>
      <trkpt lat="48.74778" lon="2.56267">
        <ele>148.07</ele>
        <time>2018-12-12T10:04:28Z</time>
      </trkpt>
      <trkpt lat="48.74781" lon="2.56272">
        <ele>148.069</ele>
        <time>2018-12-12T10:04:33Z</time>
      </trkpt>
      <trkpt lat="48.74785" lon="2.56276">
        <ele>148.071</ele>
        <time>2018-12-12T10:04:39Z</time>
      </trkpt>
      <trkpt lat="48.74788" lon="2.56282">
        <ele>148.075</ele>
        <time>2018-12-12T10:04:46Z</time>
      </trkpt>
      <trkpt lat="48.74789" lon="2.5629">
        <ele>148.079</ele>
        <time>2018-12-12T10:04:50Z</time>
      </trkpt>
      <trkpt lat="48.74799" lon="2.56295">
        <ele>148.084</ele>
        <time>2018-12-12T10:04:54Z</time>
      </trkpt>
      <trkpt lat="48.74805" lon="2.56298">
        <ele>148.09</ele>
        <time>2018-12-12T10:04:57Z</time>
      </trkpt>
      <trkpt lat="48.74809" lon="2.56303">
        <ele>148.094</ele>
        <time>2018-12-12T10:05:00Z</time>
      </trkpt>
      <trkpt lat="48.74812" lon="2.56307">
        <ele>148.099</ele>
        <time>2018-12-12T10:05:04Z</time>
      </trkpt>
      <trkpt lat="48.74819" lon="2.56312">
        <ele>148.102</ele>
        <time>2018-12-12T10:05:06Z</time>
      </trkpt>
      <trkpt lat="48.74823" lon="2.56315">
        <ele>148.105</ele>
        <time>2018-12-12T10:05:08Z</time>
      </trkpt>
      <trkpt lat="48.74825" lon="2.56317">
        <ele>148.107</ele>
        <time>2018-12-12T10:05:09Z</time>
      </trkpt>
      <trkpt lat="48.7483" lon="2.5632">
        <ele>148.117</ele>
        <time>2018-12-12T10:05:14Z</time>
      </trkpt>
      <trkpt lat="48.74834" lon="2.56323">
        <ele>148.125</ele>
        <time>2018-12-12T10:05:18Z</time>
      </trkpt>
      <trkpt lat="48.74838" lon="2.56328">
        <ele>148.131</ele>
        <time>2018-12-12T10:05:22Z</time>
      </trkpt>
      <trkpt lat="48.7484" lon="2.56331">
        <ele>148.141</ele>
        <time>2018-12-12T10:05:27Z</time>
      </trkpt>
      <trkpt lat="48.74848" lon="2.5634">
        <ele>148.153</ele>
        <time>2018-12-12T10:05:32Z</time>
      </trkpt>
      <trkpt lat="48.74849" lon="2.56343">
        <ele>148.156</ele>
        <time>2018-12-12T10:05:33Z</time>
      </trkpt>
      <trkpt lat="48.74853" lon="2.56348">
        <ele>148.164</ele>
        <time>2018-12-12T10:05:36Z</time>
      </trkpt>
      <trkpt lat="48.74858" lon="2.56351">
        <ele>148.173</ele>
        <time>2018-12-12T10:05:39Z</time>
      </trkpt>
      <trkpt lat="48.7486" lon="2.56353">
        <ele>148.18</ele>
        <time>2018-12-12T10:05:41Z</time>
      </trkpt>
      <trkpt lat="48.74864" lon="2.56356">
        <ele>148.192</ele>
        <time>2018-12-12T10:05:45Z</time>
      </trkpt>
      <trkpt lat="48.74869" lon="2.56362">
        <ele>148.206</ele>
        <time>2018-12-12T10:05:49Z</time>
      </trkpt>
      <trkpt lat="48.74873" lon="2.56365">
        <ele>148.215</ele>
        <time>2018-12-12T10:05:51Z</time>
      </trkpt>
      <trkpt lat="48.74875" lon="2.56368">
        <ele>148.224</ele>
        <time>2018-12-12T10:05:53Z</time>
      </trkpt>
      <trkpt lat="48.74878" lon="2.56371">
        <ele>148.244</ele>
        <time>2018-12-12T10:05:57Z</time>
      </trkpt>
      <trkpt lat="48.7488" lon="2.56373">
        <ele>148.258</ele>
        <time>2018-12-12T10:06:00Z</time>
      </trkpt>
      <trkpt lat="48.74885" lon="2.56376">
        <ele>148.275</ele>
        <time>2018-12-12T10:06:04Z</time>
      </trkpt>
      <trkpt lat="48.7489" lon="2.5638">
        <ele>148.289</ele>
        <time>2018-12-12T10:06:08Z</time>
      </trkpt>
      <trkpt lat="48.74894" lon="2.56382">
        <ele>148.3</ele>
        <time>2018-12-12T10:06:11Z</time>
      </trkpt>
      <trkpt lat="48.74897" lon="2.56387">
        <ele>148.314</ele>
        <time>2018-12-12T10:06:15Z</time>
      </trkpt>
      <trkpt lat="48.74901" lon="2.56391">
        <ele>148.348</ele>
        <time>2018-12-12T10:06:22Z</time>
      </trkpt>
      <trkpt lat="48.74911" lon="2.56397">
        <ele>148.374</ele>
        <time>2018-12-12T10:06:26Z</time>
      </trkpt>
      <trkpt lat="48.74915" lon="2.564">
        <ele>148.393</ele>
        <time>2018-12-12T10:06:29Z</time>
      </trkpt>
      <trkpt lat="48.74922" lon="2.56404">
        <ele>148.419</ele>
        <time>2018-12-12T10:06:33Z</time>
      </trkpt>
      <trkpt lat="48.74922" lon="2.56404">
        <ele>148.419</ele>
        <time>2018-12-12T10:06:38Z</time>
      </trkpt>
      <trkpt lat="48.74922" lon="2.56404">
        <ele>100</ele>
        <time>2018-12-12T10:06:38Z</time>
      </trkpt>
      <trkpt lat="48.74922" lon="2.56404">
        <ele>100</ele>
        <time>2018-12-12T10:06:44Z</time>
      </trkpt>
      <trkpt lat="48.74931" lon="2.56415">
        <ele>148.48</ele>
        <time>2018-12-12T10:06:44Z</time>
      </trkpt>
      <trkpt lat="48.74936" lon="2.56419">
        <ele>148.496</ele>
        <time>2018-12-12T10:06:47Z</time>
      </trkpt>
      <trkpt lat="48.74939" lon="2.56421">
        <ele>148.514</ele>
        <time>2018-12-12T10:06:50Z</time>
      </trkpt>
      <trkpt lat="48.74943" lon="2.56426">
        <ele>148.536</ele>
        <time>2018-12-12T10:06:54Z</time>
      </trkpt>
      <trkpt lat="48.74945" lon="2.56428">
        <ele>148.541</ele>
        <time>2018-12-12T10:06:55Z</time>
      </trkpt>
      <trkpt lat="48.74949" lon="2.56432">
        <ele>148.552</ele>
        <time>2018-12-12T10:06:57Z</time>
      </trkpt>
      <trkpt lat="48.74952" lon="2.56435">
        <ele>148.562</ele>
        <time>2018-12-12T10:06:59Z</time>
      </trkpt>
      <trkpt lat="48.74954" lon="2.56437">
        <ele>148.568</ele>
        <time>2018-12-12T10:07:00Z</time>
      </trkpt>
      <trkpt lat="48.74957" lon="2.5644">
        <ele>148.578</ele>
        <time>2018-12-12T10:07:02Z</time>
      </trkpt>
      <trkpt lat="48.74959" lon="2.56442">
        <ele>148.589</ele>
        <time>2018-12-12T10:07:04Z</time>
      </trkpt>
      <trkpt lat="48.74963" lon="2.56445">
        <ele>148.608</ele>
        <time>2018-12-12T10:07:08Z</time>
      </trkpt>
      <trkpt lat="48.74967" lon="2.56449">
        <ele>148.626</ele>
        <time>2018-12-12T10:07:12Z</time>
      </trkpt>
      <trkpt lat="48.74971" lon="2.56454">
        <ele>148.64</ele>
        <time>2018-12-12T10:07:15Z</time>
      </trkpt>
      <trkpt lat="48.74975" lon="2.56457">
        <ele>148.658</ele>
        <time>2018-12-12T10:07:19Z</time>
      </trkpt>
      <trkpt lat="48.7498" lon="2.5646">
        <ele>148.679</ele>
        <time>2018-12-12T10:07:23Z</time>
      </trkpt>
      <trkpt lat="48.74983" lon="2.56461">
        <ele>148.689</ele>
        <time>2018-12-12T10:07:25Z</time>
      </trkpt>
      <trkpt lat="48.74987" lon="2.56465">
        <ele>148.71</ele>
        <time>2018-12-12T10:07:30Z</time>
      </trkpt>
      <trkpt lat="48.7499" lon="2.56469">
        <ele>148.721</ele>
        <time>2018-12-12T10:07:33Z</time>
      </trkpt>
      <trkpt lat="48.74995" lon="2.56471">
        <ele>148.732</ele>
        <time>2018-12-12T10:07:36Z</time>
      </trkpt>
      <trkpt lat="48.74999" lon="2.56474">
        <ele>148.741</ele>
        <time>2018-12-12T10:07:39Z</time>
      </trkpt>
      <trkpt lat="48.74999" lon="2.56474">
        <ele>148.741</ele>
        <time>2018-12-12T10:07:44Z</time>
      </trkpt>
      <trkpt lat="48.74999" lon="2.56474">
        <ele>101</ele>
        <time>2018-12-12T10:07:44Z</time>
      </trkpt>
      <trkpt lat="48.74999" lon="2.56474">
        <ele>101</ele>
        <time>2018-12-12T10:07:50Z</time>
      </trkpt>
      <trkpt lat="48.7501" lon="2.56484">
        <ele>148.776</ele>
        <time>2018-12-12T10:07:50Z</time>
      </trkpt>
      <trkpt lat="48.75012" lon="2.56486">
        <ele>148.779</ele>
        <time>2018-12-12T10:07:51Z</time>
      </trkpt>
      <trkpt lat="48.75017" lon="2.5649">
        <ele>148.788</ele>
        <time>2018-12-12T10:07:54Z</time>
      </trkpt>
      <trkpt lat="48.75022" lon="2.56496">
        <ele>148.797</ele>
        <time>2018-12-12T10:07:57Z</time>
      </trkpt>
      <trkpt lat="48.75025" lon="2.56499">
        <ele>148.803</ele>
        <time>2018-12-12T10:07:59Z</time>
      </trkpt>
      <trkpt lat="48.75027" lon="2.56502">
        <ele>148.811</ele>
        <time>2018-12-12T10:08:02Z</time>
      </trkpt>
      <trkpt lat="48.75032" lon="2.56506">
        <ele>148.824</ele>
        <time>2018-12-12T10:08:07Z</time>
      </trkpt>
      <trkpt lat="48.75037" lon="2.56511">
        <ele>148.831</ele>
        <time>2018-12-12T10:08:10Z</time>
      </trkpt>
      <trkpt lat="48.7504" lon="2.56516">
        <ele>148.843</ele>
        <time>2018-12-12T10:08:16Z</time>
      </trkpt>
      <trkpt lat="48.75044" lon="2.56523">
        <ele>148.85</ele>
        <time>2018-12-12T10:08:20Z</time>
      </trkpt>
      <trkpt lat="48.75046" lon="2.56525">
        <ele>148.855</ele>
        <time>2018-12-12T10:08:22Z</time>
      </trkpt>
      <trkpt lat="48.7505" lon="2.56529">
        <ele>148.862</ele>
        <time>2018-12-12T10:08:25Z</time>
      </trkpt>
      <trkpt lat="48.75054" lon="2.56534">
        <ele>148.87</ele>
        <time>2018-12-12T10:08:29Z</time>
      </trkpt>
      <trkpt lat="48.75058" lon="2.56538">
        <ele>148.876</ele>
        <time>2018-12-12T10:08:32Z</time>
      </trkpt>
      <trkpt lat="48.75061" lon="2.5654">
        <ele>148.88</ele>
        <time>2018-12-12T10:08:34Z</time>
      </trkpt>
      <trkpt lat="48.75066" lon="2.56544">
        <ele>148.888</ele>
        <time>2018-12-12T10:08:38Z</time>
      </trkpt>
      <trkpt lat="48.75069" lon="2.56549">
        <ele>148.896</ele>
        <time>2018-12-12T10:08:42Z</time>
      </trkpt>
      <trkpt lat="48.75073" lon="2.56553">
        <ele>148.905</ele>
        <time>2018-12-12T10:08:46Z</time>
      </trkpt>
      <trkpt lat="48.75077" lon="2.56559">
        <ele>148.912</ele>
        <time>2018-12-12T10:08:49Z</time>
      </trkpt>
      <trkpt lat="48.7508" lon="2.56565">
        <ele>148.92</ele>
        <time>2018-12-12T10:08:52Z</time>
      </trkpt>
      <trkpt lat="48.75082" lon="2.5657">
        <ele>148.93</ele>
        <time>2018-12-12T10:08:55Z</time>
      </trkpt>
      <trkpt lat="48.75085" lon="2.56575">
        <ele>148.947</ele>
        <time>2018-12-12T10:08:59Z</time>
      </trkpt>
      <trkpt lat="48.75089" lon="2.56579">
        <ele>148.974</ele>
        <time>2018-12-12T10:09:05Z</time>
      </trkpt>
      <trkpt lat="48.75096" lon="2.5658">
        <ele>148.995</ele>
        <time>2018-12-12T10:09:10Z</time>
      </trkpt>
      <trkpt lat="48.751" lon="2.56584">
        <ele>149.013</ele>
        <time>2018-12-12T10:09:15Z</time>
      </trkpt>
      <trkpt lat="48.75104" lon="2.56587">
        <ele>149.026</ele>
        <time>2018-12-12T10:09:19Z</time>
      </trkpt>
      <trkpt lat="48.75106" lon="2.56589">
        <ele>149.036</ele>
        <time>2018-12-12T10:09:22Z</time>
      </trkpt>
      <trkpt lat="48.75111" lon="2.56596">
        <ele>149.045</ele>
        <time>2018-12-12T10:09:25Z</time>
      </trkpt>
      <trkpt lat="48.75116" lon="2.56599">
        <ele>149.053</ele>
        <time>2018-12-12T10:09:28Z</time>
      </trkpt>
      <trkpt lat="48.75118" lon="2.56601">
        <ele>149.058</ele>
        <time>2018-12-12T10:09:30Z</time>
      </trkpt>
      <trkpt lat="48.75123" lon="2.56605">
        <ele>149.067</ele>
        <time>2018-12-12T10:09:34Z</time>
      </trkpt>
      <trkpt lat="48.75128" lon="2.5661">
        <ele>149.076</ele>
        <time>2018-12-12T10:09:38Z</time>
      </trkpt>
      <trkpt lat="48.75132" lon="2.56614">
        <ele>149.085</ele>
        <time>2018-12-12T10:09:42Z</time>
      </trkpt>
      <trkpt lat="48.75136" lon="2.56617">
        <ele>149.091</ele>
        <time>2018-12-12T10:09:45Z</time>
      </trkpt>
      <trkpt lat="48.7514" lon="2.56622">
        <ele>149.099</ele>
        <time>2018-12-12T10:09:49Z</time>
      </trkpt>
      <trkpt lat="48.75143" lon="2.56626">
        <ele>149.104</ele>
        <time>2018-12-12T10:09:52Z</time>
      </trkpt>
      <trkpt lat="48.75147" lon="2.56632">
        <ele>149.11</ele>
        <time>2018-12-12T10:09:57Z</time>
      </trkpt>
      <trkpt lat="48.75152" lon="2.56638">
        <ele>149.117</ele>
        <time>2018-12-12T10:10:01Z</time>
      </trkpt>
      <trkpt lat="48.75154" lon="2.5664">
        <ele>149.119</ele>
        <time>2018-12-12T10:10:03Z</time>
      </trkpt>
      <trkpt lat="48.75158" lon="2.56643">
        <ele>149.123</ele>
        <time>2018-12-12T10:10:06Z</time>
      </trkpt>
      <trkpt lat="48.75163" lon="2.56648">
        <ele>149.127</ele>
        <time>2018-12-12T10:10:09Z</time>
      </trkpt>
      <trkpt lat="48.75167" lon="2.56652">
        <ele>149.135</ele>
        <time>2018-12-12T10:10:13Z</time>
      </trkpt>
      <trkpt lat="48.75171" lon="2.56655">
        <ele>149.146</ele>
        <time>2018-12-12T10:10:18Z</time>
      </trkpt>
      <trkpt lat="48.75174" lon="2.56656">
        <ele>149.149</ele>
        <time>2018-12-12T10:10:20Z</time>
      </trkpt>
      <trkpt lat="48.75179" lon="2.56662">
        <ele>149.158</ele>
        <time>2018-12-12T10:10:24Z</time>
      </trkpt>
      <trkpt lat="48.75182" lon="2.56666">
        <ele>149.169</ele>
        <time>2018-12-12T10:10:27Z</time>
      </trkpt>
      <trkpt lat="48.75185" lon="2.56668">
        <ele>149.18</ele>
        <time>2018-12-12T10:10:29Z</time>
      </trkpt>
      <trkpt lat="48.75189" lon="2.56673">
        <ele>149.197</ele>
        <time>2018-12-12T10:10:32Z</time>
      </trkpt>
      <trkpt lat="48.75191" lon="2.56676">
        <ele>149.216</ele>
        <time>2018-12-12T10:10:35Z</time>
      </trkpt>
      <trkpt lat="48.75195" lon="2.5668">
        <ele>149.254</ele>
        <time>2018-12-12T10:10:40Z</time>
      </trkpt>
      <trkpt lat="48.75197" lon="2.56682">
        <ele>149.27</ele>
        <time>2018-12-12T10:10:42Z</time>
      </trkpt>
      <trkpt lat="48.75199" lon="2.56684">
        <ele>149.294</ele>
        <time>2018-12-12T10:10:45Z</time>
      </trkpt>
      <trkpt lat="48.75203" lon="2.56687">
        <ele>149.327</ele>
        <time>2018-12-12T10:10:49Z</time>
      </trkpt>
      <trkpt lat="48.75207" lon="2.5669">
        <ele>149.35</ele>
        <time>2018-12-12T10:10:52Z</time>
      </trkpt>
      <trkpt lat="48.75211" lon="2.56695">
        <ele>149.373</ele>
        <time>2018-12-12T10:10:55Z</time>
      </trkpt>
      <trkpt lat="48.75216" lon="2.56701">
        <ele>149.396</ele>
        <time>2018-12-12T10:10:58Z</time>
      </trkpt>
      <trkpt lat="48.75219" lon="2.56704">
        <ele>149.411</ele>
        <time>2018-12-12T10:11:00Z</time>
      </trkpt>
      <trkpt lat="48.75224" lon="2.56709">
        <ele>149.433</ele>
        <time>2018-12-12T10:11:03Z</time>
      </trkpt>
      <trkpt lat="48.75226" lon="2.56712">
        <ele>149.461</ele>
        <time>2018-12-12T10:11:07Z</time>
      </trkpt>
      <trkpt lat="48.75229" lon="2.56715">
        <ele>149.479</ele>
        <time>2018-12-12T10:11:10Z</time>
      </trkpt>
      <trkpt lat="48.75239" lon="2.56717">
        <ele>149.508</ele>
        <time>2018-12-12T10:11:16Z</time>
      </trkpt>
      <trkpt lat="48.75242" lon="2.56718">
        <ele>149.513</ele>
        <time>2018-12-12T10:11:17Z</time>
      </trkpt>
      <trkpt lat="48.75247" lon="2.5672">
        <ele>149.523</ele>
        <time>2018-12-12T10:11:19Z</time>
      </trkpt>
      <trkpt lat="48.75251" lon="2.56722">
        <ele>149.537</ele>
        <time>2018-12-12T10:11:22Z</time>
      </trkpt>
      <trkpt lat="48.75257" lon="2.56727">
        <ele>149.549</ele>
        <time>2018-12-12T10:11:26Z</time>
      </trkpt>
      <trkpt lat="48.75259" lon="2.56729">
        <ele>149.554</ele>
        <time>2018-12-12T10:11:28Z</time>
      </trkpt>
      <trkpt lat="48.75259" lon="2.56737">
        <ele>149.566</ele>
        <time>2018-12-12T10:11:33Z</time>
      </trkpt>
      <trkpt lat="48.75262" lon="2.56743">
        <ele>149.586</ele>
        <time>2018-12-12T10:11:38Z</time>
      </trkpt>
      <trkpt lat="48.75266" lon="2.56748">
        <ele>149.603</ele>
        <time>2018-12-12T10:11:42Z</time>
      </trkpt>
      <trkpt lat="48.75268" lon="2.56752">
        <ele>149.617</ele>
        <time>2018-12-12T10:11:45Z</time>
      </trkpt>
      <trkpt lat="48.75273" lon="2.56757">
        <ele>149.64</ele>
        <time>2018-12-12T10:11:50Z</time>
      </trkpt>
      <trkpt lat="48.75277" lon="2.56761">
        <ele>149.664</ele>
        <time>2018-12-12T10:11:57Z</time>
      </trkpt>
      <trkpt lat="48.75282" lon="2.56764">
        <ele>149.676</ele>
        <time>2018-12-12T10:12:02Z</time>
      </trkpt>
      <trkpt lat="48.75288" lon="2.56768">
        <ele>149.683</ele>
        <time>2018-12-12T10:12:05Z</time>
      </trkpt>
      <trkpt lat="48.75293" lon="2.56771">
        <ele>149.689</ele>
        <time>2018-12-12T10:12:08Z</time>
      </trkpt>
      <trkpt lat="48.75297" lon="2.56775">
        <ele>149.698</ele>
        <time>2018-12-12T10:12:12Z</time>
      </trkpt>
      <trkpt lat="48.753" lon="2.56779">
        <ele>149.702</ele>
        <time>2018-12-12T10:12:14Z</time>
      </trkpt>
      <trkpt lat="48.75304" lon="2.56783">
        <ele>149.705</ele>
        <time>2018-12-12T10:12:16Z</time>
      </trkpt>
      <trkpt lat="48.75309" lon="2.56787">
        <ele>149.711</ele>
        <time>2018-12-12T10:12:19Z</time>
      </trkpt>
      <trkpt lat="48.75312" lon="2.5679">
        <ele>149.716</ele>
        <time>2018-12-12T10:12:22Z</time>
      </trkpt>
      <trkpt lat="48.75317" lon="2.56793">
        <ele>149.724</ele>
        <time>2018-12-12T10:12:27Z</time>
      </trkpt>
      <trkpt lat="48.75321" lon="2.56796">
        <ele>149.731</ele>
        <time>2018-12-12T10:12:31Z</time>
      </trkpt>
      <trkpt lat="48.75324" lon="2.56798">
        <ele>149.735</ele>
        <time>2018-12-12T10:12:33Z</time>
      </trkpt>
      <trkpt lat="48.75329" lon="2.56803">
        <ele>149.743</ele>
        <time>2018-12-12T10:12:39Z</time>
      </trkpt>
      <trkpt lat="48.75334" lon="2.56809">
        <ele>149.746</ele>
        <time>2018-12-12T10:12:42Z</time>
      </trkpt>
      <trkpt lat="48.75338" lon="2.56815">
        <ele>149.752</ele>
        <time>2018-12-12T10:12:45Z</time>
      </trkpt>
      <trkpt lat="48.75342" lon="2.56818">
        <ele>149.759</ele>
        <time>2018-12-12T10:12:48Z</time>
      </trkpt>
      <trkpt lat="48.75344" lon="2.5682">
        <ele>149.768</ele>
        <time>2018-12-12T10:12:51Z</time>
      </trkpt>
      <trkpt lat="48.75347" lon="2.56822">
        <ele>149.775</ele>
        <time>2018-12-12T10:12:53Z</time>
      </trkpt>
      <trkpt lat="48.75351" lon="2.56825">
        <ele>149.788</ele>
        <time>2018-12-12T10:12:56Z</time>
      </trkpt>
      <trkpt lat="48.75353" lon="2.56827">
        <ele>149.8</ele>
        <time>2018-12-12T10:12:58Z</time>
      </trkpt>
      <trkpt lat="48.75358" lon="2.56833">
        <ele>149.829</ele>
        <time>2018-12-12T10:13:02Z</time>
      </trkpt>
      <trkpt lat="48.75363" lon="2.56839">
        <ele>149.858</ele>
        <time>2018-12-12T10:13:05Z</time>
      </trkpt>
      <trkpt lat="48.75366" lon="2.56845">
        <ele>149.889</ele>
        <time>2018-12-12T10:13:08Z</time>
      </trkpt>
      <trkpt lat="48.75368" lon="2.56849">
        <ele>149.923</ele>
        <time>2018-12-12T10:13:11Z</time>
      </trkpt>
      <trkpt lat="48.7537" lon="2.56854">
        <ele>149.961</ele>
        <time>2018-12-12T10:13:14Z</time>
      </trkpt>
      <trkpt lat="48.75372" lon="2.56859">
        <ele>150.017</ele>
        <time>2018-12-12T10:13:18Z</time>
      </trkpt>
      <trkpt lat="48.75374" lon="2.56863">
        <ele>150.066</ele>
        <time>2018-12-12T10:13:21Z</time>
      </trkpt>
      <trkpt lat="48.75379" lon="2.56867">
        <ele>150.154</ele>
        <time>2018-12-12T10:13:26Z</time>
      </trkpt>
      <trkpt lat="48.75382" lon="2.56871">
        <ele>150.222</ele>
        <time>2018-12-12T10:13:30Z</time>
      </trkpt>
      <trkpt lat="48.75387" lon="2.56874">
        <ele>150.3</ele>
        <time>2018-12-12T10:13:35Z</time>
      </trkpt>
      <trkpt lat="48.75389" lon="2.56875">
        <ele>150.33</ele>
        <time>2018-12-12T10:13:37Z</time>
      </trkpt>
      <trkpt lat="48.75394" lon="2.56879">
        <ele>150.414</ele>
        <time>2018-12-12T10:13:43Z</time>
      </trkpt>
      <trkpt lat="48.75398" lon="2.56883">
        <ele>150.466</ele>
        <time>2018-12-12T10:13:47Z</time>
      </trkpt>
      <trkpt lat="48.754" lon="2.56885">
        <ele>150.49</ele>
        <time>2018-12-12T10:13:49Z</time>
      </trkpt>
      <trkpt lat="48.75402" lon="2.56888">
        <ele>150.525</ele>
        <time>2018-12-12T10:13:52Z</time>
      </trkpt>
      <trkpt lat="48.75406" lon="2.56891">
        <ele>150.559</ele>
        <time>2018-12-12T10:13:55Z</time>
      </trkpt>
      <trkpt lat="48.75406" lon="2.56891">
        <ele>101</ele>
        <time>2018-12-12T10:14:03Z</time>
      </trkpt>
      <trkpt lat="48.75406" lon="2.56891">
        <ele>101</ele>
        <time>2018-12-12T10:14:06Z</time>
      </trkpt>
      <trkpt lat="48.75411" lon="2.56882">
        <ele>150.638</ele>
        <time>2018-12-12T10:14:06Z</time>
      </trkpt>
      <trkpt lat="48.75416" lon="2.56879">
        <ele>150.651</ele>
        <time>2018-12-12T10:14:09Z</time>
      </trkpt>
      <trkpt lat="48.7542" lon="2.56873">
        <ele>150.664</ele>
        <time>2018-12-12T10:14:13Z</time>
      </trkpt>
      <trkpt lat="48.75421" lon="2.56871">
        <ele>150.669</ele>
        <time>2018-12-12T10:14:15Z</time>
      </trkpt>
      <trkpt lat="48.75424" lon="2.56866">
        <ele>150.677</ele>
        <time>2018-12-12T10:14:18Z</time>
      </trkpt>
      <trkpt lat="48.75427" lon="2.5686">
        <ele>150.683</ele>
        <time>2018-12-12T10:14:21Z</time>
      </trkpt>
      <trkpt lat="48.75429" lon="2.56853">
        <ele>150.688</ele>
        <time>2018-12-12T10:14:25Z</time>
      </trkpt>
      <trkpt lat="48.7543" lon="2.56849">
        <ele>150.69</ele>
        <time>2018-12-12T10:14:27Z</time>
      </trkpt>
      <trkpt lat="48.75432" lon="2.56843">
        <ele>150.691</ele>
        <time>2018-12-12T10:14:31Z</time>
      </trkpt>
      <trkpt lat="48.75436" lon="2.56838">
        <ele>150.69</ele>
        <time>2018-12-12T10:14:34Z</time>
      </trkpt>
      <trkpt lat="48.75438" lon="2.56835">
        <ele>150.689</ele>
        <time>2018-12-12T10:14:36Z</time>
      </trkpt>
      <trkpt lat="48.75442" lon="2.56829">
        <ele>150.685</ele>
        <time>2018-12-12T10:14:39Z</time>
      </trkpt>
      <trkpt lat="48.75447" lon="2.56825">
        <ele>150.678</ele>
        <time>2018-12-12T10:14:42Z</time>
      </trkpt>
      <trkpt lat="48.75451" lon="2.56818">
        <ele>150.672</ele>
        <time>2018-12-12T10:14:45Z</time>
      </trkpt>
      <trkpt lat="48.75453" lon="2.56814">
        <ele>150.67</ele>
        <time>2018-12-12T10:14:48Z</time>
      </trkpt>
      <trkpt lat="48.75457" lon="2.56809">
        <ele>150.666</ele>
        <time>2018-12-12T10:14:52Z</time>
      </trkpt>
      <trkpt lat="48.75461" lon="2.56803">
        <ele>150.662</ele>
        <time>2018-12-12T10:14:57Z</time>
      </trkpt>
      <trkpt lat="48.75463" lon="2.56795">
        <ele>150.66</ele>
        <time>2018-12-12T10:15:01Z</time>
      </trkpt>
      <trkpt lat="48.75464" lon="2.5679">
        <ele>150.657</ele>
        <time>2018-12-12T10:15:04Z</time>
      </trkpt>
      <trkpt lat="48.75467" lon="2.56785">
        <ele>150.654</ele>
        <time>2018-12-12T10:15:07Z</time>
      </trkpt>
      <trkpt lat="48.75469" lon="2.5678">
        <ele>150.646</ele>
        <time>2018-12-12T10:15:11Z</time>
      </trkpt>
      <trkpt lat="48.75474" lon="2.56777">
        <ele>150.637</ele>
        <time>2018-12-12T10:15:14Z</time>
      </trkpt>
      <trkpt lat="48.75476" lon="2.5677">
        <ele>150.621</ele>
        <time>2018-12-12T10:15:19Z</time>
      </trkpt>
      <trkpt lat="48.75477" lon="2.56767">
        <ele>150.614</ele>
        <time>2018-12-12T10:15:21Z</time>
      </trkpt>
      <trkpt lat="48.75479" lon="2.56763">
        <ele>150.607</ele>
        <time>2018-12-12T10:15:23Z</time>
      </trkpt>
      <trkpt lat="48.75481" lon="2.56757">
        <ele>150.593</ele>
        <time>2018-12-12T10:15:27Z</time>
      </trkpt>
      <trkpt lat="48.75484" lon="2.5675">
        <ele>150.583</ele>
        <time>2018-12-12T10:15:31Z</time>
      </trkpt>
      <trkpt lat="48.75489" lon="2.5674">
        <ele>150.578</ele>
        <time>2018-12-12T10:15:36Z</time>
      </trkpt>
      <trkpt lat="48.75491" lon="2.56735">
        <ele>150.574</ele>
        <time>2018-12-12T10:15:39Z</time>
      </trkpt>
      <trkpt lat="48.75496" lon="2.5673">
        <ele>150.565</ele>
        <time>2018-12-12T10:15:42Z</time>
      </trkpt>
      <trkpt lat="48.75499" lon="2.56724">
        <ele>150.552</ele>
        <time>2018-12-12T10:15:46Z</time>
      </trkpt>
      <trkpt lat="48.75501" lon="2.56721">
        <ele>150.546</ele>
        <time>2018-12-12T10:15:48Z</time>
      </trkpt>
      <trkpt lat="48.75504" lon="2.56715">
        <ele>150.534</ele>
        <time>2018-12-12T10:15:52Z</time>
      </trkpt>
      <trkpt lat="48.75507" lon="2.56708">
        <ele>150.513</ele>
        <time>2018-12-12T10:15:58Z</time>
      </trkpt>
      <trkpt lat="48.75509" lon="2.56701">
        <ele>150.487</ele>
        <time>2018-12-12T10:16:04Z</time>
      </trkpt>
      <trkpt lat="48.7551" lon="2.56696">
        <ele>150.481</ele>
        <time>2018-12-12T10:16:06Z</time>
      </trkpt>
      <trkpt lat="48.75512" lon="2.56691">
        <ele>150.473</ele>
        <time>2018-12-12T10:16:09Z</time>
      </trkpt>
      <trkpt lat="48.75514" lon="2.56684">
        <ele>150.465</ele>
        <time>2018-12-12T10:16:12Z</time>
      </trkpt>
      <trkpt lat="48.75518" lon="2.56681">
        <ele>150.457</ele>
        <time>2018-12-12T10:16:15Z</time>
      </trkpt>
      <trkpt lat="48.75521" lon="2.56674">
        <ele>150.447</ele>
        <time>2018-12-12T10:16:19Z</time>
      </trkpt>
      <trkpt lat="48.75523" lon="2.56667">
        <ele>150.439</ele>
        <time>2018-12-12T10:16:22Z</time>
      </trkpt>
      <trkpt lat="48.75524" lon="2.56663">
        <ele>150.43</ele>
        <time>2018-12-12T10:16:26Z</time>
      </trkpt>
      <trkpt lat="48.75525" lon="2.56659">
        <ele>150.425</ele>
        <time>2018-12-12T10:16:28Z</time>
      </trkpt>
      <trkpt lat="48.75527" lon="2.56652">
        <ele>150.416</ele>
        <time>2018-12-12T10:16:32Z</time>
      </trkpt>
      <trkpt lat="48.75529" lon="2.56648">
        <ele>150.412</ele>
        <time>2018-12-12T10:16:34Z</time>
      </trkpt>
      <trkpt lat="48.75531" lon="2.56642">
        <ele>150.405</ele>
        <time>2018-12-12T10:16:38Z</time>
      </trkpt>
      <trkpt lat="48.75533" lon="2.56637">
        <ele>150.401</ele>
        <time>2018-12-12T10:16:40Z</time>
      </trkpt>
      <trkpt lat="48.75534" lon="2.56633">
        <ele>150.398</ele>
        <time>2018-12-12T10:16:42Z</time>
      </trkpt>
      <trkpt lat="48.75539" lon="2.56629">
        <ele>150.394</ele>
        <time>2018-12-12T10:16:46Z</time>
      </trkpt>
      <trkpt lat="48.75541" lon="2.56622">
        <ele>150.391</ele>
        <time>2018-12-12T10:16:50Z</time>
      </trkpt>
      <trkpt lat="48.75545" lon="2.56616">
        <ele>150.392</ele>
        <time>2018-12-12T10:16:54Z</time>
      </trkpt>
      <trkpt lat="48.75547" lon="2.56608">
        <ele>150.396</ele>
        <time>2018-12-12T10:16:58Z</time>
      </trkpt>
      <trkpt lat="48.75548" lon="2.56604">
        <ele>150.398</ele>
        <time>2018-12-12T10:17:00Z</time>
      </trkpt>
      <trkpt lat="48.7555" lon="2.56601">
        <ele>150.4</ele>
        <time>2018-12-12T10:17:02Z</time>
      </trkpt>
      <trkpt lat="48.75552" lon="2.56595">
        <ele>150.405</ele>
        <time>2018-12-12T10:17:06Z</time>
      </trkpt>
      <trkpt lat="48.75556" lon="2.5659">
        <ele>150.412</ele>
        <time>2018-12-12T10:17:10Z</time>
      </trkpt>
      <trkpt lat="48.75558" lon="2.56587">
        <ele>150.415</ele>
        <time>2018-12-12T10:17:12Z</time>
      </trkpt>
      <trkpt lat="48.75562" lon="2.56581">
        <ele>150.419</ele>
        <time>2018-12-12T10:17:16Z</time>
      </trkpt>
      <trkpt lat="48.75565" lon="2.56575">
        <ele>150.425</ele>
        <time>2018-12-12T10:17:20Z</time>
      </trkpt>
      <trkpt lat="48.75566" lon="2.5657">
        <ele>150.43</ele>
        <time>2018-12-12T10:17:23Z</time>
      </trkpt>
      <trkpt lat="48.75569" lon="2.56563">
        <ele>150.441</ele>
        <time>2018-12-12T10:17:28Z</time>
      </trkpt>
      <trkpt lat="48.7557" lon="2.56559">
        <ele>150.451</ele>
        <time>2018-12-12T10:17:31Z</time>
      </trkpt>
      <trkpt lat="48.75572" lon="2.56553">
        <ele>150.462</ele>
        <time>2018-12-12T10:17:34Z</time>
      </trkpt>
      <trkpt lat="48.75575" lon="2.56548">
        <ele>150.47</ele>
        <time>2018-12-12T10:17:36Z</time>
      </trkpt>
      <trkpt lat="48.75576" lon="2.56545">
        <ele>150.479</ele>
        <time>2018-12-12T10:17:38Z</time>
      </trkpt>
      <trkpt lat="48.75577" lon="2.56537">
        <ele>150.492</ele>
        <time>2018-12-12T10:17:41Z</time>
      </trkpt>
      <trkpt lat="48.75579" lon="2.56531">
        <ele>150.514</ele>
        <time>2018-12-12T10:17:45Z</time>
      </trkpt>
      <trkpt lat="48.75581" lon="2.56526">
        <ele>150.534</ele>
        <time>2018-12-12T10:17:48Z</time>
      </trkpt>
      <trkpt lat="48.75584" lon="2.5652">
        <ele>150.558</ele>
        <time>2018-12-12T10:17:52Z</time>
      </trkpt>
      <trkpt lat="48.75588" lon="2.56517">
        <ele>150.575</ele>
        <time>2018-12-12T10:17:55Z</time>
      </trkpt>
      <trkpt lat="48.75591" lon="2.56511">
        <ele>150.59</ele>
        <time>2018-12-12T10:17:58Z</time>
      </trkpt>
      <trkpt lat="48.75594" lon="2.56504">
        <ele>150.601</ele>
        <time>2018-12-12T10:18:01Z</time>
      </trkpt>
      <trkpt lat="48.75595" lon="2.565">
        <ele>150.608</ele>
        <time>2018-12-12T10:18:03Z</time>
      </trkpt>
      <trkpt lat="48.75598" lon="2.56491">
        <ele>150.621</ele>
        <time>2018-12-12T10:18:07Z</time>
      </trkpt>
      <trkpt lat="48.75601" lon="2.56485">
        <ele>150.637</ele>
        <time>2018-12-12T10:18:10Z</time>
      </trkpt>
      <trkpt lat="48.75604" lon="2.56479">
        <ele>150.662</ele>
        <time>2018-12-12T10:18:14Z</time>
      </trkpt>
      <trkpt lat="48.75607" lon="2.56473">
        <ele>150.699</ele>
        <time>2018-12-12T10:18:20Z</time>
      </trkpt>
      <trkpt lat="48.7561" lon="2.56467">
        <ele>150.736</ele>
        <time>2018-12-12T10:18:26Z</time>
      </trkpt>
      <trkpt lat="48.75611" lon="2.56459">
        <ele>150.76</ele>
        <time>2018-12-12T10:18:30Z</time>
      </trkpt>
      <trkpt lat="48.75613" lon="2.56453">
        <ele>150.777</ele>
        <time>2018-12-12T10:18:33Z</time>
      </trkpt>
      <trkpt lat="48.75614" lon="2.56447">
        <ele>150.793</ele>
        <time>2018-12-12T10:18:36Z</time>
      </trkpt>
      <trkpt lat="48.75615" lon="2.56443">
        <ele>150.804</ele>
        <time>2018-12-12T10:18:38Z</time>
      </trkpt>
      <trkpt lat="48.75616" lon="2.56438">
        <ele>150.818</ele>
        <time>2018-12-12T10:18:41Z</time>
      </trkpt>
      <trkpt lat="48.75617" lon="2.56434">
        <ele>150.833</ele>
        <time>2018-12-12T10:18:44Z</time>
      </trkpt>
      <trkpt lat="48.75619" lon="2.56427">
        <ele>150.856</ele>
        <time>2018-12-12T10:18:49Z</time>
      </trkpt>
      <trkpt lat="48.75622" lon="2.56422">
        <ele>150.874</ele>
        <time>2018-12-12T10:18:53Z</time>
      </trkpt>
      <trkpt lat="48.75624" lon="2.56416">
        <ele>150.898</ele>
        <time>2018-12-12T10:18:58Z</time>
      </trkpt>
      <trkpt lat="48.75627" lon="2.5641">
        <ele>150.913</ele>
        <time>2018-12-12T10:19:02Z</time>
      </trkpt>
      <trkpt lat="48.7563" lon="2.56406">
        <ele>150.928</ele>
        <time>2018-12-12T10:19:05Z</time>
      </trkpt>
      <trkpt lat="48.75634" lon="2.56401">
        <ele>150.949</ele>
        <time>2018-12-12T10:19:09Z</time>
      </trkpt>
      <trkpt lat="48.75637" lon="2.56399">
        <ele>150.959</ele>
        <time>2018-12-12T10:19:11Z</time>
      </trkpt>
      <trkpt lat="48.7564" lon="2.56396">
        <ele>150.97</ele>
        <time>2018-12-12T10:19:13Z</time>
      </trkpt>
      <trkpt lat="48.75645" lon="2.56393">
        <ele>150.986</ele>
        <time>2018-12-12T10:19:16Z</time>
      </trkpt>
      <trkpt lat="48.75648" lon="2.56387">
        <ele>151.008</ele>
        <time>2018-12-12T10:19:20Z</time>
      </trkpt>
      <trkpt lat="48.75649" lon="2.56379">
        <ele>151.032</ele>
        <time>2018-12-12T10:19:25Z</time>
      </trkpt>
      <trkpt lat="48.7565" lon="2.56372">
        <ele>151.049</ele>
        <time>2018-12-12T10:19:30Z</time>
      </trkpt>
      <trkpt lat="48.75651" lon="2.56364">
        <ele>151.067</ele>
        <time>2018-12-12T10:19:35Z</time>
      </trkpt>
      <trkpt lat="48.75651" lon="2.56364">
        <ele>151.067</ele>
        <time>2018-12-12T10:19:43Z</time>
      </trkpt>
      <trkpt lat="48.75651" lon="2.56364">
        <ele>100</ele>
        <time>2018-12-12T10:19:43Z</time>
      </trkpt>
      <trkpt lat="48.75651" lon="2.56364">
        <ele>100</ele>
        <time>2018-12-12T10:20:17Z</time>
      </trkpt>
      <trkpt lat="48.75666" lon="2.56377">
        <ele>151.114</ele>
        <time>2018-12-12T10:20:17Z</time>
      </trkpt>
      <trkpt lat="48.75671" lon="2.5638">
        <ele>151.113</ele>
        <time>2018-12-12T10:20:21Z</time>
      </trkpt>
      <trkpt lat="48.75675" lon="2.56384">
        <ele>151.111</ele>
        <time>2018-12-12T10:20:25Z</time>
      </trkpt>
      <trkpt lat="48.7568" lon="2.56387">
        <ele>151.11</ele>
        <time>2018-12-12T10:20:28Z</time>
      </trkpt>
      <trkpt lat="48.75684" lon="2.5639">
        <ele>151.109</ele>
        <time>2018-12-12T10:20:34Z</time>
      </trkpt>
      <trkpt lat="48.75688" lon="2.56392">
        <ele>151.107</ele>
        <time>2018-12-12T10:20:39Z</time>
      </trkpt>
      <trkpt lat="48.75691" lon="2.56397">
        <ele>151.104</ele>
        <time>2018-12-12T10:20:45Z</time>
      </trkpt>
      <trkpt lat="48.75695" lon="2.56402">
        <ele>151.102</ele>
        <time>2018-12-12T10:20:50Z</time>
      </trkpt>
      <trkpt lat="48.75697" lon="2.56408">
        <ele>151.099</ele>
        <time>2018-12-12T10:20:54Z</time>
      </trkpt>
      <trkpt lat="48.75697" lon="2.56408">
        <ele>100</ele>
        <time>2018-12-12T10:21:02Z</time>
      </trkpt>
      <trkpt lat="48.75697" lon="2.56408">
        <ele>100</ele>
        <time>2018-12-12T10:21:05Z</time>
      </trkpt>
      <trkpt lat="48.75705" lon="2.56412">
        <ele>151.088</ele>
        <time>2018-12-12T10:21:05Z</time>
      </trkpt>
      <trkpt lat="48.75711" lon="2.56414">
        <ele>151.085</ele>
        <time>2018-12-12T10:21:07Z</time>
      </trkpt>
      <trkpt lat="48.75718" lon="2.56417">
        <ele>151.08</ele>
        <time>2018-12-12T10:21:12Z</time>
      </trkpt>
      <trkpt lat="48.75721" lon="2.56419">
        <ele>151.079</ele>
        <time>2018-12-12T10:21:13Z</time>
      </trkpt>
      <trkpt lat="48.75724" lon="2.56425">
        <ele>151.073</ele>
        <time>2018-12-12T10:21:19Z</time>
      </trkpt>
      <trkpt lat="48.75729" lon="2.56429">
        <ele>151.069</ele>
        <time>2018-12-12T10:21:22Z</time>
      </trkpt>
      <trkpt lat="48.75733" lon="2.56433">
        <ele>151.063</ele>
        <time>2018-12-12T10:21:26Z</time>
      </trkpt>
      <trkpt lat="48.75737" lon="2.56437">
        <ele>151.053</ele>
        <time>2018-12-12T10:21:31Z</time>
      </trkpt>
      <trkpt lat="48.75741" lon="2.56441">
        <ele>151.047</ele>
        <time>2018-12-12T10:21:34Z</time>
      </trkpt>
      <trkpt lat="48.75743" lon="2.56444">
        <ele>151.042</ele>
        <time>2018-12-12T10:21:36Z</time>
      </trkpt>
      <trkpt lat="48.75745" lon="2.56446">
        <ele>151.035</ele>
        <time>2018-12-12T10:21:40Z</time>
      </trkpt>
      <trkpt lat="48.75747" lon="2.56454">
        <ele>151.024</ele>
        <time>2018-12-12T10:21:45Z</time>
      </trkpt>
      <trkpt lat="48.75747" lon="2.56457">
        <ele>151.011</ele>
        <time>2018-12-12T10:21:51Z</time>
      </trkpt>
      <trkpt lat="48.75752" lon="2.56461">
        <ele>150.997</ele>
        <time>2018-12-12T10:21:56Z</time>
      </trkpt>
      <trkpt lat="48.75754" lon="2.56463">
        <ele>150.987</ele>
        <time>2018-12-12T10:22:00Z</time>
      </trkpt>
      <trkpt lat="48.7576" lon="2.5647">
        <ele>150.974</ele>
        <time>2018-12-12T10:22:03Z</time>
      </trkpt>
      <trkpt lat="48.75764" lon="2.56473">
        <ele>150.964</ele>
        <time>2018-12-12T10:22:06Z</time>
      </trkpt>
      <trkpt lat="48.75768" lon="2.56475">
        <ele>150.955</ele>
        <time>2018-12-12T10:22:09Z</time>
      </trkpt>
      <trkpt lat="48.7577" lon="2.56477">
        <ele>150.951</ele>
        <time>2018-12-12T10:22:11Z</time>
      </trkpt>
      <trkpt lat="48.75774" lon="2.56479">
        <ele>150.948</ele>
        <time>2018-12-12T10:22:13Z</time>
      </trkpt>
      <trkpt lat="48.7578" lon="2.56484">
        <ele>150.938</ele>
        <time>2018-12-12T10:22:19Z</time>
      </trkpt>
      <trkpt lat="48.7578" lon="2.56484">
        <ele>100</ele>
        <time>2018-12-12T10:22:24Z</time>
      </trkpt>
      <trkpt lat="48.7578" lon="2.56484">
        <ele>100</ele>
        <time>2018-12-12T10:22:39Z</time>
      </trkpt>
      <trkpt lat="48.75794" lon="2.56504">
        <ele>150.899</ele>
        <time>2018-12-12T10:22:39Z</time>
      </trkpt>
      <trkpt lat="48.75798" lon="2.56506">
        <ele>150.886</ele>
        <time>2018-12-12T10:22:42Z</time>
      </trkpt>
      <trkpt lat="48.75802" lon="2.5651">
        <ele>150.874</ele>
        <time>2018-12-12T10:22:48Z</time>
      </trkpt>
      <trkpt lat="48.75808" lon="2.56513">
        <ele>150.862</ele>
        <time>2018-12-12T10:22:52Z</time>
      </trkpt>
      <trkpt lat="48.7581" lon="2.56514">
        <ele>150.858</ele>
        <time>2018-12-12T10:22:54Z</time>
      </trkpt>
      <trkpt lat="48.75813" lon="2.56515">
        <ele>150.85</ele>
        <time>2018-12-12T10:22:58Z</time>
      </trkpt>
      <trkpt lat="48.75817" lon="2.56518">
        <ele>150.837</ele>
        <time>2018-12-12T10:23:05Z</time>
      </trkpt>
      <trkpt lat="48.75822" lon="2.56522">
        <ele>150.837</ele>
        <time>2018-12-12T10:23:07Z</time>
      </trkpt>
      <trkpt lat="48.75825" lon="2.56528">
        <ele>150.843</ele>
        <time>2018-12-12T10:23:11Z</time>
      </trkpt>
      <trkpt lat="48.75828" lon="2.56532">
        <ele>150.851</ele>
        <time>2018-12-12T10:23:14Z</time>
      </trkpt>
      <trkpt lat="48.75828" lon="2.56532">
        <ele>100</ele>
        <time>2018-12-12T10:23:21Z</time>
      </trkpt>
      <trkpt lat="48.75828" lon="2.56532">
        <ele>100</ele>
        <time>2018-12-12T10:23:26Z</time>
      </trkpt>
      <trkpt lat="48.75835" lon="2.56536">
        <ele>150.88</ele>
        <time>2018-12-12T10:23:26Z</time>
      </trkpt>
      <trkpt lat="48.7584" lon="2.56536">
        <ele>150.894</ele>
        <time>2018-12-12T10:23:30Z</time>
      </trkpt>
      <trkpt lat="48.75844" lon="2.56539">
        <ele>150.913</ele>
        <time>2018-12-12T10:23:34Z</time>
      </trkpt>
      <trkpt lat="48.75849" lon="2.56544">
        <ele>150.955</ele>
        <time>2018-12-12T10:23:42Z</time>
      </trkpt>
      <trkpt lat="48.75854" lon="2.56549">
        <ele>150.976</ele>
        <time>2018-12-12T10:23:46Z</time>
      </trkpt>
      <trkpt lat="48.75857" lon="2.56551">
        <ele>150.992</ele>
        <time>2018-12-12T10:23:49Z</time>
      </trkpt>
      <trkpt lat="48.7586" lon="2.56557">
        <ele>151.012</ele>
        <time>2018-12-12T10:23:53Z</time>
      </trkpt>
      <trkpt lat="48.75862" lon="2.5656">
        <ele>151.023</ele>
        <time>2018-12-12T10:23:55Z</time>
      </trkpt>
      <trkpt lat="48.75864" lon="2.56564">
        <ele>151.039</ele>
        <time>2018-12-12T10:23:58Z</time>
      </trkpt>
      <trkpt lat="48.75868" lon="2.56568">
        <ele>151.053</ele>
        <time>2018-12-12T10:24:01Z</time>
      </trkpt>
      <trkpt lat="48.75872" lon="2.56574">
        <ele>151.071</ele>
        <time>2018-12-12T10:24:06Z</time>
      </trkpt>
      <trkpt lat="48.75878" lon="2.56578">
        <ele>151.08</ele>
        <time>2018-12-12T10:24:09Z</time>
      </trkpt>
      <trkpt lat="48.75883" lon="2.56585">
        <ele>151.091</ele>
        <time>2018-12-12T10:24:15Z</time>
      </trkpt>
      <trkpt lat="48.75888" lon="2.56588">
        <ele>151.094</ele>
        <time>2018-12-12T10:24:17Z</time>
      </trkpt>
      <trkpt lat="48.7589" lon="2.5659">
        <ele>151.095</ele>
        <time>2018-12-12T10:24:19Z</time>
      </trkpt>
      <trkpt lat="48.75893" lon="2.56596">
        <ele>151.104</ele>
        <time>2018-12-12T10:24:24Z</time>
      </trkpt>
      <trkpt lat="48.75896" lon="2.566">
        <ele>151.113</ele>
        <time>2018-12-12T10:24:29Z</time>
      </trkpt>
      <trkpt lat="48.75898" lon="2.56603">
        <ele>151.119</ele>
        <time>2018-12-12T10:24:32Z</time>
      </trkpt>
      <trkpt lat="48.75901" lon="2.56607">
        <ele>151.128</ele>
        <time>2018-12-12T10:24:35Z</time>
      </trkpt>
      <trkpt lat="48.75905" lon="2.56611">
        <ele>151.14</ele>
        <time>2018-12-12T10:24:40Z</time>
      </trkpt>
      <trkpt lat="48.75907" lon="2.56613">
        <ele>151.143</ele>
        <time>2018-12-12T10:24:42Z</time>
      </trkpt>
      <trkpt lat="48.75911" lon="2.56617">
        <ele>151.148</ele>
        <time>2018-12-12T10:24:45Z</time>
      </trkpt>
      <trkpt lat="48.75913" lon="2.56619">
        <ele>151.152</ele>
        <time>2018-12-12T10:24:48Z</time>
      </trkpt>
      <trkpt lat="48.75917" lon="2.56624">
        <ele>151.155</ele>
        <time>2018-12-12T10:24:54Z</time>
      </trkpt>
      <trkpt lat="48.75918" lon="2.56628">
        <ele>151.155</ele>
        <time>2018-12-12T10:24:59Z</time>
      </trkpt>
      <trkpt lat="48.75921" lon="2.56631">
        <ele>151.147</ele>
        <time>2018-12-12T10:25:05Z</time>
      </trkpt>
      <trkpt lat="48.75924" lon="2.56634">
        <ele>151.11</ele>
        <time>2018-12-12T10:25:16Z</time>
      </trkpt>
      <trkpt lat="48.75926" lon="2.56637">
        <ele>151.105</ele>
        <time>2018-12-12T10:25:18Z</time>
      </trkpt>
      <trkpt lat="48.75928" lon="2.56639">
        <ele>151.089</ele>
        <time>2018-12-12T10:25:21Z</time>
      </trkpt>
      <trkpt lat="48.75954" lon="2.56647">
        <ele>151.074</ele>
        <time>2018-12-12T10:25:24Z</time>
      </trkpt>
      <trkpt lat="48.75958" lon="2.5665">
        <ele>151.019</ele>
        <time>2018-12-12T10:25:28Z</time>
      </trkpt>
      <trkpt lat="48.75962" lon="2.56646">
        <ele>150.988</ele>
        <time>2018-12-12T10:25:30Z</time>
      </trkpt>
      <trkpt lat="48.75967" lon="2.56649">
        <ele>150.942</ele>
        <time>2018-12-12T10:25:33Z</time>
      </trkpt>
      <trkpt lat="48.7597" lon="2.56651">
        <ele>150.899</ele>
        <time>2018-12-12T10:25:36Z</time>
      </trkpt>
      <trkpt lat="48.75977" lon="2.56652">
        <ele>150.842</ele>
        <time>2018-12-12T10:25:40Z</time>
      </trkpt>
      <trkpt lat="48.75982" lon="2.56657">
        <ele>150.814</ele>
        <time>2018-12-12T10:25:42Z</time>
      </trkpt>
      <trkpt lat="48.7598" lon="2.56665">
        <ele>150.747</ele>
        <time>2018-12-12T10:25:47Z</time>
      </trkpt>
      <trkpt lat="48.75978" lon="2.56671">
        <ele>150.686</ele>
        <time>2018-12-12T10:25:53Z</time>
      </trkpt>
      <trkpt lat="48.75979" lon="2.56678">
        <ele>150.613</ele>
        <time>2018-12-12T10:26:01Z</time>
      </trkpt>
      <trkpt lat="48.75985" lon="2.56681">
        <ele>150.569</ele>
        <time>2018-12-12T10:26:07Z</time>
      </trkpt>
      <trkpt lat="48.7599" lon="2.5668">
        <ele>150.51</ele>
        <time>2018-12-12T10:26:14Z</time>
      </trkpt>
      <trkpt lat="48.75993" lon="2.56679">
        <ele>150.487</ele>
        <time>2018-12-12T10:26:17Z</time>
      </trkpt>
      <trkpt lat="48.75996" lon="2.56679">
        <ele>150.463</ele>
        <time>2018-12-12T10:26:20Z</time>
      </trkpt>
      <trkpt lat="48.75999" lon="2.56678">
        <ele>150.442</ele>
        <time>2018-12-12T10:26:23Z</time>
      </trkpt>
      <trkpt lat="48.76008" lon="2.56676">
        <ele>150.411</ele>
        <time>2018-12-12T10:26:28Z</time>
      </trkpt>
      <trkpt lat="48.76014" lon="2.56676">
        <ele>150.4</ele>
        <time>2018-12-12T10:26:30Z</time>
      </trkpt>
      <trkpt lat="48.7602" lon="2.56679">
        <ele>150.394</ele>
        <time>2018-12-12T10:26:32Z</time>
      </trkpt>
      <trkpt lat="48.76025" lon="2.5668">
        <ele>150.365</ele>
        <time>2018-12-12T10:26:38Z</time>
      </trkpt>
      <trkpt lat="48.76031" lon="2.56675">
        <ele>150.354</ele>
        <time>2018-12-12T10:26:40Z</time>
      </trkpt>
      <trkpt lat="48.76035" lon="2.56672">
        <ele>150.35</ele>
        <time>2018-12-12T10:26:41Z</time>
      </trkpt>
      <trkpt lat="48.76042" lon="2.56667">
        <ele>150.344</ele>
        <time>2018-12-12T10:26:43Z</time>
      </trkpt>
      <trkpt lat="48.76047" lon="2.56664">
        <ele>150.341</ele>
        <time>2018-12-12T10:26:46Z</time>
      </trkpt>
      <trkpt lat="48.76047" lon="2.56664">
        <ele>100.9</ele>
        <time>2018-12-12T10:26:54Z</time>
      </trkpt>
      <trkpt lat="48.76047" lon="2.56664">
        <ele>100.9</ele>
        <time>2018-12-12T10:27:55Z</time>
      </trkpt>
      <trkpt lat="48.76071" lon="2.56628">
        <ele>150.377</ele>
        <time>2018-12-12T10:27:55Z</time>
      </trkpt>
      <trkpt lat="48.76076" lon="2.56624">
        <ele>150.377</ele>
        <time>2018-12-12T10:27:59Z</time>
      </trkpt>
      <trkpt lat="48.76081" lon="2.56622">
        <ele>150.376</ele>
        <time>2018-12-12T10:28:02Z</time>
      </trkpt>
      <trkpt lat="48.76086" lon="2.56618">
        <ele>150.377</ele>
        <time>2018-12-12T10:28:04Z</time>
      </trkpt>
      <trkpt lat="48.7609" lon="2.56615">
        <ele>150.379</ele>
        <time>2018-12-12T10:28:05Z</time>
      </trkpt>
      <trkpt lat="48.76094" lon="2.5661">
        <ele>150.385</ele>
        <time>2018-12-12T10:28:08Z</time>
      </trkpt>
      <trkpt lat="48.76094" lon="2.5661">
        <ele>101</ele>
        <time>2018-12-12T10:28:13Z</time>
      </trkpt>
      <trkpt lat="48.76094" lon="2.5661">
        <ele>101</ele>
        <time>2018-12-12T10:28:17Z</time>
      </trkpt>
      <trkpt lat="48.76101" lon="2.56608">
        <ele>150.405</ele>
        <time>2018-12-12T10:28:17Z</time>
      </trkpt>
      <trkpt lat="48.76107" lon="2.5661">
        <ele>150.409</ele>
        <time>2018-12-12T10:28:19Z</time>
      </trkpt>
      <trkpt lat="48.76113" lon="2.56609">
        <ele>150.414</ele>
        <time>2018-12-12T10:28:22Z</time>
      </trkpt>
      <trkpt lat="48.76117" lon="2.56604">
        <ele>150.435</ele>
        <time>2018-12-12T10:28:32Z</time>
      </trkpt>
      <trkpt lat="48.76119" lon="2.56601">
        <ele>150.443</ele>
        <time>2018-12-12T10:28:36Z</time>
      </trkpt>
      <trkpt lat="48.76126" lon="2.56599">
        <ele>150.451</ele>
        <time>2018-12-12T10:28:41Z</time>
      </trkpt>
      <trkpt lat="48.76131" lon="2.56597">
        <ele>150.454</ele>
        <time>2018-12-12T10:28:44Z</time>
      </trkpt>
      <trkpt lat="48.76136" lon="2.56595">
        <ele>150.455</ele>
        <time>2018-12-12T10:28:46Z</time>
      </trkpt>
      <trkpt lat="48.76143" lon="2.56594">
        <ele>150.456</ele>
        <time>2018-12-12T10:28:48Z</time>
      </trkpt>
      <trkpt lat="48.76149" lon="2.5659">
        <ele>150.457</ele>
        <time>2018-12-12T10:28:50Z</time>
      </trkpt>
      <trkpt lat="48.76151" lon="2.56588">
        <ele>150.459</ele>
        <time>2018-12-12T10:28:54Z</time>
      </trkpt>
      <trkpt lat="48.76156" lon="2.56582">
        <ele>150.465</ele>
        <time>2018-12-12T10:29:00Z</time>
      </trkpt>
      <trkpt lat="48.7616" lon="2.56575">
        <ele>150.471</ele>
        <time>2018-12-12T10:29:04Z</time>
      </trkpt>
      <trkpt lat="48.76164" lon="2.56571">
        <ele>150.475</ele>
        <time>2018-12-12T10:29:09Z</time>
      </trkpt>
      <trkpt lat="48.76169" lon="2.56568">
        <ele>150.477</ele>
        <time>2018-12-12T10:29:14Z</time>
      </trkpt>
      <trkpt lat="48.76172" lon="2.56563">
        <ele>150.481</ele>
        <time>2018-12-12T10:29:20Z</time>
      </trkpt>
      <trkpt lat="48.76176" lon="2.56558">
        <ele>150.484</ele>
        <time>2018-12-12T10:29:24Z</time>
      </trkpt>
      <trkpt lat="48.76182" lon="2.56557">
        <ele>150.483</ele>
        <time>2018-12-12T10:29:31Z</time>
      </trkpt>
      <trkpt lat="48.76187" lon="2.56557">
        <ele>150.482</ele>
        <time>2018-12-12T10:29:33Z</time>
      </trkpt>
      <trkpt lat="48.7619" lon="2.56557">
        <ele>150.482</ele>
        <time>2018-12-12T10:29:34Z</time>
      </trkpt>
      <trkpt lat="48.76195" lon="2.56555">
        <ele>150.483</ele>
        <time>2018-12-12T10:29:36Z</time>
      </trkpt>
      <trkpt lat="48.76199" lon="2.56553">
        <ele>150.485</ele>
        <time>2018-12-12T10:29:38Z</time>
      </trkpt>
      <trkpt lat="48.76203" lon="2.56551">
        <ele>150.487</ele>
        <time>2018-12-12T10:29:41Z</time>
      </trkpt>
      <trkpt lat="48.76206" lon="2.56545">
        <ele>150.489</ele>
        <time>2018-12-12T10:29:45Z</time>
      </trkpt>
      <trkpt lat="48.76208" lon="2.56541">
        <ele>150.493</ele>
        <time>2018-12-12T10:29:49Z</time>
      </trkpt>
      <trkpt lat="48.76211" lon="2.56536">
        <ele>150.5</ele>
        <time>2018-12-12T10:29:56Z</time>
      </trkpt>
      <trkpt lat="48.76214" lon="2.5653">
        <ele>150.505</ele>
        <time>2018-12-12T10:30:00Z</time>
      </trkpt>
      <trkpt lat="48.76219" lon="2.56524">
        <ele>150.51</ele>
        <time>2018-12-12T10:30:05Z</time>
      </trkpt>
      <trkpt lat="48.76222" lon="2.56518">
        <ele>150.512</ele>
        <time>2018-12-12T10:30:09Z</time>
      </trkpt>
      <trkpt lat="48.76223" lon="2.56514">
        <ele>150.513</ele>
        <time>2018-12-12T10:30:12Z</time>
      </trkpt>
      <trkpt lat="48.76225" lon="2.5651">
        <ele>150.514</ele>
        <time>2018-12-12T10:30:16Z</time>
      </trkpt>
      <trkpt lat="48.76226" lon="2.56507">
        <ele>150.515</ele>
        <time>2018-12-12T10:30:18Z</time>
      </trkpt>
      <trkpt lat="48.7623" lon="2.56503">
        <ele>150.514</ele>
        <time>2018-12-12T10:30:22Z</time>
      </trkpt>
      <trkpt lat="48.76232" lon="2.56495">
        <ele>150.508</ele>
        <time>2018-12-12T10:30:27Z</time>
      </trkpt>
      <trkpt lat="48.76234" lon="2.56488">
        <ele>150.504</ele>
        <time>2018-12-12T10:30:31Z</time>
      </trkpt>
      <trkpt lat="48.76238" lon="2.56482">
        <ele>150.493</ele>
        <time>2018-12-12T10:30:38Z</time>
      </trkpt>
      <trkpt lat="48.76239" lon="2.56475">
        <ele>150.487</ele>
        <time>2018-12-12T10:30:42Z</time>
      </trkpt>
      <trkpt lat="48.76241" lon="2.56468">
        <ele>150.48</ele>
        <time>2018-12-12T10:30:46Z</time>
      </trkpt>
      <trkpt lat="48.76241" lon="2.56461">
        <ele>150.473</ele>
        <time>2018-12-12T10:30:49Z</time>
      </trkpt>
      <trkpt lat="48.76241" lon="2.56461">
        <ele>101</ele>
        <time>2018-12-12T10:30:56Z</time>
      </trkpt>
      <trkpt lat="48.76241" lon="2.56461">
        <ele>101</ele>
        <time>2018-12-12T10:31:04Z</time>
      </trkpt>
      <trkpt lat="48.76253" lon="2.56444">
        <ele>150.45</ele>
        <time>2018-12-12T10:31:06Z</time>
      </trkpt>
      <trkpt lat="48.76257" lon="2.56439">
        <ele>150.445</ele>
        <time>2018-12-12T10:31:11Z</time>
      </trkpt>
      <trkpt lat="48.76266" lon="2.56432">
        <ele>150.441</ele>
        <time>2018-12-12T10:31:16Z</time>
      </trkpt>
      <trkpt lat="48.7627" lon="2.56426">
        <ele>150.438</ele>
        <time>2018-12-12T10:31:20Z</time>
      </trkpt>
      <trkpt lat="48.76272" lon="2.56421">
        <ele>150.435</ele>
        <time>2018-12-12T10:31:23Z</time>
      </trkpt>
      <trkpt lat="48.76277" lon="2.5642">
        <ele>150.433</ele>
        <time>2018-12-12T10:31:25Z</time>
      </trkpt>
      <trkpt lat="48.76283" lon="2.56419">
        <ele>150.433</ele>
        <time>2018-12-12T10:31:27Z</time>
      </trkpt>
      <trkpt lat="48.76287" lon="2.56415">
        <ele>150.433</ele>
        <time>2018-12-12T10:31:32Z</time>
      </trkpt>
      <trkpt lat="48.76289" lon="2.56407">
        <ele>150.428</ele>
        <time>2018-12-12T10:31:37Z</time>
      </trkpt>
      <trkpt lat="48.7629" lon="2.56403">
        <ele>150.426</ele>
        <time>2018-12-12T10:31:41Z</time>
      </trkpt>
      <trkpt lat="48.76294" lon="2.56398">
        <ele>150.424</ele>
        <time>2018-12-12T10:31:45Z</time>
      </trkpt>
      <trkpt lat="48.76297" lon="2.56392">
        <ele>150.424</ele>
        <time>2018-12-12T10:31:49Z</time>
      </trkpt>
      <trkpt lat="48.76299" lon="2.56384">
        <ele>150.424</ele>
        <time>2018-12-12T10:31:53Z</time>
      </trkpt>
      <trkpt lat="48.76301" lon="2.56377">
        <ele>150.423</ele>
        <time>2018-12-12T10:31:59Z</time>
      </trkpt>
      <trkpt lat="48.76302" lon="2.56369">
        <ele>150.423</ele>
        <time>2018-12-12T10:32:02Z</time>
      </trkpt>
      <trkpt lat="48.76302" lon="2.56361">
        <ele>150.425</ele>
        <time>2018-12-12T10:32:08Z</time>
      </trkpt>
      <trkpt lat="48.76301" lon="2.56352">
        <ele>150.428</ele>
        <time>2018-12-12T10:32:11Z</time>
      </trkpt>
      <trkpt lat="48.763" lon="2.56348">
        <ele>150.429</ele>
        <time>2018-12-12T10:32:12Z</time>
      </trkpt>
      <trkpt lat="48.76302" lon="2.56341">
        <ele>150.431</ele>
        <time>2018-12-12T10:32:16Z</time>
      </trkpt>
      <trkpt lat="48.76305" lon="2.56332">
        <ele>150.432</ele>
        <time>2018-12-12T10:32:19Z</time>
      </trkpt>
      <trkpt lat="48.76306" lon="2.56324">
        <ele>150.435</ele>
        <time>2018-12-12T10:32:22Z</time>
      </trkpt>
      <trkpt lat="48.76307" lon="2.56317">
        <ele>150.44</ele>
        <time>2018-12-12T10:32:25Z</time>
      </trkpt>
      <trkpt lat="48.76308" lon="2.56314">
        <ele>150.444</ele>
        <time>2018-12-12T10:32:27Z</time>
      </trkpt>
      <trkpt lat="48.76311" lon="2.56307">
        <ele>150.45</ele>
        <time>2018-12-12T10:32:31Z</time>
      </trkpt>
      <trkpt lat="48.76313" lon="2.56299">
        <ele>150.455</ele>
        <time>2018-12-12T10:32:35Z</time>
      </trkpt>
      <trkpt lat="48.76314" lon="2.56296">
        <ele>150.457</ele>
        <time>2018-12-12T10:32:37Z</time>
      </trkpt>
      <trkpt lat="48.76315" lon="2.5629">
        <ele>150.459</ele>
        <time>2018-12-12T10:32:40Z</time>
      </trkpt>
      <trkpt lat="48.76316" lon="2.56286">
        <ele>150.461</ele>
        <time>2018-12-12T10:32:42Z</time>
      </trkpt>
      <trkpt lat="48.76317" lon="2.5628">
        <ele>150.464</ele>
        <time>2018-12-12T10:32:45Z</time>
      </trkpt>
      <trkpt lat="48.76319" lon="2.56273">
        <ele>150.469</ele>
        <time>2018-12-12T10:32:48Z</time>
      </trkpt>
      <trkpt lat="48.7632" lon="2.56266">
        <ele>150.476</ele>
        <time>2018-12-12T10:32:52Z</time>
      </trkpt>
      <trkpt lat="48.76318" lon="2.56257">
        <ele>150.483</ele>
        <time>2018-12-12T10:32:56Z</time>
      </trkpt>
      <trkpt lat="48.7632" lon="2.5625">
        <ele>150.49</ele>
        <time>2018-12-12T10:33:00Z</time>
      </trkpt>
      <trkpt lat="48.76321" lon="2.56246">
        <ele>150.495</ele>
        <time>2018-12-12T10:33:03Z</time>
      </trkpt>
      <trkpt lat="48.76323" lon="2.56239">
        <ele>150.502</ele>
        <time>2018-12-12T10:33:07Z</time>
      </trkpt>
      <trkpt lat="48.76324" lon="2.56235">
        <ele>150.505</ele>
        <time>2018-12-12T10:33:09Z</time>
      </trkpt>
      <trkpt lat="48.76326" lon="2.56228">
        <ele>150.511</ele>
        <time>2018-12-12T10:33:13Z</time>
      </trkpt>
      <trkpt lat="48.76327" lon="2.56224">
        <ele>150.514</ele>
        <time>2018-12-12T10:33:15Z</time>
      </trkpt>
      <trkpt lat="48.76328" lon="2.56221">
        <ele>150.517</ele>
        <time>2018-12-12T10:33:17Z</time>
      </trkpt>
      <trkpt lat="48.76331" lon="2.56216">
        <ele>150.523</ele>
        <time>2018-12-12T10:33:21Z</time>
      </trkpt>
      <trkpt lat="48.76334" lon="2.56212">
        <ele>150.529</ele>
        <time>2018-12-12T10:33:24Z</time>
      </trkpt>
      <trkpt lat="48.76337" lon="2.56206">
        <ele>150.539</ele>
        <time>2018-12-12T10:33:27Z</time>
      </trkpt>
      <trkpt lat="48.76339" lon="2.56203">
        <ele>150.553</ele>
        <time>2018-12-12T10:33:30Z</time>
      </trkpt>
      <trkpt lat="48.7634" lon="2.56195">
        <ele>150.596</ele>
        <time>2018-12-12T10:33:36Z</time>
      </trkpt>
      <trkpt lat="48.76341" lon="2.56192">
        <ele>150.624</ele>
        <time>2018-12-12T10:33:39Z</time>
      </trkpt>
      <trkpt lat="48.76345" lon="2.56184">
        <ele>150.706</ele>
        <time>2018-12-12T10:33:46Z</time>
      </trkpt>
      <trkpt lat="48.7635" lon="2.56174">
        <ele>150.803</ele>
        <time>2018-12-12T10:33:53Z</time>
      </trkpt>
      <trkpt lat="48.76351" lon="2.56167">
        <ele>150.858</ele>
        <time>2018-12-12T10:33:57Z</time>
      </trkpt>
      <trkpt lat="48.76353" lon="2.5616">
        <ele>150.901</ele>
        <time>2018-12-12T10:34:00Z</time>
      </trkpt>
      <trkpt lat="48.76355" lon="2.56154">
        <ele>150.959</ele>
        <time>2018-12-12T10:34:04Z</time>
      </trkpt>
      <trkpt lat="48.76356" lon="2.56145">
        <ele>151.018</ele>
        <time>2018-12-12T10:34:08Z</time>
      </trkpt>
      <trkpt lat="48.76357" lon="2.56139">
        <ele>151.051</ele>
        <time>2018-12-12T10:34:10Z</time>
      </trkpt>
      <trkpt lat="48.76359" lon="2.56131">
        <ele>151.132</ele>
        <time>2018-12-12T10:34:15Z</time>
      </trkpt>
      <trkpt lat="48.76363" lon="2.56123">
        <ele>151.21</ele>
        <time>2018-12-12T10:34:20Z</time>
      </trkpt>
      <trkpt lat="48.76364" lon="2.56117">
        <ele>151.273</ele>
        <time>2018-12-12T10:34:24Z</time>
      </trkpt>
      <trkpt lat="48.76365" lon="2.5611">
        <ele>151.33</ele>
        <time>2018-12-12T10:34:28Z</time>
      </trkpt>
      <trkpt lat="48.76368" lon="2.56103">
        <ele>151.383</ele>
        <time>2018-12-12T10:34:32Z</time>
      </trkpt>
      <trkpt lat="48.76368" lon="2.56094">
        <ele>151.432</ele>
        <time>2018-12-12T10:34:36Z</time>
      </trkpt>
      <trkpt lat="48.7637" lon="2.56086">
        <ele>151.477</ele>
        <time>2018-12-12T10:34:40Z</time>
      </trkpt>
      <trkpt lat="48.76371" lon="2.56082">
        <ele>151.488</ele>
        <time>2018-12-12T10:34:41Z</time>
      </trkpt>
      <trkpt lat="48.76372" lon="2.56075">
        <ele>151.529</ele>
        <time>2018-12-12T10:34:45Z</time>
      </trkpt>
      <trkpt lat="48.76374" lon="2.56069">
        <ele>151.558</ele>
        <time>2018-12-12T10:34:48Z</time>
      </trkpt>
      <trkpt lat="48.76378" lon="2.56065">
        <ele>151.605</ele>
        <time>2018-12-12T10:34:53Z</time>
      </trkpt>
      <trkpt lat="48.76382" lon="2.56059">
        <ele>151.623</ele>
        <time>2018-12-12T10:34:55Z</time>
      </trkpt>
      <trkpt lat="48.76383" lon="2.56056">
        <ele>151.641</ele>
        <time>2018-12-12T10:34:57Z</time>
      </trkpt>
      <trkpt lat="48.76386" lon="2.56048">
        <ele>151.691</ele>
        <time>2018-12-12T10:35:03Z</time>
      </trkpt>
      <trkpt lat="48.76387" lon="2.56041">
        <ele>151.715</ele>
        <time>2018-12-12T10:35:06Z</time>
      </trkpt>
      <trkpt lat="48.7639" lon="2.56035">
        <ele>151.751</ele>
        <time>2018-12-12T10:35:11Z</time>
      </trkpt>
      <trkpt lat="48.76392" lon="2.56032">
        <ele>151.772</ele>
        <time>2018-12-12T10:35:15Z</time>
      </trkpt>
      <trkpt lat="48.76393" lon="2.56025">
        <ele>151.806</ele>
        <time>2018-12-12T10:35:20Z</time>
      </trkpt>
      <trkpt lat="48.76394" lon="2.56017">
        <ele>151.832</ele>
        <time>2018-12-12T10:35:24Z</time>
      </trkpt>
      <trkpt lat="48.76396" lon="2.56009">
        <ele>151.868</ele>
        <time>2018-12-12T10:35:30Z</time>
      </trkpt>
      <trkpt lat="48.76395" lon="2.56001">
        <ele>151.886</ele>
        <time>2018-12-12T10:35:33Z</time>
      </trkpt>
      <trkpt lat="48.76397" lon="2.5599">
        <ele>151.909</ele>
        <time>2018-12-12T10:35:37Z</time>
      </trkpt>
      <trkpt lat="48.76398" lon="2.55986">
        <ele>151.927</ele>
        <time>2018-12-12T10:35:40Z</time>
      </trkpt>
      <trkpt lat="48.76399" lon="2.5598">
        <ele>151.94</ele>
        <time>2018-12-12T10:35:42Z</time>
      </trkpt>
      <trkpt lat="48.76401" lon="2.55973">
        <ele>151.968</ele>
        <time>2018-12-12T10:35:46Z</time>
      </trkpt>
      <trkpt lat="48.76404" lon="2.55967">
        <ele>151.99</ele>
        <time>2018-12-12T10:35:49Z</time>
      </trkpt>
      <trkpt lat="48.76405" lon="2.55958">
        <ele>152.027</ele>
        <time>2018-12-12T10:35:54Z</time>
      </trkpt>
      <trkpt lat="48.76406" lon="2.55954">
        <ele>152.041</ele>
        <time>2018-12-12T10:35:56Z</time>
      </trkpt>
      <trkpt lat="48.76408" lon="2.55947">
        <ele>152.071</ele>
        <time>2018-12-12T10:36:00Z</time>
      </trkpt>
      <trkpt lat="48.76412" lon="2.55942">
        <ele>152.121</ele>
        <time>2018-12-12T10:36:07Z</time>
      </trkpt>
      <trkpt lat="48.76413" lon="2.55935">
        <ele>152.155</ele>
        <time>2018-12-12T10:36:12Z</time>
      </trkpt>
      <trkpt lat="48.76415" lon="2.55929">
        <ele>152.174</ele>
        <time>2018-12-12T10:36:15Z</time>
      </trkpt>
      <trkpt lat="48.76419" lon="2.55923">
        <ele>152.215</ele>
        <time>2018-12-12T10:36:21Z</time>
      </trkpt>
      <trkpt lat="48.7642" lon="2.55914">
        <ele>152.234</ele>
        <time>2018-12-12T10:36:24Z</time>
      </trkpt>
      <trkpt lat="48.76421" lon="2.55906">
        <ele>152.253</ele>
        <time>2018-12-12T10:36:27Z</time>
      </trkpt>
      <trkpt lat="48.76422" lon="2.55898">
        <ele>152.28</ele>
        <time>2018-12-12T10:36:31Z</time>
      </trkpt>
      <trkpt lat="48.76422" lon="2.55893">
        <ele>152.302</ele>
        <time>2018-12-12T10:36:35Z</time>
      </trkpt>
      <trkpt lat="48.76423" lon="2.55885">
        <ele>152.322</ele>
        <time>2018-12-12T10:36:38Z</time>
      </trkpt>
      <trkpt lat="48.76423" lon="2.5588">
        <ele>152.334</ele>
        <time>2018-12-12T10:36:40Z</time>
      </trkpt>
      <trkpt lat="48.76424" lon="2.55873">
        <ele>152.364</ele>
        <time>2018-12-12T10:36:45Z</time>
      </trkpt>
      <trkpt lat="48.76426" lon="2.55866">
        <ele>152.382</ele>
        <time>2018-12-12T10:36:48Z</time>
      </trkpt>
      <trkpt lat="48.7643" lon="2.5586">
        <ele>152.403</ele>
        <time>2018-12-12T10:36:51Z</time>
      </trkpt>
      <trkpt lat="48.76433" lon="2.55854">
        <ele>152.427</ele>
        <time>2018-12-12T10:36:54Z</time>
      </trkpt>
      <trkpt lat="48.76436" lon="2.55847">
        <ele>152.459</ele>
        <time>2018-12-12T10:36:58Z</time>
      </trkpt>
      <trkpt lat="48.7644" lon="2.55844">
        <ele>152.5</ele>
        <time>2018-12-12T10:37:03Z</time>
      </trkpt>
      <trkpt lat="48.76444" lon="2.55838">
        <ele>152.539</ele>
        <time>2018-12-12T10:37:08Z</time>
      </trkpt>
      <trkpt lat="48.76445" lon="2.5583">
        <ele>152.566</ele>
        <time>2018-12-12T10:37:12Z</time>
      </trkpt>
      <trkpt lat="48.76448" lon="2.55824">
        <ele>152.6</ele>
        <time>2018-12-12T10:37:18Z</time>
      </trkpt>
      <trkpt lat="48.76449" lon="2.55817">
        <ele>152.62</ele>
        <time>2018-12-12T10:37:22Z</time>
      </trkpt>
      <trkpt lat="48.76448" lon="2.55809">
        <ele>152.628</ele>
        <time>2018-12-12T10:37:25Z</time>
      </trkpt>
      <trkpt lat="48.7645" lon="2.55802">
        <ele>152.641</ele>
        <time>2018-12-12T10:37:28Z</time>
      </trkpt>
      <trkpt lat="48.76452" lon="2.55799">
        <ele>152.646</ele>
        <time>2018-12-12T10:37:30Z</time>
      </trkpt>
      <trkpt lat="48.76453" lon="2.55791">
        <ele>152.665</ele>
        <time>2018-12-12T10:37:34Z</time>
      </trkpt>
      <trkpt lat="48.76453" lon="2.55783">
        <ele>152.687</ele>
        <time>2018-12-12T10:37:41Z</time>
      </trkpt>
      <trkpt lat="48.76451" lon="2.55776">
        <ele>152.702</ele>
        <time>2018-12-12T10:37:45Z</time>
      </trkpt>
      <trkpt lat="48.7645" lon="2.55772">
        <ele>152.71</ele>
        <time>2018-12-12T10:37:48Z</time>
      </trkpt>
      <trkpt lat="48.76448" lon="2.55767">
        <ele>152.715</ele>
        <time>2018-12-12T10:37:50Z</time>
      </trkpt>
      <trkpt lat="48.76448" lon="2.55758">
        <ele>152.724</ele>
        <time>2018-12-12T10:37:53Z</time>
      </trkpt>
      <trkpt lat="48.76445" lon="2.55747">
        <ele>152.741</ele>
        <time>2018-12-12T10:37:58Z</time>
      </trkpt>
      <trkpt lat="48.76445" lon="2.55737">
        <ele>152.764</ele>
        <time>2018-12-12T10:38:03Z</time>
      </trkpt>
      <trkpt lat="48.76442" lon="2.55731">
        <ele>152.785</ele>
        <time>2018-12-12T10:38:07Z</time>
      </trkpt>
      <trkpt lat="48.76441" lon="2.55722">
        <ele>152.812</ele>
        <time>2018-12-12T10:38:12Z</time>
      </trkpt>
      <trkpt lat="48.76439" lon="2.55716">
        <ele>152.831</ele>
        <time>2018-12-12T10:38:15Z</time>
      </trkpt>
      <trkpt lat="48.76439" lon="2.55707">
        <ele>152.874</ele>
        <time>2018-12-12T10:38:21Z</time>
      </trkpt>
      <trkpt lat="48.76439" lon="2.557">
        <ele>152.909</ele>
        <time>2018-12-12T10:38:26Z</time>
      </trkpt>
      <trkpt lat="48.76437" lon="2.55693">
        <ele>152.927</ele>
        <time>2018-12-12T10:38:32Z</time>
      </trkpt>
      <trkpt lat="48.76436" lon="2.55687">
        <ele>152.99</ele>
        <time>2018-12-12T10:38:44Z</time>
      </trkpt>
      <trkpt lat="48.76435" lon="2.55683">
        <ele>153.029</ele>
        <time>2018-12-12T10:38:52Z</time>
      </trkpt>
      <trkpt lat="48.76434" lon="2.5568">
        <ele>153.066</ele>
        <time>2018-12-12T10:39:05Z</time>
      </trkpt>
      <trkpt lat="48.76433" lon="2.55676">
        <ele>153.17</ele>
        <time>2018-12-12T10:39:29Z</time>
      </trkpt>
      <trkpt lat="48.76432" lon="2.55673">
        <ele>153.199</ele>
        <time>2018-12-12T10:39:38Z</time>
      </trkpt>
      <trkpt lat="48.76427" lon="2.5567">
        <ele>153.209</ele>
        <time>2018-12-12T10:39:41Z</time>
      </trkpt>
      <trkpt lat="48.76422" lon="2.55666">
        <ele>153.217</ele>
        <time>2018-12-12T10:39:44Z</time>
      </trkpt>
      <trkpt lat="48.76419" lon="2.55661">
        <ele>153.236</ele>
        <time>2018-12-12T10:39:52Z</time>
      </trkpt>
      <trkpt lat="48.76416" lon="2.55654">
        <ele>153.244</ele>
        <time>2018-12-12T10:39:55Z</time>
      </trkpt>
      <trkpt lat="48.76412" lon="2.5565">
        <ele>153.266</ele>
        <time>2018-12-12T10:40:03Z</time>
      </trkpt>
      <trkpt lat="48.76409" lon="2.55647">
        <ele>153.277</ele>
        <time>2018-12-12T10:40:07Z</time>
      </trkpt>
      <trkpt lat="48.76405" lon="2.5564">
        <ele>153.286</ele>
        <time>2018-12-12T10:40:10Z</time>
      </trkpt>
      <trkpt lat="48.76403" lon="2.55636">
        <ele>153.294</ele>
        <time>2018-12-12T10:40:13Z</time>
      </trkpt>
      <trkpt lat="48.764" lon="2.5563">
        <ele>153.302</ele>
        <time>2018-12-12T10:40:17Z</time>
      </trkpt>
      <trkpt lat="48.76398" lon="2.55627">
        <ele>153.305</ele>
        <time>2018-12-12T10:40:19Z</time>
      </trkpt>
      <trkpt lat="48.76396" lon="2.55624">
        <ele>153.309</ele>
        <time>2018-12-12T10:40:21Z</time>
      </trkpt>
      <trkpt lat="48.76396" lon="2.55624">
        <ele>101</ele>
        <time>2018-12-12T10:40:29Z</time>
      </trkpt>
      <trkpt lat="48.76396" lon="2.55624">
        <ele>101</ele>
        <time>2018-12-12T10:40:36Z</time>
      </trkpt>
      <trkpt lat="48.76395" lon="2.55615">
        <ele>153.308</ele>
        <time>2018-12-12T10:40:36Z</time>
      </trkpt>
      <trkpt lat="48.76388" lon="2.55605">
        <ele>153.302</ele>
        <time>2018-12-12T10:40:40Z</time>
      </trkpt>
      <trkpt lat="48.76387" lon="2.55597">
        <ele>153.3</ele>
        <time>2018-12-12T10:40:43Z</time>
      </trkpt>
      <trkpt lat="48.76385" lon="2.55591">
        <ele>153.299</ele>
        <time>2018-12-12T10:40:45Z</time>
      </trkpt>
      <trkpt lat="48.76383" lon="2.55585">
        <ele>153.298</ele>
        <time>2018-12-12T10:40:48Z</time>
      </trkpt>
      <trkpt lat="48.76379" lon="2.55579">
        <ele>153.296</ele>
        <time>2018-12-12T10:40:51Z</time>
      </trkpt>
      <trkpt lat="48.76376" lon="2.55571">
        <ele>153.29</ele>
        <time>2018-12-12T10:40:56Z</time>
      </trkpt>
      <trkpt lat="48.76375" lon="2.55563">
        <ele>153.286</ele>
        <time>2018-12-12T10:40:59Z</time>
      </trkpt>
      <trkpt lat="48.76374" lon="2.55551">
        <ele>153.283</ele>
        <time>2018-12-12T10:41:03Z</time>
      </trkpt>
      <trkpt lat="48.76371" lon="2.55546">
        <ele>153.28</ele>
        <time>2018-12-12T10:41:07Z</time>
      </trkpt>
      <trkpt lat="48.76368" lon="2.55541">
        <ele>153.279</ele>
        <time>2018-12-12T10:41:09Z</time>
      </trkpt>
      <trkpt lat="48.76366" lon="2.55534">
        <ele>153.277</ele>
        <time>2018-12-12T10:41:12Z</time>
      </trkpt>
      <trkpt lat="48.76365" lon="2.55529">
        <ele>153.276</ele>
        <time>2018-12-12T10:41:14Z</time>
      </trkpt>
      <trkpt lat="48.7636" lon="2.55523">
        <ele>153.276</ele>
        <time>2018-12-12T10:41:19Z</time>
      </trkpt>
      <trkpt lat="48.76357" lon="2.55516">
        <ele>153.274</ele>
        <time>2018-12-12T10:41:23Z</time>
      </trkpt>
      <trkpt lat="48.76356" lon="2.55512">
        <ele>153.272</ele>
        <time>2018-12-12T10:41:26Z</time>
      </trkpt>
      <trkpt lat="48.76354" lon="2.55504">
        <ele>153.273</ele>
        <time>2018-12-12T10:41:30Z</time>
      </trkpt>
      <trkpt lat="48.76351" lon="2.55497">
        <ele>153.276</ele>
        <time>2018-12-12T10:41:34Z</time>
      </trkpt>
      <trkpt lat="48.7635" lon="2.55492">
        <ele>153.277</ele>
        <time>2018-12-12T10:41:36Z</time>
      </trkpt>
      <trkpt lat="48.76349" lon="2.55488">
        <ele>153.28</ele>
        <time>2018-12-12T10:41:39Z</time>
      </trkpt>
      <trkpt lat="48.76348" lon="2.55482">
        <ele>153.282</ele>
        <time>2018-12-12T10:41:41Z</time>
      </trkpt>
      <trkpt lat="48.76347" lon="2.55477">
        <ele>153.287</ele>
        <time>2018-12-12T10:41:44Z</time>
      </trkpt>
      <trkpt lat="48.76345" lon="2.5547">
        <ele>153.293</ele>
        <time>2018-12-12T10:41:49Z</time>
      </trkpt>
      <trkpt lat="48.76343" lon="2.55467">
        <ele>153.297</ele>
        <time>2018-12-12T10:41:51Z</time>
      </trkpt>
      <trkpt lat="48.76342" lon="2.55464">
        <ele>153.3</ele>
        <time>2018-12-12T10:41:53Z</time>
      </trkpt>
      <trkpt lat="48.7634" lon="2.55459">
        <ele>153.305</ele>
        <time>2018-12-12T10:41:56Z</time>
      </trkpt>
      <trkpt lat="48.76337" lon="2.55453">
        <ele>153.311</ele>
        <time>2018-12-12T10:42:00Z</time>
      </trkpt>
      <trkpt lat="48.76334" lon="2.55445">
        <ele>153.316</ele>
        <time>2018-12-12T10:42:04Z</time>
      </trkpt>
      <trkpt lat="48.76329" lon="2.55438">
        <ele>153.32</ele>
        <time>2018-12-12T10:42:08Z</time>
      </trkpt>
      <trkpt lat="48.76327" lon="2.5543">
        <ele>153.324</ele>
        <time>2018-12-12T10:42:12Z</time>
      </trkpt>
      <trkpt lat="48.76325" lon="2.55424">
        <ele>153.329</ele>
        <time>2018-12-12T10:42:16Z</time>
      </trkpt>
      <trkpt lat="48.76323" lon="2.55421">
        <ele>153.33</ele>
        <time>2018-12-12T10:42:18Z</time>
      </trkpt>
      <trkpt lat="48.76321" lon="2.55412">
        <ele>153.334</ele>
        <time>2018-12-12T10:42:22Z</time>
      </trkpt>
      <trkpt lat="48.76317" lon="2.55407">
        <ele>153.34</ele>
        <time>2018-12-12T10:42:28Z</time>
      </trkpt>
      <trkpt lat="48.76315" lon="2.55404">
        <ele>153.341</ele>
        <time>2018-12-12T10:42:30Z</time>
      </trkpt>
      <trkpt lat="48.76313" lon="2.55398">
        <ele>153.343</ele>
        <time>2018-12-12T10:42:33Z</time>
      </trkpt>
      <trkpt lat="48.76312" lon="2.55395">
        <ele>153.344</ele>
        <time>2018-12-12T10:42:35Z</time>
      </trkpt>
      <trkpt lat="48.76308" lon="2.55389">
        <ele>153.347</ele>
        <time>2018-12-12T10:42:38Z</time>
      </trkpt>
      <trkpt lat="48.76305" lon="2.55385">
        <ele>153.349</ele>
        <time>2018-12-12T10:42:40Z</time>
      </trkpt>
      <trkpt lat="48.76303" lon="2.55377">
        <ele>153.353</ele>
        <time>2018-12-12T10:42:44Z</time>
      </trkpt>
      <trkpt lat="48.76301" lon="2.55374">
        <ele>153.356</ele>
        <time>2018-12-12T10:42:46Z</time>
      </trkpt>
      <trkpt lat="48.763" lon="2.55367">
        <ele>153.368</ele>
        <time>2018-12-12T10:42:51Z</time>
      </trkpt>
      <trkpt lat="48.76298" lon="2.55361">
        <ele>153.379</ele>
        <time>2018-12-12T10:42:55Z</time>
      </trkpt>
      <trkpt lat="48.76296" lon="2.55355">
        <ele>153.39</ele>
        <time>2018-12-12T10:42:58Z</time>
      </trkpt>
      <trkpt lat="48.76295" lon="2.5535">
        <ele>153.397</ele>
        <time>2018-12-12T10:43:00Z</time>
      </trkpt>
      <trkpt lat="48.76294" lon="2.55347">
        <ele>153.404</ele>
        <time>2018-12-12T10:43:02Z</time>
      </trkpt>
      <trkpt lat="48.76292" lon="2.55339">
        <ele>153.419</ele>
        <time>2018-12-12T10:43:06Z</time>
      </trkpt>
      <trkpt lat="48.76288" lon="2.55335">
        <ele>153.428</ele>
        <time>2018-12-12T10:43:09Z</time>
      </trkpt>
      <trkpt lat="48.76286" lon="2.55332">
        <ele>153.434</ele>
        <time>2018-12-12T10:43:11Z</time>
      </trkpt>
      <trkpt lat="48.76284" lon="2.5533">
        <ele>153.439</ele>
        <time>2018-12-12T10:43:13Z</time>
      </trkpt>
      <trkpt lat="48.76281" lon="2.55324">
        <ele>153.446</ele>
        <time>2018-12-12T10:43:16Z</time>
      </trkpt>
      <trkpt lat="48.76278" lon="2.55316">
        <ele>153.456</ele>
        <time>2018-12-12T10:43:20Z</time>
      </trkpt>
      <trkpt lat="48.76276" lon="2.55306">
        <ele>153.466</ele>
        <time>2018-12-12T10:43:23Z</time>
      </trkpt>
      <trkpt lat="48.76276" lon="2.55299">
        <ele>153.487</ele>
        <time>2018-12-12T10:43:27Z</time>
      </trkpt>
      <trkpt lat="48.76272" lon="2.55291">
        <ele>153.53</ele>
        <time>2018-12-12T10:43:32Z</time>
      </trkpt>
      <trkpt lat="48.76271" lon="2.55286">
        <ele>153.55</ele>
        <time>2018-12-12T10:43:34Z</time>
      </trkpt>
      <trkpt lat="48.76267" lon="2.5528">
        <ele>153.584</ele>
        <time>2018-12-12T10:43:37Z</time>
      </trkpt>
      <trkpt lat="48.76264" lon="2.55275">
        <ele>153.608</ele>
        <time>2018-12-12T10:43:39Z</time>
      </trkpt>
      <trkpt lat="48.7626" lon="2.5527">
        <ele>153.658</ele>
        <time>2018-12-12T10:43:43Z</time>
      </trkpt>
      <trkpt lat="48.76258" lon="2.55263">
        <ele>153.716</ele>
        <time>2018-12-12T10:43:47Z</time>
      </trkpt>
      <trkpt lat="48.76256" lon="2.55256">
        <ele>153.812</ele>
        <time>2018-12-12T10:43:53Z</time>
      </trkpt>
      <trkpt lat="48.76256" lon="2.55252">
        <ele>153.846</ele>
        <time>2018-12-12T10:43:55Z</time>
      </trkpt>
      <trkpt lat="48.76255" lon="2.55249">
        <ele>153.88</ele>
        <time>2018-12-12T10:43:57Z</time>
      </trkpt>
      <trkpt lat="48.76254" lon="2.55245">
        <ele>153.915</ele>
        <time>2018-12-12T10:43:59Z</time>
      </trkpt>
      <trkpt lat="48.7625" lon="2.55236">
        <ele>154.044</ele>
        <time>2018-12-12T10:44:06Z</time>
      </trkpt>
      <trkpt lat="48.76248" lon="2.55228">
        <ele>154.198</ele>
        <time>2018-12-12T10:44:14Z</time>
      </trkpt>
      <trkpt lat="48.76247" lon="2.55223">
        <ele>154.259</ele>
        <time>2018-12-12T10:44:17Z</time>
      </trkpt>
      <trkpt lat="48.76246" lon="2.55216">
        <ele>154.339</ele>
        <time>2018-12-12T10:44:21Z</time>
      </trkpt>
      <trkpt lat="48.76242" lon="2.55212">
        <ele>154.402</ele>
        <time>2018-12-12T10:44:24Z</time>
      </trkpt>
      <trkpt lat="48.76238" lon="2.55206">
        <ele>154.464</ele>
        <time>2018-12-12T10:44:27Z</time>
      </trkpt>
      <trkpt lat="48.76236" lon="2.55203">
        <ele>154.526</ele>
        <time>2018-12-12T10:44:30Z</time>
      </trkpt>
      <trkpt lat="48.76233" lon="2.55197">
        <ele>154.585</ele>
        <time>2018-12-12T10:44:33Z</time>
      </trkpt>
      <trkpt lat="48.76229" lon="2.55189">
        <ele>154.645</ele>
        <time>2018-12-12T10:44:36Z</time>
      </trkpt>
      <trkpt lat="48.76227" lon="2.55178">
        <ele>154.725</ele>
        <time>2018-12-12T10:44:40Z</time>
      </trkpt>
      <trkpt lat="48.76226" lon="2.55173">
        <ele>154.765</ele>
        <time>2018-12-12T10:44:42Z</time>
      </trkpt>
      <trkpt lat="48.76224" lon="2.55165">
        <ele>154.823</ele>
        <time>2018-12-12T10:44:45Z</time>
      </trkpt>
      <trkpt lat="48.76222" lon="2.55159">
        <ele>154.922</ele>
        <time>2018-12-12T10:44:50Z</time>
      </trkpt>
      <trkpt lat="48.76219" lon="2.55153">
        <ele>154.998</ele>
        <time>2018-12-12T10:44:54Z</time>
      </trkpt>
      <trkpt lat="48.76217" lon="2.55149">
        <ele>155.037</ele>
        <time>2018-12-12T10:44:56Z</time>
      </trkpt>
      <trkpt lat="48.76215" lon="2.55145">
        <ele>155.075</ele>
        <time>2018-12-12T10:44:58Z</time>
      </trkpt>
      <trkpt lat="48.76212" lon="2.55141">
        <ele>155.171</ele>
        <time>2018-12-12T10:45:03Z</time>
      </trkpt>
      <trkpt lat="48.7621" lon="2.55137">
        <ele>155.252</ele>
        <time>2018-12-12T10:45:07Z</time>
      </trkpt>
      <trkpt lat="48.76208" lon="2.5513">
        <ele>155.295</ele>
        <time>2018-12-12T10:45:09Z</time>
      </trkpt>
      <trkpt lat="48.76205" lon="2.55124">
        <ele>155.362</ele>
        <time>2018-12-12T10:45:12Z</time>
      </trkpt>
      <trkpt lat="48.76203" lon="2.55116">
        <ele>155.521</ele>
        <time>2018-12-12T10:45:19Z</time>
      </trkpt>
      <trkpt lat="48.76202" lon="2.5511">
        <ele>155.59</ele>
        <time>2018-12-12T10:45:22Z</time>
      </trkpt>
      <trkpt lat="48.76198" lon="2.55103">
        <ele>155.7</ele>
        <time>2018-12-12T10:45:27Z</time>
      </trkpt>
      <trkpt lat="48.76196" lon="2.55099">
        <ele>155.744</ele>
        <time>2018-12-12T10:45:29Z</time>
      </trkpt>
      <trkpt lat="48.76195" lon="2.55094">
        <ele>155.81</ele>
        <time>2018-12-12T10:45:32Z</time>
      </trkpt>
      <trkpt lat="48.76193" lon="2.5509">
        <ele>155.851</ele>
        <time>2018-12-12T10:45:34Z</time>
      </trkpt>
      <trkpt lat="48.76193" lon="2.5509">
        <ele>100</ele>
        <time>2018-12-12T10:45:39Z</time>
      </trkpt>
      <trkpt lat="48.76193" lon="2.5509">
        <ele>100</ele>
        <time>2018-12-12T10:45:45Z</time>
      </trkpt>
      <trkpt lat="48.76189" lon="2.55078">
        <ele>156.053</ele>
        <time>2018-12-12T10:45:45Z</time>
      </trkpt>
      <trkpt lat="48.76188" lon="2.55074">
        <ele>156.086</ele>
        <time>2018-12-12T10:45:47Z</time>
      </trkpt>
      <trkpt lat="48.76185" lon="2.55067">
        <ele>156.149</ele>
        <time>2018-12-12T10:45:51Z</time>
      </trkpt>
      <trkpt lat="48.76184" lon="2.55064">
        <ele>156.194</ele>
        <time>2018-12-12T10:45:54Z</time>
      </trkpt>
      <trkpt lat="48.76182" lon="2.55058">
        <ele>156.239</ele>
        <time>2018-12-12T10:45:57Z</time>
      </trkpt>
      <trkpt lat="48.76178" lon="2.55052">
        <ele>156.284</ele>
        <time>2018-12-12T10:46:00Z</time>
      </trkpt>
      <trkpt lat="48.76175" lon="2.55046">
        <ele>156.332</ele>
        <time>2018-12-12T10:46:03Z</time>
      </trkpt>
      <trkpt lat="48.76173" lon="2.55041">
        <ele>156.379</ele>
        <time>2018-12-12T10:46:06Z</time>
      </trkpt>
      <trkpt lat="48.76171" lon="2.55034">
        <ele>156.421</ele>
        <time>2018-12-12T10:46:09Z</time>
      </trkpt>
      <trkpt lat="48.76168" lon="2.55028">
        <ele>156.461</ele>
        <time>2018-12-12T10:46:12Z</time>
      </trkpt>
      <trkpt lat="48.76167" lon="2.55021">
        <ele>156.537</ele>
        <time>2018-12-12T10:46:18Z</time>
      </trkpt>
      <trkpt lat="48.76166" lon="2.55015">
        <ele>156.6</ele>
        <time>2018-12-12T10:46:23Z</time>
      </trkpt>
      <trkpt lat="48.76162" lon="2.55006">
        <ele>156.679</ele>
        <time>2018-12-12T10:46:30Z</time>
      </trkpt>
      <trkpt lat="48.7616" lon="2.55003">
        <ele>156.699</ele>
        <time>2018-12-12T10:46:32Z</time>
      </trkpt>
      <trkpt lat="48.76158" lon="2.54995">
        <ele>156.729</ele>
        <time>2018-12-12T10:46:35Z</time>
      </trkpt>
      <trkpt lat="48.76154" lon="2.54987">
        <ele>156.763</ele>
        <time>2018-12-12T10:46:39Z</time>
      </trkpt>
      <trkpt lat="48.76151" lon="2.54982">
        <ele>156.785</ele>
        <time>2018-12-12T10:46:42Z</time>
      </trkpt>
      <trkpt lat="48.76148" lon="2.54979">
        <ele>156.802</ele>
        <time>2018-12-12T10:46:45Z</time>
      </trkpt>
      <trkpt lat="48.76145" lon="2.54973">
        <ele>156.824</ele>
        <time>2018-12-12T10:46:49Z</time>
      </trkpt>
      <trkpt lat="48.76144" lon="2.54969">
        <ele>156.837</ele>
        <time>2018-12-12T10:46:51Z</time>
      </trkpt>
      <trkpt lat="48.76142" lon="2.54965">
        <ele>156.854</ele>
        <time>2018-12-12T10:46:54Z</time>
      </trkpt>
      <trkpt lat="48.76141" lon="2.54962">
        <ele>156.864</ele>
        <time>2018-12-12T10:46:56Z</time>
      </trkpt>
      <trkpt lat="48.76139" lon="2.54958">
        <ele>156.871</ele>
        <time>2018-12-12T10:46:58Z</time>
      </trkpt>
      <trkpt lat="48.76138" lon="2.54954">
        <ele>156.88</ele>
        <time>2018-12-12T10:47:01Z</time>
      </trkpt>
      <trkpt lat="48.76136" lon="2.5495">
        <ele>156.884</ele>
        <time>2018-12-12T10:47:03Z</time>
      </trkpt>
      <trkpt lat="48.76135" lon="2.54947">
        <ele>156.887</ele>
        <time>2018-12-12T10:47:05Z</time>
      </trkpt>
      <trkpt lat="48.76134" lon="2.54943">
        <ele>156.89</ele>
        <time>2018-12-12T10:47:07Z</time>
      </trkpt>
      <trkpt lat="48.76133" lon="2.54939">
        <ele>156.892</ele>
        <time>2018-12-12T10:47:09Z</time>
      </trkpt>
      <trkpt lat="48.7613" lon="2.54931">
        <ele>156.899</ele>
        <time>2018-12-12T10:47:13Z</time>
      </trkpt>
      <trkpt lat="48.76129" lon="2.54928">
        <ele>156.904</ele>
        <time>2018-12-12T10:47:15Z</time>
      </trkpt>
      <trkpt lat="48.76122" lon="2.54921">
        <ele>156.916</ele>
        <time>2018-12-12T10:47:21Z</time>
      </trkpt>
      <trkpt lat="48.76122" lon="2.54914">
        <ele>156.926</ele>
        <time>2018-12-12T10:47:26Z</time>
      </trkpt>
      <trkpt lat="48.76124" lon="2.54908">
        <ele>156.905</ele>
        <time>2018-12-12T10:47:32Z</time>
      </trkpt>
      <trkpt lat="48.76124" lon="2.54901">
        <ele>156.878</ele>
        <time>2018-12-12T10:47:36Z</time>
      </trkpt>
      <trkpt lat="48.76126" lon="2.54894">
        <ele>156.844</ele>
        <time>2018-12-12T10:47:41Z</time>
      </trkpt>
      <trkpt lat="48.76125" lon="2.54886">
        <ele>156.811</ele>
        <time>2018-12-12T10:47:45Z</time>
      </trkpt>
      <trkpt lat="48.76125" lon="2.54879">
        <ele>156.777</ele>
        <time>2018-12-12T10:47:49Z</time>
      </trkpt>
      <trkpt lat="48.76125" lon="2.5487">
        <ele>156.739</ele>
        <time>2018-12-12T10:47:53Z</time>
      </trkpt>
      <trkpt lat="48.76127" lon="2.54863">
        <ele>156.681</ele>
        <time>2018-12-12T10:47:59Z</time>
      </trkpt>
      <trkpt lat="48.76128" lon="2.54857">
        <ele>156.602</ele>
        <time>2018-12-12T10:48:12Z</time>
      </trkpt>
      <trkpt lat="48.76131" lon="2.54852">
        <ele>156.558</ele>
        <time>2018-12-12T10:48:20Z</time>
      </trkpt>
      <trkpt lat="48.76124" lon="2.54844">
        <ele>156.421</ele>
        <time>2018-12-12T10:48:31Z</time>
      </trkpt>
      <trkpt lat="48.76121" lon="2.54841">
        <ele>156.39</ele>
        <time>2018-12-12T10:48:33Z</time>
      </trkpt>
      <trkpt lat="48.76119" lon="2.54839">
        <ele>156.358</ele>
        <time>2018-12-12T10:48:35Z</time>
      </trkpt>
      <trkpt lat="48.76115" lon="2.54835">
        <ele>156.209</ele>
        <time>2018-12-12T10:48:46Z</time>
      </trkpt>
      <trkpt lat="48.76112" lon="2.54829">
        <ele>156.104</ele>
        <time>2018-12-12T10:48:54Z</time>
      </trkpt>
      <trkpt lat="48.76111" lon="2.54826">
        <ele>156.067</ele>
        <time>2018-12-12T10:48:57Z</time>
      </trkpt>
      <trkpt lat="48.76109" lon="2.5482">
        <ele>155.996</ele>
        <time>2018-12-12T10:49:04Z</time>
      </trkpt>
      <trkpt lat="48.76107" lon="2.54816">
        <ele>155.961</ele>
        <time>2018-12-12T10:49:07Z</time>
      </trkpt>
      <trkpt lat="48.76106" lon="2.54809">
        <ele>155.908</ele>
        <time>2018-12-12T10:49:12Z</time>
      </trkpt>
      <trkpt lat="48.76104" lon="2.54802">
        <ele>155.866</ele>
        <time>2018-12-12T10:49:16Z</time>
      </trkpt>
      <trkpt lat="48.76103" lon="2.54794">
        <ele>155.824</ele>
        <time>2018-12-12T10:49:20Z</time>
      </trkpt>
      <trkpt lat="48.76101" lon="2.54787">
        <ele>155.803</ele>
        <time>2018-12-12T10:49:22Z</time>
      </trkpt>
      <trkpt lat="48.76099" lon="2.54782">
        <ele>155.77</ele>
        <time>2018-12-12T10:49:25Z</time>
      </trkpt>
      <trkpt lat="48.76098" lon="2.54778">
        <ele>155.715</ele>
        <time>2018-12-12T10:49:30Z</time>
      </trkpt>
      <trkpt lat="48.76095" lon="2.54773">
        <ele>155.671</ele>
        <time>2018-12-12T10:49:34Z</time>
      </trkpt>
      <trkpt lat="48.76094" lon="2.54766">
        <ele>155.613</ele>
        <time>2018-12-12T10:49:39Z</time>
      </trkpt>
      <trkpt lat="48.76095" lon="2.54758">
        <ele>155.541</ele>
        <time>2018-12-12T10:49:45Z</time>
      </trkpt>
      <trkpt lat="48.76095" lon="2.54751">
        <ele>155.464</ele>
        <time>2018-12-12T10:49:52Z</time>
      </trkpt>
      <trkpt lat="48.76095" lon="2.54746">
        <ele>155.433</ele>
        <time>2018-12-12T10:49:55Z</time>
      </trkpt>
      <trkpt lat="48.76095" lon="2.54742">
        <ele>155.414</ele>
        <time>2018-12-12T10:49:57Z</time>
      </trkpt>
      <trkpt lat="48.76096" lon="2.54735">
        <ele>155.385</ele>
        <time>2018-12-12T10:50:00Z</time>
      </trkpt>
      <trkpt lat="48.76096" lon="2.54728">
        <ele>155.342</ele>
        <time>2018-12-12T10:50:05Z</time>
      </trkpt>
      <trkpt lat="48.76095" lon="2.5472">
        <ele>155.305</ele>
        <time>2018-12-12T10:50:10Z</time>
      </trkpt>
      <trkpt lat="48.76094" lon="2.54712">
        <ele>155.282</ele>
        <time>2018-12-12T10:50:13Z</time>
      </trkpt>
      <trkpt lat="48.76094" lon="2.54708">
        <ele>155.266</ele>
        <time>2018-12-12T10:50:15Z</time>
      </trkpt>
      <trkpt lat="48.76094" lon="2.54701">
        <ele>155.235</ele>
        <time>2018-12-12T10:50:19Z</time>
      </trkpt>
      <trkpt lat="48.76094" lon="2.54701">
        <ele>99</ele>
        <time>2018-12-12T10:50:24Z</time>
      </trkpt>
      <trkpt lat="48.76094" lon="2.54701">
        <ele>99</ele>
        <time>2018-12-12T10:50:30Z</time>
      </trkpt>
      <trkpt lat="48.76088" lon="2.5469">
        <ele>155.146</ele>
        <time>2018-12-12T10:50:30Z</time>
      </trkpt>
      <trkpt lat="48.76086" lon="2.54683">
        <ele>155.105</ele>
        <time>2018-12-12T10:50:36Z</time>
      </trkpt>
      <trkpt lat="48.76086" lon="2.5468">
        <ele>155.086</ele>
        <time>2018-12-12T10:50:39Z</time>
      </trkpt>
      <trkpt lat="48.76087" lon="2.54673">
        <ele>155.049</ele>
        <time>2018-12-12T10:50:45Z</time>
      </trkpt>
      <trkpt lat="48.76089" lon="2.54669">
        <ele>155.037</ele>
        <time>2018-12-12T10:50:47Z</time>
      </trkpt>
      <trkpt lat="48.7609" lon="2.54662">
        <ele>155.019</ele>
        <time>2018-12-12T10:50:50Z</time>
      </trkpt>
      <trkpt lat="48.7609" lon="2.54657">
        <ele>155.001</ele>
        <time>2018-12-12T10:50:53Z</time>
      </trkpt>
      <trkpt lat="48.76093" lon="2.54652">
        <ele>154.978</ele>
        <time>2018-12-12T10:50:57Z</time>
      </trkpt>
      <trkpt lat="48.76095" lon="2.54645">
        <ele>154.951</ele>
        <time>2018-12-12T10:51:02Z</time>
      </trkpt>
      <trkpt lat="48.76094" lon="2.54637">
        <ele>154.935</ele>
        <time>2018-12-12T10:51:05Z</time>
      </trkpt>
      <trkpt lat="48.76093" lon="2.54634">
        <ele>154.924</ele>
        <time>2018-12-12T10:51:07Z</time>
      </trkpt>
      <trkpt lat="48.76091" lon="2.54627">
        <ele>154.903</ele>
        <time>2018-12-12T10:51:11Z</time>
      </trkpt>
      <trkpt lat="48.76089" lon="2.54624">
        <ele>154.893</ele>
        <time>2018-12-12T10:51:13Z</time>
      </trkpt>
      <trkpt lat="48.76085" lon="2.54618">
        <ele>154.874</ele>
        <time>2018-12-12T10:51:17Z</time>
      </trkpt>
      <trkpt lat="48.76083" lon="2.54611">
        <ele>154.854</ele>
        <time>2018-12-12T10:51:21Z</time>
      </trkpt>
      <trkpt lat="48.76083" lon="2.54603">
        <ele>154.838</ele>
        <time>2018-12-12T10:51:24Z</time>
      </trkpt>
      <trkpt lat="48.7608" lon="2.54595">
        <ele>154.806</ele>
        <time>2018-12-12T10:51:29Z</time>
      </trkpt>
      <trkpt lat="48.76079" lon="2.54591">
        <ele>154.793</ele>
        <time>2018-12-12T10:51:31Z</time>
      </trkpt>
      <trkpt lat="48.76078" lon="2.54587">
        <ele>154.762</ele>
        <time>2018-12-12T10:51:36Z</time>
      </trkpt>
      <trkpt lat="48.76077" lon="2.54582">
        <ele>154.75</ele>
        <time>2018-12-12T10:51:38Z</time>
      </trkpt>
      <trkpt lat="48.76076" lon="2.54577">
        <ele>154.721</ele>
        <time>2018-12-12T10:51:43Z</time>
      </trkpt>
      <trkpt lat="48.76077" lon="2.54567">
        <ele>154.695</ele>
        <time>2018-12-12T10:51:48Z</time>
      </trkpt>
      <trkpt lat="48.76079" lon="2.54561">
        <ele>154.681</ele>
        <time>2018-12-12T10:51:51Z</time>
      </trkpt>
      <trkpt lat="48.76077" lon="2.54551">
        <ele>154.666</ele>
        <time>2018-12-12T10:51:55Z</time>
      </trkpt>
      <trkpt lat="48.76073" lon="2.54546">
        <ele>154.652</ele>
        <time>2018-12-12T10:52:00Z</time>
      </trkpt>
      <trkpt lat="48.76071" lon="2.54544">
        <ele>154.647</ele>
        <time>2018-12-12T10:52:02Z</time>
      </trkpt>
      <trkpt lat="48.7607" lon="2.54541">
        <ele>154.643</ele>
        <time>2018-12-12T10:52:04Z</time>
      </trkpt>
      <trkpt lat="48.76067" lon="2.54535">
        <ele>154.632</ele>
        <time>2018-12-12T10:52:09Z</time>
      </trkpt>
      <trkpt lat="48.76065" lon="2.54532">
        <ele>154.629</ele>
        <time>2018-12-12T10:52:11Z</time>
      </trkpt>
      <trkpt lat="48.76064" lon="2.54523">
        <ele>154.598</ele>
        <time>2018-12-12T10:52:17Z</time>
      </trkpt>
      <trkpt lat="48.76061" lon="2.54518">
        <ele>154.58</ele>
        <time>2018-12-12T10:52:21Z</time>
      </trkpt>
      <trkpt lat="48.76058" lon="2.54512">
        <ele>154.567</ele>
        <time>2018-12-12T10:52:24Z</time>
      </trkpt>
      <trkpt lat="48.76054" lon="2.54504">
        <ele>154.556</ele>
        <time>2018-12-12T10:52:27Z</time>
      </trkpt>
      <trkpt lat="48.76053" lon="2.54501">
        <ele>154.552</ele>
        <time>2018-12-12T10:52:28Z</time>
      </trkpt>
      <trkpt lat="48.76049" lon="2.54496">
        <ele>154.549</ele>
        <time>2018-12-12T10:52:30Z</time>
      </trkpt>
      <trkpt lat="48.76044" lon="2.54494">
        <ele>154.538</ele>
        <time>2018-12-12T10:52:34Z</time>
      </trkpt>
      <trkpt lat="48.76039" lon="2.5449">
        <ele>154.532</ele>
        <time>2018-12-12T10:52:38Z</time>
      </trkpt>
      <trkpt lat="48.76034" lon="2.54489">
        <ele>154.538</ele>
        <time>2018-12-12T10:52:42Z</time>
      </trkpt>
      <trkpt lat="48.76027" lon="2.54483">
        <ele>154.548</ele>
        <time>2018-12-12T10:52:46Z</time>
      </trkpt>
      <trkpt lat="48.76022" lon="2.54483">
        <ele>154.555</ele>
        <time>2018-12-12T10:52:48Z</time>
      </trkpt>
      <trkpt lat="48.76018" lon="2.5448">
        <ele>154.571</ele>
        <time>2018-12-12T10:52:52Z</time>
      </trkpt>
      <trkpt lat="48.76013" lon="2.54478">
        <ele>154.61</ele>
        <time>2018-12-12T10:52:58Z</time>
      </trkpt>
      <trkpt lat="48.76008" lon="2.54479">
        <ele>154.634</ele>
        <time>2018-12-12T10:53:02Z</time>
      </trkpt>
      <trkpt lat="48.76002" lon="2.54478">
        <ele>154.65</ele>
        <time>2018-12-12T10:53:05Z</time>
      </trkpt>
      <trkpt lat="48.75996" lon="2.54479">
        <ele>154.669</ele>
        <time>2018-12-12T10:53:09Z</time>
      </trkpt>
      <trkpt lat="48.75991" lon="2.54481">
        <ele>154.69</ele>
        <time>2018-12-12T10:53:13Z</time>
      </trkpt>
      <trkpt lat="48.75988" lon="2.54482">
        <ele>154.706</ele>
        <time>2018-12-12T10:53:16Z</time>
      </trkpt>
      <trkpt lat="48.75984" lon="2.54484">
        <ele>154.724</ele>
        <time>2018-12-12T10:53:19Z</time>
      </trkpt>
      <trkpt lat="48.7598" lon="2.54489">
        <ele>154.75</ele>
        <time>2018-12-12T10:53:24Z</time>
      </trkpt>
      <trkpt lat="48.75975" lon="2.54491">
        <ele>154.766</ele>
        <time>2018-12-12T10:53:30Z</time>
      </trkpt>
      <trkpt lat="48.75972" lon="2.54493">
        <ele>154.772</ele>
        <time>2018-12-12T10:53:33Z</time>
      </trkpt>
      <trkpt lat="48.75968" lon="2.5449">
        <ele>154.782</ele>
        <time>2018-12-12T10:53:38Z</time>
      </trkpt>
      <trkpt lat="48.75968" lon="2.5449">
        <ele>99</ele>
        <time>2018-12-12T10:53:46Z</time>
      </trkpt>
      <trkpt lat="48.75968" lon="2.5449">
        <ele>99</ele>
        <time>2018-12-12T10:53:54Z</time>
      </trkpt>
      <trkpt lat="48.75966" lon="2.5448">
        <ele>154.819</ele>
        <time>2018-12-12T10:53:54Z</time>
      </trkpt>
      <trkpt lat="48.75965" lon="2.54474">
        <ele>154.839</ele>
        <time>2018-12-12T10:53:59Z</time>
      </trkpt>
      <trkpt lat="48.75963" lon="2.54465">
        <ele>154.853</ele>
        <time>2018-12-12T10:54:03Z</time>
      </trkpt>
      <trkpt lat="48.75961" lon="2.54459">
        <ele>154.863</ele>
        <time>2018-12-12T10:54:06Z</time>
      </trkpt>
      <trkpt lat="48.75958" lon="2.54452">
        <ele>154.881</ele>
        <time>2018-12-12T10:54:11Z</time>
      </trkpt>
      <trkpt lat="48.75954" lon="2.54446">
        <ele>154.895</ele>
        <time>2018-12-12T10:54:15Z</time>
      </trkpt>
      <trkpt lat="48.75952" lon="2.54442">
        <ele>154.903</ele>
        <time>2018-12-12T10:54:17Z</time>
      </trkpt>
      <trkpt lat="48.75947" lon="2.54438">
        <ele>154.924</ele>
        <time>2018-12-12T10:54:21Z</time>
      </trkpt>
      <trkpt lat="48.75943" lon="2.54432">
        <ele>154.95</ele>
        <time>2018-12-12T10:54:25Z</time>
      </trkpt>
      <trkpt lat="48.7594" lon="2.54424">
        <ele>154.991</ele>
        <time>2018-12-12T10:54:30Z</time>
      </trkpt>
      <trkpt lat="48.75939" lon="2.54421">
        <ele>155.011</ele>
        <time>2018-12-12T10:54:32Z</time>
      </trkpt>
      <trkpt lat="48.75937" lon="2.54415">
        <ele>155.054</ele>
        <time>2018-12-12T10:54:36Z</time>
      </trkpt>
      <trkpt lat="48.75935" lon="2.54408">
        <ele>155.104</ele>
        <time>2018-12-12T10:54:40Z</time>
      </trkpt>
      <trkpt lat="48.75934" lon="2.54402">
        <ele>155.141</ele>
        <time>2018-12-12T10:54:43Z</time>
      </trkpt>
      <trkpt lat="48.75931" lon="2.54396">
        <ele>155.193</ele>
        <time>2018-12-12T10:54:47Z</time>
      </trkpt>
      <trkpt lat="48.75929" lon="2.54394">
        <ele>155.219</ele>
        <time>2018-12-12T10:54:49Z</time>
      </trkpt>
      <trkpt lat="48.75926" lon="2.54388">
        <ele>155.276</ele>
        <time>2018-12-12T10:54:53Z</time>
      </trkpt>
      <trkpt lat="48.75924" lon="2.54382">
        <ele>155.35</ele>
        <time>2018-12-12T10:54:58Z</time>
      </trkpt>
      <trkpt lat="48.75922" lon="2.54377">
        <ele>155.407</ele>
        <time>2018-12-12T10:55:02Z</time>
      </trkpt>
      <trkpt lat="48.75919" lon="2.54371">
        <ele>155.45</ele>
        <time>2018-12-12T10:55:06Z</time>
      </trkpt>
      <trkpt lat="48.75917" lon="2.54367">
        <ele>155.488</ele>
        <time>2018-12-12T10:55:09Z</time>
      </trkpt>
      <trkpt lat="48.75917" lon="2.54357">
        <ele>155.51</ele>
        <time>2018-12-12T10:55:12Z</time>
      </trkpt>
      <trkpt lat="48.75918" lon="2.54353">
        <ele>155.531</ele>
        <time>2018-12-12T10:55:15Z</time>
      </trkpt>
      <trkpt lat="48.75917" lon="2.54346">
        <ele>155.548</ele>
        <time>2018-12-12T10:55:18Z</time>
      </trkpt>
      <trkpt lat="48.75913" lon="2.54336">
        <ele>155.573</ele>
        <time>2018-12-12T10:55:22Z</time>
      </trkpt>
      <trkpt lat="48.75909" lon="2.5433">
        <ele>155.595</ele>
        <time>2018-12-12T10:55:26Z</time>
      </trkpt>
      <trkpt lat="48.75907" lon="2.54323">
        <ele>155.614</ele>
        <time>2018-12-12T10:55:30Z</time>
      </trkpt>
      <trkpt lat="48.75903" lon="2.54317">
        <ele>155.628</ele>
        <time>2018-12-12T10:55:33Z</time>
      </trkpt>
      <trkpt lat="48.75901" lon="2.5431">
        <ele>155.648</ele>
        <time>2018-12-12T10:55:37Z</time>
      </trkpt>
      <trkpt lat="48.759" lon="2.54306">
        <ele>155.658</ele>
        <time>2018-12-12T10:55:39Z</time>
      </trkpt>
      <trkpt lat="48.75899" lon="2.54303">
        <ele>155.669</ele>
        <time>2018-12-12T10:55:41Z</time>
      </trkpt>
      <trkpt lat="48.75897" lon="2.54296">
        <ele>155.694</ele>
        <time>2018-12-12T10:55:46Z</time>
      </trkpt>
      <trkpt lat="48.75894" lon="2.5429">
        <ele>155.709</ele>
        <time>2018-12-12T10:55:49Z</time>
      </trkpt>
      <trkpt lat="48.75894" lon="2.54282">
        <ele>155.726</ele>
        <time>2018-12-12T10:55:53Z</time>
      </trkpt>
      <trkpt lat="48.75891" lon="2.54276">
        <ele>155.739</ele>
        <time>2018-12-12T10:55:57Z</time>
      </trkpt>
      <trkpt lat="48.75889" lon="2.5427">
        <ele>155.744</ele>
        <time>2018-12-12T10:55:59Z</time>
      </trkpt>
      <trkpt lat="48.75888" lon="2.54267">
        <ele>155.749</ele>
        <time>2018-12-12T10:56:01Z</time>
      </trkpt>
      <trkpt lat="48.75885" lon="2.54263">
        <ele>155.757</ele>
        <time>2018-12-12T10:56:04Z</time>
      </trkpt>
      <trkpt lat="48.75883" lon="2.54259">
        <ele>155.761</ele>
        <time>2018-12-12T10:56:06Z</time>
      </trkpt>
      <trkpt lat="48.75881" lon="2.54256">
        <ele>155.765</ele>
        <time>2018-12-12T10:56:08Z</time>
      </trkpt>
      <trkpt lat="48.75879" lon="2.54249">
        <ele>155.772</ele>
        <time>2018-12-12T10:56:12Z</time>
      </trkpt>
      <trkpt lat="48.75877" lon="2.54242">
        <ele>155.778</ele>
        <time>2018-12-12T10:56:16Z</time>
      </trkpt>
      <trkpt lat="48.75875" lon="2.54238">
        <ele>155.78</ele>
        <time>2018-12-12T10:56:18Z</time>
      </trkpt>
      <trkpt lat="48.75872" lon="2.54231">
        <ele>155.786</ele>
        <time>2018-12-12T10:56:23Z</time>
      </trkpt>
      <trkpt lat="48.7587" lon="2.54225">
        <ele>155.792</ele>
        <time>2018-12-12T10:56:28Z</time>
      </trkpt>
      <trkpt lat="48.75869" lon="2.54218">
        <ele>155.799</ele>
        <time>2018-12-12T10:56:34Z</time>
      </trkpt>
      <trkpt lat="48.75868" lon="2.54213">
        <ele>155.798</ele>
        <time>2018-12-12T10:56:37Z</time>
      </trkpt>
      <trkpt lat="48.75868" lon="2.54209">
        <ele>155.794</ele>
        <time>2018-12-12T10:56:40Z</time>
      </trkpt>
      <trkpt lat="48.75865" lon="2.54203">
        <ele>155.774</ele>
        <time>2018-12-12T10:56:45Z</time>
      </trkpt>
      <trkpt lat="48.75863" lon="2.54196">
        <ele>155.748</ele>
        <time>2018-12-12T10:56:49Z</time>
      </trkpt>
      <trkpt lat="48.75858" lon="2.54185">
        <ele>155.727</ele>
        <time>2018-12-12T10:56:52Z</time>
      </trkpt>
      <trkpt lat="48.75856" lon="2.54179">
        <ele>155.713</ele>
        <time>2018-12-12T10:56:54Z</time>
      </trkpt>
      <trkpt lat="48.75852" lon="2.54174">
        <ele>155.69</ele>
        <time>2018-12-12T10:56:57Z</time>
      </trkpt>
      <trkpt lat="48.75849" lon="2.54168">
        <ele>155.669</ele>
        <time>2018-12-12T10:57:00Z</time>
      </trkpt>
      <trkpt lat="48.75847" lon="2.54161">
        <ele>155.626</ele>
        <time>2018-12-12T10:57:06Z</time>
      </trkpt>
      <trkpt lat="48.75846" lon="2.54154">
        <ele>155.581</ele>
        <time>2018-12-12T10:57:12Z</time>
      </trkpt>
      <trkpt lat="48.75844" lon="2.54147">
        <ele>155.531</ele>
        <time>2018-12-12T10:57:18Z</time>
      </trkpt>
      <trkpt lat="48.75843" lon="2.54144">
        <ele>155.514</ele>
        <time>2018-12-12T10:57:20Z</time>
      </trkpt>
      <trkpt lat="48.75841" lon="2.54136">
        <ele>155.482</ele>
        <time>2018-12-12T10:57:24Z</time>
      </trkpt>
      <trkpt lat="48.75839" lon="2.54131">
        <ele>155.46</ele>
        <time>2018-12-12T10:57:27Z</time>
      </trkpt>
      <trkpt lat="48.75838" lon="2.54128">
        <ele>155.445</ele>
        <time>2018-12-12T10:57:29Z</time>
      </trkpt>
      <trkpt lat="48.75837" lon="2.54124">
        <ele>155.43</ele>
        <time>2018-12-12T10:57:31Z</time>
      </trkpt>
      <trkpt lat="48.75836" lon="2.54117">
        <ele>155.401</ele>
        <time>2018-12-12T10:57:35Z</time>
      </trkpt>
      <trkpt lat="48.75835" lon="2.54108">
        <ele>155.367</ele>
        <time>2018-12-12T10:57:40Z</time>
      </trkpt>
      <trkpt lat="48.75835" lon="2.54103">
        <ele>155.33</ele>
        <time>2018-12-12T10:57:44Z</time>
      </trkpt>
      <trkpt lat="48.75835" lon="2.54098">
        <ele>155.301</ele>
        <time>2018-12-12T10:57:47Z</time>
      </trkpt>
      <trkpt lat="48.75836" lon="2.54091">
        <ele>155.272</ele>
        <time>2018-12-12T10:57:50Z</time>
      </trkpt>
      <trkpt lat="48.75837" lon="2.54087">
        <ele>155.251</ele>
        <time>2018-12-12T10:57:52Z</time>
      </trkpt>
      <trkpt lat="48.75837" lon="2.54082">
        <ele>155.219</ele>
        <time>2018-12-12T10:57:55Z</time>
      </trkpt>
      <trkpt lat="48.75836" lon="2.54074">
        <ele>155.153</ele>
        <time>2018-12-12T10:58:01Z</time>
      </trkpt>
      <trkpt lat="48.75836" lon="2.54067">
        <ele>155.11</ele>
        <time>2018-12-12T10:58:05Z</time>
      </trkpt>
      <trkpt lat="48.75836" lon="2.54062">
        <ele>155.068</ele>
        <time>2018-12-12T10:58:09Z</time>
      </trkpt>
      <trkpt lat="48.75836" lon="2.54057">
        <ele>155.037</ele>
        <time>2018-12-12T10:58:12Z</time>
      </trkpt>
      <trkpt lat="48.75836" lon="2.54053">
        <ele>155.004</ele>
        <time>2018-12-12T10:58:15Z</time>
      </trkpt>
      <trkpt lat="48.75836" lon="2.54049">
        <ele>154.979</ele>
        <time>2018-12-12T10:58:17Z</time>
      </trkpt>
      <trkpt lat="48.75837" lon="2.54042">
        <ele>154.924</ele>
        <time>2018-12-12T10:58:21Z</time>
      </trkpt>
      <trkpt lat="48.75839" lon="2.54035">
        <ele>154.849</ele>
        <time>2018-12-12T10:58:26Z</time>
      </trkpt>
      <trkpt lat="48.7584" lon="2.54028">
        <ele>154.781</ele>
        <time>2018-12-12T10:58:30Z</time>
      </trkpt>
      <trkpt lat="48.75843" lon="2.54021">
        <ele>154.687</ele>
        <time>2018-12-12T10:58:35Z</time>
      </trkpt>
      <trkpt lat="48.75845" lon="2.54013">
        <ele>154.608</ele>
        <time>2018-12-12T10:58:39Z</time>
      </trkpt>
      <trkpt lat="48.75849" lon="2.54007">
        <ele>154.523</ele>
        <time>2018-12-12T10:58:43Z</time>
      </trkpt>
      <trkpt lat="48.7585" lon="2.54004">
        <ele>154.477</ele>
        <time>2018-12-12T10:58:45Z</time>
      </trkpt>
      <trkpt lat="48.75853" lon="2.53999">
        <ele>154.406</ele>
        <time>2018-12-12T10:58:48Z</time>
      </trkpt>
      <trkpt lat="48.75857" lon="2.53994">
        <ele>154.304</ele>
        <time>2018-12-12T10:58:52Z</time>
      </trkpt>
      <trkpt lat="48.7586" lon="2.53988">
        <ele>154.197</ele>
        <time>2018-12-12T10:58:56Z</time>
      </trkpt>
      <trkpt lat="48.75863" lon="2.53984">
        <ele>154.115</ele>
        <time>2018-12-12T10:58:59Z</time>
      </trkpt>
      <trkpt lat="48.75865" lon="2.53978">
        <ele>154.03</ele>
        <time>2018-12-12T10:59:02Z</time>
      </trkpt>
      <trkpt lat="48.75868" lon="2.53971">
        <ele>153.911</ele>
        <time>2018-12-12T10:59:06Z</time>
      </trkpt>
      <trkpt lat="48.75872" lon="2.53966">
        <ele>153.787</ele>
        <time>2018-12-12T10:59:10Z</time>
      </trkpt>
      <trkpt lat="48.75875" lon="2.53959">
        <ele>153.657</ele>
        <time>2018-12-12T10:59:14Z</time>
      </trkpt>
      <trkpt lat="48.75877" lon="2.53956">
        <ele>153.59</ele>
        <time>2018-12-12T10:59:16Z</time>
      </trkpt>
      <trkpt lat="48.75878" lon="2.53948">
        <ele>153.45</ele>
        <time>2018-12-12T10:59:20Z</time>
      </trkpt>
      <trkpt lat="48.75882" lon="2.53941">
        <ele>153.299</ele>
        <time>2018-12-12T10:59:24Z</time>
      </trkpt>
      <trkpt lat="48.75884" lon="2.53938">
        <ele>153.221</ele>
        <time>2018-12-12T10:59:26Z</time>
      </trkpt>
      <trkpt lat="48.75888" lon="2.53933">
        <ele>153.06</ele>
        <time>2018-12-12T10:59:30Z</time>
      </trkpt>
      <trkpt lat="48.75891" lon="2.53929">
        <ele>152.941</ele>
        <time>2018-12-12T10:59:33Z</time>
      </trkpt>
      <trkpt lat="48.75894" lon="2.53923">
        <ele>152.764</ele>
        <time>2018-12-12T10:59:38Z</time>
      </trkpt>
      <trkpt lat="48.75897" lon="2.53918">
        <ele>152.636</ele>
        <time>2018-12-12T10:59:42Z</time>
      </trkpt>
      <trkpt lat="48.75897" lon="2.53918">
        <ele>152.636</ele>
        <time>2018-12-12T10:59:49Z</time>
      </trkpt>
      <trkpt lat="48.75897" lon="2.53918">
        <ele>98.7</ele>
        <time>2018-12-12T10:59:50Z</time>
      </trkpt>
      <trkpt lat="48.75897" lon="2.53918">
        <ele>98.7</ele>
        <time>2018-12-12T11:00:01Z</time>
      </trkpt>
      <trkpt lat="48.75913" lon="2.53897">
        <ele>152.191</ele>
        <time>2018-12-12T11:00:03Z</time>
      </trkpt>
      <trkpt lat="48.75925" lon="2.53891">
        <ele>152.013</ele>
        <time>2018-12-12T11:00:13Z</time>
      </trkpt>
      <trkpt lat="48.7593" lon="2.53891">
        <ele>151.981</ele>
        <time>2018-12-12T11:00:15Z</time>
      </trkpt>
      <trkpt lat="48.75934" lon="2.53888">
        <ele>151.949</ele>
        <time>2018-12-12T11:00:17Z</time>
      </trkpt>
      <trkpt lat="48.75938" lon="2.53882">
        <ele>151.904</ele>
        <time>2018-12-12T11:00:20Z</time>
      </trkpt>
      <trkpt lat="48.75943" lon="2.53878">
        <ele>151.854</ele>
        <time>2018-12-12T11:00:24Z</time>
      </trkpt>
      <trkpt lat="48.75948" lon="2.53877">
        <ele>151.813</ele>
        <time>2018-12-12T11:00:28Z</time>
      </trkpt>
      <trkpt lat="48.7595" lon="2.53876">
        <ele>151.795</ele>
        <time>2018-12-12T11:00:30Z</time>
      </trkpt>
      <trkpt lat="48.75955" lon="2.53873">
        <ele>151.764</ele>
        <time>2018-12-12T11:00:34Z</time>
      </trkpt>
      <trkpt lat="48.7596" lon="2.53867">
        <ele>151.73</ele>
        <time>2018-12-12T11:00:39Z</time>
      </trkpt>
      <trkpt lat="48.7596" lon="2.53867">
        <ele>98.1</ele>
        <time>2018-12-12T11:00:48Z</time>
      </trkpt>
      <trkpt lat="48.7596" lon="2.53867">
        <ele>98.1</ele>
        <time>2018-12-12T11:13:04Z</time>
      </trkpt>
      <trkpt lat="48.75977" lon="2.53853">
        <ele>153.649</ele>
        <time>2018-12-12T11:13:04Z</time>
      </trkpt>
      <trkpt lat="48.75977" lon="2.53853">
        <ele>153.649</ele>
        <time>2018-12-12T11:13:09Z</time>
      </trkpt>
      <trkpt lat="48.75977" lon="2.53853">
        <ele>98</ele>
        <time>2018-12-12T11:13:09Z</time>
      </trkpt>
      <trkpt lat="48.75977" lon="2.53853">
        <ele>98</ele>
        <time>2018-12-12T11:39:24Z</time>
      </trkpt>
      <trkpt lat="48.75996" lon="2.53855">
        <ele>153.091</ele>
        <time>2018-12-12T11:39:24Z</time>
      </trkpt>
      <trkpt lat="48.76003" lon="2.53847">
        <ele>153.11</ele>
        <time>2018-12-12T11:39:27Z</time>
      </trkpt>
      <trkpt lat="48.76007" lon="2.5384">
        <ele>153.119</ele>
        <time>2018-12-12T11:39:29Z</time>
      </trkpt>
      <trkpt lat="48.76007" lon="2.5384">
        <ele>98</ele>
        <time>2018-12-12T11:39:37Z</time>
      </trkpt>
      <trkpt lat="48.76007" lon="2.5384">
        <ele>98</ele>
        <time>2018-12-12T11:39:41Z</time>
      </trkpt>
      <trkpt lat="48.76016" lon="2.53835">
        <ele>153.176</ele>
        <time>2018-12-12T11:39:41Z</time>
      </trkpt>
      <trkpt lat="48.76021" lon="2.53835">
        <ele>153.2</ele>
        <time>2018-12-12T11:39:45Z</time>
      </trkpt>
      <trkpt lat="48.76025" lon="2.53835">
        <ele>153.214</ele>
        <time>2018-12-12T11:39:47Z</time>
      </trkpt>
      <trkpt lat="48.76027" lon="2.53835">
        <ele>153.227</ele>
        <time>2018-12-12T11:39:49Z</time>
      </trkpt>
      <trkpt lat="48.76027" lon="2.53835">
        <ele>153.227</ele>
        <time>2018-12-12T11:39:54Z</time>
      </trkpt>
      <trkpt lat="48.76027" lon="2.53835">
        <ele>98</ele>
        <time>2018-12-12T11:39:54Z</time>
      </trkpt>
      <trkpt lat="48.76027" lon="2.53835">
        <ele>98</ele>
        <time>2018-12-12T11:41:03Z</time>
      </trkpt>
      <trkpt lat="48.76025" lon="2.53825">
        <ele>153.353</ele>
        <time>2018-12-12T11:41:03Z</time>
      </trkpt>
      <trkpt lat="48.76021" lon="2.53824">
        <ele>153.348</ele>
        <time>2018-12-12T11:41:07Z</time>
      </trkpt>
      <trkpt lat="48.76016" lon="2.53825">
        <ele>153.344</ele>
        <time>2018-12-12T11:41:11Z</time>
      </trkpt>
      <trkpt lat="48.76011" lon="2.53828">
        <ele>153.343</ele>
        <time>2018-12-12T11:41:15Z</time>
      </trkpt>
      <trkpt lat="48.76008" lon="2.5383">
        <ele>153.344</ele>
        <time>2018-12-12T11:41:17Z</time>
      </trkpt>
      <trkpt lat="48.76004" lon="2.53835">
        <ele>153.345</ele>
        <time>2018-12-12T11:41:23Z</time>
      </trkpt>
      <trkpt lat="48.76002" lon="2.53837">
        <ele>153.345</ele>
        <time>2018-12-12T11:41:25Z</time>
      </trkpt>
      <trkpt lat="48.75996" lon="2.5384">
        <ele>153.347</ele>
        <time>2018-12-12T11:41:30Z</time>
      </trkpt>
      <trkpt lat="48.75992" lon="2.53841">
        <ele>153.348</ele>
        <time>2018-12-12T11:41:32Z</time>
      </trkpt>
      <trkpt lat="48.75989" lon="2.53843">
        <ele>153.348</ele>
        <time>2018-12-12T11:41:34Z</time>
      </trkpt>
      <trkpt lat="48.75984" lon="2.53845">
        <ele>153.347</ele>
        <time>2018-12-12T11:41:37Z</time>
      </trkpt>
      <trkpt lat="48.75979" lon="2.53847">
        <ele>153.344</ele>
        <time>2018-12-12T11:41:40Z</time>
      </trkpt>
      <trkpt lat="48.75974" lon="2.53845">
        <ele>153.341</ele>
        <time>2018-12-12T11:41:43Z</time>
      </trkpt>
      <trkpt lat="48.75974" lon="2.53845">
        <ele>153.341</ele>
        <time>2018-12-12T11:41:48Z</time>
      </trkpt>
      <trkpt lat="48.75974" lon="2.53845">
        <ele>98</ele>
        <time>2018-12-12T11:41:48Z</time>
      </trkpt>
      <trkpt lat="48.75974" lon="2.53845">
        <ele>98</ele>
        <time>2018-12-12T11:53:01Z</time>
      </trkpt>
      <trkpt lat="48.75953" lon="2.53849">
        <ele>152.076</ele>
        <time>2018-12-12T11:53:01Z</time>
      </trkpt>
      <trkpt lat="48.75948" lon="2.53845">
        <ele>152.055</ele>
        <time>2018-12-12T11:53:07Z</time>
      </trkpt>
      <trkpt lat="48.75944" lon="2.53847">
        <ele>152.02</ele>
        <time>2018-12-12T11:53:13Z</time>
      </trkpt>
      <trkpt lat="48.7594" lon="2.53852">
        <ele>151.998</ele>
        <time>2018-12-12T11:53:17Z</time>
      </trkpt>
      <trkpt lat="48.75937" lon="2.53855">
        <ele>151.978</ele>
        <time>2018-12-12T11:53:21Z</time>
      </trkpt>
      <trkpt lat="48.75934" lon="2.53862">
        <ele>151.959</ele>
        <time>2018-12-12T11:53:25Z</time>
      </trkpt>
      <trkpt lat="48.7593" lon="2.53869">
        <ele>151.942</ele>
        <time>2018-12-12T11:53:29Z</time>
      </trkpt>
      <trkpt lat="48.75928" lon="2.53875">
        <ele>151.925</ele>
        <time>2018-12-12T11:53:33Z</time>
      </trkpt>
      <trkpt lat="48.75924" lon="2.5388">
        <ele>151.908</ele>
        <time>2018-12-12T11:53:38Z</time>
      </trkpt>
      <trkpt lat="48.75922" lon="2.53882">
        <ele>151.896</ele>
        <time>2018-12-12T11:53:43Z</time>
      </trkpt>
      <trkpt lat="48.7592" lon="2.53886">
        <ele>151.889</ele>
        <time>2018-12-12T11:53:47Z</time>
      </trkpt>
      <trkpt lat="48.75918" lon="2.5389">
        <ele>151.885</ele>
        <time>2018-12-12T11:53:50Z</time>
      </trkpt>
      <trkpt lat="48.75914" lon="2.53894">
        <ele>151.882</ele>
        <time>2018-12-12T11:53:56Z</time>
      </trkpt>
      <trkpt lat="48.75911" lon="2.53897">
        <ele>151.885</ele>
        <time>2018-12-12T11:53:58Z</time>
      </trkpt>
      <trkpt lat="48.75908" lon="2.53901">
        <ele>151.901</ele>
        <time>2018-12-12T11:54:03Z</time>
      </trkpt>
      <trkpt lat="48.75905" lon="2.53904">
        <ele>151.93</ele>
        <time>2018-12-12T11:54:10Z</time>
      </trkpt>
      <trkpt lat="48.759" lon="2.53907">
        <ele>151.942</ele>
        <time>2018-12-12T11:54:14Z</time>
      </trkpt>
      <trkpt lat="48.75897" lon="2.5391">
        <ele>151.949</ele>
        <time>2018-12-12T11:54:17Z</time>
      </trkpt>
      <trkpt lat="48.75894" lon="2.53913">
        <ele>151.956</ele>
        <time>2018-12-12T11:54:20Z</time>
      </trkpt>
      <trkpt lat="48.7589" lon="2.53919">
        <ele>151.971</ele>
        <time>2018-12-12T11:54:26Z</time>
      </trkpt>
      <trkpt lat="48.75885" lon="2.53923">
        <ele>151.985</ele>
        <time>2018-12-12T11:54:31Z</time>
      </trkpt>
      <trkpt lat="48.75881" lon="2.53928">
        <ele>152.007</ele>
        <time>2018-12-12T11:54:36Z</time>
      </trkpt>
      <trkpt lat="48.75878" lon="2.53935">
        <ele>152.019</ele>
        <time>2018-12-12T11:54:39Z</time>
      </trkpt>
      <trkpt lat="48.75876" lon="2.53939">
        <ele>152.026</ele>
        <time>2018-12-12T11:54:41Z</time>
      </trkpt>
      <trkpt lat="48.75872" lon="2.53945">
        <ele>152.034</ele>
        <time>2018-12-12T11:54:44Z</time>
      </trkpt>
      <trkpt lat="48.75869" lon="2.53951">
        <ele>152.049</ele>
        <time>2018-12-12T11:54:48Z</time>
      </trkpt>
      <trkpt lat="48.75868" lon="2.53953">
        <ele>152.059</ele>
        <time>2018-12-12T11:54:50Z</time>
      </trkpt>
      <trkpt lat="48.75865" lon="2.53961">
        <ele>152.079</ele>
        <time>2018-12-12T11:54:54Z</time>
      </trkpt>
      <trkpt lat="48.75863" lon="2.53968">
        <ele>152.1</ele>
        <time>2018-12-12T11:54:58Z</time>
      </trkpt>
      <trkpt lat="48.75859" lon="2.53973">
        <ele>152.129</ele>
        <time>2018-12-12T11:55:05Z</time>
      </trkpt>
      <trkpt lat="48.75857" lon="2.53976">
        <ele>152.145</ele>
        <time>2018-12-12T11:55:10Z</time>
      </trkpt>
      <trkpt lat="48.75855" lon="2.53982">
        <ele>152.156</ele>
        <time>2018-12-12T11:55:14Z</time>
      </trkpt>
      <trkpt lat="48.75851" lon="2.53989">
        <ele>152.167</ele>
        <time>2018-12-12T11:55:18Z</time>
      </trkpt>
      <trkpt lat="48.75849" lon="2.53994">
        <ele>152.176</ele>
        <time>2018-12-12T11:55:21Z</time>
      </trkpt>
      <trkpt lat="48.75845" lon="2.53999">
        <ele>152.192</ele>
        <time>2018-12-12T11:55:26Z</time>
      </trkpt>
      <trkpt lat="48.75841" lon="2.54005">
        <ele>152.206</ele>
        <time>2018-12-12T11:55:32Z</time>
      </trkpt>
      <trkpt lat="48.75837" lon="2.54011">
        <ele>152.214</ele>
        <time>2018-12-12T11:55:36Z</time>
      </trkpt>
      <trkpt lat="48.75834" lon="2.54018">
        <ele>152.222</ele>
        <time>2018-12-12T11:55:41Z</time>
      </trkpt>
      <trkpt lat="48.75833" lon="2.54023">
        <ele>152.226</ele>
        <time>2018-12-12T11:55:43Z</time>
      </trkpt>
      <trkpt lat="48.75831" lon="2.54026">
        <ele>152.231</ele>
        <time>2018-12-12T11:55:45Z</time>
      </trkpt>
      <trkpt lat="48.7583" lon="2.54033">
        <ele>152.24</ele>
        <time>2018-12-12T11:55:48Z</time>
      </trkpt>
      <trkpt lat="48.75827" lon="2.54039">
        <ele>152.253</ele>
        <time>2018-12-12T11:55:51Z</time>
      </trkpt>
      <trkpt lat="48.75826" lon="2.54044">
        <ele>152.263</ele>
        <time>2018-12-12T11:55:53Z</time>
      </trkpt>
      <trkpt lat="48.75823" lon="2.54051">
        <ele>152.275</ele>
        <time>2018-12-12T11:55:55Z</time>
      </trkpt>
      <trkpt lat="48.7582" lon="2.54056">
        <ele>152.294</ele>
        <time>2018-12-12T11:55:58Z</time>
      </trkpt>
      <trkpt lat="48.75817" lon="2.54062">
        <ele>152.325</ele>
        <time>2018-12-12T11:56:02Z</time>
      </trkpt>
      <trkpt lat="48.75816" lon="2.54066">
        <ele>152.341</ele>
        <time>2018-12-12T11:56:04Z</time>
      </trkpt>
      <trkpt lat="48.75814" lon="2.54072">
        <ele>152.373</ele>
        <time>2018-12-12T11:56:08Z</time>
      </trkpt>
      <trkpt lat="48.75814" lon="2.54072">
        <ele>99</ele>
        <time>2018-12-12T11:56:15Z</time>
      </trkpt>
      <trkpt lat="48.75814" lon="2.54072">
        <ele>99</ele>
        <time>2018-12-12T11:56:56Z</time>
      </trkpt>
      <trkpt lat="48.75788" lon="2.5411">
        <ele>152.669</ele>
        <time>2018-12-12T11:57:01Z</time>
      </trkpt>
      <trkpt lat="48.75785" lon="2.54117">
        <ele>152.675</ele>
        <time>2018-12-12T11:57:04Z</time>
      </trkpt>
      <trkpt lat="48.75781" lon="2.54122">
        <ele>152.676</ele>
        <time>2018-12-12T11:57:08Z</time>
      </trkpt>
      <trkpt lat="48.75779" lon="2.5413">
        <ele>152.678</ele>
        <time>2018-12-12T11:57:12Z</time>
      </trkpt>
      <trkpt lat="48.75776" lon="2.54136">
        <ele>152.681</ele>
        <time>2018-12-12T11:57:15Z</time>
      </trkpt>
      <trkpt lat="48.75774" lon="2.54143">
        <ele>152.686</ele>
        <time>2018-12-12T11:57:18Z</time>
      </trkpt>
      <trkpt lat="48.75773" lon="2.54147">
        <ele>152.691</ele>
        <time>2018-12-12T11:57:21Z</time>
      </trkpt>
      <trkpt lat="48.75769" lon="2.54153">
        <ele>152.701</ele>
        <time>2018-12-12T11:57:25Z</time>
      </trkpt>
      <trkpt lat="48.75766" lon="2.5416">
        <ele>152.714</ele>
        <time>2018-12-12T11:57:29Z</time>
      </trkpt>
      <trkpt lat="48.75764" lon="2.54163">
        <ele>152.721</ele>
        <time>2018-12-12T11:57:31Z</time>
      </trkpt>
      <trkpt lat="48.75763" lon="2.54167">
        <ele>152.73</ele>
        <time>2018-12-12T11:57:34Z</time>
      </trkpt>
      <trkpt lat="48.75761" lon="2.54171">
        <ele>152.738</ele>
        <time>2018-12-12T11:57:37Z</time>
      </trkpt>
      <trkpt lat="48.7576" lon="2.54174">
        <ele>152.742</ele>
        <time>2018-12-12T11:57:39Z</time>
      </trkpt>
      <trkpt lat="48.75756" lon="2.54179">
        <ele>152.749</ele>
        <time>2018-12-12T11:57:43Z</time>
      </trkpt>
      <trkpt lat="48.75753" lon="2.54184">
        <ele>152.751</ele>
        <time>2018-12-12T11:57:45Z</time>
      </trkpt>
      <trkpt lat="48.75752" lon="2.54186">
        <ele>152.753</ele>
        <time>2018-12-12T11:57:47Z</time>
      </trkpt>
      <trkpt lat="48.75749" lon="2.5419">
        <ele>152.754</ele>
        <time>2018-12-12T11:57:50Z</time>
      </trkpt>
      <trkpt lat="48.75748" lon="2.54193">
        <ele>152.754</ele>
        <time>2018-12-12T11:57:52Z</time>
      </trkpt>
      <trkpt lat="48.75746" lon="2.54196">
        <ele>152.754</ele>
        <time>2018-12-12T11:57:54Z</time>
      </trkpt>
      <trkpt lat="48.75745" lon="2.54199">
        <ele>152.753</ele>
        <time>2018-12-12T11:57:57Z</time>
      </trkpt>
      <trkpt lat="48.75742" lon="2.54204">
        <ele>152.752</ele>
        <time>2018-12-12T11:58:01Z</time>
      </trkpt>
      <trkpt lat="48.7574" lon="2.54208">
        <ele>152.75</ele>
        <time>2018-12-12T11:58:03Z</time>
      </trkpt>
      <trkpt lat="48.75738" lon="2.54213">
        <ele>152.748</ele>
        <time>2018-12-12T11:58:05Z</time>
      </trkpt>
      <trkpt lat="48.75734" lon="2.54219">
        <ele>152.73</ele>
        <time>2018-12-12T11:58:13Z</time>
      </trkpt>
      <trkpt lat="48.75732" lon="2.54225">
        <ele>152.713</ele>
        <time>2018-12-12T11:58:17Z</time>
      </trkpt>
      <trkpt lat="48.75728" lon="2.5423">
        <ele>152.7</ele>
        <time>2018-12-12T11:58:20Z</time>
      </trkpt>
      <trkpt lat="48.75725" lon="2.54237">
        <ele>152.684</ele>
        <time>2018-12-12T11:58:23Z</time>
      </trkpt>
      <trkpt lat="48.75723" lon="2.5424">
        <ele>152.673</ele>
        <time>2018-12-12T11:58:25Z</time>
      </trkpt>
      <trkpt lat="48.75719" lon="2.54245">
        <ele>152.648</ele>
        <time>2018-12-12T11:58:29Z</time>
      </trkpt>
      <trkpt lat="48.75716" lon="2.54251">
        <ele>152.62</ele>
        <time>2018-12-12T11:58:33Z</time>
      </trkpt>
      <trkpt lat="48.75712" lon="2.54257">
        <ele>152.591</ele>
        <time>2018-12-12T11:58:37Z</time>
      </trkpt>
      <trkpt lat="48.75709" lon="2.54264">
        <ele>152.576</ele>
        <time>2018-12-12T11:58:39Z</time>
      </trkpt>
      <trkpt lat="48.75706" lon="2.5427">
        <ele>152.563</ele>
        <time>2018-12-12T11:58:41Z</time>
      </trkpt>
      <trkpt lat="48.75705" lon="2.54273">
        <ele>152.556</ele>
        <time>2018-12-12T11:58:42Z</time>
      </trkpt>
      <trkpt lat="48.75702" lon="2.54278">
        <ele>152.544</ele>
        <time>2018-12-12T11:58:44Z</time>
      </trkpt>
      <trkpt lat="48.757" lon="2.54282">
        <ele>152.532</ele>
        <time>2018-12-12T11:58:46Z</time>
      </trkpt>
      <trkpt lat="48.75698" lon="2.54288">
        <ele>152.504</ele>
        <time>2018-12-12T11:58:51Z</time>
      </trkpt>
      <trkpt lat="48.75696" lon="2.54294">
        <ele>152.482</ele>
        <time>2018-12-12T11:58:55Z</time>
      </trkpt>
      <trkpt lat="48.75692" lon="2.54299">
        <ele>152.456</ele>
        <time>2018-12-12T11:58:59Z</time>
      </trkpt>
      <trkpt lat="48.75687" lon="2.54305">
        <ele>152.422</ele>
        <time>2018-12-12T11:59:03Z</time>
      </trkpt>
      <trkpt lat="48.75684" lon="2.54307">
        <ele>152.393</ele>
        <time>2018-12-12T11:59:06Z</time>
      </trkpt>
      <trkpt lat="48.75681" lon="2.5431">
        <ele>152.363</ele>
        <time>2018-12-12T11:59:09Z</time>
      </trkpt>
      <trkpt lat="48.75678" lon="2.54315">
        <ele>152.322</ele>
        <time>2018-12-12T11:59:13Z</time>
      </trkpt>
      <trkpt lat="48.75673" lon="2.54318">
        <ele>152.282</ele>
        <time>2018-12-12T11:59:17Z</time>
      </trkpt>
      <trkpt lat="48.7567" lon="2.54323">
        <ele>152.24</ele>
        <time>2018-12-12T11:59:22Z</time>
      </trkpt>
      <trkpt lat="48.7567" lon="2.54323">
        <ele>152.24</ele>
        <time>2018-12-12T11:59:30Z</time>
      </trkpt>
      <trkpt lat="48.7567" lon="2.54323">
        <ele>99</ele>
        <time>2018-12-12T11:59:30Z</time>
      </trkpt>
      <trkpt lat="48.7567" lon="2.54323">
        <ele>99</ele>
        <time>2018-12-12T11:59:43Z</time>
      </trkpt>
      <trkpt lat="48.75659" lon="2.54347">
        <ele>152.14</ele>
        <time>2018-12-12T11:59:43Z</time>
      </trkpt>
      <trkpt lat="48.75656" lon="2.54354">
        <ele>152.126</ele>
        <time>2018-12-12T11:59:46Z</time>
      </trkpt>
      <trkpt lat="48.75653" lon="2.54359">
        <ele>152.109</ele>
        <time>2018-12-12T11:59:50Z</time>
      </trkpt>
      <trkpt lat="48.7565" lon="2.54365">
        <ele>152.094</ele>
        <time>2018-12-12T11:59:54Z</time>
      </trkpt>
      <trkpt lat="48.75645" lon="2.54375">
        <ele>152.077</ele>
        <time>2018-12-12T12:00:00Z</time>
      </trkpt>
      <trkpt lat="48.75643" lon="2.54378">
        <ele>152.067</ele>
        <time>2018-12-12T12:00:03Z</time>
      </trkpt>
      <trkpt lat="48.75641" lon="2.54382">
        <ele>152.056</ele>
        <time>2018-12-12T12:00:06Z</time>
      </trkpt>
      <trkpt lat="48.75638" lon="2.54388">
        <ele>152.038</ele>
        <time>2018-12-12T12:00:10Z</time>
      </trkpt>
      <trkpt lat="48.75636" lon="2.54397">
        <ele>152.024</ele>
        <time>2018-12-12T12:00:14Z</time>
      </trkpt>
      <trkpt lat="48.75633" lon="2.54403">
        <ele>152.001</ele>
        <time>2018-12-12T12:00:19Z</time>
      </trkpt>
      <trkpt lat="48.75631" lon="2.54405">
        <ele>151.989</ele>
        <time>2018-12-12T12:00:21Z</time>
      </trkpt>
      <trkpt lat="48.75629" lon="2.5441">
        <ele>151.976</ele>
        <time>2018-12-12T12:00:23Z</time>
      </trkpt>
      <trkpt lat="48.75627" lon="2.54416">
        <ele>151.918</ele>
        <time>2018-12-12T12:00:31Z</time>
      </trkpt>
      <trkpt lat="48.75625" lon="2.54423">
        <ele>151.891</ele>
        <time>2018-12-12T12:00:35Z</time>
      </trkpt>
      <trkpt lat="48.75623" lon="2.5443">
        <ele>151.858</ele>
        <time>2018-12-12T12:00:41Z</time>
      </trkpt>
      <trkpt lat="48.75619" lon="2.54435">
        <ele>151.826</ele>
        <time>2018-12-12T12:00:46Z</time>
      </trkpt>
      <trkpt lat="48.75616" lon="2.54439">
        <ele>151.812</ele>
        <time>2018-12-12T12:00:49Z</time>
      </trkpt>
      <trkpt lat="48.75613" lon="2.54446">
        <ele>151.8</ele>
        <time>2018-12-12T12:00:52Z</time>
      </trkpt>
      <trkpt lat="48.75611" lon="2.5445">
        <ele>151.793</ele>
        <time>2018-12-12T12:00:54Z</time>
      </trkpt>
      <trkpt lat="48.75607" lon="2.54457">
        <ele>151.783</ele>
        <time>2018-12-12T12:00:57Z</time>
      </trkpt>
      <trkpt lat="48.75605" lon="2.54461">
        <ele>151.778</ele>
        <time>2018-12-12T12:00:59Z</time>
      </trkpt>
      <trkpt lat="48.75601" lon="2.54465">
        <ele>151.772</ele>
        <time>2018-12-12T12:01:04Z</time>
      </trkpt>
      <trkpt lat="48.75598" lon="2.54471">
        <ele>151.769</ele>
        <time>2018-12-12T12:01:09Z</time>
      </trkpt>
      <trkpt lat="48.75596" lon="2.54475">
        <ele>151.77</ele>
        <time>2018-12-12T12:01:11Z</time>
      </trkpt>
      <trkpt lat="48.75593" lon="2.5448">
        <ele>151.778</ele>
        <time>2018-12-12T12:01:15Z</time>
      </trkpt>
      <trkpt lat="48.75589" lon="2.54486">
        <ele>151.792</ele>
        <time>2018-12-12T12:01:19Z</time>
      </trkpt>
      <trkpt lat="48.75586" lon="2.5449">
        <ele>151.814</ele>
        <time>2018-12-12T12:01:24Z</time>
      </trkpt>
      <trkpt lat="48.75583" lon="2.54494">
        <ele>151.831</ele>
        <time>2018-12-12T12:01:27Z</time>
      </trkpt>
      <trkpt lat="48.75579" lon="2.54498">
        <ele>151.849</ele>
        <time>2018-12-12T12:01:30Z</time>
      </trkpt>
      <trkpt lat="48.75575" lon="2.54505">
        <ele>151.873</ele>
        <time>2018-12-12T12:01:34Z</time>
      </trkpt>
      <trkpt lat="48.75571" lon="2.5451">
        <ele>151.902</ele>
        <time>2018-12-12T12:01:39Z</time>
      </trkpt>
      <trkpt lat="48.75569" lon="2.54512">
        <ele>151.921</ele>
        <time>2018-12-12T12:01:42Z</time>
      </trkpt>
      <trkpt lat="48.75567" lon="2.54514">
        <ele>151.949</ele>
        <time>2018-12-12T12:01:46Z</time>
      </trkpt>
      <trkpt lat="48.75563" lon="2.54518">
        <ele>151.98</ele>
        <time>2018-12-12T12:01:50Z</time>
      </trkpt>
      <trkpt lat="48.7556" lon="2.54521">
        <ele>151.997</ele>
        <time>2018-12-12T12:01:52Z</time>
      </trkpt>
      <trkpt lat="48.75558" lon="2.54525">
        <ele>152.014</ele>
        <time>2018-12-12T12:01:54Z</time>
      </trkpt>
      <trkpt lat="48.75556" lon="2.54528">
        <ele>152.023</ele>
        <time>2018-12-12T12:01:55Z</time>
      </trkpt>
      <trkpt lat="48.75553" lon="2.54535">
        <ele>152.048</ele>
        <time>2018-12-12T12:01:58Z</time>
      </trkpt>
      <trkpt lat="48.75549" lon="2.5454">
        <ele>152.079</ele>
        <time>2018-12-12T12:02:02Z</time>
      </trkpt>
      <trkpt lat="48.75547" lon="2.54543">
        <ele>152.102</ele>
        <time>2018-12-12T12:02:05Z</time>
      </trkpt>
      <trkpt lat="48.75543" lon="2.54547">
        <ele>152.125</ele>
        <time>2018-12-12T12:02:08Z</time>
      </trkpt>
      <trkpt lat="48.75538" lon="2.54548">
        <ele>152.154</ele>
        <time>2018-12-12T12:02:12Z</time>
      </trkpt>
      <trkpt lat="48.75532" lon="2.54552">
        <ele>152.182</ele>
        <time>2018-12-12T12:02:16Z</time>
      </trkpt>
      <trkpt lat="48.75529" lon="2.54557">
        <ele>152.227</ele>
        <time>2018-12-12T12:02:22Z</time>
      </trkpt>
      <trkpt lat="48.75525" lon="2.54561">
        <ele>152.267</ele>
        <time>2018-12-12T12:02:27Z</time>
      </trkpt>
      <trkpt lat="48.75521" lon="2.54565">
        <ele>152.313</ele>
        <time>2018-12-12T12:02:33Z</time>
      </trkpt>
      <trkpt lat="48.75515" lon="2.54566">
        <ele>152.359</ele>
        <time>2018-12-12T12:02:40Z</time>
      </trkpt>
      <trkpt lat="48.75512" lon="2.54572">
        <ele>152.394</ele>
        <time>2018-12-12T12:02:46Z</time>
      </trkpt>
      <trkpt lat="48.75508" lon="2.54576">
        <ele>152.41</ele>
        <time>2018-12-12T12:02:49Z</time>
      </trkpt>
      <trkpt lat="48.75505" lon="2.54579">
        <ele>152.424</ele>
        <time>2018-12-12T12:02:52Z</time>
      </trkpt>
      <trkpt lat="48.75502" lon="2.54584">
        <ele>152.441</ele>
        <time>2018-12-12T12:02:56Z</time>
      </trkpt>
      <trkpt lat="48.75498" lon="2.5459">
        <ele>152.452</ele>
        <time>2018-12-12T12:02:59Z</time>
      </trkpt>
      <trkpt lat="48.75494" lon="2.54593">
        <ele>152.47</ele>
        <time>2018-12-12T12:03:04Z</time>
      </trkpt>
      <trkpt lat="48.75491" lon="2.54596">
        <ele>152.48</ele>
        <time>2018-12-12T12:03:07Z</time>
      </trkpt>
      <trkpt lat="48.75488" lon="2.54598">
        <ele>152.491</ele>
        <time>2018-12-12T12:03:10Z</time>
      </trkpt>
      <trkpt lat="48.75485" lon="2.546">
        <ele>152.505</ele>
        <time>2018-12-12T12:03:14Z</time>
      </trkpt>
      <trkpt lat="48.75482" lon="2.54603">
        <ele>152.512</ele>
        <time>2018-12-12T12:03:16Z</time>
      </trkpt>
      <trkpt lat="48.75478" lon="2.54606">
        <ele>152.526</ele>
        <time>2018-12-12T12:03:21Z</time>
      </trkpt>
      <trkpt lat="48.75478" lon="2.54606">
        <ele>152.526</ele>
        <time>2018-12-12T12:03:28Z</time>
      </trkpt>
      <trkpt lat="48.75478" lon="2.54606">
        <ele>99</ele>
        <time>2018-12-12T12:03:28Z</time>
      </trkpt>
      <trkpt lat="48.75478" lon="2.54606">
        <ele>99</ele>
        <time>2018-12-12T12:03:44Z</time>
      </trkpt>
      <trkpt lat="48.75467" lon="2.54617">
        <ele>152.558</ele>
        <time>2018-12-12T12:03:44Z</time>
      </trkpt>
      <trkpt lat="48.75462" lon="2.54623">
        <ele>152.565</ele>
        <time>2018-12-12T12:03:49Z</time>
      </trkpt>
      <trkpt lat="48.75457" lon="2.54627">
        <ele>152.569</ele>
        <time>2018-12-12T12:03:52Z</time>
      </trkpt>
      <trkpt lat="48.75453" lon="2.54632">
        <ele>152.576</ele>
        <time>2018-12-12T12:03:57Z</time>
      </trkpt>
      <trkpt lat="48.75451" lon="2.54635">
        <ele>152.578</ele>
        <time>2018-12-12T12:03:59Z</time>
      </trkpt>
      <trkpt lat="48.75448" lon="2.54639">
        <ele>152.585</ele>
        <time>2018-12-12T12:04:06Z</time>
      </trkpt>
      <trkpt lat="48.75442" lon="2.54641">
        <ele>152.587</ele>
        <time>2018-12-12T12:04:10Z</time>
      </trkpt>
      <trkpt lat="48.75438" lon="2.54645">
        <ele>152.587</ele>
        <time>2018-12-12T12:04:13Z</time>
      </trkpt>
      <trkpt lat="48.75435" lon="2.54652">
        <ele>152.586</ele>
        <time>2018-12-12T12:04:17Z</time>
      </trkpt>
      <trkpt lat="48.75431" lon="2.54661">
        <ele>152.587</ele>
        <time>2018-12-12T12:04:21Z</time>
      </trkpt>
      <trkpt lat="48.75429" lon="2.54669">
        <ele>152.588</ele>
        <time>2018-12-12T12:04:25Z</time>
      </trkpt>
      <trkpt lat="48.75427" lon="2.54675">
        <ele>152.592</ele>
        <time>2018-12-12T12:04:32Z</time>
      </trkpt>
      <trkpt lat="48.75422" lon="2.54682">
        <ele>152.592</ele>
        <time>2018-12-12T12:04:35Z</time>
      </trkpt>
      <trkpt lat="48.75417" lon="2.54684">
        <ele>152.594</ele>
        <time>2018-12-12T12:04:41Z</time>
      </trkpt>
      <trkpt lat="48.75412" lon="2.54691">
        <ele>152.594</ele>
        <time>2018-12-12T12:04:45Z</time>
      </trkpt>
      <trkpt lat="48.75409" lon="2.54694">
        <ele>152.594</ele>
        <time>2018-12-12T12:04:47Z</time>
      </trkpt>
      <trkpt lat="48.75407" lon="2.54698">
        <ele>152.593</ele>
        <time>2018-12-12T12:04:50Z</time>
      </trkpt>
      <trkpt lat="48.75405" lon="2.54701">
        <ele>152.592</ele>
        <time>2018-12-12T12:04:55Z</time>
      </trkpt>
      <trkpt lat="48.75401" lon="2.54704">
        <ele>152.593</ele>
        <time>2018-12-12T12:04:59Z</time>
      </trkpt>
      <trkpt lat="48.75396" lon="2.54702">
        <ele>152.593</ele>
        <time>2018-12-12T12:05:03Z</time>
      </trkpt>
      <trkpt lat="48.75391" lon="2.54703">
        <ele>152.594</ele>
        <time>2018-12-12T12:05:19Z</time>
      </trkpt>
      <trkpt lat="48.75389" lon="2.54703">
        <ele>152.593</ele>
        <time>2018-12-12T12:05:27Z</time>
      </trkpt>
      <trkpt lat="48.75386" lon="2.54709">
        <ele>152.588</ele>
        <time>2018-12-12T12:05:35Z</time>
      </trkpt>
      <trkpt lat="48.75382" lon="2.54721">
        <ele>152.581</ele>
        <time>2018-12-12T12:05:40Z</time>
      </trkpt>
      <trkpt lat="48.75378" lon="2.54725">
        <ele>152.569</ele>
        <time>2018-12-12T12:05:45Z</time>
      </trkpt>
      <trkpt lat="48.75374" lon="2.5473">
        <ele>152.564</ele>
        <time>2018-12-12T12:05:48Z</time>
      </trkpt>
      <trkpt lat="48.75369" lon="2.54733">
        <ele>152.561</ele>
        <time>2018-12-12T12:05:50Z</time>
      </trkpt>
      <trkpt lat="48.75365" lon="2.54736">
        <ele>152.557</ele>
        <time>2018-12-12T12:05:52Z</time>
      </trkpt>
      <trkpt lat="48.75361" lon="2.5474">
        <ele>152.553</ele>
        <time>2018-12-12T12:05:54Z</time>
      </trkpt>
      <trkpt lat="48.75356" lon="2.54748">
        <ele>152.549</ele>
        <time>2018-12-12T12:05:56Z</time>
      </trkpt>
      <trkpt lat="48.75351" lon="2.54753">
        <ele>152.546</ele>
        <time>2018-12-12T12:05:58Z</time>
      </trkpt>
      <trkpt lat="48.75346" lon="2.54753">
        <ele>152.541</ele>
        <time>2018-12-12T12:06:03Z</time>
      </trkpt>
      <trkpt lat="48.75346" lon="2.54753">
        <ele>152.541</ele>
        <time>2018-12-12T12:06:10Z</time>
      </trkpt>
      <trkpt lat="48.75346" lon="2.54753">
        <ele>99</ele>
        <time>2018-12-12T12:06:10Z</time>
      </trkpt>
      <trkpt lat="48.75346" lon="2.54753">
        <ele>99</ele>
        <time>2018-12-12T12:06:21Z</time>
      </trkpt>
      <trkpt lat="48.75333" lon="2.54761">
        <ele>152.537</ele>
        <time>2018-12-12T12:06:21Z</time>
      </trkpt>
      <trkpt lat="48.75328" lon="2.54757">
        <ele>152.542</ele>
        <time>2018-12-12T12:06:24Z</time>
      </trkpt>
      <trkpt lat="48.75326" lon="2.54755">
        <ele>152.546</ele>
        <time>2018-12-12T12:06:26Z</time>
      </trkpt>
      <trkpt lat="48.75326" lon="2.54755">
        <ele>99</ele>
        <time>2018-12-12T12:06:34Z</time>
      </trkpt>
      <trkpt lat="48.75326" lon="2.54755">
        <ele>99</ele>
        <time>2018-12-12T12:06:41Z</time>
      </trkpt>
      <trkpt lat="48.75319" lon="2.54751">
        <ele>152.587</ele>
        <time>2018-12-12T12:06:41Z</time>
      </trkpt>
      <trkpt lat="48.75313" lon="2.54749">
        <ele>152.597</ele>
        <time>2018-12-12T12:06:45Z</time>
      </trkpt>
      <trkpt lat="48.75309" lon="2.54747">
        <ele>152.604</ele>
        <time>2018-12-12T12:06:48Z</time>
      </trkpt>
      <trkpt lat="48.75306" lon="2.54746">
        <ele>152.61</ele>
        <time>2018-12-12T12:06:50Z</time>
      </trkpt>
      <trkpt lat="48.75302" lon="2.54742">
        <ele>152.623</ele>
        <time>2018-12-12T12:06:55Z</time>
      </trkpt>
      <trkpt lat="48.75298" lon="2.54738">
        <ele>152.637</ele>
        <time>2018-12-12T12:07:00Z</time>
      </trkpt>
      <trkpt lat="48.75294" lon="2.54734">
        <ele>152.647</ele>
        <time>2018-12-12T12:07:03Z</time>
      </trkpt>
      <trkpt lat="48.7529" lon="2.5473">
        <ele>152.665</ele>
        <time>2018-12-12T12:07:08Z</time>
      </trkpt>
      <trkpt lat="48.75285" lon="2.54728">
        <ele>152.692</ele>
        <time>2018-12-12T12:07:14Z</time>
      </trkpt>
      <trkpt lat="48.7528" lon="2.54726">
        <ele>152.716</ele>
        <time>2018-12-12T12:07:19Z</time>
      </trkpt>
      <trkpt lat="48.75276" lon="2.54724">
        <ele>152.73</ele>
        <time>2018-12-12T12:07:22Z</time>
      </trkpt>
      <trkpt lat="48.75273" lon="2.54723">
        <ele>152.738</ele>
        <time>2018-12-12T12:07:24Z</time>
      </trkpt>
      <trkpt lat="48.7527" lon="2.54721">
        <ele>152.751</ele>
        <time>2018-12-12T12:07:27Z</time>
      </trkpt>
      <trkpt lat="48.75267" lon="2.5472">
        <ele>152.764</ele>
        <time>2018-12-12T12:07:30Z</time>
      </trkpt>
      <trkpt lat="48.75265" lon="2.54718">
        <ele>152.772</ele>
        <time>2018-12-12T12:07:32Z</time>
      </trkpt>
      <trkpt lat="48.75261" lon="2.54713">
        <ele>152.79</ele>
        <time>2018-12-12T12:07:36Z</time>
      </trkpt>
      <trkpt lat="48.75257" lon="2.54709">
        <ele>152.824</ele>
        <time>2018-12-12T12:07:41Z</time>
      </trkpt>
      <trkpt lat="48.7525" lon="2.5471">
        <ele>152.863</ele>
        <time>2018-12-12T12:07:46Z</time>
      </trkpt>
      <trkpt lat="48.75246" lon="2.54705">
        <ele>152.893</ele>
        <time>2018-12-12T12:07:50Z</time>
      </trkpt>
      <trkpt lat="48.75243" lon="2.54701">
        <ele>152.913</ele>
        <time>2018-12-12T12:07:53Z</time>
      </trkpt>
      <trkpt lat="48.7524" lon="2.54696">
        <ele>152.937</ele>
        <time>2018-12-12T12:07:57Z</time>
      </trkpt>
      <trkpt lat="48.75238" lon="2.54693">
        <ele>152.951</ele>
        <time>2018-12-12T12:07:59Z</time>
      </trkpt>
      <trkpt lat="48.75233" lon="2.54689">
        <ele>152.978</ele>
        <time>2018-12-12T12:08:03Z</time>
      </trkpt>
      <trkpt lat="48.75228" lon="2.54686">
        <ele>153.008</ele>
        <time>2018-12-12T12:08:07Z</time>
      </trkpt>
      <trkpt lat="48.75223" lon="2.54683">
        <ele>153.04</ele>
        <time>2018-12-12T12:08:11Z</time>
      </trkpt>
      <trkpt lat="48.75221" lon="2.54682">
        <ele>153.065</ele>
        <time>2018-12-12T12:08:14Z</time>
      </trkpt>
      <trkpt lat="48.75216" lon="2.54677">
        <ele>153.111</ele>
        <time>2018-12-12T12:08:19Z</time>
      </trkpt>
      <trkpt lat="48.75212" lon="2.54673">
        <ele>153.151</ele>
        <time>2018-12-12T12:08:23Z</time>
      </trkpt>
      <trkpt lat="48.7521" lon="2.54672">
        <ele>153.186</ele>
        <time>2018-12-12T12:08:26Z</time>
      </trkpt>
      <trkpt lat="48.75205" lon="2.54665">
        <ele>153.236</ele>
        <time>2018-12-12T12:08:30Z</time>
      </trkpt>
      <trkpt lat="48.75203" lon="2.54662">
        <ele>153.25</ele>
        <time>2018-12-12T12:08:31Z</time>
      </trkpt>
      <trkpt lat="48.75198" lon="2.5466">
        <ele>153.327</ele>
        <time>2018-12-12T12:08:36Z</time>
      </trkpt>
      <trkpt lat="48.75193" lon="2.54656">
        <ele>153.396</ele>
        <time>2018-12-12T12:08:40Z</time>
      </trkpt>
      <trkpt lat="48.75189" lon="2.54655">
        <ele>153.452</ele>
        <time>2018-12-12T12:08:43Z</time>
      </trkpt>
      <trkpt lat="48.75183" lon="2.54652">
        <ele>153.533</ele>
        <time>2018-12-12T12:08:47Z</time>
      </trkpt>
      <trkpt lat="48.75179" lon="2.54646">
        <ele>153.597</ele>
        <time>2018-12-12T12:08:50Z</time>
      </trkpt>
      <trkpt lat="48.75174" lon="2.54641">
        <ele>153.724</ele>
        <time>2018-12-12T12:08:56Z</time>
      </trkpt>
      <trkpt lat="48.75168" lon="2.5464">
        <ele>153.804</ele>
        <time>2018-12-12T12:09:00Z</time>
      </trkpt>
      <trkpt lat="48.75164" lon="2.54636">
        <ele>153.881</ele>
        <time>2018-12-12T12:09:04Z</time>
      </trkpt>
      <trkpt lat="48.75159" lon="2.54632">
        <ele>153.934</ele>
        <time>2018-12-12T12:09:07Z</time>
      </trkpt>
      <trkpt lat="48.75153" lon="2.54628">
        <ele>154.001</ele>
        <time>2018-12-12T12:09:11Z</time>
      </trkpt>
      <trkpt lat="48.7515" lon="2.54626">
        <ele>154.017</ele>
        <time>2018-12-12T12:09:12Z</time>
      </trkpt>
      <trkpt lat="48.75146" lon="2.54624">
        <ele>154.112</ele>
        <time>2018-12-12T12:09:18Z</time>
      </trkpt>
      <trkpt lat="48.75143" lon="2.54623">
        <ele>154.159</ele>
        <time>2018-12-12T12:09:21Z</time>
      </trkpt>
      <trkpt lat="48.7514" lon="2.54621">
        <ele>154.204</ele>
        <time>2018-12-12T12:09:24Z</time>
      </trkpt>
      <trkpt lat="48.75134" lon="2.54619">
        <ele>154.26</ele>
        <time>2018-12-12T12:09:28Z</time>
      </trkpt>
      <trkpt lat="48.7513" lon="2.54615">
        <ele>154.34</ele>
        <time>2018-12-12T12:09:34Z</time>
      </trkpt>
      <trkpt lat="48.75126" lon="2.54612">
        <ele>154.387</ele>
        <time>2018-12-12T12:09:38Z</time>
      </trkpt>
      <trkpt lat="48.75121" lon="2.54609">
        <ele>154.431</ele>
        <time>2018-12-12T12:09:42Z</time>
      </trkpt>
      <trkpt lat="48.75115" lon="2.54607">
        <ele>154.471</ele>
        <time>2018-12-12T12:09:46Z</time>
      </trkpt>
      <trkpt lat="48.75112" lon="2.54606">
        <ele>154.508</ele>
        <time>2018-12-12T12:09:50Z</time>
      </trkpt>
      <trkpt lat="48.75107" lon="2.546">
        <ele>154.549</ele>
        <time>2018-12-12T12:09:55Z</time>
      </trkpt>
      <trkpt lat="48.75103" lon="2.54594">
        <ele>154.572</ele>
        <time>2018-12-12T12:09:58Z</time>
      </trkpt>
      <trkpt lat="48.75098" lon="2.5459">
        <ele>154.587</ele>
        <time>2018-12-12T12:10:00Z</time>
      </trkpt>
      <trkpt lat="48.75096" lon="2.54587">
        <ele>154.595</ele>
        <time>2018-12-12T12:10:01Z</time>
      </trkpt>
      <trkpt lat="48.75093" lon="2.54584">
        <ele>154.603</ele>
        <time>2018-12-12T12:10:02Z</time>
      </trkpt>
      <trkpt lat="48.75088" lon="2.54579">
        <ele>154.634</ele>
        <time>2018-12-12T12:10:06Z</time>
      </trkpt>
      <trkpt lat="48.75085" lon="2.54577">
        <ele>154.649</ele>
        <time>2018-12-12T12:10:08Z</time>
      </trkpt>
      <trkpt lat="48.75082" lon="2.54573">
        <ele>154.671</ele>
        <time>2018-12-12T12:10:11Z</time>
      </trkpt>
      <trkpt lat="48.75079" lon="2.5457">
        <ele>154.692</ele>
        <time>2018-12-12T12:10:14Z</time>
      </trkpt>
      <trkpt lat="48.75076" lon="2.54568">
        <ele>154.705</ele>
        <time>2018-12-12T12:10:16Z</time>
      </trkpt>
      <trkpt lat="48.75071" lon="2.54565">
        <ele>154.737</ele>
        <time>2018-12-12T12:10:21Z</time>
      </trkpt>
      <trkpt lat="48.75069" lon="2.54563">
        <ele>154.749</ele>
        <time>2018-12-12T12:10:23Z</time>
      </trkpt>
      <trkpt lat="48.75064" lon="2.54562">
        <ele>154.771</ele>
        <time>2018-12-12T12:10:27Z</time>
      </trkpt>
      <trkpt lat="48.75061" lon="2.5456">
        <ele>154.784</ele>
        <time>2018-12-12T12:10:29Z</time>
      </trkpt>
      <trkpt lat="48.75059" lon="2.54559">
        <ele>154.797</ele>
        <time>2018-12-12T12:10:31Z</time>
      </trkpt>
      <trkpt lat="48.75055" lon="2.54556">
        <ele>154.816</ele>
        <time>2018-12-12T12:10:34Z</time>
      </trkpt>
      <trkpt lat="48.7505" lon="2.54554">
        <ele>154.854</ele>
        <time>2018-12-12T12:10:40Z</time>
      </trkpt>
      <trkpt lat="48.75045" lon="2.54552">
        <ele>154.883</ele>
        <time>2018-12-12T12:10:45Z</time>
      </trkpt>
      <trkpt lat="48.75041" lon="2.54547">
        <ele>154.908</ele>
        <time>2018-12-12T12:10:49Z</time>
      </trkpt>
      <trkpt lat="48.75037" lon="2.54544">
        <ele>154.927</ele>
        <time>2018-12-12T12:10:52Z</time>
      </trkpt>
      <trkpt lat="48.75032" lon="2.54541">
        <ele>154.953</ele>
        <time>2018-12-12T12:10:56Z</time>
      </trkpt>
      <trkpt lat="48.7503" lon="2.54538">
        <ele>154.966</ele>
        <time>2018-12-12T12:10:58Z</time>
      </trkpt>
      <trkpt lat="48.7503" lon="2.54538">
        <ele>98</ele>
        <time>2018-12-12T12:11:03Z</time>
      </trkpt>
      <trkpt lat="48.7503" lon="2.54538">
        <ele>98</ele>
        <time>2018-12-12T12:11:06Z</time>
      </trkpt>
      <trkpt lat="48.75023" lon="2.54532">
        <ele>155.017</ele>
        <time>2018-12-12T12:11:06Z</time>
      </trkpt>
      <trkpt lat="48.75017" lon="2.54525">
        <ele>155.039</ele>
        <time>2018-12-12T12:11:10Z</time>
      </trkpt>
      <trkpt lat="48.75013" lon="2.54523">
        <ele>155.055</ele>
        <time>2018-12-12T12:11:13Z</time>
      </trkpt>
      <trkpt lat="48.7501" lon="2.54522">
        <ele>155.072</ele>
        <time>2018-12-12T12:11:16Z</time>
      </trkpt>
      <trkpt lat="48.75005" lon="2.54517">
        <ele>155.094</ele>
        <time>2018-12-12T12:11:20Z</time>
      </trkpt>
      <trkpt lat="48.75003" lon="2.54515">
        <ele>155.112</ele>
        <time>2018-12-12T12:11:23Z</time>
      </trkpt>
      <trkpt lat="48.74998" lon="2.54511">
        <ele>155.147</ele>
        <time>2018-12-12T12:11:29Z</time>
      </trkpt>
      <trkpt lat="48.74994" lon="2.54505">
        <ele>155.163</ele>
        <time>2018-12-12T12:11:32Z</time>
      </trkpt>
      <trkpt lat="48.74991" lon="2.54502">
        <ele>155.174</ele>
        <time>2018-12-12T12:11:34Z</time>
      </trkpt>
      <trkpt lat="48.74986" lon="2.54498">
        <ele>155.189</ele>
        <time>2018-12-12T12:11:37Z</time>
      </trkpt>
      <trkpt lat="48.74981" lon="2.54495">
        <ele>155.211</ele>
        <time>2018-12-12T12:11:41Z</time>
      </trkpt>
      <trkpt lat="48.74978" lon="2.54494">
        <ele>155.232</ele>
        <time>2018-12-12T12:11:45Z</time>
      </trkpt>
      <trkpt lat="48.74975" lon="2.54493">
        <ele>155.246</ele>
        <time>2018-12-12T12:11:48Z</time>
      </trkpt>
      <trkpt lat="48.74972" lon="2.54491">
        <ele>155.256</ele>
        <time>2018-12-12T12:11:50Z</time>
      </trkpt>
      <trkpt lat="48.74969" lon="2.5449">
        <ele>155.26</ele>
        <time>2018-12-12T12:11:52Z</time>
      </trkpt>
      <trkpt lat="48.74966" lon="2.54489">
        <ele>155.27</ele>
        <time>2018-12-12T12:11:54Z</time>
      </trkpt>
      <trkpt lat="48.74961" lon="2.54485">
        <ele>155.289</ele>
        <time>2018-12-12T12:11:58Z</time>
      </trkpt>
      <trkpt lat="48.74956" lon="2.54482">
        <ele>155.316</ele>
        <time>2018-12-12T12:12:04Z</time>
      </trkpt>
      <trkpt lat="48.74954" lon="2.54481">
        <ele>155.329</ele>
        <time>2018-12-12T12:12:07Z</time>
      </trkpt>
      <trkpt lat="48.74951" lon="2.54479">
        <ele>155.343</ele>
        <time>2018-12-12T12:12:10Z</time>
      </trkpt>
      <trkpt lat="48.74945" lon="2.54478">
        <ele>155.371</ele>
        <time>2018-12-12T12:12:16Z</time>
      </trkpt>
      <trkpt lat="48.74942" lon="2.54477">
        <ele>155.388</ele>
        <time>2018-12-12T12:12:19Z</time>
      </trkpt>
      <trkpt lat="48.74938" lon="2.54473">
        <ele>155.412</ele>
        <time>2018-12-12T12:12:23Z</time>
      </trkpt>
      <trkpt lat="48.74936" lon="2.54472">
        <ele>155.424</ele>
        <time>2018-12-12T12:12:25Z</time>
      </trkpt>
      <trkpt lat="48.74933" lon="2.54469">
        <ele>155.442</ele>
        <time>2018-12-12T12:12:28Z</time>
      </trkpt>
      <trkpt lat="48.74929" lon="2.54467">
        <ele>155.478</ele>
        <time>2018-12-12T12:12:34Z</time>
      </trkpt>
      <trkpt lat="48.74926" lon="2.54466">
        <ele>155.501</ele>
        <time>2018-12-12T12:12:38Z</time>
      </trkpt>
      <trkpt lat="48.74924" lon="2.54464">
        <ele>155.512</ele>
        <time>2018-12-12T12:12:40Z</time>
      </trkpt>
      <trkpt lat="48.74918" lon="2.5446">
        <ele>155.529</ele>
        <time>2018-12-12T12:12:44Z</time>
      </trkpt>
      <trkpt lat="48.74913" lon="2.54459">
        <ele>155.554</ele>
        <time>2018-12-12T12:12:49Z</time>
      </trkpt>
      <trkpt lat="48.7491" lon="2.54453">
        <ele>155.572</ele>
        <time>2018-12-12T12:12:53Z</time>
      </trkpt>
      <trkpt lat="48.74906" lon="2.54448">
        <ele>155.591</ele>
        <time>2018-12-12T12:12:58Z</time>
      </trkpt>
      <trkpt lat="48.74906" lon="2.54448">
        <ele>155.591</ele>
        <time>2018-12-12T12:13:05Z</time>
      </trkpt>
      <trkpt lat="48.74906" lon="2.54448">
        <ele>97.9</ele>
        <time>2018-12-12T12:13:05Z</time>
      </trkpt>
      <trkpt lat="48.74906" lon="2.54448">
        <ele>97.9</ele>
        <time>2018-12-12T12:13:16Z</time>
      </trkpt>
      <trkpt lat="48.74914" lon="2.54424">
        <ele>155.687</ele>
        <time>2018-12-12T12:13:16Z</time>
      </trkpt>
      <trkpt lat="48.74918" lon="2.54415">
        <ele>155.72</ele>
        <time>2018-12-12T12:13:21Z</time>
      </trkpt>
      <trkpt lat="48.74919" lon="2.54408">
        <ele>155.733</ele>
        <time>2018-12-12T12:13:24Z</time>
      </trkpt>
      <trkpt lat="48.74919" lon="2.54396">
        <ele>155.742</ele>
        <time>2018-12-12T12:13:27Z</time>
      </trkpt>
      <trkpt lat="48.74919" lon="2.54392">
        <ele>155.744</ele>
        <time>2018-12-12T12:13:28Z</time>
      </trkpt>
      <trkpt lat="48.74919" lon="2.54385">
        <ele>155.748</ele>
        <time>2018-12-12T12:13:30Z</time>
      </trkpt>
      <trkpt lat="48.74918" lon="2.54377">
        <ele>155.754</ele>
        <time>2018-12-12T12:13:33Z</time>
      </trkpt>
      <trkpt lat="48.74919" lon="2.5437">
        <ele>155.763</ele>
        <time>2018-12-12T12:13:37Z</time>
      </trkpt>
      <trkpt lat="48.7492" lon="2.54366">
        <ele>155.77</ele>
        <time>2018-12-12T12:13:40Z</time>
      </trkpt>
      <trkpt lat="48.74922" lon="2.5436">
        <ele>155.777</ele>
        <time>2018-12-12T12:13:44Z</time>
      </trkpt>
      <trkpt lat="48.74923" lon="2.54356">
        <ele>155.78</ele>
        <time>2018-12-12T12:13:45Z</time>
      </trkpt>
      <trkpt lat="48.74924" lon="2.54351">
        <ele>155.788</ele>
        <time>2018-12-12T12:13:48Z</time>
      </trkpt>
      <trkpt lat="48.74924" lon="2.54345">
        <ele>155.793</ele>
        <time>2018-12-12T12:13:50Z</time>
      </trkpt>
      <trkpt lat="48.74924" lon="2.54341">
        <ele>155.796</ele>
        <time>2018-12-12T12:13:51Z</time>
      </trkpt>
      <trkpt lat="48.74925" lon="2.54333">
        <ele>155.805</ele>
        <time>2018-12-12T12:13:54Z</time>
      </trkpt>
      <trkpt lat="48.74926" lon="2.54327">
        <ele>155.818</ele>
        <time>2018-12-12T12:13:58Z</time>
      </trkpt>
      <trkpt lat="48.74926" lon="2.54324">
        <ele>155.824</ele>
        <time>2018-12-12T12:14:00Z</time>
      </trkpt>
      <trkpt lat="48.74926" lon="2.54315">
        <ele>155.832</ele>
        <time>2018-12-12T12:14:03Z</time>
      </trkpt>
      <trkpt lat="48.74926" lon="2.54309">
        <ele>155.842</ele>
        <time>2018-12-12T12:14:07Z</time>
      </trkpt>
      <trkpt lat="48.74928" lon="2.54301">
        <ele>155.851</ele>
        <time>2018-12-12T12:14:11Z</time>
      </trkpt>
      <trkpt lat="48.7493" lon="2.54296">
        <ele>155.857</ele>
        <time>2018-12-12T12:14:14Z</time>
      </trkpt>
      <trkpt lat="48.74931" lon="2.54288">
        <ele>155.866</ele>
        <time>2018-12-12T12:14:17Z</time>
      </trkpt>
      <trkpt lat="48.74931" lon="2.5428">
        <ele>155.885</ele>
        <time>2018-12-12T12:14:22Z</time>
      </trkpt>
      <trkpt lat="48.74931" lon="2.54277">
        <ele>155.896</ele>
        <time>2018-12-12T12:14:25Z</time>
      </trkpt>
      <trkpt lat="48.74934" lon="2.5427">
        <ele>155.913</ele>
        <time>2018-12-12T12:14:29Z</time>
      </trkpt>
      <trkpt lat="48.74936" lon="2.54263">
        <ele>155.926</ele>
        <time>2018-12-12T12:14:32Z</time>
      </trkpt>
      <trkpt lat="48.74937" lon="2.54257">
        <ele>155.945</ele>
        <time>2018-12-12T12:14:36Z</time>
      </trkpt>
      <trkpt lat="48.74936" lon="2.54249">
        <ele>155.965</ele>
        <time>2018-12-12T12:14:40Z</time>
      </trkpt>
      <trkpt lat="48.74937" lon="2.54242">
        <ele>155.988</ele>
        <time>2018-12-12T12:14:45Z</time>
      </trkpt>
      <trkpt lat="48.74939" lon="2.54233">
        <ele>156.01</ele>
        <time>2018-12-12T12:14:50Z</time>
      </trkpt>
      <trkpt lat="48.7494" lon="2.54226">
        <ele>156.03</ele>
        <time>2018-12-12T12:14:55Z</time>
      </trkpt>
      <trkpt lat="48.74944" lon="2.54219">
        <ele>156.05</ele>
        <time>2018-12-12T12:15:01Z</time>
      </trkpt>
      <trkpt lat="48.74946" lon="2.54215">
        <ele>156.06</ele>
        <time>2018-12-12T12:15:04Z</time>
      </trkpt>
      <trkpt lat="48.74947" lon="2.54208">
        <ele>156.071</ele>
        <time>2018-12-12T12:15:08Z</time>
      </trkpt>
      <trkpt lat="48.74948" lon="2.54202">
        <ele>156.079</ele>
        <time>2018-12-12T12:15:11Z</time>
      </trkpt>
      <trkpt lat="48.74948" lon="2.54195">
        <ele>156.085</ele>
        <time>2018-12-12T12:15:14Z</time>
      </trkpt>
      <trkpt lat="48.74948" lon="2.54188">
        <ele>156.089</ele>
        <time>2018-12-12T12:15:17Z</time>
      </trkpt>
      <trkpt lat="48.74948" lon="2.54179">
        <ele>156.093</ele>
        <time>2018-12-12T12:15:21Z</time>
      </trkpt>
      <trkpt lat="48.74949" lon="2.54171">
        <ele>156.099</ele>
        <time>2018-12-12T12:15:25Z</time>
      </trkpt>
      <trkpt lat="48.74949" lon="2.54167">
        <ele>156.104</ele>
        <time>2018-12-12T12:15:28Z</time>
      </trkpt>
      <trkpt lat="48.74951" lon="2.5416">
        <ele>156.112</ele>
        <time>2018-12-12T12:15:31Z</time>
      </trkpt>
      <trkpt lat="48.74953" lon="2.54155">
        <ele>156.123</ele>
        <time>2018-12-12T12:15:35Z</time>
      </trkpt>
      <trkpt lat="48.74956" lon="2.54145">
        <ele>156.136</ele>
        <time>2018-12-12T12:15:40Z</time>
      </trkpt>
      <trkpt lat="48.74957" lon="2.54138">
        <ele>156.143</ele>
        <time>2018-12-12T12:15:43Z</time>
      </trkpt>
      <trkpt lat="48.74958" lon="2.54134">
        <ele>156.147</ele>
        <time>2018-12-12T12:15:45Z</time>
      </trkpt>
      <trkpt lat="48.74958" lon="2.54129">
        <ele>156.151</ele>
        <time>2018-12-12T12:15:47Z</time>
      </trkpt>
      <trkpt lat="48.74959" lon="2.54123">
        <ele>156.157</ele>
        <time>2018-12-12T12:15:50Z</time>
      </trkpt>
      <trkpt lat="48.7496" lon="2.54118">
        <ele>156.16</ele>
        <time>2018-12-12T12:15:52Z</time>
      </trkpt>
      <trkpt lat="48.74961" lon="2.54113">
        <ele>156.165</ele>
        <time>2018-12-12T12:15:55Z</time>
      </trkpt>
      <trkpt lat="48.74962" lon="2.54108">
        <ele>156.17</ele>
        <time>2018-12-12T12:15:58Z</time>
      </trkpt>
      <trkpt lat="48.74964" lon="2.54101">
        <ele>156.178</ele>
        <time>2018-12-12T12:16:02Z</time>
      </trkpt>
      <trkpt lat="48.74964" lon="2.54094">
        <ele>156.183</ele>
        <time>2018-12-12T12:16:05Z</time>
      </trkpt>
      <trkpt lat="48.74965" lon="2.54087">
        <ele>156.189</ele>
        <time>2018-12-12T12:16:09Z</time>
      </trkpt>
      <trkpt lat="48.74966" lon="2.54082">
        <ele>156.195</ele>
        <time>2018-12-12T12:16:12Z</time>
      </trkpt>
      <trkpt lat="48.74967" lon="2.54077">
        <ele>156.197</ele>
        <time>2018-12-12T12:16:14Z</time>
      </trkpt>
      <trkpt lat="48.74967" lon="2.54072">
        <ele>156.201</ele>
        <time>2018-12-12T12:16:17Z</time>
      </trkpt>
      <trkpt lat="48.74968" lon="2.54068">
        <ele>156.203</ele>
        <time>2018-12-12T12:16:19Z</time>
      </trkpt>
      <trkpt lat="48.7497" lon="2.54061">
        <ele>156.203</ele>
        <time>2018-12-12T12:16:23Z</time>
      </trkpt>
      <trkpt lat="48.74971" lon="2.54053">
        <ele>156.201</ele>
        <time>2018-12-12T12:16:27Z</time>
      </trkpt>
      <trkpt lat="48.74973" lon="2.54047">
        <ele>156.199</ele>
        <time>2018-12-12T12:16:30Z</time>
      </trkpt>
      <trkpt lat="48.74974" lon="2.5404">
        <ele>156.196</ele>
        <time>2018-12-12T12:16:34Z</time>
      </trkpt>
      <trkpt lat="48.74974" lon="2.54036">
        <ele>156.194</ele>
        <time>2018-12-12T12:16:37Z</time>
      </trkpt>
      <trkpt lat="48.74974" lon="2.54032">
        <ele>156.193</ele>
        <time>2018-12-12T12:16:39Z</time>
      </trkpt>
      <trkpt lat="48.74975" lon="2.54025">
        <ele>156.192</ele>
        <time>2018-12-12T12:16:43Z</time>
      </trkpt>
      <trkpt lat="48.74971" lon="2.54019">
        <ele>156.189</ele>
        <time>2018-12-12T12:16:48Z</time>
      </trkpt>
      <trkpt lat="48.74966" lon="2.54016">
        <ele>156.181</ele>
        <time>2018-12-12T12:16:52Z</time>
      </trkpt>
      <trkpt lat="48.74961" lon="2.54014">
        <ele>156.169</ele>
        <time>2018-12-12T12:16:57Z</time>
      </trkpt>
      <trkpt lat="48.74957" lon="2.54011">
        <ele>156.162</ele>
        <time>2018-12-12T12:17:01Z</time>
      </trkpt>
      <trkpt lat="48.74955" lon="2.5401">
        <ele>156.158</ele>
        <time>2018-12-12T12:17:03Z</time>
      </trkpt>
      <trkpt lat="48.7495" lon="2.54006">
        <ele>156.153</ele>
        <time>2018-12-12T12:17:07Z</time>
      </trkpt>
      <trkpt lat="48.74948" lon="2.54004">
        <ele>156.15</ele>
        <time>2018-12-12T12:17:09Z</time>
      </trkpt>
      <trkpt lat="48.74944" lon="2.54002">
        <ele>156.147</ele>
        <time>2018-12-12T12:17:12Z</time>
      </trkpt>
      <trkpt lat="48.74942" lon="2.54">
        <ele>156.146</ele>
        <time>2018-12-12T12:17:14Z</time>
      </trkpt>
      <trkpt lat="48.74939" lon="2.53998">
        <ele>156.146</ele>
        <time>2018-12-12T12:17:16Z</time>
      </trkpt>
      <trkpt lat="48.74934" lon="2.53996">
        <ele>156.147</ele>
        <time>2018-12-12T12:17:20Z</time>
      </trkpt>
      <trkpt lat="48.74929" lon="2.53991">
        <ele>156.152</ele>
        <time>2018-12-12T12:17:24Z</time>
      </trkpt>
      <trkpt lat="48.74927" lon="2.53989">
        <ele>156.154</ele>
        <time>2018-12-12T12:17:26Z</time>
      </trkpt>
      <trkpt lat="48.74924" lon="2.53987">
        <ele>156.159</ele>
        <time>2018-12-12T12:17:29Z</time>
      </trkpt>
      <trkpt lat="48.7492" lon="2.53984">
        <ele>156.166</ele>
        <time>2018-12-12T12:17:33Z</time>
      </trkpt>
      <trkpt lat="48.74917" lon="2.53983">
        <ele>156.17</ele>
        <time>2018-12-12T12:17:35Z</time>
      </trkpt>
      <trkpt lat="48.74912" lon="2.53977">
        <ele>156.178</ele>
        <time>2018-12-12T12:17:39Z</time>
      </trkpt>
      <trkpt lat="48.74909" lon="2.53971">
        <ele>156.186</ele>
        <time>2018-12-12T12:17:43Z</time>
      </trkpt>
      <trkpt lat="48.74909" lon="2.53963">
        <ele>156.198</ele>
        <time>2018-12-12T12:17:48Z</time>
      </trkpt>
      <trkpt lat="48.74909" lon="2.53958">
        <ele>156.206</ele>
        <time>2018-12-12T12:17:51Z</time>
      </trkpt>
      <trkpt lat="48.7491" lon="2.53954">
        <ele>156.211</ele>
        <time>2018-12-12T12:17:53Z</time>
      </trkpt>
      <trkpt lat="48.7491" lon="2.5395">
        <ele>156.216</ele>
        <time>2018-12-12T12:17:55Z</time>
      </trkpt>
      <trkpt lat="48.7491" lon="2.53943">
        <ele>156.226</ele>
        <time>2018-12-12T12:17:59Z</time>
      </trkpt>
      <trkpt lat="48.7491" lon="2.53935">
        <ele>156.233</ele>
        <time>2018-12-12T12:18:03Z</time>
      </trkpt>
      <trkpt lat="48.74909" lon="2.53928">
        <ele>156.241</ele>
        <time>2018-12-12T12:18:07Z</time>
      </trkpt>
      <trkpt lat="48.74908" lon="2.53922">
        <ele>156.251</ele>
        <time>2018-12-12T12:18:12Z</time>
      </trkpt>
      <trkpt lat="48.74904" lon="2.53914">
        <ele>156.269</ele>
        <time>2018-12-12T12:18:18Z</time>
      </trkpt>
      <trkpt lat="48.74901" lon="2.53908">
        <ele>156.279</ele>
        <time>2018-12-12T12:18:21Z</time>
      </trkpt>
      <trkpt lat="48.74899" lon="2.53905">
        <ele>156.286</ele>
        <time>2018-12-12T12:18:23Z</time>
      </trkpt>
      <trkpt lat="48.74894" lon="2.539">
        <ele>156.296</ele>
        <time>2018-12-12T12:18:26Z</time>
      </trkpt>
      <trkpt lat="48.74891" lon="2.53895">
        <ele>156.302</ele>
        <time>2018-12-12T12:18:28Z</time>
      </trkpt>
      <trkpt lat="48.74888" lon="2.53888">
        <ele>156.305</ele>
        <time>2018-12-12T12:18:30Z</time>
      </trkpt>
      <trkpt lat="48.74885" lon="2.53879">
        <ele>156.305</ele>
        <time>2018-12-12T12:18:32Z</time>
      </trkpt>
      <trkpt lat="48.74883" lon="2.53873">
        <ele>156.302</ele>
        <time>2018-12-12T12:18:38Z</time>
      </trkpt>
      <trkpt lat="48.7488" lon="2.53864">
        <ele>156.296</ele>
        <time>2018-12-12T12:18:41Z</time>
      </trkpt>
      <trkpt lat="48.74877" lon="2.53857">
        <ele>156.284</ele>
        <time>2018-12-12T12:18:46Z</time>
      </trkpt>
      <trkpt lat="48.74876" lon="2.53854">
        <ele>156.279</ele>
        <time>2018-12-12T12:18:48Z</time>
      </trkpt>
      <trkpt lat="48.74875" lon="2.53848">
        <ele>156.265</ele>
        <time>2018-12-12T12:18:53Z</time>
      </trkpt>
      <trkpt lat="48.74876" lon="2.5384">
        <ele>156.246</ele>
        <time>2018-12-12T12:18:59Z</time>
      </trkpt>
      <trkpt lat="48.74876" lon="2.53837">
        <ele>156.234</ele>
        <time>2018-12-12T12:19:02Z</time>
      </trkpt>
      <trkpt lat="48.74877" lon="2.53833">
        <ele>156.225</ele>
        <time>2018-12-12T12:19:04Z</time>
      </trkpt>
      <trkpt lat="48.74878" lon="2.5383">
        <ele>156.215</ele>
        <time>2018-12-12T12:19:06Z</time>
      </trkpt>
      <trkpt lat="48.74879" lon="2.53823">
        <ele>156.203</ele>
        <time>2018-12-12T12:19:08Z</time>
      </trkpt>
      <trkpt lat="48.74878" lon="2.53814">
        <ele>156.181</ele>
        <time>2018-12-12T12:19:12Z</time>
      </trkpt>
      <trkpt lat="48.74884" lon="2.5381">
        <ele>156.16</ele>
        <time>2018-12-12T12:19:16Z</time>
      </trkpt>
      <trkpt lat="48.74886" lon="2.53807">
        <ele>156.156</ele>
        <time>2018-12-12T12:19:17Z</time>
      </trkpt>
      <trkpt lat="48.74891" lon="2.53803">
        <ele>156.144</ele>
        <time>2018-12-12T12:19:20Z</time>
      </trkpt>
      <trkpt lat="48.74893" lon="2.53797">
        <ele>156.137</ele>
        <time>2018-12-12T12:19:23Z</time>
      </trkpt>
      <trkpt lat="48.74894" lon="2.53793">
        <ele>156.136</ele>
        <time>2018-12-12T12:19:24Z</time>
      </trkpt>
      <trkpt lat="48.74895" lon="2.53786">
        <ele>156.132</ele>
        <time>2018-12-12T12:19:28Z</time>
      </trkpt>
      <trkpt lat="48.74897" lon="2.53779">
        <ele>156.131</ele>
        <time>2018-12-12T12:19:33Z</time>
      </trkpt>
      <trkpt lat="48.74898" lon="2.53772">
        <ele>156.128</ele>
        <time>2018-12-12T12:19:38Z</time>
      </trkpt>
      <trkpt lat="48.74899" lon="2.53764">
        <ele>156.128</ele>
        <time>2018-12-12T12:19:44Z</time>
      </trkpt>
      <trkpt lat="48.74901" lon="2.53756">
        <ele>156.13</ele>
        <time>2018-12-12T12:19:49Z</time>
      </trkpt>
      <trkpt lat="48.74904" lon="2.53751">
        <ele>156.135</ele>
        <time>2018-12-12T12:19:53Z</time>
      </trkpt>
      <trkpt lat="48.74907" lon="2.53745">
        <ele>156.147</ele>
        <time>2018-12-12T12:19:58Z</time>
      </trkpt>
      <trkpt lat="48.74909" lon="2.53741">
        <ele>156.156</ele>
        <time>2018-12-12T12:20:01Z</time>
      </trkpt>
      <trkpt lat="48.74912" lon="2.53736">
        <ele>156.171</ele>
        <time>2018-12-12T12:20:05Z</time>
      </trkpt>
      <trkpt lat="48.74914" lon="2.53733">
        <ele>156.18</ele>
        <time>2018-12-12T12:20:08Z</time>
      </trkpt>
      <trkpt lat="48.74916" lon="2.53725">
        <ele>156.193</ele>
        <time>2018-12-12T12:20:12Z</time>
      </trkpt>
      <trkpt lat="48.74917" lon="2.53721">
        <ele>156.2</ele>
        <time>2018-12-12T12:20:14Z</time>
      </trkpt>
      <trkpt lat="48.74918" lon="2.53717">
        <ele>156.206</ele>
        <time>2018-12-12T12:20:16Z</time>
      </trkpt>
      <trkpt lat="48.74921" lon="2.5371">
        <ele>156.217</ele>
        <time>2018-12-12T12:20:20Z</time>
      </trkpt>
      <trkpt lat="48.74923" lon="2.53703">
        <ele>156.224</ele>
        <time>2018-12-12T12:20:23Z</time>
      </trkpt>
      <trkpt lat="48.74924" lon="2.53699">
        <ele>156.228</ele>
        <time>2018-12-12T12:20:25Z</time>
      </trkpt>
      <trkpt lat="48.74928" lon="2.5369">
        <ele>156.241</ele>
        <time>2018-12-12T12:20:30Z</time>
      </trkpt>
      <trkpt lat="48.74929" lon="2.53682">
        <ele>156.248</ele>
        <time>2018-12-12T12:20:33Z</time>
      </trkpt>
      <trkpt lat="48.74929" lon="2.53677">
        <ele>156.252</ele>
        <time>2018-12-12T12:20:35Z</time>
      </trkpt>
      <trkpt lat="48.74929" lon="2.53673">
        <ele>156.256</ele>
        <time>2018-12-12T12:20:37Z</time>
      </trkpt>
      <trkpt lat="48.74932" lon="2.53666">
        <ele>156.262</ele>
        <time>2018-12-12T12:20:42Z</time>
      </trkpt>
      <trkpt lat="48.74934" lon="2.53661">
        <ele>156.27</ele>
        <time>2018-12-12T12:20:47Z</time>
      </trkpt>
      <trkpt lat="48.74936" lon="2.53657">
        <ele>156.273</ele>
        <time>2018-12-12T12:20:49Z</time>
      </trkpt>
      <trkpt lat="48.74938" lon="2.53653">
        <ele>156.277</ele>
        <time>2018-12-12T12:20:52Z</time>
      </trkpt>
      <trkpt lat="48.7494" lon="2.53649">
        <ele>156.279</ele>
        <time>2018-12-12T12:20:54Z</time>
      </trkpt>
      <trkpt lat="48.74941" lon="2.53643">
        <ele>156.281</ele>
        <time>2018-12-12T12:20:58Z</time>
      </trkpt>
      <trkpt lat="48.74945" lon="2.53638">
        <ele>156.282</ele>
        <time>2018-12-12T12:21:01Z</time>
      </trkpt>
      <trkpt lat="48.74949" lon="2.53632">
        <ele>156.284</ele>
        <time>2018-12-12T12:21:05Z</time>
      </trkpt>
      <trkpt lat="48.74952" lon="2.53627">
        <ele>156.283</ele>
        <time>2018-12-12T12:21:09Z</time>
      </trkpt>
      <trkpt lat="48.74954" lon="2.53619">
        <ele>156.281</ele>
        <time>2018-12-12T12:21:13Z</time>
      </trkpt>
      <trkpt lat="48.74954" lon="2.53611">
        <ele>156.282</ele>
        <time>2018-12-12T12:21:17Z</time>
      </trkpt>
      <trkpt lat="48.74955" lon="2.53606">
        <ele>156.283</ele>
        <time>2018-12-12T12:21:19Z</time>
      </trkpt>
      <trkpt lat="48.74959" lon="2.53603">
        <ele>156.282</ele>
        <time>2018-12-12T12:21:22Z</time>
      </trkpt>
      <trkpt lat="48.74962" lon="2.53596">
        <ele>156.278</ele>
        <time>2018-12-12T12:21:25Z</time>
      </trkpt>
      <trkpt lat="48.74964" lon="2.53589">
        <ele>156.275</ele>
        <time>2018-12-12T12:21:29Z</time>
      </trkpt>
      <trkpt lat="48.74962" lon="2.53581">
        <ele>156.272</ele>
        <time>2018-12-12T12:21:35Z</time>
      </trkpt>
      <trkpt lat="48.74958" lon="2.53576">
        <ele>156.272</ele>
        <time>2018-12-12T12:21:39Z</time>
      </trkpt>
      <trkpt lat="48.74954" lon="2.5357">
        <ele>156.267</ele>
        <time>2018-12-12T12:21:44Z</time>
      </trkpt>
      <trkpt lat="48.74951" lon="2.53564">
        <ele>156.26</ele>
        <time>2018-12-12T12:21:47Z</time>
      </trkpt>
      <trkpt lat="48.74947" lon="2.53559">
        <ele>156.253</ele>
        <time>2018-12-12T12:21:49Z</time>
      </trkpt>
      <trkpt lat="48.74943" lon="2.53555">
        <ele>156.229</ele>
        <time>2018-12-12T12:21:54Z</time>
      </trkpt>
      <trkpt lat="48.74939" lon="2.5355">
        <ele>156.204</ele>
        <time>2018-12-12T12:21:59Z</time>
      </trkpt>
      <trkpt lat="48.74936" lon="2.53547">
        <ele>156.182</ele>
        <time>2018-12-12T12:22:03Z</time>
      </trkpt>
      <trkpt lat="48.74934" lon="2.53544">
        <ele>156.154</ele>
        <time>2018-12-12T12:22:08Z</time>
      </trkpt>
      <trkpt lat="48.74932" lon="2.53542">
        <ele>156.142</ele>
        <time>2018-12-12T12:22:10Z</time>
      </trkpt>
      <trkpt lat="48.74928" lon="2.5354">
        <ele>156.108</ele>
        <time>2018-12-12T12:22:15Z</time>
      </trkpt>
      <trkpt lat="48.74925" lon="2.53538">
        <ele>156.093</ele>
        <time>2018-12-12T12:22:17Z</time>
      </trkpt>
      <trkpt lat="48.74921" lon="2.53529">
        <ele>156.046</ele>
        <time>2018-12-12T12:22:23Z</time>
      </trkpt>
      <trkpt lat="48.74917" lon="2.53525">
        <ele>156.019</ele>
        <time>2018-12-12T12:22:26Z</time>
      </trkpt>
      <trkpt lat="48.74913" lon="2.53522">
        <ele>155.993</ele>
        <time>2018-12-12T12:22:29Z</time>
      </trkpt>
      <trkpt lat="48.7491" lon="2.5352">
        <ele>155.968</ele>
        <time>2018-12-12T12:22:32Z</time>
      </trkpt>
      <trkpt lat="48.74905" lon="2.53516">
        <ele>155.928</ele>
        <time>2018-12-12T12:22:37Z</time>
      </trkpt>
      <trkpt lat="48.74901" lon="2.53511">
        <ele>155.891</ele>
        <time>2018-12-12T12:22:42Z</time>
      </trkpt>
      <trkpt lat="48.74898" lon="2.53506">
        <ele>155.87</ele>
        <time>2018-12-12T12:22:45Z</time>
      </trkpt>
      <trkpt lat="48.74896" lon="2.53501">
        <ele>155.843</ele>
        <time>2018-12-12T12:22:49Z</time>
      </trkpt>
      <trkpt lat="48.74894" lon="2.53494">
        <ele>155.823</ele>
        <time>2018-12-12T12:22:52Z</time>
      </trkpt>
      <trkpt lat="48.74888" lon="2.53489">
        <ele>155.804</ele>
        <time>2018-12-12T12:22:55Z</time>
      </trkpt>
      <trkpt lat="48.74885" lon="2.53486">
        <ele>155.797</ele>
        <time>2018-12-12T12:22:56Z</time>
      </trkpt>
      <trkpt lat="48.74882" lon="2.5348">
        <ele>155.785</ele>
        <time>2018-12-12T12:22:58Z</time>
      </trkpt>
      <trkpt lat="48.74877" lon="2.53476">
        <ele>155.76</ele>
        <time>2018-12-12T12:23:02Z</time>
      </trkpt>
      <trkpt lat="48.74874" lon="2.53474">
        <ele>155.748</ele>
        <time>2018-12-12T12:23:04Z</time>
      </trkpt>
      <trkpt lat="48.74872" lon="2.53472">
        <ele>155.738</ele>
        <time>2018-12-12T12:23:06Z</time>
      </trkpt>
      <trkpt lat="48.74868" lon="2.53465">
        <ele>155.721</ele>
        <time>2018-12-12T12:23:10Z</time>
      </trkpt>
      <trkpt lat="48.74865" lon="2.5346">
        <ele>155.702</ele>
        <time>2018-12-12T12:23:14Z</time>
      </trkpt>
      <trkpt lat="48.74861" lon="2.53456">
        <ele>155.687</ele>
        <time>2018-12-12T12:23:17Z</time>
      </trkpt>
      <trkpt lat="48.74857" lon="2.53451">
        <ele>155.671</ele>
        <time>2018-12-12T12:23:20Z</time>
      </trkpt>
      <trkpt lat="48.74854" lon="2.53446">
        <ele>155.655</ele>
        <time>2018-12-12T12:23:23Z</time>
      </trkpt>
      <trkpt lat="48.7485" lon="2.53441">
        <ele>155.627</ele>
        <time>2018-12-12T12:23:28Z</time>
      </trkpt>
      <trkpt lat="48.74847" lon="2.53433">
        <ele>155.613</ele>
        <time>2018-12-12T12:23:31Z</time>
      </trkpt>
      <trkpt lat="48.74843" lon="2.53428">
        <ele>155.595</ele>
        <time>2018-12-12T12:23:35Z</time>
      </trkpt>
      <trkpt lat="48.7484" lon="2.53424">
        <ele>155.586</ele>
        <time>2018-12-12T12:23:37Z</time>
      </trkpt>
      <trkpt lat="48.74838" lon="2.53422">
        <ele>155.576</ele>
        <time>2018-12-12T12:23:39Z</time>
      </trkpt>
      <trkpt lat="48.74837" lon="2.5342">
        <ele>155.571</ele>
        <time>2018-12-12T12:23:40Z</time>
      </trkpt>
      <trkpt lat="48.74833" lon="2.53415">
        <ele>155.558</ele>
        <time>2018-12-12T12:23:43Z</time>
      </trkpt>
      <trkpt lat="48.74831" lon="2.53413">
        <ele>155.549</ele>
        <time>2018-12-12T12:23:45Z</time>
      </trkpt>
      <trkpt lat="48.74829" lon="2.5341">
        <ele>155.536</ele>
        <time>2018-12-12T12:23:48Z</time>
      </trkpt>
      <trkpt lat="48.74825" lon="2.53406">
        <ele>155.514</ele>
        <time>2018-12-12T12:23:54Z</time>
      </trkpt>
      <trkpt lat="48.74822" lon="2.53403">
        <ele>155.506</ele>
        <time>2018-12-12T12:23:56Z</time>
      </trkpt>
      <trkpt lat="48.74819" lon="2.53399">
        <ele>155.493</ele>
        <time>2018-12-12T12:23:59Z</time>
      </trkpt>
      <trkpt lat="48.74816" lon="2.53396">
        <ele>155.485</ele>
        <time>2018-12-12T12:24:01Z</time>
      </trkpt>
      <trkpt lat="48.74813" lon="2.53392">
        <ele>155.47</ele>
        <time>2018-12-12T12:24:05Z</time>
      </trkpt>
      <trkpt lat="48.74808" lon="2.53386">
        <ele>155.455</ele>
        <time>2018-12-12T12:24:09Z</time>
      </trkpt>
      <trkpt lat="48.74805" lon="2.5338">
        <ele>155.443</ele>
        <time>2018-12-12T12:24:12Z</time>
      </trkpt>
      <trkpt lat="48.74801" lon="2.53375">
        <ele>155.423</ele>
        <time>2018-12-12T12:24:17Z</time>
      </trkpt>
      <trkpt lat="48.74798" lon="2.53372">
        <ele>155.417</ele>
        <time>2018-12-12T12:24:19Z</time>
      </trkpt>
      <trkpt lat="48.74795" lon="2.53365">
        <ele>155.404</ele>
        <time>2018-12-12T12:24:23Z</time>
      </trkpt>
      <trkpt lat="48.74791" lon="2.53361">
        <ele>155.392</ele>
        <time>2018-12-12T12:24:27Z</time>
      </trkpt>
      <trkpt lat="48.74786" lon="2.53355">
        <ele>155.383</ele>
        <time>2018-12-12T12:24:31Z</time>
      </trkpt>
      <trkpt lat="48.74782" lon="2.53352">
        <ele>155.374</ele>
        <time>2018-12-12T12:24:35Z</time>
      </trkpt>
      <trkpt lat="48.74778" lon="2.53348">
        <ele>155.369</ele>
        <time>2018-12-12T12:24:38Z</time>
      </trkpt>
      <trkpt lat="48.74776" lon="2.53345">
        <ele>155.364</ele>
        <time>2018-12-12T12:24:40Z</time>
      </trkpt>
      <trkpt lat="48.7477" lon="2.53342">
        <ele>155.358</ele>
        <time>2018-12-12T12:24:43Z</time>
      </trkpt>
      <trkpt lat="48.74767" lon="2.5334">
        <ele>155.354</ele>
        <time>2018-12-12T12:24:45Z</time>
      </trkpt>
      <trkpt lat="48.74763" lon="2.53335">
        <ele>155.348</ele>
        <time>2018-12-12T12:24:49Z</time>
      </trkpt>
      <trkpt lat="48.7476" lon="2.5333">
        <ele>155.341</ele>
        <time>2018-12-12T12:24:52Z</time>
      </trkpt>
      <trkpt lat="48.74757" lon="2.53325">
        <ele>155.336</ele>
        <time>2018-12-12T12:24:55Z</time>
      </trkpt>
      <trkpt lat="48.74753" lon="2.53321">
        <ele>155.329</ele>
        <time>2018-12-12T12:24:59Z</time>
      </trkpt>
      <trkpt lat="48.7475" lon="2.53318">
        <ele>155.325</ele>
        <time>2018-12-12T12:25:01Z</time>
      </trkpt>
      <trkpt lat="48.74748" lon="2.53316">
        <ele>155.321</ele>
        <time>2018-12-12T12:25:03Z</time>
      </trkpt>
      <trkpt lat="48.74745" lon="2.5331">
        <ele>155.313</ele>
        <time>2018-12-12T12:25:07Z</time>
      </trkpt>
      <trkpt lat="48.74743" lon="2.53305">
        <ele>155.307</ele>
        <time>2018-12-12T12:25:10Z</time>
      </trkpt>
      <trkpt lat="48.74742" lon="2.53296">
        <ele>155.295</ele>
        <time>2018-12-12T12:25:14Z</time>
      </trkpt>
      <trkpt lat="48.74744" lon="2.5329">
        <ele>155.285</ele>
        <time>2018-12-12T12:25:17Z</time>
      </trkpt>
      <trkpt lat="48.74747" lon="2.53283">
        <ele>155.271</ele>
        <time>2018-12-12T12:25:21Z</time>
      </trkpt>
      <trkpt lat="48.74749" lon="2.5328">
        <ele>155.263</ele>
        <time>2018-12-12T12:25:24Z</time>
      </trkpt>
      <trkpt lat="48.74751" lon="2.53276">
        <ele>155.256</ele>
        <time>2018-12-12T12:25:27Z</time>
      </trkpt>
      <trkpt lat="48.74755" lon="2.53271">
        <ele>155.249</ele>
        <time>2018-12-12T12:25:30Z</time>
      </trkpt>
      <trkpt lat="48.7476" lon="2.53268">
        <ele>155.246</ele>
        <time>2018-12-12T12:25:34Z</time>
      </trkpt>
      <trkpt lat="48.74763" lon="2.53263">
        <ele>155.248</ele>
        <time>2018-12-12T12:25:38Z</time>
      </trkpt>
      <trkpt lat="48.74767" lon="2.53257">
        <ele>155.253</ele>
        <time>2018-12-12T12:25:43Z</time>
      </trkpt>
      <trkpt lat="48.74769" lon="2.53254">
        <ele>155.261</ele>
        <time>2018-12-12T12:25:48Z</time>
      </trkpt>
      <trkpt lat="48.74772" lon="2.5325">
        <ele>155.269</ele>
        <time>2018-12-12T12:25:51Z</time>
      </trkpt>
      <trkpt lat="48.74776" lon="2.53244">
        <ele>155.279</ele>
        <time>2018-12-12T12:25:54Z</time>
      </trkpt>
      <trkpt lat="48.74778" lon="2.53241">
        <ele>155.287</ele>
        <time>2018-12-12T12:25:56Z</time>
      </trkpt>
      <trkpt lat="48.7478" lon="2.53233">
        <ele>155.308</ele>
        <time>2018-12-12T12:26:00Z</time>
      </trkpt>
      <trkpt lat="48.74782" lon="2.53225">
        <ele>155.333</ele>
        <time>2018-12-12T12:26:04Z</time>
      </trkpt>
      <trkpt lat="48.74785" lon="2.5322">
        <ele>155.362</ele>
        <time>2018-12-12T12:26:09Z</time>
      </trkpt>
      <trkpt lat="48.74788" lon="2.53214">
        <ele>155.387</ele>
        <time>2018-12-12T12:26:13Z</time>
      </trkpt>
      <trkpt lat="48.74794" lon="2.53207">
        <ele>155.418</ele>
        <time>2018-12-12T12:26:18Z</time>
      </trkpt>
      <trkpt lat="48.74796" lon="2.53204">
        <ele>155.431</ele>
        <time>2018-12-12T12:26:20Z</time>
      </trkpt>
      <trkpt lat="48.74799" lon="2.53199">
        <ele>155.457</ele>
        <time>2018-12-12T12:26:24Z</time>
      </trkpt>
      <trkpt lat="48.74802" lon="2.53193">
        <ele>155.483</ele>
        <time>2018-12-12T12:26:28Z</time>
      </trkpt>
      <trkpt lat="48.74804" lon="2.53189">
        <ele>155.496</ele>
        <time>2018-12-12T12:26:30Z</time>
      </trkpt>
      <trkpt lat="48.74806" lon="2.53182">
        <ele>155.515</ele>
        <time>2018-12-12T12:26:33Z</time>
      </trkpt>
      <trkpt lat="48.74809" lon="2.53177">
        <ele>155.532</ele>
        <time>2018-12-12T12:26:36Z</time>
      </trkpt>
      <trkpt lat="48.74813" lon="2.53171">
        <ele>155.548</ele>
        <time>2018-12-12T12:26:39Z</time>
      </trkpt>
      <trkpt lat="48.74816" lon="2.53168">
        <ele>155.559</ele>
        <time>2018-12-12T12:26:41Z</time>
      </trkpt>
      <trkpt lat="48.74819" lon="2.53161">
        <ele>155.579</ele>
        <time>2018-12-12T12:26:45Z</time>
      </trkpt>
      <trkpt lat="48.7482" lon="2.53153">
        <ele>155.598</ele>
        <time>2018-12-12T12:26:49Z</time>
      </trkpt>
      <trkpt lat="48.74821" lon="2.53146">
        <ele>155.616</ele>
        <time>2018-12-12T12:26:53Z</time>
      </trkpt>
      <trkpt lat="48.74824" lon="2.5314">
        <ele>155.639</ele>
        <time>2018-12-12T12:26:58Z</time>
      </trkpt>
      <trkpt lat="48.74827" lon="2.53136">
        <ele>155.652</ele>
        <time>2018-12-12T12:27:01Z</time>
      </trkpt>
      <trkpt lat="48.74831" lon="2.5313">
        <ele>155.669</ele>
        <time>2018-12-12T12:27:05Z</time>
      </trkpt>
      <trkpt lat="48.74836" lon="2.53126">
        <ele>155.68</ele>
        <time>2018-12-12T12:27:08Z</time>
      </trkpt>
      <trkpt lat="48.74841" lon="2.53121">
        <ele>155.688</ele>
        <time>2018-12-12T12:27:12Z</time>
      </trkpt>
      <trkpt lat="48.74844" lon="2.53117">
        <ele>155.695</ele>
        <time>2018-12-12T12:27:15Z</time>
      </trkpt>
      <trkpt lat="48.74848" lon="2.53113">
        <ele>155.703</ele>
        <time>2018-12-12T12:27:18Z</time>
      </trkpt>
      <trkpt lat="48.74852" lon="2.53108">
        <ele>155.711</ele>
        <time>2018-12-12T12:27:22Z</time>
      </trkpt>
      <trkpt lat="48.74856" lon="2.53102">
        <ele>155.714</ele>
        <time>2018-12-12T12:27:26Z</time>
      </trkpt>
      <trkpt lat="48.74858" lon="2.53096">
        <ele>155.718</ele>
        <time>2018-12-12T12:27:30Z</time>
      </trkpt>
      <trkpt lat="48.74857" lon="2.53086">
        <ele>155.722</ele>
        <time>2018-12-12T12:27:33Z</time>
      </trkpt>
      <trkpt lat="48.74861" lon="2.5308">
        <ele>155.727</ele>
        <time>2018-12-12T12:27:38Z</time>
      </trkpt>
      <trkpt lat="48.74864" lon="2.53073">
        <ele>155.731</ele>
        <time>2018-12-12T12:27:42Z</time>
      </trkpt>
      <trkpt lat="48.74868" lon="2.53068">
        <ele>155.734</ele>
        <time>2018-12-12T12:27:46Z</time>
      </trkpt>
      <trkpt lat="48.74873" lon="2.53065">
        <ele>155.739</ele>
        <time>2018-12-12T12:27:49Z</time>
      </trkpt>
      <trkpt lat="48.74877" lon="2.53061">
        <ele>155.742</ele>
        <time>2018-12-12T12:27:52Z</time>
      </trkpt>
      <trkpt lat="48.7488" lon="2.53058">
        <ele>155.744</ele>
        <time>2018-12-12T12:27:54Z</time>
      </trkpt>
      <trkpt lat="48.74882" lon="2.53056">
        <ele>155.746</ele>
        <time>2018-12-12T12:27:56Z</time>
      </trkpt>
      <trkpt lat="48.74885" lon="2.5305">
        <ele>155.747</ele>
        <time>2018-12-12T12:28:00Z</time>
      </trkpt>
      <trkpt lat="48.74888" lon="2.53045">
        <ele>155.747</ele>
        <time>2018-12-12T12:28:03Z</time>
      </trkpt>
      <trkpt lat="48.74892" lon="2.53038">
        <ele>155.749</ele>
        <time>2018-12-12T12:28:07Z</time>
      </trkpt>
      <trkpt lat="48.74896" lon="2.53034">
        <ele>155.755</ele>
        <time>2018-12-12T12:28:11Z</time>
      </trkpt>
      <trkpt lat="48.74899" lon="2.53027">
        <ele>155.771</ele>
        <time>2018-12-12T12:28:17Z</time>
      </trkpt>
      <trkpt lat="48.74901" lon="2.53021">
        <ele>155.788</ele>
        <time>2018-12-12T12:28:21Z</time>
      </trkpt>
      <trkpt lat="48.74902" lon="2.53017">
        <ele>155.796</ele>
        <time>2018-12-12T12:28:23Z</time>
      </trkpt>
      <trkpt lat="48.74904" lon="2.53013">
        <ele>155.806</ele>
        <time>2018-12-12T12:28:25Z</time>
      </trkpt>
      <trkpt lat="48.74905" lon="2.53004">
        <ele>155.829</ele>
        <time>2018-12-12T12:28:29Z</time>
      </trkpt>
      <trkpt lat="48.74904" lon="2.52996">
        <ele>155.845</ele>
        <time>2018-12-12T12:28:32Z</time>
      </trkpt>
      <trkpt lat="48.74904" lon="2.52991">
        <ele>155.855</ele>
        <time>2018-12-12T12:28:34Z</time>
      </trkpt>
      <trkpt lat="48.74903" lon="2.52986">
        <ele>155.862</ele>
        <time>2018-12-12T12:28:36Z</time>
      </trkpt>
      <trkpt lat="48.74902" lon="2.52978">
        <ele>155.872</ele>
        <time>2018-12-12T12:28:40Z</time>
      </trkpt>
      <trkpt lat="48.74901" lon="2.52975">
        <ele>155.875</ele>
        <time>2018-12-12T12:28:42Z</time>
      </trkpt>
      <trkpt lat="48.749" lon="2.52971">
        <ele>155.877</ele>
        <time>2018-12-12T12:28:44Z</time>
      </trkpt>
      <trkpt lat="48.74898" lon="2.52963">
        <ele>155.878</ele>
        <time>2018-12-12T12:28:47Z</time>
      </trkpt>
      <trkpt lat="48.74896" lon="2.52956">
        <ele>155.874</ele>
        <time>2018-12-12T12:28:50Z</time>
      </trkpt>
      <trkpt lat="48.74896" lon="2.52949">
        <ele>155.866</ele>
        <time>2018-12-12T12:28:54Z</time>
      </trkpt>
      <trkpt lat="48.74895" lon="2.52945">
        <ele>155.86</ele>
        <time>2018-12-12T12:28:57Z</time>
      </trkpt>
      <trkpt lat="48.74895" lon="2.52941">
        <ele>155.856</ele>
        <time>2018-12-12T12:29:00Z</time>
      </trkpt>
      <trkpt lat="48.74894" lon="2.52935">
        <ele>155.846</ele>
        <time>2018-12-12T12:29:03Z</time>
      </trkpt>
      <trkpt lat="48.74894" lon="2.5293">
        <ele>155.837</ele>
        <time>2018-12-12T12:29:05Z</time>
      </trkpt>
      <trkpt lat="48.74894" lon="2.52926">
        <ele>155.825</ele>
        <time>2018-12-12T12:29:07Z</time>
      </trkpt>
      <trkpt lat="48.74893" lon="2.52922">
        <ele>155.812</ele>
        <time>2018-12-12T12:29:09Z</time>
      </trkpt>
      <trkpt lat="48.74893" lon="2.52915">
        <ele>155.777</ele>
        <time>2018-12-12T12:29:13Z</time>
      </trkpt>
      <trkpt lat="48.74892" lon="2.52908">
        <ele>155.739</ele>
        <time>2018-12-12T12:29:17Z</time>
      </trkpt>
      <trkpt lat="48.74892" lon="2.52904">
        <ele>155.718</ele>
        <time>2018-12-12T12:29:19Z</time>
      </trkpt>
      <trkpt lat="48.7489" lon="2.52897">
        <ele>155.678</ele>
        <time>2018-12-12T12:29:23Z</time>
      </trkpt>
      <trkpt lat="48.7489" lon="2.5289">
        <ele>155.648</ele>
        <time>2018-12-12T12:29:26Z</time>
      </trkpt>
      <trkpt lat="48.74889" lon="2.52883">
        <ele>155.616</ele>
        <time>2018-12-12T12:29:29Z</time>
      </trkpt>
      <trkpt lat="48.74888" lon="2.5288">
        <ele>155.594</ele>
        <time>2018-12-12T12:29:31Z</time>
      </trkpt>
      <trkpt lat="48.74888" lon="2.52876">
        <ele>155.573</ele>
        <time>2018-12-12T12:29:33Z</time>
      </trkpt>
      <trkpt lat="48.74887" lon="2.52872">
        <ele>155.551</ele>
        <time>2018-12-12T12:29:35Z</time>
      </trkpt>
      <trkpt lat="48.74886" lon="2.52865">
        <ele>155.509</ele>
        <time>2018-12-12T12:29:39Z</time>
      </trkpt>
      <trkpt lat="48.74886" lon="2.52861">
        <ele>155.489</ele>
        <time>2018-12-12T12:29:41Z</time>
      </trkpt>
      <trkpt lat="48.74886" lon="2.52857">
        <ele>155.468</ele>
        <time>2018-12-12T12:29:43Z</time>
      </trkpt>
      <trkpt lat="48.74885" lon="2.52853">
        <ele>155.448</ele>
        <time>2018-12-12T12:29:45Z</time>
      </trkpt>
      <trkpt lat="48.74884" lon="2.52848">
        <ele>155.421</ele>
        <time>2018-12-12T12:29:48Z</time>
      </trkpt>
      <trkpt lat="48.74884" lon="2.52839">
        <ele>155.388</ele>
        <time>2018-12-12T12:29:52Z</time>
      </trkpt>
      <trkpt lat="48.74883" lon="2.52836">
        <ele>155.373</ele>
        <time>2018-12-12T12:29:54Z</time>
      </trkpt>
      <trkpt lat="48.74881" lon="2.52829">
        <ele>155.344</ele>
        <time>2018-12-12T12:29:58Z</time>
      </trkpt>
      <trkpt lat="48.74881" lon="2.52822">
        <ele>155.323</ele>
        <time>2018-12-12T12:30:01Z</time>
      </trkpt>
      <trkpt lat="48.74881" lon="2.52814">
        <ele>155.299</ele>
        <time>2018-12-12T12:30:05Z</time>
      </trkpt>
      <trkpt lat="48.7488" lon="2.5281">
        <ele>155.29</ele>
        <time>2018-12-12T12:30:07Z</time>
      </trkpt>
      <trkpt lat="48.7488" lon="2.52806">
        <ele>155.283</ele>
        <time>2018-12-12T12:30:09Z</time>
      </trkpt>
      <trkpt lat="48.74879" lon="2.52802">
        <ele>155.278</ele>
        <time>2018-12-12T12:30:11Z</time>
      </trkpt>
      <trkpt lat="48.74879" lon="2.52798">
        <ele>155.274</ele>
        <time>2018-12-12T12:30:13Z</time>
      </trkpt>
      <trkpt lat="48.74877" lon="2.52793">
        <ele>155.268</ele>
        <time>2018-12-12T12:30:16Z</time>
      </trkpt>
      <trkpt lat="48.74877" lon="2.52784">
        <ele>155.263</ele>
        <time>2018-12-12T12:30:21Z</time>
      </trkpt>
      <trkpt lat="48.74876" lon="2.52779">
        <ele>155.263</ele>
        <time>2018-12-12T12:30:24Z</time>
      </trkpt>
      <trkpt lat="48.74875" lon="2.52772">
        <ele>155.264</ele>
        <time>2018-12-12T12:30:27Z</time>
      </trkpt>
      <trkpt lat="48.74874" lon="2.52769">
        <ele>155.265</ele>
        <time>2018-12-12T12:30:29Z</time>
      </trkpt>
      <trkpt lat="48.74873" lon="2.52764">
        <ele>155.269</ele>
        <time>2018-12-12T12:30:32Z</time>
      </trkpt>
      <trkpt lat="48.74872" lon="2.52759">
        <ele>155.272</ele>
        <time>2018-12-12T12:30:34Z</time>
      </trkpt>
      <trkpt lat="48.7487" lon="2.52752">
        <ele>155.279</ele>
        <time>2018-12-12T12:30:38Z</time>
      </trkpt>
      <trkpt lat="48.7487" lon="2.52745">
        <ele>155.285</ele>
        <time>2018-12-12T12:30:41Z</time>
      </trkpt>
      <trkpt lat="48.7487" lon="2.52737">
        <ele>155.294</ele>
        <time>2018-12-12T12:30:45Z</time>
      </trkpt>
      <trkpt lat="48.74871" lon="2.52733">
        <ele>155.3</ele>
        <time>2018-12-12T12:30:47Z</time>
      </trkpt>
      <trkpt lat="48.74869" lon="2.52725">
        <ele>155.319</ele>
        <time>2018-12-12T12:30:52Z</time>
      </trkpt>
      <trkpt lat="48.74868" lon="2.52718">
        <ele>155.33</ele>
        <time>2018-12-12T12:30:55Z</time>
      </trkpt>
      <trkpt lat="48.74867" lon="2.5271">
        <ele>155.348</ele>
        <time>2018-12-12T12:30:59Z</time>
      </trkpt>
      <trkpt lat="48.74867" lon="2.52706">
        <ele>155.357</ele>
        <time>2018-12-12T12:31:01Z</time>
      </trkpt>
      <trkpt lat="48.74865" lon="2.52697">
        <ele>155.374</ele>
        <time>2018-12-12T12:31:05Z</time>
      </trkpt>
      <trkpt lat="48.74864" lon="2.52694">
        <ele>155.382</ele>
        <time>2018-12-12T12:31:07Z</time>
      </trkpt>
      <trkpt lat="48.74862" lon="2.52685">
        <ele>155.397</ele>
        <time>2018-12-12T12:31:11Z</time>
      </trkpt>
      <trkpt lat="48.74861" lon="2.52678">
        <ele>155.404</ele>
        <time>2018-12-12T12:31:14Z</time>
      </trkpt>
      <trkpt lat="48.7486" lon="2.52675">
        <ele>155.408</ele>
        <time>2018-12-12T12:31:16Z</time>
      </trkpt>
      <trkpt lat="48.7486" lon="2.52666">
        <ele>155.414</ele>
        <time>2018-12-12T12:31:20Z</time>
      </trkpt>
      <trkpt lat="48.74859" lon="2.52659">
        <ele>155.42</ele>
        <time>2018-12-12T12:31:24Z</time>
      </trkpt>
      <trkpt lat="48.74858" lon="2.52653">
        <ele>155.422</ele>
        <time>2018-12-12T12:31:27Z</time>
      </trkpt>
      <trkpt lat="48.74858" lon="2.52647">
        <ele>155.422</ele>
        <time>2018-12-12T12:31:30Z</time>
      </trkpt>
      <trkpt lat="48.74858" lon="2.5264">
        <ele>155.421</ele>
        <time>2018-12-12T12:31:34Z</time>
      </trkpt>
      <trkpt lat="48.74858" lon="2.52632">
        <ele>155.416</ele>
        <time>2018-12-12T12:31:38Z</time>
      </trkpt>
      <trkpt lat="48.74857" lon="2.52624">
        <ele>155.41</ele>
        <time>2018-12-12T12:31:42Z</time>
      </trkpt>
      <trkpt lat="48.74856" lon="2.52619">
        <ele>155.405</ele>
        <time>2018-12-12T12:31:45Z</time>
      </trkpt>
      <trkpt lat="48.74854" lon="2.52611">
        <ele>155.4</ele>
        <time>2018-12-12T12:31:49Z</time>
      </trkpt>
      <trkpt lat="48.74854" lon="2.52607">
        <ele>155.398</ele>
        <time>2018-12-12T12:31:51Z</time>
      </trkpt>
      <trkpt lat="48.74853" lon="2.526">
        <ele>155.395</ele>
        <time>2018-12-12T12:31:54Z</time>
      </trkpt>
      <trkpt lat="48.74852" lon="2.52596">
        <ele>155.394</ele>
        <time>2018-12-12T12:31:56Z</time>
      </trkpt>
      <trkpt lat="48.74851" lon="2.52591">
        <ele>155.394</ele>
        <time>2018-12-12T12:31:59Z</time>
      </trkpt>
      <trkpt lat="48.7485" lon="2.52586">
        <ele>155.392</ele>
        <time>2018-12-12T12:32:02Z</time>
      </trkpt>
      <trkpt lat="48.74849" lon="2.5258">
        <ele>155.389</ele>
        <time>2018-12-12T12:32:05Z</time>
      </trkpt>
      <trkpt lat="48.74848" lon="2.52576">
        <ele>155.385</ele>
        <time>2018-12-12T12:32:07Z</time>
      </trkpt>
      <trkpt lat="48.74847" lon="2.52568">
        <ele>155.375</ele>
        <time>2018-12-12T12:32:11Z</time>
      </trkpt>
      <trkpt lat="48.74846" lon="2.5256">
        <ele>155.366</ele>
        <time>2018-12-12T12:32:15Z</time>
      </trkpt>
      <trkpt lat="48.74845" lon="2.52556">
        <ele>155.362</ele>
        <time>2018-12-12T12:32:17Z</time>
      </trkpt>
      <trkpt lat="48.74844" lon="2.52551">
        <ele>155.358</ele>
        <time>2018-12-12T12:32:19Z</time>
      </trkpt>
      <trkpt lat="48.74844" lon="2.52547">
        <ele>155.354</ele>
        <time>2018-12-12T12:32:21Z</time>
      </trkpt>
      <trkpt lat="48.74843" lon="2.52543">
        <ele>155.349</ele>
        <time>2018-12-12T12:32:23Z</time>
      </trkpt>
      <trkpt lat="48.74842" lon="2.5254">
        <ele>155.343</ele>
        <time>2018-12-12T12:32:25Z</time>
      </trkpt>
      <trkpt lat="48.74842" lon="2.52533">
        <ele>155.33</ele>
        <time>2018-12-12T12:32:30Z</time>
      </trkpt>
      <trkpt lat="48.74845" lon="2.52526">
        <ele>155.309</ele>
        <time>2018-12-12T12:32:35Z</time>
      </trkpt>
      <trkpt lat="48.74851" lon="2.52526">
        <ele>155.275</ele>
        <time>2018-12-12T12:32:42Z</time>
      </trkpt>
      <trkpt lat="48.74856" lon="2.52523">
        <ele>155.252</ele>
        <time>2018-12-12T12:32:46Z</time>
      </trkpt>
      <trkpt lat="48.7486" lon="2.52522">
        <ele>155.226</ele>
        <time>2018-12-12T12:32:50Z</time>
      </trkpt>
      <trkpt lat="48.74865" lon="2.52521">
        <ele>155.206</ele>
        <time>2018-12-12T12:32:53Z</time>
      </trkpt>
      <trkpt lat="48.74868" lon="2.52521">
        <ele>155.185</ele>
        <time>2018-12-12T12:32:56Z</time>
      </trkpt>
      <trkpt lat="48.7487" lon="2.5252">
        <ele>155.172</ele>
        <time>2018-12-12T12:32:58Z</time>
      </trkpt>
      <trkpt lat="48.74874" lon="2.52517">
        <ele>155.148</ele>
        <time>2018-12-12T12:33:02Z</time>
      </trkpt>
      <trkpt lat="48.74877" lon="2.52515">
        <ele>155.135</ele>
        <time>2018-12-12T12:33:04Z</time>
      </trkpt>
      <trkpt lat="48.74882" lon="2.52513">
        <ele>155.108</ele>
        <time>2018-12-12T12:33:08Z</time>
      </trkpt>
      <trkpt lat="48.74885" lon="2.52512">
        <ele>155.095</ele>
        <time>2018-12-12T12:33:10Z</time>
      </trkpt>
      <trkpt lat="48.74888" lon="2.5251">
        <ele>155.081</ele>
        <time>2018-12-12T12:33:12Z</time>
      </trkpt>
      <trkpt lat="48.74891" lon="2.52509">
        <ele>155.067</ele>
        <time>2018-12-12T12:33:14Z</time>
      </trkpt>
      <trkpt lat="48.74896" lon="2.52508">
        <ele>155.046</ele>
        <time>2018-12-12T12:33:17Z</time>
      </trkpt>
      <trkpt lat="48.74898" lon="2.52507">
        <ele>155.039</ele>
        <time>2018-12-12T12:33:18Z</time>
      </trkpt>
      <trkpt lat="48.74903" lon="2.52506">
        <ele>155.02</ele>
        <time>2018-12-12T12:33:21Z</time>
      </trkpt>
      <trkpt lat="48.74906" lon="2.52506">
        <ele>155.001</ele>
        <time>2018-12-12T12:33:24Z</time>
      </trkpt>
      <trkpt lat="48.74911" lon="2.52504">
        <ele>154.974</ele>
        <time>2018-12-12T12:33:28Z</time>
      </trkpt>
      <trkpt lat="48.74915" lon="2.52503">
        <ele>154.946</ele>
        <time>2018-12-12T12:33:32Z</time>
      </trkpt>
      <trkpt lat="48.74918" lon="2.52502">
        <ele>154.925</ele>
        <time>2018-12-12T12:33:35Z</time>
      </trkpt>
      <trkpt lat="48.74921" lon="2.52497">
        <ele>154.904</ele>
        <time>2018-12-12T12:33:38Z</time>
      </trkpt>
      <trkpt lat="48.74921" lon="2.52488">
        <ele>154.886</ele>
        <time>2018-12-12T12:33:41Z</time>
      </trkpt>
      <trkpt lat="48.7492" lon="2.5248">
        <ele>154.873</ele>
        <time>2018-12-12T12:33:44Z</time>
      </trkpt>
      <trkpt lat="48.74918" lon="2.52474">
        <ele>154.86</ele>
        <time>2018-12-12T12:33:47Z</time>
      </trkpt>
      <trkpt lat="48.74913" lon="2.52469">
        <ele>154.845</ele>
        <time>2018-12-12T12:33:51Z</time>
      </trkpt>
      <trkpt lat="48.74911" lon="2.52467">
        <ele>154.838</ele>
        <time>2018-12-12T12:33:53Z</time>
      </trkpt>
      <trkpt lat="48.74909" lon="2.52465">
        <ele>154.833</ele>
        <time>2018-12-12T12:33:55Z</time>
      </trkpt>
      <trkpt lat="48.74905" lon="2.52458">
        <ele>154.827</ele>
        <time>2018-12-12T12:33:59Z</time>
      </trkpt>
      <trkpt lat="48.74901" lon="2.52453">
        <ele>154.822</ele>
        <time>2018-12-12T12:34:03Z</time>
      </trkpt>
      <trkpt lat="48.74898" lon="2.5245">
        <ele>154.818</ele>
        <time>2018-12-12T12:34:05Z</time>
      </trkpt>
      <trkpt lat="48.74896" lon="2.52447">
        <ele>154.815</ele>
        <time>2018-12-12T12:34:07Z</time>
      </trkpt>
      <trkpt lat="48.74894" lon="2.52444">
        <ele>154.812</ele>
        <time>2018-12-12T12:34:09Z</time>
      </trkpt>
      <trkpt lat="48.74891" lon="2.52438">
        <ele>154.806</ele>
        <time>2018-12-12T12:34:13Z</time>
      </trkpt>
      <trkpt lat="48.74889" lon="2.52434">
        <ele>154.803</ele>
        <time>2018-12-12T12:34:15Z</time>
      </trkpt>
      <trkpt lat="48.74884" lon="2.52429">
        <ele>154.798</ele>
        <time>2018-12-12T12:34:19Z</time>
      </trkpt>
      <trkpt lat="48.74882" lon="2.52427">
        <ele>154.796</ele>
        <time>2018-12-12T12:34:20Z</time>
      </trkpt>
      <trkpt lat="48.74879" lon="2.52423">
        <ele>154.794</ele>
        <time>2018-12-12T12:34:22Z</time>
      </trkpt>
      <trkpt lat="48.74877" lon="2.52421">
        <ele>154.791</ele>
        <time>2018-12-12T12:34:24Z</time>
      </trkpt>
      <trkpt lat="48.74872" lon="2.52418">
        <ele>154.787</ele>
        <time>2018-12-12T12:34:29Z</time>
      </trkpt>
      <trkpt lat="48.74867" lon="2.52415">
        <ele>154.787</ele>
        <time>2018-12-12T12:34:34Z</time>
      </trkpt>
      <trkpt lat="48.74867" lon="2.52415">
        <ele>154.787</ele>
        <time>2018-12-12T12:34:41Z</time>
      </trkpt>
      <trkpt lat="48.74867" lon="2.52415">
        <ele>94.2</ele>
        <time>2018-12-12T12:34:41Z</time>
      </trkpt>
      <trkpt lat="48.74867" lon="2.52415">
        <ele>94.2</ele>
        <time>2018-12-12T12:34:59Z</time>
      </trkpt>
      <trkpt lat="48.74846" lon="2.52387">
        <ele>154.776</ele>
        <time>2018-12-12T12:34:59Z</time>
      </trkpt>
      <trkpt lat="48.74843" lon="2.52386">
        <ele>154.774</ele>
        <time>2018-12-12T12:35:00Z</time>
      </trkpt>
      <trkpt lat="48.7484" lon="2.52383">
        <ele>154.77</ele>
        <time>2018-12-12T12:35:02Z</time>
      </trkpt>
      <trkpt lat="48.74836" lon="2.52379">
        <ele>154.755</ele>
        <time>2018-12-12T12:35:06Z</time>
      </trkpt>
      <trkpt lat="48.74834" lon="2.52377">
        <ele>154.748</ele>
        <time>2018-12-12T12:35:08Z</time>
      </trkpt>
      <trkpt lat="48.7483" lon="2.52371">
        <ele>154.732</ele>
        <time>2018-12-12T12:35:12Z</time>
      </trkpt>
      <trkpt lat="48.74827" lon="2.52364">
        <ele>154.717</ele>
        <time>2018-12-12T12:35:15Z</time>
      </trkpt>
      <trkpt lat="48.74824" lon="2.52358">
        <ele>154.702</ele>
        <time>2018-12-12T12:35:18Z</time>
      </trkpt>
      <trkpt lat="48.74822" lon="2.52356">
        <ele>154.693</ele>
        <time>2018-12-12T12:35:20Z</time>
      </trkpt>
      <trkpt lat="48.74819" lon="2.52351">
        <ele>154.673</ele>
        <time>2018-12-12T12:35:24Z</time>
      </trkpt>
      <trkpt lat="48.74817" lon="2.52345">
        <ele>154.647</ele>
        <time>2018-12-12T12:35:29Z</time>
      </trkpt>
      <trkpt lat="48.74816" lon="2.52338">
        <ele>154.617</ele>
        <time>2018-12-12T12:35:34Z</time>
      </trkpt>
      <trkpt lat="48.74816" lon="2.52331">
        <ele>154.594</ele>
        <time>2018-12-12T12:35:38Z</time>
      </trkpt>
      <trkpt lat="48.74815" lon="2.52324">
        <ele>154.57</ele>
        <time>2018-12-12T12:35:42Z</time>
      </trkpt>
      <trkpt lat="48.74815" lon="2.52319">
        <ele>154.554</ele>
        <time>2018-12-12T12:35:45Z</time>
      </trkpt>
      <trkpt lat="48.74814" lon="2.52313">
        <ele>154.538</ele>
        <time>2018-12-12T12:35:48Z</time>
      </trkpt>
      <trkpt lat="48.74813" lon="2.52309">
        <ele>154.527</ele>
        <time>2018-12-12T12:35:50Z</time>
      </trkpt>
      <trkpt lat="48.74812" lon="2.52305">
        <ele>154.513</ele>
        <time>2018-12-12T12:35:53Z</time>
      </trkpt>
      <trkpt lat="48.74811" lon="2.523">
        <ele>154.5</ele>
        <time>2018-12-12T12:35:56Z</time>
      </trkpt>
      <trkpt lat="48.74811" lon="2.52292">
        <ele>154.484</ele>
        <time>2018-12-12T12:36:00Z</time>
      </trkpt>
      <trkpt lat="48.74812" lon="2.52285">
        <ele>154.469</ele>
        <time>2018-12-12T12:36:04Z</time>
      </trkpt>
      <trkpt lat="48.74811" lon="2.52277">
        <ele>154.459</ele>
        <time>2018-12-12T12:36:07Z</time>
      </trkpt>
      <trkpt lat="48.7481" lon="2.52274">
        <ele>154.452</ele>
        <time>2018-12-12T12:36:09Z</time>
      </trkpt>
      <trkpt lat="48.7481" lon="2.52266">
        <ele>154.439</ele>
        <time>2018-12-12T12:36:13Z</time>
      </trkpt>
      <trkpt lat="48.74809" lon="2.52258">
        <ele>154.426</ele>
        <time>2018-12-12T12:36:17Z</time>
      </trkpt>
      <trkpt lat="48.74809" lon="2.52255">
        <ele>154.42</ele>
        <time>2018-12-12T12:36:19Z</time>
      </trkpt>
      <trkpt lat="48.74808" lon="2.5225">
        <ele>154.412</ele>
        <time>2018-12-12T12:36:22Z</time>
      </trkpt>
      <trkpt lat="48.74807" lon="2.52245">
        <ele>154.403</ele>
        <time>2018-12-12T12:36:25Z</time>
      </trkpt>
      <trkpt lat="48.74806" lon="2.52241">
        <ele>154.397</ele>
        <time>2018-12-12T12:36:27Z</time>
      </trkpt>
      <trkpt lat="48.74805" lon="2.52236">
        <ele>154.388</ele>
        <time>2018-12-12T12:36:30Z</time>
      </trkpt>
      <trkpt lat="48.74804" lon="2.52229">
        <ele>154.377</ele>
        <time>2018-12-12T12:36:34Z</time>
      </trkpt>
      <trkpt lat="48.74803" lon="2.52226">
        <ele>154.372</ele>
        <time>2018-12-12T12:36:36Z</time>
      </trkpt>
      <trkpt lat="48.74801" lon="2.52221">
        <ele>154.367</ele>
        <time>2018-12-12T12:36:38Z</time>
      </trkpt>
      <trkpt lat="48.748" lon="2.52216">
        <ele>154.36</ele>
        <time>2018-12-12T12:36:41Z</time>
      </trkpt>
      <trkpt lat="48.748" lon="2.52212">
        <ele>154.356</ele>
        <time>2018-12-12T12:36:43Z</time>
      </trkpt>
      <trkpt lat="48.74799" lon="2.52208">
        <ele>154.351</ele>
        <time>2018-12-12T12:36:45Z</time>
      </trkpt>
      <trkpt lat="48.74799" lon="2.52204">
        <ele>154.348</ele>
        <time>2018-12-12T12:36:47Z</time>
      </trkpt>
      <trkpt lat="48.74798" lon="2.52196">
        <ele>154.34</ele>
        <time>2018-12-12T12:36:52Z</time>
      </trkpt>
      <trkpt lat="48.74798" lon="2.52192">
        <ele>154.337</ele>
        <time>2018-12-12T12:36:54Z</time>
      </trkpt>
      <trkpt lat="48.74796" lon="2.52185">
        <ele>154.334</ele>
        <time>2018-12-12T12:36:58Z</time>
      </trkpt>
      <trkpt lat="48.74795" lon="2.52181">
        <ele>154.334</ele>
        <time>2018-12-12T12:37:00Z</time>
      </trkpt>
      <trkpt lat="48.74794" lon="2.52173">
        <ele>154.335</ele>
        <time>2018-12-12T12:37:05Z</time>
      </trkpt>
      <trkpt lat="48.74794" lon="2.52168">
        <ele>154.338</ele>
        <time>2018-12-12T12:37:08Z</time>
      </trkpt>
      <trkpt lat="48.74793" lon="2.5216">
        <ele>154.346</ele>
        <time>2018-12-12T12:37:13Z</time>
      </trkpt>
      <trkpt lat="48.74792" lon="2.52154">
        <ele>154.355</ele>
        <time>2018-12-12T12:37:16Z</time>
      </trkpt>
      <trkpt lat="48.74792" lon="2.5215">
        <ele>154.362</ele>
        <time>2018-12-12T12:37:18Z</time>
      </trkpt>
      <trkpt lat="48.74789" lon="2.52144">
        <ele>154.383</ele>
        <time>2018-12-12T12:37:22Z</time>
      </trkpt>
      <trkpt lat="48.74788" lon="2.5214">
        <ele>154.4</ele>
        <time>2018-12-12T12:37:25Z</time>
      </trkpt>
      <trkpt lat="48.74788" lon="2.52132">
        <ele>154.423</ele>
        <time>2018-12-12T12:37:29Z</time>
      </trkpt>
      <trkpt lat="48.74789" lon="2.52125">
        <ele>154.45</ele>
        <time>2018-12-12T12:37:33Z</time>
      </trkpt>
      <trkpt lat="48.74788" lon="2.52118">
        <ele>154.478</ele>
        <time>2018-12-12T12:37:37Z</time>
      </trkpt>
      <trkpt lat="48.74787" lon="2.52111">
        <ele>154.506</ele>
        <time>2018-12-12T12:37:41Z</time>
      </trkpt>
      <trkpt lat="48.74786" lon="2.52107">
        <ele>154.521</ele>
        <time>2018-12-12T12:37:43Z</time>
      </trkpt>
      <trkpt lat="48.74786" lon="2.52099">
        <ele>154.554</ele>
        <time>2018-12-12T12:37:47Z</time>
      </trkpt>
      <trkpt lat="48.74787" lon="2.52094">
        <ele>154.581</ele>
        <time>2018-12-12T12:37:50Z</time>
      </trkpt>
      <trkpt lat="48.74787" lon="2.52086">
        <ele>154.621</ele>
        <time>2018-12-12T12:37:54Z</time>
      </trkpt>
      <trkpt lat="48.74786" lon="2.52082">
        <ele>154.64</ele>
        <time>2018-12-12T12:37:56Z</time>
      </trkpt>
      <trkpt lat="48.74785" lon="2.52074">
        <ele>154.687</ele>
        <time>2018-12-12T12:38:01Z</time>
      </trkpt>
      <trkpt lat="48.74785" lon="2.5207">
        <ele>154.706</ele>
        <time>2018-12-12T12:38:03Z</time>
      </trkpt>
      <trkpt lat="48.74785" lon="2.52061">
        <ele>154.743</ele>
        <time>2018-12-12T12:38:07Z</time>
      </trkpt>
      <trkpt lat="48.74785" lon="2.52057">
        <ele>154.76</ele>
        <time>2018-12-12T12:38:09Z</time>
      </trkpt>
      <trkpt lat="48.74783" lon="2.5205">
        <ele>154.795</ele>
        <time>2018-12-12T12:38:13Z</time>
      </trkpt>
      <trkpt lat="48.74783" lon="2.52046">
        <ele>154.812</ele>
        <time>2018-12-12T12:38:15Z</time>
      </trkpt>
      <trkpt lat="48.74782" lon="2.52037">
        <ele>154.857</ele>
        <time>2018-12-12T12:38:20Z</time>
      </trkpt>
      <trkpt lat="48.74779" lon="2.52031">
        <ele>154.894</ele>
        <time>2018-12-12T12:38:24Z</time>
      </trkpt>
      <trkpt lat="48.74779" lon="2.52024">
        <ele>154.93</ele>
        <time>2018-12-12T12:38:28Z</time>
      </trkpt>
      <trkpt lat="48.74779" lon="2.52016">
        <ele>154.969</ele>
        <time>2018-12-12T12:38:33Z</time>
      </trkpt>
      <trkpt lat="48.74779" lon="2.52008">
        <ele>154.99</ele>
        <time>2018-12-12T12:38:36Z</time>
      </trkpt>
      <trkpt lat="48.74777" lon="2.51999">
        <ele>155.024</ele>
        <time>2018-12-12T12:38:41Z</time>
      </trkpt>
      <trkpt lat="48.74777" lon="2.51991">
        <ele>155.059</ele>
        <time>2018-12-12T12:38:46Z</time>
      </trkpt>
      <trkpt lat="48.74777" lon="2.51983">
        <ele>155.088</ele>
        <time>2018-12-12T12:38:50Z</time>
      </trkpt>
      <trkpt lat="48.74778" lon="2.51978">
        <ele>155.108</ele>
        <time>2018-12-12T12:38:53Z</time>
      </trkpt>
      <trkpt lat="48.74774" lon="2.51964">
        <ele>155.126</ele>
        <time>2018-12-12T12:38:56Z</time>
      </trkpt>
      <trkpt lat="48.74772" lon="2.51959">
        <ele>155.135</ele>
        <time>2018-12-12T12:38:58Z</time>
      </trkpt>
      <trkpt lat="48.74771" lon="2.51954">
        <ele>155.142</ele>
        <time>2018-12-12T12:39:00Z</time>
      </trkpt>
      <trkpt lat="48.74769" lon="2.51943">
        <ele>155.151</ele>
        <time>2018-12-12T12:39:03Z</time>
      </trkpt>
      <trkpt lat="48.74768" lon="2.51938">
        <ele>155.159</ele>
        <time>2018-12-12T12:39:06Z</time>
      </trkpt>
      <trkpt lat="48.74766" lon="2.51931">
        <ele>155.169</ele>
        <time>2018-12-12T12:39:10Z</time>
      </trkpt>
      <trkpt lat="48.74766" lon="2.51924">
        <ele>155.174</ele>
        <time>2018-12-12T12:39:13Z</time>
      </trkpt>
      <trkpt lat="48.74766" lon="2.51916">
        <ele>155.177</ele>
        <time>2018-12-12T12:39:18Z</time>
      </trkpt>
      <trkpt lat="48.74765" lon="2.51907">
        <ele>155.178</ele>
        <time>2018-12-12T12:39:23Z</time>
      </trkpt>
      <trkpt lat="48.74764" lon="2.519">
        <ele>155.182</ele>
        <time>2018-12-12T12:39:27Z</time>
      </trkpt>
      <trkpt lat="48.74764" lon="2.51896">
        <ele>155.187</ele>
        <time>2018-12-12T12:39:30Z</time>
      </trkpt>
      <trkpt lat="48.74763" lon="2.51885">
        <ele>155.203</ele>
        <time>2018-12-12T12:39:38Z</time>
      </trkpt>
      <trkpt lat="48.74762" lon="2.51877">
        <ele>155.209</ele>
        <time>2018-12-12T12:39:41Z</time>
      </trkpt>
      <trkpt lat="48.74761" lon="2.51873">
        <ele>155.213</ele>
        <time>2018-12-12T12:39:43Z</time>
      </trkpt>
      <trkpt lat="48.7476" lon="2.51865">
        <ele>155.219</ele>
        <time>2018-12-12T12:39:47Z</time>
      </trkpt>
      <trkpt lat="48.74759" lon="2.5186">
        <ele>155.22</ele>
        <time>2018-12-12T12:39:50Z</time>
      </trkpt>
      <trkpt lat="48.74757" lon="2.51853">
        <ele>155.221</ele>
        <time>2018-12-12T12:39:54Z</time>
      </trkpt>
      <trkpt lat="48.74757" lon="2.51845">
        <ele>155.22</ele>
        <time>2018-12-12T12:39:58Z</time>
      </trkpt>
      <trkpt lat="48.74757" lon="2.51842">
        <ele>155.218</ele>
        <time>2018-12-12T12:40:00Z</time>
      </trkpt>
      <trkpt lat="48.74757" lon="2.51838">
        <ele>155.214</ele>
        <time>2018-12-12T12:40:02Z</time>
      </trkpt>
      <trkpt lat="48.74755" lon="2.51831">
        <ele>155.2</ele>
        <time>2018-12-12T12:40:06Z</time>
      </trkpt>
      <trkpt lat="48.74754" lon="2.51826">
        <ele>155.187</ele>
        <time>2018-12-12T12:40:09Z</time>
      </trkpt>
      <trkpt lat="48.74754" lon="2.51822">
        <ele>155.177</ele>
        <time>2018-12-12T12:40:11Z</time>
      </trkpt>
      <trkpt lat="48.74753" lon="2.51816">
        <ele>155.162</ele>
        <time>2018-12-12T12:40:14Z</time>
      </trkpt>
      <trkpt lat="48.74753" lon="2.51812">
        <ele>155.152</ele>
        <time>2018-12-12T12:40:16Z</time>
      </trkpt>
      <trkpt lat="48.74752" lon="2.51807">
        <ele>155.139</ele>
        <time>2018-12-12T12:40:19Z</time>
      </trkpt>
      <trkpt lat="48.74751" lon="2.51801">
        <ele>155.126</ele>
        <time>2018-12-12T12:40:22Z</time>
      </trkpt>
      <trkpt lat="48.74751" lon="2.51796">
        <ele>155.116</ele>
        <time>2018-12-12T12:40:24Z</time>
      </trkpt>
      <trkpt lat="48.7475" lon="2.51791">
        <ele>155.107</ele>
        <time>2018-12-12T12:40:26Z</time>
      </trkpt>
      <trkpt lat="48.74748" lon="2.51784">
        <ele>155.093</ele>
        <time>2018-12-12T12:40:29Z</time>
      </trkpt>
      <trkpt lat="48.74747" lon="2.51776">
        <ele>155.073</ele>
        <time>2018-12-12T12:40:33Z</time>
      </trkpt>
      <trkpt lat="48.74747" lon="2.51768">
        <ele>155.055</ele>
        <time>2018-12-12T12:40:37Z</time>
      </trkpt>
      <trkpt lat="48.74746" lon="2.51761">
        <ele>155.042</ele>
        <time>2018-12-12T12:40:40Z</time>
      </trkpt>
      <trkpt lat="48.74744" lon="2.51753">
        <ele>155.023</ele>
        <time>2018-12-12T12:40:44Z</time>
      </trkpt>
      <trkpt lat="48.74742" lon="2.51744">
        <ele>155</ele>
        <time>2018-12-12T12:40:49Z</time>
      </trkpt>
      <trkpt lat="48.74742" lon="2.5174">
        <ele>154.991</ele>
        <time>2018-12-12T12:40:51Z</time>
      </trkpt>
      <trkpt lat="48.74742" lon="2.51733">
        <ele>154.977</ele>
        <time>2018-12-12T12:40:55Z</time>
      </trkpt>
      <trkpt lat="48.74741" lon="2.51727">
        <ele>154.968</ele>
        <time>2018-12-12T12:40:58Z</time>
      </trkpt>
      <trkpt lat="48.74741" lon="2.51723">
        <ele>154.962</ele>
        <time>2018-12-12T12:41:00Z</time>
      </trkpt>
      <trkpt lat="48.74741" lon="2.51718">
        <ele>154.957</ele>
        <time>2018-12-12T12:41:02Z</time>
      </trkpt>
      <trkpt lat="48.74741" lon="2.51714">
        <ele>154.952</ele>
        <time>2018-12-12T12:41:04Z</time>
      </trkpt>
      <trkpt lat="48.7474" lon="2.51706">
        <ele>154.94</ele>
        <time>2018-12-12T12:41:08Z</time>
      </trkpt>
      <trkpt lat="48.74739" lon="2.51701">
        <ele>154.932</ele>
        <time>2018-12-12T12:41:11Z</time>
      </trkpt>
      <trkpt lat="48.74739" lon="2.51697">
        <ele>154.927</ele>
        <time>2018-12-12T12:41:13Z</time>
      </trkpt>
      <trkpt lat="48.74738" lon="2.5169">
        <ele>154.916</ele>
        <time>2018-12-12T12:41:17Z</time>
      </trkpt>
      <trkpt lat="48.74737" lon="2.51685">
        <ele>154.909</ele>
        <time>2018-12-12T12:41:20Z</time>
      </trkpt>
      <trkpt lat="48.74736" lon="2.51681">
        <ele>154.904</ele>
        <time>2018-12-12T12:41:22Z</time>
      </trkpt>
      <trkpt lat="48.74735" lon="2.51674">
        <ele>154.898</ele>
        <time>2018-12-12T12:41:25Z</time>
      </trkpt>
      <trkpt lat="48.74734" lon="2.51667">
        <ele>154.888</ele>
        <time>2018-12-12T12:41:29Z</time>
      </trkpt>
      <trkpt lat="48.74734" lon="2.51664">
        <ele>154.882</ele>
        <time>2018-12-12T12:41:31Z</time>
      </trkpt>
      <trkpt lat="48.74734" lon="2.51656">
        <ele>154.871</ele>
        <time>2018-12-12T12:41:35Z</time>
      </trkpt>
      <trkpt lat="48.74733" lon="2.51649">
        <ele>154.864</ele>
        <time>2018-12-12T12:41:38Z</time>
      </trkpt>
      <trkpt lat="48.74731" lon="2.51642">
        <ele>154.855</ele>
        <time>2018-12-12T12:41:41Z</time>
      </trkpt>
      <trkpt lat="48.7473" lon="2.51634">
        <ele>154.843</ele>
        <time>2018-12-12T12:41:44Z</time>
      </trkpt>
      <trkpt lat="48.74729" lon="2.51629">
        <ele>154.833</ele>
        <time>2018-12-12T12:41:46Z</time>
      </trkpt>
      <trkpt lat="48.74729" lon="2.51624">
        <ele>154.821</ele>
        <time>2018-12-12T12:41:48Z</time>
      </trkpt>
      <trkpt lat="48.74728" lon="2.51619">
        <ele>154.804</ele>
        <time>2018-12-12T12:41:51Z</time>
      </trkpt>
      <trkpt lat="48.74726" lon="2.51612">
        <ele>154.781</ele>
        <time>2018-12-12T12:41:55Z</time>
      </trkpt>
      <trkpt lat="48.74724" lon="2.51604">
        <ele>154.75</ele>
        <time>2018-12-12T12:42:00Z</time>
      </trkpt>
      <trkpt lat="48.74725" lon="2.51596">
        <ele>154.728</ele>
        <time>2018-12-12T12:42:04Z</time>
      </trkpt>
      <trkpt lat="48.74724" lon="2.51589">
        <ele>154.705</ele>
        <time>2018-12-12T12:42:08Z</time>
      </trkpt>
      <trkpt lat="48.74724" lon="2.5158">
        <ele>154.679</ele>
        <time>2018-12-12T12:42:13Z</time>
      </trkpt>
      <trkpt lat="48.74724" lon="2.51575">
        <ele>154.661</ele>
        <time>2018-12-12T12:42:16Z</time>
      </trkpt>
      <trkpt lat="48.74724" lon="2.51567">
        <ele>154.638</ele>
        <time>2018-12-12T12:42:19Z</time>
      </trkpt>
      <trkpt lat="48.74725" lon="2.51562">
        <ele>154.615</ele>
        <time>2018-12-12T12:42:22Z</time>
      </trkpt>
      <trkpt lat="48.74724" lon="2.51555">
        <ele>154.592</ele>
        <time>2018-12-12T12:42:25Z</time>
      </trkpt>
      <trkpt lat="48.74723" lon="2.51547">
        <ele>154.565</ele>
        <time>2018-12-12T12:42:29Z</time>
      </trkpt>
      <trkpt lat="48.74723" lon="2.51547">
        <ele>154.565</ele>
        <time>2018-12-12T12:42:36Z</time>
      </trkpt>
      <trkpt lat="48.74723" lon="2.51547">
        <ele>91</ele>
        <time>2018-12-12T12:42:36Z</time>
      </trkpt>
      <trkpt lat="48.74723" lon="2.51547">
        <ele>91</ele>
        <time>2018-12-12T12:48:41Z</time>
      </trkpt>
      <trkpt lat="48.74736" lon="2.51517">
        <ele>153.596</ele>
        <time>2018-12-12T12:48:41Z</time>
      </trkpt>
      <trkpt lat="48.74739" lon="2.51512">
        <ele>153.571</ele>
        <time>2018-12-12T12:48:45Z</time>
      </trkpt>
      <trkpt lat="48.74743" lon="2.51507">
        <ele>153.547</ele>
        <time>2018-12-12T12:48:49Z</time>
      </trkpt>
      <trkpt lat="48.74746" lon="2.51502">
        <ele>153.526</ele>
        <time>2018-12-12T12:48:52Z</time>
      </trkpt>
      <trkpt lat="48.74748" lon="2.51499">
        <ele>153.512</ele>
        <time>2018-12-12T12:48:54Z</time>
      </trkpt>
      <trkpt lat="48.74752" lon="2.51494">
        <ele>153.489</ele>
        <time>2018-12-12T12:48:57Z</time>
      </trkpt>
      <trkpt lat="48.74753" lon="2.51492">
        <ele>153.472</ele>
        <time>2018-12-12T12:48:59Z</time>
      </trkpt>
      <trkpt lat="48.74756" lon="2.51486">
        <ele>153.427</ele>
        <time>2018-12-12T12:49:04Z</time>
      </trkpt>
      <trkpt lat="48.7476" lon="2.51479">
        <ele>153.364</ele>
        <time>2018-12-12T12:49:10Z</time>
      </trkpt>
      <trkpt lat="48.74762" lon="2.51475">
        <ele>153.331</ele>
        <time>2018-12-12T12:49:13Z</time>
      </trkpt>
      <trkpt lat="48.74764" lon="2.51473">
        <ele>153.308</ele>
        <time>2018-12-12T12:49:15Z</time>
      </trkpt>
      <trkpt lat="48.74766" lon="2.51469">
        <ele>153.277</ele>
        <time>2018-12-12T12:49:18Z</time>
      </trkpt>
      <trkpt lat="48.74769" lon="2.51462">
        <ele>153.245</ele>
        <time>2018-12-12T12:49:21Z</time>
      </trkpt>
      <trkpt lat="48.74772" lon="2.51457">
        <ele>153.194</ele>
        <time>2018-12-12T12:49:26Z</time>
      </trkpt>
      <trkpt lat="48.74775" lon="2.51451">
        <ele>153.152</ele>
        <time>2018-12-12T12:49:30Z</time>
      </trkpt>
      <trkpt lat="48.7478" lon="2.51444">
        <ele>153.079</ele>
        <time>2018-12-12T12:49:37Z</time>
      </trkpt>
      <trkpt lat="48.74783" lon="2.5144">
        <ele>153.05</ele>
        <time>2018-12-12T12:49:40Z</time>
      </trkpt>
      <trkpt lat="48.74787" lon="2.51435">
        <ele>153.012</ele>
        <time>2018-12-12T12:49:44Z</time>
      </trkpt>
      <trkpt lat="48.7479" lon="2.5143">
        <ele>152.973</ele>
        <time>2018-12-12T12:49:48Z</time>
      </trkpt>
      <trkpt lat="48.74794" lon="2.51425">
        <ele>152.927</ele>
        <time>2018-12-12T12:49:53Z</time>
      </trkpt>
      <trkpt lat="48.74798" lon="2.51418">
        <ele>152.886</ele>
        <time>2018-12-12T12:49:58Z</time>
      </trkpt>
      <trkpt lat="48.74802" lon="2.51412">
        <ele>152.863</ele>
        <time>2018-12-12T12:50:01Z</time>
      </trkpt>
      <trkpt lat="48.74804" lon="2.51409">
        <ele>152.841</ele>
        <time>2018-12-12T12:50:04Z</time>
      </trkpt>
      <trkpt lat="48.74807" lon="2.51403">
        <ele>152.811</ele>
        <time>2018-12-12T12:50:08Z</time>
      </trkpt>
      <trkpt lat="48.74808" lon="2.51399">
        <ele>152.796</ele>
        <time>2018-12-12T12:50:10Z</time>
      </trkpt>
      <trkpt lat="48.74812" lon="2.51395">
        <ele>152.767</ele>
        <time>2018-12-12T12:50:14Z</time>
      </trkpt>
      <trkpt lat="48.74812" lon="2.51395">
        <ele>92.2</ele>
        <time>2018-12-12T12:50:19Z</time>
      </trkpt>
      <trkpt lat="48.74812" lon="2.51395">
        <ele>92.2</ele>
        <time>2018-12-12T12:50:33Z</time>
      </trkpt>
      <trkpt lat="48.74823" lon="2.51373">
        <ele>152.636</ele>
        <time>2018-12-12T12:50:33Z</time>
      </trkpt>
      <trkpt lat="48.74825" lon="2.5137">
        <ele>152.621</ele>
        <time>2018-12-12T12:50:35Z</time>
      </trkpt>
      <trkpt lat="48.7483" lon="2.51364">
        <ele>152.592</ele>
        <time>2018-12-12T12:50:39Z</time>
      </trkpt>
      <trkpt lat="48.74832" lon="2.51361">
        <ele>152.579</ele>
        <time>2018-12-12T12:50:41Z</time>
      </trkpt>
      <trkpt lat="48.74835" lon="2.51354">
        <ele>152.552</ele>
        <time>2018-12-12T12:50:45Z</time>
      </trkpt>
      <trkpt lat="48.74837" lon="2.5135">
        <ele>152.533</ele>
        <time>2018-12-12T12:50:48Z</time>
      </trkpt>
      <trkpt lat="48.74839" lon="2.51347">
        <ele>152.52</ele>
        <time>2018-12-12T12:50:50Z</time>
      </trkpt>
      <trkpt lat="48.74843" lon="2.5134">
        <ele>152.491</ele>
        <time>2018-12-12T12:50:55Z</time>
      </trkpt>
      <trkpt lat="48.74846" lon="2.51333">
        <ele>152.469</ele>
        <time>2018-12-12T12:50:59Z</time>
      </trkpt>
      <trkpt lat="48.74849" lon="2.51328">
        <ele>152.443</ele>
        <time>2018-12-12T12:51:04Z</time>
      </trkpt>
      <trkpt lat="48.74851" lon="2.51324">
        <ele>152.433</ele>
        <time>2018-12-12T12:51:06Z</time>
      </trkpt>
      <trkpt lat="48.74853" lon="2.51322">
        <ele>152.425</ele>
        <time>2018-12-12T12:51:08Z</time>
      </trkpt>
      <trkpt lat="48.74856" lon="2.51315">
        <ele>152.409</ele>
        <time>2018-12-12T12:51:12Z</time>
      </trkpt>
      <trkpt lat="48.74858" lon="2.51311">
        <ele>152.395</ele>
        <time>2018-12-12T12:51:16Z</time>
      </trkpt>
      <trkpt lat="48.74849" lon="2.51305">
        <ele>152.363</ele>
        <time>2018-12-12T12:51:22Z</time>
      </trkpt>
      <trkpt lat="48.74846" lon="2.51302">
        <ele>152.348</ele>
        <time>2018-12-12T12:51:24Z</time>
      </trkpt>
      <trkpt lat="48.74844" lon="2.513">
        <ele>152.332</ele>
        <time>2018-12-12T12:51:26Z</time>
      </trkpt>
      <trkpt lat="48.74839" lon="2.51297">
        <ele>152.298</ele>
        <time>2018-12-12T12:51:30Z</time>
      </trkpt>
      <trkpt lat="48.74836" lon="2.51296">
        <ele>152.271</ele>
        <time>2018-12-12T12:51:33Z</time>
      </trkpt>
      <trkpt lat="48.74831" lon="2.51289">
        <ele>152.247</ele>
        <time>2018-12-12T12:51:36Z</time>
      </trkpt>
      <trkpt lat="48.74826" lon="2.51287">
        <ele>152.216</ele>
        <time>2018-12-12T12:51:40Z</time>
      </trkpt>
      <trkpt lat="48.74823" lon="2.51285">
        <ele>152.201</ele>
        <time>2018-12-12T12:51:42Z</time>
      </trkpt>
      <trkpt lat="48.74818" lon="2.51281">
        <ele>152.182</ele>
        <time>2018-12-12T12:51:45Z</time>
      </trkpt>
      <trkpt lat="48.74813" lon="2.51279">
        <ele>152.151</ele>
        <time>2018-12-12T12:51:50Z</time>
      </trkpt>
      <trkpt lat="48.74809" lon="2.51276">
        <ele>152.121</ele>
        <time>2018-12-12T12:51:54Z</time>
      </trkpt>
      <trkpt lat="48.74805" lon="2.51274">
        <ele>152.084</ele>
        <time>2018-12-12T12:51:58Z</time>
      </trkpt>
      <trkpt lat="48.74802" lon="2.51267">
        <ele>152.027</ele>
        <time>2018-12-12T12:52:03Z</time>
      </trkpt>
      <trkpt lat="48.74798" lon="2.51264">
        <ele>151.963</ele>
        <time>2018-12-12T12:52:08Z</time>
      </trkpt>
      <trkpt lat="48.74796" lon="2.51263">
        <ele>151.936</ele>
        <time>2018-12-12T12:52:10Z</time>
      </trkpt>
      <trkpt lat="48.74791" lon="2.51262">
        <ele>151.895</ele>
        <time>2018-12-12T12:52:13Z</time>
      </trkpt>
      <trkpt lat="48.74786" lon="2.5126">
        <ele>151.837</ele>
        <time>2018-12-12T12:52:17Z</time>
      </trkpt>
      <trkpt lat="48.74781" lon="2.51257">
        <ele>151.775</ele>
        <time>2018-12-12T12:52:21Z</time>
      </trkpt>
      <trkpt lat="48.74776" lon="2.51253">
        <ele>151.698</ele>
        <time>2018-12-12T12:52:26Z</time>
      </trkpt>
      <trkpt lat="48.74773" lon="2.51249">
        <ele>151.654</ele>
        <time>2018-12-12T12:52:29Z</time>
      </trkpt>
      <trkpt lat="48.74771" lon="2.5124">
        <ele>151.593</ele>
        <time>2018-12-12T12:52:33Z</time>
      </trkpt>
      <trkpt lat="48.74771" lon="2.51231">
        <ele>151.564</ele>
        <time>2018-12-12T12:52:35Z</time>
      </trkpt>
      <trkpt lat="48.74775" lon="2.51224">
        <ele>151.523</ele>
        <time>2018-12-12T12:52:38Z</time>
      </trkpt>
      <trkpt lat="48.74769" lon="2.51216">
        <ele>151.469</ele>
        <time>2018-12-12T12:52:42Z</time>
      </trkpt>
      <trkpt lat="48.74763" lon="2.51227">
        <ele>151.407</ele>
        <time>2018-12-12T12:52:47Z</time>
      </trkpt>
      <trkpt lat="48.74754" lon="2.51229">
        <ele>151.392</ele>
        <time>2018-12-12T12:52:50Z</time>
      </trkpt>
      <trkpt lat="48.74747" lon="2.51228">
        <ele>151.358</ele>
        <time>2018-12-12T12:52:53Z</time>
      </trkpt>
      <trkpt lat="48.74744" lon="2.51224">
        <ele>151.294</ele>
        <time>2018-12-12T12:52:59Z</time>
      </trkpt>
      <trkpt lat="48.74739" lon="2.51222">
        <ele>151.263</ele>
        <time>2018-12-12T12:53:02Z</time>
      </trkpt>
      <trkpt lat="48.74734" lon="2.51224">
        <ele>151.225</ele>
        <time>2018-12-12T12:53:06Z</time>
      </trkpt>
      <trkpt lat="48.74728" lon="2.51223">
        <ele>151.198</ele>
        <time>2018-12-12T12:53:09Z</time>
      </trkpt>
      <trkpt lat="48.74723" lon="2.51225">
        <ele>151.172</ele>
        <time>2018-12-12T12:53:12Z</time>
      </trkpt>
      <trkpt lat="48.7472" lon="2.51221">
        <ele>151.147</ele>
        <time>2018-12-12T12:53:15Z</time>
      </trkpt>
      <trkpt lat="48.74715" lon="2.51218">
        <ele>151.121</ele>
        <time>2018-12-12T12:53:18Z</time>
      </trkpt>
      <trkpt lat="48.74712" lon="2.51216">
        <ele>151.104</ele>
        <time>2018-12-12T12:53:20Z</time>
      </trkpt>
      <trkpt lat="48.74709" lon="2.51214">
        <ele>151.079</ele>
        <time>2018-12-12T12:53:23Z</time>
      </trkpt>
      <trkpt lat="48.74709" lon="2.51214">
        <ele>87</ele>
        <time>2018-12-12T12:53:28Z</time>
      </trkpt>
      <trkpt lat="48.74709" lon="2.51214">
        <ele>87</ele>
        <time>2018-12-12T12:53:34Z</time>
      </trkpt>
      <trkpt lat="48.74699" lon="2.51208">
        <ele>150.99</ele>
        <time>2018-12-12T12:53:34Z</time>
      </trkpt>
      <trkpt lat="48.74694" lon="2.51206">
        <ele>150.94</ele>
        <time>2018-12-12T12:53:40Z</time>
      </trkpt>
      <trkpt lat="48.74692" lon="2.51205">
        <ele>150.932</ele>
        <time>2018-12-12T12:53:41Z</time>
      </trkpt>
      <trkpt lat="48.74688" lon="2.512">
        <ele>150.883</ele>
        <time>2018-12-12T12:53:47Z</time>
      </trkpt>
      <trkpt lat="48.74683" lon="2.51199">
        <ele>150.842</ele>
        <time>2018-12-12T12:53:52Z</time>
      </trkpt>
      <trkpt lat="48.74677" lon="2.51197">
        <ele>150.794</ele>
        <time>2018-12-12T12:53:59Z</time>
      </trkpt>
      <trkpt lat="48.74673" lon="2.51196">
        <ele>150.779</ele>
        <time>2018-12-12T12:54:01Z</time>
      </trkpt>
      <trkpt lat="48.74671" lon="2.51195">
        <ele>150.757</ele>
        <time>2018-12-12T12:54:04Z</time>
      </trkpt>
      <trkpt lat="48.74667" lon="2.51194">
        <ele>150.723</ele>
        <time>2018-12-12T12:54:09Z</time>
      </trkpt>
      <trkpt lat="48.74661" lon="2.51192">
        <ele>150.698</ele>
        <time>2018-12-12T12:54:13Z</time>
      </trkpt>
      <trkpt lat="48.74656" lon="2.51198">
        <ele>150.679</ele>
        <time>2018-12-12T12:54:16Z</time>
      </trkpt>
      <trkpt lat="48.74651" lon="2.51201">
        <ele>150.655</ele>
        <time>2018-12-12T12:54:20Z</time>
      </trkpt>
      <trkpt lat="48.74646" lon="2.51199">
        <ele>150.631</ele>
        <time>2018-12-12T12:54:24Z</time>
      </trkpt>
      <trkpt lat="48.74643" lon="2.51198">
        <ele>150.621</ele>
        <time>2018-12-12T12:54:26Z</time>
      </trkpt>
      <trkpt lat="48.74638" lon="2.51196">
        <ele>150.601</ele>
        <time>2018-12-12T12:54:30Z</time>
      </trkpt>
      <trkpt lat="48.74633" lon="2.51193">
        <ele>150.586</ele>
        <time>2018-12-12T12:54:33Z</time>
      </trkpt>
      <trkpt lat="48.74629" lon="2.51193">
        <ele>150.56</ele>
        <time>2018-12-12T12:54:38Z</time>
      </trkpt>
      <trkpt lat="48.74624" lon="2.51192">
        <ele>150.54</ele>
        <time>2018-12-12T12:54:42Z</time>
      </trkpt>
      <trkpt lat="48.74619" lon="2.51192">
        <ele>150.525</ele>
        <time>2018-12-12T12:54:45Z</time>
      </trkpt>
      <trkpt lat="48.74614" lon="2.5119">
        <ele>150.497</ele>
        <time>2018-12-12T12:54:50Z</time>
      </trkpt>
      <trkpt lat="48.74609" lon="2.51191">
        <ele>150.471</ele>
        <time>2018-12-12T12:54:54Z</time>
      </trkpt>
      <trkpt lat="48.74605" lon="2.51194">
        <ele>150.458</ele>
        <time>2018-12-12T12:54:56Z</time>
      </trkpt>
      <trkpt lat="48.746" lon="2.51194">
        <ele>150.444</ele>
        <time>2018-12-12T12:54:58Z</time>
      </trkpt>
      <trkpt lat="48.74596" lon="2.51194">
        <ele>150.429</ele>
        <time>2018-12-12T12:55:00Z</time>
      </trkpt>
      <trkpt lat="48.74591" lon="2.51194">
        <ele>150.404</ele>
        <time>2018-12-12T12:55:03Z</time>
      </trkpt>
      <trkpt lat="48.74588" lon="2.51194">
        <ele>150.387</ele>
        <time>2018-12-12T12:55:05Z</time>
      </trkpt>
      <trkpt lat="48.74583" lon="2.51193">
        <ele>150.361</ele>
        <time>2018-12-12T12:55:08Z</time>
      </trkpt>
      <trkpt lat="48.74578" lon="2.51195">
        <ele>150.325</ele>
        <time>2018-12-12T12:55:12Z</time>
      </trkpt>
      <trkpt lat="48.74574" lon="2.51194">
        <ele>150.297</ele>
        <time>2018-12-12T12:55:15Z</time>
      </trkpt>
      <trkpt lat="48.74571" lon="2.51193">
        <ele>150.277</ele>
        <time>2018-12-12T12:55:17Z</time>
      </trkpt>
      <trkpt lat="48.74566" lon="2.51192">
        <ele>150.238</ele>
        <time>2018-12-12T12:55:21Z</time>
      </trkpt>
      <trkpt lat="48.74562" lon="2.51191">
        <ele>150.208</ele>
        <time>2018-12-12T12:55:24Z</time>
      </trkpt>
      <trkpt lat="48.7456" lon="2.51191">
        <ele>150.189</ele>
        <time>2018-12-12T12:55:26Z</time>
      </trkpt>
      <trkpt lat="48.74554" lon="2.51189">
        <ele>150.15</ele>
        <time>2018-12-12T12:55:30Z</time>
      </trkpt>
      <trkpt lat="48.74549" lon="2.51186">
        <ele>150.113</ele>
        <time>2018-12-12T12:55:34Z</time>
      </trkpt>
      <trkpt lat="48.74544" lon="2.51182">
        <ele>150.073</ele>
        <time>2018-12-12T12:55:38Z</time>
      </trkpt>
      <trkpt lat="48.74539" lon="2.51182">
        <ele>150.024</ele>
        <time>2018-12-12T12:55:42Z</time>
      </trkpt>
      <trkpt lat="48.74536" lon="2.51181">
        <ele>149.984</ele>
        <time>2018-12-12T12:55:45Z</time>
      </trkpt>
      <trkpt lat="48.74533" lon="2.51181">
        <ele>149.955</ele>
        <time>2018-12-12T12:55:47Z</time>
      </trkpt>
      <trkpt lat="48.74528" lon="2.51178">
        <ele>149.891</ele>
        <time>2018-12-12T12:55:51Z</time>
      </trkpt>
      <trkpt lat="48.74525" lon="2.51176">
        <ele>149.855</ele>
        <time>2018-12-12T12:55:53Z</time>
      </trkpt>
      <trkpt lat="48.7452" lon="2.51171">
        <ele>149.802</ele>
        <time>2018-12-12T12:55:56Z</time>
      </trkpt>
      <trkpt lat="48.74516" lon="2.51167">
        <ele>149.769</ele>
        <time>2018-12-12T12:55:58Z</time>
      </trkpt>
      <trkpt lat="48.74512" lon="2.51165">
        <ele>149.691</ele>
        <time>2018-12-12T12:56:03Z</time>
      </trkpt>
      <trkpt lat="48.74509" lon="2.51163">
        <ele>149.646</ele>
        <time>2018-12-12T12:56:06Z</time>
      </trkpt>
      <trkpt lat="48.74504" lon="2.51162">
        <ele>149.576</ele>
        <time>2018-12-12T12:56:11Z</time>
      </trkpt>
      <trkpt lat="48.74498" lon="2.51159">
        <ele>149.528</ele>
        <time>2018-12-12T12:56:15Z</time>
      </trkpt>
      <trkpt lat="48.74498" lon="2.51159">
        <ele>90.7</ele>
        <time>2018-12-12T12:56:22Z</time>
      </trkpt>
      <trkpt lat="48.74498" lon="2.51159">
        <ele>90.7</ele>
        <time>2018-12-12T12:57:42Z</time>
      </trkpt>
      <trkpt lat="48.7449" lon="2.51157">
        <ele>149.012</ele>
        <time>2018-12-12T12:57:42Z</time>
      </trkpt>
      <trkpt lat="48.74487" lon="2.51149">
        <ele>148.941</ele>
        <time>2018-12-12T12:57:47Z</time>
      </trkpt>
      <trkpt lat="48.74483" lon="2.51144">
        <ele>148.872</ele>
        <time>2018-12-12T12:57:52Z</time>
      </trkpt>
      <trkpt lat="48.74478" lon="2.51142">
        <ele>148.816</ele>
        <time>2018-12-12T12:57:56Z</time>
      </trkpt>
      <trkpt lat="48.74474" lon="2.51142">
        <ele>148.759</ele>
        <time>2018-12-12T12:58:00Z</time>
      </trkpt>
      <trkpt lat="48.74474" lon="2.51142">
        <ele>148.759</ele>
        <time>2018-12-12T12:58:08Z</time>
      </trkpt>
      <trkpt lat="48.74474" lon="2.51142">
        <ele>91</ele>
        <time>2018-12-12T12:58:08Z</time>
      </trkpt>
      <trkpt lat="48.74474" lon="2.51142">
        <ele>91</ele>
        <time>2018-12-12T12:58:25Z</time>
      </trkpt>
      <trkpt lat="48.74463" lon="2.51149">
        <ele>148.536</ele>
        <time>2018-12-12T12:58:25Z</time>
      </trkpt>
      <trkpt lat="48.74459" lon="2.51154">
        <ele>148.442</ele>
        <time>2018-12-12T12:58:29Z</time>
      </trkpt>
      <trkpt lat="48.74454" lon="2.51155">
        <ele>148.347</ele>
        <time>2018-12-12T12:58:33Z</time>
      </trkpt>
      <trkpt lat="48.7445" lon="2.51154">
        <ele>148.257</ele>
        <time>2018-12-12T12:58:37Z</time>
      </trkpt>
      <trkpt lat="48.74446" lon="2.51149">
        <ele>148.17</ele>
        <time>2018-12-12T12:58:41Z</time>
      </trkpt>
      <trkpt lat="48.74443" lon="2.51146">
        <ele>148.107</ele>
        <time>2018-12-12T12:58:44Z</time>
      </trkpt>
      <trkpt lat="48.74439" lon="2.51141">
        <ele>148.046</ele>
        <time>2018-12-12T12:58:47Z</time>
      </trkpt>
      <trkpt lat="48.74436" lon="2.51137">
        <ele>147.971</ele>
        <time>2018-12-12T12:58:51Z</time>
      </trkpt>
      <trkpt lat="48.74432" lon="2.5113">
        <ele>147.9</ele>
        <time>2018-12-12T12:58:55Z</time>
      </trkpt>
      <trkpt lat="48.74426" lon="2.51128">
        <ele>147.85</ele>
        <time>2018-12-12T12:58:58Z</time>
      </trkpt>
      <trkpt lat="48.74422" lon="2.51125">
        <ele>147.789</ele>
        <time>2018-12-12T12:59:02Z</time>
      </trkpt>
      <trkpt lat="48.74417" lon="2.51124">
        <ele>147.72</ele>
        <time>2018-12-12T12:59:07Z</time>
      </trkpt>
      <trkpt lat="48.74415" lon="2.51123">
        <ele>147.696</ele>
        <time>2018-12-12T12:59:09Z</time>
      </trkpt>
      <trkpt lat="48.74411" lon="2.51121">
        <ele>147.651</ele>
        <time>2018-12-12T12:59:13Z</time>
      </trkpt>
      <trkpt lat="48.74407" lon="2.51116">
        <ele>147.622</ele>
        <time>2018-12-12T12:59:16Z</time>
      </trkpt>
      <trkpt lat="48.74402" lon="2.51113">
        <ele>147.59</ele>
        <time>2018-12-12T12:59:20Z</time>
      </trkpt>
      <trkpt lat="48.744" lon="2.51111">
        <ele>147.575</ele>
        <time>2018-12-12T12:59:22Z</time>
      </trkpt>
      <trkpt lat="48.74395" lon="2.51112">
        <ele>147.545</ele>
        <time>2018-12-12T12:59:27Z</time>
      </trkpt>
      <trkpt lat="48.74391" lon="2.51115">
        <ele>147.514</ele>
        <time>2018-12-12T12:59:33Z</time>
      </trkpt>
      <trkpt lat="48.74391" lon="2.51115">
        <ele>91.9</ele>
        <time>2018-12-12T12:59:41Z</time>
      </trkpt>
      <trkpt lat="48.74391" lon="2.51115">
        <ele>91.9</ele>
        <time>2018-12-12T12:59:49Z</time>
      </trkpt>
      <trkpt lat="48.74382" lon="2.51116">
        <ele>147.435</ele>
        <time>2018-12-12T12:59:49Z</time>
      </trkpt>
      <trkpt lat="48.74378" lon="2.51113">
        <ele>147.412</ele>
        <time>2018-12-12T12:59:54Z</time>
      </trkpt>
      <trkpt lat="48.74376" lon="2.51111">
        <ele>147.402</ele>
        <time>2018-12-12T12:59:56Z</time>
      </trkpt>
      <trkpt lat="48.74371" lon="2.51111">
        <ele>147.374</ele>
        <time>2018-12-12T13:00:02Z</time>
      </trkpt>
      <trkpt lat="48.74366" lon="2.5111">
        <ele>147.358</ele>
        <time>2018-12-12T13:00:07Z</time>
      </trkpt>
      <trkpt lat="48.74362" lon="2.51108">
        <ele>147.354</ele>
        <time>2018-12-12T13:00:12Z</time>
      </trkpt>
      <trkpt lat="48.74357" lon="2.51108">
        <ele>147.355</ele>
        <time>2018-12-12T13:00:17Z</time>
      </trkpt>
      <trkpt lat="48.74352" lon="2.51107">
        <ele>147.358</ele>
        <time>2018-12-12T13:00:21Z</time>
      </trkpt>
      <trkpt lat="48.7435" lon="2.51106">
        <ele>147.362</ele>
        <time>2018-12-12T13:00:24Z</time>
      </trkpt>
      <trkpt lat="48.74345" lon="2.51106">
        <ele>147.37</ele>
        <time>2018-12-12T13:00:29Z</time>
      </trkpt>
      <trkpt lat="48.7434" lon="2.51104">
        <ele>147.38</ele>
        <time>2018-12-12T13:00:34Z</time>
      </trkpt>
      <trkpt lat="48.74336" lon="2.51102">
        <ele>147.391</ele>
        <time>2018-12-12T13:00:39Z</time>
      </trkpt>
      <trkpt lat="48.74336" lon="2.51102">
        <ele>92</ele>
        <time>2018-12-12T13:00:47Z</time>
      </trkpt>
      <trkpt lat="48.74336" lon="2.51102">
        <ele>92</ele>
        <time>2018-12-12T13:01:31Z</time>
      </trkpt>
      <trkpt lat="48.74299" lon="2.51104">
        <ele>147.446</ele>
        <time>2018-12-12T13:01:33Z</time>
      </trkpt>
      <trkpt lat="48.74294" lon="2.51104">
        <ele>147.447</ele>
        <time>2018-12-12T13:01:38Z</time>
      </trkpt>
      <trkpt lat="48.74289" lon="2.51104">
        <ele>147.45</ele>
        <time>2018-12-12T13:01:42Z</time>
      </trkpt>
      <trkpt lat="48.74285" lon="2.51103">
        <ele>147.454</ele>
        <time>2018-12-12T13:01:45Z</time>
      </trkpt>
      <trkpt lat="48.74279" lon="2.51101">
        <ele>147.46</ele>
        <time>2018-12-12T13:01:50Z</time>
      </trkpt>
      <trkpt lat="48.74274" lon="2.51098">
        <ele>147.462</ele>
        <time>2018-12-12T13:01:54Z</time>
      </trkpt>
      <trkpt lat="48.74269" lon="2.51094">
        <ele>147.463</ele>
        <time>2018-12-12T13:01:57Z</time>
      </trkpt>
      <trkpt lat="48.74265" lon="2.51088">
        <ele>147.463</ele>
        <time>2018-12-12T13:02:01Z</time>
      </trkpt>
      <trkpt lat="48.74259" lon="2.51086">
        <ele>147.465</ele>
        <time>2018-12-12T13:02:05Z</time>
      </trkpt>
      <trkpt lat="48.74255" lon="2.51087">
        <ele>147.468</ele>
        <time>2018-12-12T13:02:08Z</time>
      </trkpt>
      <trkpt lat="48.74249" lon="2.51086">
        <ele>147.477</ele>
        <time>2018-12-12T13:02:12Z</time>
      </trkpt>
      <trkpt lat="48.74246" lon="2.51086">
        <ele>147.488</ele>
        <time>2018-12-12T13:02:15Z</time>
      </trkpt>
      <trkpt lat="48.74241" lon="2.51086">
        <ele>147.513</ele>
        <time>2018-12-12T13:02:20Z</time>
      </trkpt>
      <trkpt lat="48.74237" lon="2.51085">
        <ele>147.542</ele>
        <time>2018-12-12T13:02:24Z</time>
      </trkpt>
      <trkpt lat="48.74234" lon="2.51084">
        <ele>147.562</ele>
        <time>2018-12-12T13:02:26Z</time>
      </trkpt>
      <trkpt lat="48.74229" lon="2.51083">
        <ele>147.6</ele>
        <time>2018-12-12T13:02:29Z</time>
      </trkpt>
      <trkpt lat="48.74224" lon="2.51081">
        <ele>147.656</ele>
        <time>2018-12-12T13:02:33Z</time>
      </trkpt>
      <trkpt lat="48.74221" lon="2.51079">
        <ele>147.682</ele>
        <time>2018-12-12T13:02:35Z</time>
      </trkpt>
      <trkpt lat="48.74219" lon="2.51078">
        <ele>147.704</ele>
        <time>2018-12-12T13:02:37Z</time>
      </trkpt>
      <trkpt lat="48.74214" lon="2.51076">
        <ele>147.747</ele>
        <time>2018-12-12T13:02:42Z</time>
      </trkpt>
      <trkpt lat="48.74209" lon="2.51077">
        <ele>147.794</ele>
        <time>2018-12-12T13:02:49Z</time>
      </trkpt>
      <trkpt lat="48.74205" lon="2.51075">
        <ele>147.828</ele>
        <time>2018-12-12T13:02:54Z</time>
      </trkpt>
      <trkpt lat="48.74198" lon="2.51072">
        <ele>147.854</ele>
        <time>2018-12-12T13:02:58Z</time>
      </trkpt>
      <trkpt lat="48.74193" lon="2.5107">
        <ele>147.879</ele>
        <time>2018-12-12T13:03:02Z</time>
      </trkpt>
      <trkpt lat="48.74189" lon="2.51065">
        <ele>147.9</ele>
        <time>2018-12-12T13:03:05Z</time>
      </trkpt>
      <trkpt lat="48.74185" lon="2.51064">
        <ele>147.948</ele>
        <time>2018-12-12T13:03:11Z</time>
      </trkpt>
      <trkpt lat="48.74179" lon="2.5106">
        <ele>147.996</ele>
        <time>2018-12-12T13:03:19Z</time>
      </trkpt>
      <trkpt lat="48.74177" lon="2.51058">
        <ele>148.014</ele>
        <time>2018-12-12T13:03:22Z</time>
      </trkpt>
      <trkpt lat="48.74172" lon="2.51059">
        <ele>148.062</ele>
        <time>2018-12-12T13:03:31Z</time>
      </trkpt>
      <trkpt lat="48.74167" lon="2.51064">
        <ele>148.1</ele>
        <time>2018-12-12T13:03:36Z</time>
      </trkpt>
      <trkpt lat="48.74165" lon="2.51066">
        <ele>148.117</ele>
        <time>2018-12-12T13:03:38Z</time>
      </trkpt>
      <trkpt lat="48.7416" lon="2.51068">
        <ele>148.149</ele>
        <time>2018-12-12T13:03:42Z</time>
      </trkpt>
      <trkpt lat="48.74155" lon="2.51068">
        <ele>148.18</ele>
        <time>2018-12-12T13:03:46Z</time>
      </trkpt>
      <trkpt lat="48.74149" lon="2.51065">
        <ele>148.21</ele>
        <time>2018-12-12T13:03:50Z</time>
      </trkpt>
      <trkpt lat="48.74145" lon="2.51064">
        <ele>148.224</ele>
        <time>2018-12-12T13:03:52Z</time>
      </trkpt>
      <trkpt lat="48.7414" lon="2.51063">
        <ele>148.243</ele>
        <time>2018-12-12T13:03:55Z</time>
      </trkpt>
      <trkpt lat="48.74135" lon="2.51064">
        <ele>148.268</ele>
        <time>2018-12-12T13:03:59Z</time>
      </trkpt>
      <trkpt lat="48.74131" lon="2.51063">
        <ele>148.305</ele>
        <time>2018-12-12T13:04:05Z</time>
      </trkpt>
      <trkpt lat="48.74126" lon="2.51064">
        <ele>148.328</ele>
        <time>2018-12-12T13:04:09Z</time>
      </trkpt>
      <trkpt lat="48.74122" lon="2.51061">
        <ele>148.348</ele>
        <time>2018-12-12T13:04:12Z</time>
      </trkpt>
      <trkpt lat="48.74119" lon="2.51058">
        <ele>148.364</ele>
        <time>2018-12-12T13:04:14Z</time>
      </trkpt>
      <trkpt lat="48.74115" lon="2.51057">
        <ele>148.404</ele>
        <time>2018-12-12T13:04:19Z</time>
      </trkpt>
      <trkpt lat="48.7411" lon="2.51055">
        <ele>148.44</ele>
        <time>2018-12-12T13:04:24Z</time>
      </trkpt>
      <trkpt lat="48.74105" lon="2.51053">
        <ele>148.464</ele>
        <time>2018-12-12T13:04:28Z</time>
      </trkpt>
      <trkpt lat="48.74101" lon="2.5105">
        <ele>148.482</ele>
        <time>2018-12-12T13:04:31Z</time>
      </trkpt>
      <trkpt lat="48.74096" lon="2.51048">
        <ele>148.504</ele>
        <time>2018-12-12T13:04:35Z</time>
      </trkpt>
      <trkpt lat="48.74092" lon="2.51045">
        <ele>148.521</ele>
        <time>2018-12-12T13:04:38Z</time>
      </trkpt>
      <trkpt lat="48.74087" lon="2.51041">
        <ele>148.536</ele>
        <time>2018-12-12T13:04:41Z</time>
      </trkpt>
      <trkpt lat="48.74083" lon="2.51038">
        <ele>148.55</ele>
        <time>2018-12-12T13:04:44Z</time>
      </trkpt>
      <trkpt lat="48.74081" lon="2.51036">
        <ele>148.56</ele>
        <time>2018-12-12T13:04:46Z</time>
      </trkpt>
      <trkpt lat="48.74076" lon="2.51034">
        <ele>148.575</ele>
        <time>2018-12-12T13:04:50Z</time>
      </trkpt>
      <trkpt lat="48.74073" lon="2.51032">
        <ele>148.58</ele>
        <time>2018-12-12T13:04:53Z</time>
      </trkpt>
      <trkpt lat="48.74071" lon="2.51031">
        <ele>148.582</ele>
        <time>2018-12-12T13:04:55Z</time>
      </trkpt>
      <trkpt lat="48.74065" lon="2.51031">
        <ele>148.583</ele>
        <time>2018-12-12T13:04:59Z</time>
      </trkpt>
      <trkpt lat="48.7406" lon="2.51029">
        <ele>148.577</ele>
        <time>2018-12-12T13:05:03Z</time>
      </trkpt>
      <trkpt lat="48.74055" lon="2.51028">
        <ele>148.568</ele>
        <time>2018-12-12T13:05:07Z</time>
      </trkpt>
      <trkpt lat="48.74053" lon="2.51028">
        <ele>148.564</ele>
        <time>2018-12-12T13:05:09Z</time>
      </trkpt>
      <trkpt lat="48.74048" lon="2.51024">
        <ele>148.553</ele>
        <time>2018-12-12T13:05:13Z</time>
      </trkpt>
      <trkpt lat="48.74045" lon="2.51023">
        <ele>148.548</ele>
        <time>2018-12-12T13:05:15Z</time>
      </trkpt>
      <trkpt lat="48.74041" lon="2.51021">
        <ele>148.536</ele>
        <time>2018-12-12T13:05:20Z</time>
      </trkpt>
      <trkpt lat="48.74035" lon="2.51021">
        <ele>148.523</ele>
        <time>2018-12-12T13:05:25Z</time>
      </trkpt>
      <trkpt lat="48.74031" lon="2.51018">
        <ele>148.511</ele>
        <time>2018-12-12T13:05:29Z</time>
      </trkpt>
      <trkpt lat="48.74028" lon="2.51014">
        <ele>148.501</ele>
        <time>2018-12-12T13:05:32Z</time>
      </trkpt>
      <trkpt lat="48.74023" lon="2.51011">
        <ele>148.481</ele>
        <time>2018-12-12T13:05:37Z</time>
      </trkpt>
      <trkpt lat="48.74019" lon="2.51009">
        <ele>148.463</ele>
        <time>2018-12-12T13:05:41Z</time>
      </trkpt>
      <trkpt lat="48.74015" lon="2.51006">
        <ele>148.448</ele>
        <time>2018-12-12T13:05:44Z</time>
      </trkpt>
      <trkpt lat="48.74009" lon="2.51003">
        <ele>148.42</ele>
        <time>2018-12-12T13:05:49Z</time>
      </trkpt>
      <trkpt lat="48.74007" lon="2.51001">
        <ele>148.409</ele>
        <time>2018-12-12T13:05:51Z</time>
      </trkpt>
      <trkpt lat="48.74004" lon="2.50999">
        <ele>148.391</ele>
        <time>2018-12-12T13:05:54Z</time>
      </trkpt>
      <trkpt lat="48.73999" lon="2.50997">
        <ele>148.367</ele>
        <time>2018-12-12T13:05:58Z</time>
      </trkpt>
      <trkpt lat="48.73994" lon="2.50998">
        <ele>148.329</ele>
        <time>2018-12-12T13:06:04Z</time>
      </trkpt>
      <trkpt lat="48.7399" lon="2.50996">
        <ele>148.283</ele>
        <time>2018-12-12T13:06:11Z</time>
      </trkpt>
      <trkpt lat="48.73985" lon="2.50994">
        <ele>148.271</ele>
        <time>2018-12-12T13:06:13Z</time>
      </trkpt>
      <trkpt lat="48.7398" lon="2.50994">
        <ele>148.249</ele>
        <time>2018-12-12T13:06:17Z</time>
      </trkpt>
      <trkpt lat="48.73977" lon="2.50994">
        <ele>148.24</ele>
        <time>2018-12-12T13:06:19Z</time>
      </trkpt>
      <trkpt lat="48.73973" lon="2.50991">
        <ele>148.221</ele>
        <time>2018-12-12T13:06:24Z</time>
      </trkpt>
      <trkpt lat="48.73969" lon="2.50987">
        <ele>148.206</ele>
        <time>2018-12-12T13:06:28Z</time>
      </trkpt>
      <trkpt lat="48.73964" lon="2.50983">
        <ele>148.193</ele>
        <time>2018-12-12T13:06:32Z</time>
      </trkpt>
      <trkpt lat="48.73961" lon="2.50981">
        <ele>148.183</ele>
        <time>2018-12-12T13:06:35Z</time>
      </trkpt>
      <trkpt lat="48.73956" lon="2.50976">
        <ele>148.173</ele>
        <time>2018-12-12T13:06:38Z</time>
      </trkpt>
      <trkpt lat="48.73951" lon="2.5097">
        <ele>148.164</ele>
        <time>2018-12-12T13:06:42Z</time>
      </trkpt>
      <trkpt lat="48.73947" lon="2.50966">
        <ele>148.161</ele>
        <time>2018-12-12T13:06:45Z</time>
      </trkpt>
      <trkpt lat="48.73942" lon="2.50965">
        <ele>148.161</ele>
        <time>2018-12-12T13:06:50Z</time>
      </trkpt>
      <trkpt lat="48.73937" lon="2.50965">
        <ele>148.165</ele>
        <time>2018-12-12T13:06:55Z</time>
      </trkpt>
      <trkpt lat="48.73933" lon="2.50962">
        <ele>148.17</ele>
        <time>2018-12-12T13:06:59Z</time>
      </trkpt>
      <trkpt lat="48.7393" lon="2.5096">
        <ele>148.177</ele>
        <time>2018-12-12T13:07:02Z</time>
      </trkpt>
      <trkpt lat="48.73926" lon="2.50957">
        <ele>148.188</ele>
        <time>2018-12-12T13:07:06Z</time>
      </trkpt>
      <trkpt lat="48.7392" lon="2.50954">
        <ele>148.2</ele>
        <time>2018-12-12T13:07:10Z</time>
      </trkpt>
      <trkpt lat="48.73918" lon="2.50953">
        <ele>148.204</ele>
        <time>2018-12-12T13:07:12Z</time>
      </trkpt>
      <trkpt lat="48.73915" lon="2.50951">
        <ele>148.209</ele>
        <time>2018-12-12T13:07:14Z</time>
      </trkpt>
      <trkpt lat="48.73913" lon="2.5095">
        <ele>148.214</ele>
        <time>2018-12-12T13:07:16Z</time>
      </trkpt>
      <trkpt lat="48.73908" lon="2.50948">
        <ele>148.221</ele>
        <time>2018-12-12T13:07:20Z</time>
      </trkpt>
      <trkpt lat="48.73903" lon="2.50943">
        <ele>148.229</ele>
        <time>2018-12-12T13:07:24Z</time>
      </trkpt>
      <trkpt lat="48.73899" lon="2.50946">
        <ele>148.239</ele>
        <time>2018-12-12T13:07:28Z</time>
      </trkpt>
      <trkpt lat="48.73899" lon="2.50946">
        <ele>148.239</ele>
        <time>2018-12-12T13:07:36Z</time>
      </trkpt>
      <trkpt lat="48.73899" lon="2.50946">
        <ele>91</ele>
        <time>2018-12-12T13:07:36Z</time>
      </trkpt>
      <trkpt lat="48.73899" lon="2.50946">
        <ele>91</ele>
        <time>2018-12-12T13:08:32Z</time>
      </trkpt>
      <trkpt lat="48.73872" lon="2.50934">
        <ele>148.955</ele>
        <time>2018-12-12T13:08:32Z</time>
      </trkpt>
      <trkpt lat="48.73868" lon="2.50931">
        <ele>149.01</ele>
        <time>2018-12-12T13:08:35Z</time>
      </trkpt>
      <trkpt lat="48.73863" lon="2.50929">
        <ele>149.098</ele>
        <time>2018-12-12T13:08:40Z</time>
      </trkpt>
      <trkpt lat="48.73858" lon="2.50927">
        <ele>149.183</ele>
        <time>2018-12-12T13:08:45Z</time>
      </trkpt>
      <trkpt lat="48.73855" lon="2.50925">
        <ele>149.231</ele>
        <time>2018-12-12T13:08:48Z</time>
      </trkpt>
      <trkpt lat="48.7385" lon="2.50922">
        <ele>149.294</ele>
        <time>2018-12-12T13:08:52Z</time>
      </trkpt>
      <trkpt lat="48.73846" lon="2.50919">
        <ele>149.357</ele>
        <time>2018-12-12T13:08:56Z</time>
      </trkpt>
      <trkpt lat="48.73843" lon="2.50917">
        <ele>149.423</ele>
        <time>2018-12-12T13:09:00Z</time>
      </trkpt>
      <trkpt lat="48.73838" lon="2.50916">
        <ele>149.502</ele>
        <time>2018-12-12T13:09:05Z</time>
      </trkpt>
      <trkpt lat="48.73834" lon="2.50915">
        <ele>149.565</ele>
        <time>2018-12-12T13:09:09Z</time>
      </trkpt>
      <trkpt lat="48.73828" lon="2.50914">
        <ele>149.644</ele>
        <time>2018-12-12T13:09:14Z</time>
      </trkpt>
      <trkpt lat="48.73823" lon="2.50912">
        <ele>149.713</ele>
        <time>2018-12-12T13:09:19Z</time>
      </trkpt>
      <trkpt lat="48.7382" lon="2.50911">
        <ele>149.739</ele>
        <time>2018-12-12T13:09:21Z</time>
      </trkpt>
      <trkpt lat="48.73815" lon="2.5091">
        <ele>149.788</ele>
        <time>2018-12-12T13:09:25Z</time>
      </trkpt>
      <trkpt lat="48.73811" lon="2.50907">
        <ele>149.836</ele>
        <time>2018-12-12T13:09:29Z</time>
      </trkpt>
      <trkpt lat="48.73809" lon="2.50906">
        <ele>149.858</ele>
        <time>2018-12-12T13:09:31Z</time>
      </trkpt>
      <trkpt lat="48.73804" lon="2.50905">
        <ele>149.893</ele>
        <time>2018-12-12T13:09:34Z</time>
      </trkpt>
      <trkpt lat="48.73799" lon="2.50905">
        <ele>149.927</ele>
        <time>2018-12-12T13:09:37Z</time>
      </trkpt>
      <trkpt lat="48.73794" lon="2.50904">
        <ele>149.96</ele>
        <time>2018-12-12T13:09:40Z</time>
      </trkpt>
      <trkpt lat="48.7379" lon="2.50901">
        <ele>149.993</ele>
        <time>2018-12-12T13:09:43Z</time>
      </trkpt>
      <trkpt lat="48.73785" lon="2.50898">
        <ele>150.048</ele>
        <time>2018-12-12T13:09:48Z</time>
      </trkpt>
      <trkpt lat="48.73782" lon="2.50897">
        <ele>150.083</ele>
        <time>2018-12-12T13:09:51Z</time>
      </trkpt>
      <trkpt lat="48.73777" lon="2.50894">
        <ele>150.126</ele>
        <time>2018-12-12T13:09:55Z</time>
      </trkpt>
      <trkpt lat="48.73774" lon="2.50891">
        <ele>150.149</ele>
        <time>2018-12-12T13:09:57Z</time>
      </trkpt>
      <trkpt lat="48.7377" lon="2.50888">
        <ele>150.199</ele>
        <time>2018-12-12T13:10:01Z</time>
      </trkpt>
      <trkpt lat="48.73766" lon="2.50885">
        <ele>150.25</ele>
        <time>2018-12-12T13:10:05Z</time>
      </trkpt>
      <trkpt lat="48.73761" lon="2.50882">
        <ele>150.337</ele>
        <time>2018-12-12T13:10:11Z</time>
      </trkpt>
      <trkpt lat="48.73756" lon="2.50883">
        <ele>150.427</ele>
        <time>2018-12-12T13:10:17Z</time>
      </trkpt>
      <trkpt lat="48.73751" lon="2.50879">
        <ele>150.492</ele>
        <time>2018-12-12T13:10:22Z</time>
      </trkpt>
      <trkpt lat="48.73746" lon="2.50876">
        <ele>150.559</ele>
        <time>2018-12-12T13:10:26Z</time>
      </trkpt>
      <trkpt lat="48.73742" lon="2.50874">
        <ele>150.609</ele>
        <time>2018-12-12T13:10:29Z</time>
      </trkpt>
      <trkpt lat="48.73738" lon="2.50872">
        <ele>150.656</ele>
        <time>2018-12-12T13:10:32Z</time>
      </trkpt>
      <trkpt lat="48.73734" lon="2.50868">
        <ele>150.701</ele>
        <time>2018-12-12T13:10:35Z</time>
      </trkpt>
      <trkpt lat="48.73729" lon="2.50865">
        <ele>150.761</ele>
        <time>2018-12-12T13:10:39Z</time>
      </trkpt>
      <trkpt lat="48.73726" lon="2.50864">
        <ele>150.789</ele>
        <time>2018-12-12T13:10:41Z</time>
      </trkpt>
      <trkpt lat="48.73723" lon="2.50863">
        <ele>150.818</ele>
        <time>2018-12-12T13:10:43Z</time>
      </trkpt>
      <trkpt lat="48.7372" lon="2.50861">
        <ele>150.859</ele>
        <time>2018-12-12T13:10:46Z</time>
      </trkpt>
      <trkpt lat="48.73717" lon="2.5086">
        <ele>150.887</ele>
        <time>2018-12-12T13:10:48Z</time>
      </trkpt>
      <trkpt lat="48.73712" lon="2.50859">
        <ele>150.954</ele>
        <time>2018-12-12T13:10:53Z</time>
      </trkpt>
      <trkpt lat="48.73709" lon="2.50858">
        <ele>150.985</ele>
        <time>2018-12-12T13:10:55Z</time>
      </trkpt>
      <trkpt lat="48.73704" lon="2.50854">
        <ele>151.051</ele>
        <time>2018-12-12T13:10:59Z</time>
      </trkpt>
      <trkpt lat="48.73701" lon="2.50852">
        <ele>151.1</ele>
        <time>2018-12-12T13:11:02Z</time>
      </trkpt>
      <trkpt lat="48.73697" lon="2.50848">
        <ele>151.178</ele>
        <time>2018-12-12T13:11:07Z</time>
      </trkpt>
      <trkpt lat="48.73695" lon="2.50845">
        <ele>151.207</ele>
        <time>2018-12-12T13:11:09Z</time>
      </trkpt>
      <trkpt lat="48.73692" lon="2.50839">
        <ele>151.29</ele>
        <time>2018-12-12T13:11:15Z</time>
      </trkpt>
      <trkpt lat="48.73692" lon="2.50831">
        <ele>151.349</ele>
        <time>2018-12-12T13:11:20Z</time>
      </trkpt>
      <trkpt lat="48.73692" lon="2.50825">
        <ele>151.378</ele>
        <time>2018-12-12T13:11:23Z</time>
      </trkpt>
      <trkpt lat="48.73692" lon="2.5082">
        <ele>151.397</ele>
        <time>2018-12-12T13:11:25Z</time>
      </trkpt>
      <trkpt lat="48.73691" lon="2.50816">
        <ele>151.422</ele>
        <time>2018-12-12T13:11:28Z</time>
      </trkpt>
      <trkpt lat="48.7369" lon="2.50809">
        <ele>151.441</ele>
        <time>2018-12-12T13:11:33Z</time>
      </trkpt>
      <trkpt lat="48.7369" lon="2.50805">
        <ele>151.437</ele>
        <time>2018-12-12T13:11:36Z</time>
      </trkpt>
      <trkpt lat="48.73687" lon="2.50797">
        <ele>151.413</ele>
        <time>2018-12-12T13:11:41Z</time>
      </trkpt>
      <trkpt lat="48.73683" lon="2.50792">
        <ele>151.383</ele>
        <time>2018-12-12T13:11:46Z</time>
      </trkpt>
      <trkpt lat="48.73681" lon="2.50789">
        <ele>151.373</ele>
        <time>2018-12-12T13:11:48Z</time>
      </trkpt>
      <trkpt lat="48.73677" lon="2.50784">
        <ele>151.362</ele>
        <time>2018-12-12T13:11:51Z</time>
      </trkpt>
      <trkpt lat="48.73674" lon="2.50781">
        <ele>151.355</ele>
        <time>2018-12-12T13:11:53Z</time>
      </trkpt>
      <trkpt lat="48.73671" lon="2.50775">
        <ele>151.348</ele>
        <time>2018-12-12T13:11:56Z</time>
      </trkpt>
      <trkpt lat="48.73668" lon="2.50768">
        <ele>151.342</ele>
        <time>2018-12-12T13:12:00Z</time>
      </trkpt>
      <trkpt lat="48.73666" lon="2.50765">
        <ele>151.341</ele>
        <time>2018-12-12T13:12:02Z</time>
      </trkpt>
      <trkpt lat="48.73664" lon="2.50756">
        <ele>151.339</ele>
        <time>2018-12-12T13:12:08Z</time>
      </trkpt>
      <trkpt lat="48.73663" lon="2.50748">
        <ele>151.338</ele>
        <time>2018-12-12T13:12:11Z</time>
      </trkpt>
      <trkpt lat="48.73662" lon="2.5074">
        <ele>151.337</ele>
        <time>2018-12-12T13:12:14Z</time>
      </trkpt>
      <trkpt lat="48.73661" lon="2.50735">
        <ele>151.337</ele>
        <time>2018-12-12T13:12:16Z</time>
      </trkpt>
      <trkpt lat="48.7366" lon="2.50731">
        <ele>151.333</ele>
        <time>2018-12-12T13:12:19Z</time>
      </trkpt>
      <trkpt lat="48.7366" lon="2.50726">
        <ele>151.33</ele>
        <time>2018-12-12T13:12:21Z</time>
      </trkpt>
      <trkpt lat="48.73657" lon="2.50721">
        <ele>151.323</ele>
        <time>2018-12-12T13:12:25Z</time>
      </trkpt>
      <trkpt lat="48.73655" lon="2.50714">
        <ele>151.316</ele>
        <time>2018-12-12T13:12:29Z</time>
      </trkpt>
      <trkpt lat="48.73653" lon="2.50707">
        <ele>151.307</ele>
        <time>2018-12-12T13:12:34Z</time>
      </trkpt>
      <trkpt lat="48.73653" lon="2.50703">
        <ele>151.299</ele>
        <time>2018-12-12T13:12:37Z</time>
      </trkpt>
      <trkpt lat="48.73652" lon="2.507">
        <ele>151.291</ele>
        <time>2018-12-12T13:12:39Z</time>
      </trkpt>
      <trkpt lat="48.73651" lon="2.50696">
        <ele>151.283</ele>
        <time>2018-12-12T13:12:41Z</time>
      </trkpt>
      <trkpt lat="48.73649" lon="2.5069">
        <ele>151.261</ele>
        <time>2018-12-12T13:12:46Z</time>
      </trkpt>
      <trkpt lat="48.73648" lon="2.50682">
        <ele>151.238</ele>
        <time>2018-12-12T13:12:50Z</time>
      </trkpt>
      <trkpt lat="48.73647" lon="2.50675">
        <ele>151.207</ele>
        <time>2018-12-12T13:12:54Z</time>
      </trkpt>
      <trkpt lat="48.73648" lon="2.50667">
        <ele>151.153</ele>
        <time>2018-12-12T13:12:59Z</time>
      </trkpt>
      <trkpt lat="48.73649" lon="2.50664">
        <ele>151.128</ele>
        <time>2018-12-12T13:13:01Z</time>
      </trkpt>
      <trkpt lat="48.7365" lon="2.50659">
        <ele>151.09</ele>
        <time>2018-12-12T13:13:04Z</time>
      </trkpt>
      <trkpt lat="48.73654" lon="2.50653">
        <ele>151.039</ele>
        <time>2018-12-12T13:13:08Z</time>
      </trkpt>
      <trkpt lat="48.73655" lon="2.50645">
        <ele>150.988</ele>
        <time>2018-12-12T13:13:12Z</time>
      </trkpt>
      <trkpt lat="48.73658" lon="2.50638">
        <ele>150.926</ele>
        <time>2018-12-12T13:13:17Z</time>
      </trkpt>
      <trkpt lat="48.7366" lon="2.50634">
        <ele>150.89</ele>
        <time>2018-12-12T13:13:20Z</time>
      </trkpt>
      <trkpt lat="48.73662" lon="2.5063">
        <ele>150.868</ele>
        <time>2018-12-12T13:13:22Z</time>
      </trkpt>
      <trkpt lat="48.73663" lon="2.50622">
        <ele>150.835</ele>
        <time>2018-12-12T13:13:25Z</time>
      </trkpt>
      <trkpt lat="48.73662" lon="2.50613">
        <ele>150.805</ele>
        <time>2018-12-12T13:13:28Z</time>
      </trkpt>
      <trkpt lat="48.73662" lon="2.50605">
        <ele>150.767</ele>
        <time>2018-12-12T13:13:32Z</time>
      </trkpt>
      <trkpt lat="48.73663" lon="2.50596">
        <ele>150.736</ele>
        <time>2018-12-12T13:13:36Z</time>
      </trkpt>
      <trkpt lat="48.73664" lon="2.50591">
        <ele>150.724</ele>
        <time>2018-12-12T13:13:38Z</time>
      </trkpt>
      <trkpt lat="48.73664" lon="2.50585">
        <ele>150.709</ele>
        <time>2018-12-12T13:13:41Z</time>
      </trkpt>
      <trkpt lat="48.73665" lon="2.5058">
        <ele>150.702</ele>
        <time>2018-12-12T13:13:43Z</time>
      </trkpt>
      <trkpt lat="48.73667" lon="2.50573">
        <ele>150.69</ele>
        <time>2018-12-12T13:13:48Z</time>
      </trkpt>
      <trkpt lat="48.73668" lon="2.50569">
        <ele>150.686</ele>
        <time>2018-12-12T13:13:51Z</time>
      </trkpt>
      <trkpt lat="48.73669" lon="2.50563">
        <ele>150.683</ele>
        <time>2018-12-12T13:13:54Z</time>
      </trkpt>
      <trkpt lat="48.73669" lon="2.50556">
        <ele>150.681</ele>
        <time>2018-12-12T13:13:57Z</time>
      </trkpt>
      <trkpt lat="48.73669" lon="2.50552">
        <ele>150.681</ele>
        <time>2018-12-12T13:13:59Z</time>
      </trkpt>
      <trkpt lat="48.7367" lon="2.50545">
        <ele>150.684</ele>
        <time>2018-12-12T13:14:02Z</time>
      </trkpt>
      <trkpt lat="48.7367" lon="2.50539">
        <ele>150.691</ele>
        <time>2018-12-12T13:14:05Z</time>
      </trkpt>
      <trkpt lat="48.73672" lon="2.50532">
        <ele>150.7</ele>
        <time>2018-12-12T13:14:09Z</time>
      </trkpt>
      <trkpt lat="48.73673" lon="2.50528">
        <ele>150.706</ele>
        <time>2018-12-12T13:14:11Z</time>
      </trkpt>
      <trkpt lat="48.73676" lon="2.50522">
        <ele>150.718</ele>
        <time>2018-12-12T13:14:15Z</time>
      </trkpt>
      <trkpt lat="48.73678" lon="2.50519">
        <ele>150.726</ele>
        <time>2018-12-12T13:14:17Z</time>
      </trkpt>
      <trkpt lat="48.7368" lon="2.50515">
        <ele>150.732</ele>
        <time>2018-12-12T13:14:19Z</time>
      </trkpt>
      <trkpt lat="48.73682" lon="2.50512">
        <ele>150.736</ele>
        <time>2018-12-12T13:14:20Z</time>
      </trkpt>
      <trkpt lat="48.73686" lon="2.50505">
        <ele>150.745</ele>
        <time>2018-12-12T13:14:23Z</time>
      </trkpt>
      <trkpt lat="48.73688" lon="2.50502">
        <ele>150.751</ele>
        <time>2018-12-12T13:14:25Z</time>
      </trkpt>
      <trkpt lat="48.73691" lon="2.50496">
        <ele>150.762</ele>
        <time>2018-12-12T13:14:28Z</time>
      </trkpt>
      <trkpt lat="48.73693" lon="2.50489">
        <ele>150.781</ele>
        <time>2018-12-12T13:14:32Z</time>
      </trkpt>
      <trkpt lat="48.73695" lon="2.50483">
        <ele>150.801</ele>
        <time>2018-12-12T13:14:36Z</time>
      </trkpt>
      <trkpt lat="48.73696" lon="2.50476">
        <ele>150.824</ele>
        <time>2018-12-12T13:14:40Z</time>
      </trkpt>
      <trkpt lat="48.73697" lon="2.50469">
        <ele>150.848</ele>
        <time>2018-12-12T13:14:44Z</time>
      </trkpt>
      <trkpt lat="48.73701" lon="2.50462">
        <ele>150.881</ele>
        <time>2018-12-12T13:14:49Z</time>
      </trkpt>
      <trkpt lat="48.73703" lon="2.50456">
        <ele>150.909</ele>
        <time>2018-12-12T13:14:53Z</time>
      </trkpt>
      <trkpt lat="48.73705" lon="2.50448">
        <ele>150.937</ele>
        <time>2018-12-12T13:14:57Z</time>
      </trkpt>
      <trkpt lat="48.73706" lon="2.50444">
        <ele>150.951</ele>
        <time>2018-12-12T13:14:59Z</time>
      </trkpt>
      <trkpt lat="48.7371" lon="2.50438">
        <ele>150.971</ele>
        <time>2018-12-12T13:15:02Z</time>
      </trkpt>
      <trkpt lat="48.73711" lon="2.5043">
        <ele>150.993</ele>
        <time>2018-12-12T13:15:05Z</time>
      </trkpt>
      <trkpt lat="48.73711" lon="2.50422">
        <ele>151.024</ele>
        <time>2018-12-12T13:15:09Z</time>
      </trkpt>
      <trkpt lat="48.73713" lon="2.50415">
        <ele>151.071</ele>
        <time>2018-12-12T13:15:14Z</time>
      </trkpt>
      <trkpt lat="48.73716" lon="2.50409">
        <ele>151.107</ele>
        <time>2018-12-12T13:15:18Z</time>
      </trkpt>
      <trkpt lat="48.73717" lon="2.50405">
        <ele>151.125</ele>
        <time>2018-12-12T13:15:20Z</time>
      </trkpt>
      <trkpt lat="48.7372" lon="2.50397">
        <ele>151.163</ele>
        <time>2018-12-12T13:15:24Z</time>
      </trkpt>
      <trkpt lat="48.73722" lon="2.50392">
        <ele>151.19</ele>
        <time>2018-12-12T13:15:27Z</time>
      </trkpt>
      <trkpt lat="48.73726" lon="2.50387">
        <ele>151.216</ele>
        <time>2018-12-12T13:15:30Z</time>
      </trkpt>
      <trkpt lat="48.73729" lon="2.5038">
        <ele>151.255</ele>
        <time>2018-12-12T13:15:34Z</time>
      </trkpt>
      <trkpt lat="48.73731" lon="2.50376">
        <ele>151.273</ele>
        <time>2018-12-12T13:15:36Z</time>
      </trkpt>
      <trkpt lat="48.73732" lon="2.50367">
        <ele>151.308</ele>
        <time>2018-12-12T13:15:40Z</time>
      </trkpt>
      <trkpt lat="48.73734" lon="2.50359">
        <ele>151.344</ele>
        <time>2018-12-12T13:15:44Z</time>
      </trkpt>
      <trkpt lat="48.73735" lon="2.50356">
        <ele>151.362</ele>
        <time>2018-12-12T13:15:46Z</time>
      </trkpt>
      <trkpt lat="48.73735" lon="2.50348">
        <ele>151.397</ele>
        <time>2018-12-12T13:15:50Z</time>
      </trkpt>
      <trkpt lat="48.73738" lon="2.50341">
        <ele>151.43</ele>
        <time>2018-12-12T13:15:54Z</time>
      </trkpt>
      <trkpt lat="48.73739" lon="2.50334">
        <ele>151.455</ele>
        <time>2018-12-12T13:15:57Z</time>
      </trkpt>
      <trkpt lat="48.73743" lon="2.50328">
        <ele>151.485</ele>
        <time>2018-12-12T13:16:01Z</time>
      </trkpt>
      <trkpt lat="48.73743" lon="2.5032">
        <ele>151.514</ele>
        <time>2018-12-12T13:16:05Z</time>
      </trkpt>
      <trkpt lat="48.73743" lon="2.50316">
        <ele>151.526</ele>
        <time>2018-12-12T13:16:07Z</time>
      </trkpt>
      <trkpt lat="48.73745" lon="2.5031">
        <ele>151.55</ele>
        <time>2018-12-12T13:16:11Z</time>
      </trkpt>
      <trkpt lat="48.73745" lon="2.50301">
        <ele>151.571</ele>
        <time>2018-12-12T13:16:15Z</time>
      </trkpt>
      <trkpt lat="48.73744" lon="2.50294">
        <ele>151.589</ele>
        <time>2018-12-12T13:16:19Z</time>
      </trkpt>
      <trkpt lat="48.7374" lon="2.50287">
        <ele>151.606</ele>
        <time>2018-12-12T13:16:23Z</time>
      </trkpt>
      <trkpt lat="48.73736" lon="2.50283">
        <ele>151.623</ele>
        <time>2018-12-12T13:16:27Z</time>
      </trkpt>
      <trkpt lat="48.73731" lon="2.50285">
        <ele>151.638</ele>
        <time>2018-12-12T13:16:31Z</time>
      </trkpt>
      <trkpt lat="48.73727" lon="2.50287">
        <ele>151.651</ele>
        <time>2018-12-12T13:16:36Z</time>
      </trkpt>
      <trkpt lat="48.73721" lon="2.50289">
        <ele>151.66</ele>
        <time>2018-12-12T13:16:40Z</time>
      </trkpt>
      <trkpt lat="48.73715" lon="2.50288">
        <ele>151.66</ele>
        <time>2018-12-12T13:16:45Z</time>
      </trkpt>
      <trkpt lat="48.73708" lon="2.5029">
        <ele>151.654</ele>
        <time>2018-12-12T13:16:50Z</time>
      </trkpt>
      <trkpt lat="48.73705" lon="2.5029">
        <ele>151.65</ele>
        <time>2018-12-12T13:16:52Z</time>
      </trkpt>
      <trkpt lat="48.73699" lon="2.50291">
        <ele>151.639</ele>
        <time>2018-12-12T13:16:56Z</time>
      </trkpt>
      <trkpt lat="48.73697" lon="2.50291">
        <ele>151.631</ele>
        <time>2018-12-12T13:16:59Z</time>
      </trkpt>
      <trkpt lat="48.73694" lon="2.50284">
        <ele>151.62</ele>
        <time>2018-12-12T13:17:04Z</time>
      </trkpt>
      <trkpt lat="48.73687" lon="2.50285">
        <ele>151.613</ele>
        <time>2018-12-12T13:17:08Z</time>
      </trkpt>
      <trkpt lat="48.73682" lon="2.50285">
        <ele>151.607</ele>
        <time>2018-12-12T13:17:11Z</time>
      </trkpt>
      <trkpt lat="48.73676" lon="2.50286">
        <ele>151.602</ele>
        <time>2018-12-12T13:17:15Z</time>
      </trkpt>
      <trkpt lat="48.73672" lon="2.50287">
        <ele>151.598</ele>
        <time>2018-12-12T13:17:18Z</time>
      </trkpt>
      <trkpt lat="48.73668" lon="2.50288">
        <ele>151.596</ele>
        <time>2018-12-12T13:17:20Z</time>
      </trkpt>
      <trkpt lat="48.73666" lon="2.50289">
        <ele>151.593</ele>
        <time>2018-12-12T13:17:22Z</time>
      </trkpt>
      <trkpt lat="48.73663" lon="2.5029">
        <ele>151.592</ele>
        <time>2018-12-12T13:17:25Z</time>
      </trkpt>
      <trkpt lat="48.73658" lon="2.5029">
        <ele>151.589</ele>
        <time>2018-12-12T13:17:30Z</time>
      </trkpt>
      <trkpt lat="48.73652" lon="2.50289">
        <ele>151.588</ele>
        <time>2018-12-12T13:17:34Z</time>
      </trkpt>
      <trkpt lat="48.73648" lon="2.50287">
        <ele>151.589</ele>
        <time>2018-12-12T13:17:39Z</time>
      </trkpt>
      <trkpt lat="48.73642" lon="2.50287">
        <ele>151.588</ele>
        <time>2018-12-12T13:17:44Z</time>
      </trkpt>
      <trkpt lat="48.73638" lon="2.50288">
        <ele>151.588</ele>
        <time>2018-12-12T13:17:46Z</time>
      </trkpt>
      <trkpt lat="48.73632" lon="2.50289">
        <ele>151.588</ele>
        <time>2018-12-12T13:17:50Z</time>
      </trkpt>
      <trkpt lat="48.73627" lon="2.50289">
        <ele>151.587</ele>
        <time>2018-12-12T13:17:54Z</time>
      </trkpt>
      <trkpt lat="48.73624" lon="2.5029">
        <ele>151.586</ele>
        <time>2018-12-12T13:17:56Z</time>
      </trkpt>
      <trkpt lat="48.73618" lon="2.50289">
        <ele>151.585</ele>
        <time>2018-12-12T13:18:00Z</time>
      </trkpt>
      <trkpt lat="48.73613" lon="2.50288">
        <ele>151.585</ele>
        <time>2018-12-12T13:18:05Z</time>
      </trkpt>
      <trkpt lat="48.73608" lon="2.50289">
        <ele>151.586</ele>
        <time>2018-12-12T13:18:10Z</time>
      </trkpt>
      <trkpt lat="48.73605" lon="2.50289">
        <ele>151.587</ele>
        <time>2018-12-12T13:18:14Z</time>
      </trkpt>
      <trkpt lat="48.736" lon="2.50291">
        <ele>151.588</ele>
        <time>2018-12-12T13:18:18Z</time>
      </trkpt>
      <trkpt lat="48.73596" lon="2.50293">
        <ele>151.589</ele>
        <time>2018-12-12T13:18:21Z</time>
      </trkpt>
      <trkpt lat="48.73591" lon="2.50293">
        <ele>151.591</ele>
        <time>2018-12-12T13:18:24Z</time>
      </trkpt>
      <trkpt lat="48.73588" lon="2.50294">
        <ele>151.591</ele>
        <time>2018-12-12T13:18:25Z</time>
      </trkpt>
      <trkpt lat="48.73583" lon="2.50293">
        <ele>151.595</ele>
        <time>2018-12-12T13:18:29Z</time>
      </trkpt>
      <trkpt lat="48.73579" lon="2.50292">
        <ele>151.597</ele>
        <time>2018-12-12T13:18:32Z</time>
      </trkpt>
      <trkpt lat="48.73576" lon="2.50292">
        <ele>151.6</ele>
        <time>2018-12-12T13:18:35Z</time>
      </trkpt>
      <trkpt lat="48.73571" lon="2.50293">
        <ele>151.604</ele>
        <time>2018-12-12T13:18:38Z</time>
      </trkpt>
      <trkpt lat="48.73566" lon="2.50296">
        <ele>151.608</ele>
        <time>2018-12-12T13:18:42Z</time>
      </trkpt>
      <trkpt lat="48.73561" lon="2.50296">
        <ele>151.612</ele>
        <time>2018-12-12T13:18:46Z</time>
      </trkpt>
      <trkpt lat="48.73557" lon="2.50296">
        <ele>151.616</ele>
        <time>2018-12-12T13:18:50Z</time>
      </trkpt>
      <trkpt lat="48.73552" lon="2.50298">
        <ele>151.619</ele>
        <time>2018-12-12T13:18:54Z</time>
      </trkpt>
      <trkpt lat="48.73549" lon="2.50299">
        <ele>151.619</ele>
        <time>2018-12-12T13:18:56Z</time>
      </trkpt>
      <trkpt lat="48.73545" lon="2.50296">
        <ele>151.619</ele>
        <time>2018-12-12T13:19:00Z</time>
      </trkpt>
      <trkpt lat="48.73542" lon="2.50295">
        <ele>151.619</ele>
        <time>2018-12-12T13:19:02Z</time>
      </trkpt>
      <trkpt lat="48.73537" lon="2.50295">
        <ele>151.618</ele>
        <time>2018-12-12T13:19:07Z</time>
      </trkpt>
      <trkpt lat="48.73532" lon="2.50296">
        <ele>151.617</ele>
        <time>2018-12-12T13:19:10Z</time>
      </trkpt>
      <trkpt lat="48.73528" lon="2.50295">
        <ele>151.617</ele>
        <time>2018-12-12T13:19:13Z</time>
      </trkpt>
      <trkpt lat="48.73525" lon="2.50294">
        <ele>151.617</ele>
        <time>2018-12-12T13:19:15Z</time>
      </trkpt>
      <trkpt lat="48.7352" lon="2.50295">
        <ele>151.615</ele>
        <time>2018-12-12T13:19:20Z</time>
      </trkpt>
      <trkpt lat="48.73516" lon="2.50295">
        <ele>151.613</ele>
        <time>2018-12-12T13:19:23Z</time>
      </trkpt>
      <trkpt lat="48.7351" lon="2.50295">
        <ele>151.611</ele>
        <time>2018-12-12T13:19:27Z</time>
      </trkpt>
      <trkpt lat="48.73503" lon="2.50295">
        <ele>151.606</ele>
        <time>2018-12-12T13:19:31Z</time>
      </trkpt>
      <trkpt lat="48.73499" lon="2.50296">
        <ele>151.603</ele>
        <time>2018-12-12T13:19:35Z</time>
      </trkpt>
      <trkpt lat="48.73494" lon="2.50294">
        <ele>151.601</ele>
        <time>2018-12-12T13:19:39Z</time>
      </trkpt>
      <trkpt lat="48.73489" lon="2.50297">
        <ele>151.599</ele>
        <time>2018-12-12T13:19:43Z</time>
      </trkpt>
      <trkpt lat="48.73486" lon="2.50299">
        <ele>151.596</ele>
        <time>2018-12-12T13:19:46Z</time>
      </trkpt>
      <trkpt lat="48.7348" lon="2.50299">
        <ele>151.593</ele>
        <time>2018-12-12T13:19:51Z</time>
      </trkpt>
      <trkpt lat="48.73475" lon="2.503">
        <ele>151.591</ele>
        <time>2018-12-12T13:19:55Z</time>
      </trkpt>
      <trkpt lat="48.73471" lon="2.50301">
        <ele>151.583</ele>
        <time>2018-12-12T13:20:01Z</time>
      </trkpt>
      <trkpt lat="48.73465" lon="2.50302">
        <ele>151.576</ele>
        <time>2018-12-12T13:20:05Z</time>
      </trkpt>
      <trkpt lat="48.7346" lon="2.50301">
        <ele>151.568</ele>
        <time>2018-12-12T13:20:10Z</time>
      </trkpt>
      <trkpt lat="48.73455" lon="2.50301">
        <ele>151.561</ele>
        <time>2018-12-12T13:20:15Z</time>
      </trkpt>
      <trkpt lat="48.7345" lon="2.50303">
        <ele>151.557</ele>
        <time>2018-12-12T13:20:18Z</time>
      </trkpt>
      <trkpt lat="48.73447" lon="2.50304">
        <ele>151.554</ele>
        <time>2018-12-12T13:20:20Z</time>
      </trkpt>
      <trkpt lat="48.73444" lon="2.50304">
        <ele>151.55</ele>
        <time>2018-12-12T13:20:22Z</time>
      </trkpt>
      <trkpt lat="48.73439" lon="2.50307">
        <ele>151.543</ele>
        <time>2018-12-12T13:20:25Z</time>
      </trkpt>
      <trkpt lat="48.73433" lon="2.50306">
        <ele>151.533</ele>
        <time>2018-12-12T13:20:29Z</time>
      </trkpt>
      <trkpt lat="48.73428" lon="2.50306">
        <ele>151.52</ele>
        <time>2018-12-12T13:20:34Z</time>
      </trkpt>
      <trkpt lat="48.73423" lon="2.50308">
        <ele>151.51</ele>
        <time>2018-12-12T13:20:38Z</time>
      </trkpt>
      <trkpt lat="48.7342" lon="2.50309">
        <ele>151.501</ele>
        <time>2018-12-12T13:20:42Z</time>
      </trkpt>
      <trkpt lat="48.73417" lon="2.50311">
        <ele>151.495</ele>
        <time>2018-12-12T13:20:44Z</time>
      </trkpt>
      <trkpt lat="48.73411" lon="2.50311">
        <ele>151.481</ele>
        <time>2018-12-12T13:20:49Z</time>
      </trkpt>
      <trkpt lat="48.73408" lon="2.50311">
        <ele>151.467</ele>
        <time>2018-12-12T13:20:53Z</time>
      </trkpt>
      <trkpt lat="48.73404" lon="2.5031">
        <ele>151.448</ele>
        <time>2018-12-12T13:20:58Z</time>
      </trkpt>
      <trkpt lat="48.73398" lon="2.50313">
        <ele>151.432</ele>
        <time>2018-12-12T13:21:02Z</time>
      </trkpt>
      <trkpt lat="48.73395" lon="2.50314">
        <ele>151.419</ele>
        <time>2018-12-12T13:21:05Z</time>
      </trkpt>
      <trkpt lat="48.73391" lon="2.50315">
        <ele>151.405</ele>
        <time>2018-12-12T13:21:09Z</time>
      </trkpt>
      <trkpt lat="48.73388" lon="2.50316">
        <ele>151.395</ele>
        <time>2018-12-12T13:21:12Z</time>
      </trkpt>
      <trkpt lat="48.73383" lon="2.50315">
        <ele>151.385</ele>
        <time>2018-12-12T13:21:16Z</time>
      </trkpt>
      <trkpt lat="48.73379" lon="2.50314">
        <ele>151.381</ele>
        <time>2018-12-12T13:21:19Z</time>
      </trkpt>
      <trkpt lat="48.73375" lon="2.50315">
        <ele>151.378</ele>
        <time>2018-12-12T13:21:22Z</time>
      </trkpt>
      <trkpt lat="48.73371" lon="2.50316">
        <ele>151.374</ele>
        <time>2018-12-12T13:21:24Z</time>
      </trkpt>
      <trkpt lat="48.73369" lon="2.50317">
        <ele>151.371</ele>
        <time>2018-12-12T13:21:26Z</time>
      </trkpt>
      <trkpt lat="48.73364" lon="2.50319">
        <ele>151.374</ele>
        <time>2018-12-12T13:21:32Z</time>
      </trkpt>
      <trkpt lat="48.7336" lon="2.50319">
        <ele>151.388</ele>
        <time>2018-12-12T13:21:36Z</time>
      </trkpt>
      <trkpt lat="48.73355" lon="2.50318">
        <ele>151.405</ele>
        <time>2018-12-12T13:21:41Z</time>
      </trkpt>
      <trkpt lat="48.73348" lon="2.50315">
        <ele>151.407</ele>
        <time>2018-12-12T13:21:46Z</time>
      </trkpt>
      <trkpt lat="48.73342" lon="2.50314">
        <ele>151.401</ele>
        <time>2018-12-12T13:21:49Z</time>
      </trkpt>
      <trkpt lat="48.73335" lon="2.50312">
        <ele>151.383</ele>
        <time>2018-12-12T13:21:54Z</time>
      </trkpt>
      <trkpt lat="48.73331" lon="2.50313">
        <ele>151.365</ele>
        <time>2018-12-12T13:21:58Z</time>
      </trkpt>
      <trkpt lat="48.73326" lon="2.50313">
        <ele>151.34</ele>
        <time>2018-12-12T13:22:03Z</time>
      </trkpt>
      <trkpt lat="48.7332" lon="2.50314">
        <ele>151.321</ele>
        <time>2018-12-12T13:22:07Z</time>
      </trkpt>
      <trkpt lat="48.73315" lon="2.50314">
        <ele>151.306</ele>
        <time>2018-12-12T13:22:10Z</time>
      </trkpt>
      <trkpt lat="48.73309" lon="2.50313">
        <ele>151.282</ele>
        <time>2018-12-12T13:22:14Z</time>
      </trkpt>
      <trkpt lat="48.73304" lon="2.50313">
        <ele>151.245</ele>
        <time>2018-12-12T13:22:19Z</time>
      </trkpt>
      <trkpt lat="48.73299" lon="2.50315">
        <ele>151.189</ele>
        <time>2018-12-12T13:22:26Z</time>
      </trkpt>
      <trkpt lat="48.73294" lon="2.50312">
        <ele>151.148</ele>
        <time>2018-12-12T13:22:32Z</time>
      </trkpt>
      <trkpt lat="48.73288" lon="2.50312">
        <ele>151.124</ele>
        <time>2018-12-12T13:22:36Z</time>
      </trkpt>
      <trkpt lat="48.73286" lon="2.50312">
        <ele>151.113</ele>
        <time>2018-12-12T13:22:38Z</time>
      </trkpt>
      <trkpt lat="48.73281" lon="2.50312">
        <ele>151.093</ele>
        <time>2018-12-12T13:22:42Z</time>
      </trkpt>
      <trkpt lat="48.73276" lon="2.50313">
        <ele>151.07</ele>
        <time>2018-12-12T13:22:47Z</time>
      </trkpt>
      <trkpt lat="48.73273" lon="2.50314">
        <ele>151.06</ele>
        <time>2018-12-12T13:22:49Z</time>
      </trkpt>
      <trkpt lat="48.7327" lon="2.50315">
        <ele>151.051</ele>
        <time>2018-12-12T13:22:51Z</time>
      </trkpt>
      <trkpt lat="48.73265" lon="2.50315">
        <ele>151.033</ele>
        <time>2018-12-12T13:22:55Z</time>
      </trkpt>
      <trkpt lat="48.73259" lon="2.50317">
        <ele>151.02</ele>
        <time>2018-12-12T13:22:58Z</time>
      </trkpt>
      <trkpt lat="48.73256" lon="2.50318">
        <ele>151.012</ele>
        <time>2018-12-12T13:23:00Z</time>
      </trkpt>
      <trkpt lat="48.73251" lon="2.50319">
        <ele>150.999</ele>
        <time>2018-12-12T13:23:03Z</time>
      </trkpt>
      <trkpt lat="48.73248" lon="2.50319">
        <ele>150.991</ele>
        <time>2018-12-12T13:23:05Z</time>
      </trkpt>
      <trkpt lat="48.73244" lon="2.5032">
        <ele>150.978</ele>
        <time>2018-12-12T13:23:08Z</time>
      </trkpt>
      <trkpt lat="48.73242" lon="2.5032">
        <ele>150.97</ele>
        <time>2018-12-12T13:23:10Z</time>
      </trkpt>
      <trkpt lat="48.73236" lon="2.50321">
        <ele>150.954</ele>
        <time>2018-12-12T13:23:14Z</time>
      </trkpt>
      <trkpt lat="48.73234" lon="2.50321">
        <ele>150.943</ele>
        <time>2018-12-12T13:23:17Z</time>
      </trkpt>
      <trkpt lat="48.73229" lon="2.50321">
        <ele>150.931</ele>
        <time>2018-12-12T13:23:20Z</time>
      </trkpt>
      <trkpt lat="48.73227" lon="2.50321">
        <ele>150.921</ele>
        <time>2018-12-12T13:23:23Z</time>
      </trkpt>
      <trkpt lat="48.73222" lon="2.5032">
        <ele>150.91</ele>
        <time>2018-12-12T13:23:27Z</time>
      </trkpt>
      <trkpt lat="48.73215" lon="2.50322">
        <ele>150.895</ele>
        <time>2018-12-12T13:23:34Z</time>
      </trkpt>
      <trkpt lat="48.7321" lon="2.50322">
        <ele>150.891</ele>
        <time>2018-12-12T13:23:36Z</time>
      </trkpt>
      <trkpt lat="48.73207" lon="2.50323">
        <ele>150.887</ele>
        <time>2018-12-12T13:23:38Z</time>
      </trkpt>
      <trkpt lat="48.73202" lon="2.50323">
        <ele>150.881</ele>
        <time>2018-12-12T13:23:42Z</time>
      </trkpt>
      <trkpt lat="48.73196" lon="2.50322">
        <ele>150.876</ele>
        <time>2018-12-12T13:23:47Z</time>
      </trkpt>
      <trkpt lat="48.73191" lon="2.50323">
        <ele>150.873</ele>
        <time>2018-12-12T13:23:51Z</time>
      </trkpt>
      <trkpt lat="48.73188" lon="2.50324">
        <ele>150.871</ele>
        <time>2018-12-12T13:23:53Z</time>
      </trkpt>
      <trkpt lat="48.73183" lon="2.50324">
        <ele>150.864</ele>
        <time>2018-12-12T13:23:58Z</time>
      </trkpt>
      <trkpt lat="48.73178" lon="2.50325">
        <ele>150.858</ele>
        <time>2018-12-12T13:24:02Z</time>
      </trkpt>
      <trkpt lat="48.73172" lon="2.50326">
        <ele>150.853</ele>
        <time>2018-12-12T13:24:06Z</time>
      </trkpt>
      <trkpt lat="48.73167" lon="2.50325">
        <ele>150.849</ele>
        <time>2018-12-12T13:24:11Z</time>
      </trkpt>
      <trkpt lat="48.73163" lon="2.50325">
        <ele>150.846</ele>
        <time>2018-12-12T13:24:14Z</time>
      </trkpt>
      <trkpt lat="48.73159" lon="2.50326">
        <ele>150.843</ele>
        <time>2018-12-12T13:24:17Z</time>
      </trkpt>
      <trkpt lat="48.73153" lon="2.50326">
        <ele>150.838</ele>
        <time>2018-12-12T13:24:21Z</time>
      </trkpt>
      <trkpt lat="48.7315" lon="2.50326">
        <ele>150.835</ele>
        <time>2018-12-12T13:24:23Z</time>
      </trkpt>
      <trkpt lat="48.73145" lon="2.50328">
        <ele>150.83</ele>
        <time>2018-12-12T13:24:27Z</time>
      </trkpt>
      <trkpt lat="48.7314" lon="2.50328">
        <ele>150.824</ele>
        <time>2018-12-12T13:24:31Z</time>
      </trkpt>
      <trkpt lat="48.73134" lon="2.50326">
        <ele>150.819</ele>
        <time>2018-12-12T13:24:36Z</time>
      </trkpt>
      <trkpt lat="48.7313" lon="2.50328">
        <ele>150.816</ele>
        <time>2018-12-12T13:24:40Z</time>
      </trkpt>
      <trkpt lat="48.73126" lon="2.50332">
        <ele>150.813</ele>
        <time>2018-12-12T13:24:44Z</time>
      </trkpt>
      <trkpt lat="48.73121" lon="2.50333">
        <ele>150.812</ele>
        <time>2018-12-12T13:24:48Z</time>
      </trkpt>
      <trkpt lat="48.73116" lon="2.50332">
        <ele>150.811</ele>
        <time>2018-12-12T13:24:52Z</time>
      </trkpt>
      <trkpt lat="48.7311" lon="2.50333">
        <ele>150.81</ele>
        <time>2018-12-12T13:24:56Z</time>
      </trkpt>
      <trkpt lat="48.73106" lon="2.50332">
        <ele>150.808</ele>
        <time>2018-12-12T13:25:00Z</time>
      </trkpt>
      <trkpt lat="48.73099" lon="2.5033">
        <ele>150.807</ele>
        <time>2018-12-12T13:25:06Z</time>
      </trkpt>
      <trkpt lat="48.73097" lon="2.50329">
        <ele>150.807</ele>
        <time>2018-12-12T13:25:08Z</time>
      </trkpt>
      <trkpt lat="48.73092" lon="2.5033">
        <ele>150.806</ele>
        <time>2018-12-12T13:25:11Z</time>
      </trkpt>
      <trkpt lat="48.73088" lon="2.50334">
        <ele>150.803</ele>
        <time>2018-12-12T13:25:15Z</time>
      </trkpt>
      <trkpt lat="48.73083" lon="2.50336">
        <ele>150.796</ele>
        <time>2018-12-12T13:25:19Z</time>
      </trkpt>
      <trkpt lat="48.73077" lon="2.50337">
        <ele>150.787</ele>
        <time>2018-12-12T13:25:24Z</time>
      </trkpt>
      <trkpt lat="48.73073" lon="2.50336">
        <ele>150.781</ele>
        <time>2018-12-12T13:25:28Z</time>
      </trkpt>
      <trkpt lat="48.73068" lon="2.50335">
        <ele>150.771</ele>
        <time>2018-12-12T13:25:33Z</time>
      </trkpt>
      <trkpt lat="48.73065" lon="2.50335">
        <ele>150.766</ele>
        <time>2018-12-12T13:25:35Z</time>
      </trkpt>
      <trkpt lat="48.7306" lon="2.50335">
        <ele>150.758</ele>
        <time>2018-12-12T13:25:38Z</time>
      </trkpt>
      <trkpt lat="48.73058" lon="2.50336">
        <ele>150.751</ele>
        <time>2018-12-12T13:25:40Z</time>
      </trkpt>
      <trkpt lat="48.73056" lon="2.50336">
        <ele>150.733</ele>
        <time>2018-12-12T13:25:45Z</time>
      </trkpt>
      <trkpt lat="48.73051" lon="2.50334">
        <ele>150.708</ele>
        <time>2018-12-12T13:25:51Z</time>
      </trkpt>
      <trkpt lat="48.73051" lon="2.50334">
        <ele>150.708</ele>
        <time>2018-12-12T13:25:58Z</time>
      </trkpt>
      <trkpt lat="48.73051" lon="2.50334">
        <ele>92</ele>
        <time>2018-12-12T13:25:58Z</time>
      </trkpt>
      <trkpt lat="48.73051" lon="2.50334">
        <ele>92</ele>
        <time>2018-12-12T13:26:14Z</time>
      </trkpt>
      <trkpt lat="48.73038" lon="2.50345">
        <ele>150.613</ele>
        <time>2018-12-12T13:26:14Z</time>
      </trkpt>
      <trkpt lat="48.73035" lon="2.50345">
        <ele>150.588</ele>
        <time>2018-12-12T13:26:17Z</time>
      </trkpt>
      <trkpt lat="48.73031" lon="2.50344">
        <ele>150.557</ele>
        <time>2018-12-12T13:26:21Z</time>
      </trkpt>
      <trkpt lat="48.73027" lon="2.50343">
        <ele>150.534</ele>
        <time>2018-12-12T13:26:24Z</time>
      </trkpt>
      <trkpt lat="48.73024" lon="2.50342">
        <ele>150.513</ele>
        <time>2018-12-12T13:26:27Z</time>
      </trkpt>
      <trkpt lat="48.73021" lon="2.50342">
        <ele>150.5</ele>
        <time>2018-12-12T13:26:29Z</time>
      </trkpt>
      <trkpt lat="48.73018" lon="2.50342">
        <ele>150.483</ele>
        <time>2018-12-12T13:26:32Z</time>
      </trkpt>
      <trkpt lat="48.73014" lon="2.50341">
        <ele>150.466</ele>
        <time>2018-12-12T13:26:35Z</time>
      </trkpt>
      <trkpt lat="48.7301" lon="2.50339">
        <ele>150.451</ele>
        <time>2018-12-12T13:26:38Z</time>
      </trkpt>
      <trkpt lat="48.73005" lon="2.50338">
        <ele>150.431</ele>
        <time>2018-12-12T13:26:42Z</time>
      </trkpt>
      <trkpt lat="48.73" lon="2.50339">
        <ele>150.413</ele>
        <time>2018-12-12T13:26:46Z</time>
      </trkpt>
      <trkpt lat="48.72995" lon="2.50338">
        <ele>150.392</ele>
        <time>2018-12-12T13:26:51Z</time>
      </trkpt>
      <trkpt lat="48.72993" lon="2.50337">
        <ele>150.379</ele>
        <time>2018-12-12T13:26:54Z</time>
      </trkpt>
      <trkpt lat="48.72992" lon="2.50349">
        <ele>150.335</ele>
        <time>2018-12-12T13:27:02Z</time>
      </trkpt>
      <trkpt lat="48.72992" lon="2.50349">
        <ele>150.335</ele>
        <time>2018-12-12T13:27:10Z</time>
      </trkpt>
      <trkpt lat="48.72992" lon="2.50349">
        <ele>93</ele>
        <time>2018-12-12T13:27:10Z</time>
      </trkpt>
      <trkpt lat="48.72992" lon="2.50349">
        <ele>93</ele>
        <time>2018-12-12T13:28:06Z</time>
      </trkpt>
      <trkpt lat="48.72965" lon="2.50343">
        <ele>149.453</ele>
        <time>2018-12-12T13:28:06Z</time>
      </trkpt>
      <trkpt lat="48.7296" lon="2.50343">
        <ele>149.408</ele>
        <time>2018-12-12T13:28:09Z</time>
      </trkpt>
      <trkpt lat="48.72957" lon="2.50343">
        <ele>149.38</ele>
        <time>2018-12-12T13:28:11Z</time>
      </trkpt>
      <trkpt lat="48.72952" lon="2.50341">
        <ele>149.324</ele>
        <time>2018-12-12T13:28:16Z</time>
      </trkpt>
      <trkpt lat="48.72947" lon="2.50341">
        <ele>149.279</ele>
        <time>2018-12-12T13:28:21Z</time>
      </trkpt>
      <trkpt lat="48.72945" lon="2.50341">
        <ele>149.257</ele>
        <time>2018-12-12T13:28:24Z</time>
      </trkpt>
      <trkpt lat="48.72939" lon="2.50343">
        <ele>149.227</ele>
        <time>2018-12-12T13:28:29Z</time>
      </trkpt>
      <trkpt lat="48.72937" lon="2.50344">
        <ele>149.217</ele>
        <time>2018-12-12T13:28:31Z</time>
      </trkpt>
      <trkpt lat="48.72934" lon="2.50345">
        <ele>149.203</ele>
        <time>2018-12-12T13:28:34Z</time>
      </trkpt>
      <trkpt lat="48.72931" lon="2.50346">
        <ele>149.19</ele>
        <time>2018-12-12T13:28:37Z</time>
      </trkpt>
      <trkpt lat="48.72926" lon="2.50347">
        <ele>149.177</ele>
        <time>2018-12-12T13:28:41Z</time>
      </trkpt>
      <trkpt lat="48.72921" lon="2.50347">
        <ele>149.165</ele>
        <time>2018-12-12T13:28:46Z</time>
      </trkpt>
      <trkpt lat="48.72917" lon="2.50347">
        <ele>149.156</ele>
        <time>2018-12-12T13:28:50Z</time>
      </trkpt>
      <trkpt lat="48.72912" lon="2.50348">
        <ele>149.151</ele>
        <time>2018-12-12T13:28:53Z</time>
      </trkpt>
      <trkpt lat="48.72907" lon="2.50348">
        <ele>149.147</ele>
        <time>2018-12-12T13:28:56Z</time>
      </trkpt>
      <trkpt lat="48.72902" lon="2.5035">
        <ele>149.141</ele>
        <time>2018-12-12T13:29:02Z</time>
      </trkpt>
      <trkpt lat="48.72896" lon="2.50349">
        <ele>149.138</ele>
        <time>2018-12-12T13:29:08Z</time>
      </trkpt>
      <trkpt lat="48.72891" lon="2.5035">
        <ele>149.137</ele>
        <time>2018-12-12T13:29:11Z</time>
      </trkpt>
      <trkpt lat="48.72886" lon="2.50352">
        <ele>149.14</ele>
        <time>2018-12-12T13:29:16Z</time>
      </trkpt>
      <trkpt lat="48.72882" lon="2.5035">
        <ele>149.142</ele>
        <time>2018-12-12T13:29:19Z</time>
      </trkpt>
      <trkpt lat="48.72877" lon="2.5035">
        <ele>149.144</ele>
        <time>2018-12-12T13:29:22Z</time>
      </trkpt>
      <trkpt lat="48.72871" lon="2.50348">
        <ele>149.148</ele>
        <time>2018-12-12T13:29:26Z</time>
      </trkpt>
      <trkpt lat="48.72866" lon="2.50348">
        <ele>149.155</ele>
        <time>2018-12-12T13:29:30Z</time>
      </trkpt>
      <trkpt lat="48.72862" lon="2.50348">
        <ele>149.163</ele>
        <time>2018-12-12T13:29:34Z</time>
      </trkpt>
      <trkpt lat="48.72856" lon="2.50349">
        <ele>149.176</ele>
        <time>2018-12-12T13:29:39Z</time>
      </trkpt>
      <trkpt lat="48.72853" lon="2.5035">
        <ele>149.181</ele>
        <time>2018-12-12T13:29:41Z</time>
      </trkpt>
      <trkpt lat="48.7285" lon="2.50351">
        <ele>149.19</ele>
        <time>2018-12-12T13:29:44Z</time>
      </trkpt>
      <trkpt lat="48.72845" lon="2.50352">
        <ele>149.203</ele>
        <time>2018-12-12T13:29:48Z</time>
      </trkpt>
      <trkpt lat="48.7284" lon="2.50354">
        <ele>149.216</ele>
        <time>2018-12-12T13:29:52Z</time>
      </trkpt>
      <trkpt lat="48.72835" lon="2.50354">
        <ele>149.234</ele>
        <time>2018-12-12T13:29:58Z</time>
      </trkpt>
      <trkpt lat="48.72832" lon="2.50354">
        <ele>149.243</ele>
        <time>2018-12-12T13:30:01Z</time>
      </trkpt>
      <trkpt lat="48.72829" lon="2.50355">
        <ele>149.253</ele>
        <time>2018-12-12T13:30:04Z</time>
      </trkpt>
      <trkpt lat="48.72827" lon="2.50355">
        <ele>149.259</ele>
        <time>2018-12-12T13:30:06Z</time>
      </trkpt>
      <trkpt lat="48.72822" lon="2.50355">
        <ele>149.276</ele>
        <time>2018-12-12T13:30:11Z</time>
      </trkpt>
      <trkpt lat="48.72819" lon="2.50356">
        <ele>149.286</ele>
        <time>2018-12-12T13:30:14Z</time>
      </trkpt>
      <trkpt lat="48.72814" lon="2.50356">
        <ele>149.299</ele>
        <time>2018-12-12T13:30:18Z</time>
      </trkpt>
      <trkpt lat="48.72809" lon="2.50356">
        <ele>149.313</ele>
        <time>2018-12-12T13:30:22Z</time>
      </trkpt>
      <trkpt lat="48.72806" lon="2.50356">
        <ele>149.324</ele>
        <time>2018-12-12T13:30:25Z</time>
      </trkpt>
      <trkpt lat="48.728" lon="2.50357">
        <ele>149.342</ele>
        <time>2018-12-12T13:30:30Z</time>
      </trkpt>
      <trkpt lat="48.72798" lon="2.50358">
        <ele>149.35</ele>
        <time>2018-12-12T13:30:32Z</time>
      </trkpt>
      <trkpt lat="48.72792" lon="2.50358">
        <ele>149.367</ele>
        <time>2018-12-12T13:30:36Z</time>
      </trkpt>
      <trkpt lat="48.72788" lon="2.5036">
        <ele>149.385</ele>
        <time>2018-12-12T13:30:40Z</time>
      </trkpt>
      <trkpt lat="48.72783" lon="2.50359">
        <ele>149.405</ele>
        <time>2018-12-12T13:30:44Z</time>
      </trkpt>
      <trkpt lat="48.7278" lon="2.50359">
        <ele>149.414</ele>
        <time>2018-12-12T13:30:46Z</time>
      </trkpt>
      <trkpt lat="48.72776" lon="2.50359">
        <ele>149.429</ele>
        <time>2018-12-12T13:30:49Z</time>
      </trkpt>
      <trkpt lat="48.72772" lon="2.50359">
        <ele>149.448</ele>
        <time>2018-12-12T13:30:53Z</time>
      </trkpt>
      <trkpt lat="48.72766" lon="2.5036">
        <ele>149.473</ele>
        <time>2018-12-12T13:30:58Z</time>
      </trkpt>
      <trkpt lat="48.72761" lon="2.5036">
        <ele>149.499</ele>
        <time>2018-12-12T13:31:03Z</time>
      </trkpt>
      <trkpt lat="48.72756" lon="2.50361">
        <ele>149.52</ele>
        <time>2018-12-12T13:31:07Z</time>
      </trkpt>
      <trkpt lat="48.72752" lon="2.50362">
        <ele>149.536</ele>
        <time>2018-12-12T13:31:10Z</time>
      </trkpt>
      <trkpt lat="48.72749" lon="2.50362">
        <ele>149.548</ele>
        <time>2018-12-12T13:31:12Z</time>
      </trkpt>
      <trkpt lat="48.72744" lon="2.50364">
        <ele>149.579</ele>
        <time>2018-12-12T13:31:17Z</time>
      </trkpt>
      <trkpt lat="48.72741" lon="2.50364">
        <ele>149.6</ele>
        <time>2018-12-12T13:31:20Z</time>
      </trkpt>
      <trkpt lat="48.72735" lon="2.50366">
        <ele>149.627</ele>
        <time>2018-12-12T13:31:24Z</time>
      </trkpt>
      <trkpt lat="48.72732" lon="2.50367">
        <ele>149.64</ele>
        <time>2018-12-12T13:31:26Z</time>
      </trkpt>
      <trkpt lat="48.72727" lon="2.50366">
        <ele>149.664</ele>
        <time>2018-12-12T13:31:30Z</time>
      </trkpt>
      <trkpt lat="48.72724" lon="2.50366">
        <ele>149.676</ele>
        <time>2018-12-12T13:31:32Z</time>
      </trkpt>
      <trkpt lat="48.72721" lon="2.50365">
        <ele>149.706</ele>
        <time>2018-12-12T13:31:37Z</time>
      </trkpt>
      <trkpt lat="48.72717" lon="2.50366">
        <ele>149.745</ele>
        <time>2018-12-12T13:31:43Z</time>
      </trkpt>
      <trkpt lat="48.72712" lon="2.50369">
        <ele>149.772</ele>
        <time>2018-12-12T13:31:47Z</time>
      </trkpt>
      <trkpt lat="48.72708" lon="2.5037">
        <ele>149.792</ele>
        <time>2018-12-12T13:31:50Z</time>
      </trkpt>
      <trkpt lat="48.72703" lon="2.5037">
        <ele>149.818</ele>
        <time>2018-12-12T13:31:54Z</time>
      </trkpt>
      <trkpt lat="48.72698" lon="2.50373">
        <ele>149.843</ele>
        <time>2018-12-12T13:31:58Z</time>
      </trkpt>
      <trkpt lat="48.72693" lon="2.50372">
        <ele>149.871</ele>
        <time>2018-12-12T13:32:03Z</time>
      </trkpt>
      <trkpt lat="48.72687" lon="2.50373">
        <ele>149.893</ele>
        <time>2018-12-12T13:32:07Z</time>
      </trkpt>
      <trkpt lat="48.72685" lon="2.50373">
        <ele>149.903</ele>
        <time>2018-12-12T13:32:09Z</time>
      </trkpt>
      <trkpt lat="48.7268" lon="2.50372">
        <ele>149.918</ele>
        <time>2018-12-12T13:32:12Z</time>
      </trkpt>
      <trkpt lat="48.72675" lon="2.50373">
        <ele>149.933</ele>
        <time>2018-12-12T13:32:15Z</time>
      </trkpt>
      <trkpt lat="48.72672" lon="2.50373">
        <ele>149.943</ele>
        <time>2018-12-12T13:32:17Z</time>
      </trkpt>
      <trkpt lat="48.72667" lon="2.50371">
        <ele>149.968</ele>
        <time>2018-12-12T13:32:22Z</time>
      </trkpt>
      <trkpt lat="48.72662" lon="2.50372">
        <ele>149.994</ele>
        <time>2018-12-12T13:32:27Z</time>
      </trkpt>
      <trkpt lat="48.72656" lon="2.50374">
        <ele>150.016</ele>
        <time>2018-12-12T13:32:31Z</time>
      </trkpt>
      <trkpt lat="48.72651" lon="2.50374">
        <ele>150.034</ele>
        <time>2018-12-12T13:32:34Z</time>
      </trkpt>
      <trkpt lat="48.72646" lon="2.50375">
        <ele>150.06</ele>
        <time>2018-12-12T13:32:38Z</time>
      </trkpt>
      <trkpt lat="48.72643" lon="2.50375">
        <ele>150.074</ele>
        <time>2018-12-12T13:32:40Z</time>
      </trkpt>
      <trkpt lat="48.72638" lon="2.50375">
        <ele>150.103</ele>
        <time>2018-12-12T13:32:44Z</time>
      </trkpt>
      <trkpt lat="48.72633" lon="2.50377">
        <ele>150.14</ele>
        <time>2018-12-12T13:32:49Z</time>
      </trkpt>
      <trkpt lat="48.72628" lon="2.50381">
        <ele>150.173</ele>
        <time>2018-12-12T13:32:53Z</time>
      </trkpt>
      <trkpt lat="48.72624" lon="2.50386">
        <ele>150.203</ele>
        <time>2018-12-12T13:32:56Z</time>
      </trkpt>
      <trkpt lat="48.7262" lon="2.5039">
        <ele>150.272</ele>
        <time>2018-12-12T13:33:02Z</time>
      </trkpt>
      <trkpt lat="48.72615" lon="2.50389">
        <ele>150.323</ele>
        <time>2018-12-12T13:33:06Z</time>
      </trkpt>
      <trkpt lat="48.72611" lon="2.50388">
        <ele>150.349</ele>
        <time>2018-12-12T13:33:08Z</time>
      </trkpt>
      <trkpt lat="48.72607" lon="2.50386">
        <ele>150.387</ele>
        <time>2018-12-12T13:33:11Z</time>
      </trkpt>
      <trkpt lat="48.72603" lon="2.50382">
        <ele>150.423</ele>
        <time>2018-12-12T13:33:14Z</time>
      </trkpt>
      <trkpt lat="48.72601" lon="2.50376">
        <ele>150.482</ele>
        <time>2018-12-12T13:33:19Z</time>
      </trkpt>
      <trkpt lat="48.72599" lon="2.50373">
        <ele>150.517</ele>
        <time>2018-12-12T13:33:22Z</time>
      </trkpt>
      <trkpt lat="48.72597" lon="2.5037">
        <ele>150.555</ele>
        <time>2018-12-12T13:33:25Z</time>
      </trkpt>
      <trkpt lat="48.72596" lon="2.50366">
        <ele>150.585</ele>
        <time>2018-12-12T13:33:27Z</time>
      </trkpt>
      <trkpt lat="48.72595" lon="2.50363">
        <ele>150.621</ele>
        <time>2018-12-12T13:33:29Z</time>
      </trkpt>
      <trkpt lat="48.72592" lon="2.50356">
        <ele>150.731</ele>
        <time>2018-12-12T13:33:35Z</time>
      </trkpt>
      <trkpt lat="48.72591" lon="2.50352">
        <ele>150.774</ele>
        <time>2018-12-12T13:33:38Z</time>
      </trkpt>
      <trkpt lat="48.72589" lon="2.50344">
        <ele>150.81</ele>
        <time>2018-12-12T13:33:42Z</time>
      </trkpt>
      <trkpt lat="48.72586" lon="2.50338">
        <ele>150.834</ele>
        <time>2018-12-12T13:33:47Z</time>
      </trkpt>
      <trkpt lat="48.72583" lon="2.50332">
        <ele>150.846</ele>
        <time>2018-12-12T13:33:52Z</time>
      </trkpt>
      <trkpt lat="48.72581" lon="2.50323">
        <ele>150.853</ele>
        <time>2018-12-12T13:33:57Z</time>
      </trkpt>
      <trkpt lat="48.72578" lon="2.50317">
        <ele>150.856</ele>
        <time>2018-12-12T13:34:01Z</time>
      </trkpt>
      <trkpt lat="48.72576" lon="2.50312">
        <ele>150.855</ele>
        <time>2018-12-12T13:34:03Z</time>
      </trkpt>
      <trkpt lat="48.72573" lon="2.50306">
        <ele>150.856</ele>
        <time>2018-12-12T13:34:07Z</time>
      </trkpt>
      <trkpt lat="48.72572" lon="2.50303">
        <ele>150.86</ele>
        <time>2018-12-12T13:34:09Z</time>
      </trkpt>
      <trkpt lat="48.7257" lon="2.50298">
        <ele>150.866</ele>
        <time>2018-12-12T13:34:13Z</time>
      </trkpt>
      <trkpt lat="48.72568" lon="2.50294">
        <ele>150.866</ele>
        <time>2018-12-12T13:34:15Z</time>
      </trkpt>
      <trkpt lat="48.72567" lon="2.5029">
        <ele>150.859</ele>
        <time>2018-12-12T13:34:18Z</time>
      </trkpt>
      <trkpt lat="48.72565" lon="2.50283">
        <ele>150.843</ele>
        <time>2018-12-12T13:34:21Z</time>
      </trkpt>
      <trkpt lat="48.72562" lon="2.50275">
        <ele>150.819</ele>
        <time>2018-12-12T13:34:25Z</time>
      </trkpt>
      <trkpt lat="48.72559" lon="2.50271">
        <ele>150.8</ele>
        <time>2018-12-12T13:34:29Z</time>
      </trkpt>
      <trkpt lat="48.72557" lon="2.50264">
        <ele>150.784</ele>
        <time>2018-12-12T13:34:33Z</time>
      </trkpt>
      <trkpt lat="48.72554" lon="2.50259">
        <ele>150.772</ele>
        <time>2018-12-12T13:34:37Z</time>
      </trkpt>
      <trkpt lat="48.72551" lon="2.50251">
        <ele>150.763</ele>
        <time>2018-12-12T13:34:42Z</time>
      </trkpt>
      <trkpt lat="48.72549" lon="2.50247">
        <ele>150.763</ele>
        <time>2018-12-12T13:34:44Z</time>
      </trkpt>
      <trkpt lat="48.72546" lon="2.50242">
        <ele>150.771</ele>
        <time>2018-12-12T13:34:49Z</time>
      </trkpt>
      <trkpt lat="48.72544" lon="2.50239">
        <ele>150.78</ele>
        <time>2018-12-12T13:34:52Z</time>
      </trkpt>
      <trkpt lat="48.72543" lon="2.50236">
        <ele>150.782</ele>
        <time>2018-12-12T13:34:54Z</time>
      </trkpt>
      <trkpt lat="48.7254" lon="2.5023">
        <ele>150.782</ele>
        <time>2018-12-12T13:34:57Z</time>
      </trkpt>
      <trkpt lat="48.72538" lon="2.50227">
        <ele>150.783</ele>
        <time>2018-12-12T13:34:59Z</time>
      </trkpt>
      <trkpt lat="48.72535" lon="2.50221">
        <ele>150.785</ele>
        <time>2018-12-12T13:35:03Z</time>
      </trkpt>
      <trkpt lat="48.72534" lon="2.50217">
        <ele>150.785</ele>
        <time>2018-12-12T13:35:06Z</time>
      </trkpt>
      <trkpt lat="48.72532" lon="2.50211">
        <ele>150.782</ele>
        <time>2018-12-12T13:35:10Z</time>
      </trkpt>
      <trkpt lat="48.72531" lon="2.50207">
        <ele>150.78</ele>
        <time>2018-12-12T13:35:11Z</time>
      </trkpt>
      <trkpt lat="48.7253" lon="2.50203">
        <ele>150.773</ele>
        <time>2018-12-12T13:35:13Z</time>
      </trkpt>
      <trkpt lat="48.72527" lon="2.50195">
        <ele>150.751</ele>
        <time>2018-12-12T13:35:17Z</time>
      </trkpt>
      <trkpt lat="48.72525" lon="2.50188">
        <ele>150.726</ele>
        <time>2018-12-12T13:35:20Z</time>
      </trkpt>
      <trkpt lat="48.72522" lon="2.50181">
        <ele>150.696</ele>
        <time>2018-12-12T13:35:23Z</time>
      </trkpt>
      <trkpt lat="48.7252" lon="2.50174">
        <ele>150.652</ele>
        <time>2018-12-12T13:35:27Z</time>
      </trkpt>
      <trkpt lat="48.72517" lon="2.50168">
        <ele>150.603</ele>
        <time>2018-12-12T13:35:31Z</time>
      </trkpt>
      <trkpt lat="48.72516" lon="2.50164">
        <ele>150.576</ele>
        <time>2018-12-12T13:35:33Z</time>
      </trkpt>
      <trkpt lat="48.72514" lon="2.50158">
        <ele>150.519</ele>
        <time>2018-12-12T13:35:37Z</time>
      </trkpt>
      <trkpt lat="48.72513" lon="2.50153">
        <ele>150.48</ele>
        <time>2018-12-12T13:35:40Z</time>
      </trkpt>
      <trkpt lat="48.7251" lon="2.50147">
        <ele>150.437</ele>
        <time>2018-12-12T13:35:44Z</time>
      </trkpt>
      <trkpt lat="48.72507" lon="2.50142">
        <ele>150.401</ele>
        <time>2018-12-12T13:35:48Z</time>
      </trkpt>
      <trkpt lat="48.72505" lon="2.50139">
        <ele>150.384</ele>
        <time>2018-12-12T13:35:50Z</time>
      </trkpt>
      <trkpt lat="48.72504" lon="2.50137">
        <ele>150.362</ele>
        <time>2018-12-12T13:35:53Z</time>
      </trkpt>
      <trkpt lat="48.72502" lon="2.50133">
        <ele>150.35</ele>
        <time>2018-12-12T13:35:55Z</time>
      </trkpt>
      <trkpt lat="48.725" lon="2.50127">
        <ele>150.33</ele>
        <time>2018-12-12T13:35:58Z</time>
      </trkpt>
      <trkpt lat="48.72496" lon="2.50121">
        <ele>150.312</ele>
        <time>2018-12-12T13:36:01Z</time>
      </trkpt>
      <trkpt lat="48.72494" lon="2.50115">
        <ele>150.284</ele>
        <time>2018-12-12T13:36:06Z</time>
      </trkpt>
      <trkpt lat="48.72491" lon="2.5011">
        <ele>150.264</ele>
        <time>2018-12-12T13:36:10Z</time>
      </trkpt>
      <trkpt lat="48.72489" lon="2.50107">
        <ele>150.256</ele>
        <time>2018-12-12T13:36:12Z</time>
      </trkpt>
      <trkpt lat="48.72487" lon="2.50099">
        <ele>150.242</ele>
        <time>2018-12-12T13:36:17Z</time>
      </trkpt>
      <trkpt lat="48.72484" lon="2.50092">
        <ele>150.235</ele>
        <time>2018-12-12T13:36:21Z</time>
      </trkpt>
      <trkpt lat="48.72482" lon="2.50085">
        <ele>150.234</ele>
        <time>2018-12-12T13:36:25Z</time>
      </trkpt>
      <trkpt lat="48.7248" lon="2.50079">
        <ele>150.237</ele>
        <time>2018-12-12T13:36:28Z</time>
      </trkpt>
      <trkpt lat="48.72478" lon="2.5007">
        <ele>150.253</ele>
        <time>2018-12-12T13:36:33Z</time>
      </trkpt>
      <trkpt lat="48.72477" lon="2.50064">
        <ele>150.271</ele>
        <time>2018-12-12T13:36:37Z</time>
      </trkpt>
      <trkpt lat="48.72474" lon="2.50058">
        <ele>150.289</ele>
        <time>2018-12-12T13:36:41Z</time>
      </trkpt>
      <trkpt lat="48.72473" lon="2.50056">
        <ele>150.297</ele>
        <time>2018-12-12T13:36:43Z</time>
      </trkpt>
      <trkpt lat="48.7247" lon="2.50052">
        <ele>150.308</ele>
        <time>2018-12-12T13:36:46Z</time>
      </trkpt>
      <trkpt lat="48.72467" lon="2.50046">
        <ele>150.322</ele>
        <time>2018-12-12T13:36:49Z</time>
      </trkpt>
      <trkpt lat="48.72466" lon="2.50043">
        <ele>150.332</ele>
        <time>2018-12-12T13:36:51Z</time>
      </trkpt>
      <trkpt lat="48.72462" lon="2.50037">
        <ele>150.35</ele>
        <time>2018-12-12T13:36:55Z</time>
      </trkpt>
      <trkpt lat="48.72459" lon="2.50031">
        <ele>150.369</ele>
        <time>2018-12-12T13:37:01Z</time>
      </trkpt>
      <trkpt lat="48.72457" lon="2.50027">
        <ele>150.371</ele>
        <time>2018-12-12T13:37:03Z</time>
      </trkpt>
      <trkpt lat="48.72455" lon="2.50023">
        <ele>150.373</ele>
        <time>2018-12-12T13:37:06Z</time>
      </trkpt>
      <trkpt lat="48.72453" lon="2.50014">
        <ele>150.375</ele>
        <time>2018-12-12T13:37:09Z</time>
      </trkpt>
      <trkpt lat="48.72452" lon="2.50009">
        <ele>150.378</ele>
        <time>2018-12-12T13:37:12Z</time>
      </trkpt>
      <trkpt lat="48.72448" lon="2.50003">
        <ele>150.389</ele>
        <time>2018-12-12T13:37:16Z</time>
      </trkpt>
      <trkpt lat="48.72447" lon="2.50001">
        <ele>150.396</ele>
        <time>2018-12-12T13:37:18Z</time>
      </trkpt>
      <trkpt lat="48.72445" lon="2.49994">
        <ele>150.414</ele>
        <time>2018-12-12T13:37:24Z</time>
      </trkpt>
      <trkpt lat="48.72444" lon="2.4999">
        <ele>150.417</ele>
        <time>2018-12-12T13:37:26Z</time>
      </trkpt>
      <trkpt lat="48.7244" lon="2.49983">
        <ele>150.417</ele>
        <time>2018-12-12T13:37:31Z</time>
      </trkpt>
      <trkpt lat="48.72439" lon="2.4998">
        <ele>150.412</ele>
        <time>2018-12-12T13:37:33Z</time>
      </trkpt>
      <trkpt lat="48.72437" lon="2.49977">
        <ele>150.407</ele>
        <time>2018-12-12T13:37:35Z</time>
      </trkpt>
      <trkpt lat="48.72433" lon="2.49973">
        <ele>150.395</ele>
        <time>2018-12-12T13:37:38Z</time>
      </trkpt>
      <trkpt lat="48.72429" lon="2.49968">
        <ele>150.374</ele>
        <time>2018-12-12T13:37:43Z</time>
      </trkpt>
      <trkpt lat="48.72426" lon="2.49966">
        <ele>150.365</ele>
        <time>2018-12-12T13:37:45Z</time>
      </trkpt>
      <trkpt lat="48.72421" lon="2.49963">
        <ele>150.353</ele>
        <time>2018-12-12T13:37:48Z</time>
      </trkpt>
      <trkpt lat="48.72415" lon="2.49964">
        <ele>150.346</ele>
        <time>2018-12-12T13:37:51Z</time>
      </trkpt>
      <trkpt lat="48.7241" lon="2.49963">
        <ele>150.342</ele>
        <time>2018-12-12T13:37:56Z</time>
      </trkpt>
      <trkpt lat="48.72404" lon="2.49961">
        <ele>150.349</ele>
        <time>2018-12-12T13:38:00Z</time>
      </trkpt>
      <trkpt lat="48.72399" lon="2.4996">
        <ele>150.357</ele>
        <time>2018-12-12T13:38:03Z</time>
      </trkpt>
      <trkpt lat="48.72395" lon="2.4996">
        <ele>150.371</ele>
        <time>2018-12-12T13:38:07Z</time>
      </trkpt>
      <trkpt lat="48.7239" lon="2.49961">
        <ele>150.387</ele>
        <time>2018-12-12T13:38:13Z</time>
      </trkpt>
      <trkpt lat="48.72387" lon="2.49962">
        <ele>150.39</ele>
        <time>2018-12-12T13:38:15Z</time>
      </trkpt>
      <trkpt lat="48.72382" lon="2.49961">
        <ele>150.399</ele>
        <time>2018-12-12T13:38:19Z</time>
      </trkpt>
      <trkpt lat="48.72379" lon="2.4996">
        <ele>150.406</ele>
        <time>2018-12-12T13:38:21Z</time>
      </trkpt>
      <trkpt lat="48.72377" lon="2.49959">
        <ele>150.414</ele>
        <time>2018-12-12T13:38:23Z</time>
      </trkpt>
      <trkpt lat="48.72371" lon="2.4996">
        <ele>150.434</ele>
        <time>2018-12-12T13:38:27Z</time>
      </trkpt>
      <trkpt lat="48.72368" lon="2.49959">
        <ele>150.446</ele>
        <time>2018-12-12T13:38:29Z</time>
      </trkpt>
      <trkpt lat="48.72365" lon="2.49959">
        <ele>150.462</ele>
        <time>2018-12-12T13:38:31Z</time>
      </trkpt>
      <trkpt lat="48.7236" lon="2.49961">
        <ele>150.499</ele>
        <time>2018-12-12T13:38:35Z</time>
      </trkpt>
      <trkpt lat="48.72357" lon="2.49962">
        <ele>150.52</ele>
        <time>2018-12-12T13:38:37Z</time>
      </trkpt>
      <trkpt lat="48.72355" lon="2.49962">
        <ele>150.542</ele>
        <time>2018-12-12T13:38:39Z</time>
      </trkpt>
      <trkpt lat="48.72352" lon="2.49963">
        <ele>150.578</ele>
        <time>2018-12-12T13:38:42Z</time>
      </trkpt>
      <trkpt lat="48.72349" lon="2.49963">
        <ele>150.602</ele>
        <time>2018-12-12T13:38:44Z</time>
      </trkpt>
      <trkpt lat="48.72347" lon="2.49963">
        <ele>150.644</ele>
        <time>2018-12-12T13:38:47Z</time>
      </trkpt>
      <trkpt lat="48.72344" lon="2.49964">
        <ele>150.707</ele>
        <time>2018-12-12T13:38:52Z</time>
      </trkpt>
      <trkpt lat="48.72349" lon="2.49949">
        <ele>151.147</ele>
        <time>2018-12-12T13:39:51Z</time>
      </trkpt>
      <trkpt lat="48.7235" lon="2.49944">
        <ele>151.187</ele>
        <time>2018-12-12T13:39:55Z</time>
      </trkpt>
      <trkpt lat="48.7235" lon="2.49936">
        <ele>151.226</ele>
        <time>2018-12-12T13:40:00Z</time>
      </trkpt>
      <trkpt lat="48.72348" lon="2.49929">
        <ele>151.244</ele>
        <time>2018-12-12T13:40:04Z</time>
      </trkpt>
      <trkpt lat="48.72346" lon="2.49926">
        <ele>151.25</ele>
        <time>2018-12-12T13:40:07Z</time>
      </trkpt>
      <trkpt lat="48.72345" lon="2.49922">
        <ele>151.257</ele>
        <time>2018-12-12T13:40:11Z</time>
      </trkpt>
      <trkpt lat="48.72343" lon="2.49918">
        <ele>151.258</ele>
        <time>2018-12-12T13:40:14Z</time>
      </trkpt>
      <trkpt lat="48.7234" lon="2.49912">
        <ele>151.249</ele>
        <time>2018-12-12T13:40:20Z</time>
      </trkpt>
      <trkpt lat="48.72337" lon="2.49906">
        <ele>151.233</ele>
        <time>2018-12-12T13:40:24Z</time>
      </trkpt>
      <trkpt lat="48.72333" lon="2.499">
        <ele>151.206</ele>
        <time>2018-12-12T13:40:28Z</time>
      </trkpt>
      <trkpt lat="48.72329" lon="2.49896">
        <ele>151.17</ele>
        <time>2018-12-12T13:40:32Z</time>
      </trkpt>
      <trkpt lat="48.72324" lon="2.49895">
        <ele>151.122</ele>
        <time>2018-12-12T13:40:37Z</time>
      </trkpt>
      <trkpt lat="48.72319" lon="2.49896">
        <ele>151.088</ele>
        <time>2018-12-12T13:40:41Z</time>
      </trkpt>
      <trkpt lat="48.72316" lon="2.49897">
        <ele>151.065</ele>
        <time>2018-12-12T13:40:44Z</time>
      </trkpt>
      <trkpt lat="48.72314" lon="2.49898">
        <ele>151.049</ele>
        <time>2018-12-12T13:40:46Z</time>
      </trkpt>
      <trkpt lat="48.72311" lon="2.49898">
        <ele>151.032</ele>
        <time>2018-12-12T13:40:48Z</time>
      </trkpt>
      <trkpt lat="48.72308" lon="2.49899">
        <ele>151.014</ele>
        <time>2018-12-12T13:40:50Z</time>
      </trkpt>
      <trkpt lat="48.72304" lon="2.49899">
        <ele>150.978</ele>
        <time>2018-12-12T13:40:54Z</time>
      </trkpt>
      <trkpt lat="48.72299" lon="2.49895">
        <ele>150.934</ele>
        <time>2018-12-12T13:40:59Z</time>
      </trkpt>
      <trkpt lat="48.72296" lon="2.49894">
        <ele>150.917</ele>
        <time>2018-12-12T13:41:01Z</time>
      </trkpt>
      <trkpt lat="48.72294" lon="2.49892">
        <ele>150.892</ele>
        <time>2018-12-12T13:41:04Z</time>
      </trkpt>
      <trkpt lat="48.7229" lon="2.49886">
        <ele>150.853</ele>
        <time>2018-12-12T13:41:09Z</time>
      </trkpt>
      <trkpt lat="48.72287" lon="2.49881">
        <ele>150.816</ele>
        <time>2018-12-12T13:41:14Z</time>
      </trkpt>
      <trkpt lat="48.72284" lon="2.49877">
        <ele>150.788</ele>
        <time>2018-12-12T13:41:18Z</time>
      </trkpt>
      <trkpt lat="48.72281" lon="2.4987">
        <ele>150.746</ele>
        <time>2018-12-12T13:41:24Z</time>
      </trkpt>
      <trkpt lat="48.72279" lon="2.49866">
        <ele>150.722</ele>
        <time>2018-12-12T13:41:27Z</time>
      </trkpt>
      <trkpt lat="48.72276" lon="2.4986">
        <ele>150.695</ele>
        <time>2018-12-12T13:41:30Z</time>
      </trkpt>
      <trkpt lat="48.72275" lon="2.49857">
        <ele>150.676</ele>
        <time>2018-12-12T13:41:32Z</time>
      </trkpt>
      <trkpt lat="48.72272" lon="2.49852">
        <ele>150.636</ele>
        <time>2018-12-12T13:41:36Z</time>
      </trkpt>
      <trkpt lat="48.72269" lon="2.49846">
        <ele>150.604</ele>
        <time>2018-12-12T13:41:39Z</time>
      </trkpt>
      <trkpt lat="48.72267" lon="2.4984">
        <ele>150.56</ele>
        <time>2018-12-12T13:41:43Z</time>
      </trkpt>
      <trkpt lat="48.72266" lon="2.49831">
        <ele>150.503</ele>
        <time>2018-12-12T13:41:48Z</time>
      </trkpt>
      <trkpt lat="48.72265" lon="2.49824">
        <ele>150.455</ele>
        <time>2018-12-12T13:41:52Z</time>
      </trkpt>
      <trkpt lat="48.7226" lon="2.49822">
        <ele>150.393</ele>
        <time>2018-12-12T13:41:57Z</time>
      </trkpt>
      <trkpt lat="48.72255" lon="2.49825">
        <ele>150.325</ele>
        <time>2018-12-12T13:42:03Z</time>
      </trkpt>
      <trkpt lat="48.72251" lon="2.49827">
        <ele>150.28</ele>
        <time>2018-12-12T13:42:07Z</time>
      </trkpt>
      <trkpt lat="48.72246" lon="2.49826">
        <ele>150.222</ele>
        <time>2018-12-12T13:42:12Z</time>
      </trkpt>
      <trkpt lat="48.72242" lon="2.49823">
        <ele>150.173</ele>
        <time>2018-12-12T13:42:16Z</time>
      </trkpt>
      <trkpt lat="48.72237" lon="2.49821">
        <ele>150.122</ele>
        <time>2018-12-12T13:42:20Z</time>
      </trkpt>
      <trkpt lat="48.72233" lon="2.49818">
        <ele>150.073</ele>
        <time>2018-12-12T13:42:24Z</time>
      </trkpt>
      <trkpt lat="48.72229" lon="2.49814">
        <ele>150.026</ele>
        <time>2018-12-12T13:42:28Z</time>
      </trkpt>
      <trkpt lat="48.72225" lon="2.49813">
        <ele>149.992</ele>
        <time>2018-12-12T13:42:31Z</time>
      </trkpt>
      <trkpt lat="48.72221" lon="2.49809">
        <ele>149.95</ele>
        <time>2018-12-12T13:42:35Z</time>
      </trkpt>
      <trkpt lat="48.72216" lon="2.49806">
        <ele>149.914</ele>
        <time>2018-12-12T13:42:39Z</time>
      </trkpt>
      <trkpt lat="48.72213" lon="2.49802">
        <ele>149.838</ele>
        <time>2018-12-12T13:42:47Z</time>
      </trkpt>
      <trkpt lat="48.72211" lon="2.49794">
        <ele>149.731</ele>
        <time>2018-12-12T13:42:57Z</time>
      </trkpt>
      <trkpt lat="48.7221" lon="2.49787">
        <ele>149.682</ele>
        <time>2018-12-12T13:43:01Z</time>
      </trkpt>
      <trkpt lat="48.7221" lon="2.49782">
        <ele>149.656</ele>
        <time>2018-12-12T13:43:03Z</time>
      </trkpt>
      <trkpt lat="48.7221" lon="2.49778">
        <ele>149.631</ele>
        <time>2018-12-12T13:43:05Z</time>
      </trkpt>
      <trkpt lat="48.72209" lon="2.49775">
        <ele>149.604</ele>
        <time>2018-12-12T13:43:07Z</time>
      </trkpt>
      <trkpt lat="48.72209" lon="2.4977">
        <ele>149.56</ele>
        <time>2018-12-12T13:43:10Z</time>
      </trkpt>
      <trkpt lat="48.72208" lon="2.49763">
        <ele>149.486</ele>
        <time>2018-12-12T13:43:15Z</time>
      </trkpt>
      <trkpt lat="48.72208" lon="2.49756">
        <ele>149.429</ele>
        <time>2018-12-12T13:43:19Z</time>
      </trkpt>
      <trkpt lat="48.72208" lon="2.49751">
        <ele>149.391</ele>
        <time>2018-12-12T13:43:22Z</time>
      </trkpt>
      <trkpt lat="48.72208" lon="2.49747">
        <ele>149.368</ele>
        <time>2018-12-12T13:43:24Z</time>
      </trkpt>
      <trkpt lat="48.72208" lon="2.49744">
        <ele>149.347</ele>
        <time>2018-12-12T13:43:26Z</time>
      </trkpt>
      <trkpt lat="48.72209" lon="2.49737">
        <ele>149.316</ele>
        <time>2018-12-12T13:43:29Z</time>
      </trkpt>
      <trkpt lat="48.72208" lon="2.49728">
        <ele>149.268</ele>
        <time>2018-12-12T13:43:34Z</time>
      </trkpt>
      <trkpt lat="48.72209" lon="2.4972">
        <ele>149.227</ele>
        <time>2018-12-12T13:43:38Z</time>
      </trkpt>
      <trkpt lat="48.72209" lon="2.49712">
        <ele>149.172</ele>
        <time>2018-12-12T13:43:43Z</time>
      </trkpt>
      <trkpt lat="48.7221" lon="2.49705">
        <ele>149.125</ele>
        <time>2018-12-12T13:43:47Z</time>
      </trkpt>
      <trkpt lat="48.7221" lon="2.497">
        <ele>149.09</ele>
        <time>2018-12-12T13:43:50Z</time>
      </trkpt>
      <trkpt lat="48.7221" lon="2.49695">
        <ele>149.054</ele>
        <time>2018-12-12T13:43:53Z</time>
      </trkpt>
      <trkpt lat="48.7221" lon="2.49691">
        <ele>149.029</ele>
        <time>2018-12-12T13:43:55Z</time>
      </trkpt>
      <trkpt lat="48.7221" lon="2.49683">
        <ele>148.962</ele>
        <time>2018-12-12T13:44:00Z</time>
      </trkpt>
      <trkpt lat="48.7221" lon="2.49677">
        <ele>148.917</ele>
        <time>2018-12-12T13:44:03Z</time>
      </trkpt>
      <trkpt lat="48.7221" lon="2.49671">
        <ele>148.869</ele>
        <time>2018-12-12T13:44:06Z</time>
      </trkpt>
      <trkpt lat="48.72209" lon="2.49664">
        <ele>148.822</ele>
        <time>2018-12-12T13:44:09Z</time>
      </trkpt>
      <trkpt lat="48.72208" lon="2.4966">
        <ele>148.791</ele>
        <time>2018-12-12T13:44:11Z</time>
      </trkpt>
      <trkpt lat="48.72208" lon="2.49656">
        <ele>148.76</ele>
        <time>2018-12-12T13:44:13Z</time>
      </trkpt>
      <trkpt lat="48.72207" lon="2.49651">
        <ele>148.73</ele>
        <time>2018-12-12T13:44:15Z</time>
      </trkpt>
      <trkpt lat="48.72208" lon="2.49643">
        <ele>148.653</ele>
        <time>2018-12-12T13:44:20Z</time>
      </trkpt>
      <trkpt lat="48.72207" lon="2.49637">
        <ele>148.592</ele>
        <time>2018-12-12T13:44:24Z</time>
      </trkpt>
      <trkpt lat="48.72207" lon="2.49628">
        <ele>148.53</ele>
        <time>2018-12-12T13:44:28Z</time>
      </trkpt>
      <trkpt lat="48.72208" lon="2.49622">
        <ele>148.499</ele>
        <time>2018-12-12T13:44:30Z</time>
      </trkpt>
      <trkpt lat="48.72208" lon="2.49618">
        <ele>148.467</ele>
        <time>2018-12-12T13:44:32Z</time>
      </trkpt>
      <trkpt lat="48.72208" lon="2.49611">
        <ele>148.405</ele>
        <time>2018-12-12T13:44:36Z</time>
      </trkpt>
      <trkpt lat="48.72207" lon="2.49603">
        <ele>148.361</ele>
        <time>2018-12-12T13:44:39Z</time>
      </trkpt>
      <trkpt lat="48.72206" lon="2.49598">
        <ele>148.333</ele>
        <time>2018-12-12T13:44:41Z</time>
      </trkpt>
      <trkpt lat="48.72205" lon="2.49594">
        <ele>148.307</ele>
        <time>2018-12-12T13:44:43Z</time>
      </trkpt>
      <trkpt lat="48.72207" lon="2.49586">
        <ele>148.256</ele>
        <time>2018-12-12T13:44:47Z</time>
      </trkpt>
      <trkpt lat="48.72207" lon="2.49583">
        <ele>148.231</ele>
        <time>2018-12-12T13:44:49Z</time>
      </trkpt>
      <trkpt lat="48.72208" lon="2.49576">
        <ele>148.195</ele>
        <time>2018-12-12T13:44:52Z</time>
      </trkpt>
      <trkpt lat="48.72208" lon="2.49569">
        <ele>148.162</ele>
        <time>2018-12-12T13:44:55Z</time>
      </trkpt>
      <trkpt lat="48.72208" lon="2.49565">
        <ele>148.132</ele>
        <time>2018-12-12T13:44:58Z</time>
      </trkpt>
      <trkpt lat="48.72207" lon="2.4956">
        <ele>148.094</ele>
        <time>2018-12-12T13:45:02Z</time>
      </trkpt>
      <trkpt lat="48.72207" lon="2.49556">
        <ele>148.076</ele>
        <time>2018-12-12T13:45:04Z</time>
      </trkpt>
      <trkpt lat="48.72207" lon="2.49552">
        <ele>148.059</ele>
        <time>2018-12-12T13:45:06Z</time>
      </trkpt>
      <trkpt lat="48.72207" lon="2.49544">
        <ele>148.036</ele>
        <time>2018-12-12T13:45:09Z</time>
      </trkpt>
      <trkpt lat="48.72208" lon="2.49539">
        <ele>148.022</ele>
        <time>2018-12-12T13:45:11Z</time>
      </trkpt>
      <trkpt lat="48.72208" lon="2.49534">
        <ele>148.009</ele>
        <time>2018-12-12T13:45:13Z</time>
      </trkpt>
      <trkpt lat="48.72206" lon="2.49527">
        <ele>147.986</ele>
        <time>2018-12-12T13:45:17Z</time>
      </trkpt>
      <trkpt lat="48.72205" lon="2.49519">
        <ele>147.96</ele>
        <time>2018-12-12T13:45:22Z</time>
      </trkpt>
      <trkpt lat="48.72204" lon="2.4951">
        <ele>147.945</ele>
        <time>2018-12-12T13:45:25Z</time>
      </trkpt>
      <trkpt lat="48.72205" lon="2.49502">
        <ele>147.926</ele>
        <time>2018-12-12T13:45:29Z</time>
      </trkpt>
      <trkpt lat="48.72206" lon="2.49494">
        <ele>147.909</ele>
        <time>2018-12-12T13:45:33Z</time>
      </trkpt>
      <trkpt lat="48.72206" lon="2.49486">
        <ele>147.894</ele>
        <time>2018-12-12T13:45:37Z</time>
      </trkpt>
      <trkpt lat="48.72205" lon="2.4948">
        <ele>147.886</ele>
        <time>2018-12-12T13:45:40Z</time>
      </trkpt>
      <trkpt lat="48.72206" lon="2.49473">
        <ele>147.88</ele>
        <time>2018-12-12T13:45:43Z</time>
      </trkpt>
      <trkpt lat="48.72205" lon="2.49468">
        <ele>147.875</ele>
        <time>2018-12-12T13:45:46Z</time>
      </trkpt>
      <trkpt lat="48.72207" lon="2.49461">
        <ele>147.864</ele>
        <time>2018-12-12T13:45:52Z</time>
      </trkpt>
      <trkpt lat="48.72206" lon="2.49453">
        <ele>147.854</ele>
        <time>2018-12-12T13:45:57Z</time>
      </trkpt>
      <trkpt lat="48.72207" lon="2.49445">
        <ele>147.847</ele>
        <time>2018-12-12T13:46:01Z</time>
      </trkpt>
      <trkpt lat="48.72208" lon="2.49439">
        <ele>147.84</ele>
        <time>2018-12-12T13:46:04Z</time>
      </trkpt>
      <trkpt lat="48.72209" lon="2.49431">
        <ele>147.829</ele>
        <time>2018-12-12T13:46:08Z</time>
      </trkpt>
      <trkpt lat="48.72208" lon="2.49423">
        <ele>147.82</ele>
        <time>2018-12-12T13:46:11Z</time>
      </trkpt>
      <trkpt lat="48.72208" lon="2.49415">
        <ele>147.806</ele>
        <time>2018-12-12T13:46:15Z</time>
      </trkpt>
      <trkpt lat="48.72207" lon="2.49408">
        <ele>147.796</ele>
        <time>2018-12-12T13:46:18Z</time>
      </trkpt>
      <trkpt lat="48.72206" lon="2.49402">
        <ele>147.786</ele>
        <time>2018-12-12T13:46:21Z</time>
      </trkpt>
      <trkpt lat="48.72205" lon="2.49392">
        <ele>147.772</ele>
        <time>2018-12-12T13:46:25Z</time>
      </trkpt>
      <trkpt lat="48.72204" lon="2.49385">
        <ele>147.763</ele>
        <time>2018-12-12T13:46:28Z</time>
      </trkpt>
      <trkpt lat="48.72204" lon="2.49381">
        <ele>147.757</ele>
        <time>2018-12-12T13:46:30Z</time>
      </trkpt>
      <trkpt lat="48.72203" lon="2.49376">
        <ele>147.749</ele>
        <time>2018-12-12T13:46:33Z</time>
      </trkpt>
      <trkpt lat="48.72203" lon="2.49371">
        <ele>147.741</ele>
        <time>2018-12-12T13:46:36Z</time>
      </trkpt>
      <trkpt lat="48.72202" lon="2.49366">
        <ele>147.733</ele>
        <time>2018-12-12T13:46:39Z</time>
      </trkpt>
      <trkpt lat="48.722" lon="2.49359">
        <ele>147.725</ele>
        <time>2018-12-12T13:46:42Z</time>
      </trkpt>
      <trkpt lat="48.72199" lon="2.49354">
        <ele>147.721</ele>
        <time>2018-12-12T13:46:44Z</time>
      </trkpt>
      <trkpt lat="48.72198" lon="2.49348">
        <ele>147.717</ele>
        <time>2018-12-12T13:46:46Z</time>
      </trkpt>
      <trkpt lat="48.72197" lon="2.49341">
        <ele>147.71</ele>
        <time>2018-12-12T13:46:50Z</time>
      </trkpt>
      <trkpt lat="48.72196" lon="2.49334">
        <ele>147.703</ele>
        <time>2018-12-12T13:46:54Z</time>
      </trkpt>
      <trkpt lat="48.72195" lon="2.4933">
        <ele>147.699</ele>
        <time>2018-12-12T13:46:56Z</time>
      </trkpt>
      <trkpt lat="48.72196" lon="2.49321">
        <ele>147.689</ele>
        <time>2018-12-12T13:47:02Z</time>
      </trkpt>
      <trkpt lat="48.72196" lon="2.49312">
        <ele>147.681</ele>
        <time>2018-12-12T13:47:06Z</time>
      </trkpt>
      <trkpt lat="48.72194" lon="2.49304">
        <ele>147.676</ele>
        <time>2018-12-12T13:47:09Z</time>
      </trkpt>
      <trkpt lat="48.72194" lon="2.49297">
        <ele>147.67</ele>
        <time>2018-12-12T13:47:13Z</time>
      </trkpt>
      <trkpt lat="48.72193" lon="2.49293">
        <ele>147.667</ele>
        <time>2018-12-12T13:47:15Z</time>
      </trkpt>
      <trkpt lat="48.72194" lon="2.49284">
        <ele>147.663</ele>
        <time>2018-12-12T13:47:19Z</time>
      </trkpt>
      <trkpt lat="48.72195" lon="2.49277">
        <ele>147.66</ele>
        <time>2018-12-12T13:47:22Z</time>
      </trkpt>
      <trkpt lat="48.72196" lon="2.49273">
        <ele>147.658</ele>
        <time>2018-12-12T13:47:24Z</time>
      </trkpt>
      <trkpt lat="48.72196" lon="2.49264">
        <ele>147.654</ele>
        <time>2018-12-12T13:47:28Z</time>
      </trkpt>
      <trkpt lat="48.72196" lon="2.4926">
        <ele>147.652</ele>
        <time>2018-12-12T13:47:30Z</time>
      </trkpt>
      <trkpt lat="48.72197" lon="2.49252">
        <ele>147.646</ele>
        <time>2018-12-12T13:47:35Z</time>
      </trkpt>
      <trkpt lat="48.72197" lon="2.49244">
        <ele>147.641</ele>
        <time>2018-12-12T13:47:39Z</time>
      </trkpt>
      <trkpt lat="48.72199" lon="2.49237">
        <ele>147.632</ele>
        <time>2018-12-12T13:47:45Z</time>
      </trkpt>
      <trkpt lat="48.72199" lon="2.4923">
        <ele>147.624</ele>
        <time>2018-12-12T13:47:49Z</time>
      </trkpt>
      <trkpt lat="48.72202" lon="2.49222">
        <ele>147.611</ele>
        <time>2018-12-12T13:47:54Z</time>
      </trkpt>
      <trkpt lat="48.72201" lon="2.49213">
        <ele>147.594</ele>
        <time>2018-12-12T13:47:59Z</time>
      </trkpt>
      <trkpt lat="48.72201" lon="2.49208">
        <ele>147.586</ele>
        <time>2018-12-12T13:48:01Z</time>
      </trkpt>
      <trkpt lat="48.72202" lon="2.49202">
        <ele>147.578</ele>
        <time>2018-12-12T13:48:03Z</time>
      </trkpt>
      <trkpt lat="48.72202" lon="2.49197">
        <ele>147.564</ele>
        <time>2018-12-12T13:48:06Z</time>
      </trkpt>
      <trkpt lat="48.72203" lon="2.49188">
        <ele>147.544</ele>
        <time>2018-12-12T13:48:10Z</time>
      </trkpt>
      <trkpt lat="48.72204" lon="2.49183">
        <ele>147.528</ele>
        <time>2018-12-12T13:48:13Z</time>
      </trkpt>
      <trkpt lat="48.72206" lon="2.49176">
        <ele>147.506</ele>
        <time>2018-12-12T13:48:17Z</time>
      </trkpt>
      <trkpt lat="48.72207" lon="2.49172">
        <ele>147.487</ele>
        <time>2018-12-12T13:48:20Z</time>
      </trkpt>
      <trkpt lat="48.72207" lon="2.49165">
        <ele>147.468</ele>
        <time>2018-12-12T13:48:23Z</time>
      </trkpt>
      <trkpt lat="48.72207" lon="2.49158">
        <ele>147.441</ele>
        <time>2018-12-12T13:48:27Z</time>
      </trkpt>
      <trkpt lat="48.72208" lon="2.49152">
        <ele>147.419</ele>
        <time>2018-12-12T13:48:30Z</time>
      </trkpt>
      <trkpt lat="48.72208" lon="2.49145">
        <ele>147.397</ele>
        <time>2018-12-12T13:48:33Z</time>
      </trkpt>
      <trkpt lat="48.72207" lon="2.4914">
        <ele>147.383</ele>
        <time>2018-12-12T13:48:35Z</time>
      </trkpt>
      <trkpt lat="48.72207" lon="2.49136">
        <ele>147.369</ele>
        <time>2018-12-12T13:48:37Z</time>
      </trkpt>
      <trkpt lat="48.72207" lon="2.49129">
        <ele>147.347</ele>
        <time>2018-12-12T13:48:40Z</time>
      </trkpt>
      <trkpt lat="48.72206" lon="2.49122">
        <ele>147.326</ele>
        <time>2018-12-12T13:48:43Z</time>
      </trkpt>
      <trkpt lat="48.72206" lon="2.49113">
        <ele>147.299</ele>
        <time>2018-12-12T13:48:47Z</time>
      </trkpt>
      <trkpt lat="48.72206" lon="2.4911">
        <ele>147.285</ele>
        <time>2018-12-12T13:48:49Z</time>
      </trkpt>
      <trkpt lat="48.72206" lon="2.49104">
        <ele>147.271</ele>
        <time>2018-12-12T13:48:51Z</time>
      </trkpt>
      <trkpt lat="48.72206" lon="2.49101">
        <ele>147.258</ele>
        <time>2018-12-12T13:48:53Z</time>
      </trkpt>
      <trkpt lat="48.72206" lon="2.49093">
        <ele>147.233</ele>
        <time>2018-12-12T13:48:57Z</time>
      </trkpt>
      <trkpt lat="48.72206" lon="2.49086">
        <ele>147.215</ele>
        <time>2018-12-12T13:49:00Z</time>
      </trkpt>
      <trkpt lat="48.72206" lon="2.49079">
        <ele>147.189</ele>
        <time>2018-12-12T13:49:04Z</time>
      </trkpt>
      <trkpt lat="48.72203" lon="2.49072">
        <ele>147.16</ele>
        <time>2018-12-12T13:49:08Z</time>
      </trkpt>
      <trkpt lat="48.72203" lon="2.49063">
        <ele>147.121</ele>
        <time>2018-12-12T13:49:13Z</time>
      </trkpt>
      <trkpt lat="48.72202" lon="2.49059">
        <ele>147.106</ele>
        <time>2018-12-12T13:49:15Z</time>
      </trkpt>
      <trkpt lat="48.72202" lon="2.49051">
        <ele>147.075</ele>
        <time>2018-12-12T13:49:19Z</time>
      </trkpt>
      <trkpt lat="48.72203" lon="2.49046">
        <ele>147.05</ele>
        <time>2018-12-12T13:49:22Z</time>
      </trkpt>
      <trkpt lat="48.72203" lon="2.49037">
        <ele>147.008</ele>
        <time>2018-12-12T13:49:27Z</time>
      </trkpt>
      <trkpt lat="48.72204" lon="2.49029">
        <ele>146.966</ele>
        <time>2018-12-12T13:49:32Z</time>
      </trkpt>
      <trkpt lat="48.72203" lon="2.49022">
        <ele>146.914</ele>
        <time>2018-12-12T13:49:38Z</time>
      </trkpt>
      <trkpt lat="48.72202" lon="2.49011">
        <ele>146.867</ele>
        <time>2018-12-12T13:49:43Z</time>
      </trkpt>
      <trkpt lat="48.72201" lon="2.49007">
        <ele>146.848</ele>
        <time>2018-12-12T13:49:45Z</time>
      </trkpt>
      <trkpt lat="48.72199" lon="2.48999">
        <ele>146.808</ele>
        <time>2018-12-12T13:49:49Z</time>
      </trkpt>
      <trkpt lat="48.72199" lon="2.48991">
        <ele>146.766</ele>
        <time>2018-12-12T13:49:53Z</time>
      </trkpt>
      <trkpt lat="48.722" lon="2.48982">
        <ele>146.694</ele>
        <time>2018-12-12T13:50:00Z</time>
      </trkpt>
      <trkpt lat="48.722" lon="2.48975">
        <ele>146.655</ele>
        <time>2018-12-12T13:50:03Z</time>
      </trkpt>
      <trkpt lat="48.722" lon="2.48967">
        <ele>146.616</ele>
        <time>2018-12-12T13:50:06Z</time>
      </trkpt>
      <trkpt lat="48.72199" lon="2.4896">
        <ele>146.579</ele>
        <time>2018-12-12T13:50:09Z</time>
      </trkpt>
      <trkpt lat="48.722" lon="2.48952">
        <ele>146.532</ele>
        <time>2018-12-12T13:50:13Z</time>
      </trkpt>
      <trkpt lat="48.72201" lon="2.48946">
        <ele>146.499</ele>
        <time>2018-12-12T13:50:16Z</time>
      </trkpt>
      <trkpt lat="48.72203" lon="2.4894">
        <ele>146.455</ele>
        <time>2018-12-12T13:50:20Z</time>
      </trkpt>
      <trkpt lat="48.72206" lon="2.48931">
        <ele>146.404</ele>
        <time>2018-12-12T13:50:25Z</time>
      </trkpt>
      <trkpt lat="48.72209" lon="2.48925">
        <ele>146.347</ele>
        <time>2018-12-12T13:50:31Z</time>
      </trkpt>
      <trkpt lat="48.72215" lon="2.48921">
        <ele>146.304</ele>
        <time>2018-12-12T13:50:36Z</time>
      </trkpt>
      <trkpt lat="48.72219" lon="2.48919">
        <ele>146.295</ele>
        <time>2018-12-12T13:50:38Z</time>
      </trkpt>
      <trkpt lat="48.72224" lon="2.48916">
        <ele>146.267</ele>
        <time>2018-12-12T13:50:42Z</time>
      </trkpt>
      <trkpt lat="48.72228" lon="2.48913">
        <ele>146.243</ele>
        <time>2018-12-12T13:50:46Z</time>
      </trkpt>
      <trkpt lat="48.72232" lon="2.48908">
        <ele>146.225</ele>
        <time>2018-12-12T13:50:49Z</time>
      </trkpt>
      <trkpt lat="48.72234" lon="2.48906">
        <ele>146.214</ele>
        <time>2018-12-12T13:50:51Z</time>
      </trkpt>
      <trkpt lat="48.72237" lon="2.48899">
        <ele>146.185</ele>
        <time>2018-12-12T13:50:56Z</time>
      </trkpt>
      <trkpt lat="48.72242" lon="2.48899">
        <ele>146.163</ele>
        <time>2018-12-12T13:51:00Z</time>
      </trkpt>
      <trkpt lat="48.72245" lon="2.48899">
        <ele>146.142</ele>
        <time>2018-12-12T13:51:04Z</time>
      </trkpt>
      <trkpt lat="48.72249" lon="2.48898">
        <ele>146.125</ele>
        <time>2018-12-12T13:51:07Z</time>
      </trkpt>
      <trkpt lat="48.72253" lon="2.48895">
        <ele>146.091</ele>
        <time>2018-12-12T13:51:13Z</time>
      </trkpt>
      <trkpt lat="48.72256" lon="2.48893">
        <ele>146.076</ele>
        <time>2018-12-12T13:51:16Z</time>
      </trkpt>
      <trkpt lat="48.72259" lon="2.4889">
        <ele>146.061</ele>
        <time>2018-12-12T13:51:19Z</time>
      </trkpt>
      <trkpt lat="48.72263" lon="2.48889">
        <ele>146.051</ele>
        <time>2018-12-12T13:51:22Z</time>
      </trkpt>
      <trkpt lat="48.72268" lon="2.48885">
        <ele>146.037</ele>
        <time>2018-12-12T13:51:25Z</time>
      </trkpt>
      <trkpt lat="48.72271" lon="2.48883">
        <ele>146.027</ele>
        <time>2018-12-12T13:51:27Z</time>
      </trkpt>
      <trkpt lat="48.72274" lon="2.4888">
        <ele>146.017</ele>
        <time>2018-12-12T13:51:29Z</time>
      </trkpt>
      <trkpt lat="48.72276" lon="2.48878">
        <ele>146.006</ele>
        <time>2018-12-12T13:51:31Z</time>
      </trkpt>
      <trkpt lat="48.72279" lon="2.48875">
        <ele>145.991</ele>
        <time>2018-12-12T13:51:34Z</time>
      </trkpt>
      <trkpt lat="48.72281" lon="2.48872">
        <ele>145.981</ele>
        <time>2018-12-12T13:51:36Z</time>
      </trkpt>
      <trkpt lat="48.72284" lon="2.48866">
        <ele>145.968</ele>
        <time>2018-12-12T13:51:39Z</time>
      </trkpt>
      <trkpt lat="48.72287" lon="2.48861">
        <ele>145.952</ele>
        <time>2018-12-12T13:51:43Z</time>
      </trkpt>
      <trkpt lat="48.7229" lon="2.48853">
        <ele>145.934</ele>
        <time>2018-12-12T13:51:48Z</time>
      </trkpt>
      <trkpt lat="48.72292" lon="2.48846">
        <ele>145.912</ele>
        <time>2018-12-12T13:51:53Z</time>
      </trkpt>
      <trkpt lat="48.72295" lon="2.48841">
        <ele>145.895</ele>
        <time>2018-12-12T13:51:58Z</time>
      </trkpt>
      <trkpt lat="48.72302" lon="2.48833">
        <ele>145.878</ele>
        <time>2018-12-12T13:52:02Z</time>
      </trkpt>
      <trkpt lat="48.72307" lon="2.48833">
        <ele>145.867</ele>
        <time>2018-12-12T13:52:05Z</time>
      </trkpt>
      <trkpt lat="48.72311" lon="2.48829">
        <ele>145.855</ele>
        <time>2018-12-12T13:52:08Z</time>
      </trkpt>
      <trkpt lat="48.72317" lon="2.48826">
        <ele>145.846</ele>
        <time>2018-12-12T13:52:11Z</time>
      </trkpt>
      <trkpt lat="48.72319" lon="2.48825">
        <ele>145.843</ele>
        <time>2018-12-12T13:52:12Z</time>
      </trkpt>
      <trkpt lat="48.72324" lon="2.48824">
        <ele>145.834</ele>
        <time>2018-12-12T13:52:15Z</time>
      </trkpt>
      <trkpt lat="48.72329" lon="2.48821">
        <ele>145.823</ele>
        <time>2018-12-12T13:52:19Z</time>
      </trkpt>
      <trkpt lat="48.72334" lon="2.4882">
        <ele>145.813</ele>
        <time>2018-12-12T13:52:23Z</time>
      </trkpt>
      <trkpt lat="48.72339" lon="2.48819">
        <ele>145.806</ele>
        <time>2018-12-12T13:52:26Z</time>
      </trkpt>
      <trkpt lat="48.72343" lon="2.48817">
        <ele>145.799</ele>
        <time>2018-12-12T13:52:29Z</time>
      </trkpt>
      <trkpt lat="48.72348" lon="2.48817">
        <ele>145.796</ele>
        <time>2018-12-12T13:52:32Z</time>
      </trkpt>
      <trkpt lat="48.72352" lon="2.48812">
        <ele>145.788</ele>
        <time>2018-12-12T13:52:35Z</time>
      </trkpt>
      <trkpt lat="48.72357" lon="2.48808">
        <ele>145.771</ele>
        <time>2018-12-12T13:52:40Z</time>
      </trkpt>
      <trkpt lat="48.7236" lon="2.48807">
        <ele>145.765</ele>
        <time>2018-12-12T13:52:42Z</time>
      </trkpt>
      <trkpt lat="48.72363" lon="2.48806">
        <ele>145.758</ele>
        <time>2018-12-12T13:52:45Z</time>
      </trkpt>
      <trkpt lat="48.72368" lon="2.48804">
        <ele>145.748</ele>
        <time>2018-12-12T13:52:50Z</time>
      </trkpt>
      <trkpt lat="48.72375" lon="2.48801">
        <ele>145.738</ele>
        <time>2018-12-12T13:52:54Z</time>
      </trkpt>
      <trkpt lat="48.72377" lon="2.488">
        <ele>145.734</ele>
        <time>2018-12-12T13:52:56Z</time>
      </trkpt>
      <trkpt lat="48.72381" lon="2.48796">
        <ele>145.726</ele>
        <time>2018-12-12T13:53:02Z</time>
      </trkpt>
      <trkpt lat="48.72387" lon="2.48793">
        <ele>145.725</ele>
        <time>2018-12-12T13:53:07Z</time>
      </trkpt>
      <trkpt lat="48.72391" lon="2.48789">
        <ele>145.728</ele>
        <time>2018-12-12T13:53:11Z</time>
      </trkpt>
      <trkpt lat="48.72396" lon="2.48787">
        <ele>145.731</ele>
        <time>2018-12-12T13:53:14Z</time>
      </trkpt>
      <trkpt lat="48.72399" lon="2.48787">
        <ele>145.733</ele>
        <time>2018-12-12T13:53:16Z</time>
      </trkpt>
      <trkpt lat="48.72404" lon="2.48783">
        <ele>145.737</ele>
        <time>2018-12-12T13:53:20Z</time>
      </trkpt>
      <trkpt lat="48.72406" lon="2.48781">
        <ele>145.74</ele>
        <time>2018-12-12T13:53:23Z</time>
      </trkpt>
      <trkpt lat="48.72409" lon="2.4878">
        <ele>145.744</ele>
        <time>2018-12-12T13:53:26Z</time>
      </trkpt>
      <trkpt lat="48.72413" lon="2.48776">
        <ele>145.746</ele>
        <time>2018-12-12T13:53:28Z</time>
      </trkpt>
      <trkpt lat="48.72416" lon="2.48774">
        <ele>145.748</ele>
        <time>2018-12-12T13:53:30Z</time>
      </trkpt>
      <trkpt lat="48.72419" lon="2.48773">
        <ele>145.751</ele>
        <time>2018-12-12T13:53:32Z</time>
      </trkpt>
      <trkpt lat="48.72421" lon="2.48771">
        <ele>145.756</ele>
        <time>2018-12-12T13:53:36Z</time>
      </trkpt>
      <trkpt lat="48.72424" lon="2.48769">
        <ele>145.76</ele>
        <time>2018-12-12T13:53:39Z</time>
      </trkpt>
      <trkpt lat="48.72429" lon="2.48768">
        <ele>145.767</ele>
        <time>2018-12-12T13:53:43Z</time>
      </trkpt>
      <trkpt lat="48.72434" lon="2.48764">
        <ele>145.774</ele>
        <time>2018-12-12T13:53:47Z</time>
      </trkpt>
      <trkpt lat="48.72438" lon="2.4876">
        <ele>145.779</ele>
        <time>2018-12-12T13:53:50Z</time>
      </trkpt>
      <trkpt lat="48.72442" lon="2.48759">
        <ele>145.787</ele>
        <time>2018-12-12T13:53:54Z</time>
      </trkpt>
      <trkpt lat="48.72447" lon="2.48757">
        <ele>145.793</ele>
        <time>2018-12-12T13:53:57Z</time>
      </trkpt>
      <trkpt lat="48.72452" lon="2.48753">
        <ele>145.798</ele>
        <time>2018-12-12T13:54:01Z</time>
      </trkpt>
      <trkpt lat="48.72457" lon="2.48753">
        <ele>145.802</ele>
        <time>2018-12-12T13:54:04Z</time>
      </trkpt>
      <trkpt lat="48.72462" lon="2.48753">
        <ele>145.805</ele>
        <time>2018-12-12T13:54:07Z</time>
      </trkpt>
      <trkpt lat="48.72465" lon="2.48752">
        <ele>145.807</ele>
        <time>2018-12-12T13:54:09Z</time>
      </trkpt>
      <trkpt lat="48.72469" lon="2.48751">
        <ele>145.809</ele>
        <time>2018-12-12T13:54:12Z</time>
      </trkpt>
      <trkpt lat="48.72472" lon="2.4875">
        <ele>145.81</ele>
        <time>2018-12-12T13:54:14Z</time>
      </trkpt>
      <trkpt lat="48.72476" lon="2.48746">
        <ele>145.812</ele>
        <time>2018-12-12T13:54:20Z</time>
      </trkpt>
      <trkpt lat="48.7248" lon="2.48742">
        <ele>145.813</ele>
        <time>2018-12-12T13:54:23Z</time>
      </trkpt>
      <trkpt lat="48.72485" lon="2.48741">
        <ele>145.817</ele>
        <time>2018-12-12T13:54:28Z</time>
      </trkpt>
      <trkpt lat="48.72488" lon="2.4874">
        <ele>145.818</ele>
        <time>2018-12-12T13:54:29Z</time>
      </trkpt>
      <trkpt lat="48.72491" lon="2.48739">
        <ele>145.821</ele>
        <time>2018-12-12T13:54:31Z</time>
      </trkpt>
      <trkpt lat="48.72495" lon="2.48736">
        <ele>145.823</ele>
        <time>2018-12-12T13:54:35Z</time>
      </trkpt>
      <trkpt lat="48.725" lon="2.48733">
        <ele>145.824</ele>
        <time>2018-12-12T13:54:38Z</time>
      </trkpt>
      <trkpt lat="48.72506" lon="2.48731">
        <ele>145.823</ele>
        <time>2018-12-12T13:54:42Z</time>
      </trkpt>
      <trkpt lat="48.72512" lon="2.48728">
        <ele>145.824</ele>
        <time>2018-12-12T13:54:46Z</time>
      </trkpt>
      <trkpt lat="48.72516" lon="2.48726">
        <ele>145.825</ele>
        <time>2018-12-12T13:54:52Z</time>
      </trkpt>
      <trkpt lat="48.72521" lon="2.4872">
        <ele>145.823</ele>
        <time>2018-12-12T13:54:57Z</time>
      </trkpt>
      <trkpt lat="48.72524" lon="2.48718">
        <ele>145.823</ele>
        <time>2018-12-12T13:54:59Z</time>
      </trkpt>
      <trkpt lat="48.72526" lon="2.48716">
        <ele>145.823</ele>
        <time>2018-12-12T13:55:02Z</time>
      </trkpt>
      <trkpt lat="48.72528" lon="2.48714">
        <ele>145.823</ele>
        <time>2018-12-12T13:55:05Z</time>
      </trkpt>
      <trkpt lat="48.72531" lon="2.4871">
        <ele>145.821</ele>
        <time>2018-12-12T13:55:08Z</time>
      </trkpt>
      <trkpt lat="48.72534" lon="2.48705">
        <ele>145.816</ele>
        <time>2018-12-12T13:55:12Z</time>
      </trkpt>
      <trkpt lat="48.72539" lon="2.48702">
        <ele>145.805</ele>
        <time>2018-12-12T13:55:17Z</time>
      </trkpt>
      <trkpt lat="48.72541" lon="2.487">
        <ele>145.796</ele>
        <time>2018-12-12T13:55:20Z</time>
      </trkpt>
      <trkpt lat="48.72546" lon="2.48695">
        <ele>145.783</ele>
        <time>2018-12-12T13:55:24Z</time>
      </trkpt>
      <trkpt lat="48.72551" lon="2.4869">
        <ele>145.766</ele>
        <time>2018-12-12T13:55:29Z</time>
      </trkpt>
      <trkpt lat="48.72556" lon="2.48689">
        <ele>145.745</ele>
        <time>2018-12-12T13:55:35Z</time>
      </trkpt>
      <trkpt lat="48.72559" lon="2.48688">
        <ele>145.732</ele>
        <time>2018-12-12T13:55:38Z</time>
      </trkpt>
      <trkpt lat="48.72563" lon="2.48683">
        <ele>145.715</ele>
        <time>2018-12-12T13:55:41Z</time>
      </trkpt>
      <trkpt lat="48.72567" lon="2.48679">
        <ele>145.696</ele>
        <time>2018-12-12T13:55:44Z</time>
      </trkpt>
      <trkpt lat="48.72571" lon="2.48678">
        <ele>145.653</ele>
        <time>2018-12-12T13:55:50Z</time>
      </trkpt>
      <trkpt lat="48.72576" lon="2.48677">
        <ele>145.621</ele>
        <time>2018-12-12T13:55:54Z</time>
      </trkpt>
      <trkpt lat="48.72581" lon="2.48673">
        <ele>145.597</ele>
        <time>2018-12-12T13:55:57Z</time>
      </trkpt>
      <trkpt lat="48.72585" lon="2.4867">
        <ele>145.572</ele>
        <time>2018-12-12T13:56:00Z</time>
      </trkpt>
      <trkpt lat="48.7259" lon="2.48665">
        <ele>145.549</ele>
        <time>2018-12-12T13:56:03Z</time>
      </trkpt>
      <trkpt lat="48.72596" lon="2.48665">
        <ele>145.525</ele>
        <time>2018-12-12T13:56:06Z</time>
      </trkpt>
      <trkpt lat="48.72602" lon="2.4866">
        <ele>145.487</ele>
        <time>2018-12-12T13:56:11Z</time>
      </trkpt>
      <trkpt lat="48.72604" lon="2.48658">
        <ele>145.465</ele>
        <time>2018-12-12T13:56:14Z</time>
      </trkpt>
      <trkpt lat="48.72608" lon="2.48656">
        <ele>145.432</ele>
        <time>2018-12-12T13:56:19Z</time>
      </trkpt>
      <trkpt lat="48.72615" lon="2.48654">
        <ele>145.415</ele>
        <time>2018-12-12T13:56:22Z</time>
      </trkpt>
      <trkpt lat="48.72618" lon="2.48654">
        <ele>145.405</ele>
        <time>2018-12-12T13:56:24Z</time>
      </trkpt>
      <trkpt lat="48.72621" lon="2.4865">
        <ele>145.381</ele>
        <time>2018-12-12T13:56:29Z</time>
      </trkpt>
      <trkpt lat="48.72626" lon="2.48649">
        <ele>145.361</ele>
        <time>2018-12-12T13:56:33Z</time>
      </trkpt>
      <trkpt lat="48.7263" lon="2.48646">
        <ele>145.345</ele>
        <time>2018-12-12T13:56:36Z</time>
      </trkpt>
      <trkpt lat="48.72636" lon="2.48641">
        <ele>145.322</ele>
        <time>2018-12-12T13:56:40Z</time>
      </trkpt>
      <trkpt lat="48.72639" lon="2.48639">
        <ele>145.3</ele>
        <time>2018-12-12T13:56:44Z</time>
      </trkpt>
      <trkpt lat="48.72643" lon="2.48637">
        <ele>145.283</ele>
        <time>2018-12-12T13:56:47Z</time>
      </trkpt>
      <trkpt lat="48.72645" lon="2.48636">
        <ele>145.27</ele>
        <time>2018-12-12T13:56:49Z</time>
      </trkpt>
      <trkpt lat="48.72648" lon="2.48634">
        <ele>145.259</ele>
        <time>2018-12-12T13:56:51Z</time>
      </trkpt>
      <trkpt lat="48.72652" lon="2.48631">
        <ele>145.238</ele>
        <time>2018-12-12T13:56:55Z</time>
      </trkpt>
      <trkpt lat="48.72658" lon="2.48625">
        <ele>145.222</ele>
        <time>2018-12-12T13:56:58Z</time>
      </trkpt>
      <trkpt lat="48.7266" lon="2.48623">
        <ele>145.212</ele>
        <time>2018-12-12T13:57:00Z</time>
      </trkpt>
      <trkpt lat="48.72665" lon="2.48616">
        <ele>145.189</ele>
        <time>2018-12-12T13:57:04Z</time>
      </trkpt>
      <trkpt lat="48.72669" lon="2.48609">
        <ele>145.163</ele>
        <time>2018-12-12T13:57:08Z</time>
      </trkpt>
      <trkpt lat="48.7267" lon="2.48605">
        <ele>145.15</ele>
        <time>2018-12-12T13:57:10Z</time>
      </trkpt>
      <trkpt lat="48.72674" lon="2.48601">
        <ele>145.123</ele>
        <time>2018-12-12T13:57:14Z</time>
      </trkpt>
      <trkpt lat="48.72675" lon="2.48598">
        <ele>145.109</ele>
        <time>2018-12-12T13:57:16Z</time>
      </trkpt>
      <trkpt lat="48.72678" lon="2.48595">
        <ele>145.096</ele>
        <time>2018-12-12T13:57:18Z</time>
      </trkpt>
      <trkpt lat="48.7268" lon="2.48589">
        <ele>145.068</ele>
        <time>2018-12-12T13:57:22Z</time>
      </trkpt>
      <trkpt lat="48.7268" lon="2.48589">
        <ele>145.068</ele>
        <time>2018-12-12T13:57:29Z</time>
      </trkpt>
      <trkpt lat="48.7268" lon="2.48589">
        <ele>88</ele>
        <time>2018-12-12T13:57:29Z</time>
      </trkpt>
      <trkpt lat="48.7268" lon="2.48589">
        <ele>88</ele>
        <time>2018-12-12T13:57:39Z</time>
      </trkpt>
      <trkpt lat="48.72686" lon="2.48568">
        <ele>144.982</ele>
        <time>2018-12-12T13:57:39Z</time>
      </trkpt>
      <trkpt lat="48.72688" lon="2.48561">
        <ele>144.971</ele>
        <time>2018-12-12T13:57:42Z</time>
      </trkpt>
      <trkpt lat="48.72689" lon="2.48554">
        <ele>144.959</ele>
        <time>2018-12-12T13:57:45Z</time>
      </trkpt>
      <trkpt lat="48.7269" lon="2.48548">
        <ele>144.945</ele>
        <time>2018-12-12T13:57:48Z</time>
      </trkpt>
      <trkpt lat="48.7269" lon="2.48541">
        <ele>144.93</ele>
        <time>2018-12-12T13:57:51Z</time>
      </trkpt>
      <trkpt lat="48.7269" lon="2.48535">
        <ele>144.914</ele>
        <time>2018-12-12T13:57:54Z</time>
      </trkpt>
      <trkpt lat="48.72689" lon="2.48526">
        <ele>144.891</ele>
        <time>2018-12-12T13:57:58Z</time>
      </trkpt>
      <trkpt lat="48.72688" lon="2.4852">
        <ele>144.88</ele>
        <time>2018-12-12T13:58:00Z</time>
      </trkpt>
      <trkpt lat="48.72687" lon="2.48515">
        <ele>144.863</ele>
        <time>2018-12-12T13:58:03Z</time>
      </trkpt>
      <trkpt lat="48.72686" lon="2.48509">
        <ele>144.846</ele>
        <time>2018-12-12T13:58:06Z</time>
      </trkpt>
      <trkpt lat="48.72685" lon="2.48502">
        <ele>144.831</ele>
        <time>2018-12-12T13:58:09Z</time>
      </trkpt>
      <trkpt lat="48.72683" lon="2.48494">
        <ele>144.818</ele>
        <time>2018-12-12T13:58:12Z</time>
      </trkpt>
      <trkpt lat="48.72682" lon="2.48487">
        <ele>144.808</ele>
        <time>2018-12-12T13:58:15Z</time>
      </trkpt>
      <trkpt lat="48.72681" lon="2.48479">
        <ele>144.798</ele>
        <time>2018-12-12T13:58:18Z</time>
      </trkpt>
      <trkpt lat="48.72681" lon="2.48471">
        <ele>144.784</ele>
        <time>2018-12-12T13:58:24Z</time>
      </trkpt>
      <trkpt lat="48.72678" lon="2.48465">
        <ele>144.765</ele>
        <time>2018-12-12T13:58:31Z</time>
      </trkpt>
      <trkpt lat="48.72677" lon="2.48462">
        <ele>144.761</ele>
        <time>2018-12-12T13:58:33Z</time>
      </trkpt>
      <trkpt lat="48.72674" lon="2.48457">
        <ele>144.756</ele>
        <time>2018-12-12T13:58:36Z</time>
      </trkpt>
      <trkpt lat="48.72672" lon="2.4845">
        <ele>144.752</ele>
        <time>2018-12-12T13:58:39Z</time>
      </trkpt>
      <trkpt lat="48.7267" lon="2.48443">
        <ele>144.746</ele>
        <time>2018-12-12T13:58:43Z</time>
      </trkpt>
      <trkpt lat="48.72668" lon="2.48438">
        <ele>144.743</ele>
        <time>2018-12-12T13:58:45Z</time>
      </trkpt>
      <trkpt lat="48.72667" lon="2.48432">
        <ele>144.738</ele>
        <time>2018-12-12T13:58:48Z</time>
      </trkpt>
      <trkpt lat="48.72665" lon="2.48426">
        <ele>144.73</ele>
        <time>2018-12-12T13:58:52Z</time>
      </trkpt>
      <trkpt lat="48.72665" lon="2.48418">
        <ele>144.724</ele>
        <time>2018-12-12T13:58:56Z</time>
      </trkpt>
      <trkpt lat="48.72664" lon="2.4841">
        <ele>144.715</ele>
        <time>2018-12-12T13:59:01Z</time>
      </trkpt>
      <trkpt lat="48.72664" lon="2.48402">
        <ele>144.703</ele>
        <time>2018-12-12T13:59:05Z</time>
      </trkpt>
      <trkpt lat="48.72663" lon="2.48397">
        <ele>144.697</ele>
        <time>2018-12-12T13:59:07Z</time>
      </trkpt>
      <trkpt lat="48.72663" lon="2.4839">
        <ele>144.686</ele>
        <time>2018-12-12T13:59:10Z</time>
      </trkpt>
      <trkpt lat="48.72663" lon="2.48384">
        <ele>144.674</ele>
        <time>2018-12-12T13:59:13Z</time>
      </trkpt>
      <trkpt lat="48.72663" lon="2.48379">
        <ele>144.665</ele>
        <time>2018-12-12T13:59:16Z</time>
      </trkpt>
      <trkpt lat="48.72662" lon="2.48372">
        <ele>144.653</ele>
        <time>2018-12-12T13:59:20Z</time>
      </trkpt>
      <trkpt lat="48.72659" lon="2.48366">
        <ele>144.641</ele>
        <time>2018-12-12T13:59:24Z</time>
      </trkpt>
      <trkpt lat="48.72659" lon="2.48358">
        <ele>144.628</ele>
        <time>2018-12-12T13:59:30Z</time>
      </trkpt>
      <trkpt lat="48.72657" lon="2.48351">
        <ele>144.624</ele>
        <time>2018-12-12T13:59:34Z</time>
      </trkpt>
      <trkpt lat="48.72656" lon="2.48344">
        <ele>144.618</ele>
        <time>2018-12-12T13:59:39Z</time>
      </trkpt>
      <trkpt lat="48.72656" lon="2.48337">
        <ele>144.609</ele>
        <time>2018-12-12T13:59:44Z</time>
      </trkpt>
      <trkpt lat="48.72654" lon="2.4833">
        <ele>144.601</ele>
        <time>2018-12-12T13:59:48Z</time>
      </trkpt>
      <trkpt lat="48.72653" lon="2.48325">
        <ele>144.597</ele>
        <time>2018-12-12T13:59:51Z</time>
      </trkpt>
      <trkpt lat="48.7265" lon="2.4832">
        <ele>144.593</ele>
        <time>2018-12-12T13:59:55Z</time>
      </trkpt>
      <trkpt lat="48.72646" lon="2.48314">
        <ele>144.592</ele>
        <time>2018-12-12T13:59:58Z</time>
      </trkpt>
      <trkpt lat="48.72644" lon="2.48307">
        <ele>144.591</ele>
        <time>2018-12-12T14:00:01Z</time>
      </trkpt>
      <trkpt lat="48.72643" lon="2.48299">
        <ele>144.589</ele>
        <time>2018-12-12T14:00:05Z</time>
      </trkpt>
      <trkpt lat="48.72642" lon="2.4829">
        <ele>144.588</ele>
        <time>2018-12-12T14:00:09Z</time>
      </trkpt>
      <trkpt lat="48.72641" lon="2.48286">
        <ele>144.587</ele>
        <time>2018-12-12T14:00:12Z</time>
      </trkpt>
      <trkpt lat="48.72641" lon="2.48278">
        <ele>144.586</ele>
        <time>2018-12-12T14:00:16Z</time>
      </trkpt>
      <trkpt lat="48.72641" lon="2.4827">
        <ele>144.585</ele>
        <time>2018-12-12T14:00:20Z</time>
      </trkpt>
      <trkpt lat="48.72642" lon="2.48261">
        <ele>144.582</ele>
        <time>2018-12-12T14:00:25Z</time>
      </trkpt>
      <trkpt lat="48.72641" lon="2.48252">
        <ele>144.583</ele>
        <time>2018-12-12T14:00:29Z</time>
      </trkpt>
      <trkpt lat="48.72638" lon="2.48245">
        <ele>144.587</ele>
        <time>2018-12-12T14:00:33Z</time>
      </trkpt>
      <trkpt lat="48.72637" lon="2.48242">
        <ele>144.591</ele>
        <time>2018-12-12T14:00:36Z</time>
      </trkpt>
      <trkpt lat="48.72636" lon="2.48239">
        <ele>144.594</ele>
        <time>2018-12-12T14:00:38Z</time>
      </trkpt>
      <trkpt lat="48.72632" lon="2.48233">
        <ele>144.602</ele>
        <time>2018-12-12T14:00:42Z</time>
      </trkpt>
      <trkpt lat="48.7263" lon="2.48229">
        <ele>144.607</ele>
        <time>2018-12-12T14:00:44Z</time>
      </trkpt>
      <trkpt lat="48.72628" lon="2.48222">
        <ele>144.615</ele>
        <time>2018-12-12T14:00:48Z</time>
      </trkpt>
      <trkpt lat="48.72626" lon="2.48214">
        <ele>144.623</ele>
        <time>2018-12-12T14:00:52Z</time>
      </trkpt>
      <trkpt lat="48.72624" lon="2.4821">
        <ele>144.627</ele>
        <time>2018-12-12T14:00:55Z</time>
      </trkpt>
      <trkpt lat="48.72623" lon="2.48206">
        <ele>144.628</ele>
        <time>2018-12-12T14:00:58Z</time>
      </trkpt>
      <trkpt lat="48.72621" lon="2.48198">
        <ele>144.628</ele>
        <time>2018-12-12T14:01:02Z</time>
      </trkpt>
      <trkpt lat="48.7262" lon="2.48192">
        <ele>144.627</ele>
        <time>2018-12-12T14:01:04Z</time>
      </trkpt>
      <trkpt lat="48.72619" lon="2.48186">
        <ele>144.628</ele>
        <time>2018-12-12T14:01:07Z</time>
      </trkpt>
      <trkpt lat="48.72618" lon="2.48179">
        <ele>144.63</ele>
        <time>2018-12-12T14:01:10Z</time>
      </trkpt>
      <trkpt lat="48.72618" lon="2.48171">
        <ele>144.634</ele>
        <time>2018-12-12T14:01:16Z</time>
      </trkpt>
      <trkpt lat="48.72618" lon="2.48167">
        <ele>144.634</ele>
        <time>2018-12-12T14:01:19Z</time>
      </trkpt>
      <trkpt lat="48.72616" lon="2.48159">
        <ele>144.632</ele>
        <time>2018-12-12T14:01:24Z</time>
      </trkpt>
      <trkpt lat="48.72613" lon="2.48152">
        <ele>144.627</ele>
        <time>2018-12-12T14:01:29Z</time>
      </trkpt>
      <trkpt lat="48.7261" lon="2.48143">
        <ele>144.625</ele>
        <time>2018-12-12T14:01:33Z</time>
      </trkpt>
      <trkpt lat="48.72609" lon="2.48139">
        <ele>144.624</ele>
        <time>2018-12-12T14:01:36Z</time>
      </trkpt>
      <trkpt lat="48.72609" lon="2.48131">
        <ele>144.626</ele>
        <time>2018-12-12T14:01:40Z</time>
      </trkpt>
      <trkpt lat="48.72608" lon="2.48126">
        <ele>144.629</ele>
        <time>2018-12-12T14:01:42Z</time>
      </trkpt>
      <trkpt lat="48.72606" lon="2.48118">
        <ele>144.635</ele>
        <time>2018-12-12T14:01:45Z</time>
      </trkpt>
      <trkpt lat="48.72605" lon="2.48111">
        <ele>144.64</ele>
        <time>2018-12-12T14:01:48Z</time>
      </trkpt>
      <trkpt lat="48.72602" lon="2.48105">
        <ele>144.644</ele>
        <time>2018-12-12T14:01:53Z</time>
      </trkpt>
      <trkpt lat="48.72601" lon="2.48099">
        <ele>144.642</ele>
        <time>2018-12-12T14:01:56Z</time>
      </trkpt>
      <trkpt lat="48.72599" lon="2.4809">
        <ele>144.641</ele>
        <time>2018-12-12T14:02:02Z</time>
      </trkpt>
      <trkpt lat="48.72598" lon="2.48083">
        <ele>144.635</ele>
        <time>2018-12-12T14:02:07Z</time>
      </trkpt>
      <trkpt lat="48.72598" lon="2.4808">
        <ele>144.63</ele>
        <time>2018-12-12T14:02:09Z</time>
      </trkpt>
      <trkpt lat="48.72595" lon="2.48071">
        <ele>144.617</ele>
        <time>2018-12-12T14:02:13Z</time>
      </trkpt>
      <trkpt lat="48.72593" lon="2.48065">
        <ele>144.604</ele>
        <time>2018-12-12T14:02:17Z</time>
      </trkpt>
      <trkpt lat="48.72592" lon="2.4806">
        <ele>144.591</ele>
        <time>2018-12-12T14:02:21Z</time>
      </trkpt>
      <trkpt lat="48.7259" lon="2.48053">
        <ele>144.575</ele>
        <time>2018-12-12T14:02:25Z</time>
      </trkpt>
      <trkpt lat="48.7259" lon="2.48046">
        <ele>144.55</ele>
        <time>2018-12-12T14:02:31Z</time>
      </trkpt>
      <trkpt lat="48.72589" lon="2.48039">
        <ele>144.53</ele>
        <time>2018-12-12T14:02:35Z</time>
      </trkpt>
      <trkpt lat="48.72588" lon="2.48035">
        <ele>144.52</ele>
        <time>2018-12-12T14:02:37Z</time>
      </trkpt>
      <trkpt lat="48.72588" lon="2.48027">
        <ele>144.502</ele>
        <time>2018-12-12T14:02:40Z</time>
      </trkpt>
      <trkpt lat="48.72586" lon="2.48018">
        <ele>144.473</ele>
        <time>2018-12-12T14:02:44Z</time>
      </trkpt>
      <trkpt lat="48.72586" lon="2.4801">
        <ele>144.441</ele>
        <time>2018-12-12T14:02:48Z</time>
      </trkpt>
      <trkpt lat="48.72586" lon="2.48002">
        <ele>144.42</ele>
        <time>2018-12-12T14:02:51Z</time>
      </trkpt>
      <trkpt lat="48.72584" lon="2.47996">
        <ele>144.389</ele>
        <time>2018-12-12T14:02:56Z</time>
      </trkpt>
      <trkpt lat="48.72583" lon="2.47992">
        <ele>144.372</ele>
        <time>2018-12-12T14:02:59Z</time>
      </trkpt>
      <trkpt lat="48.72581" lon="2.47986">
        <ele>144.35</ele>
        <time>2018-12-12T14:03:03Z</time>
      </trkpt>
      <trkpt lat="48.72581" lon="2.47978">
        <ele>144.323</ele>
        <time>2018-12-12T14:03:07Z</time>
      </trkpt>
      <trkpt lat="48.7258" lon="2.47971">
        <ele>144.297</ele>
        <time>2018-12-12T14:03:11Z</time>
      </trkpt>
      <trkpt lat="48.72579" lon="2.47963">
        <ele>144.265</ele>
        <time>2018-12-12T14:03:16Z</time>
      </trkpt>
      <trkpt lat="48.72579" lon="2.4796">
        <ele>144.246</ele>
        <time>2018-12-12T14:03:19Z</time>
      </trkpt>
      <trkpt lat="48.72578" lon="2.47956">
        <ele>144.233</ele>
        <time>2018-12-12T14:03:21Z</time>
      </trkpt>
      <trkpt lat="48.72577" lon="2.47948">
        <ele>144.202</ele>
        <time>2018-12-12T14:03:26Z</time>
      </trkpt>
      <trkpt lat="48.72576" lon="2.47944">
        <ele>144.19</ele>
        <time>2018-12-12T14:03:28Z</time>
      </trkpt>
      <trkpt lat="48.72575" lon="2.47936">
        <ele>144.17</ele>
        <time>2018-12-12T14:03:31Z</time>
      </trkpt>
      <trkpt lat="48.72573" lon="2.47926">
        <ele>144.134</ele>
        <time>2018-12-12T14:03:36Z</time>
      </trkpt>
      <trkpt lat="48.72572" lon="2.47917">
        <ele>144.093</ele>
        <time>2018-12-12T14:03:42Z</time>
      </trkpt>
      <trkpt lat="48.7257" lon="2.47909">
        <ele>144.07</ele>
        <time>2018-12-12T14:03:46Z</time>
      </trkpt>
      <trkpt lat="48.72569" lon="2.47902">
        <ele>144.046</ele>
        <time>2018-12-12T14:03:51Z</time>
      </trkpt>
      <trkpt lat="48.72566" lon="2.47895">
        <ele>144.022</ele>
        <time>2018-12-12T14:03:56Z</time>
      </trkpt>
      <trkpt lat="48.72564" lon="2.47887">
        <ele>143.994</ele>
        <time>2018-12-12T14:04:01Z</time>
      </trkpt>
      <trkpt lat="48.72561" lon="2.4788">
        <ele>143.978</ele>
        <time>2018-12-12T14:04:04Z</time>
      </trkpt>
      <trkpt lat="48.72559" lon="2.47874">
        <ele>143.963</ele>
        <time>2018-12-12T14:04:07Z</time>
      </trkpt>
      <trkpt lat="48.72558" lon="2.47868">
        <ele>143.947</ele>
        <time>2018-12-12T14:04:10Z</time>
      </trkpt>
      <trkpt lat="48.72556" lon="2.47861">
        <ele>143.923</ele>
        <time>2018-12-12T14:04:14Z</time>
      </trkpt>
      <trkpt lat="48.72555" lon="2.47856">
        <ele>143.902</ele>
        <time>2018-12-12T14:04:17Z</time>
      </trkpt>
      <trkpt lat="48.72554" lon="2.47849">
        <ele>143.862</ele>
        <time>2018-12-12T14:04:23Z</time>
      </trkpt>
      <trkpt lat="48.72554" lon="2.47842">
        <ele>143.827</ele>
        <time>2018-12-12T14:04:27Z</time>
      </trkpt>
      <trkpt lat="48.72553" lon="2.47834">
        <ele>143.772</ele>
        <time>2018-12-12T14:04:33Z</time>
      </trkpt>
      <trkpt lat="48.72553" lon="2.47826">
        <ele>143.736</ele>
        <time>2018-12-12T14:04:37Z</time>
      </trkpt>
      <trkpt lat="48.72551" lon="2.47819">
        <ele>143.702</ele>
        <time>2018-12-12T14:04:41Z</time>
      </trkpt>
      <trkpt lat="48.72548" lon="2.47812">
        <ele>143.677</ele>
        <time>2018-12-12T14:04:44Z</time>
      </trkpt>
      <trkpt lat="48.72547" lon="2.47804">
        <ele>143.651</ele>
        <time>2018-12-12T14:04:47Z</time>
      </trkpt>
      <trkpt lat="48.72544" lon="2.47796">
        <ele>143.618</ele>
        <time>2018-12-12T14:04:51Z</time>
      </trkpt>
      <trkpt lat="48.72542" lon="2.47789">
        <ele>143.586</ele>
        <time>2018-12-12T14:04:55Z</time>
      </trkpt>
      <trkpt lat="48.72541" lon="2.47785">
        <ele>143.562</ele>
        <time>2018-12-12T14:04:58Z</time>
      </trkpt>
      <trkpt lat="48.72538" lon="2.47779">
        <ele>143.534</ele>
        <time>2018-12-12T14:05:02Z</time>
      </trkpt>
      <trkpt lat="48.72537" lon="2.47771">
        <ele>143.504</ele>
        <time>2018-12-12T14:05:07Z</time>
      </trkpt>
      <trkpt lat="48.72536" lon="2.47763">
        <ele>143.481</ele>
        <time>2018-12-12T14:05:11Z</time>
      </trkpt>
      <trkpt lat="48.72535" lon="2.47759">
        <ele>143.47</ele>
        <time>2018-12-12T14:05:13Z</time>
      </trkpt>
      <trkpt lat="48.72535" lon="2.47755">
        <ele>143.459</ele>
        <time>2018-12-12T14:05:15Z</time>
      </trkpt>
      <trkpt lat="48.72536" lon="2.47747">
        <ele>143.443</ele>
        <time>2018-12-12T14:05:18Z</time>
      </trkpt>
      <trkpt lat="48.72538" lon="2.47742">
        <ele>143.433</ele>
        <time>2018-12-12T14:05:20Z</time>
      </trkpt>
      <trkpt lat="48.72537" lon="2.47731">
        <ele>143.42</ele>
        <time>2018-12-12T14:05:23Z</time>
      </trkpt>
      <trkpt lat="48.72536" lon="2.47723">
        <ele>143.409</ele>
        <time>2018-12-12T14:05:28Z</time>
      </trkpt>
      <trkpt lat="48.72534" lon="2.47717">
        <ele>143.401</ele>
        <time>2018-12-12T14:05:32Z</time>
      </trkpt>
      <trkpt lat="48.72533" lon="2.47709">
        <ele>143.388</ele>
        <time>2018-12-12T14:05:37Z</time>
      </trkpt>
      <trkpt lat="48.72533" lon="2.47702">
        <ele>143.379</ele>
        <time>2018-12-12T14:05:40Z</time>
      </trkpt>
      <trkpt lat="48.7253" lon="2.47695">
        <ele>143.37</ele>
        <time>2018-12-12T14:05:43Z</time>
      </trkpt>
      <trkpt lat="48.72527" lon="2.47688">
        <ele>143.358</ele>
        <time>2018-12-12T14:05:47Z</time>
      </trkpt>
      <trkpt lat="48.72526" lon="2.47685">
        <ele>143.351</ele>
        <time>2018-12-12T14:05:49Z</time>
      </trkpt>
      <trkpt lat="48.72525" lon="2.47682">
        <ele>143.346</ele>
        <time>2018-12-12T14:05:51Z</time>
      </trkpt>
      <trkpt lat="48.72523" lon="2.47675">
        <ele>143.339</ele>
        <time>2018-12-12T14:05:54Z</time>
      </trkpt>
      <trkpt lat="48.72522" lon="2.47672">
        <ele>143.338</ele>
        <time>2018-12-12T14:05:55Z</time>
      </trkpt>
      <trkpt lat="48.72521" lon="2.47668">
        <ele>143.336</ele>
        <time>2018-12-12T14:05:57Z</time>
      </trkpt>
      <trkpt lat="48.72521" lon="2.47664">
        <ele>143.334</ele>
        <time>2018-12-12T14:05:59Z</time>
      </trkpt>
      <trkpt lat="48.72517" lon="2.47657">
        <ele>143.333</ele>
        <time>2018-12-12T14:06:03Z</time>
      </trkpt>
      <trkpt lat="48.72515" lon="2.47654">
        <ele>143.333</ele>
        <time>2018-12-12T14:06:05Z</time>
      </trkpt>
      <trkpt lat="48.72513" lon="2.47647">
        <ele>143.334</ele>
        <time>2018-12-12T14:06:09Z</time>
      </trkpt>
      <trkpt lat="48.72511" lon="2.47642">
        <ele>143.335</ele>
        <time>2018-12-12T14:06:11Z</time>
      </trkpt>
      <trkpt lat="48.72509" lon="2.47639">
        <ele>143.335</ele>
        <time>2018-12-12T14:06:13Z</time>
      </trkpt>
      <trkpt lat="48.72508" lon="2.47635">
        <ele>143.334</ele>
        <time>2018-12-12T14:06:15Z</time>
      </trkpt>
      <trkpt lat="48.72507" lon="2.47631">
        <ele>143.334</ele>
        <time>2018-12-12T14:06:18Z</time>
      </trkpt>
      <trkpt lat="48.72502" lon="2.4763">
        <ele>143.334</ele>
        <time>2018-12-12T14:06:22Z</time>
      </trkpt>
      <trkpt lat="48.72497" lon="2.47632">
        <ele>143.333</ele>
        <time>2018-12-12T14:06:25Z</time>
      </trkpt>
      <trkpt lat="48.72493" lon="2.47634">
        <ele>143.325</ele>
        <time>2018-12-12T14:06:31Z</time>
      </trkpt>
      <trkpt lat="48.72488" lon="2.47635">
        <ele>143.314</ele>
        <time>2018-12-12T14:06:37Z</time>
      </trkpt>
      <trkpt lat="48.72483" lon="2.47636">
        <ele>143.306</ele>
        <time>2018-12-12T14:06:41Z</time>
      </trkpt>
      <trkpt lat="48.7248" lon="2.47638">
        <ele>143.302</ele>
        <time>2018-12-12T14:06:43Z</time>
      </trkpt>
      <trkpt lat="48.72477" lon="2.47639">
        <ele>143.297</ele>
        <time>2018-12-12T14:06:45Z</time>
      </trkpt>
      <trkpt lat="48.72471" lon="2.47641">
        <ele>143.289</ele>
        <time>2018-12-12T14:06:48Z</time>
      </trkpt>
      <trkpt lat="48.72466" lon="2.47643">
        <ele>143.281</ele>
        <time>2018-12-12T14:06:51Z</time>
      </trkpt>
      <trkpt lat="48.72461" lon="2.47645">
        <ele>143.276</ele>
        <time>2018-12-12T14:06:55Z</time>
      </trkpt>
      <trkpt lat="48.72456" lon="2.47646">
        <ele>143.271</ele>
        <time>2018-12-12T14:07:00Z</time>
      </trkpt>
      <trkpt lat="48.72453" lon="2.47647">
        <ele>143.268</ele>
        <time>2018-12-12T14:07:02Z</time>
      </trkpt>
      <trkpt lat="48.72449" lon="2.4765">
        <ele>143.264</ele>
        <time>2018-12-12T14:07:06Z</time>
      </trkpt>
      <trkpt lat="48.72442" lon="2.47652">
        <ele>143.261</ele>
        <time>2018-12-12T14:07:10Z</time>
      </trkpt>
      <trkpt lat="48.72438" lon="2.47655">
        <ele>143.263</ele>
        <time>2018-12-12T14:07:13Z</time>
      </trkpt>
      <trkpt lat="48.72435" lon="2.47658">
        <ele>143.265</ele>
        <time>2018-12-12T14:07:16Z</time>
      </trkpt>
      <trkpt lat="48.7243" lon="2.4766">
        <ele>143.27</ele>
        <time>2018-12-12T14:07:21Z</time>
      </trkpt>
      <trkpt lat="48.72425" lon="2.47662">
        <ele>143.273</ele>
        <time>2018-12-12T14:07:25Z</time>
      </trkpt>
      <trkpt lat="48.72421" lon="2.47664">
        <ele>143.279</ele>
        <time>2018-12-12T14:07:29Z</time>
      </trkpt>
      <trkpt lat="48.72419" lon="2.47664">
        <ele>143.284</ele>
        <time>2018-12-12T14:07:32Z</time>
      </trkpt>
      <trkpt lat="48.72416" lon="2.47666">
        <ele>143.286</ele>
        <time>2018-12-12T14:07:34Z</time>
      </trkpt>
      <trkpt lat="48.72413" lon="2.47667">
        <ele>143.286</ele>
        <time>2018-12-12T14:07:37Z</time>
      </trkpt>
      <trkpt lat="48.72411" lon="2.47667">
        <ele>143.282</ele>
        <time>2018-12-12T14:07:42Z</time>
      </trkpt>
      <trkpt lat="48.72409" lon="2.47668">
        <ele>143.281</ele>
        <time>2018-12-12T14:07:44Z</time>
      </trkpt>
      <trkpt lat="48.72404" lon="2.47668">
        <ele>143.278</ele>
        <time>2018-12-12T14:07:50Z</time>
      </trkpt>
      <trkpt lat="48.724" lon="2.47666">
        <ele>143.275</ele>
        <time>2018-12-12T14:07:56Z</time>
      </trkpt>
      <trkpt lat="48.72394" lon="2.47664">
        <ele>143.263</ele>
        <time>2018-12-12T14:08:04Z</time>
      </trkpt>
      <trkpt lat="48.72392" lon="2.47662">
        <ele>143.261</ele>
        <time>2018-12-12T14:08:05Z</time>
      </trkpt>
      <trkpt lat="48.72386" lon="2.47663">
        <ele>143.253</ele>
        <time>2018-12-12T14:08:09Z</time>
      </trkpt>
      <trkpt lat="48.72382" lon="2.47663">
        <ele>143.248</ele>
        <time>2018-12-12T14:08:11Z</time>
      </trkpt>
      <trkpt lat="48.72378" lon="2.47665">
        <ele>143.241</ele>
        <time>2018-12-12T14:08:14Z</time>
      </trkpt>
      <trkpt lat="48.72372" lon="2.47669">
        <ele>143.237</ele>
        <time>2018-12-12T14:08:19Z</time>
      </trkpt>
      <trkpt lat="48.7237" lon="2.4767">
        <ele>143.234</ele>
        <time>2018-12-12T14:08:22Z</time>
      </trkpt>
      <trkpt lat="48.72365" lon="2.47671">
        <ele>143.231</ele>
        <time>2018-12-12T14:08:27Z</time>
      </trkpt>
      <trkpt lat="48.72362" lon="2.47671">
        <ele>143.228</ele>
        <time>2018-12-12T14:08:30Z</time>
      </trkpt>
      <trkpt lat="48.7236" lon="2.47672">
        <ele>143.227</ele>
        <time>2018-12-12T14:08:34Z</time>
      </trkpt>
      <trkpt lat="48.72355" lon="2.47672">
        <ele>143.226</ele>
        <time>2018-12-12T14:08:38Z</time>
      </trkpt>
      <trkpt lat="48.7235" lon="2.47675">
        <ele>143.226</ele>
        <time>2018-12-12T14:08:43Z</time>
      </trkpt>
      <trkpt lat="48.72345" lon="2.47677">
        <ele>143.223</ele>
        <time>2018-12-12T14:08:46Z</time>
      </trkpt>
      <trkpt lat="48.72338" lon="2.47675">
        <ele>143.218</ele>
        <time>2018-12-12T14:08:49Z</time>
      </trkpt>
      <trkpt lat="48.72335" lon="2.47674">
        <ele>143.216</ele>
        <time>2018-12-12T14:08:50Z</time>
      </trkpt>
      <trkpt lat="48.72332" lon="2.47674">
        <ele>143.214</ele>
        <time>2018-12-12T14:08:54Z</time>
      </trkpt>
      <trkpt lat="48.72327" lon="2.47675">
        <ele>143.216</ele>
        <time>2018-12-12T14:08:57Z</time>
      </trkpt>
      <trkpt lat="48.72322" lon="2.47675">
        <ele>143.22</ele>
        <time>2018-12-12T14:09:00Z</time>
      </trkpt>
      <trkpt lat="48.72317" lon="2.47676">
        <ele>143.222</ele>
        <time>2018-12-12T14:09:02Z</time>
      </trkpt>
      <trkpt lat="48.72313" lon="2.47678">
        <ele>143.221</ele>
        <time>2018-12-12T14:09:05Z</time>
      </trkpt>
      <trkpt lat="48.7231" lon="2.47679">
        <ele>143.219</ele>
        <time>2018-12-12T14:09:08Z</time>
      </trkpt>
      <trkpt lat="48.72306" lon="2.47683">
        <ele>143.217</ele>
        <time>2018-12-12T14:09:13Z</time>
      </trkpt>
      <trkpt lat="48.72301" lon="2.47684">
        <ele>143.218</ele>
        <time>2018-12-12T14:09:18Z</time>
      </trkpt>
      <trkpt lat="48.72296" lon="2.47688">
        <ele>143.217</ele>
        <time>2018-12-12T14:09:22Z</time>
      </trkpt>
      <trkpt lat="48.72291" lon="2.47691">
        <ele>143.213</ele>
        <time>2018-12-12T14:09:25Z</time>
      </trkpt>
      <trkpt lat="48.72289" lon="2.47698">
        <ele>143.199</ele>
        <time>2018-12-12T14:09:30Z</time>
      </trkpt>
      <trkpt lat="48.72285" lon="2.47702">
        <ele>143.179</ele>
        <time>2018-12-12T14:09:35Z</time>
      </trkpt>
      <trkpt lat="48.7228" lon="2.47705">
        <ele>143.16</ele>
        <time>2018-12-12T14:09:39Z</time>
      </trkpt>
      <trkpt lat="48.72278" lon="2.47707">
        <ele>143.144</ele>
        <time>2018-12-12T14:09:43Z</time>
      </trkpt>
      <trkpt lat="48.72278" lon="2.47707">
        <ele>91.4</ele>
        <time>2018-12-12T14:09:50Z</time>
      </trkpt>
      <trkpt lat="48.72278" lon="2.47707">
        <ele>91.4</ele>
        <time>2018-12-12T14:09:56Z</time>
      </trkpt>
      <trkpt lat="48.72274" lon="2.47714">
        <ele>143.085</ele>
        <time>2018-12-12T14:09:56Z</time>
      </trkpt>
      <trkpt lat="48.72272" lon="2.47716">
        <ele>143.07</ele>
        <time>2018-12-12T14:09:59Z</time>
      </trkpt>
      <trkpt lat="48.72269" lon="2.47718">
        <ele>143.059</ele>
        <time>2018-12-12T14:10:03Z</time>
      </trkpt>
      <trkpt lat="48.72265" lon="2.47722">
        <ele>143.052</ele>
        <time>2018-12-12T14:10:07Z</time>
      </trkpt>
      <trkpt lat="48.7226" lon="2.47726">
        <ele>143.052</ele>
        <time>2018-12-12T14:10:11Z</time>
      </trkpt>
      <trkpt lat="48.72254" lon="2.47729">
        <ele>143.058</ele>
        <time>2018-12-12T14:10:15Z</time>
      </trkpt>
      <trkpt lat="48.72252" lon="2.4773">
        <ele>143.062</ele>
        <time>2018-12-12T14:10:17Z</time>
      </trkpt>
      <trkpt lat="48.72247" lon="2.47732">
        <ele>143.069</ele>
        <time>2018-12-12T14:10:21Z</time>
      </trkpt>
      <trkpt lat="48.72244" lon="2.47734">
        <ele>143.073</ele>
        <time>2018-12-12T14:10:24Z</time>
      </trkpt>
      <trkpt lat="48.7224" lon="2.47739">
        <ele>143.081</ele>
        <time>2018-12-12T14:10:30Z</time>
      </trkpt>
      <trkpt lat="48.7224" lon="2.47739">
        <ele>93</ele>
        <time>2018-12-12T14:10:38Z</time>
      </trkpt>
      <trkpt lat="48.7224" lon="2.47739">
        <ele>93</ele>
        <time>2018-12-12T14:12:57Z</time>
      </trkpt>
      <trkpt lat="48.72261" lon="2.47751">
        <ele>143.312</ele>
        <time>2018-12-12T14:12:57Z</time>
      </trkpt>
      <trkpt lat="48.72261" lon="2.47751">
        <ele>143.312</ele>
        <time>2018-12-12T14:13:05Z</time>
      </trkpt>
      <trkpt lat="48.72261" lon="2.47751">
        <ele>93</ele>
        <time>2018-12-12T14:13:05Z</time>
      </trkpt>
      <trkpt lat="48.72261" lon="2.47751">
        <ele>93</ele>
        <time>2018-12-12T14:15:53Z</time>
      </trkpt>
      <trkpt lat="48.7224" lon="2.47756">
        <ele>144.299</ele>
        <time>2018-12-12T14:15:53Z</time>
      </trkpt>
      <trkpt lat="48.72238" lon="2.47757">
        <ele>144.323</ele>
        <time>2018-12-12T14:15:55Z</time>
      </trkpt>
      <trkpt lat="48.72233" lon="2.47759">
        <ele>144.357</ele>
        <time>2018-12-12T14:15:58Z</time>
      </trkpt>
      <trkpt lat="48.7223" lon="2.4776">
        <ele>144.382</ele>
        <time>2018-12-12T14:16:00Z</time>
      </trkpt>
      <trkpt lat="48.72224" lon="2.47759">
        <ele>144.421</ele>
        <time>2018-12-12T14:16:03Z</time>
      </trkpt>
      <trkpt lat="48.7222" lon="2.47761">
        <ele>144.461</ele>
        <time>2018-12-12T14:16:06Z</time>
      </trkpt>
      <trkpt lat="48.7221" lon="2.47757">
        <ele>144.533</ele>
        <time>2018-12-12T14:16:12Z</time>
      </trkpt>
      <trkpt lat="48.72206" lon="2.47751">
        <ele>144.589</ele>
        <time>2018-12-12T14:16:17Z</time>
      </trkpt>
      <trkpt lat="48.72201" lon="2.47751">
        <ele>144.666</ele>
        <time>2018-12-12T14:16:23Z</time>
      </trkpt>
      <trkpt lat="48.72199" lon="2.47751">
        <ele>144.708</ele>
        <time>2018-12-12T14:16:26Z</time>
      </trkpt>
      <trkpt lat="48.72195" lon="2.47751">
        <ele>144.735</ele>
        <time>2018-12-12T14:16:28Z</time>
      </trkpt>
      <trkpt lat="48.72189" lon="2.47752">
        <ele>144.786</ele>
        <time>2018-12-12T14:16:32Z</time>
      </trkpt>
      <trkpt lat="48.72186" lon="2.47752">
        <ele>144.821</ele>
        <time>2018-12-12T14:16:35Z</time>
      </trkpt>
      <trkpt lat="48.72181" lon="2.4775">
        <ele>144.894</ele>
        <time>2018-12-12T14:16:41Z</time>
      </trkpt>
      <trkpt lat="48.72181" lon="2.4775">
        <ele>144.894</ele>
        <time>2018-12-12T14:16:48Z</time>
      </trkpt>
      <trkpt lat="48.72181" lon="2.4775">
        <ele>95</ele>
        <time>2018-12-12T14:16:48Z</time>
      </trkpt>
      <trkpt lat="48.72181" lon="2.4775">
        <ele>95</ele>
        <time>2018-12-12T14:17:01Z</time>
      </trkpt>
      <trkpt lat="48.72168" lon="2.47758">
        <ele>145.145</ele>
        <time>2018-12-12T14:17:01Z</time>
      </trkpt>
      <trkpt lat="48.72161" lon="2.47758">
        <ele>145.217</ele>
        <time>2018-12-12T14:17:06Z</time>
      </trkpt>
      <trkpt lat="48.72158" lon="2.47758">
        <ele>145.262</ele>
        <time>2018-12-12T14:17:09Z</time>
      </trkpt>
      <trkpt lat="48.72154" lon="2.4776">
        <ele>145.317</ele>
        <time>2018-12-12T14:17:13Z</time>
      </trkpt>
      <trkpt lat="48.72147" lon="2.47755">
        <ele>145.353</ele>
        <time>2018-12-12T14:17:16Z</time>
      </trkpt>
      <trkpt lat="48.72145" lon="2.47753">
        <ele>145.379</ele>
        <time>2018-12-12T14:17:18Z</time>
      </trkpt>
      <trkpt lat="48.7214" lon="2.47751">
        <ele>145.423</ele>
        <time>2018-12-12T14:17:21Z</time>
      </trkpt>
      <trkpt lat="48.72135" lon="2.47752">
        <ele>145.472</ele>
        <time>2018-12-12T14:17:25Z</time>
      </trkpt>
      <trkpt lat="48.72128" lon="2.47751">
        <ele>145.521</ele>
        <time>2018-12-12T14:17:28Z</time>
      </trkpt>
      <trkpt lat="48.72122" lon="2.47751">
        <ele>145.565</ele>
        <time>2018-12-12T14:17:31Z</time>
      </trkpt>
      <trkpt lat="48.72116" lon="2.47749">
        <ele>145.606</ele>
        <time>2018-12-12T14:17:34Z</time>
      </trkpt>
      <trkpt lat="48.72112" lon="2.47746">
        <ele>145.647</ele>
        <time>2018-12-12T14:17:37Z</time>
      </trkpt>
      <trkpt lat="48.72109" lon="2.47745">
        <ele>145.674</ele>
        <time>2018-12-12T14:17:39Z</time>
      </trkpt>
      <trkpt lat="48.72104" lon="2.47742">
        <ele>145.714</ele>
        <time>2018-12-12T14:17:42Z</time>
      </trkpt>
      <trkpt lat="48.72099" lon="2.47738">
        <ele>145.77</ele>
        <time>2018-12-12T14:17:46Z</time>
      </trkpt>
      <trkpt lat="48.72097" lon="2.47736">
        <ele>145.796</ele>
        <time>2018-12-12T14:17:48Z</time>
      </trkpt>
      <trkpt lat="48.72093" lon="2.47732">
        <ele>145.841</ele>
        <time>2018-12-12T14:17:52Z</time>
      </trkpt>
      <trkpt lat="48.7209" lon="2.4773">
        <ele>145.869</ele>
        <time>2018-12-12T14:17:55Z</time>
      </trkpt>
      <trkpt lat="48.72085" lon="2.47729">
        <ele>145.941</ele>
        <time>2018-12-12T14:18:02Z</time>
      </trkpt>
      <trkpt lat="48.72081" lon="2.47727">
        <ele>145.971</ele>
        <time>2018-12-12T14:18:05Z</time>
      </trkpt>
      <trkpt lat="48.72076" lon="2.47723">
        <ele>146.012</ele>
        <time>2018-12-12T14:18:09Z</time>
      </trkpt>
      <trkpt lat="48.72074" lon="2.47721">
        <ele>146.044</ele>
        <time>2018-12-12T14:18:12Z</time>
      </trkpt>
      <trkpt lat="48.72067" lon="2.47711">
        <ele>146.118</ele>
        <time>2018-12-12T14:18:19Z</time>
      </trkpt>
      <trkpt lat="48.72064" lon="2.47705">
        <ele>146.14</ele>
        <time>2018-12-12T14:18:21Z</time>
      </trkpt>
      <trkpt lat="48.7206" lon="2.47701">
        <ele>146.163</ele>
        <time>2018-12-12T14:18:23Z</time>
      </trkpt>
      <trkpt lat="48.72057" lon="2.47695">
        <ele>146.2</ele>
        <time>2018-12-12T14:18:26Z</time>
      </trkpt>
      <trkpt lat="48.72052" lon="2.4769">
        <ele>146.24</ele>
        <time>2018-12-12T14:18:29Z</time>
      </trkpt>
      <trkpt lat="48.72047" lon="2.47686">
        <ele>146.294</ele>
        <time>2018-12-12T14:18:33Z</time>
      </trkpt>
      <trkpt lat="48.72044" lon="2.47682">
        <ele>146.328</ele>
        <time>2018-12-12T14:18:36Z</time>
      </trkpt>
      <trkpt lat="48.72042" lon="2.4768">
        <ele>146.35</ele>
        <time>2018-12-12T14:18:38Z</time>
      </trkpt>
      <trkpt lat="48.7204" lon="2.47677">
        <ele>146.405</ele>
        <time>2018-12-12T14:18:43Z</time>
      </trkpt>
      <trkpt lat="48.72036" lon="2.47673">
        <ele>146.44</ele>
        <time>2018-12-12T14:18:47Z</time>
      </trkpt>
      <trkpt lat="48.72032" lon="2.47667">
        <ele>146.473</ele>
        <time>2018-12-12T14:18:50Z</time>
      </trkpt>
      <trkpt lat="48.72027" lon="2.47658">
        <ele>146.558</ele>
        <time>2018-12-12T14:18:58Z</time>
      </trkpt>
      <trkpt lat="48.72023" lon="2.47653">
        <ele>146.613</ele>
        <time>2018-12-12T14:19:03Z</time>
      </trkpt>
      <trkpt lat="48.72018" lon="2.4765">
        <ele>146.647</ele>
        <time>2018-12-12T14:19:06Z</time>
      </trkpt>
      <trkpt lat="48.72014" lon="2.47644">
        <ele>146.694</ele>
        <time>2018-12-12T14:19:10Z</time>
      </trkpt>
      <trkpt lat="48.7201" lon="2.4764">
        <ele>146.742</ele>
        <time>2018-12-12T14:19:15Z</time>
      </trkpt>
      <trkpt lat="48.72004" lon="2.47641">
        <ele>146.775</ele>
        <time>2018-12-12T14:19:18Z</time>
      </trkpt>
      <trkpt lat="48.72" lon="2.47638">
        <ele>146.811</ele>
        <time>2018-12-12T14:19:21Z</time>
      </trkpt>
      <trkpt lat="48.71995" lon="2.47634">
        <ele>146.861</ele>
        <time>2018-12-12T14:19:25Z</time>
      </trkpt>
      <trkpt lat="48.71992" lon="2.47629">
        <ele>146.895</ele>
        <time>2018-12-12T14:19:28Z</time>
      </trkpt>
      <trkpt lat="48.71988" lon="2.47625">
        <ele>146.929</ele>
        <time>2018-12-12T14:19:31Z</time>
      </trkpt>
      <trkpt lat="48.71985" lon="2.47621">
        <ele>146.966</ele>
        <time>2018-12-12T14:19:34Z</time>
      </trkpt>
      <trkpt lat="48.71982" lon="2.47619">
        <ele>146.994</ele>
        <time>2018-12-12T14:19:36Z</time>
      </trkpt>
      <trkpt lat="48.71979" lon="2.47614">
        <ele>147.051</ele>
        <time>2018-12-12T14:19:40Z</time>
      </trkpt>
      <trkpt lat="48.71975" lon="2.4761">
        <ele>147.104</ele>
        <time>2018-12-12T14:19:44Z</time>
      </trkpt>
      <trkpt lat="48.71971" lon="2.47604">
        <ele>147.151</ele>
        <time>2018-12-12T14:19:48Z</time>
      </trkpt>
      <trkpt lat="48.71969" lon="2.47601">
        <ele>147.173</ele>
        <time>2018-12-12T14:19:50Z</time>
      </trkpt>
      <trkpt lat="48.71966" lon="2.47596">
        <ele>147.216</ele>
        <time>2018-12-12T14:19:54Z</time>
      </trkpt>
      <trkpt lat="48.71963" lon="2.47588">
        <ele>147.279</ele>
        <time>2018-12-12T14:20:00Z</time>
      </trkpt>
      <trkpt lat="48.71962" lon="2.47584">
        <ele>147.322</ele>
        <time>2018-12-12T14:20:04Z</time>
      </trkpt>
      <trkpt lat="48.71957" lon="2.47584">
        <ele>147.37</ele>
        <time>2018-12-12T14:20:08Z</time>
      </trkpt>
      <trkpt lat="48.71951" lon="2.47588">
        <ele>147.399</ele>
        <time>2018-12-12T14:20:11Z</time>
      </trkpt>
      <trkpt lat="48.71948" lon="2.47593">
        <ele>147.416</ele>
        <time>2018-12-12T14:20:15Z</time>
      </trkpt>
      <trkpt lat="48.71948" lon="2.47593">
        <ele>147.416</ele>
        <time>2018-12-12T14:20:22Z</time>
      </trkpt>
      <trkpt lat="48.71948" lon="2.47593">
        <ele>89.5</ele>
        <time>2018-12-12T14:20:22Z</time>
      </trkpt>
      <trkpt lat="48.71948" lon="2.47593">
        <ele>89.5</ele>
        <time>2018-12-12T14:21:17Z</time>
      </trkpt>
      <trkpt lat="48.71934" lon="2.47581">
        <ele>147.126</ele>
        <time>2018-12-12T14:21:17Z</time>
      </trkpt>
      <trkpt lat="48.71931" lon="2.4758">
        <ele>147.111</ele>
        <time>2018-12-12T14:21:19Z</time>
      </trkpt>
      <trkpt lat="48.71927" lon="2.47579">
        <ele>147.097</ele>
        <time>2018-12-12T14:21:21Z</time>
      </trkpt>
      <trkpt lat="48.71922" lon="2.47578">
        <ele>147.07</ele>
        <time>2018-12-12T14:21:25Z</time>
      </trkpt>
      <trkpt lat="48.71917" lon="2.47575">
        <ele>147.046</ele>
        <time>2018-12-12T14:21:29Z</time>
      </trkpt>
      <trkpt lat="48.71915" lon="2.47574">
        <ele>147.034</ele>
        <time>2018-12-12T14:21:31Z</time>
      </trkpt>
      <trkpt lat="48.71909" lon="2.47573">
        <ele>147.011</ele>
        <time>2018-12-12T14:21:35Z</time>
      </trkpt>
      <trkpt lat="48.71904" lon="2.4757">
        <ele>146.986</ele>
        <time>2018-12-12T14:21:39Z</time>
      </trkpt>
      <trkpt lat="48.71901" lon="2.47568">
        <ele>146.972</ele>
        <time>2018-12-12T14:21:41Z</time>
      </trkpt>
      <trkpt lat="48.71897" lon="2.47564">
        <ele>146.941</ele>
        <time>2018-12-12T14:21:45Z</time>
      </trkpt>
      <trkpt lat="48.71892" lon="2.47561">
        <ele>146.907</ele>
        <time>2018-12-12T14:21:49Z</time>
      </trkpt>
      <trkpt lat="48.71888" lon="2.47559">
        <ele>146.884</ele>
        <time>2018-12-12T14:21:52Z</time>
      </trkpt>
      <trkpt lat="48.71884" lon="2.47557">
        <ele>146.847</ele>
        <time>2018-12-12T14:21:57Z</time>
      </trkpt>
      <trkpt lat="48.71878" lon="2.47559">
        <ele>146.804</ele>
        <time>2018-12-12T14:22:02Z</time>
      </trkpt>
      <trkpt lat="48.71873" lon="2.47558">
        <ele>146.765</ele>
        <time>2018-12-12T14:22:07Z</time>
      </trkpt>
      <trkpt lat="48.71868" lon="2.47554">
        <ele>146.743</ele>
        <time>2018-12-12T14:22:10Z</time>
      </trkpt>
      <trkpt lat="48.71863" lon="2.47551">
        <ele>146.71</ele>
        <time>2018-12-12T14:22:14Z</time>
      </trkpt>
      <trkpt lat="48.7186" lon="2.4755">
        <ele>146.683</ele>
        <time>2018-12-12T14:22:17Z</time>
      </trkpt>
      <trkpt lat="48.71855" lon="2.47548">
        <ele>146.648</ele>
        <time>2018-12-12T14:22:22Z</time>
      </trkpt>
      <trkpt lat="48.71847" lon="2.47544">
        <ele>146.617</ele>
        <time>2018-12-12T14:22:26Z</time>
      </trkpt>
      <trkpt lat="48.71843" lon="2.47541">
        <ele>146.6</ele>
        <time>2018-12-12T14:22:28Z</time>
      </trkpt>
      <trkpt lat="48.71839" lon="2.4754">
        <ele>146.583</ele>
        <time>2018-12-12T14:22:30Z</time>
      </trkpt>
      <trkpt lat="48.71836" lon="2.47538">
        <ele>146.552</ele>
        <time>2018-12-12T14:22:34Z</time>
      </trkpt>
      <trkpt lat="48.71834" lon="2.47537">
        <ele>146.541</ele>
        <time>2018-12-12T14:22:36Z</time>
      </trkpt>
      <trkpt lat="48.71828" lon="2.47536">
        <ele>146.522</ele>
        <time>2018-12-12T14:22:39Z</time>
      </trkpt>
      <trkpt lat="48.71825" lon="2.47534">
        <ele>146.508</ele>
        <time>2018-12-12T14:22:41Z</time>
      </trkpt>
      <trkpt lat="48.71822" lon="2.47533">
        <ele>146.492</ele>
        <time>2018-12-12T14:22:43Z</time>
      </trkpt>
      <trkpt lat="48.71817" lon="2.47532">
        <ele>146.458</ele>
        <time>2018-12-12T14:22:47Z</time>
      </trkpt>
      <trkpt lat="48.71814" lon="2.47532">
        <ele>146.44</ele>
        <time>2018-12-12T14:22:49Z</time>
      </trkpt>
      <trkpt lat="48.7181" lon="2.47531">
        <ele>146.414</ele>
        <time>2018-12-12T14:22:52Z</time>
      </trkpt>
      <trkpt lat="48.71805" lon="2.47529">
        <ele>146.385</ele>
        <time>2018-12-12T14:22:55Z</time>
      </trkpt>
      <trkpt lat="48.71802" lon="2.47528">
        <ele>146.365</ele>
        <time>2018-12-12T14:22:57Z</time>
      </trkpt>
      <trkpt lat="48.71799" lon="2.47527">
        <ele>146.345</ele>
        <time>2018-12-12T14:22:59Z</time>
      </trkpt>
      <trkpt lat="48.71795" lon="2.47526">
        <ele>146.305</ele>
        <time>2018-12-12T14:23:03Z</time>
      </trkpt>
      <trkpt lat="48.71793" lon="2.47526">
        <ele>146.285</ele>
        <time>2018-12-12T14:23:05Z</time>
      </trkpt>
      <trkpt lat="48.7179" lon="2.47526">
        <ele>146.255</ele>
        <time>2018-12-12T14:23:08Z</time>
      </trkpt>
      <trkpt lat="48.71784" lon="2.47526">
        <ele>146.208</ele>
        <time>2018-12-12T14:23:12Z</time>
      </trkpt>
      <trkpt lat="48.71781" lon="2.47526">
        <ele>146.182</ele>
        <time>2018-12-12T14:23:14Z</time>
      </trkpt>
      <trkpt lat="48.71781" lon="2.47526">
        <ele>85</ele>
        <time>2018-12-12T14:23:22Z</time>
      </trkpt>
      <trkpt lat="48.71781" lon="2.47526">
        <ele>85</ele>
        <time>2018-12-12T14:23:25Z</time>
      </trkpt>
      <trkpt lat="48.71776" lon="2.47526">
        <ele>146.033</ele>
        <time>2018-12-12T14:23:25Z</time>
      </trkpt>
      <trkpt lat="48.71774" lon="2.47526">
        <ele>145.967</ele>
        <time>2018-12-12T14:23:29Z</time>
      </trkpt>
      <trkpt lat="48.71771" lon="2.47526">
        <ele>145.898</ele>
        <time>2018-12-12T14:23:33Z</time>
      </trkpt>
      <trkpt lat="48.71767" lon="2.47527">
        <ele>145.847</ele>
        <time>2018-12-12T14:23:36Z</time>
      </trkpt>
      <trkpt lat="48.71763" lon="2.47527">
        <ele>145.796</ele>
        <time>2018-12-12T14:23:39Z</time>
      </trkpt>
      <trkpt lat="48.71758" lon="2.47528">
        <ele>145.693</ele>
        <time>2018-12-12T14:23:45Z</time>
      </trkpt>
      <trkpt lat="48.71755" lon="2.47528">
        <ele>145.645</ele>
        <time>2018-12-12T14:23:48Z</time>
      </trkpt>
      <trkpt lat="48.71752" lon="2.47529">
        <ele>145.612</ele>
        <time>2018-12-12T14:23:50Z</time>
      </trkpt>
      <trkpt lat="48.71749" lon="2.47533">
        <ele>145.559</ele>
        <time>2018-12-12T14:23:54Z</time>
      </trkpt>
      <trkpt lat="48.71744" lon="2.47536">
        <ele>145.489</ele>
        <time>2018-12-12T14:23:57Z</time>
      </trkpt>
      <trkpt lat="48.7174" lon="2.47538">
        <ele>145.364</ele>
        <time>2018-12-12T14:24:01Z</time>
      </trkpt>
      <trkpt lat="48.71735" lon="2.47542">
        <ele>145.07</ele>
        <time>2018-12-12T14:24:08Z</time>
      </trkpt>
      <trkpt lat="48.71733" lon="2.47544">
        <ele>144.934</ele>
        <time>2018-12-12T14:24:11Z</time>
      </trkpt>
      <trkpt lat="48.71729" lon="2.47551">
        <ele>144.625</ele>
        <time>2018-12-12T14:24:17Z</time>
      </trkpt>
      <trkpt lat="48.71725" lon="2.47556">
        <ele>144.276</ele>
        <time>2018-12-12T14:24:23Z</time>
      </trkpt>
      <trkpt lat="48.71723" lon="2.47558">
        <ele>144.015</ele>
        <time>2018-12-12T14:24:27Z</time>
      </trkpt>
      <trkpt lat="48.71718" lon="2.47562">
        <ele>143.655</ele>
        <time>2018-12-12T14:24:32Z</time>
      </trkpt>
      <trkpt lat="48.71716" lon="2.47564">
        <ele>143.505</ele>
        <time>2018-12-12T14:24:34Z</time>
      </trkpt>
      <trkpt lat="48.71712" lon="2.47566">
        <ele>143.197</ele>
        <time>2018-12-12T14:24:38Z</time>
      </trkpt>
      <trkpt lat="48.71707" lon="2.47568">
        <ele>142.71</ele>
        <time>2018-12-12T14:24:44Z</time>
      </trkpt>
      <trkpt lat="48.71703" lon="2.47571">
        <ele>142.026</ele>
        <time>2018-12-12T14:24:52Z</time>
      </trkpt>
      <trkpt lat="48.717" lon="2.47573">
        <ele>141.478</ele>
        <time>2018-12-12T14:24:58Z</time>
      </trkpt>
      <trkpt lat="48.71697" lon="2.47574">
        <ele>140.248</ele>
        <time>2018-12-12T14:25:12Z</time>
      </trkpt>
      <trkpt lat="48.71694" lon="2.47579">
        <ele>139.898</ele>
        <time>2018-12-12T14:25:16Z</time>
      </trkpt>
      <trkpt lat="48.71688" lon="2.47583">
        <ele>139.477</ele>
        <time>2018-12-12T14:25:21Z</time>
      </trkpt>
      <trkpt lat="48.71683" lon="2.47583">
        <ele>139.232</ele>
        <time>2018-12-12T14:25:24Z</time>
      </trkpt>
      <trkpt lat="48.71677" lon="2.47585">
        <ele>138.917</ele>
        <time>2018-12-12T14:25:28Z</time>
      </trkpt>
      <trkpt lat="48.71674" lon="2.47587">
        <ele>138.603</ele>
        <time>2018-12-12T14:25:32Z</time>
      </trkpt>
      <trkpt lat="48.71669" lon="2.47589">
        <ele>138.365</ele>
        <time>2018-12-12T14:25:35Z</time>
      </trkpt>
      <trkpt lat="48.71665" lon="2.4759">
        <ele>138.038</ele>
        <time>2018-12-12T14:25:39Z</time>
      </trkpt>
      <trkpt lat="48.71667" lon="2.47605">
        <ele>136.814</ele>
        <time>2018-12-12T14:25:53Z</time>
      </trkpt>
      <trkpt lat="48.71668" lon="2.47612">
        <ele>136.444</ele>
        <time>2018-12-12T14:25:57Z</time>
      </trkpt>
      <trkpt lat="48.71669" lon="2.47616">
        <ele>136.259</ele>
        <time>2018-12-12T14:25:59Z</time>
      </trkpt>
      <trkpt lat="48.71671" lon="2.47621">
        <ele>135.982</ele>
        <time>2018-12-12T14:26:02Z</time>
      </trkpt>
      <trkpt lat="48.71672" lon="2.47628">
        <ele>135.801</ele>
        <time>2018-12-12T14:26:04Z</time>
      </trkpt>
      <trkpt lat="48.71676" lon="2.47635">
        <ele>135.532</ele>
        <time>2018-12-12T14:26:07Z</time>
      </trkpt>
      <trkpt lat="48.71678" lon="2.47642">
        <ele>135.079</ele>
        <time>2018-12-12T14:26:12Z</time>
      </trkpt>
      <trkpt lat="48.71679" lon="2.47646">
        <ele>134.809</ele>
        <time>2018-12-12T14:26:15Z</time>
      </trkpt>
      <trkpt lat="48.71682" lon="2.47651">
        <ele>134.255</ele>
        <time>2018-12-12T14:26:21Z</time>
      </trkpt>
      <trkpt lat="48.71684" lon="2.47658">
        <ele>133.781</ele>
        <time>2018-12-12T14:26:26Z</time>
      </trkpt>
      <trkpt lat="48.71684" lon="2.47665">
        <ele>133.4</ele>
        <time>2018-12-12T14:26:30Z</time>
      </trkpt>
      <trkpt lat="48.71685" lon="2.47669">
        <ele>133.208</ele>
        <time>2018-12-12T14:26:32Z</time>
      </trkpt>
      <trkpt lat="48.71685" lon="2.47669">
        <ele>133.208</ele>
        <time>2018-12-12T14:26:38Z</time>
      </trkpt>
      <trkpt lat="48.71685" lon="2.47669">
        <ele>60.5</ele>
        <time>2018-12-12T14:26:38Z</time>
      </trkpt>
      <trkpt lat="48.71685" lon="2.47669">
        <ele>60.5</ele>
        <time>2018-12-12T14:26:52Z</time>
      </trkpt>
      <trkpt lat="48.71696" lon="2.47685">
        <ele>131.374</ele>
        <time>2018-12-12T14:26:52Z</time>
      </trkpt>
      <trkpt lat="48.71696" lon="2.47692">
        <ele>131.032</ele>
        <time>2018-12-12T14:26:56Z</time>
      </trkpt>
      <trkpt lat="48.71698" lon="2.47699">
        <ele>130.68</ele>
        <time>2018-12-12T14:27:01Z</time>
      </trkpt>
      <trkpt lat="48.717" lon="2.47707">
        <ele>130.349</ele>
        <time>2018-12-12T14:27:05Z</time>
      </trkpt>
      <trkpt lat="48.717" lon="2.47712">
        <ele>130.187</ele>
        <time>2018-12-12T14:27:07Z</time>
      </trkpt>
      <trkpt lat="48.71703" lon="2.47717">
        <ele>129.948</ele>
        <time>2018-12-12T14:27:10Z</time>
      </trkpt>
      <trkpt lat="48.71704" lon="2.47726">
        <ele>129.639</ele>
        <time>2018-12-12T14:27:14Z</time>
      </trkpt>
      <trkpt lat="48.71706" lon="2.47733">
        <ele>129.345</ele>
        <time>2018-12-12T14:27:18Z</time>
      </trkpt>
      <trkpt lat="48.71709" lon="2.47739">
        <ele>129.067</ele>
        <time>2018-12-12T14:27:22Z</time>
      </trkpt>
      <trkpt lat="48.71713" lon="2.47747">
        <ele>128.804</ele>
        <time>2018-12-12T14:27:26Z</time>
      </trkpt>
      <trkpt lat="48.71712" lon="2.47754">
        <ele>128.616</ele>
        <time>2018-12-12T14:27:29Z</time>
      </trkpt>
      <trkpt lat="48.71715" lon="2.4776">
        <ele>128.206</ele>
        <time>2018-12-12T14:27:36Z</time>
      </trkpt>
      <trkpt lat="48.71713" lon="2.47768">
        <ele>127.975</ele>
        <time>2018-12-12T14:27:40Z</time>
      </trkpt>
      <trkpt lat="48.71711" lon="2.47774">
        <ele>127.737</ele>
        <time>2018-12-12T14:27:44Z</time>
      </trkpt>
      <trkpt lat="48.7171" lon="2.47781">
        <ele>127.553</ele>
        <time>2018-12-12T14:27:47Z</time>
      </trkpt>
      <trkpt lat="48.71711" lon="2.47789">
        <ele>127.365</ele>
        <time>2018-12-12T14:27:50Z</time>
      </trkpt>
      <trkpt lat="48.71712" lon="2.47796">
        <ele>127.172</ele>
        <time>2018-12-12T14:27:53Z</time>
      </trkpt>
      <trkpt lat="48.71715" lon="2.47801">
        <ele>126.853</ele>
        <time>2018-12-12T14:27:58Z</time>
      </trkpt>
      <trkpt lat="48.71717" lon="2.47808">
        <ele>126.605</ele>
        <time>2018-12-12T14:28:02Z</time>
      </trkpt>
      <trkpt lat="48.71718" lon="2.47812">
        <ele>126.484</ele>
        <time>2018-12-12T14:28:04Z</time>
      </trkpt>
      <trkpt lat="48.71715" lon="2.47818">
        <ele>126.245</ele>
        <time>2018-12-12T14:28:08Z</time>
      </trkpt>
      <trkpt lat="48.71709" lon="2.47819">
        <ele>125.998</ele>
        <time>2018-12-12T14:28:13Z</time>
      </trkpt>
      <trkpt lat="48.71707" lon="2.47819">
        <ele>125.881</ele>
        <time>2018-12-12T14:28:15Z</time>
      </trkpt>
      <trkpt lat="48.71702" lon="2.47821">
        <ele>125.647</ele>
        <time>2018-12-12T14:28:19Z</time>
      </trkpt>
      <trkpt lat="48.717" lon="2.47822">
        <ele>125.53</ele>
        <time>2018-12-12T14:28:21Z</time>
      </trkpt>
      <trkpt lat="48.71695" lon="2.47825">
        <ele>125.297</ele>
        <time>2018-12-12T14:28:25Z</time>
      </trkpt>
      <trkpt lat="48.71689" lon="2.47825">
        <ele>125.011</ele>
        <time>2018-12-12T14:28:30Z</time>
      </trkpt>
      <trkpt lat="48.71687" lon="2.47825">
        <ele>124.895</ele>
        <time>2018-12-12T14:28:32Z</time>
      </trkpt>
      <trkpt lat="48.71684" lon="2.47826">
        <ele>124.778</ele>
        <time>2018-12-12T14:28:34Z</time>
      </trkpt>
      <trkpt lat="48.7168" lon="2.47827">
        <ele>124.599</ele>
        <time>2018-12-12T14:28:37Z</time>
      </trkpt>
      <trkpt lat="48.71675" lon="2.47829">
        <ele>124.29</ele>
        <time>2018-12-12T14:28:42Z</time>
      </trkpt>
      <trkpt lat="48.7167" lon="2.47829">
        <ele>124.036</ele>
        <time>2018-12-12T14:28:46Z</time>
      </trkpt>
      <trkpt lat="48.71664" lon="2.4783">
        <ele>123.779</ele>
        <time>2018-12-12T14:28:50Z</time>
      </trkpt>
      <trkpt lat="48.7166" lon="2.47831">
        <ele>123.583</ele>
        <time>2018-12-12T14:28:53Z</time>
      </trkpt>
      <trkpt lat="48.71658" lon="2.47832">
        <ele>123.383</ele>
        <time>2018-12-12T14:28:56Z</time>
      </trkpt>
      <trkpt lat="48.71654" lon="2.47836">
        <ele>122.855</ele>
        <time>2018-12-12T14:29:04Z</time>
      </trkpt>
      <trkpt lat="48.71648" lon="2.47836">
        <ele>122.653</ele>
        <time>2018-12-12T14:29:07Z</time>
      </trkpt>
      <trkpt lat="48.71644" lon="2.47836">
        <ele>122.514</ele>
        <time>2018-12-12T14:29:09Z</time>
      </trkpt>
      <trkpt lat="48.7164" lon="2.47837">
        <ele>122.303</ele>
        <time>2018-12-12T14:29:12Z</time>
      </trkpt>
      <trkpt lat="48.71637" lon="2.47837">
        <ele>122.09</ele>
        <time>2018-12-12T14:29:15Z</time>
      </trkpt>
      <trkpt lat="48.71633" lon="2.47839">
        <ele>121.808</ele>
        <time>2018-12-12T14:29:19Z</time>
      </trkpt>
      <trkpt lat="48.7163" lon="2.4784">
        <ele>121.667</ele>
        <time>2018-12-12T14:29:21Z</time>
      </trkpt>
      <trkpt lat="48.71627" lon="2.4784">
        <ele>121.525</ele>
        <time>2018-12-12T14:29:23Z</time>
      </trkpt>
      <trkpt lat="48.71622" lon="2.47843">
        <ele>121.235</ele>
        <time>2018-12-12T14:29:27Z</time>
      </trkpt>
      <trkpt lat="48.71616" lon="2.47845">
        <ele>120.938</ele>
        <time>2018-12-12T14:29:31Z</time>
      </trkpt>
      <trkpt lat="48.71612" lon="2.47846">
        <ele>120.71</ele>
        <time>2018-12-12T14:29:34Z</time>
      </trkpt>
      <trkpt lat="48.7161" lon="2.47846">
        <ele>120.554</ele>
        <time>2018-12-12T14:29:36Z</time>
      </trkpt>
      <trkpt lat="48.71606" lon="2.47847">
        <ele>120.171</ele>
        <time>2018-12-12T14:29:41Z</time>
      </trkpt>
      <trkpt lat="48.716" lon="2.47849">
        <ele>119.869</ele>
        <time>2018-12-12T14:29:45Z</time>
      </trkpt>
      <trkpt lat="48.71597" lon="2.4785">
        <ele>119.718</ele>
        <time>2018-12-12T14:29:47Z</time>
      </trkpt>
      <trkpt lat="48.71593" lon="2.47852">
        <ele>119.264</ele>
        <time>2018-12-12T14:29:53Z</time>
      </trkpt>
      <trkpt lat="48.7159" lon="2.47853">
        <ele>119.116</ele>
        <time>2018-12-12T14:29:55Z</time>
      </trkpt>
      <trkpt lat="48.71587" lon="2.47854">
        <ele>118.899</ele>
        <time>2018-12-12T14:29:58Z</time>
      </trkpt>
      <trkpt lat="48.71587" lon="2.47854">
        <ele>118.899</ele>
        <time>2018-12-12T14:30:05Z</time>
      </trkpt>
      <trkpt lat="48.71587" lon="2.47854">
        <ele>37.3</ele>
        <time>2018-12-12T14:30:05Z</time>
      </trkpt>
      <trkpt lat="48.71587" lon="2.47854">
        <ele>37.3</ele>
        <time>2018-12-12T14:30:36Z</time>
      </trkpt>
      <trkpt lat="48.71568" lon="2.4786">
        <ele>116.85</ele>
        <time>2018-12-12T14:30:36Z</time>
      </trkpt>
      <trkpt lat="48.71565" lon="2.4786">
        <ele>116.738</ele>
        <time>2018-12-12T14:30:38Z</time>
      </trkpt>
      <trkpt lat="48.71559" lon="2.47858">
        <ele>116.575</ele>
        <time>2018-12-12T14:30:41Z</time>
      </trkpt>
      <trkpt lat="48.71555" lon="2.47858">
        <ele>116.317</ele>
        <time>2018-12-12T14:30:46Z</time>
      </trkpt>
      <trkpt lat="48.71552" lon="2.47858">
        <ele>116.217</ele>
        <time>2018-12-12T14:30:48Z</time>
      </trkpt>
      <trkpt lat="48.71546" lon="2.47859">
        <ele>116.072</ele>
        <time>2018-12-12T14:30:51Z</time>
      </trkpt>
      <trkpt lat="48.71541" lon="2.47861">
        <ele>115.884</ele>
        <time>2018-12-12T14:30:55Z</time>
      </trkpt>
      <trkpt lat="48.71537" lon="2.47863">
        <ele>115.748</ele>
        <time>2018-12-12T14:30:58Z</time>
      </trkpt>
      <trkpt lat="48.71534" lon="2.47864">
        <ele>115.616</ele>
        <time>2018-12-12T14:31:01Z</time>
      </trkpt>
      <trkpt lat="48.7153" lon="2.47866">
        <ele>115.448</ele>
        <time>2018-12-12T14:31:05Z</time>
      </trkpt>
      <trkpt lat="48.71526" lon="2.4787">
        <ele>115.203</ele>
        <time>2018-12-12T14:31:11Z</time>
      </trkpt>
      <trkpt lat="48.71523" lon="2.47872">
        <ele>114.928</ele>
        <time>2018-12-12T14:31:18Z</time>
      </trkpt>
      <trkpt lat="48.71523" lon="2.47872">
        <ele>36.4</ele>
        <time>2018-12-12T14:31:23Z</time>
      </trkpt>
      <trkpt lat="48.71523" lon="2.47872">
        <ele>36.4</ele>
        <time>2018-12-12T14:31:24Z</time>
      </trkpt>
    </trkseg>
  </trk>
</gpx>